<?xml version="1.0" encoding="utf-8"?>
<gpx xmlns:xsi="http://www.w3.org/2001/XMLSchema-instance" xmlns:xsd="http://www.w3.org/2001/XMLSchema" version="1.1" creator="Shapelink.com" xmlns="http://www.topografix.com/GPX/1/1" xmlns:gpxtpx="http://www.garmin.com/xmlschemas/TrackPointExtension/v1">
  <metadata>
    <name>Sykling 76.32 km, 2013-05-01</name>
    <desc></desc>
    <author><name>Stefan Östlund</name></author> 
    <time>2013-05-01T10:55:32Z</time>
  </metadata>
  <trk>
    <name>Sykling 76.32 km, 2013-05-01</name>
    <trkseg>
      <trkpt lat="59.9874267578" lon="15.8239660263">
        <ele>5.8</ele>
        <time>2013-05-01T10:55:32Z</time>
      </trkpt>
      <trkpt lat="59.9875717163" lon="15.8241662979">
        <ele>5.8</ele>
        <time>2013-05-01T10:55:34Z</time>
      </trkpt>
      <trkpt lat="59.9876861572" lon="15.8242931366">
        <ele>6.8</ele>
        <time>2013-05-01T10:55:36Z</time>
      </trkpt>
      <trkpt lat="59.9877967834" lon="15.8245038986">
        <ele>6.8</ele>
        <time>2013-05-01T10:55:38Z</time>
      </trkpt>
      <trkpt lat="59.9878463745" lon="15.8245649338">
        <ele>6.8</ele>
        <time>2013-05-01T10:55:39Z</time>
      </trkpt>
      <trkpt lat="59.9878921509" lon="15.8246059418">
        <ele>6.8</ele>
        <time>2013-05-01T10:55:40Z</time>
      </trkpt>
      <trkpt lat="59.9879417419" lon="15.8246021271">
        <ele>6.8</ele>
        <time>2013-05-01T10:55:41Z</time>
      </trkpt>
      <trkpt lat="59.987991333" lon="15.8246154785">
        <ele>6.8</ele>
        <time>2013-05-01T10:55:42Z</time>
      </trkpt>
      <trkpt lat="59.988117218" lon="15.8245515823">
        <ele>6.8</ele>
        <time>2013-05-01T10:55:45Z</time>
      </trkpt>
      <trkpt lat="59.9881515503" lon="15.8245887756">
        <ele>6.8</ele>
        <time>2013-05-01T10:55:46Z</time>
      </trkpt>
      <trkpt lat="59.9882049561" lon="15.8246250153">
        <ele>6.8</ele>
        <time>2013-05-01T10:55:47Z</time>
      </trkpt>
      <trkpt lat="59.9883041382" lon="15.8246574402">
        <ele>6.8</ele>
        <time>2013-05-01T10:55:49Z</time>
      </trkpt>
      <trkpt lat="59.9883575439" lon="15.8246736526">
        <ele>6.8</ele>
        <time>2013-05-01T10:55:50Z</time>
      </trkpt>
      <trkpt lat="59.9884147644" lon="15.8246679306">
        <ele>6.8</ele>
        <time>2013-05-01T10:55:51Z</time>
      </trkpt>
      <trkpt lat="59.9884719849" lon="15.8246879578">
        <ele>6.8</ele>
        <time>2013-05-01T10:55:52Z</time>
      </trkpt>
      <trkpt lat="59.988609314" lon="15.8246936798">
        <ele>6.8</ele>
        <time>2013-05-01T10:55:54Z</time>
      </trkpt>
      <trkpt lat="59.9890632629" lon="15.8247680664">
        <ele>6.8</ele>
        <time>2013-05-01T10:56:01Z</time>
      </trkpt>
      <trkpt lat="59.9891433716" lon="15.8247652054">
        <ele>6.8</ele>
        <time>2013-05-01T10:56:02Z</time>
      </trkpt>
      <trkpt lat="59.989276886" lon="15.8247022629">
        <ele>6.8</ele>
        <time>2013-05-01T10:56:04Z</time>
      </trkpt>
      <trkpt lat="59.9893379211" lon="15.824681282">
        <ele>6.8</ele>
        <time>2013-05-01T10:56:05Z</time>
      </trkpt>
      <trkpt lat="59.9893989563" lon="15.8246650696">
        <ele>6.8</ele>
        <time>2013-05-01T10:56:06Z</time>
      </trkpt>
      <trkpt lat="59.9894866943" lon="15.8246212006">
        <ele>6.8</ele>
        <time>2013-05-01T10:56:07Z</time>
      </trkpt>
      <trkpt lat="59.9896240234" lon="15.8245487213">
        <ele>6.8</ele>
        <time>2013-05-01T10:56:09Z</time>
      </trkpt>
      <trkpt lat="59.9896697998" lon="15.8245286942">
        <ele>6.8</ele>
        <time>2013-05-01T10:56:10Z</time>
      </trkpt>
      <trkpt lat="59.9897422791" lon="15.8245019913">
        <ele>6.8</ele>
        <time>2013-05-01T10:56:11Z</time>
      </trkpt>
      <trkpt lat="59.9898147583" lon="15.8244714737">
        <ele>6.8</ele>
        <time>2013-05-01T10:56:12Z</time>
      </trkpt>
      <trkpt lat="59.9898796082" lon="15.8244400024">
        <ele>6.8</ele>
        <time>2013-05-01T10:56:13Z</time>
      </trkpt>
      <trkpt lat="59.9899330139" lon="15.8244190216">
        <ele>6.8</ele>
        <time>2013-05-01T10:56:14Z</time>
      </trkpt>
      <trkpt lat="59.9900131226" lon="15.824388504">
        <ele>6.8</ele>
        <time>2013-05-01T10:56:15Z</time>
      </trkpt>
      <trkpt lat="59.9900741577" lon="15.8243598938">
        <ele>6.8</ele>
        <time>2013-05-01T10:56:16Z</time>
      </trkpt>
      <trkpt lat="59.9902648926" lon="15.8242855072">
        <ele>6.8</ele>
        <time>2013-05-01T10:56:19Z</time>
      </trkpt>
      <trkpt lat="59.9903259277" lon="15.8242731094">
        <ele>6.8</ele>
        <time>2013-05-01T10:56:20Z</time>
      </trkpt>
      <trkpt lat="59.9904098511" lon="15.8242759705">
        <ele>6.8</ele>
        <time>2013-05-01T10:56:22Z</time>
      </trkpt>
      <trkpt lat="59.9904594421" lon="15.8242712021">
        <ele>6.8</ele>
        <time>2013-05-01T10:56:23Z</time>
      </trkpt>
      <trkpt lat="59.9905014038" lon="15.8242492676">
        <ele>6.8</ele>
        <time>2013-05-01T10:56:24Z</time>
      </trkpt>
      <trkpt lat="59.9905395508" lon="15.82421875">
        <ele>6.8</ele>
        <time>2013-05-01T10:56:25Z</time>
      </trkpt>
      <trkpt lat="59.9905700684" lon="15.8241968155">
        <ele>6.8</ele>
        <time>2013-05-01T10:56:26Z</time>
      </trkpt>
      <trkpt lat="59.9906272888" lon="15.8241910934">
        <ele>6.8</ele>
        <time>2013-05-01T10:56:27Z</time>
      </trkpt>
      <trkpt lat="59.9906768799" lon="15.8241882324">
        <ele>6.8</ele>
        <time>2013-05-01T10:56:28Z</time>
      </trkpt>
      <trkpt lat="59.9907226562" lon="15.8241863251">
        <ele>6.8</ele>
        <time>2013-05-01T10:56:29Z</time>
      </trkpt>
      <trkpt lat="59.9907569885" lon="15.8242235184">
        <ele>6.8</ele>
        <time>2013-05-01T10:56:30Z</time>
      </trkpt>
      <trkpt lat="59.9908370972" lon="15.8242759705">
        <ele>6.8</ele>
        <time>2013-05-01T10:56:33Z</time>
      </trkpt>
      <trkpt lat="59.9908409119" lon="15.8242959976">
        <ele>6.8</ele>
        <time>2013-05-01T10:56:34Z</time>
      </trkpt>
      <trkpt lat="59.9908561707" lon="15.8243055344">
        <ele>6.8</ele>
        <time>2013-05-01T10:56:35Z</time>
      </trkpt>
      <trkpt lat="59.9909172058" lon="15.8242721558">
        <ele>6.8</ele>
        <time>2013-05-01T10:56:36Z</time>
      </trkpt>
      <trkpt lat="59.9909934998" lon="15.8242473602">
        <ele>6.8</ele>
        <time>2013-05-01T10:56:37Z</time>
      </trkpt>
      <trkpt lat="59.9910621643" lon="15.8242444992">
        <ele>6.8</ele>
        <time>2013-05-01T10:56:38Z</time>
      </trkpt>
      <trkpt lat="59.9911193848" lon="15.8242340088">
        <ele>6.8</ele>
        <time>2013-05-01T10:56:39Z</time>
      </trkpt>
      <trkpt lat="59.9911651611" lon="15.8242139816">
        <ele>6.8</ele>
        <time>2013-05-01T10:56:40Z</time>
      </trkpt>
      <trkpt lat="59.9911994934" lon="15.824177742">
        <ele>6.8</ele>
        <time>2013-05-01T10:56:41Z</time>
      </trkpt>
      <trkpt lat="59.9912261963" lon="15.8240804672">
        <ele>6.8</ele>
        <time>2013-05-01T10:56:43Z</time>
      </trkpt>
      <trkpt lat="59.991230011" lon="15.824054718">
        <ele>6.8</ele>
        <time>2013-05-01T10:56:44Z</time>
      </trkpt>
      <trkpt lat="59.9912376404" lon="15.8240098953">
        <ele>6.8</ele>
        <time>2013-05-01T10:56:46Z</time>
      </trkpt>
      <trkpt lat="59.9912414551" lon="15.8239850998">
        <ele>6.8</ele>
        <time>2013-05-01T10:56:47Z</time>
      </trkpt>
      <trkpt lat="59.991268158" lon="15.8238773346">
        <ele>6.8</ele>
        <time>2013-05-01T10:56:50Z</time>
      </trkpt>
      <trkpt lat="59.9912643433" lon="15.8237886429">
        <ele>6.8</ele>
        <time>2013-05-01T10:56:52Z</time>
      </trkpt>
      <trkpt lat="59.9912605286" lon="15.8237342834">
        <ele>6.8</ele>
        <time>2013-05-01T10:56:53Z</time>
      </trkpt>
      <trkpt lat="59.9912376404" lon="15.8235778809">
        <ele>6.8</ele>
        <time>2013-05-01T10:56:56Z</time>
      </trkpt>
      <trkpt lat="59.9912376404" lon="15.8235168457">
        <ele>8</ele>
        <time>2013-05-01T10:56:57Z</time>
      </trkpt>
      <trkpt lat="59.9912376404" lon="15.8234519958">
        <ele>8</ele>
        <time>2013-05-01T10:56:58Z</time>
      </trkpt>
      <trkpt lat="59.9912376404" lon="15.823390007">
        <ele>8</ele>
        <time>2013-05-01T10:56:59Z</time>
      </trkpt>
      <trkpt lat="59.9912452698" lon="15.8233213425">
        <ele>7.8</ele>
        <time>2013-05-01T10:57:00Z</time>
      </trkpt>
      <trkpt lat="59.9912490845" lon="15.8232584">
        <ele>8</ele>
        <time>2013-05-01T10:57:01Z</time>
      </trkpt>
      <trkpt lat="59.991268158" lon="15.8231945038">
        <ele>9</ele>
        <time>2013-05-01T10:57:02Z</time>
      </trkpt>
      <trkpt lat="59.9912796021" lon="15.8231334686">
        <ele>9</ele>
        <time>2013-05-01T10:57:03Z</time>
      </trkpt>
      <trkpt lat="59.9912948608" lon="15.8230829239">
        <ele>9</ele>
        <time>2013-05-01T10:57:04Z</time>
      </trkpt>
      <trkpt lat="59.9913406372" lon="15.8229312897">
        <ele>9</ele>
        <time>2013-05-01T10:57:06Z</time>
      </trkpt>
      <trkpt lat="59.9913482666" lon="15.8227443695">
        <ele>9</ele>
        <time>2013-05-01T10:57:08Z</time>
      </trkpt>
      <trkpt lat="59.9913406372" lon="15.8225498199">
        <ele>9</ele>
        <time>2013-05-01T10:57:10Z</time>
      </trkpt>
      <trkpt lat="59.9913406372" lon="15.8224449158">
        <ele>10</ele>
        <time>2013-05-01T10:57:11Z</time>
      </trkpt>
      <trkpt lat="59.9913520813" lon="15.8223257065">
        <ele>10</ele>
        <time>2013-05-01T10:57:12Z</time>
      </trkpt>
      <trkpt lat="59.9913635254" lon="15.8222169876">
        <ele>10</ele>
        <time>2013-05-01T10:57:13Z</time>
      </trkpt>
      <trkpt lat="59.9913787842" lon="15.8221035004">
        <ele>10</ele>
        <time>2013-05-01T10:57:14Z</time>
      </trkpt>
      <trkpt lat="59.991394043" lon="15.8219890594">
        <ele>10</ele>
        <time>2013-05-01T10:57:15Z</time>
      </trkpt>
      <trkpt lat="59.9914169312" lon="15.8217458725">
        <ele>10</ele>
        <time>2013-05-01T10:57:17Z</time>
      </trkpt>
      <trkpt lat="59.9914283752" lon="15.8216238022">
        <ele>10</ele>
        <time>2013-05-01T10:57:18Z</time>
      </trkpt>
      <trkpt lat="59.9914474487" lon="15.8213644028">
        <ele>10</ele>
        <time>2013-05-01T10:57:20Z</time>
      </trkpt>
      <trkpt lat="59.9914550781" lon="15.8212356567">
        <ele>10</ele>
        <time>2013-05-01T10:57:21Z</time>
      </trkpt>
      <trkpt lat="59.9914627075" lon="15.8211050034">
        <ele>10</ele>
        <time>2013-05-01T10:57:22Z</time>
      </trkpt>
      <trkpt lat="59.9914665222" lon="15.820971489">
        <ele>10</ele>
        <time>2013-05-01T10:57:23Z</time>
      </trkpt>
      <trkpt lat="59.991481781" lon="15.8208284378">
        <ele>10</ele>
        <time>2013-05-01T10:57:24Z</time>
      </trkpt>
      <trkpt lat="59.9914932251" lon="15.8204193115">
        <ele>10</ele>
        <time>2013-05-01T10:57:27Z</time>
      </trkpt>
      <trkpt lat="59.9914932251" lon="15.8202924728">
        <ele>10</ele>
        <time>2013-05-01T10:57:28Z</time>
      </trkpt>
      <trkpt lat="59.9914932251" lon="15.8201465607">
        <ele>10</ele>
        <time>2013-05-01T10:57:29Z</time>
      </trkpt>
      <trkpt lat="59.9914970398" lon="15.8198690414">
        <ele>10</ele>
        <time>2013-05-01T10:57:31Z</time>
      </trkpt>
      <trkpt lat="59.9915008545" lon="15.8197278976">
        <ele>10</ele>
        <time>2013-05-01T10:57:32Z</time>
      </trkpt>
      <trkpt lat="59.9915008545" lon="15.8195829391">
        <ele>10</ele>
        <time>2013-05-01T10:57:33Z</time>
      </trkpt>
      <trkpt lat="59.9915008545" lon="15.819442749">
        <ele>10</ele>
        <time>2013-05-01T10:57:34Z</time>
      </trkpt>
      <trkpt lat="59.9914970398" lon="15.8191261292">
        <ele>9.8</ele>
        <time>2013-05-01T10:57:36Z</time>
      </trkpt>
      <trkpt lat="59.9914970398" lon="15.8191337585">
        <ele>10</ele>
        <time>2013-05-01T10:57:37Z</time>
      </trkpt>
      <trkpt lat="59.9914970398" lon="15.8188257217">
        <ele>6.4</ele>
        <time>2013-05-01T10:57:38Z</time>
      </trkpt>
      <trkpt lat="59.9914970398" lon="15.8186988831">
        <ele>6.4</ele>
        <time>2013-05-01T10:57:39Z</time>
      </trkpt>
      <trkpt lat="59.9914970398" lon="15.8185224533">
        <ele>6.4</ele>
        <time>2013-05-01T10:57:40Z</time>
      </trkpt>
      <trkpt lat="59.9914970398" lon="15.8183679581">
        <ele>6.4</ele>
        <time>2013-05-01T10:57:41Z</time>
      </trkpt>
      <trkpt lat="59.9915008545" lon="15.8182010651">
        <ele>6.4</ele>
        <time>2013-05-01T10:57:42Z</time>
      </trkpt>
      <trkpt lat="59.9915046692" lon="15.8180608749">
        <ele>6.4</ele>
        <time>2013-05-01T10:57:43Z</time>
      </trkpt>
      <trkpt lat="59.9915084839" lon="15.8178930283">
        <ele>6.4</ele>
        <time>2013-05-01T10:57:44Z</time>
      </trkpt>
      <trkpt lat="59.9915161133" lon="15.817735672">
        <ele>6.4</ele>
        <time>2013-05-01T10:57:45Z</time>
      </trkpt>
      <trkpt lat="59.9915237427" lon="15.8176078796">
        <ele>6.4</ele>
        <time>2013-05-01T10:57:46Z</time>
      </trkpt>
      <trkpt lat="59.9915733337" lon="15.8169965744">
        <ele>6.4</ele>
        <time>2013-05-01T10:57:50Z</time>
      </trkpt>
      <trkpt lat="59.9915847778" lon="15.8168792725">
        <ele>6.4</ele>
        <time>2013-05-01T10:57:51Z</time>
      </trkpt>
      <trkpt lat="59.9915962219" lon="15.816737175">
        <ele>6.4</ele>
        <time>2013-05-01T10:57:52Z</time>
      </trkpt>
      <trkpt lat="59.9916305542" lon="15.8163585663">
        <ele>6.4</ele>
        <time>2013-05-01T10:57:56Z</time>
      </trkpt>
      <trkpt lat="59.9916572571" lon="15.8160181046">
        <ele>6.4</ele>
        <time>2013-05-01T10:57:57Z</time>
      </trkpt>
      <trkpt lat="59.9916687012" lon="15.8158788681">
        <ele>6.4</ele>
        <time>2013-05-01T10:57:58Z</time>
      </trkpt>
      <trkpt lat="59.9916763306" lon="15.8157653809">
        <ele>6.4</ele>
        <time>2013-05-01T10:57:59Z</time>
      </trkpt>
      <trkpt lat="59.9916915894" lon="15.8154706955">
        <ele>6.4</ele>
        <time>2013-05-01T10:58:01Z</time>
      </trkpt>
      <trkpt lat="59.9916954041" lon="15.8153266907">
        <ele>6.4</ele>
        <time>2013-05-01T10:58:02Z</time>
      </trkpt>
      <trkpt lat="59.9916992188" lon="15.8152084351">
        <ele>6.4</ele>
        <time>2013-05-01T10:58:03Z</time>
      </trkpt>
      <trkpt lat="59.9916992188" lon="15.8150682449">
        <ele>6.4</ele>
        <time>2013-05-01T10:58:04Z</time>
      </trkpt>
      <trkpt lat="59.9916954041" lon="15.8149251938">
        <ele>6.4</ele>
        <time>2013-05-01T10:58:05Z</time>
      </trkpt>
      <trkpt lat="59.9916954041" lon="15.8148002625">
        <ele>6.4</ele>
        <time>2013-05-01T10:58:06Z</time>
      </trkpt>
      <trkpt lat="59.9916915894" lon="15.8146715164">
        <ele>6.4</ele>
        <time>2013-05-01T10:58:07Z</time>
      </trkpt>
      <trkpt lat="59.99168396" lon="15.8145179749">
        <ele>6.4</ele>
        <time>2013-05-01T10:58:08Z</time>
      </trkpt>
      <trkpt lat="59.9916496277" lon="15.8139429092">
        <ele>5.4</ele>
        <time>2013-05-01T10:58:12Z</time>
      </trkpt>
      <trkpt lat="59.9916229248" lon="15.8136606216">
        <ele>5.4</ele>
        <time>2013-05-01T10:58:14Z</time>
      </trkpt>
      <trkpt lat="59.9915924072" lon="15.8133907318">
        <ele>5.4</ele>
        <time>2013-05-01T10:58:16Z</time>
      </trkpt>
      <trkpt lat="59.9915733337" lon="15.8132247925">
        <ele>4.4</ele>
        <time>2013-05-01T10:58:17Z</time>
      </trkpt>
      <trkpt lat="59.9915390015" lon="15.8129529953">
        <ele>3.2</ele>
        <time>2013-05-01T10:58:19Z</time>
      </trkpt>
      <trkpt lat="59.9915351868" lon="15.8127994537">
        <ele>3.2</ele>
        <time>2013-05-01T10:58:20Z</time>
      </trkpt>
      <trkpt lat="59.9915847778" lon="15.8125810623">
        <ele>3.2</ele>
        <time>2013-05-01T10:58:22Z</time>
      </trkpt>
      <trkpt lat="59.9915962219" lon="15.8126125336">
        <ele>3.2</ele>
        <time>2013-05-01T10:58:23Z</time>
      </trkpt>
      <trkpt lat="59.9918136597" lon="15.8124198914">
        <ele>3.2</ele>
        <time>2013-05-01T10:58:26Z</time>
      </trkpt>
      <trkpt lat="59.9919242859" lon="15.8123264313">
        <ele>3.4</ele>
        <time>2013-05-01T10:58:28Z</time>
      </trkpt>
      <trkpt lat="59.9919815063" lon="15.8122806549">
        <ele>3.2</ele>
        <time>2013-05-01T10:58:29Z</time>
      </trkpt>
      <trkpt lat="59.9921607971" lon="15.8121442795">
        <ele>3.4</ele>
        <time>2013-05-01T10:58:32Z</time>
      </trkpt>
      <trkpt lat="59.9922180176" lon="15.8120975494">
        <ele>3.2</ele>
        <time>2013-05-01T10:58:33Z</time>
      </trkpt>
      <trkpt lat="59.9922790527" lon="15.8120508194">
        <ele>3.4</ele>
        <time>2013-05-01T10:58:34Z</time>
      </trkpt>
      <trkpt lat="59.992275238" lon="15.8120536804">
        <ele>3.2</ele>
        <time>2013-05-01T10:58:35Z</time>
      </trkpt>
      <trkpt lat="59.9923858643" lon="15.811964035">
        <ele>3.2</ele>
        <time>2013-05-01T10:58:36Z</time>
      </trkpt>
      <trkpt lat="59.992515564" lon="15.8118553162">
        <ele>3.2</ele>
        <time>2013-05-01T10:58:38Z</time>
      </trkpt>
      <trkpt lat="59.9925613403" lon="15.8118143082">
        <ele>3.2</ele>
        <time>2013-05-01T10:58:39Z</time>
      </trkpt>
      <trkpt lat="59.9927482605" lon="15.8116445541">
        <ele>3.2</ele>
        <time>2013-05-01T10:58:42Z</time>
      </trkpt>
      <trkpt lat="59.9927940369" lon="15.8116016388">
        <ele>3.2</ele>
        <time>2013-05-01T10:58:43Z</time>
      </trkpt>
      <trkpt lat="59.9928627014" lon="15.8115358353">
        <ele>6</ele>
        <time>2013-05-01T10:58:44Z</time>
      </trkpt>
      <trkpt lat="59.9929733276" lon="15.811413765">
        <ele>6.4</ele>
        <time>2013-05-01T10:58:46Z</time>
      </trkpt>
      <trkpt lat="59.993019104" lon="15.8113679886">
        <ele>6</ele>
        <time>2013-05-01T10:58:47Z</time>
      </trkpt>
      <trkpt lat="59.9932327271" lon="15.8111457825">
        <ele>7.4</ele>
        <time>2013-05-01T10:58:51Z</time>
      </trkpt>
      <trkpt lat="59.9932785034" lon="15.8110923767">
        <ele>7.4</ele>
        <time>2013-05-01T10:58:52Z</time>
      </trkpt>
      <trkpt lat="59.9933319092" lon="15.8110303879">
        <ele>7.4</ele>
        <time>2013-05-01T10:58:53Z</time>
      </trkpt>
      <trkpt lat="59.9933815002" lon="15.8109693527">
        <ele>7.4</ele>
        <time>2013-05-01T10:58:54Z</time>
      </trkpt>
      <trkpt lat="59.9935760498" lon="15.8107328415">
        <ele>7.4</ele>
        <time>2013-05-01T10:58:58Z</time>
      </trkpt>
      <trkpt lat="59.9936141968" lon="15.8106822968">
        <ele>7.4</ele>
        <time>2013-05-01T10:58:59Z</time>
      </trkpt>
      <trkpt lat="59.9937705994" lon="15.8104906082">
        <ele>7.4</ele>
        <time>2013-05-01T10:59:02Z</time>
      </trkpt>
      <trkpt lat="59.9938163757" lon="15.8104400635">
        <ele>7.4</ele>
        <time>2013-05-01T10:59:03Z</time>
      </trkpt>
      <trkpt lat="59.9938659668" lon="15.810377121">
        <ele>7.4</ele>
        <time>2013-05-01T10:59:04Z</time>
      </trkpt>
      <trkpt lat="59.9940071106" lon="15.8101892471">
        <ele>8.2</ele>
        <time>2013-05-01T10:59:07Z</time>
      </trkpt>
      <trkpt lat="59.9942016602" lon="15.8099498749">
        <ele>8.6</ele>
        <time>2013-05-01T10:59:11Z</time>
      </trkpt>
      <trkpt lat="59.9942474365" lon="15.8099021912">
        <ele>8.2</ele>
        <time>2013-05-01T10:59:12Z</time>
      </trkpt>
      <trkpt lat="59.9944229126" lon="15.809709549">
        <ele>8.2</ele>
        <time>2013-05-01T10:59:16Z</time>
      </trkpt>
      <trkpt lat="59.9944801331" lon="15.8096418381">
        <ele>8.2</ele>
        <time>2013-05-01T10:59:17Z</time>
      </trkpt>
      <trkpt lat="59.9945220947" lon="15.8095874786">
        <ele>9.6</ele>
        <time>2013-05-01T10:59:18Z</time>
      </trkpt>
      <trkpt lat="59.9946594238" lon="15.8094186783">
        <ele>9.6</ele>
        <time>2013-05-01T10:59:21Z</time>
      </trkpt>
      <trkpt lat="59.9947052002" lon="15.8093633652">
        <ele>9.6</ele>
        <time>2013-05-01T10:59:22Z</time>
      </trkpt>
      <trkpt lat="59.9947242737" lon="15.809343338">
        <ele>9.6</ele>
        <time>2013-05-01T10:59:23Z</time>
      </trkpt>
      <trkpt lat="59.9948005676" lon="15.8092594147">
        <ele>9.6</ele>
        <time>2013-05-01T10:59:24Z</time>
      </trkpt>
      <trkpt lat="59.9950370789" lon="15.8090372086">
        <ele>10.6</ele>
        <time>2013-05-01T10:59:29Z</time>
      </trkpt>
      <trkpt lat="59.9950828552" lon="15.8089962006">
        <ele>10.6</ele>
        <time>2013-05-01T10:59:30Z</time>
      </trkpt>
      <trkpt lat="59.9951286316" lon="15.8089561462">
        <ele>10.8</ele>
        <time>2013-05-01T10:59:31Z</time>
      </trkpt>
      <trkpt lat="59.995174408" lon="15.8089179993">
        <ele>10.6</ele>
        <time>2013-05-01T10:59:32Z</time>
      </trkpt>
      <trkpt lat="59.9952964783" lon="15.8088521957">
        <ele>10.6</ele>
        <time>2013-05-01T10:59:36Z</time>
      </trkpt>
      <trkpt lat="59.9953193665" lon="15.8088140488">
        <ele>10.6</ele>
        <time>2013-05-01T10:59:37Z</time>
      </trkpt>
      <trkpt lat="59.9953308105" lon="15.8087558746">
        <ele>10.6</ele>
        <time>2013-05-01T10:59:38Z</time>
      </trkpt>
      <trkpt lat="59.9953422546" lon="15.8086948395">
        <ele>10.6</ele>
        <time>2013-05-01T10:59:39Z</time>
      </trkpt>
      <trkpt lat="59.9953575134" lon="15.8086128235">
        <ele>10.6</ele>
        <time>2013-05-01T10:59:40Z</time>
      </trkpt>
      <trkpt lat="59.9953956604" lon="15.8084411621">
        <ele>10.6</ele>
        <time>2013-05-01T10:59:42Z</time>
      </trkpt>
      <trkpt lat="59.9953918457" lon="15.8083610535">
        <ele>10.6</ele>
        <time>2013-05-01T10:59:43Z</time>
      </trkpt>
      <trkpt lat="59.9953079224" lon="15.8081560135">
        <ele>10.8</ele>
        <time>2013-05-01T10:59:46Z</time>
      </trkpt>
      <trkpt lat="59.9952735901" lon="15.8081159592">
        <ele>10.6</ele>
        <time>2013-05-01T10:59:47Z</time>
      </trkpt>
      <trkpt lat="59.9952316284" lon="15.8080596924">
        <ele>10.6</ele>
        <time>2013-05-01T10:59:48Z</time>
      </trkpt>
      <trkpt lat="59.9951934814" lon="15.8080129623">
        <ele>10.6</ele>
        <time>2013-05-01T10:59:49Z</time>
      </trkpt>
      <trkpt lat="59.9951553345" lon="15.807975769">
        <ele>10.6</ele>
        <time>2013-05-01T10:59:50Z</time>
      </trkpt>
      <trkpt lat="59.9951171875" lon="15.8079433441">
        <ele>10.8</ele>
        <time>2013-05-01T10:59:51Z</time>
      </trkpt>
      <trkpt lat="59.9950790405" lon="15.8079452515">
        <ele>10.6</ele>
        <time>2013-05-01T10:59:52Z</time>
      </trkpt>
      <trkpt lat="59.9948425293" lon="15.8080120087">
        <ele>10.6</ele>
        <time>2013-05-01T10:59:58Z</time>
      </trkpt>
      <trkpt lat="59.9947738647" lon="15.8081026077">
        <ele>10.6</ele>
        <time>2013-05-01T11:00:00Z</time>
      </trkpt>
      <trkpt lat="59.9947509766" lon="15.8082447052">
        <ele>10.6</ele>
        <time>2013-05-01T11:00:02Z</time>
      </trkpt>
      <trkpt lat="59.9948005676" lon="15.8083772659">
        <ele>10.6</ele>
        <time>2013-05-01T11:00:05Z</time>
      </trkpt>
      <trkpt lat="59.9948196411" lon="15.8084468842">
        <ele>10.6</ele>
        <time>2013-05-01T11:00:08Z</time>
      </trkpt>
      <trkpt lat="59.9948196411" lon="15.8084487915">
        <ele>10.6</ele>
        <time>2013-05-01T11:00:09Z</time>
      </trkpt>
      <trkpt lat="59.9948196411" lon="15.8084545135">
        <ele>7.4</ele>
        <time>2013-05-01T11:00:13Z</time>
      </trkpt>
      <trkpt lat="59.9948196411" lon="15.8084545135">
        <ele>7.4</ele>
        <time>2013-05-01T11:00:16Z</time>
      </trkpt>
      <trkpt lat="59.9948158264" lon="15.8084573746">
        <ele>7.4</ele>
        <time>2013-05-01T11:00:18Z</time>
      </trkpt>
      <trkpt lat="59.9948158264" lon="15.8084583282">
        <ele>7.4</ele>
        <time>2013-05-01T11:00:20Z</time>
      </trkpt>
      <trkpt lat="59.9948158264" lon="15.8084583282">
        <ele>7.4</ele>
        <time>2013-05-01T11:00:21Z</time>
      </trkpt>
      <trkpt lat="59.9948158264" lon="15.8084602356">
        <ele>7.4</ele>
        <time>2013-05-01T11:00:23Z</time>
      </trkpt>
      <trkpt lat="59.9948120117" lon="15.8084659576">
        <ele>7.4</ele>
        <time>2013-05-01T11:00:28Z</time>
      </trkpt>
      <trkpt lat="59.994808197" lon="15.8084669113">
        <ele>7.4</ele>
        <time>2013-05-01T11:00:32Z</time>
      </trkpt>
      <trkpt lat="59.994808197" lon="15.8084716797">
        <ele>7.4</ele>
        <time>2013-05-01T11:00:35Z</time>
      </trkpt>
      <trkpt lat="59.9948043823" lon="15.808473587">
        <ele>6.4</ele>
        <time>2013-05-01T11:00:36Z</time>
      </trkpt>
      <trkpt lat="59.9948043823" lon="15.8084783554">
        <ele>6.4</ele>
        <time>2013-05-01T11:00:41Z</time>
      </trkpt>
      <trkpt lat="59.9948043823" lon="15.8084793091">
        <ele>6.4</ele>
        <time>2013-05-01T11:00:44Z</time>
      </trkpt>
      <trkpt lat="59.9948043823" lon="15.8084783554">
        <ele>6.4</ele>
        <time>2013-05-01T11:00:53Z</time>
      </trkpt>
      <trkpt lat="59.9948043823" lon="15.8084764481">
        <ele>6.4</ele>
        <time>2013-05-01T11:00:54Z</time>
      </trkpt>
      <trkpt lat="59.9948043823" lon="15.8084774017">
        <ele>5.4</ele>
        <time>2013-05-01T11:00:59Z</time>
      </trkpt>
      <trkpt lat="59.9948005676" lon="15.8084783554">
        <ele>5.4</ele>
        <time>2013-05-01T11:01:00Z</time>
      </trkpt>
      <trkpt lat="59.9948005676" lon="15.8084802628">
        <ele>5.4</ele>
        <time>2013-05-01T11:01:03Z</time>
      </trkpt>
      <trkpt lat="59.9948005676" lon="15.8084802628">
        <ele>5.4</ele>
        <time>2013-05-01T11:01:06Z</time>
      </trkpt>
      <trkpt lat="59.9947967529" lon="15.8084821701">
        <ele>5.4</ele>
        <time>2013-05-01T11:01:09Z</time>
      </trkpt>
      <trkpt lat="59.9947967529" lon="15.8084831238">
        <ele>5.4</ele>
        <time>2013-05-01T11:01:11Z</time>
      </trkpt>
      <trkpt lat="59.9947891235" lon="15.8084897995">
        <ele>5.4</ele>
        <time>2013-05-01T11:01:15Z</time>
      </trkpt>
      <trkpt lat="59.9947776794" lon="15.8084983826">
        <ele>4.4</ele>
        <time>2013-05-01T11:01:23Z</time>
      </trkpt>
      <trkpt lat="59.9947776794" lon="15.8084955215">
        <ele>4.4</ele>
        <time>2013-05-01T11:01:24Z</time>
      </trkpt>
      <trkpt lat="59.9947738647" lon="15.8084907532">
        <ele>4.4</ele>
        <time>2013-05-01T11:01:28Z</time>
      </trkpt>
      <trkpt lat="59.99477005" lon="15.8084878922">
        <ele>4.4</ele>
        <time>2013-05-01T11:01:30Z</time>
      </trkpt>
      <trkpt lat="59.9947662354" lon="15.8084754944">
        <ele>4.4</ele>
        <time>2013-05-01T11:01:32Z</time>
      </trkpt>
      <trkpt lat="59.9947662354" lon="15.8084630966">
        <ele>4.4</ele>
        <time>2013-05-01T11:01:34Z</time>
      </trkpt>
      <trkpt lat="59.994758606" lon="15.8084115982">
        <ele>4.4</ele>
        <time>2013-05-01T11:01:38Z</time>
      </trkpt>
      <trkpt lat="59.9947280884" lon="15.8083257675">
        <ele>4.4</ele>
        <time>2013-05-01T11:01:41Z</time>
      </trkpt>
      <trkpt lat="59.9947166443" lon="15.8082265854">
        <ele>4.4</ele>
        <time>2013-05-01T11:01:43Z</time>
      </trkpt>
      <trkpt lat="59.9947471619" lon="15.8081331253">
        <ele>4.4</ele>
        <time>2013-05-01T11:01:45Z</time>
      </trkpt>
      <trkpt lat="59.99477005" lon="15.8081064224">
        <ele>4.4</ele>
        <time>2013-05-01T11:01:46Z</time>
      </trkpt>
      <trkpt lat="59.9948310852" lon="15.8080730438">
        <ele>4.4</ele>
        <time>2013-05-01T11:01:48Z</time>
      </trkpt>
      <trkpt lat="59.9949226379" lon="15.8080005646">
        <ele>4.4</ele>
        <time>2013-05-01T11:01:51Z</time>
      </trkpt>
      <trkpt lat="59.9949951172" lon="15.8078145981">
        <ele>4.4</ele>
        <time>2013-05-01T11:01:55Z</time>
      </trkpt>
      <trkpt lat="59.9949569702" lon="15.8075141907">
        <ele>4.4</ele>
        <time>2013-05-01T11:02:00Z</time>
      </trkpt>
      <trkpt lat="59.9948921204" lon="15.8072834015">
        <ele>4.4</ele>
        <time>2013-05-01T11:02:04Z</time>
      </trkpt>
      <trkpt lat="59.9948539734" lon="15.8071804047">
        <ele>4.4</ele>
        <time>2013-05-01T11:02:06Z</time>
      </trkpt>
      <trkpt lat="59.9948348999" lon="15.8071289062">
        <ele>4.4</ele>
        <time>2013-05-01T11:02:07Z</time>
      </trkpt>
      <trkpt lat="59.9948196411" lon="15.8070831299">
        <ele>4.4</ele>
        <time>2013-05-01T11:02:08Z</time>
      </trkpt>
      <trkpt lat="59.994808197" lon="15.8070344925">
        <ele>4.4</ele>
        <time>2013-05-01T11:02:09Z</time>
      </trkpt>
      <trkpt lat="59.9947967529" lon="15.8069820404">
        <ele>4.4</ele>
        <time>2013-05-01T11:02:10Z</time>
      </trkpt>
      <trkpt lat="59.9947853088" lon="15.8069229126">
        <ele>4.4</ele>
        <time>2013-05-01T11:02:11Z</time>
      </trkpt>
      <trkpt lat="59.99477005" lon="15.8068618774">
        <ele>4.4</ele>
        <time>2013-05-01T11:02:12Z</time>
      </trkpt>
      <trkpt lat="59.9947509766" lon="15.806804657">
        <ele>4.4</ele>
        <time>2013-05-01T11:02:13Z</time>
      </trkpt>
      <trkpt lat="59.9947319031" lon="15.8067493439">
        <ele>7.4</ele>
        <time>2013-05-01T11:02:14Z</time>
      </trkpt>
      <trkpt lat="59.9946670532" lon="15.8065662384">
        <ele>7.4</ele>
        <time>2013-05-01T11:02:17Z</time>
      </trkpt>
      <trkpt lat="59.9945259094" lon="15.8063001633">
        <ele>7.4</ele>
        <time>2013-05-01T11:02:22Z</time>
      </trkpt>
      <trkpt lat="59.9944915771" lon="15.8062601089">
        <ele>7.4</ele>
        <time>2013-05-01T11:02:23Z</time>
      </trkpt>
      <trkpt lat="59.9944534302" lon="15.8062200546">
        <ele>7.4</ele>
        <time>2013-05-01T11:02:24Z</time>
      </trkpt>
      <trkpt lat="59.9944152832" lon="15.8061847687">
        <ele>8.6</ele>
        <time>2013-05-01T11:02:25Z</time>
      </trkpt>
      <trkpt lat="59.9943771362" lon="15.8061523438">
        <ele>8.6</ele>
        <time>2013-05-01T11:02:26Z</time>
      </trkpt>
      <trkpt lat="59.9943351746" lon="15.8061151505">
        <ele>8.6</ele>
        <time>2013-05-01T11:02:27Z</time>
      </trkpt>
      <trkpt lat="59.9942932129" lon="15.8060836792">
        <ele>8.6</ele>
        <time>2013-05-01T11:02:28Z</time>
      </trkpt>
      <trkpt lat="59.9942512512" lon="15.806063652">
        <ele>8.6</ele>
        <time>2013-05-01T11:02:29Z</time>
      </trkpt>
      <trkpt lat="59.9941711426" lon="15.806014061">
        <ele>8.6</ele>
        <time>2013-05-01T11:02:31Z</time>
      </trkpt>
      <trkpt lat="59.9941215515" lon="15.8059864044">
        <ele>8.6</ele>
        <time>2013-05-01T11:02:32Z</time>
      </trkpt>
      <trkpt lat="59.9940795898" lon="15.8059635162">
        <ele>8.6</ele>
        <time>2013-05-01T11:02:33Z</time>
      </trkpt>
      <trkpt lat="59.9939537048" lon="15.8059024811">
        <ele>8.6</ele>
        <time>2013-05-01T11:02:36Z</time>
      </trkpt>
      <trkpt lat="59.993812561" lon="15.8058462143">
        <ele>8.6</ele>
        <time>2013-05-01T11:02:39Z</time>
      </trkpt>
      <trkpt lat="59.9937667847" lon="15.8058280945">
        <ele>8.6</ele>
        <time>2013-05-01T11:02:40Z</time>
      </trkpt>
      <trkpt lat="59.9937210083" lon="15.8058195114">
        <ele>8.6</ele>
        <time>2013-05-01T11:02:41Z</time>
      </trkpt>
      <trkpt lat="59.9936714172" lon="15.8058137894">
        <ele>8.2</ele>
        <time>2013-05-01T11:02:42Z</time>
      </trkpt>
      <trkpt lat="59.9936180115" lon="15.8058137894">
        <ele>8.6</ele>
        <time>2013-05-01T11:02:43Z</time>
      </trkpt>
      <trkpt lat="59.9934082031" lon="15.805811882">
        <ele>8.6</ele>
        <time>2013-05-01T11:02:47Z</time>
      </trkpt>
      <trkpt lat="59.9932975769" lon="15.8058366776">
        <ele>8.6</ele>
        <time>2013-05-01T11:02:49Z</time>
      </trkpt>
      <trkpt lat="59.9932479858" lon="15.8058462143">
        <ele>8.6</ele>
        <time>2013-05-01T11:02:50Z</time>
      </trkpt>
      <trkpt lat="59.9929847717" lon="15.8059091568">
        <ele>5</ele>
        <time>2013-05-01T11:02:54Z</time>
      </trkpt>
      <trkpt lat="59.9929161072" lon="15.805929184">
        <ele>5.4</ele>
        <time>2013-05-01T11:02:55Z</time>
      </trkpt>
      <trkpt lat="59.9928474426" lon="15.8059444427">
        <ele>4</ele>
        <time>2013-05-01T11:02:56Z</time>
      </trkpt>
      <trkpt lat="59.9926986694" lon="15.8059749603">
        <ele>4</ele>
        <time>2013-05-01T11:02:58Z</time>
      </trkpt>
      <trkpt lat="59.9926300049" lon="15.8059864044">
        <ele>4</ele>
        <time>2013-05-01T11:02:59Z</time>
      </trkpt>
      <trkpt lat="59.9925575256" lon="15.8060007095">
        <ele>3.2</ele>
        <time>2013-05-01T11:03:00Z</time>
      </trkpt>
      <trkpt lat="59.9924926758" lon="15.806016922">
        <ele>3.2</ele>
        <time>2013-05-01T11:03:01Z</time>
      </trkpt>
      <trkpt lat="59.9924240112" lon="15.8060359955">
        <ele>3</ele>
        <time>2013-05-01T11:03:02Z</time>
      </trkpt>
      <trkpt lat="59.9923591614" lon="15.8060369492">
        <ele>3.2</ele>
        <time>2013-05-01T11:03:03Z</time>
      </trkpt>
      <trkpt lat="59.9922904968" lon="15.8060379028">
        <ele>3.2</ele>
        <time>2013-05-01T11:03:04Z</time>
      </trkpt>
      <trkpt lat="59.9920501709" lon="15.8060255051">
        <ele>3.2</ele>
        <time>2013-05-01T11:03:08Z</time>
      </trkpt>
      <trkpt lat="59.9919967651" lon="15.806022644">
        <ele>3.2</ele>
        <time>2013-05-01T11:03:09Z</time>
      </trkpt>
      <trkpt lat="59.9919433594" lon="15.806019783">
        <ele>3.4</ele>
        <time>2013-05-01T11:03:10Z</time>
      </trkpt>
      <trkpt lat="59.9918937683" lon="15.8059968948">
        <ele>3.2</ele>
        <time>2013-05-01T11:03:11Z</time>
      </trkpt>
      <trkpt lat="59.9917907715" lon="15.8059768677">
        <ele>3.2</ele>
        <time>2013-05-01T11:03:13Z</time>
      </trkpt>
      <trkpt lat="59.9917411804" lon="15.8059663773">
        <ele>3.4</ele>
        <time>2013-05-01T11:03:14Z</time>
      </trkpt>
      <trkpt lat="59.9916954041" lon="15.8059577942">
        <ele>3.2</ele>
        <time>2013-05-01T11:03:15Z</time>
      </trkpt>
      <trkpt lat="59.9916534424" lon="15.8059530258">
        <ele>3.4</ele>
        <time>2013-05-01T11:03:16Z</time>
      </trkpt>
      <trkpt lat="59.9915885925" lon="15.8059492111">
        <ele>3.2</ele>
        <time>2013-05-01T11:03:17Z</time>
      </trkpt>
      <trkpt lat="59.9915428162" lon="15.8059453964">
        <ele>3.2</ele>
        <time>2013-05-01T11:03:18Z</time>
      </trkpt>
      <trkpt lat="59.9914855957" lon="15.8059396744">
        <ele>3.2</ele>
        <time>2013-05-01T11:03:19Z</time>
      </trkpt>
      <trkpt lat="59.9914283752" lon="15.805932045">
        <ele>3.2</ele>
        <time>2013-05-01T11:03:20Z</time>
      </trkpt>
      <trkpt lat="59.9911499023" lon="15.8059015274">
        <ele>2</ele>
        <time>2013-05-01T11:03:25Z</time>
      </trkpt>
      <trkpt lat="59.9910926819" lon="15.8058986664">
        <ele>2</ele>
        <time>2013-05-01T11:03:26Z</time>
      </trkpt>
      <trkpt lat="59.9910240173" lon="15.8059024811">
        <ele>2</ele>
        <time>2013-05-01T11:03:27Z</time>
      </trkpt>
      <trkpt lat="59.9909667969" lon="15.8059139252">
        <ele>2</ele>
        <time>2013-05-01T11:03:28Z</time>
      </trkpt>
      <trkpt lat="59.9908981323" lon="15.805937767">
        <ele>1</ele>
        <time>2013-05-01T11:03:29Z</time>
      </trkpt>
      <trkpt lat="59.9908370972" lon="15.8059663773">
        <ele>0</ele>
        <time>2013-05-01T11:03:30Z</time>
      </trkpt>
      <trkpt lat="59.9905052185" lon="15.8062486649">
        <ele>0</ele>
        <time>2013-05-01T11:03:35Z</time>
      </trkpt>
      <trkpt lat="59.9903869629" lon="15.8063812256">
        <ele>0</ele>
        <time>2013-05-01T11:03:37Z</time>
      </trkpt>
      <trkpt lat="59.9902191162" lon="15.8065652847">
        <ele>0</ele>
        <time>2013-05-01T11:03:40Z</time>
      </trkpt>
      <trkpt lat="59.9901733398" lon="15.8066139221">
        <ele>0</ele>
        <time>2013-05-01T11:03:41Z</time>
      </trkpt>
      <trkpt lat="59.9901199341" lon="15.8066692352">
        <ele>0</ele>
        <time>2013-05-01T11:03:42Z</time>
      </trkpt>
      <trkpt lat="59.9900665283" lon="15.8067131042">
        <ele>0</ele>
        <time>2013-05-01T11:03:43Z</time>
      </trkpt>
      <trkpt lat="59.9899024963" lon="15.8068370819">
        <ele>0</ele>
        <time>2013-05-01T11:03:46Z</time>
      </trkpt>
      <trkpt lat="59.9898452759" lon="15.8068609238">
        <ele>0</ele>
        <time>2013-05-01T11:03:47Z</time>
      </trkpt>
      <trkpt lat="59.9897918701" lon="15.8068857193">
        <ele>0</ele>
        <time>2013-05-01T11:03:48Z</time>
      </trkpt>
      <trkpt lat="59.9894485474" lon="15.8069972992">
        <ele>0</ele>
        <time>2013-05-01T11:03:54Z</time>
      </trkpt>
      <trkpt lat="59.9893722534" lon="15.8070230484">
        <ele>0</ele>
        <time>2013-05-01T11:03:55Z</time>
      </trkpt>
      <trkpt lat="59.9893112183" lon="15.8070411682">
        <ele>0</ele>
        <time>2013-05-01T11:03:56Z</time>
      </trkpt>
      <trkpt lat="59.9892425537" lon="15.8070611954">
        <ele>0</ele>
        <time>2013-05-01T11:03:57Z</time>
      </trkpt>
      <trkpt lat="59.9889526367" lon="15.8071613312">
        <ele>0</ele>
        <time>2013-05-01T11:04:02Z</time>
      </trkpt>
      <trkpt lat="59.9888916016" lon="15.8071880341">
        <ele>0</ele>
        <time>2013-05-01T11:04:03Z</time>
      </trkpt>
      <trkpt lat="59.9888343811" lon="15.8072137833">
        <ele>0</ele>
        <time>2013-05-01T11:04:04Z</time>
      </trkpt>
      <trkpt lat="59.9887771606" lon="15.8072481155">
        <ele>0</ele>
        <time>2013-05-01T11:04:05Z</time>
      </trkpt>
      <trkpt lat="59.9887199402" lon="15.8072805405">
        <ele>0</ele>
        <time>2013-05-01T11:04:06Z</time>
      </trkpt>
      <trkpt lat="59.988658905" lon="15.8073225021">
        <ele>0</ele>
        <time>2013-05-01T11:04:07Z</time>
      </trkpt>
      <trkpt lat="59.9885978699" lon="15.8073606491">
        <ele>0</ele>
        <time>2013-05-01T11:04:08Z</time>
      </trkpt>
      <trkpt lat="59.9884757996" lon="15.8074369431">
        <ele>0</ele>
        <time>2013-05-01T11:04:10Z</time>
      </trkpt>
      <trkpt lat="59.9883308411" lon="15.8075342178">
        <ele>0</ele>
        <time>2013-05-01T11:04:12Z</time>
      </trkpt>
      <trkpt lat="59.988193512" lon="15.8076276779">
        <ele>0</ele>
        <time>2013-05-01T11:04:14Z</time>
      </trkpt>
      <trkpt lat="59.9881057739" lon="15.8076858521">
        <ele>0</ele>
        <time>2013-05-01T11:04:15Z</time>
      </trkpt>
      <trkpt lat="59.98802948" lon="15.8077354431">
        <ele>0</ele>
        <time>2013-05-01T11:04:16Z</time>
      </trkpt>
      <trkpt lat="59.9879570007" lon="15.8077898026">
        <ele>0</ele>
        <time>2013-05-01T11:04:17Z</time>
      </trkpt>
      <trkpt lat="59.9878883362" lon="15.8078346252">
        <ele>0</ele>
        <time>2013-05-01T11:04:18Z</time>
      </trkpt>
      <trkpt lat="59.9878120422" lon="15.8078947067">
        <ele>0</ele>
        <time>2013-05-01T11:04:19Z</time>
      </trkpt>
      <trkpt lat="59.9877548218" lon="15.8079624176">
        <ele>0</ele>
        <time>2013-05-01T11:04:20Z</time>
      </trkpt>
      <trkpt lat="59.9877090454" lon="15.8080091476">
        <ele>0</ele>
        <time>2013-05-01T11:04:21Z</time>
      </trkpt>
      <trkpt lat="59.9876060486" lon="15.8079929352">
        <ele>0</ele>
        <time>2013-05-01T11:04:23Z</time>
      </trkpt>
      <trkpt lat="59.9875640869" lon="15.8079280853">
        <ele>0</ele>
        <time>2013-05-01T11:04:24Z</time>
      </trkpt>
      <trkpt lat="59.9875335693" lon="15.8078222275">
        <ele>0</ele>
        <time>2013-05-01T11:04:25Z</time>
      </trkpt>
      <trkpt lat="59.9874534607" lon="15.8075094223">
        <ele>0</ele>
        <time>2013-05-01T11:04:28Z</time>
      </trkpt>
      <trkpt lat="59.9873542786" lon="15.8071966171">
        <ele>0</ele>
        <time>2013-05-01T11:04:31Z</time>
      </trkpt>
      <trkpt lat="59.9872779846" lon="15.8070373535">
        <ele>0</ele>
        <time>2013-05-01T11:04:33Z</time>
      </trkpt>
      <trkpt lat="59.9872436523" lon="15.8069725037">
        <ele>0</ele>
        <time>2013-05-01T11:04:34Z</time>
      </trkpt>
      <trkpt lat="59.9872093201" lon="15.8069171906">
        <ele>0</ele>
        <time>2013-05-01T11:04:35Z</time>
      </trkpt>
      <trkpt lat="59.9871673584" lon="15.8068742752">
        <ele>0</ele>
        <time>2013-05-01T11:04:36Z</time>
      </trkpt>
      <trkpt lat="59.9871139526" lon="15.8068342209">
        <ele>0</ele>
        <time>2013-05-01T11:04:37Z</time>
      </trkpt>
      <trkpt lat="59.9870681763" lon="15.8068084717">
        <ele>0</ele>
        <time>2013-05-01T11:04:38Z</time>
      </trkpt>
      <trkpt lat="59.9869499207" lon="15.8067417145">
        <ele>0</ele>
        <time>2013-05-01T11:04:40Z</time>
      </trkpt>
      <trkpt lat="59.9868927002" lon="15.8067064285">
        <ele>0</ele>
        <time>2013-05-01T11:04:41Z</time>
      </trkpt>
      <trkpt lat="59.9868354797" lon="15.8066740036">
        <ele>0</ele>
        <time>2013-05-01T11:04:42Z</time>
      </trkpt>
      <trkpt lat="59.9867782593" lon="15.806640625">
        <ele>0</ele>
        <time>2013-05-01T11:04:43Z</time>
      </trkpt>
      <trkpt lat="59.9866600037" lon="15.8065671921">
        <ele>0</ele>
        <time>2013-05-01T11:04:45Z</time>
      </trkpt>
      <trkpt lat="59.9865531921" lon="15.8064937592">
        <ele>0</ele>
        <time>2013-05-01T11:04:47Z</time>
      </trkpt>
      <trkpt lat="59.9864501953" lon="15.8063306808">
        <ele>0</ele>
        <time>2013-05-01T11:04:50Z</time>
      </trkpt>
      <trkpt lat="59.9862670898" lon="15.8059625626">
        <ele>0</ele>
        <time>2013-05-01T11:04:55Z</time>
      </trkpt>
      <trkpt lat="59.9862289429" lon="15.805891037">
        <ele>0</ele>
        <time>2013-05-01T11:04:56Z</time>
      </trkpt>
      <trkpt lat="59.9861869812" lon="15.805809021">
        <ele>0</ele>
        <time>2013-05-01T11:04:57Z</time>
      </trkpt>
      <trkpt lat="59.9861106873" lon="15.8056583405">
        <ele>0</ele>
        <time>2013-05-01T11:04:59Z</time>
      </trkpt>
      <trkpt lat="59.9860687256" lon="15.8055791855">
        <ele>0</ele>
        <time>2013-05-01T11:05:00Z</time>
      </trkpt>
      <trkpt lat="59.986000061" lon="15.8054437637">
        <ele>0</ele>
        <time>2013-05-01T11:05:02Z</time>
      </trkpt>
      <trkpt lat="59.9859580994" lon="15.8053655624">
        <ele>0</ele>
        <time>2013-05-01T11:05:03Z</time>
      </trkpt>
      <trkpt lat="59.9859199524" lon="15.8052949905">
        <ele>0</ele>
        <time>2013-05-01T11:05:04Z</time>
      </trkpt>
      <trkpt lat="59.9858779907" lon="15.805229187">
        <ele>0</ele>
        <time>2013-05-01T11:05:05Z</time>
      </trkpt>
      <trkpt lat="59.9858398438" lon="15.8051671982">
        <ele>0</ele>
        <time>2013-05-01T11:05:06Z</time>
      </trkpt>
      <trkpt lat="59.9857940674" lon="15.8050947189">
        <ele>0</ele>
        <time>2013-05-01T11:05:07Z</time>
      </trkpt>
      <trkpt lat="59.9857521057" lon="15.8050374985">
        <ele>0</ele>
        <time>2013-05-01T11:05:08Z</time>
      </trkpt>
      <trkpt lat="59.9856452942" lon="15.8048934937">
        <ele>0</ele>
        <time>2013-05-01T11:05:11Z</time>
      </trkpt>
      <trkpt lat="59.9856033325" lon="15.8048553467">
        <ele>0</ele>
        <time>2013-05-01T11:05:12Z</time>
      </trkpt>
      <trkpt lat="59.9855651855" lon="15.8048143387">
        <ele>0</ele>
        <time>2013-05-01T11:05:13Z</time>
      </trkpt>
      <trkpt lat="59.9854736328" lon="15.8046321869">
        <ele>0</ele>
        <time>2013-05-01T11:05:16Z</time>
      </trkpt>
      <trkpt lat="59.9854354858" lon="15.8044614792">
        <ele>0</ele>
        <time>2013-05-01T11:05:18Z</time>
      </trkpt>
      <trkpt lat="59.9853668213" lon="15.8042221069">
        <ele>0</ele>
        <time>2013-05-01T11:05:21Z</time>
      </trkpt>
      <trkpt lat="59.9853401184" lon="15.804145813">
        <ele>0</ele>
        <time>2013-05-01T11:05:22Z</time>
      </trkpt>
      <trkpt lat="59.9853057861" lon="15.8040800095">
        <ele>0</ele>
        <time>2013-05-01T11:05:23Z</time>
      </trkpt>
      <trkpt lat="59.985244751" lon="15.8039302826">
        <ele>0</ele>
        <time>2013-05-01T11:05:25Z</time>
      </trkpt>
      <trkpt lat="59.9851074219" lon="15.8036603928">
        <ele>0</ele>
        <time>2013-05-01T11:05:29Z</time>
      </trkpt>
      <trkpt lat="59.9850387573" lon="15.803519249">
        <ele>0</ele>
        <time>2013-05-01T11:05:31Z</time>
      </trkpt>
      <trkpt lat="59.9850006104" lon="15.8034439087">
        <ele>0</ele>
        <time>2013-05-01T11:05:32Z</time>
      </trkpt>
      <trkpt lat="59.9849662781" lon="15.8033723831">
        <ele>0</ele>
        <time>2013-05-01T11:05:33Z</time>
      </trkpt>
      <trkpt lat="59.9849357605" lon="15.8033027649">
        <ele>0</ele>
        <time>2013-05-01T11:05:34Z</time>
      </trkpt>
      <trkpt lat="59.9848709106" lon="15.8031702042">
        <ele>0</ele>
        <time>2013-05-01T11:05:36Z</time>
      </trkpt>
      <trkpt lat="59.9848365784" lon="15.8030920029">
        <ele>0</ele>
        <time>2013-05-01T11:05:37Z</time>
      </trkpt>
      <trkpt lat="59.9848175049" lon="15.8030328751">
        <ele>0</ele>
        <time>2013-05-01T11:05:38Z</time>
      </trkpt>
      <trkpt lat="59.9847602844" lon="15.8028726578">
        <ele>0</ele>
        <time>2013-05-01T11:05:40Z</time>
      </trkpt>
      <trkpt lat="59.9846839905" lon="15.8026428223">
        <ele>0</ele>
        <time>2013-05-01T11:05:43Z</time>
      </trkpt>
      <trkpt lat="59.9846382141" lon="15.802488327">
        <ele>0</ele>
        <time>2013-05-01T11:05:45Z</time>
      </trkpt>
      <trkpt lat="59.9845466614" lon="15.8022069931">
        <ele>0</ele>
        <time>2013-05-01T11:05:49Z</time>
      </trkpt>
      <trkpt lat="59.9845046997" lon="15.802066803">
        <ele>0</ele>
        <time>2013-05-01T11:05:51Z</time>
      </trkpt>
      <trkpt lat="59.9844818115" lon="15.8019962311">
        <ele>0</ele>
        <time>2013-05-01T11:05:52Z</time>
      </trkpt>
      <trkpt lat="59.9844436646" lon="15.8018503189">
        <ele>0</ele>
        <time>2013-05-01T11:05:54Z</time>
      </trkpt>
      <trkpt lat="59.9844207764" lon="15.8017711639">
        <ele>0</ele>
        <time>2013-05-01T11:05:55Z</time>
      </trkpt>
      <trkpt lat="59.9844017029" lon="15.8016996384">
        <ele>0</ele>
        <time>2013-05-01T11:05:56Z</time>
      </trkpt>
      <trkpt lat="59.9843788147" lon="15.8016166687">
        <ele>0</ele>
        <time>2013-05-01T11:05:57Z</time>
      </trkpt>
      <trkpt lat="59.9843597412" lon="15.8015413284">
        <ele>0</ele>
        <time>2013-05-01T11:05:58Z</time>
      </trkpt>
      <trkpt lat="59.984336853" lon="15.8014554977">
        <ele>0</ele>
        <time>2013-05-01T11:05:59Z</time>
      </trkpt>
      <trkpt lat="59.9843139648" lon="15.8013677597">
        <ele>0</ele>
        <time>2013-05-01T11:06:00Z</time>
      </trkpt>
      <trkpt lat="59.9842948914" lon="15.80128479">
        <ele>0</ele>
        <time>2013-05-01T11:06:01Z</time>
      </trkpt>
      <trkpt lat="59.9842720032" lon="15.801197052">
        <ele>0</ele>
        <time>2013-05-01T11:06:02Z</time>
      </trkpt>
      <trkpt lat="59.9842453003" lon="15.8010997772">
        <ele>0</ele>
        <time>2013-05-01T11:06:03Z</time>
      </trkpt>
      <trkpt lat="59.9841690063" lon="15.8008069992">
        <ele>0</ele>
        <time>2013-05-01T11:06:06Z</time>
      </trkpt>
      <trkpt lat="59.9841423035" lon="15.8007040024">
        <ele>0</ele>
        <time>2013-05-01T11:06:07Z</time>
      </trkpt>
      <trkpt lat="59.9839096069" lon="15.8001079559">
        <ele>0</ele>
        <time>2013-05-01T11:06:14Z</time>
      </trkpt>
      <trkpt lat="59.9838638306" lon="15.8000364304">
        <ele>0</ele>
        <time>2013-05-01T11:06:15Z</time>
      </trkpt>
      <trkpt lat="59.9838218689" lon="15.7999629974">
        <ele>0</ele>
        <time>2013-05-01T11:06:16Z</time>
      </trkpt>
      <trkpt lat="59.9837722778" lon="15.7998981476">
        <ele>0</ele>
        <time>2013-05-01T11:06:17Z</time>
      </trkpt>
      <trkpt lat="59.9836196899" lon="15.7997016907">
        <ele>0</ele>
        <time>2013-05-01T11:06:20Z</time>
      </trkpt>
      <trkpt lat="59.9835243225" lon="15.7995796204">
        <ele>0</ele>
        <time>2013-05-01T11:06:22Z</time>
      </trkpt>
      <trkpt lat="59.9834709167" lon="15.7995195389">
        <ele>0</ele>
        <time>2013-05-01T11:06:23Z</time>
      </trkpt>
      <trkpt lat="59.9833183289" lon="15.799331665">
        <ele>0</ele>
        <time>2013-05-01T11:06:26Z</time>
      </trkpt>
      <trkpt lat="59.9832611084" lon="15.7992601395">
        <ele>0</ele>
        <time>2013-05-01T11:06:27Z</time>
      </trkpt>
      <trkpt lat="59.9832115173" lon="15.7991981506">
        <ele>0</ele>
        <time>2013-05-01T11:06:28Z</time>
      </trkpt>
      <trkpt lat="59.9831619263" lon="15.7991304398">
        <ele>0</ele>
        <time>2013-05-01T11:06:29Z</time>
      </trkpt>
      <trkpt lat="59.9830551147" lon="15.7989988327">
        <ele>0</ele>
        <time>2013-05-01T11:06:31Z</time>
      </trkpt>
      <trkpt lat="59.983001709" lon="15.7989273071">
        <ele>0</ele>
        <time>2013-05-01T11:06:32Z</time>
      </trkpt>
      <trkpt lat="59.9829483032" lon="15.7988605499">
        <ele>0</ele>
        <time>2013-05-01T11:06:33Z</time>
      </trkpt>
      <trkpt lat="59.9828414917" lon="15.7987241745">
        <ele>0</ele>
        <time>2013-05-01T11:06:35Z</time>
      </trkpt>
      <trkpt lat="59.9827919006" lon="15.798661232">
        <ele>0</ele>
        <time>2013-05-01T11:06:36Z</time>
      </trkpt>
      <trkpt lat="59.9825706482" lon="15.7984256744">
        <ele>0</ele>
        <time>2013-05-01T11:06:40Z</time>
      </trkpt>
      <trkpt lat="59.982460022" lon="15.798333168">
        <ele>0</ele>
        <time>2013-05-01T11:06:42Z</time>
      </trkpt>
      <trkpt lat="59.982208252" lon="15.7981920242">
        <ele>0</ele>
        <time>2013-05-01T11:06:46Z</time>
      </trkpt>
      <trkpt lat="59.9820785522" lon="15.7981262207">
        <ele>0</ele>
        <time>2013-05-01T11:06:48Z</time>
      </trkpt>
      <trkpt lat="59.9820175171" lon="15.7980947495">
        <ele>0</ele>
        <time>2013-05-01T11:06:49Z</time>
      </trkpt>
      <trkpt lat="59.9817352295" lon="15.7979793549">
        <ele>0</ele>
        <time>2013-05-01T11:06:54Z</time>
      </trkpt>
      <trkpt lat="59.9816207886" lon="15.7980175018">
        <ele>0</ele>
        <time>2013-05-01T11:06:57Z</time>
      </trkpt>
      <trkpt lat="59.9815139771" lon="15.7980318069">
        <ele>0</ele>
        <time>2013-05-01T11:07:00Z</time>
      </trkpt>
      <trkpt lat="59.9814796448" lon="15.7979955673">
        <ele>0</ele>
        <time>2013-05-01T11:07:01Z</time>
      </trkpt>
      <trkpt lat="59.9814453125" lon="15.7979478836">
        <ele>0</ele>
        <time>2013-05-01T11:07:02Z</time>
      </trkpt>
      <trkpt lat="59.9814109802" lon="15.7978715897">
        <ele>0</ele>
        <time>2013-05-01T11:07:03Z</time>
      </trkpt>
      <trkpt lat="59.9813728333" lon="15.7978019714">
        <ele>0</ele>
        <time>2013-05-01T11:07:04Z</time>
      </trkpt>
      <trkpt lat="59.9813308716" lon="15.7977209091">
        <ele>0</ele>
        <time>2013-05-01T11:07:05Z</time>
      </trkpt>
      <trkpt lat="59.9812545776" lon="15.7975673676">
        <ele>0</ele>
        <time>2013-05-01T11:07:07Z</time>
      </trkpt>
      <trkpt lat="59.981212616" lon="15.7975006104">
        <ele>0</ele>
        <time>2013-05-01T11:07:08Z</time>
      </trkpt>
      <trkpt lat="59.9811248779" lon="15.797375679">
        <ele>0</ele>
        <time>2013-05-01T11:07:10Z</time>
      </trkpt>
      <trkpt lat="59.9810791016" lon="15.7973279953">
        <ele>0</ele>
        <time>2013-05-01T11:07:11Z</time>
      </trkpt>
      <trkpt lat="59.9810295105" lon="15.7972536087">
        <ele>0</ele>
        <time>2013-05-01T11:07:12Z</time>
      </trkpt>
      <trkpt lat="59.9809875488" lon="15.7971820831">
        <ele>0</ele>
        <time>2013-05-01T11:07:13Z</time>
      </trkpt>
      <trkpt lat="59.9809532166" lon="15.797123909">
        <ele>0</ele>
        <time>2013-05-01T11:07:14Z</time>
      </trkpt>
      <trkpt lat="59.9809036255" lon="15.7970380783">
        <ele>0</ele>
        <time>2013-05-01T11:07:15Z</time>
      </trkpt>
      <trkpt lat="59.9808692932" lon="15.7969799042">
        <ele>0</ele>
        <time>2013-05-01T11:07:16Z</time>
      </trkpt>
      <trkpt lat="59.9808197021" lon="15.7968959808">
        <ele>0</ele>
        <time>2013-05-01T11:07:17Z</time>
      </trkpt>
      <trkpt lat="59.9807853699" lon="15.7968378067">
        <ele>0</ele>
        <time>2013-05-01T11:07:18Z</time>
      </trkpt>
      <trkpt lat="59.9807395935" lon="15.7967567444">
        <ele>0</ele>
        <time>2013-05-01T11:07:19Z</time>
      </trkpt>
      <trkpt lat="59.9805908203" lon="15.7965164185">
        <ele>0</ele>
        <time>2013-05-01T11:07:23Z</time>
      </trkpt>
      <trkpt lat="59.9805259705" lon="15.7964172363">
        <ele>0</ele>
        <time>2013-05-01T11:07:24Z</time>
      </trkpt>
      <trkpt lat="59.9801025391" lon="15.7957658768">
        <ele>0</ele>
        <time>2013-05-01T11:07:33Z</time>
      </trkpt>
      <trkpt lat="59.980052948" lon="15.7956943512">
        <ele>0</ele>
        <time>2013-05-01T11:07:34Z</time>
      </trkpt>
      <trkpt lat="59.9800033569" lon="15.7956266403">
        <ele>0</ele>
        <time>2013-05-01T11:07:35Z</time>
      </trkpt>
      <trkpt lat="59.9796714783" lon="15.7951393127">
        <ele>0</ele>
        <time>2013-05-01T11:07:42Z</time>
      </trkpt>
      <trkpt lat="59.9796218872" lon="15.7950696945">
        <ele>0</ele>
        <time>2013-05-01T11:07:43Z</time>
      </trkpt>
      <trkpt lat="59.9795265198" lon="15.7949285507">
        <ele>0</ele>
        <time>2013-05-01T11:07:45Z</time>
      </trkpt>
      <trkpt lat="59.9793815613" lon="15.7947158813">
        <ele>0</ele>
        <time>2013-05-01T11:07:48Z</time>
      </trkpt>
      <trkpt lat="59.9793357849" lon="15.7946453094">
        <ele>0</ele>
        <time>2013-05-01T11:07:49Z</time>
      </trkpt>
      <trkpt lat="59.9791374207" lon="15.7943639755">
        <ele>0</ele>
        <time>2013-05-01T11:07:53Z</time>
      </trkpt>
      <trkpt lat="59.9790878296" lon="15.7942972183">
        <ele>0</ele>
        <time>2013-05-01T11:07:54Z</time>
      </trkpt>
      <trkpt lat="59.9789352417" lon="15.7941026688">
        <ele>0</ele>
        <time>2013-05-01T11:07:57Z</time>
      </trkpt>
      <trkpt lat="59.9788818359" lon="15.7940397263">
        <ele>0</ele>
        <time>2013-05-01T11:07:58Z</time>
      </trkpt>
      <trkpt lat="59.9788322449" lon="15.7939710617">
        <ele>0</ele>
        <time>2013-05-01T11:07:59Z</time>
      </trkpt>
      <trkpt lat="59.9785842896" lon="15.7936267853">
        <ele>0</ele>
        <time>2013-05-01T11:08:04Z</time>
      </trkpt>
      <trkpt lat="59.9785270691" lon="15.7935504913">
        <ele>0</ele>
        <time>2013-05-01T11:08:05Z</time>
      </trkpt>
      <trkpt lat="59.9784202576" lon="15.7934036255">
        <ele>0</ele>
        <time>2013-05-01T11:08:07Z</time>
      </trkpt>
      <trkpt lat="59.9783668518" lon="15.7933320999">
        <ele>0</ele>
        <time>2013-05-01T11:08:08Z</time>
      </trkpt>
      <trkpt lat="59.9783172607" lon="15.793261528">
        <ele>0</ele>
        <time>2013-05-01T11:08:09Z</time>
      </trkpt>
      <trkpt lat="59.9780464172" lon="15.7928600311">
        <ele>0</ele>
        <time>2013-05-01T11:08:14Z</time>
      </trkpt>
      <trkpt lat="59.9779891968" lon="15.7927799225">
        <ele>0</ele>
        <time>2013-05-01T11:08:15Z</time>
      </trkpt>
      <trkpt lat="59.977935791" lon="15.7926988602">
        <ele>0</ele>
        <time>2013-05-01T11:08:16Z</time>
      </trkpt>
      <trkpt lat="59.9778747559" lon="15.7926130295">
        <ele>0</ele>
        <time>2013-05-01T11:08:17Z</time>
      </trkpt>
      <trkpt lat="59.9778137207" lon="15.7925291061">
        <ele>0</ele>
        <time>2013-05-01T11:08:18Z</time>
      </trkpt>
      <trkpt lat="59.9777603149" lon="15.7924404144">
        <ele>0</ele>
        <time>2013-05-01T11:08:19Z</time>
      </trkpt>
      <trkpt lat="59.9775848389" lon="15.7921714783">
        <ele>0</ele>
        <time>2013-05-01T11:08:22Z</time>
      </trkpt>
      <trkpt lat="59.9775314331" lon="15.7920875549">
        <ele>0</ele>
        <time>2013-05-01T11:08:23Z</time>
      </trkpt>
      <trkpt lat="59.9773483276" lon="15.7917890549">
        <ele>0</ele>
        <time>2013-05-01T11:08:26Z</time>
      </trkpt>
      <trkpt lat="59.9769821167" lon="15.7910575867">
        <ele>0</ele>
        <time>2013-05-01T11:08:33Z</time>
      </trkpt>
      <trkpt lat="59.9769363403" lon="15.7909498215">
        <ele>0</ele>
        <time>2013-05-01T11:08:34Z</time>
      </trkpt>
      <trkpt lat="59.976890564" lon="15.7908468246">
        <ele>0</ele>
        <time>2013-05-01T11:08:35Z</time>
      </trkpt>
      <trkpt lat="59.976650238" lon="15.7902173996">
        <ele>0</ele>
        <time>2013-05-01T11:08:41Z</time>
      </trkpt>
      <trkpt lat="59.9766120911" lon="15.7901134491">
        <ele>0</ele>
        <time>2013-05-01T11:08:42Z</time>
      </trkpt>
      <trkpt lat="59.9765777588" lon="15.7900123596">
        <ele>0</ele>
        <time>2013-05-01T11:08:43Z</time>
      </trkpt>
      <trkpt lat="59.976436615" lon="15.7895860672">
        <ele>0</ele>
        <time>2013-05-01T11:08:47Z</time>
      </trkpt>
      <trkpt lat="59.976398468" lon="15.7894735336">
        <ele>0</ele>
        <time>2013-05-01T11:08:48Z</time>
      </trkpt>
      <trkpt lat="59.9763641357" lon="15.7893638611">
        <ele>0</ele>
        <time>2013-05-01T11:08:49Z</time>
      </trkpt>
      <trkpt lat="59.9763336182" lon="15.7892780304">
        <ele>0</ele>
        <time>2013-05-01T11:08:50Z</time>
      </trkpt>
      <trkpt lat="59.9762153625" lon="15.788936615">
        <ele>0</ele>
        <time>2013-05-01T11:08:53Z</time>
      </trkpt>
      <trkpt lat="59.976184845" lon="15.7888431549">
        <ele>0</ele>
        <time>2013-05-01T11:08:54Z</time>
      </trkpt>
      <trkpt lat="59.9760704041" lon="15.7885150909">
        <ele>0</ele>
        <time>2013-05-01T11:08:57Z</time>
      </trkpt>
      <trkpt lat="59.9760398865" lon="15.7884092331">
        <ele>0</ele>
        <time>2013-05-01T11:08:58Z</time>
      </trkpt>
      <trkpt lat="59.9760017395" lon="15.7883081436">
        <ele>0</ele>
        <time>2013-05-01T11:08:59Z</time>
      </trkpt>
      <trkpt lat="59.9759674072" lon="15.7882061005">
        <ele>0</ele>
        <time>2013-05-01T11:09:00Z</time>
      </trkpt>
      <trkpt lat="59.9759368896" lon="15.7881145477">
        <ele>0</ele>
        <time>2013-05-01T11:09:01Z</time>
      </trkpt>
      <trkpt lat="59.9759025574" lon="15.7880182266">
        <ele>0</ele>
        <time>2013-05-01T11:09:02Z</time>
      </trkpt>
      <trkpt lat="59.9758720398" lon="15.7879285812">
        <ele>0</ele>
        <time>2013-05-01T11:09:03Z</time>
      </trkpt>
      <trkpt lat="59.9758071899" lon="15.7877235413">
        <ele>0</ele>
        <time>2013-05-01T11:09:05Z</time>
      </trkpt>
      <trkpt lat="59.9757843018" lon="15.7876186371">
        <ele>0</ele>
        <time>2013-05-01T11:09:06Z</time>
      </trkpt>
      <trkpt lat="59.9757804871" lon="15.7874898911">
        <ele>0</ele>
        <time>2013-05-01T11:09:07Z</time>
      </trkpt>
      <trkpt lat="59.9757728577" lon="15.7873783112">
        <ele>0</ele>
        <time>2013-05-01T11:09:08Z</time>
      </trkpt>
      <trkpt lat="59.9757537842" lon="15.7872619629">
        <ele>0</ele>
        <time>2013-05-01T11:09:09Z</time>
      </trkpt>
      <trkpt lat="59.975730896" lon="15.787147522">
        <ele>0</ele>
        <time>2013-05-01T11:09:10Z</time>
      </trkpt>
      <trkpt lat="59.9756965637" lon="15.7870492935">
        <ele>0</ele>
        <time>2013-05-01T11:09:11Z</time>
      </trkpt>
      <trkpt lat="59.9756660461" lon="15.7869281769">
        <ele>0</ele>
        <time>2013-05-01T11:09:12Z</time>
      </trkpt>
      <trkpt lat="59.9756507874" lon="15.7868118286">
        <ele>0</ele>
        <time>2013-05-01T11:09:13Z</time>
      </trkpt>
      <trkpt lat="59.9756355286" lon="15.7866945267">
        <ele>0</ele>
        <time>2013-05-01T11:09:14Z</time>
      </trkpt>
      <trkpt lat="59.9756240845" lon="15.7865610123">
        <ele>0</ele>
        <time>2013-05-01T11:09:15Z</time>
      </trkpt>
      <trkpt lat="59.9756126404" lon="15.7864360809">
        <ele>0</ele>
        <time>2013-05-01T11:09:16Z</time>
      </trkpt>
      <trkpt lat="59.9755973816" lon="15.7863092422">
        <ele>0</ele>
        <time>2013-05-01T11:09:17Z</time>
      </trkpt>
      <trkpt lat="59.9755630493" lon="15.7860746384">
        <ele>0</ele>
        <time>2013-05-01T11:09:19Z</time>
      </trkpt>
      <trkpt lat="59.9755325317" lon="15.7859601974">
        <ele>0</ele>
        <time>2013-05-01T11:09:20Z</time>
      </trkpt>
      <trkpt lat="59.9754600525" lon="15.7857637405">
        <ele>0</ele>
        <time>2013-05-01T11:09:22Z</time>
      </trkpt>
      <trkpt lat="59.9754371643" lon="15.7857351303">
        <ele>0</ele>
        <time>2013-05-01T11:09:23Z</time>
      </trkpt>
      <trkpt lat="59.9753570557" lon="15.7855997086">
        <ele>0</ele>
        <time>2013-05-01T11:09:24Z</time>
      </trkpt>
      <trkpt lat="59.9749031067" lon="15.7848806381">
        <ele>0</ele>
        <time>2013-05-01T11:09:33Z</time>
      </trkpt>
      <trkpt lat="59.9747886658" lon="15.7847604752">
        <ele>0</ele>
        <time>2013-05-01T11:09:35Z</time>
      </trkpt>
      <trkpt lat="59.9745635986" lon="15.7845830917">
        <ele>0</ele>
        <time>2013-05-01T11:09:39Z</time>
      </trkpt>
      <trkpt lat="59.9745101929" lon="15.7845287323">
        <ele>0</ele>
        <time>2013-05-01T11:09:40Z</time>
      </trkpt>
      <trkpt lat="59.974407196" lon="15.7843742371">
        <ele>0</ele>
        <time>2013-05-01T11:09:42Z</time>
      </trkpt>
      <trkpt lat="59.9743652344" lon="15.7842712402">
        <ele>0</ele>
        <time>2013-05-01T11:09:43Z</time>
      </trkpt>
      <trkpt lat="59.9742202759" lon="15.7839488983">
        <ele>0</ele>
        <time>2013-05-01T11:09:46Z</time>
      </trkpt>
      <trkpt lat="59.9741630554" lon="15.783829689">
        <ele>0</ele>
        <time>2013-05-01T11:09:47Z</time>
      </trkpt>
      <trkpt lat="59.9740104675" lon="15.7835044861">
        <ele>0</ele>
        <time>2013-05-01T11:09:50Z</time>
      </trkpt>
      <trkpt lat="59.9738998413" lon="15.7832765579">
        <ele>0</ele>
        <time>2013-05-01T11:09:52Z</time>
      </trkpt>
      <trkpt lat="59.9737854004" lon="15.7830438614">
        <ele>0</ele>
        <time>2013-05-01T11:09:54Z</time>
      </trkpt>
      <trkpt lat="59.9737358093" lon="15.7829227448">
        <ele>0</ele>
        <time>2013-05-01T11:09:55Z</time>
      </trkpt>
      <trkpt lat="59.9736328125" lon="15.7826929092">
        <ele>0</ele>
        <time>2013-05-01T11:09:57Z</time>
      </trkpt>
      <trkpt lat="59.9735832214" lon="15.7825803757">
        <ele>0</ele>
        <time>2013-05-01T11:09:58Z</time>
      </trkpt>
      <trkpt lat="59.9735717773" lon="15.7825498581">
        <ele>0</ele>
        <time>2013-05-01T11:09:59Z</time>
      </trkpt>
      <trkpt lat="59.9734802246" lon="15.7823514938">
        <ele>0</ele>
        <time>2013-05-01T11:10:00Z</time>
      </trkpt>
      <trkpt lat="59.9734344482" lon="15.7822418213">
        <ele>0</ele>
        <time>2013-05-01T11:10:01Z</time>
      </trkpt>
      <trkpt lat="59.9732818604" lon="15.7818746567">
        <ele>0</ele>
        <time>2013-05-01T11:10:04Z</time>
      </trkpt>
      <trkpt lat="59.973236084" lon="15.7817392349">
        <ele>0</ele>
        <time>2013-05-01T11:10:05Z</time>
      </trkpt>
      <trkpt lat="59.9731941223" lon="15.7816114426">
        <ele>0</ele>
        <time>2013-05-01T11:10:06Z</time>
      </trkpt>
      <trkpt lat="59.9731636047" lon="15.7814664841">
        <ele>0</ele>
        <time>2013-05-01T11:10:07Z</time>
      </trkpt>
      <trkpt lat="59.9731254578" lon="15.781337738">
        <ele>0</ele>
        <time>2013-05-01T11:10:08Z</time>
      </trkpt>
      <trkpt lat="59.9730834961" lon="15.7812252045">
        <ele>0</ele>
        <time>2013-05-01T11:10:09Z</time>
      </trkpt>
      <trkpt lat="59.9730415344" lon="15.7811336517">
        <ele>0</ele>
        <time>2013-05-01T11:10:10Z</time>
      </trkpt>
      <trkpt lat="59.9729919434" lon="15.7810239792">
        <ele>0</ele>
        <time>2013-05-01T11:10:11Z</time>
      </trkpt>
      <trkpt lat="59.9728469849" lon="15.7807207108">
        <ele>0</ele>
        <time>2013-05-01T11:10:14Z</time>
      </trkpt>
      <trkpt lat="59.9728012085" lon="15.7806215286">
        <ele>0</ele>
        <time>2013-05-01T11:10:15Z</time>
      </trkpt>
      <trkpt lat="59.9727058411" lon="15.7804260254">
        <ele>0</ele>
        <time>2013-05-01T11:10:17Z</time>
      </trkpt>
      <trkpt lat="59.9726638794" lon="15.7803382874">
        <ele>0</ele>
        <time>2013-05-01T11:10:18Z</time>
      </trkpt>
      <trkpt lat="59.9726142883" lon="15.7802286148">
        <ele>0</ele>
        <time>2013-05-01T11:10:19Z</time>
      </trkpt>
      <trkpt lat="59.9725646973" lon="15.7801265717">
        <ele>0</ele>
        <time>2013-05-01T11:10:20Z</time>
      </trkpt>
      <trkpt lat="59.9725189209" lon="15.7800359726">
        <ele>0</ele>
        <time>2013-05-01T11:10:21Z</time>
      </trkpt>
      <trkpt lat="59.9724731445" lon="15.7799358368">
        <ele>0</ele>
        <time>2013-05-01T11:10:22Z</time>
      </trkpt>
      <trkpt lat="59.9724273682" lon="15.7798423767">
        <ele>0</ele>
        <time>2013-05-01T11:10:23Z</time>
      </trkpt>
      <trkpt lat="59.9722862244" lon="15.779548645">
        <ele>0</ele>
        <time>2013-05-01T11:10:26Z</time>
      </trkpt>
      <trkpt lat="59.9722366333" lon="15.7794475555">
        <ele>0</ele>
        <time>2013-05-01T11:10:27Z</time>
      </trkpt>
      <trkpt lat="59.9720535278" lon="15.7790718079">
        <ele>0</ele>
        <time>2013-05-01T11:10:31Z</time>
      </trkpt>
      <trkpt lat="59.9719047546" lon="15.7787866592">
        <ele>0</ele>
        <time>2013-05-01T11:10:34Z</time>
      </trkpt>
      <trkpt lat="59.9718551636" lon="15.7786874771">
        <ele>0</ele>
        <time>2013-05-01T11:10:35Z</time>
      </trkpt>
      <trkpt lat="59.9718093872" lon="15.7785949707">
        <ele>0</ele>
        <time>2013-05-01T11:10:36Z</time>
      </trkpt>
      <trkpt lat="59.9717597961" lon="15.7784919739">
        <ele>0</ele>
        <time>2013-05-01T11:10:37Z</time>
      </trkpt>
      <trkpt lat="59.9713783264" lon="15.7777004242">
        <ele>0</ele>
        <time>2013-05-01T11:10:45Z</time>
      </trkpt>
      <trkpt lat="59.9713287354" lon="15.7776021957">
        <ele>0</ele>
        <time>2013-05-01T11:10:46Z</time>
      </trkpt>
      <trkpt lat="59.9712791443" lon="15.7774972916">
        <ele>0</ele>
        <time>2013-05-01T11:10:47Z</time>
      </trkpt>
      <trkpt lat="59.970905304" lon="15.7767210007">
        <ele>0</ele>
        <time>2013-05-01T11:10:55Z</time>
      </trkpt>
      <trkpt lat="59.9708633423" lon="15.7766313553">
        <ele>0</ele>
        <time>2013-05-01T11:10:56Z</time>
      </trkpt>
      <trkpt lat="59.9708137512" lon="15.7765254974">
        <ele>0</ele>
        <time>2013-05-01T11:10:57Z</time>
      </trkpt>
      <trkpt lat="59.9707756042" lon="15.7764482498">
        <ele>0</ele>
        <time>2013-05-01T11:10:58Z</time>
      </trkpt>
      <trkpt lat="59.9707221985" lon="15.7763385773">
        <ele>0</ele>
        <time>2013-05-01T11:10:59Z</time>
      </trkpt>
      <trkpt lat="59.9706764221" lon="15.7762403488">
        <ele>0</ele>
        <time>2013-05-01T11:11:00Z</time>
      </trkpt>
      <trkpt lat="59.9706344604" lon="15.7761583328">
        <ele>0</ele>
        <time>2013-05-01T11:11:01Z</time>
      </trkpt>
      <trkpt lat="59.9705924988" lon="15.7760782242">
        <ele>0</ele>
        <time>2013-05-01T11:11:02Z</time>
      </trkpt>
      <trkpt lat="59.9704475403" lon="15.7758312225">
        <ele>0</ele>
        <time>2013-05-01T11:11:05Z</time>
      </trkpt>
      <trkpt lat="59.9701538086" lon="15.7752685547">
        <ele>0</ele>
        <time>2013-05-01T11:11:12Z</time>
      </trkpt>
      <trkpt lat="59.9701156616" lon="15.775188446">
        <ele>0</ele>
        <time>2013-05-01T11:11:13Z</time>
      </trkpt>
      <trkpt lat="59.970035553" lon="15.7750272751">
        <ele>0</ele>
        <time>2013-05-01T11:11:15Z</time>
      </trkpt>
      <trkpt lat="59.9700050354" lon="15.7749586105">
        <ele>0</ele>
        <time>2013-05-01T11:11:16Z</time>
      </trkpt>
      <trkpt lat="59.9699630737" lon="15.7748680115">
        <ele>0</ele>
        <time>2013-05-01T11:11:17Z</time>
      </trkpt>
      <trkpt lat="59.9699287415" lon="15.7748003006">
        <ele>0</ele>
        <time>2013-05-01T11:11:18Z</time>
      </trkpt>
      <trkpt lat="59.9698867798" lon="15.7747125626">
        <ele>0</ele>
        <time>2013-05-01T11:11:19Z</time>
      </trkpt>
      <trkpt lat="59.9698486328" lon="15.7746315002">
        <ele>0</ele>
        <time>2013-05-01T11:11:20Z</time>
      </trkpt>
      <trkpt lat="59.9697761536" lon="15.7744941711">
        <ele>0</ele>
        <time>2013-05-01T11:11:22Z</time>
      </trkpt>
      <trkpt lat="59.9696846008" lon="15.7743282318">
        <ele>0</ele>
        <time>2013-05-01T11:11:24Z</time>
      </trkpt>
      <trkpt lat="59.9696502686" lon="15.7742595673">
        <ele>0</ele>
        <time>2013-05-01T11:11:25Z</time>
      </trkpt>
      <trkpt lat="59.9695701599" lon="15.774102211">
        <ele>0</ele>
        <time>2013-05-01T11:11:27Z</time>
      </trkpt>
      <trkpt lat="59.9695320129" lon="15.7740316391">
        <ele>0</ele>
        <time>2013-05-01T11:11:28Z</time>
      </trkpt>
      <trkpt lat="59.969455719" lon="15.7738828659">
        <ele>0</ele>
        <time>2013-05-01T11:11:30Z</time>
      </trkpt>
      <trkpt lat="59.9693412781" lon="15.7736253738">
        <ele>0</ele>
        <time>2013-05-01T11:11:33Z</time>
      </trkpt>
      <trkpt lat="59.9693069458" lon="15.7735433578">
        <ele>0</ele>
        <time>2013-05-01T11:11:34Z</time>
      </trkpt>
      <trkpt lat="59.9692687988" lon="15.7734632492">
        <ele>0</ele>
        <time>2013-05-01T11:11:35Z</time>
      </trkpt>
      <trkpt lat="59.9692344666" lon="15.7733869553">
        <ele>0</ele>
        <time>2013-05-01T11:11:36Z</time>
      </trkpt>
      <trkpt lat="59.9691963196" lon="15.7733011246">
        <ele>0</ele>
        <time>2013-05-01T11:11:37Z</time>
      </trkpt>
      <trkpt lat="59.969165802" lon="15.7732305527">
        <ele>0</ele>
        <time>2013-05-01T11:11:38Z</time>
      </trkpt>
      <trkpt lat="59.969127655" lon="15.7731323242">
        <ele>0</ele>
        <time>2013-05-01T11:11:39Z</time>
      </trkpt>
      <trkpt lat="59.9690971375" lon="15.7730503082">
        <ele>0</ele>
        <time>2013-05-01T11:11:40Z</time>
      </trkpt>
      <trkpt lat="59.9690055847" lon="15.7728033066">
        <ele>0</ele>
        <time>2013-05-01T11:11:43Z</time>
      </trkpt>
      <trkpt lat="59.968963623" lon="15.7727193832">
        <ele>0</ele>
        <time>2013-05-01T11:11:44Z</time>
      </trkpt>
      <trkpt lat="59.9688529968" lon="15.7725162506">
        <ele>0</ele>
        <time>2013-05-01T11:11:47Z</time>
      </trkpt>
      <trkpt lat="59.9688148499" lon="15.7724571228">
        <ele>0</ele>
        <time>2013-05-01T11:11:48Z</time>
      </trkpt>
      <trkpt lat="59.9687461853" lon="15.7723436356">
        <ele>0</ele>
        <time>2013-05-01T11:11:50Z</time>
      </trkpt>
      <trkpt lat="59.968662262" lon="15.7722167969">
        <ele>0</ele>
        <time>2013-05-01T11:11:52Z</time>
      </trkpt>
      <trkpt lat="59.9686203003" lon="15.7721529007">
        <ele>0</ele>
        <time>2013-05-01T11:11:53Z</time>
      </trkpt>
      <trkpt lat="59.9685401917" lon="15.7720298767">
        <ele>0</ele>
        <time>2013-05-01T11:11:55Z</time>
      </trkpt>
      <trkpt lat="59.9685058594" lon="15.7719669342">
        <ele>0</ele>
        <time>2013-05-01T11:11:56Z</time>
      </trkpt>
      <trkpt lat="59.9684715271" lon="15.7718896866">
        <ele>0</ele>
        <time>2013-05-01T11:11:57Z</time>
      </trkpt>
      <trkpt lat="59.968421936" lon="15.7717351913">
        <ele>0</ele>
        <time>2013-05-01T11:11:59Z</time>
      </trkpt>
      <trkpt lat="59.9683647156" lon="15.7715816498">
        <ele>0</ele>
        <time>2013-05-01T11:12:01Z</time>
      </trkpt>
      <trkpt lat="59.9683380127" lon="15.7715167999">
        <ele>0</ele>
        <time>2013-05-01T11:12:02Z</time>
      </trkpt>
      <trkpt lat="59.9683036804" lon="15.7714347839">
        <ele>0</ele>
        <time>2013-05-01T11:12:03Z</time>
      </trkpt>
      <trkpt lat="59.9682731628" lon="15.7713737488">
        <ele>0</ele>
        <time>2013-05-01T11:12:04Z</time>
      </trkpt>
      <trkpt lat="59.9682350159" lon="15.7712984085">
        <ele>0</ele>
        <time>2013-05-01T11:12:05Z</time>
      </trkpt>
      <trkpt lat="59.9682044983" lon="15.7712450027">
        <ele>0</ele>
        <time>2013-05-01T11:12:06Z</time>
      </trkpt>
      <trkpt lat="59.9680328369" lon="15.7709188461">
        <ele>0</ele>
        <time>2013-05-01T11:12:11Z</time>
      </trkpt>
      <trkpt lat="59.9679679871" lon="15.7707929611">
        <ele>0</ele>
        <time>2013-05-01T11:12:13Z</time>
      </trkpt>
      <trkpt lat="59.9679412842" lon="15.7707386017">
        <ele>0</ele>
        <time>2013-05-01T11:12:14Z</time>
      </trkpt>
      <trkpt lat="59.9679031372" lon="15.7706623077">
        <ele>0</ele>
        <time>2013-05-01T11:12:15Z</time>
      </trkpt>
      <trkpt lat="59.9678726196" lon="15.7706079483">
        <ele>0.2</ele>
        <time>2013-05-01T11:12:16Z</time>
      </trkpt>
      <trkpt lat="59.9677391052" lon="15.7703361511">
        <ele>1.2</ele>
        <time>2013-05-01T11:12:20Z</time>
      </trkpt>
      <trkpt lat="59.9676513672" lon="15.7701644897">
        <ele>1.2</ele>
        <time>2013-05-01T11:12:23Z</time>
      </trkpt>
      <trkpt lat="59.9676094055" lon="15.7700948715">
        <ele>2.4</ele>
        <time>2013-05-01T11:12:24Z</time>
      </trkpt>
      <trkpt lat="59.9674797058" lon="15.7698526382">
        <ele>2.4</ele>
        <time>2013-05-01T11:12:28Z</time>
      </trkpt>
      <trkpt lat="59.9674224854" lon="15.7697286606">
        <ele>2.4</ele>
        <time>2013-05-01T11:12:30Z</time>
      </trkpt>
      <trkpt lat="59.9673881531" lon="15.769659996">
        <ele>3.4</ele>
        <time>2013-05-01T11:12:31Z</time>
      </trkpt>
      <trkpt lat="59.9672584534" lon="15.7694129944">
        <ele>3.4</ele>
        <time>2013-05-01T11:12:35Z</time>
      </trkpt>
      <trkpt lat="59.9672317505" lon="15.7693567276">
        <ele>4.4</ele>
        <time>2013-05-01T11:12:36Z</time>
      </trkpt>
      <trkpt lat="59.9671936035" lon="15.769288063">
        <ele>4.4</ele>
        <time>2013-05-01T11:12:37Z</time>
      </trkpt>
      <trkpt lat="59.9671669006" lon="15.7692327499">
        <ele>4.4</ele>
        <time>2013-05-01T11:12:38Z</time>
      </trkpt>
      <trkpt lat="59.9670982361" lon="15.769109726">
        <ele>5.4</ele>
        <time>2013-05-01T11:12:40Z</time>
      </trkpt>
      <trkpt lat="59.9670028687" lon="15.7689342499">
        <ele>6.4</ele>
        <time>2013-05-01T11:12:43Z</time>
      </trkpt>
      <trkpt lat="59.9669342041" lon="15.7688150406">
        <ele>6.4</ele>
        <time>2013-05-01T11:12:45Z</time>
      </trkpt>
      <trkpt lat="59.966835022" lon="15.7686405182">
        <ele>7.8</ele>
        <time>2013-05-01T11:12:48Z</time>
      </trkpt>
      <trkpt lat="59.9667358398" lon="15.7684822083">
        <ele>7.8</ele>
        <time>2013-05-01T11:12:51Z</time>
      </trkpt>
      <trkpt lat="59.9667053223" lon="15.7684259415">
        <ele>7.8</ele>
        <time>2013-05-01T11:12:52Z</time>
      </trkpt>
      <trkpt lat="59.9666671753" lon="15.76836586">
        <ele>9</ele>
        <time>2013-05-01T11:12:53Z</time>
      </trkpt>
      <trkpt lat="59.966632843" lon="15.7683105469">
        <ele>9</ele>
        <time>2013-05-01T11:12:54Z</time>
      </trkpt>
      <trkpt lat="59.966594696" lon="15.7682476044">
        <ele>9</ele>
        <time>2013-05-01T11:12:55Z</time>
      </trkpt>
      <trkpt lat="59.9665641785" lon="15.7681941986">
        <ele>9</ele>
        <time>2013-05-01T11:12:56Z</time>
      </trkpt>
      <trkpt lat="59.9665260315" lon="15.7681331635">
        <ele>9</ele>
        <time>2013-05-01T11:12:57Z</time>
      </trkpt>
      <trkpt lat="59.9664878845" lon="15.768078804">
        <ele>9</ele>
        <time>2013-05-01T11:12:58Z</time>
      </trkpt>
      <trkpt lat="59.9664573669" lon="15.7680253983">
        <ele>10</ele>
        <time>2013-05-01T11:12:59Z</time>
      </trkpt>
      <trkpt lat="59.9663848877" lon="15.7679224014">
        <ele>10</ele>
        <time>2013-05-01T11:13:01Z</time>
      </trkpt>
      <trkpt lat="59.9662704468" lon="15.7677698135">
        <ele>11</ele>
        <time>2013-05-01T11:13:04Z</time>
      </trkpt>
      <trkpt lat="59.9662284851" lon="15.7677078247">
        <ele>11</ele>
        <time>2013-05-01T11:13:05Z</time>
      </trkpt>
      <trkpt lat="59.9661941528" lon="15.7676525116">
        <ele>11</ele>
        <time>2013-05-01T11:13:06Z</time>
      </trkpt>
      <trkpt lat="59.9661521912" lon="15.7675933838">
        <ele>11</ele>
        <time>2013-05-01T11:13:07Z</time>
      </trkpt>
      <trkpt lat="59.9661140442" lon="15.7675361633">
        <ele>11</ele>
        <time>2013-05-01T11:13:08Z</time>
      </trkpt>
      <trkpt lat="59.9660758972" lon="15.7674779892">
        <ele>11</ele>
        <time>2013-05-01T11:13:09Z</time>
      </trkpt>
      <trkpt lat="59.9660377502" lon="15.7674188614">
        <ele>11</ele>
        <time>2013-05-01T11:13:10Z</time>
      </trkpt>
      <trkpt lat="59.9659957886" lon="15.7673654556">
        <ele>11</ele>
        <time>2013-05-01T11:13:11Z</time>
      </trkpt>
      <trkpt lat="59.9659538269" lon="15.7673025131">
        <ele>11</ele>
        <time>2013-05-01T11:13:12Z</time>
      </trkpt>
      <trkpt lat="59.9658317566" lon="15.767127037">
        <ele>12</ele>
        <time>2013-05-01T11:13:15Z</time>
      </trkpt>
      <trkpt lat="59.9655342102" lon="15.766708374">
        <ele>12</ele>
        <time>2013-05-01T11:13:22Z</time>
      </trkpt>
      <trkpt lat="59.9654922485" lon="15.7666482925">
        <ele>12</ele>
        <time>2013-05-01T11:13:23Z</time>
      </trkpt>
      <trkpt lat="59.9653663635" lon="15.7664670944">
        <ele>12</ele>
        <time>2013-05-01T11:13:26Z</time>
      </trkpt>
      <trkpt lat="59.9653244019" lon="15.7664070129">
        <ele>12</ele>
        <time>2013-05-01T11:13:27Z</time>
      </trkpt>
      <trkpt lat="59.9652862549" lon="15.7663516998">
        <ele>12</ele>
        <time>2013-05-01T11:13:28Z</time>
      </trkpt>
      <trkpt lat="59.9651222229" lon="15.7660980225">
        <ele>12</ele>
        <time>2013-05-01T11:13:32Z</time>
      </trkpt>
      <trkpt lat="59.9650840759" lon="15.7660341263">
        <ele>12</ele>
        <time>2013-05-01T11:13:33Z</time>
      </trkpt>
      <trkpt lat="59.9650421143" lon="15.7659711838">
        <ele>12</ele>
        <time>2013-05-01T11:13:34Z</time>
      </trkpt>
      <trkpt lat="59.9650039673" lon="15.7659082413">
        <ele>12</ele>
        <time>2013-05-01T11:13:35Z</time>
      </trkpt>
      <trkpt lat="59.9648208618" lon="15.7655954361">
        <ele>12</ele>
        <time>2013-05-01T11:13:40Z</time>
      </trkpt>
      <trkpt lat="59.9648017883" lon="15.7655076981">
        <ele>12</ele>
        <time>2013-05-01T11:13:41Z</time>
      </trkpt>
      <trkpt lat="59.9647865295" lon="15.7654132843">
        <ele>12</ele>
        <time>2013-05-01T11:13:42Z</time>
      </trkpt>
      <trkpt lat="59.9647903442" lon="15.7653102875">
        <ele>12</ele>
        <time>2013-05-01T11:13:43Z</time>
      </trkpt>
      <trkpt lat="59.9648208618" lon="15.7650976181">
        <ele>12</ele>
        <time>2013-05-01T11:13:45Z</time>
      </trkpt>
      <trkpt lat="59.964881897" lon="15.7647829056">
        <ele>12</ele>
        <time>2013-05-01T11:13:48Z</time>
      </trkpt>
      <trkpt lat="59.9649009705" lon="15.7646827698">
        <ele>12</ele>
        <time>2013-05-01T11:13:49Z</time>
      </trkpt>
      <trkpt lat="59.9649467468" lon="15.7644815445">
        <ele>12</ele>
        <time>2013-05-01T11:13:51Z</time>
      </trkpt>
      <trkpt lat="59.9649658203" lon="15.7643785477">
        <ele>12</ele>
        <time>2013-05-01T11:13:52Z</time>
      </trkpt>
      <trkpt lat="59.9649887085" lon="15.7642641068">
        <ele>12</ele>
        <time>2013-05-01T11:13:53Z</time>
      </trkpt>
      <trkpt lat="59.9650001526" lon="15.764172554">
        <ele>13</ele>
        <time>2013-05-01T11:13:54Z</time>
      </trkpt>
      <trkpt lat="59.9650154114" lon="15.7640504837">
        <ele>13</ele>
        <time>2013-05-01T11:13:55Z</time>
      </trkpt>
      <trkpt lat="59.9650344849" lon="15.7639522552">
        <ele>13</ele>
        <time>2013-05-01T11:13:56Z</time>
      </trkpt>
      <trkpt lat="59.9650878906" lon="15.7637310028">
        <ele>13</ele>
        <time>2013-05-01T11:13:58Z</time>
      </trkpt>
      <trkpt lat="59.9651184082" lon="15.7636260986">
        <ele>13</ele>
        <time>2013-05-01T11:13:59Z</time>
      </trkpt>
      <trkpt lat="59.9652099609" lon="15.763297081">
        <ele>13</ele>
        <time>2013-05-01T11:14:02Z</time>
      </trkpt>
      <trkpt lat="59.9652366638" lon="15.7631940842">
        <ele>13</ele>
        <time>2013-05-01T11:14:03Z</time>
      </trkpt>
      <trkpt lat="59.9653320312" lon="15.7628269196">
        <ele>13</ele>
        <time>2013-05-01T11:14:06Z</time>
      </trkpt>
      <trkpt lat="59.9653625488" lon="15.7626886368">
        <ele>13</ele>
        <time>2013-05-01T11:14:07Z</time>
      </trkpt>
      <trkpt lat="59.9653892517" lon="15.7625608444">
        <ele>13</ele>
        <time>2013-05-01T11:14:08Z</time>
      </trkpt>
      <trkpt lat="59.9654159546" lon="15.7624282837">
        <ele>13</ele>
        <time>2013-05-01T11:14:09Z</time>
      </trkpt>
      <trkpt lat="59.9654464722" lon="15.7622976303">
        <ele>13</ele>
        <time>2013-05-01T11:14:10Z</time>
      </trkpt>
      <trkpt lat="59.9654655457" lon="15.7621669769">
        <ele>13</ele>
        <time>2013-05-01T11:14:11Z</time>
      </trkpt>
      <trkpt lat="59.9654922485" lon="15.7620134354">
        <ele>13</ele>
        <time>2013-05-01T11:14:12Z</time>
      </trkpt>
      <trkpt lat="59.9655151367" lon="15.7618722916">
        <ele>10</ele>
        <time>2013-05-01T11:14:13Z</time>
      </trkpt>
      <trkpt lat="59.9655609131" lon="15.7615680695">
        <ele>9</ele>
        <time>2013-05-01T11:14:15Z</time>
      </trkpt>
      <trkpt lat="59.9655799866" lon="15.7614383698">
        <ele>9</ele>
        <time>2013-05-01T11:14:16Z</time>
      </trkpt>
      <trkpt lat="59.9656028748" lon="15.7612609863">
        <ele>8</ele>
        <time>2013-05-01T11:14:17Z</time>
      </trkpt>
      <trkpt lat="59.9656562805" lon="15.7607765198">
        <ele>8</ele>
        <time>2013-05-01T11:14:20Z</time>
      </trkpt>
      <trkpt lat="59.9656677246" lon="15.7606267929">
        <ele>8</ele>
        <time>2013-05-01T11:14:21Z</time>
      </trkpt>
      <trkpt lat="59.9656944275" lon="15.7603034973">
        <ele>6.8</ele>
        <time>2013-05-01T11:14:23Z</time>
      </trkpt>
      <trkpt lat="59.965713501" lon="15.7599611282">
        <ele>6.8</ele>
        <time>2013-05-01T11:14:25Z</time>
      </trkpt>
      <trkpt lat="59.9657211304" lon="15.7597961426">
        <ele>6.4</ele>
        <time>2013-05-01T11:14:26Z</time>
      </trkpt>
      <trkpt lat="59.9657249451" lon="15.7596206665">
        <ele>6.8</ele>
        <time>2013-05-01T11:14:27Z</time>
      </trkpt>
      <trkpt lat="59.9657287598" lon="15.7594633102">
        <ele>5.8</ele>
        <time>2013-05-01T11:14:28Z</time>
      </trkpt>
      <trkpt lat="59.9657287598" lon="15.7592821121">
        <ele>4.8</ele>
        <time>2013-05-01T11:14:29Z</time>
      </trkpt>
      <trkpt lat="59.9657325745" lon="15.7589445114">
        <ele>3.4</ele>
        <time>2013-05-01T11:14:31Z</time>
      </trkpt>
      <trkpt lat="59.9657287598" lon="15.7587575912">
        <ele>3.4</ele>
        <time>2013-05-01T11:14:32Z</time>
      </trkpt>
      <trkpt lat="59.9657173157" lon="15.7584075928">
        <ele>3.4</ele>
        <time>2013-05-01T11:14:34Z</time>
      </trkpt>
      <trkpt lat="59.965713501" lon="15.7582626343">
        <ele>3.4</ele>
        <time>2013-05-01T11:14:35Z</time>
      </trkpt>
      <trkpt lat="59.9657058716" lon="15.7580728531">
        <ele>2.4</ele>
        <time>2013-05-01T11:14:36Z</time>
      </trkpt>
      <trkpt lat="59.9656982422" lon="15.7578811646">
        <ele>1.6</ele>
        <time>2013-05-01T11:14:37Z</time>
      </trkpt>
      <trkpt lat="59.9656715393" lon="15.7573690414">
        <ele>0.4</ele>
        <time>2013-05-01T11:14:40Z</time>
      </trkpt>
      <trkpt lat="59.9656524658" lon="15.7570161819">
        <ele>0.2</ele>
        <time>2013-05-01T11:14:42Z</time>
      </trkpt>
      <trkpt lat="59.9656410217" lon="15.7568397522">
        <ele>0.4</ele>
        <time>2013-05-01T11:14:43Z</time>
      </trkpt>
      <trkpt lat="59.9656333923" lon="15.7566556931">
        <ele>0.4</ele>
        <time>2013-05-01T11:14:44Z</time>
      </trkpt>
      <trkpt lat="59.9656257629" lon="15.7564592361">
        <ele>0</ele>
        <time>2013-05-01T11:14:45Z</time>
      </trkpt>
      <trkpt lat="59.9656143188" lon="15.756278038">
        <ele>0</ele>
        <time>2013-05-01T11:14:46Z</time>
      </trkpt>
      <trkpt lat="59.9656066895" lon="15.7560768127">
        <ele>0</ele>
        <time>2013-05-01T11:14:47Z</time>
      </trkpt>
      <trkpt lat="59.9655952454" lon="15.7558898926">
        <ele>0</ele>
        <time>2013-05-01T11:14:48Z</time>
      </trkpt>
      <trkpt lat="59.965587616" lon="15.7557258606">
        <ele>0</ele>
        <time>2013-05-01T11:14:49Z</time>
      </trkpt>
      <trkpt lat="59.9655799866" lon="15.755572319">
        <ele>0</ele>
        <time>2013-05-01T11:14:50Z</time>
      </trkpt>
      <trkpt lat="59.9655609131" lon="15.7551698685">
        <ele>0</ele>
        <time>2013-05-01T11:14:52Z</time>
      </trkpt>
      <trkpt lat="59.965549469" lon="15.7549200058">
        <ele>0</ele>
        <time>2013-05-01T11:14:53Z</time>
      </trkpt>
      <trkpt lat="59.9655456543" lon="15.7548093796">
        <ele>0</ele>
        <time>2013-05-01T11:14:54Z</time>
      </trkpt>
      <trkpt lat="59.9655342102" lon="15.7545471191">
        <ele>0</ele>
        <time>2013-05-01T11:14:55Z</time>
      </trkpt>
      <trkpt lat="59.9655227661" lon="15.7543849945">
        <ele>0</ele>
        <time>2013-05-01T11:14:56Z</time>
      </trkpt>
      <trkpt lat="59.9655151367" lon="15.7541923523">
        <ele>0</ele>
        <time>2013-05-01T11:14:57Z</time>
      </trkpt>
      <trkpt lat="59.9655075073" lon="15.7540874481">
        <ele>0</ele>
        <time>2013-05-01T11:14:58Z</time>
      </trkpt>
      <trkpt lat="59.9654998779" lon="15.75390625">
        <ele>0</ele>
        <time>2013-05-01T11:14:59Z</time>
      </trkpt>
      <trkpt lat="59.965133667" lon="15.7477073669">
        <ele>0</ele>
        <time>2013-05-01T11:15:40Z</time>
      </trkpt>
      <trkpt lat="59.9651679993" lon="15.7396726608">
        <ele>0</ele>
        <time>2013-05-01T11:16:41Z</time>
      </trkpt>
      <trkpt lat="59.9659996033" lon="15.7326116562">
        <ele>0</ele>
        <time>2013-05-01T11:17:35Z</time>
      </trkpt>
      <trkpt lat="59.9686317444" lon="15.7220067978">
        <ele>0</ele>
        <time>2013-05-01T11:18:48Z</time>
      </trkpt>
      <trkpt lat="59.9725532532" lon="15.7133541107">
        <ele>0</ele>
        <time>2013-05-01T11:20:00Z</time>
      </trkpt>
      <trkpt lat="59.9746894836" lon="15.7076673508">
        <ele>0</ele>
        <time>2013-05-01T11:20:46Z</time>
      </trkpt>
      <trkpt lat="59.9762077332" lon="15.7023067474">
        <ele>0</ele>
        <time>2013-05-01T11:21:27Z</time>
      </trkpt>
      <trkpt lat="59.9766197205" lon="15.7010164261">
        <ele>0</ele>
        <time>2013-05-01T11:21:36Z</time>
      </trkpt>
      <trkpt lat="59.9771766663" lon="15.6992683411">
        <ele>0</ele>
        <time>2013-05-01T11:21:48Z</time>
      </trkpt>
      <trkpt lat="59.9782180786" lon="15.6969461441">
        <ele>0</ele>
        <time>2013-05-01T11:22:06Z</time>
      </trkpt>
      <trkpt lat="59.97996521" lon="15.6929597855">
        <ele>0</ele>
        <time>2013-05-01T11:22:37Z</time>
      </trkpt>
      <trkpt lat="59.9818077087" lon="15.6887588501">
        <ele>0</ele>
        <time>2013-05-01T11:23:09Z</time>
      </trkpt>
      <trkpt lat="59.9833145142" lon="15.6855659485">
        <ele>0</ele>
        <time>2013-05-01T11:23:34Z</time>
      </trkpt>
      <trkpt lat="59.9858551025" lon="15.680565834">
        <ele>0</ele>
        <time>2013-05-01T11:24:15Z</time>
      </trkpt>
      <trkpt lat="59.9876861572" lon="15.6769428253">
        <ele>0</ele>
        <time>2013-05-01T11:24:45Z</time>
      </trkpt>
      <trkpt lat="59.9883956909" lon="15.6756649017">
        <ele>0</ele>
        <time>2013-05-01T11:24:56Z</time>
      </trkpt>
      <trkpt lat="59.9887199402" lon="15.6751813889">
        <ele>0</ele>
        <time>2013-05-01T11:25:01Z</time>
      </trkpt>
      <trkpt lat="59.989276886" lon="15.6743249893">
        <ele>0</ele>
        <time>2013-05-01T11:25:09Z</time>
      </trkpt>
      <trkpt lat="59.990447998" lon="15.6728630066">
        <ele>0</ele>
        <time>2013-05-01T11:25:26Z</time>
      </trkpt>
      <trkpt lat="59.9925918579" lon="15.6706781387">
        <ele>0</ele>
        <time>2013-05-01T11:25:58Z</time>
      </trkpt>
      <trkpt lat="59.994682312" lon="15.6686325073">
        <ele>0</ele>
        <time>2013-05-01T11:26:26Z</time>
      </trkpt>
      <trkpt lat="59.9973564148" lon="15.6659317017">
        <ele>0</ele>
        <time>2013-05-01T11:27:03Z</time>
      </trkpt>
      <trkpt lat="60.0008468628" lon="15.6616601944">
        <ele>0</ele>
        <time>2013-05-01T11:27:56Z</time>
      </trkpt>
      <trkpt lat="60.0028076172" lon="15.6591005325">
        <ele>0</ele>
        <time>2013-05-01T11:28:26Z</time>
      </trkpt>
      <trkpt lat="60.0045433044" lon="15.6566305161">
        <ele>0</ele>
        <time>2013-05-01T11:28:51Z</time>
      </trkpt>
      <trkpt lat="60.0059661865" lon="15.6541662216">
        <ele>0</ele>
        <time>2013-05-01T11:29:12Z</time>
      </trkpt>
      <trkpt lat="60.0086479187" lon="15.6479129791">
        <ele>0</ele>
        <time>2013-05-01T11:30:00Z</time>
      </trkpt>
      <trkpt lat="60.0115699768" lon="15.6413583755">
        <ele>0</ele>
        <time>2013-05-01T11:30:51Z</time>
      </trkpt>
      <trkpt lat="60.0156745911" lon="15.6331281662">
        <ele>0</ele>
        <time>2013-05-01T11:31:59Z</time>
      </trkpt>
      <trkpt lat="60.0157279968" lon="15.63301754">
        <ele>0</ele>
        <time>2013-05-01T11:32:00Z</time>
      </trkpt>
      <trkpt lat="60.0158462524" lon="15.6327762604">
        <ele>0</ele>
        <time>2013-05-01T11:32:02Z</time>
      </trkpt>
      <trkpt lat="60.0158958435" lon="15.6326751709">
        <ele>0</ele>
        <time>2013-05-01T11:32:03Z</time>
      </trkpt>
      <trkpt lat="60.0160140991" lon="15.6324491501">
        <ele>0</ele>
        <time>2013-05-01T11:32:05Z</time>
      </trkpt>
      <trkpt lat="60.0160827637" lon="15.63230896">
        <ele>0</ele>
        <time>2013-05-01T11:32:06Z</time>
      </trkpt>
      <trkpt lat="60.0161209106" lon="15.6322383881">
        <ele>0</ele>
        <time>2013-05-01T11:32:07Z</time>
      </trkpt>
      <trkpt lat="60.016204834" lon="15.6320724487">
        <ele>0</ele>
        <time>2013-05-01T11:32:08Z</time>
      </trkpt>
      <trkpt lat="60.0162620544" lon="15.6319522858">
        <ele>0</ele>
        <time>2013-05-01T11:32:09Z</time>
      </trkpt>
      <trkpt lat="60.0163192749" lon="15.6318397522">
        <ele>0</ele>
        <time>2013-05-01T11:32:10Z</time>
      </trkpt>
      <trkpt lat="60.0163536072" lon="15.6317710876">
        <ele>0</ele>
        <time>2013-05-01T11:32:11Z</time>
      </trkpt>
      <trkpt lat="60.0164337158" lon="15.6316127777">
        <ele>0</ele>
        <time>2013-05-01T11:32:12Z</time>
      </trkpt>
      <trkpt lat="60.0164985657" lon="15.6314868927">
        <ele>0</ele>
        <time>2013-05-01T11:32:13Z</time>
      </trkpt>
      <trkpt lat="60.0165519714" lon="15.6313705444">
        <ele>0</ele>
        <time>2013-05-01T11:32:14Z</time>
      </trkpt>
      <trkpt lat="60.0165939331" lon="15.6312828064">
        <ele>0</ele>
        <time>2013-05-01T11:32:15Z</time>
      </trkpt>
      <trkpt lat="60.0166625977" lon="15.631146431">
        <ele>0</ele>
        <time>2013-05-01T11:32:16Z</time>
      </trkpt>
      <trkpt lat="60.0167121887" lon="15.6310472488">
        <ele>0</ele>
        <time>2013-05-01T11:32:17Z</time>
      </trkpt>
      <trkpt lat="60.0167770386" lon="15.6309242249">
        <ele>0</ele>
        <time>2013-05-01T11:32:18Z</time>
      </trkpt>
      <trkpt lat="60.0170440674" lon="15.6303834915">
        <ele>0</ele>
        <time>2013-05-01T11:32:23Z</time>
      </trkpt>
      <trkpt lat="60.0171012878" lon="15.6302680969">
        <ele>0</ele>
        <time>2013-05-01T11:32:24Z</time>
      </trkpt>
      <trkpt lat="60.0171508789" lon="15.6301651001">
        <ele>0</ele>
        <time>2013-05-01T11:32:25Z</time>
      </trkpt>
      <trkpt lat="60.0172080994" lon="15.6300535202">
        <ele>0</ele>
        <time>2013-05-01T11:32:26Z</time>
      </trkpt>
      <trkpt lat="60.0172424316" lon="15.6299848557">
        <ele>0</ele>
        <time>2013-05-01T11:32:27Z</time>
      </trkpt>
      <trkpt lat="60.0173225403" lon="15.6298322678">
        <ele>0</ele>
        <time>2013-05-01T11:32:28Z</time>
      </trkpt>
      <trkpt lat="60.0175476074" lon="15.6293830872">
        <ele>0</ele>
        <time>2013-05-01T11:32:32Z</time>
      </trkpt>
      <trkpt lat="60.0176086426" lon="15.6292610168">
        <ele>0</ele>
        <time>2013-05-01T11:32:33Z</time>
      </trkpt>
      <trkpt lat="60.017665863" lon="15.6291446686">
        <ele>0</ele>
        <time>2013-05-01T11:32:34Z</time>
      </trkpt>
      <trkpt lat="60.0177230835" lon="15.6290302277">
        <ele>0</ele>
        <time>2013-05-01T11:32:35Z</time>
      </trkpt>
      <trkpt lat="60.017829895" lon="15.6288051605">
        <ele>0</ele>
        <time>2013-05-01T11:32:37Z</time>
      </trkpt>
      <trkpt lat="60.0178947449" lon="15.6286811829">
        <ele>0</ele>
        <time>2013-05-01T11:32:38Z</time>
      </trkpt>
      <trkpt lat="60.0182495117" lon="15.6279687881">
        <ele>0</ele>
        <time>2013-05-01T11:32:44Z</time>
      </trkpt>
      <trkpt lat="60.0183029175" lon="15.6278486252">
        <ele>0</ele>
        <time>2013-05-01T11:32:45Z</time>
      </trkpt>
      <trkpt lat="60.0187149048" lon="15.6269807816">
        <ele>0</ele>
        <time>2013-05-01T11:32:52Z</time>
      </trkpt>
      <trkpt lat="60.0187759399" lon="15.6268577576">
        <ele>0</ele>
        <time>2013-05-01T11:32:53Z</time>
      </trkpt>
      <trkpt lat="60.0190696716" lon="15.6262388229">
        <ele>0</ele>
        <time>2013-05-01T11:32:58Z</time>
      </trkpt>
      <trkpt lat="60.0191268921" lon="15.6261177063">
        <ele>0</ele>
        <time>2013-05-01T11:32:59Z</time>
      </trkpt>
      <trkpt lat="60.0191879272" lon="15.626001358">
        <ele>0</ele>
        <time>2013-05-01T11:33:00Z</time>
      </trkpt>
      <trkpt lat="60.0192527771" lon="15.6258716583">
        <ele>0</ele>
        <time>2013-05-01T11:33:01Z</time>
      </trkpt>
      <trkpt lat="60.0193061829" lon="15.6257600784">
        <ele>0</ele>
        <time>2013-05-01T11:33:02Z</time>
      </trkpt>
      <trkpt lat="60.0193481445" lon="15.625667572">
        <ele>0</ele>
        <time>2013-05-01T11:33:03Z</time>
      </trkpt>
      <trkpt lat="60.0194320679" lon="15.6254920959">
        <ele>0</ele>
        <time>2013-05-01T11:33:04Z</time>
      </trkpt>
      <trkpt lat="60.0194816589" lon="15.6253871918">
        <ele>0</ele>
        <time>2013-05-01T11:33:05Z</time>
      </trkpt>
      <trkpt lat="60.0195503235" lon="15.6252374649">
        <ele>0</ele>
        <time>2013-05-01T11:33:06Z</time>
      </trkpt>
      <trkpt lat="60.0195922852" lon="15.6251592636">
        <ele>0</ele>
        <time>2013-05-01T11:33:07Z</time>
      </trkpt>
      <trkpt lat="60.019744873" lon="15.6248445511">
        <ele>0</ele>
        <time>2013-05-01T11:33:09Z</time>
      </trkpt>
      <trkpt lat="60.0198020935" lon="15.6247177124">
        <ele>0</ele>
        <time>2013-05-01T11:33:10Z</time>
      </trkpt>
      <trkpt lat="60.0198364258" lon="15.6246356964">
        <ele>0</ele>
        <time>2013-05-01T11:33:11Z</time>
      </trkpt>
      <trkpt lat="60.0201797485" lon="15.6239280701">
        <ele>0</ele>
        <time>2013-05-01T11:33:16Z</time>
      </trkpt>
      <trkpt lat="60.0202293396" lon="15.6238212585">
        <ele>0</ele>
        <time>2013-05-01T11:33:17Z</time>
      </trkpt>
      <trkpt lat="60.0203056335" lon="15.623667717">
        <ele>0</ele>
        <time>2013-05-01T11:33:18Z</time>
      </trkpt>
      <trkpt lat="60.0203475952" lon="15.6235809326">
        <ele>0</ele>
        <time>2013-05-01T11:33:19Z</time>
      </trkpt>
      <trkpt lat="60.0204277039" lon="15.6234045029">
        <ele>0</ele>
        <time>2013-05-01T11:33:20Z</time>
      </trkpt>
      <trkpt lat="60.0204963684" lon="15.6232595444">
        <ele>0</ele>
        <time>2013-05-01T11:33:21Z</time>
      </trkpt>
      <trkpt lat="60.0205574036" lon="15.6231365204">
        <ele>0</ele>
        <time>2013-05-01T11:33:22Z</time>
      </trkpt>
      <trkpt lat="60.0205879211" lon="15.6230707169">
        <ele>0</ele>
        <time>2013-05-01T11:33:23Z</time>
      </trkpt>
      <trkpt lat="60.0207328796" lon="15.6227684021">
        <ele>0</ele>
        <time>2013-05-01T11:33:25Z</time>
      </trkpt>
      <trkpt lat="60.0208015442" lon="15.6226234436">
        <ele>0</ele>
        <time>2013-05-01T11:33:26Z</time>
      </trkpt>
      <trkpt lat="60.0209236145" lon="15.6223630905">
        <ele>0</ele>
        <time>2013-05-01T11:33:28Z</time>
      </trkpt>
      <trkpt lat="60.020980835" lon="15.6222448349">
        <ele>0</ele>
        <time>2013-05-01T11:33:29Z</time>
      </trkpt>
      <trkpt lat="60.0210418701" lon="15.6221141815">
        <ele>0</ele>
        <time>2013-05-01T11:33:30Z</time>
      </trkpt>
      <trkpt lat="60.0210838318" lon="15.6220283508">
        <ele>0</ele>
        <time>2013-05-01T11:33:31Z</time>
      </trkpt>
      <trkpt lat="60.0211601257" lon="15.6218643188">
        <ele>0</ele>
        <time>2013-05-01T11:33:32Z</time>
      </trkpt>
      <trkpt lat="60.0212249756" lon="15.6217269897">
        <ele>0</ele>
        <time>2013-05-01T11:33:33Z</time>
      </trkpt>
      <trkpt lat="60.0212860107" lon="15.6215963364">
        <ele>0</ele>
        <time>2013-05-01T11:33:34Z</time>
      </trkpt>
      <trkpt lat="60.0213432312" lon="15.621468544">
        <ele>0</ele>
        <time>2013-05-01T11:33:35Z</time>
      </trkpt>
      <trkpt lat="60.0214042664" lon="15.6213502884">
        <ele>0</ele>
        <time>2013-05-01T11:33:36Z</time>
      </trkpt>
      <trkpt lat="60.0215263367" lon="15.6210899353">
        <ele>0</ele>
        <time>2013-05-01T11:33:38Z</time>
      </trkpt>
      <trkpt lat="60.0217094421" lon="15.6207065582">
        <ele>0</ele>
        <time>2013-05-01T11:33:41Z</time>
      </trkpt>
      <trkpt lat="60.0217666626" lon="15.6205797195">
        <ele>0</ele>
        <time>2013-05-01T11:33:42Z</time>
      </trkpt>
      <trkpt lat="60.021812439" lon="15.6204853058">
        <ele>0</ele>
        <time>2013-05-01T11:33:43Z</time>
      </trkpt>
      <trkpt lat="60.0218963623" lon="15.6203041077">
        <ele>0</ele>
        <time>2013-05-01T11:33:44Z</time>
      </trkpt>
      <trkpt lat="60.0219535828" lon="15.6201763153">
        <ele>0</ele>
        <time>2013-05-01T11:33:45Z</time>
      </trkpt>
      <trkpt lat="60.0221366882" lon="15.6197957993">
        <ele>0</ele>
        <time>2013-05-01T11:33:48Z</time>
      </trkpt>
      <trkpt lat="60.0222053528" lon="15.6196508408">
        <ele>0</ele>
        <time>2013-05-01T11:33:49Z</time>
      </trkpt>
      <trkpt lat="60.0222625732" lon="15.6195259094">
        <ele>0</ele>
        <time>2013-05-01T11:33:50Z</time>
      </trkpt>
      <trkpt lat="60.0223007202" lon="15.6194400787">
        <ele>0</ele>
        <time>2013-05-01T11:33:51Z</time>
      </trkpt>
      <trkpt lat="60.0223846436" lon="15.6192626953">
        <ele>0</ele>
        <time>2013-05-01T11:33:52Z</time>
      </trkpt>
      <trkpt lat="60.0224304199" lon="15.6191596985">
        <ele>0</ele>
        <time>2013-05-01T11:33:53Z</time>
      </trkpt>
      <trkpt lat="60.0226135254" lon="15.6187639236">
        <ele>0</ele>
        <time>2013-05-01T11:33:56Z</time>
      </trkpt>
      <trkpt lat="60.0226745605" lon="15.6186380386">
        <ele>0</ele>
        <time>2013-05-01T11:33:57Z</time>
      </trkpt>
      <trkpt lat="60.0227394104" lon="15.6184949875">
        <ele>0</ele>
        <time>2013-05-01T11:33:58Z</time>
      </trkpt>
      <trkpt lat="60.0227737427" lon="15.6184158325">
        <ele>0</ele>
        <time>2013-05-01T11:33:59Z</time>
      </trkpt>
      <trkpt lat="60.0228691101" lon="15.6182203293">
        <ele>0</ele>
        <time>2013-05-01T11:34:00Z</time>
      </trkpt>
      <trkpt lat="60.0229301453" lon="15.6180925369">
        <ele>0</ele>
        <time>2013-05-01T11:34:01Z</time>
      </trkpt>
      <trkpt lat="60.0229721069" lon="15.6179914474">
        <ele>0</ele>
        <time>2013-05-01T11:34:02Z</time>
      </trkpt>
      <trkpt lat="60.023021698" lon="15.6178817749">
        <ele>0</ele>
        <time>2013-05-01T11:34:03Z</time>
      </trkpt>
      <trkpt lat="60.0230751038" lon="15.6177453995">
        <ele>0</ele>
        <time>2013-05-01T11:34:04Z</time>
      </trkpt>
      <trkpt lat="60.023235321" lon="15.6173801422">
        <ele>0</ele>
        <time>2013-05-01T11:34:07Z</time>
      </trkpt>
      <trkpt lat="60.0233039856" lon="15.6172151566">
        <ele>0</ele>
        <time>2013-05-01T11:34:08Z</time>
      </trkpt>
      <trkpt lat="60.0233573914" lon="15.6170721054">
        <ele>0</ele>
        <time>2013-05-01T11:34:09Z</time>
      </trkpt>
      <trkpt lat="60.0234107971" lon="15.6169424057">
        <ele>0</ele>
        <time>2013-05-01T11:34:10Z</time>
      </trkpt>
      <trkpt lat="60.0234489441" lon="15.6168470383">
        <ele>0</ele>
        <time>2013-05-01T11:34:11Z</time>
      </trkpt>
      <trkpt lat="60.0235137939" lon="15.6167011261">
        <ele>0</ele>
        <time>2013-05-01T11:34:12Z</time>
      </trkpt>
      <trkpt lat="60.0235748291" lon="15.6165475845">
        <ele>0</ele>
        <time>2013-05-01T11:34:13Z</time>
      </trkpt>
      <trkpt lat="60.0236320496" lon="15.616402626">
        <ele>0</ele>
        <time>2013-05-01T11:34:14Z</time>
      </trkpt>
      <trkpt lat="60.0236740112" lon="15.6162862778">
        <ele>0</ele>
        <time>2013-05-01T11:34:15Z</time>
      </trkpt>
      <trkpt lat="60.0237693787" lon="15.616024971">
        <ele>0</ele>
        <time>2013-05-01T11:34:17Z</time>
      </trkpt>
      <trkpt lat="60.0238342285" lon="15.6158638">
        <ele>0</ele>
        <time>2013-05-01T11:34:18Z</time>
      </trkpt>
      <trkpt lat="60.0238723755" lon="15.6157541275">
        <ele>0</ele>
        <time>2013-05-01T11:34:19Z</time>
      </trkpt>
      <trkpt lat="60.0239295959" lon="15.6156005859">
        <ele>0</ele>
        <time>2013-05-01T11:34:20Z</time>
      </trkpt>
      <trkpt lat="60.0240402222" lon="15.6152982712">
        <ele>0</ele>
        <time>2013-05-01T11:34:22Z</time>
      </trkpt>
      <trkpt lat="60.0240783691" lon="15.6151990891">
        <ele>0</ele>
        <time>2013-05-01T11:34:23Z</time>
      </trkpt>
      <trkpt lat="60.0241279602" lon="15.6150665283">
        <ele>0</ele>
        <time>2013-05-01T11:34:24Z</time>
      </trkpt>
      <trkpt lat="60.0242881775" lon="15.6146583557">
        <ele>0</ele>
        <time>2013-05-01T11:34:27Z</time>
      </trkpt>
      <trkpt lat="60.024356842" lon="15.6144971848">
        <ele>0</ele>
        <time>2013-05-01T11:34:28Z</time>
      </trkpt>
      <trkpt lat="60.0244064331" lon="15.614361763">
        <ele>0</ele>
        <time>2013-05-01T11:34:29Z</time>
      </trkpt>
      <trkpt lat="60.0244979858" lon="15.6141309738">
        <ele>0</ele>
        <time>2013-05-01T11:34:31Z</time>
      </trkpt>
      <trkpt lat="60.0245552063" lon="15.6139812469">
        <ele>0</ele>
        <time>2013-05-01T11:34:32Z</time>
      </trkpt>
      <trkpt lat="60.0246124268" lon="15.6138372421">
        <ele>0</ele>
        <time>2013-05-01T11:34:33Z</time>
      </trkpt>
      <trkpt lat="60.0246658325" lon="15.6137065887">
        <ele>0</ele>
        <time>2013-05-01T11:34:34Z</time>
      </trkpt>
      <trkpt lat="60.0246963501" lon="15.6136217117">
        <ele>0</ele>
        <time>2013-05-01T11:34:35Z</time>
      </trkpt>
      <trkpt lat="60.0247612" lon="15.6134500504">
        <ele>0</ele>
        <time>2013-05-01T11:34:36Z</time>
      </trkpt>
      <trkpt lat="60.024810791" lon="15.613322258">
        <ele>0</ele>
        <time>2013-05-01T11:34:37Z</time>
      </trkpt>
      <trkpt lat="60.0248680115" lon="15.6131811142">
        <ele>0</ele>
        <time>2013-05-01T11:34:38Z</time>
      </trkpt>
      <trkpt lat="60.0249023438" lon="15.6130876541">
        <ele>0</ele>
        <time>2013-05-01T11:34:39Z</time>
      </trkpt>
      <trkpt lat="60.0249633789" lon="15.6129302979">
        <ele>0</ele>
        <time>2013-05-01T11:34:40Z</time>
      </trkpt>
      <trkpt lat="60.02501297" lon="15.6128005981">
        <ele>0</ele>
        <time>2013-05-01T11:34:41Z</time>
      </trkpt>
      <trkpt lat="60.025062561" lon="15.6126680374">
        <ele>0</ele>
        <time>2013-05-01T11:34:42Z</time>
      </trkpt>
      <trkpt lat="60.0251579285" lon="15.6124095917">
        <ele>0</ele>
        <time>2013-05-01T11:34:44Z</time>
      </trkpt>
      <trkpt lat="60.0252151489" lon="15.6122703552">
        <ele>0</ele>
        <time>2013-05-01T11:34:45Z</time>
      </trkpt>
      <trkpt lat="60.02526474" lon="15.6121416092">
        <ele>0</ele>
        <time>2013-05-01T11:34:46Z</time>
      </trkpt>
      <trkpt lat="60.0252990723" lon="15.6120481491">
        <ele>0</ele>
        <time>2013-05-01T11:34:47Z</time>
      </trkpt>
      <trkpt lat="60.0253715515" lon="15.6118774414">
        <ele>0</ele>
        <time>2013-05-01T11:34:48Z</time>
      </trkpt>
      <trkpt lat="60.02551651" lon="15.611495018">
        <ele>0</ele>
        <time>2013-05-01T11:34:51Z</time>
      </trkpt>
      <trkpt lat="60.0255661011" lon="15.6113538742">
        <ele>0</ele>
        <time>2013-05-01T11:34:52Z</time>
      </trkpt>
      <trkpt lat="60.0256233215" lon="15.6112117767">
        <ele>0</ele>
        <time>2013-05-01T11:34:53Z</time>
      </trkpt>
      <trkpt lat="60.0256843567" lon="15.6110773087">
        <ele>0</ele>
        <time>2013-05-01T11:34:54Z</time>
      </trkpt>
      <trkpt lat="60.0257225037" lon="15.6109800339">
        <ele>0</ele>
        <time>2013-05-01T11:34:55Z</time>
      </trkpt>
      <trkpt lat="60.0257835388" lon="15.610824585">
        <ele>0</ele>
        <time>2013-05-01T11:34:56Z</time>
      </trkpt>
      <trkpt lat="60.0258331299" lon="15.6106929779">
        <ele>0</ele>
        <time>2013-05-01T11:34:57Z</time>
      </trkpt>
      <trkpt lat="60.0258865356" lon="15.6105451584">
        <ele>0</ele>
        <time>2013-05-01T11:34:58Z</time>
      </trkpt>
      <trkpt lat="60.0259246826" lon="15.6104516983">
        <ele>0</ele>
        <time>2013-05-01T11:34:59Z</time>
      </trkpt>
      <trkpt lat="60.0259857178" lon="15.6103000641">
        <ele>0</ele>
        <time>2013-05-01T11:35:00Z</time>
      </trkpt>
      <trkpt lat="60.0260391235" lon="15.6101617813">
        <ele>0</ele>
        <time>2013-05-01T11:35:01Z</time>
      </trkpt>
      <trkpt lat="60.0260887146" lon="15.61003685">
        <ele>0</ele>
        <time>2013-05-01T11:35:02Z</time>
      </trkpt>
      <trkpt lat="60.026134491" lon="15.609919548">
        <ele>0</ele>
        <time>2013-05-01T11:35:03Z</time>
      </trkpt>
      <trkpt lat="60.0261878967" lon="15.6097888947">
        <ele>0</ele>
        <time>2013-05-01T11:35:04Z</time>
      </trkpt>
      <trkpt lat="60.0262374878" lon="15.6096696854">
        <ele>0</ele>
        <time>2013-05-01T11:35:05Z</time>
      </trkpt>
      <trkpt lat="60.0262947083" lon="15.6095199585">
        <ele>0</ele>
        <time>2013-05-01T11:35:06Z</time>
      </trkpt>
      <trkpt lat="60.0263290405" lon="15.6094293594">
        <ele>0</ele>
        <time>2013-05-01T11:35:07Z</time>
      </trkpt>
      <trkpt lat="60.0263977051" lon="15.6092672348">
        <ele>0</ele>
        <time>2013-05-01T11:35:08Z</time>
      </trkpt>
      <trkpt lat="60.0264549255" lon="15.6091308594">
        <ele>0</ele>
        <time>2013-05-01T11:35:09Z</time>
      </trkpt>
      <trkpt lat="60.0265083313" lon="15.609003067">
        <ele>0</ele>
        <time>2013-05-01T11:35:10Z</time>
      </trkpt>
      <trkpt lat="60.0265426636" lon="15.6089115143">
        <ele>0</ele>
        <time>2013-05-01T11:35:11Z</time>
      </trkpt>
      <trkpt lat="60.0267562866" lon="15.6084022522">
        <ele>0</ele>
        <time>2013-05-01T11:35:15Z</time>
      </trkpt>
      <trkpt lat="60.0268173218" lon="15.6082553864">
        <ele>0</ele>
        <time>2013-05-01T11:35:16Z</time>
      </trkpt>
      <trkpt lat="60.0268669128" lon="15.6081314087">
        <ele>0</ele>
        <time>2013-05-01T11:35:17Z</time>
      </trkpt>
      <trkpt lat="60.0269241333" lon="15.6079950333">
        <ele>0</ele>
        <time>2013-05-01T11:35:18Z</time>
      </trkpt>
      <trkpt lat="60.0269584656" lon="15.6079034805">
        <ele>0</ele>
        <time>2013-05-01T11:35:19Z</time>
      </trkpt>
      <trkpt lat="60.0270233154" lon="15.6077613831">
        <ele>0</ele>
        <time>2013-05-01T11:35:20Z</time>
      </trkpt>
      <trkpt lat="60.0270805359" lon="15.6076278687">
        <ele>0</ele>
        <time>2013-05-01T11:35:21Z</time>
      </trkpt>
      <trkpt lat="60.027130127" lon="15.6075201035">
        <ele>0</ele>
        <time>2013-05-01T11:35:22Z</time>
      </trkpt>
      <trkpt lat="60.0271682739" lon="15.607421875">
        <ele>0</ele>
        <time>2013-05-01T11:35:23Z</time>
      </trkpt>
      <trkpt lat="60.0272293091" lon="15.6072788239">
        <ele>0</ele>
        <time>2013-05-01T11:35:24Z</time>
      </trkpt>
      <trkpt lat="60.0272903442" lon="15.6071634293">
        <ele>0</ele>
        <time>2013-05-01T11:35:25Z</time>
      </trkpt>
      <trkpt lat="60.0273399353" lon="15.6070432663">
        <ele>0</ele>
        <time>2013-05-01T11:35:26Z</time>
      </trkpt>
      <trkpt lat="60.0273666382" lon="15.6069793701">
        <ele>0</ele>
        <time>2013-05-01T11:35:27Z</time>
      </trkpt>
      <trkpt lat="60.0274467468" lon="15.606801033">
        <ele>0</ele>
        <time>2013-05-01T11:35:28Z</time>
      </trkpt>
      <trkpt lat="60.0275039673" lon="15.6066665649">
        <ele>0</ele>
        <time>2013-05-01T11:35:29Z</time>
      </trkpt>
      <trkpt lat="60.0275611877" lon="15.6065444946">
        <ele>0</ele>
        <time>2013-05-01T11:35:30Z</time>
      </trkpt>
      <trkpt lat="60.0276031494" lon="15.6064510345">
        <ele>0</ele>
        <time>2013-05-01T11:35:31Z</time>
      </trkpt>
      <trkpt lat="60.0277748108" lon="15.6060714722">
        <ele>0</ele>
        <time>2013-05-01T11:35:34Z</time>
      </trkpt>
      <trkpt lat="60.0278320312" lon="15.6059274673">
        <ele>0</ele>
        <time>2013-05-01T11:35:35Z</time>
      </trkpt>
      <trkpt lat="60.0278816223" lon="15.6058073044">
        <ele>0</ele>
        <time>2013-05-01T11:35:36Z</time>
      </trkpt>
      <trkpt lat="60.0279388428" lon="15.6056671143">
        <ele>0</ele>
        <time>2013-05-01T11:35:37Z</time>
      </trkpt>
      <trkpt lat="60.0279884338" lon="15.6055469513">
        <ele>0</ele>
        <time>2013-05-01T11:35:38Z</time>
      </trkpt>
      <trkpt lat="60.0280342102" lon="15.6054325104">
        <ele>0</ele>
        <time>2013-05-01T11:35:39Z</time>
      </trkpt>
      <trkpt lat="60.028087616" lon="15.6053123474">
        <ele>0</ele>
        <time>2013-05-01T11:35:40Z</time>
      </trkpt>
      <trkpt lat="60.0281410217" lon="15.6051998138">
        <ele>0</ele>
        <time>2013-05-01T11:35:41Z</time>
      </trkpt>
      <trkpt lat="60.0281906128" lon="15.6050662994">
        <ele>0</ele>
        <time>2013-05-01T11:35:42Z</time>
      </trkpt>
      <trkpt lat="60.0282325745" lon="15.6049642563">
        <ele>0</ele>
        <time>2013-05-01T11:35:43Z</time>
      </trkpt>
      <trkpt lat="60.0282859802" lon="15.6048297882">
        <ele>0</ele>
        <time>2013-05-01T11:35:44Z</time>
      </trkpt>
      <trkpt lat="60.0283432007" lon="15.6046953201">
        <ele>0</ele>
        <time>2013-05-01T11:35:45Z</time>
      </trkpt>
      <trkpt lat="60.0283927917" lon="15.6045780182">
        <ele>0</ele>
        <time>2013-05-01T11:35:46Z</time>
      </trkpt>
      <trkpt lat="60.0284156799" lon="15.6045131683">
        <ele>0</ele>
        <time>2013-05-01T11:35:47Z</time>
      </trkpt>
      <trkpt lat="60.0284957886" lon="15.6043148041">
        <ele>0</ele>
        <time>2013-05-01T11:35:48Z</time>
      </trkpt>
      <trkpt lat="60.0287017822" lon="15.6038351059">
        <ele>0</ele>
        <time>2013-05-01T11:35:52Z</time>
      </trkpt>
      <trkpt lat="60.0288124084" lon="15.6035871506">
        <ele>0</ele>
        <time>2013-05-01T11:35:54Z</time>
      </trkpt>
      <trkpt lat="60.0288619995" lon="15.6034727097">
        <ele>0</ele>
        <time>2013-05-01T11:35:55Z</time>
      </trkpt>
      <trkpt lat="60.0289115906" lon="15.6033535004">
        <ele>0</ele>
        <time>2013-05-01T11:35:56Z</time>
      </trkpt>
      <trkpt lat="60.028968811" lon="15.6032142639">
        <ele>0</ele>
        <time>2013-05-01T11:35:57Z</time>
      </trkpt>
      <trkpt lat="60.0290565491" lon="15.603014946">
        <ele>0</ele>
        <time>2013-05-01T11:35:59Z</time>
      </trkpt>
      <trkpt lat="60.0291252136" lon="15.602845192">
        <ele>0</ele>
        <time>2013-05-01T11:36:00Z</time>
      </trkpt>
      <trkpt lat="60.0291748047" lon="15.6027317047">
        <ele>0</ele>
        <time>2013-05-01T11:36:01Z</time>
      </trkpt>
      <trkpt lat="60.0292243958" lon="15.6026172638">
        <ele>0</ele>
        <time>2013-05-01T11:36:02Z</time>
      </trkpt>
      <trkpt lat="60.0292778015" lon="15.6025085449">
        <ele>0</ele>
        <time>2013-05-01T11:36:03Z</time>
      </trkpt>
      <trkpt lat="60.029335022" lon="15.6023683548">
        <ele>0</ele>
        <time>2013-05-01T11:36:04Z</time>
      </trkpt>
      <trkpt lat="60.0293960571" lon="15.6022348404">
        <ele>0</ele>
        <time>2013-05-01T11:36:05Z</time>
      </trkpt>
      <trkpt lat="60.0294494629" lon="15.6021165848">
        <ele>0</ele>
        <time>2013-05-01T11:36:06Z</time>
      </trkpt>
      <trkpt lat="60.0295066833" lon="15.6019868851">
        <ele>0</ele>
        <time>2013-05-01T11:36:07Z</time>
      </trkpt>
      <trkpt lat="60.0298995972" lon="15.6011018753">
        <ele>0</ele>
        <time>2013-05-01T11:36:14Z</time>
      </trkpt>
      <trkpt lat="60.0299415588" lon="15.6009979248">
        <ele>0</ele>
        <time>2013-05-01T11:36:15Z</time>
      </trkpt>
      <trkpt lat="60.0300064087" lon="15.6008653641">
        <ele>0</ele>
        <time>2013-05-01T11:36:16Z</time>
      </trkpt>
      <trkpt lat="60.0300636292" lon="15.6007328033">
        <ele>0</ele>
        <time>2013-05-01T11:36:17Z</time>
      </trkpt>
      <trkpt lat="60.0301589966" lon="15.6005144119">
        <ele>0</ele>
        <time>2013-05-01T11:36:19Z</time>
      </trkpt>
      <trkpt lat="60.0302276611" lon="15.6003599167">
        <ele>0</ele>
        <time>2013-05-01T11:36:20Z</time>
      </trkpt>
      <trkpt lat="60.0303344727" lon="15.6001157761">
        <ele>0</ele>
        <time>2013-05-01T11:36:22Z</time>
      </trkpt>
      <trkpt lat="60.030380249" lon="15.6000137329">
        <ele>0</ele>
        <time>2013-05-01T11:36:23Z</time>
      </trkpt>
      <trkpt lat="60.0304489136" lon="15.599855423">
        <ele>0</ele>
        <time>2013-05-01T11:36:24Z</time>
      </trkpt>
      <trkpt lat="60.0305595398" lon="15.599603653">
        <ele>0</ele>
        <time>2013-05-01T11:36:26Z</time>
      </trkpt>
      <trkpt lat="60.0306167603" lon="15.5994729996">
        <ele>0</ele>
        <time>2013-05-01T11:36:27Z</time>
      </trkpt>
      <trkpt lat="60.0308914185" lon="15.5988368988">
        <ele>0</ele>
        <time>2013-05-01T11:36:32Z</time>
      </trkpt>
      <trkpt lat="60.03099823" lon="15.5985908508">
        <ele>0</ele>
        <time>2013-05-01T11:36:34Z</time>
      </trkpt>
      <trkpt lat="60.0311012268" lon="15.5983524323">
        <ele>0</ele>
        <time>2013-05-01T11:36:36Z</time>
      </trkpt>
      <trkpt lat="60.031162262" lon="15.5982170105">
        <ele>0</ele>
        <time>2013-05-01T11:36:37Z</time>
      </trkpt>
      <trkpt lat="60.0314216614" lon="15.5976066589">
        <ele>0</ele>
        <time>2013-05-01T11:36:42Z</time>
      </trkpt>
      <trkpt lat="60.0314750671" lon="15.5974731445">
        <ele>0</ele>
        <time>2013-05-01T11:36:43Z</time>
      </trkpt>
      <trkpt lat="60.0315208435" lon="15.5973501205">
        <ele>0</ele>
        <time>2013-05-01T11:36:44Z</time>
      </trkpt>
      <trkpt lat="60.0315742493" lon="15.5972242355">
        <ele>0</ele>
        <time>2013-05-01T11:36:45Z</time>
      </trkpt>
      <trkpt lat="60.0318260193" lon="15.5965919495">
        <ele>0</ele>
        <time>2013-05-01T11:36:50Z</time>
      </trkpt>
      <trkpt lat="60.0318756104" lon="15.5964670181">
        <ele>0</ele>
        <time>2013-05-01T11:36:51Z</time>
      </trkpt>
      <trkpt lat="60.0320243835" lon="15.5960731506">
        <ele>0</ele>
        <time>2013-05-01T11:36:54Z</time>
      </trkpt>
      <trkpt lat="60.0320701599" lon="15.5959405899">
        <ele>0</ele>
        <time>2013-05-01T11:36:55Z</time>
      </trkpt>
      <trkpt lat="60.032119751" lon="15.5958042145">
        <ele>0</ele>
        <time>2013-05-01T11:36:56Z</time>
      </trkpt>
      <trkpt lat="60.0322227478" lon="15.5955238342">
        <ele>0</ele>
        <time>2013-05-01T11:36:58Z</time>
      </trkpt>
      <trkpt lat="60.0322570801" lon="15.5954418182">
        <ele>0</ele>
        <time>2013-05-01T11:36:59Z</time>
      </trkpt>
      <trkpt lat="60.032333374" lon="15.595243454">
        <ele>0</ele>
        <time>2013-05-01T11:37:00Z</time>
      </trkpt>
      <trkpt lat="60.0325393677" lon="15.5946836472">
        <ele>0</ele>
        <time>2013-05-01T11:37:04Z</time>
      </trkpt>
      <trkpt lat="60.0325927734" lon="15.5945243835">
        <ele>0</ele>
        <time>2013-05-01T11:37:05Z</time>
      </trkpt>
      <trkpt lat="60.0326461792" lon="15.5943813324">
        <ele>0</ele>
        <time>2013-05-01T11:37:06Z</time>
      </trkpt>
      <trkpt lat="60.0327033997" lon="15.5942296982">
        <ele>0</ele>
        <time>2013-05-01T11:37:07Z</time>
      </trkpt>
      <trkpt lat="60.0328636169" lon="15.5937862396">
        <ele>0</ele>
        <time>2013-05-01T11:37:10Z</time>
      </trkpt>
      <trkpt lat="60.0329017639" lon="15.5936927795">
        <ele>0</ele>
        <time>2013-05-01T11:37:11Z</time>
      </trkpt>
      <trkpt lat="60.0329742432" lon="15.5934944153">
        <ele>0</ele>
        <time>2013-05-01T11:37:12Z</time>
      </trkpt>
      <trkpt lat="60.0331268311" lon="15.593091011">
        <ele>0</ele>
        <time>2013-05-01T11:37:15Z</time>
      </trkpt>
      <trkpt lat="60.0331878662" lon="15.592924118">
        <ele>0</ele>
        <time>2013-05-01T11:37:16Z</time>
      </trkpt>
      <trkpt lat="60.033290863" lon="15.5926151276">
        <ele>0</ele>
        <time>2013-05-01T11:37:18Z</time>
      </trkpt>
      <trkpt lat="60.0333366394" lon="15.592505455">
        <ele>0</ele>
        <time>2013-05-01T11:37:19Z</time>
      </trkpt>
      <trkpt lat="60.0334014893" lon="15.5923156738">
        <ele>0</ele>
        <time>2013-05-01T11:37:20Z</time>
      </trkpt>
      <trkpt lat="60.0335083008" lon="15.5920314789">
        <ele>0</ele>
        <time>2013-05-01T11:37:22Z</time>
      </trkpt>
      <trkpt lat="60.0335540771" lon="15.5919179916">
        <ele>0</ele>
        <time>2013-05-01T11:37:23Z</time>
      </trkpt>
      <trkpt lat="60.0337219238" lon="15.5914564133">
        <ele>0</ele>
        <time>2013-05-01T11:37:26Z</time>
      </trkpt>
      <trkpt lat="60.0337791443" lon="15.5913066864">
        <ele>0</ele>
        <time>2013-05-01T11:37:27Z</time>
      </trkpt>
      <trkpt lat="60.0339431763" lon="15.5908632278">
        <ele>0</ele>
        <time>2013-05-01T11:37:30Z</time>
      </trkpt>
      <trkpt lat="60.0339736938" lon="15.5907754898">
        <ele>0</ele>
        <time>2013-05-01T11:37:31Z</time>
      </trkpt>
      <trkpt lat="60.0340461731" lon="15.5905780792">
        <ele>0</ele>
        <time>2013-05-01T11:37:32Z</time>
      </trkpt>
      <trkpt lat="60.0342483521" lon="15.5900201797">
        <ele>0</ele>
        <time>2013-05-01T11:37:36Z</time>
      </trkpt>
      <trkpt lat="60.0343055725" lon="15.5898628235">
        <ele>0</ele>
        <time>2013-05-01T11:37:37Z</time>
      </trkpt>
      <trkpt lat="60.0346183777" lon="15.5890111923">
        <ele>0</ele>
        <time>2013-05-01T11:37:43Z</time>
      </trkpt>
      <trkpt lat="60.034778595" lon="15.5885848999">
        <ele>0</ele>
        <time>2013-05-01T11:37:46Z</time>
      </trkpt>
      <trkpt lat="60.0348052979" lon="15.5885152817">
        <ele>0</ele>
        <time>2013-05-01T11:37:47Z</time>
      </trkpt>
      <trkpt lat="60.0349884033" lon="15.5880012512">
        <ele>0</ele>
        <time>2013-05-01T11:37:50Z</time>
      </trkpt>
      <trkpt lat="60.0350265503" lon="15.5879030228">
        <ele>0</ele>
        <time>2013-05-01T11:37:51Z</time>
      </trkpt>
      <trkpt lat="60.0351524353" lon="15.5875511169">
        <ele>0</ele>
        <time>2013-05-01T11:37:53Z</time>
      </trkpt>
      <trkpt lat="60.0352058411" lon="15.5873985291">
        <ele>0</ele>
        <time>2013-05-01T11:37:54Z</time>
      </trkpt>
      <trkpt lat="60.0352478027" lon="15.5872850418">
        <ele>0</ele>
        <time>2013-05-01T11:37:55Z</time>
      </trkpt>
      <trkpt lat="60.0353050232" lon="15.5871286392">
        <ele>0</ele>
        <time>2013-05-01T11:37:56Z</time>
      </trkpt>
      <trkpt lat="60.035358429" lon="15.586977005">
        <ele>0</ele>
        <time>2013-05-01T11:37:57Z</time>
      </trkpt>
      <trkpt lat="60.0354537964" lon="15.5867242813">
        <ele>0</ele>
        <time>2013-05-01T11:37:59Z</time>
      </trkpt>
      <trkpt lat="60.0355186462" lon="15.5865535736">
        <ele>0</ele>
        <time>2013-05-01T11:38:00Z</time>
      </trkpt>
      <trkpt lat="60.0355682373" lon="15.5864219666">
        <ele>0</ele>
        <time>2013-05-01T11:38:01Z</time>
      </trkpt>
      <trkpt lat="60.0356216431" lon="15.586271286">
        <ele>0</ele>
        <time>2013-05-01T11:38:02Z</time>
      </trkpt>
      <trkpt lat="60.0356636047" lon="15.5861597061">
        <ele>0</ele>
        <time>2013-05-01T11:38:03Z</time>
      </trkpt>
      <trkpt lat="60.0357246399" lon="15.5860023499">
        <ele>0</ele>
        <time>2013-05-01T11:38:04Z</time>
      </trkpt>
      <trkpt lat="60.0360336304" lon="15.585144043">
        <ele>0</ele>
        <time>2013-05-01T11:38:10Z</time>
      </trkpt>
      <trkpt lat="60.036075592" lon="15.5850315094">
        <ele>0</ele>
        <time>2013-05-01T11:38:11Z</time>
      </trkpt>
      <trkpt lat="60.0361404419" lon="15.5848579407">
        <ele>0</ele>
        <time>2013-05-01T11:38:12Z</time>
      </trkpt>
      <trkpt lat="60.036190033" lon="15.5847177505">
        <ele>0</ele>
        <time>2013-05-01T11:38:13Z</time>
      </trkpt>
      <trkpt lat="60.0362434387" lon="15.5845737457">
        <ele>0</ele>
        <time>2013-05-01T11:38:14Z</time>
      </trkpt>
      <trkpt lat="60.0362854004" lon="15.5844640732">
        <ele>0</ele>
        <time>2013-05-01T11:38:15Z</time>
      </trkpt>
      <trkpt lat="60.0363426208" lon="15.5843114853">
        <ele>0</ele>
        <time>2013-05-01T11:38:16Z</time>
      </trkpt>
      <trkpt lat="60.0363998413" lon="15.5841464996">
        <ele>0</ele>
        <time>2013-05-01T11:38:17Z</time>
      </trkpt>
      <trkpt lat="60.0364532471" lon="15.5840063095">
        <ele>0</ele>
        <time>2013-05-01T11:38:18Z</time>
      </trkpt>
      <trkpt lat="60.0364952087" lon="15.5838975906">
        <ele>0</ele>
        <time>2013-05-01T11:38:19Z</time>
      </trkpt>
      <trkpt lat="60.0365600586" lon="15.5837221146">
        <ele>0</ele>
        <time>2013-05-01T11:38:20Z</time>
      </trkpt>
      <trkpt lat="60.0366096497" lon="15.5835905075">
        <ele>0</ele>
        <time>2013-05-01T11:38:21Z</time>
      </trkpt>
      <trkpt lat="60.0366630554" lon="15.5834465027">
        <ele>0</ele>
        <time>2013-05-01T11:38:22Z</time>
      </trkpt>
      <trkpt lat="60.0367050171" lon="15.5833349228">
        <ele>0</ele>
        <time>2013-05-01T11:38:23Z</time>
      </trkpt>
      <trkpt lat="60.0367698669" lon="15.5831680298">
        <ele>0</ele>
        <time>2013-05-01T11:38:24Z</time>
      </trkpt>
      <trkpt lat="60.0368309021" lon="15.583029747">
        <ele>0</ele>
        <time>2013-05-01T11:38:25Z</time>
      </trkpt>
      <trkpt lat="60.0368843079" lon="15.5829105377">
        <ele>0</ele>
        <time>2013-05-01T11:38:26Z</time>
      </trkpt>
      <trkpt lat="60.0369377136" lon="15.5827865601">
        <ele>0</ele>
        <time>2013-05-01T11:38:27Z</time>
      </trkpt>
      <trkpt lat="60.0369987488" lon="15.5826482773">
        <ele>0</ele>
        <time>2013-05-01T11:38:28Z</time>
      </trkpt>
      <trkpt lat="60.0370635986" lon="15.5825109482">
        <ele>0</ele>
        <time>2013-05-01T11:38:29Z</time>
      </trkpt>
      <trkpt lat="60.0371170044" lon="15.5823860168">
        <ele>0</ele>
        <time>2013-05-01T11:38:30Z</time>
      </trkpt>
      <trkpt lat="60.0371627808" lon="15.5822925568">
        <ele>0</ele>
        <time>2013-05-01T11:38:31Z</time>
      </trkpt>
      <trkpt lat="60.03723526" lon="15.5821409225">
        <ele>0</ele>
        <time>2013-05-01T11:38:32Z</time>
      </trkpt>
      <trkpt lat="60.0372886658" lon="15.5820293427">
        <ele>0</ele>
        <time>2013-05-01T11:38:33Z</time>
      </trkpt>
      <trkpt lat="60.0373458862" lon="15.5819168091">
        <ele>0</ele>
        <time>2013-05-01T11:38:34Z</time>
      </trkpt>
      <trkpt lat="60.037399292" lon="15.5818195343">
        <ele>0</ele>
        <time>2013-05-01T11:38:35Z</time>
      </trkpt>
      <trkpt lat="60.0375328064" lon="15.5815763474">
        <ele>0</ele>
        <time>2013-05-01T11:38:37Z</time>
      </trkpt>
      <trkpt lat="60.0375976562" lon="15.5814676285">
        <ele>0</ele>
        <time>2013-05-01T11:38:38Z</time>
      </trkpt>
      <trkpt lat="60.0376434326" lon="15.5813875198">
        <ele>0</ele>
        <time>2013-05-01T11:38:39Z</time>
      </trkpt>
      <trkpt lat="60.037979126" lon="15.5808553696">
        <ele>0</ele>
        <time>2013-05-01T11:38:44Z</time>
      </trkpt>
      <trkpt lat="60.0383224487" lon="15.5803766251">
        <ele>0</ele>
        <time>2013-05-01T11:38:49Z</time>
      </trkpt>
      <trkpt lat="60.038394928" lon="15.5802841187">
        <ele>0</ele>
        <time>2013-05-01T11:38:50Z</time>
      </trkpt>
      <trkpt lat="60.0384521484" lon="15.5802106857">
        <ele>0</ele>
        <time>2013-05-01T11:38:51Z</time>
      </trkpt>
      <trkpt lat="60.0385398865" lon="15.5801048279">
        <ele>0</ele>
        <time>2013-05-01T11:38:52Z</time>
      </trkpt>
      <trkpt lat="60.038608551" lon="15.5800199509">
        <ele>0</ele>
        <time>2013-05-01T11:38:53Z</time>
      </trkpt>
      <trkpt lat="60.0386810303" lon="15.5799379349">
        <ele>0</ele>
        <time>2013-05-01T11:38:54Z</time>
      </trkpt>
      <trkpt lat="60.0387420654" lon="15.5798711777">
        <ele>0</ele>
        <time>2013-05-01T11:38:55Z</time>
      </trkpt>
      <trkpt lat="60.0388298035" lon="15.579782486">
        <ele>0</ele>
        <time>2013-05-01T11:38:56Z</time>
      </trkpt>
      <trkpt lat="60.0389137268" lon="15.5796976089">
        <ele>0</ele>
        <time>2013-05-01T11:38:57Z</time>
      </trkpt>
      <trkpt lat="60.0389862061" lon="15.579627037">
        <ele>0</ele>
        <time>2013-05-01T11:38:58Z</time>
      </trkpt>
      <trkpt lat="60.0392150879" lon="15.579410553">
        <ele>0</ele>
        <time>2013-05-01T11:39:01Z</time>
      </trkpt>
      <trkpt lat="60.0396003723" lon="15.5790882111">
        <ele>0</ele>
        <time>2013-05-01T11:39:06Z</time>
      </trkpt>
      <trkpt lat="60.0396766663" lon="15.5790300369">
        <ele>0</ele>
        <time>2013-05-01T11:39:07Z</time>
      </trkpt>
      <trkpt lat="60.039768219" lon="15.5789661407">
        <ele>0</ele>
        <time>2013-05-01T11:39:08Z</time>
      </trkpt>
      <trkpt lat="60.0398483276" lon="15.5789108276">
        <ele>0</ele>
        <time>2013-05-01T11:39:09Z</time>
      </trkpt>
      <trkpt lat="60.0399208069" lon="15.5788593292">
        <ele>0</ele>
        <time>2013-05-01T11:39:10Z</time>
      </trkpt>
      <trkpt lat="60.0399856567" lon="15.5788145065">
        <ele>0</ele>
        <time>2013-05-01T11:39:11Z</time>
      </trkpt>
      <trkpt lat="60.0400886536" lon="15.5787477493">
        <ele>0</ele>
        <time>2013-05-01T11:39:12Z</time>
      </trkpt>
      <trkpt lat="60.0401725769" lon="15.5786943436">
        <ele>0</ele>
        <time>2013-05-01T11:39:13Z</time>
      </trkpt>
      <trkpt lat="60.0403175354" lon="15.5786008835">
        <ele>0</ele>
        <time>2013-05-01T11:39:15Z</time>
      </trkpt>
      <trkpt lat="60.0404167175" lon="15.5785427094">
        <ele>0</ele>
        <time>2013-05-01T11:39:16Z</time>
      </trkpt>
      <trkpt lat="60.0405082703" lon="15.5784864426">
        <ele>0</ele>
        <time>2013-05-01T11:39:17Z</time>
      </trkpt>
      <trkpt lat="60.0405845642" lon="15.5784406662">
        <ele>0</ele>
        <time>2013-05-01T11:39:18Z</time>
      </trkpt>
      <trkpt lat="60.0406532288" lon="15.5784025192">
        <ele>0</ele>
        <time>2013-05-01T11:39:19Z</time>
      </trkpt>
      <trkpt lat="60.0407524109" lon="15.5783500671">
        <ele>0</ele>
        <time>2013-05-01T11:39:20Z</time>
      </trkpt>
      <trkpt lat="60.0408363342" lon="15.5783052444">
        <ele>0</ele>
        <time>2013-05-01T11:39:21Z</time>
      </trkpt>
      <trkpt lat="60.0409202576" lon="15.5782546997">
        <ele>0</ele>
        <time>2013-05-01T11:39:22Z</time>
      </trkpt>
      <trkpt lat="60.0410957336" lon="15.5781507492">
        <ele>0</ele>
        <time>2013-05-01T11:39:24Z</time>
      </trkpt>
      <trkpt lat="60.0411758423" lon="15.5781021118">
        <ele>0</ele>
        <time>2013-05-01T11:39:25Z</time>
      </trkpt>
      <trkpt lat="60.0412559509" lon="15.5780582428">
        <ele>0</ele>
        <time>2013-05-01T11:39:26Z</time>
      </trkpt>
      <trkpt lat="60.0414390564" lon="15.5779466629">
        <ele>0</ele>
        <time>2013-05-01T11:39:28Z</time>
      </trkpt>
      <trkpt lat="60.0415382385" lon="15.5778913498">
        <ele>0</ele>
        <time>2013-05-01T11:39:29Z</time>
      </trkpt>
      <trkpt lat="60.0416297913" lon="15.5778388977">
        <ele>0</ele>
        <time>2013-05-01T11:39:30Z</time>
      </trkpt>
      <trkpt lat="60.0417022705" lon="15.577796936">
        <ele>0</ele>
        <time>2013-05-01T11:39:31Z</time>
      </trkpt>
      <trkpt lat="60.0418128967" lon="15.5777301788">
        <ele>0</ele>
        <time>2013-05-01T11:39:32Z</time>
      </trkpt>
      <trkpt lat="60.0419082642" lon="15.577673912">
        <ele>0</ele>
        <time>2013-05-01T11:39:33Z</time>
      </trkpt>
      <trkpt lat="60.0419921875" lon="15.5776224136">
        <ele>0</ele>
        <time>2013-05-01T11:39:34Z</time>
      </trkpt>
      <trkpt lat="60.0420722961" lon="15.5775709152">
        <ele>0</ele>
        <time>2013-05-01T11:39:35Z</time>
      </trkpt>
      <trkpt lat="60.0421714783" lon="15.5775108337">
        <ele>0</ele>
        <time>2013-05-01T11:39:36Z</time>
      </trkpt>
      <trkpt lat="60.042350769" lon="15.5774021149">
        <ele>0</ele>
        <time>2013-05-01T11:39:38Z</time>
      </trkpt>
      <trkpt lat="60.0424232483" lon="15.5773591995">
        <ele>0</ele>
        <time>2013-05-01T11:39:39Z</time>
      </trkpt>
      <trkpt lat="60.0425300598" lon="15.5772953033">
        <ele>0</ele>
        <time>2013-05-01T11:39:40Z</time>
      </trkpt>
      <trkpt lat="60.0426216125" lon="15.5772380829">
        <ele>0</ele>
        <time>2013-05-01T11:39:41Z</time>
      </trkpt>
      <trkpt lat="60.0427207947" lon="15.577173233">
        <ele>0</ele>
        <time>2013-05-01T11:39:42Z</time>
      </trkpt>
      <trkpt lat="60.0428924561" lon="15.5770540237">
        <ele>0</ele>
        <time>2013-05-01T11:39:44Z</time>
      </trkpt>
      <trkpt lat="60.0431671143" lon="15.5768470764">
        <ele>0</ele>
        <time>2013-05-01T11:39:47Z</time>
      </trkpt>
      <trkpt lat="60.0432739258" lon="15.5767641068">
        <ele>0</ele>
        <time>2013-05-01T11:39:48Z</time>
      </trkpt>
      <trkpt lat="60.0433616638" lon="15.5766944885">
        <ele>0</ele>
        <time>2013-05-01T11:39:49Z</time>
      </trkpt>
      <trkpt lat="60.0434608459" lon="15.5766162872">
        <ele>0</ele>
        <time>2013-05-01T11:39:50Z</time>
      </trkpt>
      <trkpt lat="60.0435218811" lon="15.5765638351">
        <ele>0</ele>
        <time>2013-05-01T11:39:51Z</time>
      </trkpt>
      <trkpt lat="60.0436706543" lon="15.5764341354">
        <ele>0</ele>
        <time>2013-05-01T11:39:52Z</time>
      </trkpt>
      <trkpt lat="60.0437278748" lon="15.5763807297">
        <ele>0</ele>
        <time>2013-05-01T11:39:53Z</time>
      </trkpt>
      <trkpt lat="60.043838501" lon="15.5762777328">
        <ele>0</ele>
        <time>2013-05-01T11:39:54Z</time>
      </trkpt>
      <trkpt lat="60.043926239" lon="15.5761957169">
        <ele>0</ele>
        <time>2013-05-01T11:39:55Z</time>
      </trkpt>
      <trkpt lat="60.0441017151" lon="15.5760221481">
        <ele>0</ele>
        <time>2013-05-01T11:39:57Z</time>
      </trkpt>
      <trkpt lat="60.0441856384" lon="15.5759391785">
        <ele>0</ele>
        <time>2013-05-01T11:39:58Z</time>
      </trkpt>
      <trkpt lat="60.0442733765" lon="15.5758466721">
        <ele>0</ele>
        <time>2013-05-01T11:40:01Z</time>
      </trkpt>
      <trkpt lat="60.0445556641" lon="15.5755414963">
        <ele>0</ele>
        <time>2013-05-01T11:40:03Z</time>
      </trkpt>
      <trkpt lat="60.0446014404" lon="15.5754909515">
        <ele>0</ele>
        <time>2013-05-01T11:40:04Z</time>
      </trkpt>
      <trkpt lat="60.0447006226" lon="15.575378418">
        <ele>0</ele>
        <time>2013-05-01T11:40:06Z</time>
      </trkpt>
      <trkpt lat="60.0450172424" lon="15.5749816895">
        <ele>0</ele>
        <time>2013-05-01T11:40:09Z</time>
      </trkpt>
      <trkpt lat="60.0450897217" lon="15.5748853683">
        <ele>0</ele>
        <time>2013-05-01T11:40:10Z</time>
      </trkpt>
      <trkpt lat="60.0451622009" lon="15.5747909546">
        <ele>0</ele>
        <time>2013-05-01T11:40:11Z</time>
      </trkpt>
      <trkpt lat="60.0452041626" lon="15.5747337341">
        <ele>0</ele>
        <time>2013-05-01T11:40:12Z</time>
      </trkpt>
      <trkpt lat="60.0454978943" lon="15.5743274689">
        <ele>0</ele>
        <time>2013-05-01T11:40:16Z</time>
      </trkpt>
      <trkpt lat="60.0455818176" lon="15.5742073059">
        <ele>0</ele>
        <time>2013-05-01T11:40:17Z</time>
      </trkpt>
      <trkpt lat="60.0457267761" lon="15.5739946365">
        <ele>0</ele>
        <time>2013-05-01T11:40:19Z</time>
      </trkpt>
      <trkpt lat="60.0458526611" lon="15.5737953186">
        <ele>0</ele>
        <time>2013-05-01T11:40:21Z</time>
      </trkpt>
      <trkpt lat="60.0459136963" lon="15.5737009048">
        <ele>0</ele>
        <time>2013-05-01T11:40:22Z</time>
      </trkpt>
      <trkpt lat="60.0459747314" lon="15.573597908">
        <ele>0</ele>
        <time>2013-05-01T11:40:23Z</time>
      </trkpt>
      <trkpt lat="60.0460205078" lon="15.5735254288">
        <ele>0</ele>
        <time>2013-05-01T11:40:24Z</time>
      </trkpt>
      <trkpt lat="60.0461006165" lon="15.5733880997">
        <ele>0</ele>
        <time>2013-05-01T11:40:25Z</time>
      </trkpt>
      <trkpt lat="60.0462608337" lon="15.5731143951">
        <ele>0</ele>
        <time>2013-05-01T11:40:28Z</time>
      </trkpt>
      <trkpt lat="60.0463256836" lon="15.5729970932">
        <ele>0</ele>
        <time>2013-05-01T11:40:29Z</time>
      </trkpt>
      <trkpt lat="60.0463981628" lon="15.5728731155">
        <ele>0</ele>
        <time>2013-05-01T11:40:30Z</time>
      </trkpt>
      <trkpt lat="60.0464553833" lon="15.5727643967">
        <ele>0</ele>
        <time>2013-05-01T11:40:31Z</time>
      </trkpt>
      <trkpt lat="60.0465087891" lon="15.5726671219">
        <ele>0</ele>
        <time>2013-05-01T11:40:32Z</time>
      </trkpt>
      <trkpt lat="60.0465698242" lon="15.5725469589">
        <ele>0</ele>
        <time>2013-05-01T11:40:33Z</time>
      </trkpt>
      <trkpt lat="60.0467338562" lon="15.5722236633">
        <ele>0</ele>
        <time>2013-05-01T11:40:36Z</time>
      </trkpt>
      <trkpt lat="60.0467796326" lon="15.5721292496">
        <ele>0</ele>
        <time>2013-05-01T11:40:37Z</time>
      </trkpt>
      <trkpt lat="60.046836853" lon="15.5720157623">
        <ele>0</ele>
        <time>2013-05-01T11:40:38Z</time>
      </trkpt>
      <trkpt lat="60.0468940735" lon="15.5719156265">
        <ele>0</ele>
        <time>2013-05-01T11:40:39Z</time>
      </trkpt>
      <trkpt lat="60.0469360352" lon="15.5718278885">
        <ele>0</ele>
        <time>2013-05-01T11:40:40Z</time>
      </trkpt>
      <trkpt lat="60.047203064" lon="15.5712842941">
        <ele>0</ele>
        <time>2013-05-01T11:40:45Z</time>
      </trkpt>
      <trkpt lat="60.0472984314" lon="15.5710725784">
        <ele>0</ele>
        <time>2013-05-01T11:40:47Z</time>
      </trkpt>
      <trkpt lat="60.0473518372" lon="15.5709590912">
        <ele>0</ele>
        <time>2013-05-01T11:40:48Z</time>
      </trkpt>
      <trkpt lat="60.0475578308" lon="15.5704479218">
        <ele>0</ele>
        <time>2013-05-01T11:40:52Z</time>
      </trkpt>
      <trkpt lat="60.0476112366" lon="15.5703191757">
        <ele>0</ele>
        <time>2013-05-01T11:40:53Z</time>
      </trkpt>
      <trkpt lat="60.0477714539" lon="15.5699224472">
        <ele>0</ele>
        <time>2013-05-01T11:40:56Z</time>
      </trkpt>
      <trkpt lat="60.0478134155" lon="15.5698156357">
        <ele>0</ele>
        <time>2013-05-01T11:40:57Z</time>
      </trkpt>
      <trkpt lat="60.0478553772" lon="15.5697059631">
        <ele>0</ele>
        <time>2013-05-01T11:40:58Z</time>
      </trkpt>
      <trkpt lat="60.0479164124" lon="15.5695466995">
        <ele>0</ele>
        <time>2013-05-01T11:40:59Z</time>
      </trkpt>
      <trkpt lat="60.0479660034" lon="15.5694198608">
        <ele>0</ele>
        <time>2013-05-01T11:41:00Z</time>
      </trkpt>
      <trkpt lat="60.0480499268" lon="15.569190979">
        <ele>0</ele>
        <time>2013-05-01T11:41:02Z</time>
      </trkpt>
      <trkpt lat="60.048248291" lon="15.5686569214">
        <ele>0</ele>
        <time>2013-05-01T11:41:06Z</time>
      </trkpt>
      <trkpt lat="60.0484275818" lon="15.5681762695">
        <ele>0</ele>
        <time>2013-05-01T11:41:10Z</time>
      </trkpt>
      <trkpt lat="60.0484809875" lon="15.5680294037">
        <ele>0</ele>
        <time>2013-05-01T11:41:11Z</time>
      </trkpt>
      <trkpt lat="60.0485839844" lon="15.5677623749">
        <ele>0</ele>
        <time>2013-05-01T11:41:13Z</time>
      </trkpt>
      <trkpt lat="60.048614502" lon="15.5676708221">
        <ele>0</ele>
        <time>2013-05-01T11:41:14Z</time>
      </trkpt>
      <trkpt lat="60.0486717224" lon="15.5675230026">
        <ele>0</ele>
        <time>2013-05-01T11:41:15Z</time>
      </trkpt>
      <trkpt lat="60.0487174988" lon="15.5673942566">
        <ele>0</ele>
        <time>2013-05-01T11:41:16Z</time>
      </trkpt>
      <trkpt lat="60.0487556458" lon="15.5672941208">
        <ele>0</ele>
        <time>2013-05-01T11:41:17Z</time>
      </trkpt>
      <trkpt lat="60.0488014221" lon="15.5671768188">
        <ele>0</ele>
        <time>2013-05-01T11:41:18Z</time>
      </trkpt>
      <trkpt lat="60.0488548279" lon="15.5670261383">
        <ele>0</ele>
        <time>2013-05-01T11:41:19Z</time>
      </trkpt>
      <trkpt lat="60.0489006042" lon="15.5668964386">
        <ele>0</ele>
        <time>2013-05-01T11:41:20Z</time>
      </trkpt>
      <trkpt lat="60.0489501953" lon="15.5667724609">
        <ele>0</ele>
        <time>2013-05-01T11:41:21Z</time>
      </trkpt>
      <trkpt lat="60.0489807129" lon="15.5666894913">
        <ele>0</ele>
        <time>2013-05-01T11:41:22Z</time>
      </trkpt>
      <trkpt lat="60.0490913391" lon="15.5663928986">
        <ele>0</ele>
        <time>2013-05-01T11:41:24Z</time>
      </trkpt>
      <trkpt lat="60.0491371155" lon="15.5662670135">
        <ele>0</ele>
        <time>2013-05-01T11:41:25Z</time>
      </trkpt>
      <trkpt lat="60.0491752625" lon="15.5661668777">
        <ele>0</ele>
        <time>2013-05-01T11:41:26Z</time>
      </trkpt>
      <trkpt lat="60.0492248535" lon="15.5660276413">
        <ele>0</ele>
        <time>2013-05-01T11:41:27Z</time>
      </trkpt>
      <trkpt lat="60.049282074" lon="15.5658769608">
        <ele>0</ele>
        <time>2013-05-01T11:41:28Z</time>
      </trkpt>
      <trkpt lat="60.0493278503" lon="15.5657558441">
        <ele>0</ele>
        <time>2013-05-01T11:41:29Z</time>
      </trkpt>
      <trkpt lat="60.049369812" lon="15.5656414032">
        <ele>0</ele>
        <time>2013-05-01T11:41:30Z</time>
      </trkpt>
      <trkpt lat="60.049621582" lon="15.5650005341">
        <ele>0</ele>
        <time>2013-05-01T11:41:35Z</time>
      </trkpt>
      <trkpt lat="60.0497322083" lon="15.5647478104">
        <ele>0</ele>
        <time>2013-05-01T11:41:37Z</time>
      </trkpt>
      <trkpt lat="60.0498352051" lon="15.564499855">
        <ele>0</ele>
        <time>2013-05-01T11:41:39Z</time>
      </trkpt>
      <trkpt lat="60.0498886108" lon="15.5643854141">
        <ele>0</ele>
        <time>2013-05-01T11:41:40Z</time>
      </trkpt>
      <trkpt lat="60.0499420166" lon="15.5642738342">
        <ele>0</ele>
        <time>2013-05-01T11:41:41Z</time>
      </trkpt>
      <trkpt lat="60.0499839783" lon="15.5641822815">
        <ele>0</ele>
        <time>2013-05-01T11:41:42Z</time>
      </trkpt>
      <trkpt lat="60.0501098633" lon="15.5639257431">
        <ele>0</ele>
        <time>2013-05-01T11:41:44Z</time>
      </trkpt>
      <trkpt lat="60.050163269" lon="15.5638160706">
        <ele>0</ele>
        <time>2013-05-01T11:41:45Z</time>
      </trkpt>
      <trkpt lat="60.0502090454" lon="15.5637254715">
        <ele>0</ele>
        <time>2013-05-01T11:41:46Z</time>
      </trkpt>
      <trkpt lat="60.0502662659" lon="15.5636072159">
        <ele>0</ele>
        <time>2013-05-01T11:41:47Z</time>
      </trkpt>
      <trkpt lat="60.0503387451" lon="15.5634698868">
        <ele>0</ele>
        <time>2013-05-01T11:41:48Z</time>
      </trkpt>
      <trkpt lat="60.0503959656" lon="15.5633554459">
        <ele>0</ele>
        <time>2013-05-01T11:41:49Z</time>
      </trkpt>
      <trkpt lat="60.0504417419" lon="15.5632734299">
        <ele>0</ele>
        <time>2013-05-01T11:41:50Z</time>
      </trkpt>
      <trkpt lat="60.0505180359" lon="15.5631408691">
        <ele>0</ele>
        <time>2013-05-01T11:41:51Z</time>
      </trkpt>
      <trkpt lat="60.050579071" lon="15.5630331039">
        <ele>0</ele>
        <time>2013-05-01T11:41:52Z</time>
      </trkpt>
      <trkpt lat="60.0506668091" lon="15.5628795624">
        <ele>0</ele>
        <time>2013-05-01T11:41:53Z</time>
      </trkpt>
      <trkpt lat="60.0507202148" lon="15.5627880096">
        <ele>0</ele>
        <time>2013-05-01T11:41:54Z</time>
      </trkpt>
      <trkpt lat="60.0507926941" lon="15.5626678467">
        <ele>0</ele>
        <time>2013-05-01T11:41:55Z</time>
      </trkpt>
      <trkpt lat="60.0512504578" lon="15.5619459152">
        <ele>0</ele>
        <time>2013-05-01T11:42:02Z</time>
      </trkpt>
      <trkpt lat="60.0513191223" lon="15.5618448257">
        <ele>0</ele>
        <time>2013-05-01T11:42:03Z</time>
      </trkpt>
      <trkpt lat="60.0513877869" lon="15.561750412">
        <ele>0</ele>
        <time>2013-05-01T11:42:04Z</time>
      </trkpt>
      <trkpt lat="60.0514564514" lon="15.5616579056">
        <ele>0</ele>
        <time>2013-05-01T11:42:05Z</time>
      </trkpt>
      <trkpt lat="60.051525116" lon="15.5615653992">
        <ele>0</ele>
        <time>2013-05-01T11:42:06Z</time>
      </trkpt>
      <trkpt lat="60.0518074036" lon="15.5611982346">
        <ele>0</ele>
        <time>2013-05-01T11:42:10Z</time>
      </trkpt>
      <trkpt lat="60.0518722534" lon="15.5611143112">
        <ele>0</ele>
        <time>2013-05-01T11:42:11Z</time>
      </trkpt>
      <trkpt lat="60.0519447327" lon="15.5610198975">
        <ele>0</ele>
        <time>2013-05-01T11:42:12Z</time>
      </trkpt>
      <trkpt lat="60.0520210266" lon="15.5609350204">
        <ele>0</ele>
        <time>2013-05-01T11:42:13Z</time>
      </trkpt>
      <trkpt lat="60.0520935059" lon="15.5608539581">
        <ele>0</ele>
        <time>2013-05-01T11:42:14Z</time>
      </trkpt>
      <trkpt lat="60.0521583557" lon="15.5607738495">
        <ele>0</ele>
        <time>2013-05-01T11:42:15Z</time>
      </trkpt>
      <trkpt lat="60.0522270203" lon="15.5606985092">
        <ele>0</ele>
        <time>2013-05-01T11:42:16Z</time>
      </trkpt>
      <trkpt lat="60.0522994995" lon="15.5606164932">
        <ele>0</ele>
        <time>2013-05-01T11:42:17Z</time>
      </trkpt>
      <trkpt lat="60.0523719788" lon="15.5605392456">
        <ele>0</ele>
        <time>2013-05-01T11:42:18Z</time>
      </trkpt>
      <trkpt lat="60.0524559021" lon="15.5604572296">
        <ele>0</ele>
        <time>2013-05-01T11:42:19Z</time>
      </trkpt>
      <trkpt lat="60.052532196" lon="15.5603780746">
        <ele>0</ele>
        <time>2013-05-01T11:42:20Z</time>
      </trkpt>
      <trkpt lat="60.0527610779" lon="15.5601615906">
        <ele>0</ele>
        <time>2013-05-01T11:42:23Z</time>
      </trkpt>
      <trkpt lat="60.0528411865" lon="15.5600919724">
        <ele>0</ele>
        <time>2013-05-01T11:42:24Z</time>
      </trkpt>
      <trkpt lat="60.0529174805" lon="15.5600261688">
        <ele>0</ele>
        <time>2013-05-01T11:42:25Z</time>
      </trkpt>
      <trkpt lat="60.0529937744" lon="15.559961319">
        <ele>0</ele>
        <time>2013-05-01T11:42:26Z</time>
      </trkpt>
      <trkpt lat="60.0530700684" lon="15.5598993301">
        <ele>0</ele>
        <time>2013-05-01T11:42:27Z</time>
      </trkpt>
      <trkpt lat="60.0531387329" lon="15.5598430634">
        <ele>0</ele>
        <time>2013-05-01T11:42:28Z</time>
      </trkpt>
      <trkpt lat="60.0532188416" lon="15.5597753525">
        <ele>0</ele>
        <time>2013-05-01T11:42:29Z</time>
      </trkpt>
      <trkpt lat="60.0532951355" lon="15.55971241">
        <ele>0</ele>
        <time>2013-05-01T11:42:30Z</time>
      </trkpt>
      <trkpt lat="60.0533714294" lon="15.5596551895">
        <ele>0</ele>
        <time>2013-05-01T11:42:31Z</time>
      </trkpt>
      <trkpt lat="60.0536079407" lon="15.5594778061">
        <ele>0</ele>
        <time>2013-05-01T11:42:34Z</time>
      </trkpt>
      <trkpt lat="60.0536956787" lon="15.559431076">
        <ele>0</ele>
        <time>2013-05-01T11:42:35Z</time>
      </trkpt>
      <trkpt lat="60.0538444519" lon="15.5593309402">
        <ele>0</ele>
        <time>2013-05-01T11:42:37Z</time>
      </trkpt>
      <trkpt lat="60.0542373657" lon="15.5590953827">
        <ele>0</ele>
        <time>2013-05-01T11:42:42Z</time>
      </trkpt>
      <trkpt lat="60.0543212891" lon="15.5590372086">
        <ele>0</ele>
        <time>2013-05-01T11:42:43Z</time>
      </trkpt>
      <trkpt lat="60.054397583" lon="15.5589866638">
        <ele>0</ele>
        <time>2013-05-01T11:42:44Z</time>
      </trkpt>
      <trkpt lat="60.0544815063" lon="15.558927536">
        <ele>0</ele>
        <time>2013-05-01T11:42:45Z</time>
      </trkpt>
      <trkpt lat="60.0545578003" lon="15.5588731766">
        <ele>0</ele>
        <time>2013-05-01T11:42:46Z</time>
      </trkpt>
      <trkpt lat="60.0546417236" lon="15.5588216782">
        <ele>0</ele>
        <time>2013-05-01T11:42:47Z</time>
      </trkpt>
      <trkpt lat="60.054725647" lon="15.5587692261">
        <ele>0</ele>
        <time>2013-05-01T11:42:48Z</time>
      </trkpt>
      <trkpt lat="60.0547981262" lon="15.5587205887">
        <ele>0</ele>
        <time>2013-05-01T11:42:49Z</time>
      </trkpt>
      <trkpt lat="60.0548782349" lon="15.5586700439">
        <ele>0</ele>
        <time>2013-05-01T11:42:50Z</time>
      </trkpt>
      <trkpt lat="60.0551185608" lon="15.5585107803">
        <ele>0</ele>
        <time>2013-05-01T11:42:53Z</time>
      </trkpt>
      <trkpt lat="60.0551948547" lon="15.5584630966">
        <ele>0</ele>
        <time>2013-05-01T11:42:54Z</time>
      </trkpt>
      <trkpt lat="60.055721283" lon="15.5580854416">
        <ele>0</ele>
        <time>2013-05-01T11:43:01Z</time>
      </trkpt>
      <trkpt lat="60.0558013916" lon="15.5580377579">
        <ele>0</ele>
        <time>2013-05-01T11:43:02Z</time>
      </trkpt>
      <trkpt lat="60.0558815002" lon="15.5579776764">
        <ele>0</ele>
        <time>2013-05-01T11:43:03Z</time>
      </trkpt>
      <trkpt lat="60.0559539795" lon="15.5579299927">
        <ele>0</ele>
        <time>2013-05-01T11:43:04Z</time>
      </trkpt>
      <trkpt lat="60.0560302734" lon="15.5578756332">
        <ele>0</ele>
        <time>2013-05-01T11:43:05Z</time>
      </trkpt>
      <trkpt lat="60.0561027527" lon="15.5578269958">
        <ele>0</ele>
        <time>2013-05-01T11:43:06Z</time>
      </trkpt>
      <trkpt lat="60.0561790466" lon="15.5577802658">
        <ele>0</ele>
        <time>2013-05-01T11:43:07Z</time>
      </trkpt>
      <trkpt lat="60.0562553406" lon="15.5577344894">
        <ele>0</ele>
        <time>2013-05-01T11:43:08Z</time>
      </trkpt>
      <trkpt lat="60.0563278198" lon="15.5576915741">
        <ele>0</ele>
        <time>2013-05-01T11:43:09Z</time>
      </trkpt>
      <trkpt lat="60.0564002991" lon="15.5576467514">
        <ele>0</ele>
        <time>2013-05-01T11:43:10Z</time>
      </trkpt>
      <trkpt lat="60.0564727783" lon="15.557592392">
        <ele>0</ele>
        <time>2013-05-01T11:43:11Z</time>
      </trkpt>
      <trkpt lat="60.0565490723" lon="15.5575428009">
        <ele>0</ele>
        <time>2013-05-01T11:43:12Z</time>
      </trkpt>
      <trkpt lat="60.0566253662" lon="15.5574970245">
        <ele>0</ele>
        <time>2013-05-01T11:43:13Z</time>
      </trkpt>
      <trkpt lat="60.0566978455" lon="15.5574522018">
        <ele>0</ele>
        <time>2013-05-01T11:43:14Z</time>
      </trkpt>
      <trkpt lat="60.0567703247" lon="15.5574092865">
        <ele>0</ele>
        <time>2013-05-01T11:43:15Z</time>
      </trkpt>
      <trkpt lat="60.0569801331" lon="15.5572814941">
        <ele>0</ele>
        <time>2013-05-01T11:43:18Z</time>
      </trkpt>
      <trkpt lat="60.0570487976" lon="15.5572338104">
        <ele>0</ele>
        <time>2013-05-01T11:43:19Z</time>
      </trkpt>
      <trkpt lat="60.0571174622" lon="15.5571899414">
        <ele>0</ele>
        <time>2013-05-01T11:43:20Z</time>
      </trkpt>
      <trkpt lat="60.057182312" lon="15.5571498871">
        <ele>0</ele>
        <time>2013-05-01T11:43:21Z</time>
      </trkpt>
      <trkpt lat="60.0572509766" lon="15.5571060181">
        <ele>0</ele>
        <time>2013-05-01T11:43:22Z</time>
      </trkpt>
      <trkpt lat="60.0573310852" lon="15.5570650101">
        <ele>0</ele>
        <time>2013-05-01T11:43:23Z</time>
      </trkpt>
      <trkpt lat="60.0574073792" lon="15.5570230484">
        <ele>0</ele>
        <time>2013-05-01T11:43:24Z</time>
      </trkpt>
      <trkpt lat="60.0574836731" lon="15.5569782257">
        <ele>0</ele>
        <time>2013-05-01T11:43:25Z</time>
      </trkpt>
      <trkpt lat="60.0575561523" lon="15.5569314957">
        <ele>0</ele>
        <time>2013-05-01T11:43:26Z</time>
      </trkpt>
      <trkpt lat="60.0576400757" lon="15.5568943024">
        <ele>0</ele>
        <time>2013-05-01T11:43:27Z</time>
      </trkpt>
      <trkpt lat="60.0578651428" lon="15.5567560196">
        <ele>0</ele>
        <time>2013-05-01T11:43:30Z</time>
      </trkpt>
      <trkpt lat="60.0581703186" lon="15.5565710068">
        <ele>0</ele>
        <time>2013-05-01T11:43:34Z</time>
      </trkpt>
      <trkpt lat="60.0582389832" lon="15.5565252304">
        <ele>0</ele>
        <time>2013-05-01T11:43:35Z</time>
      </trkpt>
      <trkpt lat="60.0583152771" lon="15.556476593">
        <ele>0</ele>
        <time>2013-05-01T11:43:36Z</time>
      </trkpt>
      <trkpt lat="60.0583953857" lon="15.556432724">
        <ele>0</ele>
        <time>2013-05-01T11:43:37Z</time>
      </trkpt>
      <trkpt lat="60.0584716797" lon="15.5563840866">
        <ele>0</ele>
        <time>2013-05-01T11:43:38Z</time>
      </trkpt>
      <trkpt lat="60.058555603" lon="15.5563364029">
        <ele>0</ele>
        <time>2013-05-01T11:43:39Z</time>
      </trkpt>
      <trkpt lat="60.0586357117" lon="15.5562868118">
        <ele>0</ele>
        <time>2013-05-01T11:43:40Z</time>
      </trkpt>
      <trkpt lat="60.0587158203" lon="15.5562400818">
        <ele>0</ele>
        <time>2013-05-01T11:43:41Z</time>
      </trkpt>
      <trkpt lat="60.0588722229" lon="15.5561389923">
        <ele>0</ele>
        <time>2013-05-01T11:43:43Z</time>
      </trkpt>
      <trkpt lat="60.0589485168" lon="15.5560884476">
        <ele>0</ele>
        <time>2013-05-01T11:43:44Z</time>
      </trkpt>
      <trkpt lat="60.0590248108" lon="15.5560379028">
        <ele>0</ele>
        <time>2013-05-01T11:43:45Z</time>
      </trkpt>
      <trkpt lat="60.0591011047" lon="15.5559883118">
        <ele>0</ele>
        <time>2013-05-01T11:43:46Z</time>
      </trkpt>
      <trkpt lat="60.0591773987" lon="15.5559368134">
        <ele>0</ele>
        <time>2013-05-01T11:43:47Z</time>
      </trkpt>
      <trkpt lat="60.0596389771" lon="15.5556440353">
        <ele>0</ele>
        <time>2013-05-01T11:43:53Z</time>
      </trkpt>
      <trkpt lat="60.0598640442" lon="15.5555009842">
        <ele>0</ele>
        <time>2013-05-01T11:43:56Z</time>
      </trkpt>
      <trkpt lat="60.0599441528" lon="15.5554504395">
        <ele>0</ele>
        <time>2013-05-01T11:43:57Z</time>
      </trkpt>
      <trkpt lat="60.0601730347" lon="15.5553064346">
        <ele>0</ele>
        <time>2013-05-01T11:44:00Z</time>
      </trkpt>
      <trkpt lat="60.0602416992" lon="15.5552616119">
        <ele>0</ele>
        <time>2013-05-01T11:44:01Z</time>
      </trkpt>
      <trkpt lat="60.0603179932" lon="15.5552120209">
        <ele>0</ele>
        <time>2013-05-01T11:44:02Z</time>
      </trkpt>
      <trkpt lat="60.0603942871" lon="15.5551652908">
        <ele>0</ele>
        <time>2013-05-01T11:44:03Z</time>
      </trkpt>
      <trkpt lat="60.0604667664" lon="15.5551252365">
        <ele>0</ele>
        <time>2013-05-01T11:44:04Z</time>
      </trkpt>
      <trkpt lat="60.0605430603" lon="15.5550785065">
        <ele>0</ele>
        <time>2013-05-01T11:44:05Z</time>
      </trkpt>
      <trkpt lat="60.0606193542" lon="15.5550298691">
        <ele>0</ele>
        <time>2013-05-01T11:44:06Z</time>
      </trkpt>
      <trkpt lat="60.0611419678" lon="15.5547027588">
        <ele>0</ele>
        <time>2013-05-01T11:44:13Z</time>
      </trkpt>
      <trkpt lat="60.0613594055" lon="15.5545549393">
        <ele>0</ele>
        <time>2013-05-01T11:44:16Z</time>
      </trkpt>
      <trkpt lat="60.0614318848" lon="15.5545043945">
        <ele>0</ele>
        <time>2013-05-01T11:44:17Z</time>
      </trkpt>
      <trkpt lat="60.0615081787" lon="15.5544500351">
        <ele>0</ele>
        <time>2013-05-01T11:44:18Z</time>
      </trkpt>
      <trkpt lat="60.0615882874" lon="15.5543899536">
        <ele>0</ele>
        <time>2013-05-01T11:44:19Z</time>
      </trkpt>
      <trkpt lat="60.0616645813" lon="15.5543317795">
        <ele>0</ele>
        <time>2013-05-01T11:44:20Z</time>
      </trkpt>
      <trkpt lat="60.0617332458" lon="15.5542793274">
        <ele>0</ele>
        <time>2013-05-01T11:44:21Z</time>
      </trkpt>
      <trkpt lat="60.0618057251" lon="15.5542230606">
        <ele>0</ele>
        <time>2013-05-01T11:44:22Z</time>
      </trkpt>
      <trkpt lat="60.0618782043" lon="15.5541667938">
        <ele>0</ele>
        <time>2013-05-01T11:44:23Z</time>
      </trkpt>
      <trkpt lat="60.061958313" lon="15.5541057587">
        <ele>0</ele>
        <time>2013-05-01T11:44:24Z</time>
      </trkpt>
      <trkpt lat="60.0620307922" lon="15.5540475845">
        <ele>0</ele>
        <time>2013-05-01T11:44:25Z</time>
      </trkpt>
      <trkpt lat="60.0624580383" lon="15.5536785126">
        <ele>0</ele>
        <time>2013-05-01T11:44:31Z</time>
      </trkpt>
      <trkpt lat="60.062538147" lon="15.5536136627">
        <ele>0</ele>
        <time>2013-05-01T11:44:32Z</time>
      </trkpt>
      <trkpt lat="60.0629615784" lon="15.5532226562">
        <ele>0</ele>
        <time>2013-05-01T11:44:38Z</time>
      </trkpt>
      <trkpt lat="60.0630378723" lon="15.553150177">
        <ele>0</ele>
        <time>2013-05-01T11:44:39Z</time>
      </trkpt>
      <trkpt lat="60.0631065369" lon="15.5530815125">
        <ele>0</ele>
        <time>2013-05-01T11:44:40Z</time>
      </trkpt>
      <trkpt lat="60.0632514954" lon="15.552939415">
        <ele>0</ele>
        <time>2013-05-01T11:44:42Z</time>
      </trkpt>
      <trkpt lat="60.063331604" lon="15.55286026">
        <ele>0</ele>
        <time>2013-05-01T11:44:43Z</time>
      </trkpt>
      <trkpt lat="60.0634002686" lon="15.5527925491">
        <ele>0</ele>
        <time>2013-05-01T11:44:44Z</time>
      </trkpt>
      <trkpt lat="60.0634727478" lon="15.5527162552">
        <ele>0</ele>
        <time>2013-05-01T11:44:45Z</time>
      </trkpt>
      <trkpt lat="60.063835144" lon="15.5523557663">
        <ele>0</ele>
        <time>2013-05-01T11:44:50Z</time>
      </trkpt>
      <trkpt lat="60.0642929077" lon="15.5518751144">
        <ele>0</ele>
        <time>2013-05-01T11:44:56Z</time>
      </trkpt>
      <trkpt lat="60.0643615723" lon="15.5517988205">
        <ele>0</ele>
        <time>2013-05-01T11:44:57Z</time>
      </trkpt>
      <trkpt lat="60.0644378662" lon="15.5517196655">
        <ele>0</ele>
        <time>2013-05-01T11:44:58Z</time>
      </trkpt>
      <trkpt lat="60.0645103455" lon="15.5516452789">
        <ele>0</ele>
        <time>2013-05-01T11:44:59Z</time>
      </trkpt>
      <trkpt lat="60.0645904541" lon="15.5515613556">
        <ele>0</ele>
        <time>2013-05-01T11:45:00Z</time>
      </trkpt>
      <trkpt lat="60.0646591187" lon="15.5514907837">
        <ele>0</ele>
        <time>2013-05-01T11:45:01Z</time>
      </trkpt>
      <trkpt lat="60.0647239685" lon="15.5514230728">
        <ele>0</ele>
        <time>2013-05-01T11:45:02Z</time>
      </trkpt>
      <trkpt lat="60.0651092529" lon="15.5510349274">
        <ele>0</ele>
        <time>2013-05-01T11:45:07Z</time>
      </trkpt>
      <trkpt lat="60.0653991699" lon="15.5507421494">
        <ele>0</ele>
        <time>2013-05-01T11:45:11Z</time>
      </trkpt>
      <trkpt lat="60.0657653809" lon="15.550365448">
        <ele>0</ele>
        <time>2013-05-01T11:45:16Z</time>
      </trkpt>
      <trkpt lat="60.0658454895" lon="15.5502853394">
        <ele>0</ele>
        <time>2013-05-01T11:45:17Z</time>
      </trkpt>
      <trkpt lat="60.0659179688" lon="15.5502090454">
        <ele>0</ele>
        <time>2013-05-01T11:45:18Z</time>
      </trkpt>
      <trkpt lat="60.0659942627" lon="15.5501337051">
        <ele>0</ele>
        <time>2013-05-01T11:45:19Z</time>
      </trkpt>
      <trkpt lat="60.0660743713" lon="15.5500526428">
        <ele>0</ele>
        <time>2013-05-01T11:45:20Z</time>
      </trkpt>
      <trkpt lat="60.0661430359" lon="15.5499801636">
        <ele>0</ele>
        <time>2013-05-01T11:45:21Z</time>
      </trkpt>
      <trkpt lat="60.0665245056" lon="15.5495872498">
        <ele>0</ele>
        <time>2013-05-01T11:45:26Z</time>
      </trkpt>
      <trkpt lat="60.0666007996" lon="15.5495119095">
        <ele>0</ele>
        <time>2013-05-01T11:45:27Z</time>
      </trkpt>
      <trkpt lat="60.0668258667" lon="15.549287796">
        <ele>0</ele>
        <time>2013-05-01T11:45:30Z</time>
      </trkpt>
      <trkpt lat="60.0668983459" lon="15.5492210388">
        <ele>0</ele>
        <time>2013-05-01T11:45:31Z</time>
      </trkpt>
      <trkpt lat="60.0671310425" lon="15.5490026474">
        <ele>0</ele>
        <time>2013-05-01T11:45:34Z</time>
      </trkpt>
      <trkpt lat="60.067199707" lon="15.5489416122">
        <ele>0</ele>
        <time>2013-05-01T11:45:35Z</time>
      </trkpt>
      <trkpt lat="60.0676574707" lon="15.5485343933">
        <ele>0</ele>
        <time>2013-05-01T11:45:41Z</time>
      </trkpt>
      <trkpt lat="60.0677337646" lon="15.5484685898">
        <ele>0</ele>
        <time>2013-05-01T11:45:42Z</time>
      </trkpt>
      <trkpt lat="60.067817688" lon="15.5483999252">
        <ele>0</ele>
        <time>2013-05-01T11:45:43Z</time>
      </trkpt>
      <trkpt lat="60.0683479309" lon="15.5479755402">
        <ele>0</ele>
        <time>2013-05-01T11:45:50Z</time>
      </trkpt>
      <trkpt lat="60.0684242249" lon="15.5479249954">
        <ele>0</ele>
        <time>2013-05-01T11:45:51Z</time>
      </trkpt>
      <trkpt lat="60.0685844421" lon="15.5478086472">
        <ele>0</ele>
        <time>2013-05-01T11:45:53Z</time>
      </trkpt>
      <trkpt lat="60.068649292" lon="15.5477609634">
        <ele>0</ele>
        <time>2013-05-01T11:45:54Z</time>
      </trkpt>
      <trkpt lat="60.0687294006" lon="15.547703743">
        <ele>0</ele>
        <time>2013-05-01T11:45:55Z</time>
      </trkpt>
      <trkpt lat="60.0688018799" lon="15.5476522446">
        <ele>0</ele>
        <time>2013-05-01T11:45:56Z</time>
      </trkpt>
      <trkpt lat="60.0688819885" lon="15.5475931168">
        <ele>0</ele>
        <time>2013-05-01T11:45:57Z</time>
      </trkpt>
      <trkpt lat="60.0689544678" lon="15.5475406647">
        <ele>0</ele>
        <time>2013-05-01T11:45:58Z</time>
      </trkpt>
      <trkpt lat="60.0690383911" lon="15.5474891663">
        <ele>0</ele>
        <time>2013-05-01T11:45:59Z</time>
      </trkpt>
      <trkpt lat="60.0691108704" lon="15.5474424362">
        <ele>0</ele>
        <time>2013-05-01T11:46:00Z</time>
      </trkpt>
      <trkpt lat="60.0691833496" lon="15.5473995209">
        <ele>0</ele>
        <time>2013-05-01T11:46:01Z</time>
      </trkpt>
      <trkpt lat="60.0697174072" lon="15.5470657349">
        <ele>0</ele>
        <time>2013-05-01T11:46:08Z</time>
      </trkpt>
      <trkpt lat="60.0698738098" lon="15.5469732285">
        <ele>0</ele>
        <time>2013-05-01T11:46:10Z</time>
      </trkpt>
      <trkpt lat="60.0700340271" lon="15.5468893051">
        <ele>0</ele>
        <time>2013-05-01T11:46:12Z</time>
      </trkpt>
      <trkpt lat="60.0701141357" lon="15.5468492508">
        <ele>0</ele>
        <time>2013-05-01T11:46:13Z</time>
      </trkpt>
      <trkpt lat="60.0701904297" lon="15.5468091965">
        <ele>0</ele>
        <time>2013-05-01T11:46:14Z</time>
      </trkpt>
      <trkpt lat="60.0702629089" lon="15.5467739105">
        <ele>0</ele>
        <time>2013-05-01T11:46:15Z</time>
      </trkpt>
      <trkpt lat="60.0703392029" lon="15.5467329025">
        <ele>0</ele>
        <time>2013-05-01T11:46:16Z</time>
      </trkpt>
      <trkpt lat="60.0704231262" lon="15.5466995239">
        <ele>0</ele>
        <time>2013-05-01T11:46:17Z</time>
      </trkpt>
      <trkpt lat="60.0704956055" lon="15.546667099">
        <ele>0</ele>
        <time>2013-05-01T11:46:18Z</time>
      </trkpt>
      <trkpt lat="60.0705871582" lon="15.5466251373">
        <ele>0</ele>
        <time>2013-05-01T11:46:19Z</time>
      </trkpt>
      <trkpt lat="60.0706710815" lon="15.5465869904">
        <ele>0</ele>
        <time>2013-05-01T11:46:20Z</time>
      </trkpt>
      <trkpt lat="60.0712394714" lon="15.5463209152">
        <ele>0</ele>
        <time>2013-05-01T11:46:27Z</time>
      </trkpt>
      <trkpt lat="60.0714836121" lon="15.5462112427">
        <ele>0</ele>
        <time>2013-05-01T11:46:30Z</time>
      </trkpt>
      <trkpt lat="60.071559906" lon="15.5461750031">
        <ele>0</ele>
        <time>2013-05-01T11:46:31Z</time>
      </trkpt>
      <trkpt lat="60.071723938" lon="15.5460968018">
        <ele>0</ele>
        <time>2013-05-01T11:46:33Z</time>
      </trkpt>
      <trkpt lat="60.0718040466" lon="15.5460596085">
        <ele>0</ele>
        <time>2013-05-01T11:46:34Z</time>
      </trkpt>
      <trkpt lat="60.0718803406" lon="15.5460243225">
        <ele>0</ele>
        <time>2013-05-01T11:46:35Z</time>
      </trkpt>
      <trkpt lat="60.0720481873" lon="15.5459432602">
        <ele>0</ele>
        <time>2013-05-01T11:46:37Z</time>
      </trkpt>
      <trkpt lat="60.0721244812" lon="15.5459060669">
        <ele>0</ele>
        <time>2013-05-01T11:46:38Z</time>
      </trkpt>
      <trkpt lat="60.0724563599" lon="15.5457487106">
        <ele>0</ele>
        <time>2013-05-01T11:46:42Z</time>
      </trkpt>
      <trkpt lat="60.0730552673" lon="15.5454730988">
        <ele>0</ele>
        <time>2013-05-01T11:46:49Z</time>
      </trkpt>
      <trkpt lat="60.0731391907" lon="15.5454359055">
        <ele>0</ele>
        <time>2013-05-01T11:46:50Z</time>
      </trkpt>
      <trkpt lat="60.0732192993" lon="15.5453996658">
        <ele>0</ele>
        <time>2013-05-01T11:46:51Z</time>
      </trkpt>
      <trkpt lat="60.0733032227" lon="15.5453615189">
        <ele>0</ele>
        <time>2013-05-01T11:46:52Z</time>
      </trkpt>
      <trkpt lat="60.0733909607" lon="15.5453195572">
        <ele>0</ele>
        <time>2013-05-01T11:46:53Z</time>
      </trkpt>
      <trkpt lat="60.0735168457" lon="15.5452594757">
        <ele>0</ele>
        <time>2013-05-01T11:46:54Z</time>
      </trkpt>
      <trkpt lat="60.074005127" lon="15.5450391769">
        <ele>0</ele>
        <time>2013-05-01T11:47:01Z</time>
      </trkpt>
      <trkpt lat="60.074180603" lon="15.5449590683">
        <ele>0</ele>
        <time>2013-05-01T11:47:03Z</time>
      </trkpt>
      <trkpt lat="60.0742759705" lon="15.5449132919">
        <ele>0</ele>
        <time>2013-05-01T11:47:04Z</time>
      </trkpt>
      <trkpt lat="60.0743560791" lon="15.5448760986">
        <ele>0</ele>
        <time>2013-05-01T11:47:05Z</time>
      </trkpt>
      <trkpt lat="60.0744438171" lon="15.544834137">
        <ele>0</ele>
        <time>2013-05-01T11:47:06Z</time>
      </trkpt>
      <trkpt lat="60.0746002197" lon="15.5447616577">
        <ele>0</ele>
        <time>2013-05-01T11:47:08Z</time>
      </trkpt>
      <trkpt lat="60.0746879578" lon="15.5447216034">
        <ele>0</ele>
        <time>2013-05-01T11:47:09Z</time>
      </trkpt>
      <trkpt lat="60.0747680664" lon="15.5446844101">
        <ele>0</ele>
        <time>2013-05-01T11:47:10Z</time>
      </trkpt>
      <trkpt lat="60.0748176575" lon="15.5446596146">
        <ele>0</ele>
        <time>2013-05-01T11:47:11Z</time>
      </trkpt>
      <trkpt lat="60.0749130249" lon="15.5446166992">
        <ele>0</ele>
        <time>2013-05-01T11:47:12Z</time>
      </trkpt>
      <trkpt lat="60.0750083923" lon="15.5445709229">
        <ele>0</ele>
        <time>2013-05-01T11:47:13Z</time>
      </trkpt>
      <trkpt lat="60.075088501" lon="15.5445337296">
        <ele>0</ele>
        <time>2013-05-01T11:47:14Z</time>
      </trkpt>
      <trkpt lat="60.0751533508" lon="15.5445022583">
        <ele>0</ele>
        <time>2013-05-01T11:47:15Z</time>
      </trkpt>
      <trkpt lat="60.0756340027" lon="15.5442762375">
        <ele>0</ele>
        <time>2013-05-01T11:47:21Z</time>
      </trkpt>
      <trkpt lat="60.0761680603" lon="15.5440254211">
        <ele>0</ele>
        <time>2013-05-01T11:47:28Z</time>
      </trkpt>
      <trkpt lat="60.0762443542" lon="15.5439910889">
        <ele>0</ele>
        <time>2013-05-01T11:47:29Z</time>
      </trkpt>
      <trkpt lat="60.0763282776" lon="15.5439519882">
        <ele>0</ele>
        <time>2013-05-01T11:47:30Z</time>
      </trkpt>
      <trkpt lat="60.0763893127" lon="15.5439243317">
        <ele>0</ele>
        <time>2013-05-01T11:47:31Z</time>
      </trkpt>
      <trkpt lat="60.0764732361" lon="15.543885231">
        <ele>0</ele>
        <time>2013-05-01T11:47:32Z</time>
      </trkpt>
      <trkpt lat="60.0765609741" lon="15.5438432693">
        <ele>0</ele>
        <time>2013-05-01T11:47:33Z</time>
      </trkpt>
      <trkpt lat="60.0766410828" lon="15.5438070297">
        <ele>0</ele>
        <time>2013-05-01T11:47:34Z</time>
      </trkpt>
      <trkpt lat="60.0766906738" lon="15.5437850952">
        <ele>0</ele>
        <time>2013-05-01T11:47:35Z</time>
      </trkpt>
      <trkpt lat="60.0767860413" lon="15.5437412262">
        <ele>0</ele>
        <time>2013-05-01T11:47:36Z</time>
      </trkpt>
      <trkpt lat="60.0768623352" lon="15.5437078476">
        <ele>0</ele>
        <time>2013-05-01T11:47:37Z</time>
      </trkpt>
      <trkpt lat="60.0769462585" lon="15.5436687469">
        <ele>0</ele>
        <time>2013-05-01T11:47:38Z</time>
      </trkpt>
      <trkpt lat="60.0772819519" lon="15.5435094833">
        <ele>0</ele>
        <time>2013-05-01T11:47:43Z</time>
      </trkpt>
      <trkpt lat="60.0774040222" lon="15.5434532166">
        <ele>0</ele>
        <time>2013-05-01T11:47:44Z</time>
      </trkpt>
      <trkpt lat="60.0774879456" lon="15.5434150696">
        <ele>0</ele>
        <time>2013-05-01T11:47:45Z</time>
      </trkpt>
      <trkpt lat="60.0775642395" lon="15.543381691">
        <ele>0</ele>
        <time>2013-05-01T11:47:46Z</time>
      </trkpt>
      <trkpt lat="60.0776062012" lon="15.5433597565">
        <ele>0</ele>
        <time>2013-05-01T11:47:47Z</time>
      </trkpt>
      <trkpt lat="60.077709198" lon="15.5433130264">
        <ele>0</ele>
        <time>2013-05-01T11:47:48Z</time>
      </trkpt>
      <trkpt lat="60.0777931213" lon="15.5432739258">
        <ele>0</ele>
        <time>2013-05-01T11:47:49Z</time>
      </trkpt>
      <trkpt lat="60.0778694153" lon="15.5432386398">
        <ele>0</ele>
        <time>2013-05-01T11:47:50Z</time>
      </trkpt>
      <trkpt lat="60.0779304504" lon="15.543211937">
        <ele>0</ele>
        <time>2013-05-01T11:47:51Z</time>
      </trkpt>
      <trkpt lat="60.0780067444" lon="15.5431756973">
        <ele>0</ele>
        <time>2013-05-01T11:47:52Z</time>
      </trkpt>
      <trkpt lat="60.0780906677" lon="15.5431365967">
        <ele>0</ele>
        <time>2013-05-01T11:47:53Z</time>
      </trkpt>
      <trkpt lat="60.0781707764" lon="15.5431003571">
        <ele>0</ele>
        <time>2013-05-01T11:47:54Z</time>
      </trkpt>
      <trkpt lat="60.0782356262" lon="15.5430707932">
        <ele>0</ele>
        <time>2013-05-01T11:47:55Z</time>
      </trkpt>
      <trkpt lat="60.0784683228" lon="15.5429611206">
        <ele>0</ele>
        <time>2013-05-01T11:47:58Z</time>
      </trkpt>
      <trkpt lat="60.0786972046" lon="15.5428552628">
        <ele>0</ele>
        <time>2013-05-01T11:48:01Z</time>
      </trkpt>
      <trkpt lat="60.0787696838" lon="15.5428209305">
        <ele>0</ele>
        <time>2013-05-01T11:48:02Z</time>
      </trkpt>
      <trkpt lat="60.078830719" lon="15.5427923203">
        <ele>0</ele>
        <time>2013-05-01T11:48:03Z</time>
      </trkpt>
      <trkpt lat="60.078918457" lon="15.5427532196">
        <ele>0</ele>
        <time>2013-05-01T11:48:04Z</time>
      </trkpt>
      <trkpt lat="60.078994751" lon="15.542719841">
        <ele>0</ele>
        <time>2013-05-01T11:48:05Z</time>
      </trkpt>
      <trkpt lat="60.0792236328" lon="15.5426101685">
        <ele>0</ele>
        <time>2013-05-01T11:48:08Z</time>
      </trkpt>
      <trkpt lat="60.0793075562" lon="15.5425710678">
        <ele>0</ele>
        <time>2013-05-01T11:48:09Z</time>
      </trkpt>
      <trkpt lat="60.0793800354" lon="15.5425376892">
        <ele>0</ele>
        <time>2013-05-01T11:48:10Z</time>
      </trkpt>
      <trkpt lat="60.0794334412" lon="15.5425109863">
        <ele>0</ele>
        <time>2013-05-01T11:48:11Z</time>
      </trkpt>
      <trkpt lat="60.0795249939" lon="15.542468071">
        <ele>0</ele>
        <time>2013-05-01T11:48:12Z</time>
      </trkpt>
      <trkpt lat="60.0796089172" lon="15.542429924">
        <ele>0</ele>
        <time>2013-05-01T11:48:13Z</time>
      </trkpt>
      <trkpt lat="60.0796852112" lon="15.5423908234">
        <ele>0</ele>
        <time>2013-05-01T11:48:14Z</time>
      </trkpt>
      <trkpt lat="60.079750061" lon="15.5423603058">
        <ele>0</ele>
        <time>2013-05-01T11:48:15Z</time>
      </trkpt>
      <trkpt lat="60.0798339844" lon="15.5423192978">
        <ele>0</ele>
        <time>2013-05-01T11:48:16Z</time>
      </trkpt>
      <trkpt lat="60.0798950195" lon="15.5422878265">
        <ele>0</ele>
        <time>2013-05-01T11:48:17Z</time>
      </trkpt>
      <trkpt lat="60.0799827576" lon="15.5422458649">
        <ele>0</ele>
        <time>2013-05-01T11:48:18Z</time>
      </trkpt>
      <trkpt lat="60.080280304" lon="15.5420866013">
        <ele>0</ele>
        <time>2013-05-01T11:48:22Z</time>
      </trkpt>
      <trkpt lat="60.0805015564" lon="15.5419626236">
        <ele>0</ele>
        <time>2013-05-01T11:48:25Z</time>
      </trkpt>
      <trkpt lat="60.0806274414" lon="15.541891098">
        <ele>0</ele>
        <time>2013-05-01T11:48:27Z</time>
      </trkpt>
      <trkpt lat="60.0807113647" lon="15.5418405533">
        <ele>0</ele>
        <time>2013-05-01T11:48:28Z</time>
      </trkpt>
      <trkpt lat="60.0807914734" lon="15.5417909622">
        <ele>0</ele>
        <time>2013-05-01T11:48:29Z</time>
      </trkpt>
      <trkpt lat="60.080871582" lon="15.5417480469">
        <ele>0</ele>
        <time>2013-05-01T11:48:30Z</time>
      </trkpt>
      <trkpt lat="60.0809249878" lon="15.5417127609">
        <ele>0</ele>
        <time>2013-05-01T11:48:31Z</time>
      </trkpt>
      <trkpt lat="60.0811576843" lon="15.5415563583">
        <ele>0</ele>
        <time>2013-05-01T11:48:34Z</time>
      </trkpt>
      <trkpt lat="60.0812110901" lon="15.5415220261">
        <ele>0</ele>
        <time>2013-05-01T11:48:35Z</time>
      </trkpt>
      <trkpt lat="60.0813026428" lon="15.5414619446">
        <ele>0</ele>
        <time>2013-05-01T11:48:36Z</time>
      </trkpt>
      <trkpt lat="60.0813713074" lon="15.5414133072">
        <ele>0</ele>
        <time>2013-05-01T11:48:37Z</time>
      </trkpt>
      <trkpt lat="60.0815010071" lon="15.5413236618">
        <ele>0</ele>
        <time>2013-05-01T11:48:39Z</time>
      </trkpt>
      <trkpt lat="60.0815811157" lon="15.541267395">
        <ele>0</ele>
        <time>2013-05-01T11:48:40Z</time>
      </trkpt>
      <trkpt lat="60.081653595" lon="15.5412158966">
        <ele>0</ele>
        <time>2013-05-01T11:48:41Z</time>
      </trkpt>
      <trkpt lat="60.0817222595" lon="15.5411710739">
        <ele>0</ele>
        <time>2013-05-01T11:48:42Z</time>
      </trkpt>
      <trkpt lat="60.0817832947" lon="15.5411310196">
        <ele>0</ele>
        <time>2013-05-01T11:48:43Z</time>
      </trkpt>
      <trkpt lat="60.0818634033" lon="15.5410671234">
        <ele>0</ele>
        <time>2013-05-01T11:48:44Z</time>
      </trkpt>
      <trkpt lat="60.0819320679" lon="15.5410108566">
        <ele>0</ele>
        <time>2013-05-01T11:48:45Z</time>
      </trkpt>
      <trkpt lat="60.0820007324" lon="15.5409545898">
        <ele>0</ele>
        <time>2013-05-01T11:48:46Z</time>
      </trkpt>
      <trkpt lat="60.08228302" lon="15.5407381058">
        <ele>0</ele>
        <time>2013-05-01T11:48:50Z</time>
      </trkpt>
      <trkpt lat="60.0823402405" lon="15.5406894684">
        <ele>0</ele>
        <time>2013-05-01T11:48:51Z</time>
      </trkpt>
      <trkpt lat="60.0824165344" lon="15.5406293869">
        <ele>0</ele>
        <time>2013-05-01T11:48:52Z</time>
      </trkpt>
      <trkpt lat="60.0824966431" lon="15.5405654907">
        <ele>0</ele>
        <time>2013-05-01T11:48:53Z</time>
      </trkpt>
      <trkpt lat="60.082572937" lon="15.5404987335">
        <ele>0</ele>
        <time>2013-05-01T11:48:54Z</time>
      </trkpt>
      <trkpt lat="60.0826225281" lon="15.5404548645">
        <ele>0</ele>
        <time>2013-05-01T11:48:55Z</time>
      </trkpt>
      <trkpt lat="60.0827026367" lon="15.5403766632">
        <ele>0</ele>
        <time>2013-05-01T11:48:56Z</time>
      </trkpt>
      <trkpt lat="60.082775116" lon="15.5403203964">
        <ele>0</ele>
        <time>2013-05-01T11:48:57Z</time>
      </trkpt>
      <trkpt lat="60.0828514099" lon="15.5402498245">
        <ele>0</ele>
        <time>2013-05-01T11:48:58Z</time>
      </trkpt>
      <trkpt lat="60.0829086304" lon="15.5402059555">
        <ele>0</ele>
        <time>2013-05-01T11:48:59Z</time>
      </trkpt>
      <trkpt lat="60.0829925537" lon="15.5401287079">
        <ele>0</ele>
        <time>2013-05-01T11:49:00Z</time>
      </trkpt>
      <trkpt lat="60.0830726624" lon="15.5400600433">
        <ele>0</ele>
        <time>2013-05-01T11:49:01Z</time>
      </trkpt>
      <trkpt lat="60.0831375122" lon="15.5399971008">
        <ele>0</ele>
        <time>2013-05-01T11:49:02Z</time>
      </trkpt>
      <trkpt lat="60.0831985474" lon="15.5399456024">
        <ele>0</ele>
        <time>2013-05-01T11:49:03Z</time>
      </trkpt>
      <trkpt lat="60.083278656" lon="15.5398626328">
        <ele>0</ele>
        <time>2013-05-01T11:49:04Z</time>
      </trkpt>
      <trkpt lat="60.0833473206" lon="15.5398006439">
        <ele>0</ele>
        <time>2013-05-01T11:49:05Z</time>
      </trkpt>
      <trkpt lat="60.0834312439" lon="15.5397205353">
        <ele>0</ele>
        <time>2013-05-01T11:49:06Z</time>
      </trkpt>
      <trkpt lat="60.0834884644" lon="15.5396690369">
        <ele>0</ele>
        <time>2013-05-01T11:49:07Z</time>
      </trkpt>
      <trkpt lat="60.0836410522" lon="15.5395116806">
        <ele>0</ele>
        <time>2013-05-01T11:49:09Z</time>
      </trkpt>
      <trkpt lat="60.0837097168" lon="15.5394392014">
        <ele>0</ele>
        <time>2013-05-01T11:49:10Z</time>
      </trkpt>
      <trkpt lat="60.0840034485" lon="15.539147377">
        <ele>0</ele>
        <time>2013-05-01T11:49:14Z</time>
      </trkpt>
      <trkpt lat="60.084148407" lon="15.5390043259">
        <ele>0</ele>
        <time>2013-05-01T11:49:16Z</time>
      </trkpt>
      <trkpt lat="60.0842094421" lon="15.5389432907">
        <ele>0</ele>
        <time>2013-05-01T11:49:17Z</time>
      </trkpt>
      <trkpt lat="60.0845947266" lon="15.5385532379">
        <ele>0</ele>
        <time>2013-05-01T11:49:22Z</time>
      </trkpt>
      <trkpt lat="60.0846481323" lon="15.5385065079">
        <ele>0</ele>
        <time>2013-05-01T11:49:23Z</time>
      </trkpt>
      <trkpt lat="60.0847434998" lon="15.5384178162">
        <ele>0</ele>
        <time>2013-05-01T11:49:24Z</time>
      </trkpt>
      <trkpt lat="60.0848922729" lon="15.5382528305">
        <ele>0</ele>
        <time>2013-05-01T11:49:26Z</time>
      </trkpt>
      <trkpt lat="60.084941864" lon="15.5381975174">
        <ele>0</ele>
        <time>2013-05-01T11:49:27Z</time>
      </trkpt>
      <trkpt lat="60.0850334167" lon="15.5381059647">
        <ele>0</ele>
        <time>2013-05-01T11:49:28Z</time>
      </trkpt>
      <trkpt lat="60.085105896" lon="15.5380325317">
        <ele>0</ele>
        <time>2013-05-01T11:49:29Z</time>
      </trkpt>
      <trkpt lat="60.0851860046" lon="15.5379495621">
        <ele>0</ele>
        <time>2013-05-01T11:49:30Z</time>
      </trkpt>
      <trkpt lat="60.0852432251" lon="15.5378904343">
        <ele>0</ele>
        <time>2013-05-01T11:49:31Z</time>
      </trkpt>
      <trkpt lat="60.0853233337" lon="15.537812233">
        <ele>0</ele>
        <time>2013-05-01T11:49:32Z</time>
      </trkpt>
      <trkpt lat="60.0854110718" lon="15.5377292633">
        <ele>0</ele>
        <time>2013-05-01T11:49:33Z</time>
      </trkpt>
      <trkpt lat="60.085483551" lon="15.5376529694">
        <ele>0</ele>
        <time>2013-05-01T11:49:34Z</time>
      </trkpt>
      <trkpt lat="60.0855331421" lon="15.5375976562">
        <ele>0</ele>
        <time>2013-05-01T11:49:35Z</time>
      </trkpt>
      <trkpt lat="60.0856208801" lon="15.5375061035">
        <ele>0</ele>
        <time>2013-05-01T11:49:36Z</time>
      </trkpt>
      <trkpt lat="60.08568573" lon="15.5374393463">
        <ele>0</ele>
        <time>2013-05-01T11:49:37Z</time>
      </trkpt>
      <trkpt lat="60.0857658386" lon="15.537361145">
        <ele>0</ele>
        <time>2013-05-01T11:49:38Z</time>
      </trkpt>
      <trkpt lat="60.0858268738" lon="15.5372972488">
        <ele>0</ele>
        <time>2013-05-01T11:49:39Z</time>
      </trkpt>
      <trkpt lat="60.0859107971" lon="15.5372076035">
        <ele>0</ele>
        <time>2013-05-01T11:49:40Z</time>
      </trkpt>
      <trkpt lat="60.0859794617" lon="15.5371379852">
        <ele>0</ele>
        <time>2013-05-01T11:49:41Z</time>
      </trkpt>
      <trkpt lat="60.0860519409" lon="15.5370645523">
        <ele>0</ele>
        <time>2013-05-01T11:49:42Z</time>
      </trkpt>
      <trkpt lat="60.0861129761" lon="15.5370044708">
        <ele>0</ele>
        <time>2013-05-01T11:49:43Z</time>
      </trkpt>
      <trkpt lat="60.0863456726" lon="15.5367670059">
        <ele>0</ele>
        <time>2013-05-01T11:49:46Z</time>
      </trkpt>
      <trkpt lat="60.0863952637" lon="15.5367221832">
        <ele>0</ele>
        <time>2013-05-01T11:49:47Z</time>
      </trkpt>
      <trkpt lat="60.0867843628" lon="15.5363254547">
        <ele>0</ele>
        <time>2013-05-01T11:49:52Z</time>
      </trkpt>
      <trkpt lat="60.0868606567" lon="15.5362453461">
        <ele>0</ele>
        <time>2013-05-01T11:49:53Z</time>
      </trkpt>
      <trkpt lat="60.0869407654" lon="15.5361728668">
        <ele>0</ele>
        <time>2013-05-01T11:49:54Z</time>
      </trkpt>
      <trkpt lat="60.0870018005" lon="15.5361070633">
        <ele>0</ele>
        <time>2013-05-01T11:49:55Z</time>
      </trkpt>
      <trkpt lat="60.0870819092" lon="15.5360269547">
        <ele>0</ele>
        <time>2013-05-01T11:49:56Z</time>
      </trkpt>
      <trkpt lat="60.0871582031" lon="15.535946846">
        <ele>0</ele>
        <time>2013-05-01T11:49:57Z</time>
      </trkpt>
      <trkpt lat="60.0872344971" lon="15.5358734131">
        <ele>0</ele>
        <time>2013-05-01T11:49:58Z</time>
      </trkpt>
      <trkpt lat="60.0872573853" lon="15.5358495712">
        <ele>0</ele>
        <time>2013-05-01T11:49:59Z</time>
      </trkpt>
      <trkpt lat="60.0873641968" lon="15.535741806">
        <ele>0</ele>
        <time>2013-05-01T11:50:00Z</time>
      </trkpt>
      <trkpt lat="60.0874519348" lon="15.535654068">
        <ele>0</ele>
        <time>2013-05-01T11:50:01Z</time>
      </trkpt>
      <trkpt lat="60.0875244141" lon="15.5355825424">
        <ele>0</ele>
        <time>2013-05-01T11:50:02Z</time>
      </trkpt>
      <trkpt lat="60.0875854492" lon="15.5355167389">
        <ele>0</ele>
        <time>2013-05-01T11:50:03Z</time>
      </trkpt>
      <trkpt lat="60.0876731873" lon="15.5354280472">
        <ele>0</ele>
        <time>2013-05-01T11:50:04Z</time>
      </trkpt>
      <trkpt lat="60.0877532959" lon="15.5353450775">
        <ele>0</ele>
        <time>2013-05-01T11:50:05Z</time>
      </trkpt>
      <trkpt lat="60.0878295898" lon="15.5352573395">
        <ele>0</ele>
        <time>2013-05-01T11:50:06Z</time>
      </trkpt>
      <trkpt lat="60.0878868103" lon="15.535197258">
        <ele>0</ele>
        <time>2013-05-01T11:50:07Z</time>
      </trkpt>
      <trkpt lat="60.0880661011" lon="15.5350008011">
        <ele>0</ele>
        <time>2013-05-01T11:50:09Z</time>
      </trkpt>
      <trkpt lat="60.0881385803" lon="15.5349206924">
        <ele>0</ele>
        <time>2013-05-01T11:50:10Z</time>
      </trkpt>
      <trkpt lat="60.0881958008" lon="15.5348558426">
        <ele>0</ele>
        <time>2013-05-01T11:50:11Z</time>
      </trkpt>
      <trkpt lat="60.0886192322" lon="15.5343732834">
        <ele>0</ele>
        <time>2013-05-01T11:50:16Z</time>
      </trkpt>
      <trkpt lat="60.0886917114" lon="15.5342874527">
        <ele>0</ele>
        <time>2013-05-01T11:50:17Z</time>
      </trkpt>
      <trkpt lat="60.0890235901" lon="15.5338754654">
        <ele>0</ele>
        <time>2013-05-01T11:50:21Z</time>
      </trkpt>
      <trkpt lat="60.0891075134" lon="15.5337696075">
        <ele>0</ele>
        <time>2013-05-01T11:50:22Z</time>
      </trkpt>
      <trkpt lat="60.0891838074" lon="15.5336694717">
        <ele>0</ele>
        <time>2013-05-01T11:50:23Z</time>
      </trkpt>
      <trkpt lat="60.0892715454" lon="15.5335531235">
        <ele>0</ele>
        <time>2013-05-01T11:50:24Z</time>
      </trkpt>
      <trkpt lat="60.0893554688" lon="15.5334377289">
        <ele>0</ele>
        <time>2013-05-01T11:50:25Z</time>
      </trkpt>
      <trkpt lat="60.0895080566" lon="15.533241272">
        <ele>0</ele>
        <time>2013-05-01T11:50:27Z</time>
      </trkpt>
      <trkpt lat="60.0896034241" lon="15.5331029892">
        <ele>0</ele>
        <time>2013-05-01T11:50:28Z</time>
      </trkpt>
      <trkpt lat="60.0896873474" lon="15.5329828262">
        <ele>0</ele>
        <time>2013-05-01T11:50:29Z</time>
      </trkpt>
      <trkpt lat="60.0897789001" lon="15.5328512192">
        <ele>0</ele>
        <time>2013-05-01T11:50:30Z</time>
      </trkpt>
      <trkpt lat="60.0898323059" lon="15.5327682495">
        <ele>0</ele>
        <time>2013-05-01T11:50:31Z</time>
      </trkpt>
      <trkpt lat="60.0899505615" lon="15.5326042175">
        <ele>0</ele>
        <time>2013-05-01T11:50:32Z</time>
      </trkpt>
      <trkpt lat="60.0900344849" lon="15.5324850082">
        <ele>0</ele>
        <time>2013-05-01T11:50:33Z</time>
      </trkpt>
      <trkpt lat="60.0901184082" lon="15.532371521">
        <ele>0</ele>
        <time>2013-05-01T11:50:34Z</time>
      </trkpt>
      <trkpt lat="60.09034729" lon="15.5320367813">
        <ele>0</ele>
        <time>2013-05-01T11:50:37Z</time>
      </trkpt>
      <trkpt lat="60.0906066895" lon="15.53166008">
        <ele>0</ele>
        <time>2013-05-01T11:50:40Z</time>
      </trkpt>
      <trkpt lat="60.0906982422" lon="15.5315265656">
        <ele>0</ele>
        <time>2013-05-01T11:50:41Z</time>
      </trkpt>
      <trkpt lat="60.0907783508" lon="15.5314083099">
        <ele>0</ele>
        <time>2013-05-01T11:50:42Z</time>
      </trkpt>
      <trkpt lat="60.0908546448" lon="15.5312986374">
        <ele>0</ele>
        <time>2013-05-01T11:50:43Z</time>
      </trkpt>
      <trkpt lat="60.0909538269" lon="15.5311555862">
        <ele>0</ele>
        <time>2013-05-01T11:50:44Z</time>
      </trkpt>
      <trkpt lat="60.091053009" lon="15.5310049057">
        <ele>0</ele>
        <time>2013-05-01T11:50:45Z</time>
      </trkpt>
      <trkpt lat="60.0911331177" lon="15.5308828354">
        <ele>0</ele>
        <time>2013-05-01T11:50:46Z</time>
      </trkpt>
      <trkpt lat="60.0911827087" lon="15.5308132172">
        <ele>0</ele>
        <time>2013-05-01T11:50:47Z</time>
      </trkpt>
      <trkpt lat="60.0912857056" lon="15.5306577682">
        <ele>0</ele>
        <time>2013-05-01T11:50:48Z</time>
      </trkpt>
      <trkpt lat="60.0913772583" lon="15.5305290222">
        <ele>0</ele>
        <time>2013-05-01T11:50:49Z</time>
      </trkpt>
      <trkpt lat="60.0914535522" lon="15.5304107666">
        <ele>0</ele>
        <time>2013-05-01T11:50:50Z</time>
      </trkpt>
      <trkpt lat="60.0915145874" lon="15.5303230286">
        <ele>0</ele>
        <time>2013-05-01T11:50:51Z</time>
      </trkpt>
      <trkpt lat="60.091594696" lon="15.5302085876">
        <ele>0</ele>
        <time>2013-05-01T11:50:52Z</time>
      </trkpt>
      <trkpt lat="60.0916786194" lon="15.5300855637">
        <ele>0</ele>
        <time>2013-05-01T11:50:53Z</time>
      </trkpt>
      <trkpt lat="60.091758728" lon="15.5299634933">
        <ele>0</ele>
        <time>2013-05-01T11:50:54Z</time>
      </trkpt>
      <trkpt lat="60.0918121338" lon="15.5298748016">
        <ele>0</ele>
        <time>2013-05-01T11:50:55Z</time>
      </trkpt>
      <trkpt lat="60.0918960571" lon="15.5297422409">
        <ele>0</ele>
        <time>2013-05-01T11:50:56Z</time>
      </trkpt>
      <trkpt lat="60.0919647217" lon="15.529630661">
        <ele>0</ele>
        <time>2013-05-01T11:50:57Z</time>
      </trkpt>
      <trkpt lat="60.0920372009" lon="15.529507637">
        <ele>0</ele>
        <time>2013-05-01T11:50:58Z</time>
      </trkpt>
      <trkpt lat="60.0921707153" lon="15.5292816162">
        <ele>0</ele>
        <time>2013-05-01T11:51:00Z</time>
      </trkpt>
      <trkpt lat="60.0922317505" lon="15.5291662216">
        <ele>0</ele>
        <time>2013-05-01T11:51:01Z</time>
      </trkpt>
      <trkpt lat="60.0922966003" lon="15.5290555954">
        <ele>0</ele>
        <time>2013-05-01T11:51:02Z</time>
      </trkpt>
      <trkpt lat="60.0923500061" lon="15.5289525986">
        <ele>0</ele>
        <time>2013-05-01T11:51:03Z</time>
      </trkpt>
      <trkpt lat="60.0924186707" lon="15.5288228989">
        <ele>0</ele>
        <time>2013-05-01T11:51:04Z</time>
      </trkpt>
      <trkpt lat="60.0924797058" lon="15.5287046432">
        <ele>0</ele>
        <time>2013-05-01T11:51:05Z</time>
      </trkpt>
      <trkpt lat="60.0925483704" lon="15.5285730362">
        <ele>0</ele>
        <time>2013-05-01T11:51:06Z</time>
      </trkpt>
      <trkpt lat="60.092590332" lon="15.5284929276">
        <ele>0</ele>
        <time>2013-05-01T11:51:07Z</time>
      </trkpt>
      <trkpt lat="60.0926628113" lon="15.528345108">
        <ele>0</ele>
        <time>2013-05-01T11:51:08Z</time>
      </trkpt>
      <trkpt lat="60.0927238464" lon="15.5282173157">
        <ele>0</ele>
        <time>2013-05-01T11:51:09Z</time>
      </trkpt>
      <trkpt lat="60.0927848816" lon="15.5280952454">
        <ele>0</ele>
        <time>2013-05-01T11:51:10Z</time>
      </trkpt>
      <trkpt lat="60.0928192139" lon="15.5280160904">
        <ele>0</ele>
        <time>2013-05-01T11:51:11Z</time>
      </trkpt>
      <trkpt lat="60.0928840637" lon="15.5278673172">
        <ele>0</ele>
        <time>2013-05-01T11:51:12Z</time>
      </trkpt>
      <trkpt lat="60.0929489136" lon="15.5277194977">
        <ele>0</ele>
        <time>2013-05-01T11:51:13Z</time>
      </trkpt>
      <trkpt lat="60.0930480957" lon="15.5274868011">
        <ele>0</ele>
        <time>2013-05-01T11:51:15Z</time>
      </trkpt>
      <trkpt lat="60.0931053162" lon="15.527346611">
        <ele>0</ele>
        <time>2013-05-01T11:51:16Z</time>
      </trkpt>
      <trkpt lat="60.0931472778" lon="15.5272321701">
        <ele>0</ele>
        <time>2013-05-01T11:51:17Z</time>
      </trkpt>
      <trkpt lat="60.093208313" lon="15.5270738602">
        <ele>0</ele>
        <time>2013-05-01T11:51:18Z</time>
      </trkpt>
      <trkpt lat="60.09324646" lon="15.5269670486">
        <ele>0</ele>
        <time>2013-05-01T11:51:19Z</time>
      </trkpt>
      <trkpt lat="60.0933036804" lon="15.5268125534">
        <ele>0</ele>
        <time>2013-05-01T11:51:20Z</time>
      </trkpt>
      <trkpt lat="60.0933532715" lon="15.5266714096">
        <ele>0</ele>
        <time>2013-05-01T11:51:21Z</time>
      </trkpt>
      <trkpt lat="60.0934028625" lon="15.5265436172">
        <ele>0</ele>
        <time>2013-05-01T11:51:22Z</time>
      </trkpt>
      <trkpt lat="60.0934371948" lon="15.5264453888">
        <ele>0</ele>
        <time>2013-05-01T11:51:23Z</time>
      </trkpt>
      <trkpt lat="60.09349823" lon="15.5262775421">
        <ele>0</ele>
        <time>2013-05-01T11:51:24Z</time>
      </trkpt>
      <trkpt lat="60.093547821" lon="15.5261325836">
        <ele>0</ele>
        <time>2013-05-01T11:51:25Z</time>
      </trkpt>
      <trkpt lat="60.0935935974" lon="15.5259943008">
        <ele>0</ele>
        <time>2013-05-01T11:51:26Z</time>
      </trkpt>
      <trkpt lat="60.093624115" lon="15.5258989334">
        <ele>0</ele>
        <time>2013-05-01T11:51:27Z</time>
      </trkpt>
      <trkpt lat="60.0937232971" lon="15.5255947113">
        <ele>0</ele>
        <time>2013-05-01T11:51:29Z</time>
      </trkpt>
      <trkpt lat="60.0937614441" lon="15.5254459381">
        <ele>0</ele>
        <time>2013-05-01T11:51:30Z</time>
      </trkpt>
      <trkpt lat="60.093788147" lon="15.5253429413">
        <ele>0</ele>
        <time>2013-05-01T11:51:31Z</time>
      </trkpt>
      <trkpt lat="60.093875885" lon="15.5250167847">
        <ele>0</ele>
        <time>2013-05-01T11:51:33Z</time>
      </trkpt>
      <trkpt lat="60.093914032" lon="15.5248775482">
        <ele>0</ele>
        <time>2013-05-01T11:51:34Z</time>
      </trkpt>
      <trkpt lat="60.0939407349" lon="15.5247793198">
        <ele>0</ele>
        <time>2013-05-01T11:51:35Z</time>
      </trkpt>
      <trkpt lat="60.0940208435" lon="15.5244693756">
        <ele>0</ele>
        <time>2013-05-01T11:51:37Z</time>
      </trkpt>
      <trkpt lat="60.0940589905" lon="15.5243206024">
        <ele>0</ele>
        <time>2013-05-01T11:51:38Z</time>
      </trkpt>
      <trkpt lat="60.0940818787" lon="15.5242128372">
        <ele>0</ele>
        <time>2013-05-01T11:51:39Z</time>
      </trkpt>
      <trkpt lat="60.0941238403" lon="15.5240516663">
        <ele>0</ele>
        <time>2013-05-01T11:51:40Z</time>
      </trkpt>
      <trkpt lat="60.0941543579" lon="15.5239133835">
        <ele>0</ele>
        <time>2013-05-01T11:51:41Z</time>
      </trkpt>
      <trkpt lat="60.0941848755" lon="15.5237789154">
        <ele>0</ele>
        <time>2013-05-01T11:51:42Z</time>
      </trkpt>
      <trkpt lat="60.0942077637" lon="15.5236692429">
        <ele>0</ele>
        <time>2013-05-01T11:51:43Z</time>
      </trkpt>
      <trkpt lat="60.0942420959" lon="15.5235137939">
        <ele>0</ele>
        <time>2013-05-01T11:51:44Z</time>
      </trkpt>
      <trkpt lat="60.0942726135" lon="15.5233774185">
        <ele>0</ele>
        <time>2013-05-01T11:51:45Z</time>
      </trkpt>
      <trkpt lat="60.0942993164" lon="15.5232429504">
        <ele>0</ele>
        <time>2013-05-01T11:51:46Z</time>
      </trkpt>
      <trkpt lat="60.0943107605" lon="15.5231904984">
        <ele>0</ele>
        <time>2013-05-01T11:51:47Z</time>
      </trkpt>
      <trkpt lat="60.0943450928" lon="15.5230045319">
        <ele>0</ele>
        <time>2013-05-01T11:51:48Z</time>
      </trkpt>
      <trkpt lat="60.0943756104" lon="15.522857666">
        <ele>0</ele>
        <time>2013-05-01T11:51:49Z</time>
      </trkpt>
      <trkpt lat="60.0943984985" lon="15.5227308273">
        <ele>0</ele>
        <time>2013-05-01T11:51:50Z</time>
      </trkpt>
      <trkpt lat="60.094417572" lon="15.5226345062">
        <ele>0</ele>
        <time>2013-05-01T11:51:51Z</time>
      </trkpt>
      <trkpt lat="60.0944404602" lon="15.5224990845">
        <ele>0</ele>
        <time>2013-05-01T11:51:52Z</time>
      </trkpt>
      <trkpt lat="60.0944671631" lon="15.5223560333">
        <ele>0</ele>
        <time>2013-05-01T11:51:53Z</time>
      </trkpt>
      <trkpt lat="60.0944900513" lon="15.5222196579">
        <ele>0</ele>
        <time>2013-05-01T11:51:54Z</time>
      </trkpt>
      <trkpt lat="60.0945091248" lon="15.5221128464">
        <ele>0</ele>
        <time>2013-05-01T11:51:55Z</time>
      </trkpt>
      <trkpt lat="60.0945510864" lon="15.52186203">
        <ele>0</ele>
        <time>2013-05-01T11:51:57Z</time>
      </trkpt>
      <trkpt lat="60.0945701599" lon="15.5217256546">
        <ele>0</ele>
        <time>2013-05-01T11:51:58Z</time>
      </trkpt>
      <trkpt lat="60.0945854187" lon="15.5216350555">
        <ele>0</ele>
        <time>2013-05-01T11:51:59Z</time>
      </trkpt>
      <trkpt lat="60.0946083069" lon="15.5214776993">
        <ele>0</ele>
        <time>2013-05-01T11:52:00Z</time>
      </trkpt>
      <trkpt lat="60.0946273804" lon="15.5213451385">
        <ele>0</ele>
        <time>2013-05-01T11:52:01Z</time>
      </trkpt>
      <trkpt lat="60.0946426392" lon="15.521229744">
        <ele>0</ele>
        <time>2013-05-01T11:52:02Z</time>
      </trkpt>
      <trkpt lat="60.0947036743" lon="15.5207138062">
        <ele>0</ele>
        <time>2013-05-01T11:52:06Z</time>
      </trkpt>
      <trkpt lat="60.0947151184" lon="15.5206336975">
        <ele>0</ele>
        <time>2013-05-01T11:52:07Z</time>
      </trkpt>
      <trkpt lat="60.0947303772" lon="15.5204715729">
        <ele>0</ele>
        <time>2013-05-01T11:52:08Z</time>
      </trkpt>
      <trkpt lat="60.094745636" lon="15.5203323364">
        <ele>0</ele>
        <time>2013-05-01T11:52:09Z</time>
      </trkpt>
      <trkpt lat="60.0947608948" lon="15.5202054977">
        <ele>0</ele>
        <time>2013-05-01T11:52:10Z</time>
      </trkpt>
      <trkpt lat="60.0947723389" lon="15.520116806">
        <ele>0</ele>
        <time>2013-05-01T11:52:11Z</time>
      </trkpt>
      <trkpt lat="60.0948219299" lon="15.5196809769">
        <ele>0</ele>
        <time>2013-05-01T11:52:14Z</time>
      </trkpt>
      <trkpt lat="60.094833374" lon="15.5195798874">
        <ele>0</ele>
        <time>2013-05-01T11:52:15Z</time>
      </trkpt>
      <trkpt lat="60.0948524475" lon="15.5194282532">
        <ele>0</ele>
        <time>2013-05-01T11:52:16Z</time>
      </trkpt>
      <trkpt lat="60.0948638916" lon="15.5193185806">
        <ele>0</ele>
        <time>2013-05-01T11:52:17Z</time>
      </trkpt>
      <trkpt lat="60.0948829651" lon="15.519156456">
        <ele>0</ele>
        <time>2013-05-01T11:52:18Z</time>
      </trkpt>
      <trkpt lat="60.0948944092" lon="15.5190515518">
        <ele>0</ele>
        <time>2013-05-01T11:52:19Z</time>
      </trkpt>
      <trkpt lat="60.094909668" lon="15.5189037323">
        <ele>0</ele>
        <time>2013-05-01T11:52:20Z</time>
      </trkpt>
      <trkpt lat="60.0949287415" lon="15.5187616348">
        <ele>0</ele>
        <time>2013-05-01T11:52:21Z</time>
      </trkpt>
      <trkpt lat="60.0949440002" lon="15.5186414719">
        <ele>0</ele>
        <time>2013-05-01T11:52:22Z</time>
      </trkpt>
      <trkpt lat="60.0950622559" lon="15.5175857544">
        <ele>0</ele>
        <time>2013-05-01T11:52:30Z</time>
      </trkpt>
      <trkpt lat="60.095123291" lon="15.5170564651">
        <ele>0</ele>
        <time>2013-05-01T11:52:34Z</time>
      </trkpt>
      <trkpt lat="60.0951347351" lon="15.5169687271">
        <ele>0</ele>
        <time>2013-05-01T11:52:35Z</time>
      </trkpt>
      <trkpt lat="60.0951576233" lon="15.5168123245">
        <ele>0</ele>
        <time>2013-05-01T11:52:36Z</time>
      </trkpt>
      <trkpt lat="60.0951766968" lon="15.5166969299">
        <ele>0</ele>
        <time>2013-05-01T11:52:37Z</time>
      </trkpt>
      <trkpt lat="60.0951957703" lon="15.5165557861">
        <ele>0</ele>
        <time>2013-05-01T11:52:38Z</time>
      </trkpt>
      <trkpt lat="60.0952110291" lon="15.5164575577">
        <ele>0</ele>
        <time>2013-05-01T11:52:39Z</time>
      </trkpt>
      <trkpt lat="60.0952606201" lon="15.5161914825">
        <ele>0</ele>
        <time>2013-05-01T11:52:41Z</time>
      </trkpt>
      <trkpt lat="60.095287323" lon="15.5160608292">
        <ele>0</ele>
        <time>2013-05-01T11:52:42Z</time>
      </trkpt>
      <trkpt lat="60.0953330994" lon="15.5157842636">
        <ele>0</ele>
        <time>2013-05-01T11:52:44Z</time>
      </trkpt>
      <trkpt lat="60.0953598022" lon="15.5156469345">
        <ele>0</ele>
        <time>2013-05-01T11:52:45Z</time>
      </trkpt>
      <trkpt lat="60.0955238342" lon="15.5148544312">
        <ele>0</ele>
        <time>2013-05-01T11:52:51Z</time>
      </trkpt>
      <trkpt lat="60.0956192017" lon="15.5143995285">
        <ele>0</ele>
        <time>2013-05-01T11:52:54Z</time>
      </trkpt>
      <trkpt lat="60.0956420898" lon="15.5142965317">
        <ele>0</ele>
        <time>2013-05-01T11:52:55Z</time>
      </trkpt>
      <trkpt lat="60.0956764221" lon="15.5141391754">
        <ele>0</ele>
        <time>2013-05-01T11:52:56Z</time>
      </trkpt>
      <trkpt lat="60.0957069397" lon="15.5140113831">
        <ele>0</ele>
        <time>2013-05-01T11:52:57Z</time>
      </trkpt>
      <trkpt lat="60.095741272" lon="15.5138721466">
        <ele>0</ele>
        <time>2013-05-01T11:52:58Z</time>
      </trkpt>
      <trkpt lat="60.0957717896" lon="15.5137414932">
        <ele>0</ele>
        <time>2013-05-01T11:52:59Z</time>
      </trkpt>
      <trkpt lat="60.0959014893" lon="15.5132408142">
        <ele>0</ele>
        <time>2013-05-01T11:53:03Z</time>
      </trkpt>
      <trkpt lat="60.0959434509" lon="15.5130844116">
        <ele>0</ele>
        <time>2013-05-01T11:53:04Z</time>
      </trkpt>
      <trkpt lat="60.0959663391" lon="15.513001442">
        <ele>0</ele>
        <time>2013-05-01T11:53:05Z</time>
      </trkpt>
      <trkpt lat="60.0960159302" lon="15.5128154755">
        <ele>0</ele>
        <time>2013-05-01T11:53:06Z</time>
      </trkpt>
      <trkpt lat="60.0960388184" lon="15.5127315521">
        <ele>0</ele>
        <time>2013-05-01T11:53:07Z</time>
      </trkpt>
      <trkpt lat="60.0960884094" lon="15.5125646591">
        <ele>0</ele>
        <time>2013-05-01T11:53:08Z</time>
      </trkpt>
      <trkpt lat="60.0961265564" lon="15.5124206543">
        <ele>0</ele>
        <time>2013-05-01T11:53:09Z</time>
      </trkpt>
      <trkpt lat="60.0961685181" lon="15.5122947693">
        <ele>0</ele>
        <time>2013-05-01T11:53:10Z</time>
      </trkpt>
      <trkpt lat="60.0962371826" lon="15.5120706558">
        <ele>0</ele>
        <time>2013-05-01T11:53:12Z</time>
      </trkpt>
      <trkpt lat="60.0962791443" lon="15.5119247437">
        <ele>0</ele>
        <time>2013-05-01T11:53:13Z</time>
      </trkpt>
      <trkpt lat="60.0964431763" lon="15.5114250183">
        <ele>0</ele>
        <time>2013-05-01T11:53:18Z</time>
      </trkpt>
      <trkpt lat="60.096534729" lon="15.5111722946">
        <ele>0</ele>
        <time>2013-05-01T11:53:21Z</time>
      </trkpt>
      <trkpt lat="60.0965538025" lon="15.5111064911">
        <ele>0</ele>
        <time>2013-05-01T11:53:22Z</time>
      </trkpt>
      <trkpt lat="60.0965957642" lon="15.5109729767">
        <ele>0</ele>
        <time>2013-05-01T11:53:24Z</time>
      </trkpt>
      <trkpt lat="60.0966186523" lon="15.5109186172">
        <ele>0</ele>
        <time>2013-05-01T11:53:25Z</time>
      </trkpt>
      <trkpt lat="60.0967216492" lon="15.5106449127">
        <ele>0</ele>
        <time>2013-05-01T11:53:29Z</time>
      </trkpt>
      <trkpt lat="60.0967559814" lon="15.510556221">
        <ele>0</ele>
        <time>2013-05-01T11:53:30Z</time>
      </trkpt>
      <trkpt lat="60.0967788696" lon="15.5104894638">
        <ele>0</ele>
        <time>2013-05-01T11:53:31Z</time>
      </trkpt>
      <trkpt lat="60.0968208313" lon="15.5103979111">
        <ele>0</ele>
        <time>2013-05-01T11:53:32Z</time>
      </trkpt>
      <trkpt lat="60.096862793" lon="15.5102987289">
        <ele>0</ele>
        <time>2013-05-01T11:53:33Z</time>
      </trkpt>
      <trkpt lat="60.0969009399" lon="15.5102090836">
        <ele>0</ele>
        <time>2013-05-01T11:53:34Z</time>
      </trkpt>
      <trkpt lat="60.0969696045" lon="15.5100250244">
        <ele>0</ele>
        <time>2013-05-01T11:53:36Z</time>
      </trkpt>
      <trkpt lat="60.0970039368" lon="15.509929657">
        <ele>0</ele>
        <time>2013-05-01T11:53:37Z</time>
      </trkpt>
      <trkpt lat="60.0970458984" lon="15.5098285675">
        <ele>0</ele>
        <time>2013-05-01T11:53:38Z</time>
      </trkpt>
      <trkpt lat="60.097076416" lon="15.5097522736">
        <ele>0</ele>
        <time>2013-05-01T11:53:39Z</time>
      </trkpt>
      <trkpt lat="60.097114563" lon="15.5096464157">
        <ele>0</ele>
        <time>2013-05-01T11:53:40Z</time>
      </trkpt>
      <trkpt lat="60.0972709656" lon="15.5092782974">
        <ele>0</ele>
        <time>2013-05-01T11:53:45Z</time>
      </trkpt>
      <trkpt lat="60.0973129272" lon="15.5091810226">
        <ele>0</ele>
        <time>2013-05-01T11:53:47Z</time>
      </trkpt>
      <trkpt lat="60.0973587036" lon="15.5091123581">
        <ele>0</ele>
        <time>2013-05-01T11:53:48Z</time>
      </trkpt>
      <trkpt lat="60.0974349976" lon="15.5089836121">
        <ele>0</ele>
        <time>2013-05-01T11:53:50Z</time>
      </trkpt>
      <trkpt lat="60.0974578857" lon="15.5089168549">
        <ele>0</ele>
        <time>2013-05-01T11:53:51Z</time>
      </trkpt>
      <trkpt lat="60.0974960327" lon="15.5088348389">
        <ele>0</ele>
        <time>2013-05-01T11:53:52Z</time>
      </trkpt>
      <trkpt lat="60.0975341797" lon="15.5087413788">
        <ele>0</ele>
        <time>2013-05-01T11:53:53Z</time>
      </trkpt>
      <trkpt lat="60.0975761414" lon="15.5086517334">
        <ele>0</ele>
        <time>2013-05-01T11:53:54Z</time>
      </trkpt>
      <trkpt lat="60.0976104736" lon="15.5085792542">
        <ele>0</ele>
        <time>2013-05-01T11:53:55Z</time>
      </trkpt>
      <trkpt lat="60.0976524353" lon="15.5084924698">
        <ele>0</ele>
        <time>2013-05-01T11:53:56Z</time>
      </trkpt>
      <trkpt lat="60.0976905823" lon="15.5084152222">
        <ele>0</ele>
        <time>2013-05-01T11:53:57Z</time>
      </trkpt>
      <trkpt lat="60.0977363586" lon="15.5083322525">
        <ele>0</ele>
        <time>2013-05-01T11:53:58Z</time>
      </trkpt>
      <trkpt lat="60.0977668762" lon="15.508272171">
        <ele>0</ele>
        <time>2013-05-01T11:53:59Z</time>
      </trkpt>
      <trkpt lat="60.097820282" lon="15.5081615448">
        <ele>0</ele>
        <time>2013-05-01T11:54:00Z</time>
      </trkpt>
      <trkpt lat="60.0978736877" lon="15.5080690384">
        <ele>0</ele>
        <time>2013-05-01T11:54:01Z</time>
      </trkpt>
      <trkpt lat="60.0979194641" lon="15.5079917908">
        <ele>0</ele>
        <time>2013-05-01T11:54:02Z</time>
      </trkpt>
      <trkpt lat="60.0979576111" lon="15.5079212189">
        <ele>0</ele>
        <time>2013-05-01T11:54:03Z</time>
      </trkpt>
      <trkpt lat="60.0983085632" lon="15.5072832108">
        <ele>0</ele>
        <time>2013-05-01T11:54:10Z</time>
      </trkpt>
      <trkpt lat="60.0983390808" lon="15.5072212219">
        <ele>0</ele>
        <time>2013-05-01T11:54:11Z</time>
      </trkpt>
      <trkpt lat="60.098400116" lon="15.5071144104">
        <ele>0</ele>
        <time>2013-05-01T11:54:12Z</time>
      </trkpt>
      <trkpt lat="60.0984611511" lon="15.5070037842">
        <ele>0</ele>
        <time>2013-05-01T11:54:13Z</time>
      </trkpt>
      <trkpt lat="60.0985145569" lon="15.5069112778">
        <ele>0</ele>
        <time>2013-05-01T11:54:14Z</time>
      </trkpt>
      <trkpt lat="60.0985603333" lon="15.5068292618">
        <ele>0</ele>
        <time>2013-05-01T11:54:15Z</time>
      </trkpt>
      <trkpt lat="60.0986175537" lon="15.506729126">
        <ele>0</ele>
        <time>2013-05-01T11:54:16Z</time>
      </trkpt>
      <trkpt lat="60.0986633301" lon="15.506649971">
        <ele>0</ele>
        <time>2013-05-01T11:54:17Z</time>
      </trkpt>
      <trkpt lat="60.0987281799" lon="15.506529808">
        <ele>0</ele>
        <time>2013-05-01T11:54:18Z</time>
      </trkpt>
      <trkpt lat="60.098777771" lon="15.5064506531">
        <ele>0</ele>
        <time>2013-05-01T11:54:19Z</time>
      </trkpt>
      <trkpt lat="60.0988349915" lon="15.5063486099">
        <ele>0</ele>
        <time>2013-05-01T11:54:20Z</time>
      </trkpt>
      <trkpt lat="60.0988960266" lon="15.506234169">
        <ele>0</ele>
        <time>2013-05-01T11:54:21Z</time>
      </trkpt>
      <trkpt lat="60.0989456177" lon="15.5061435699">
        <ele>0</ele>
        <time>2013-05-01T11:54:22Z</time>
      </trkpt>
      <trkpt lat="60.0989875793" lon="15.5060710907">
        <ele>0</ele>
        <time>2013-05-01T11:54:23Z</time>
      </trkpt>
      <trkpt lat="60.0990600586" lon="15.5059452057">
        <ele>0</ele>
        <time>2013-05-01T11:54:24Z</time>
      </trkpt>
      <trkpt lat="60.0991210938" lon="15.5058422089">
        <ele>0</ele>
        <time>2013-05-01T11:54:25Z</time>
      </trkpt>
      <trkpt lat="60.0991821289" lon="15.5057411194">
        <ele>0</ele>
        <time>2013-05-01T11:54:26Z</time>
      </trkpt>
      <trkpt lat="60.0992164612" lon="15.5056743622">
        <ele>0</ele>
        <time>2013-05-01T11:54:27Z</time>
      </trkpt>
      <trkpt lat="60.0992851257" lon="15.5055475235">
        <ele>0</ele>
        <time>2013-05-01T11:54:28Z</time>
      </trkpt>
      <trkpt lat="60.0993461609" lon="15.5054454803">
        <ele>0</ele>
        <time>2013-05-01T11:54:29Z</time>
      </trkpt>
      <trkpt lat="60.0994033813" lon="15.5053472519">
        <ele>0</ele>
        <time>2013-05-01T11:54:30Z</time>
      </trkpt>
      <trkpt lat="60.099445343" lon="15.5052671432">
        <ele>0</ele>
        <time>2013-05-01T11:54:31Z</time>
      </trkpt>
      <trkpt lat="60.0996322632" lon="15.5049438477">
        <ele>0</ele>
        <time>2013-05-01T11:54:34Z</time>
      </trkpt>
      <trkpt lat="60.0996780396" lon="15.5048713684">
        <ele>0</ele>
        <time>2013-05-01T11:54:35Z</time>
      </trkpt>
      <trkpt lat="60.0997505188" lon="15.5047464371">
        <ele>0</ele>
        <time>2013-05-01T11:54:36Z</time>
      </trkpt>
      <trkpt lat="60.0998001099" lon="15.504658699">
        <ele>0</ele>
        <time>2013-05-01T11:54:37Z</time>
      </trkpt>
      <trkpt lat="60.0998687744" lon="15.5045471191">
        <ele>0</ele>
        <time>2013-05-01T11:54:38Z</time>
      </trkpt>
      <trkpt lat="60.0999183655" lon="15.5044698715">
        <ele>0</ele>
        <time>2013-05-01T11:54:39Z</time>
      </trkpt>
      <trkpt lat="60.09998703" lon="15.5043535233">
        <ele>0</ele>
        <time>2013-05-01T11:54:40Z</time>
      </trkpt>
      <trkpt lat="60.1000518799" lon="15.5042419434">
        <ele>0</ele>
        <time>2013-05-01T11:54:41Z</time>
      </trkpt>
      <trkpt lat="60.100112915" lon="15.5041351318">
        <ele>0</ele>
        <time>2013-05-01T11:54:42Z</time>
      </trkpt>
      <trkpt lat="60.1001625061" lon="15.5040435791">
        <ele>0</ele>
        <time>2013-05-01T11:54:43Z</time>
      </trkpt>
      <trkpt lat="60.1002349854" lon="15.5039234161">
        <ele>0</ele>
        <time>2013-05-01T11:54:44Z</time>
      </trkpt>
      <trkpt lat="60.1002960205" lon="15.5038156509">
        <ele>0</ele>
        <time>2013-05-01T11:54:45Z</time>
      </trkpt>
      <trkpt lat="60.100353241" lon="15.5037155151">
        <ele>0</ele>
        <time>2013-05-01T11:54:46Z</time>
      </trkpt>
      <trkpt lat="60.1003837585" lon="15.5036659241">
        <ele>0</ele>
        <time>2013-05-01T11:54:47Z</time>
      </trkpt>
      <trkpt lat="60.1004676819" lon="15.5035200119">
        <ele>0</ele>
        <time>2013-05-01T11:54:48Z</time>
      </trkpt>
      <trkpt lat="60.1005363464" lon="15.5034093857">
        <ele>0</ele>
        <time>2013-05-01T11:54:49Z</time>
      </trkpt>
      <trkpt lat="60.1005935669" lon="15.5033102036">
        <ele>0</ele>
        <time>2013-05-01T11:54:50Z</time>
      </trkpt>
      <trkpt lat="60.100643158" lon="15.5032196045">
        <ele>0</ele>
        <time>2013-05-01T11:54:51Z</time>
      </trkpt>
      <trkpt lat="60.1007041931" lon="15.5031118393">
        <ele>0</ele>
        <time>2013-05-01T11:54:52Z</time>
      </trkpt>
      <trkpt lat="60.1008415222" lon="15.5028867722">
        <ele>0</ele>
        <time>2013-05-01T11:54:54Z</time>
      </trkpt>
      <trkpt lat="60.1008872986" lon="15.5028047562">
        <ele>0</ele>
        <time>2013-05-01T11:54:55Z</time>
      </trkpt>
      <trkpt lat="60.1011352539" lon="15.5023775101">
        <ele>0</ele>
        <time>2013-05-01T11:54:59Z</time>
      </trkpt>
      <trkpt lat="60.1011962891" lon="15.50228405">
        <ele>0</ele>
        <time>2013-05-01T11:55:00Z</time>
      </trkpt>
      <trkpt lat="60.1012535095" lon="15.5021848679">
        <ele>0</ele>
        <time>2013-05-01T11:55:01Z</time>
      </trkpt>
      <trkpt lat="60.1013641357" lon="15.5019931793">
        <ele>0</ele>
        <time>2013-05-01T11:55:03Z</time>
      </trkpt>
      <trkpt lat="60.1015853882" lon="15.5015935898">
        <ele>0</ele>
        <time>2013-05-01T11:55:07Z</time>
      </trkpt>
      <trkpt lat="60.1016616821" lon="15.5014648438">
        <ele>0</ele>
        <time>2013-05-01T11:55:08Z</time>
      </trkpt>
      <trkpt lat="60.101726532" lon="15.5013494492">
        <ele>0</ele>
        <time>2013-05-01T11:55:09Z</time>
      </trkpt>
      <trkpt lat="60.1017875671" lon="15.5012493134">
        <ele>0</ele>
        <time>2013-05-01T11:55:10Z</time>
      </trkpt>
      <trkpt lat="60.1018295288" lon="15.5011749268">
        <ele>0</ele>
        <time>2013-05-01T11:55:11Z</time>
      </trkpt>
      <trkpt lat="60.1018981934" lon="15.5010585785">
        <ele>0</ele>
        <time>2013-05-01T11:55:12Z</time>
      </trkpt>
      <trkpt lat="60.1019744873" lon="15.5009393692">
        <ele>0</ele>
        <time>2013-05-01T11:55:13Z</time>
      </trkpt>
      <trkpt lat="60.1020355225" lon="15.5008411407">
        <ele>0</ele>
        <time>2013-05-01T11:55:14Z</time>
      </trkpt>
      <trkpt lat="60.1020812988" lon="15.5007648468">
        <ele>0</ele>
        <time>2013-05-01T11:55:15Z</time>
      </trkpt>
      <trkpt lat="60.1021537781" lon="15.5006504059">
        <ele>0</ele>
        <time>2013-05-01T11:55:16Z</time>
      </trkpt>
      <trkpt lat="60.1022109985" lon="15.5005664825">
        <ele>0</ele>
        <time>2013-05-01T11:55:17Z</time>
      </trkpt>
      <trkpt lat="60.1022834778" lon="15.5004501343">
        <ele>0</ele>
        <time>2013-05-01T11:55:18Z</time>
      </trkpt>
      <trkpt lat="60.1023330688" lon="15.5003728867">
        <ele>0</ele>
        <time>2013-05-01T11:55:19Z</time>
      </trkpt>
      <trkpt lat="60.1024055481" lon="15.5002574921">
        <ele>0</ele>
        <time>2013-05-01T11:55:20Z</time>
      </trkpt>
      <trkpt lat="60.1024780273" lon="15.5001506805">
        <ele>0</ele>
        <time>2013-05-01T11:55:21Z</time>
      </trkpt>
      <trkpt lat="60.1028137207" lon="15.4996747971">
        <ele>0</ele>
        <time>2013-05-01T11:55:26Z</time>
      </trkpt>
      <trkpt lat="60.1028556824" lon="15.4996099472">
        <ele>0</ele>
        <time>2013-05-01T11:55:27Z</time>
      </trkpt>
      <trkpt lat="60.1029434204" lon="15.4994840622">
        <ele>0</ele>
        <time>2013-05-01T11:55:28Z</time>
      </trkpt>
      <trkpt lat="60.1030158997" lon="15.4993867874">
        <ele>0</ele>
        <time>2013-05-01T11:55:29Z</time>
      </trkpt>
      <trkpt lat="60.1030883789" lon="15.499288559">
        <ele>0</ele>
        <time>2013-05-01T11:55:30Z</time>
      </trkpt>
      <trkpt lat="60.1031494141" lon="15.499215126">
        <ele>0</ele>
        <time>2013-05-01T11:55:31Z</time>
      </trkpt>
      <trkpt lat="60.1032295227" lon="15.4991188049">
        <ele>0</ele>
        <time>2013-05-01T11:55:32Z</time>
      </trkpt>
      <trkpt lat="60.103313446" lon="15.4990081787">
        <ele>0</ele>
        <time>2013-05-01T11:55:33Z</time>
      </trkpt>
      <trkpt lat="60.10338974" lon="15.4989147186">
        <ele>0</ele>
        <time>2013-05-01T11:55:34Z</time>
      </trkpt>
      <trkpt lat="60.1034431458" lon="15.4988460541">
        <ele>0</ele>
        <time>2013-05-01T11:55:35Z</time>
      </trkpt>
      <trkpt lat="60.1035346985" lon="15.4987287521">
        <ele>0</ele>
        <time>2013-05-01T11:55:36Z</time>
      </trkpt>
      <trkpt lat="60.103603363" lon="15.4986448288">
        <ele>0</ele>
        <time>2013-05-01T11:55:37Z</time>
      </trkpt>
      <trkpt lat="60.1036949158" lon="15.4985342026">
        <ele>0</ele>
        <time>2013-05-01T11:55:38Z</time>
      </trkpt>
      <trkpt lat="60.1037635803" lon="15.4984531403">
        <ele>0</ele>
        <time>2013-05-01T11:55:39Z</time>
      </trkpt>
      <trkpt lat="60.1038551331" lon="15.4983415604">
        <ele>0</ele>
        <time>2013-05-01T11:55:40Z</time>
      </trkpt>
      <trkpt lat="60.1039428711" lon="15.4982481003">
        <ele>0</ele>
        <time>2013-05-01T11:55:41Z</time>
      </trkpt>
      <trkpt lat="60.1040267944" lon="15.4981555939">
        <ele>0</ele>
        <time>2013-05-01T11:55:42Z</time>
      </trkpt>
      <trkpt lat="60.1040840149" lon="15.4980916977">
        <ele>0</ele>
        <time>2013-05-01T11:55:43Z</time>
      </trkpt>
      <trkpt lat="60.1041755676" lon="15.4979887009">
        <ele>0</ele>
        <time>2013-05-01T11:55:44Z</time>
      </trkpt>
      <trkpt lat="60.1042633057" lon="15.4978952408">
        <ele>0</ele>
        <time>2013-05-01T11:55:45Z</time>
      </trkpt>
      <trkpt lat="60.1043548584" lon="15.4977960587">
        <ele>0</ele>
        <time>2013-05-01T11:55:46Z</time>
      </trkpt>
      <trkpt lat="60.1044044495" lon="15.4977493286">
        <ele>0</ele>
        <time>2013-05-01T11:55:47Z</time>
      </trkpt>
      <trkpt lat="60.1045150757" lon="15.4976358414">
        <ele>0</ele>
        <time>2013-05-01T11:55:48Z</time>
      </trkpt>
      <trkpt lat="60.1046066284" lon="15.4975509644">
        <ele>0</ele>
        <time>2013-05-01T11:55:49Z</time>
      </trkpt>
      <trkpt lat="60.1047973633" lon="15.4973659515">
        <ele>0</ele>
        <time>2013-05-01T11:55:51Z</time>
      </trkpt>
      <trkpt lat="60.1048698425" lon="15.4972867966">
        <ele>0</ele>
        <time>2013-05-01T11:55:52Z</time>
      </trkpt>
      <trkpt lat="60.1049766541" lon="15.4971780777">
        <ele>0</ele>
        <time>2013-05-01T11:55:53Z</time>
      </trkpt>
      <trkpt lat="60.1050605774" lon="15.4970846176">
        <ele>0</ele>
        <time>2013-05-01T11:55:54Z</time>
      </trkpt>
      <trkpt lat="60.1051330566" lon="15.497010231">
        <ele>0</ele>
        <time>2013-05-01T11:55:55Z</time>
      </trkpt>
      <trkpt lat="60.1052436829" lon="15.4968938828">
        <ele>0</ele>
        <time>2013-05-01T11:55:56Z</time>
      </trkpt>
      <trkpt lat="60.1053352356" lon="15.496805191">
        <ele>0</ele>
        <time>2013-05-01T11:55:57Z</time>
      </trkpt>
      <trkpt lat="60.1054344177" lon="15.4967079163">
        <ele>0</ele>
        <time>2013-05-01T11:55:58Z</time>
      </trkpt>
      <trkpt lat="60.1055335999" lon="15.4966049194">
        <ele>0</ele>
        <time>2013-05-01T11:55:59Z</time>
      </trkpt>
      <trkpt lat="60.1056251526" lon="15.4965133667">
        <ele>0</ele>
        <time>2013-05-01T11:56:00Z</time>
      </trkpt>
      <trkpt lat="60.1057167053" lon="15.4964237213">
        <ele>0</ele>
        <time>2013-05-01T11:56:01Z</time>
      </trkpt>
      <trkpt lat="60.1058082581" lon="15.4963302612">
        <ele>0</ele>
        <time>2013-05-01T11:56:02Z</time>
      </trkpt>
      <trkpt lat="60.1058959961" lon="15.4962396622">
        <ele>0</ele>
        <time>2013-05-01T11:56:03Z</time>
      </trkpt>
      <trkpt lat="60.10597229" lon="15.4961671829">
        <ele>0</ele>
        <time>2013-05-01T11:56:04Z</time>
      </trkpt>
      <trkpt lat="60.1060676575" lon="15.4960699081">
        <ele>0</ele>
        <time>2013-05-01T11:56:05Z</time>
      </trkpt>
      <trkpt lat="60.1061286926" lon="15.4960069656">
        <ele>0</ele>
        <time>2013-05-01T11:56:06Z</time>
      </trkpt>
      <trkpt lat="60.106212616" lon="15.4959230423">
        <ele>0</ele>
        <time>2013-05-01T11:56:07Z</time>
      </trkpt>
      <trkpt lat="60.1063346863" lon="15.4958028793">
        <ele>0</ele>
        <time>2013-05-01T11:56:08Z</time>
      </trkpt>
      <trkpt lat="60.1064300537" lon="15.4957008362">
        <ele>0</ele>
        <time>2013-05-01T11:56:09Z</time>
      </trkpt>
      <trkpt lat="60.1065254211" lon="15.4955997467">
        <ele>0</ele>
        <time>2013-05-01T11:56:10Z</time>
      </trkpt>
      <trkpt lat="60.1065864563" lon="15.4955377579">
        <ele>0</ele>
        <time>2013-05-01T11:56:11Z</time>
      </trkpt>
      <trkpt lat="60.1070671082" lon="15.4950532913">
        <ele>0</ele>
        <time>2013-05-01T11:56:16Z</time>
      </trkpt>
      <trkpt lat="60.1071472168" lon="15.494969368">
        <ele>0</ele>
        <time>2013-05-01T11:56:17Z</time>
      </trkpt>
      <trkpt lat="60.1072502136" lon="15.4948596954">
        <ele>0</ele>
        <time>2013-05-01T11:56:18Z</time>
      </trkpt>
      <trkpt lat="60.1076583862" lon="15.4944009781">
        <ele>0</ele>
        <time>2013-05-01T11:56:23Z</time>
      </trkpt>
      <trkpt lat="60.1077613831" lon="15.4942722321">
        <ele>0</ele>
        <time>2013-05-01T11:56:24Z</time>
      </trkpt>
      <trkpt lat="60.1078453064" lon="15.4941768646">
        <ele>0</ele>
        <time>2013-05-01T11:56:25Z</time>
      </trkpt>
      <trkpt lat="60.1079330444" lon="15.4940681458">
        <ele>0</ele>
        <time>2013-05-01T11:56:26Z</time>
      </trkpt>
      <trkpt lat="60.1079864502" lon="15.4939985275">
        <ele>0</ele>
        <time>2013-05-01T11:56:27Z</time>
      </trkpt>
      <trkpt lat="60.1080856323" lon="15.4938611984">
        <ele>0</ele>
        <time>2013-05-01T11:56:28Z</time>
      </trkpt>
      <trkpt lat="60.1081733704" lon="15.4937496185">
        <ele>0</ele>
        <time>2013-05-01T11:56:29Z</time>
      </trkpt>
      <trkpt lat="60.1082611084" lon="15.4936332703">
        <ele>0</ele>
        <time>2013-05-01T11:56:30Z</time>
      </trkpt>
      <trkpt lat="60.1083259583" lon="15.4935417175">
        <ele>0</ele>
        <time>2013-05-01T11:56:31Z</time>
      </trkpt>
      <trkpt lat="60.1084213257" lon="15.4934034348">
        <ele>0</ele>
        <time>2013-05-01T11:56:32Z</time>
      </trkpt>
      <trkpt lat="60.1085128784" lon="15.4932556152">
        <ele>0</ele>
        <time>2013-05-01T11:56:33Z</time>
      </trkpt>
      <trkpt lat="60.1086006165" lon="15.493142128">
        <ele>0</ele>
        <time>2013-05-01T11:56:34Z</time>
      </trkpt>
      <trkpt lat="60.1086502075" lon="15.4930419922">
        <ele>0</ele>
        <time>2013-05-01T11:56:35Z</time>
      </trkpt>
      <trkpt lat="60.108833313" lon="15.4927711487">
        <ele>0</ele>
        <time>2013-05-01T11:56:37Z</time>
      </trkpt>
      <trkpt lat="60.1089172363" lon="15.4926137924">
        <ele>0</ele>
        <time>2013-05-01T11:56:38Z</time>
      </trkpt>
      <trkpt lat="60.1090621948" lon="15.4923763275">
        <ele>0</ele>
        <time>2013-05-01T11:56:40Z</time>
      </trkpt>
      <trkpt lat="60.1092071533" lon="15.4921102524">
        <ele>0</ele>
        <time>2013-05-01T11:56:42Z</time>
      </trkpt>
      <trkpt lat="60.1092643738" lon="15.4919996262">
        <ele>0</ele>
        <time>2013-05-01T11:56:43Z</time>
      </trkpt>
      <trkpt lat="60.1093444824" lon="15.4918317795">
        <ele>0</ele>
        <time>2013-05-01T11:56:44Z</time>
      </trkpt>
      <trkpt lat="60.1094284058" lon="15.4916524887">
        <ele>0</ele>
        <time>2013-05-01T11:56:45Z</time>
      </trkpt>
      <trkpt lat="60.1095466614" lon="15.4914102554">
        <ele>0</ele>
        <time>2013-05-01T11:56:47Z</time>
      </trkpt>
      <trkpt lat="60.1096191406" lon="15.4912538528">
        <ele>0</ele>
        <time>2013-05-01T11:56:48Z</time>
      </trkpt>
      <trkpt lat="60.1096954346" lon="15.4910955429">
        <ele>0</ele>
        <time>2013-05-01T11:56:49Z</time>
      </trkpt>
      <trkpt lat="60.1098442078" lon="15.4907693863">
        <ele>0</ele>
        <time>2013-05-01T11:56:51Z</time>
      </trkpt>
      <trkpt lat="60.1098937988" lon="15.490644455">
        <ele>0</ele>
        <time>2013-05-01T11:56:52Z</time>
      </trkpt>
      <trkpt lat="60.1099624634" lon="15.4904880524">
        <ele>0</ele>
        <time>2013-05-01T11:56:53Z</time>
      </trkpt>
      <trkpt lat="60.1100349426" lon="15.4903097153">
        <ele>0</ele>
        <time>2013-05-01T11:56:54Z</time>
      </trkpt>
      <trkpt lat="60.1100769043" lon="15.4901828766">
        <ele>0</ele>
        <time>2013-05-01T11:56:55Z</time>
      </trkpt>
      <trkpt lat="60.1101455688" lon="15.4900178909">
        <ele>0</ele>
        <time>2013-05-01T11:56:56Z</time>
      </trkpt>
      <trkpt lat="60.1102142334" lon="15.489859581">
        <ele>0</ele>
        <time>2013-05-01T11:56:57Z</time>
      </trkpt>
      <trkpt lat="60.1102714539" lon="15.48969841">
        <ele>0</ele>
        <time>2013-05-01T11:56:58Z</time>
      </trkpt>
      <trkpt lat="60.1103286743" lon="15.4895706177">
        <ele>0</ele>
        <time>2013-05-01T11:56:59Z</time>
      </trkpt>
      <trkpt lat="60.1103935242" lon="15.4894065857">
        <ele>0</ele>
        <time>2013-05-01T11:57:00Z</time>
      </trkpt>
      <trkpt lat="60.1104545593" lon="15.4892425537">
        <ele>0</ele>
        <time>2013-05-01T11:57:01Z</time>
      </trkpt>
      <trkpt lat="60.1105079651" lon="15.4890890121">
        <ele>0</ele>
        <time>2013-05-01T11:57:02Z</time>
      </trkpt>
      <trkpt lat="60.1105613708" lon="15.4889726639">
        <ele>0</ele>
        <time>2013-05-01T11:57:03Z</time>
      </trkpt>
      <trkpt lat="60.1106338501" lon="15.4888401031">
        <ele>0</ele>
        <time>2013-05-01T11:57:04Z</time>
      </trkpt>
      <trkpt lat="60.1107673645" lon="15.4885511398">
        <ele>0</ele>
        <time>2013-05-01T11:57:06Z</time>
      </trkpt>
      <trkpt lat="60.1108016968" lon="15.4884529114">
        <ele>0</ele>
        <time>2013-05-01T11:57:07Z</time>
      </trkpt>
      <trkpt lat="60.1108818054" lon="15.488275528">
        <ele>0</ele>
        <time>2013-05-01T11:57:08Z</time>
      </trkpt>
      <trkpt lat="60.1109428406" lon="15.488114357">
        <ele>0</ele>
        <time>2013-05-01T11:57:09Z</time>
      </trkpt>
      <trkpt lat="60.111000061" lon="15.4879627228">
        <ele>0</ele>
        <time>2013-05-01T11:57:10Z</time>
      </trkpt>
      <trkpt lat="60.1110534668" lon="15.4878482819">
        <ele>0</ele>
        <time>2013-05-01T11:57:11Z</time>
      </trkpt>
      <trkpt lat="60.111125946" lon="15.4876842499">
        <ele>0</ele>
        <time>2013-05-01T11:57:12Z</time>
      </trkpt>
      <trkpt lat="60.1112060547" lon="15.4875068665">
        <ele>0</ele>
        <time>2013-05-01T11:57:13Z</time>
      </trkpt>
      <trkpt lat="60.1112670898" lon="15.4873580933">
        <ele>0</ele>
        <time>2013-05-01T11:57:14Z</time>
      </trkpt>
      <trkpt lat="60.1113166809" lon="15.4872341156">
        <ele>0</ele>
        <time>2013-05-01T11:57:15Z</time>
      </trkpt>
      <trkpt lat="60.1113891602" lon="15.4870662689">
        <ele>0</ele>
        <time>2013-05-01T11:57:16Z</time>
      </trkpt>
      <trkpt lat="60.1114501953" lon="15.4869422913">
        <ele>0</ele>
        <time>2013-05-01T11:57:17Z</time>
      </trkpt>
      <trkpt lat="60.1115837097" lon="15.4866371155">
        <ele>0</ele>
        <time>2013-05-01T11:57:19Z</time>
      </trkpt>
      <trkpt lat="60.1116600037" lon="15.4864749908">
        <ele>0</ele>
        <time>2013-05-01T11:57:20Z</time>
      </trkpt>
      <trkpt lat="60.1117324829" lon="15.4863204956">
        <ele>0</ele>
        <time>2013-05-01T11:57:21Z</time>
      </trkpt>
      <trkpt lat="60.1117935181" lon="15.4861888885">
        <ele>0</ele>
        <time>2013-05-01T11:57:22Z</time>
      </trkpt>
      <trkpt lat="60.1118431091" lon="15.4860754013">
        <ele>0</ele>
        <time>2013-05-01T11:57:23Z</time>
      </trkpt>
      <trkpt lat="60.1119270325" lon="15.4858970642">
        <ele>0</ele>
        <time>2013-05-01T11:57:24Z</time>
      </trkpt>
      <trkpt lat="60.1119918823" lon="15.4857578278">
        <ele>0</ele>
        <time>2013-05-01T11:57:25Z</time>
      </trkpt>
      <trkpt lat="60.1120605469" lon="15.4856004715">
        <ele>0</ele>
        <time>2013-05-01T11:57:26Z</time>
      </trkpt>
      <trkpt lat="60.1121025085" lon="15.4855041504">
        <ele>0</ele>
        <time>2013-05-01T11:57:27Z</time>
      </trkpt>
      <trkpt lat="60.1122512817" lon="15.4851732254">
        <ele>0</ele>
        <time>2013-05-01T11:57:29Z</time>
      </trkpt>
      <trkpt lat="60.1124420166" lon="15.4847450256">
        <ele>0</ele>
        <time>2013-05-01T11:57:32Z</time>
      </trkpt>
      <trkpt lat="60.1127738953" lon="15.4839954376">
        <ele>0</ele>
        <time>2013-05-01T11:57:37Z</time>
      </trkpt>
      <trkpt lat="60.1128997803" lon="15.4837064743">
        <ele>0</ele>
        <time>2013-05-01T11:57:39Z</time>
      </trkpt>
      <trkpt lat="60.1129837036" lon="15.4835166931">
        <ele>0</ele>
        <time>2013-05-01T11:57:40Z</time>
      </trkpt>
      <trkpt lat="60.1130485535" lon="15.4833707809">
        <ele>0</ele>
        <time>2013-05-01T11:57:41Z</time>
      </trkpt>
      <trkpt lat="60.1131134033" lon="15.4832172394">
        <ele>0</ele>
        <time>2013-05-01T11:57:42Z</time>
      </trkpt>
      <trkpt lat="60.1131706238" lon="15.4830856323">
        <ele>0</ele>
        <time>2013-05-01T11:57:43Z</time>
      </trkpt>
      <trkpt lat="60.1132507324" lon="15.4829025269">
        <ele>0</ele>
        <time>2013-05-01T11:57:44Z</time>
      </trkpt>
      <trkpt lat="60.1133270264" lon="15.4827365875">
        <ele>0</ele>
        <time>2013-05-01T11:57:45Z</time>
      </trkpt>
      <trkpt lat="60.1133956909" lon="15.482583046">
        <ele>0</ele>
        <time>2013-05-01T11:57:46Z</time>
      </trkpt>
      <trkpt lat="60.1134262085" lon="15.4825181961">
        <ele>0</ele>
        <time>2013-05-01T11:57:47Z</time>
      </trkpt>
      <trkpt lat="60.1135253906" lon="15.482298851">
        <ele>0</ele>
        <time>2013-05-01T11:57:48Z</time>
      </trkpt>
      <trkpt lat="60.1136016846" lon="15.4821300507">
        <ele>0</ele>
        <time>2013-05-01T11:57:49Z</time>
      </trkpt>
      <trkpt lat="60.1136741638" lon="15.4819841385">
        <ele>0</ele>
        <time>2013-05-01T11:57:50Z</time>
      </trkpt>
      <trkpt lat="60.1137237549" lon="15.4818744659">
        <ele>0</ele>
        <time>2013-05-01T11:57:51Z</time>
      </trkpt>
      <trkpt lat="60.1138839722" lon="15.4815721512">
        <ele>0</ele>
        <time>2013-05-01T11:57:53Z</time>
      </trkpt>
      <trkpt lat="60.1141700745" lon="15.4810314178">
        <ele>0</ele>
        <time>2013-05-01T11:57:57Z</time>
      </trkpt>
      <trkpt lat="60.1142578125" lon="15.4808883667">
        <ele>0</ele>
        <time>2013-05-01T11:57:58Z</time>
      </trkpt>
      <trkpt lat="60.1143112183" lon="15.4807958603">
        <ele>0</ele>
        <time>2013-05-01T11:57:59Z</time>
      </trkpt>
      <trkpt lat="60.1144065857" lon="15.4806413651">
        <ele>0</ele>
        <time>2013-05-01T11:58:00Z</time>
      </trkpt>
      <trkpt lat="60.1144943237" lon="15.4805088043">
        <ele>0</ele>
        <time>2013-05-01T11:58:01Z</time>
      </trkpt>
      <trkpt lat="60.1145706177" lon="15.4803905487">
        <ele>0</ele>
        <time>2013-05-01T11:58:02Z</time>
      </trkpt>
      <trkpt lat="60.1146316528" lon="15.4802913666">
        <ele>0</ele>
        <time>2013-05-01T11:58:03Z</time>
      </trkpt>
      <trkpt lat="60.1147270203" lon="15.4801483154">
        <ele>0</ele>
        <time>2013-05-01T11:58:04Z</time>
      </trkpt>
      <trkpt lat="60.1148033142" lon="15.4800348282">
        <ele>0</ele>
        <time>2013-05-01T11:58:05Z</time>
      </trkpt>
      <trkpt lat="60.1148910522" lon="15.4799070358">
        <ele>0</ele>
        <time>2013-05-01T11:58:06Z</time>
      </trkpt>
      <trkpt lat="60.114944458" lon="15.4798316956">
        <ele>0</ele>
        <time>2013-05-01T11:58:07Z</time>
      </trkpt>
      <trkpt lat="60.1150474548" lon="15.4796915054">
        <ele>0</ele>
        <time>2013-05-01T11:58:08Z</time>
      </trkpt>
      <trkpt lat="60.1151313782" lon="15.4795761108">
        <ele>0</ele>
        <time>2013-05-01T11:58:09Z</time>
      </trkpt>
      <trkpt lat="60.1152076721" lon="15.4794788361">
        <ele>0</ele>
        <time>2013-05-01T11:58:10Z</time>
      </trkpt>
      <trkpt lat="60.1152648926" lon="15.4794063568">
        <ele>0</ele>
        <time>2013-05-01T11:58:11Z</time>
      </trkpt>
      <trkpt lat="60.1153564453" lon="15.4792890549">
        <ele>0</ele>
        <time>2013-05-01T11:58:12Z</time>
      </trkpt>
      <trkpt lat="60.115447998" lon="15.479174614">
        <ele>0</ele>
        <time>2013-05-01T11:58:13Z</time>
      </trkpt>
      <trkpt lat="60.115524292" lon="15.4790849686">
        <ele>0</ele>
        <time>2013-05-01T11:58:14Z</time>
      </trkpt>
      <trkpt lat="60.1155853271" lon="15.4790229797">
        <ele>0</ele>
        <time>2013-05-01T11:58:15Z</time>
      </trkpt>
      <trkpt lat="60.1157417297" lon="15.4788541794">
        <ele>0</ele>
        <time>2013-05-01T11:58:17Z</time>
      </trkpt>
      <trkpt lat="60.1158370972" lon="15.4787492752">
        <ele>0</ele>
        <time>2013-05-01T11:58:18Z</time>
      </trkpt>
      <trkpt lat="60.1159896851" lon="15.4785900116">
        <ele>0</ele>
        <time>2013-05-01T11:58:20Z</time>
      </trkpt>
      <trkpt lat="60.1160736084" lon="15.4785032272">
        <ele>0</ele>
        <time>2013-05-01T11:58:21Z</time>
      </trkpt>
      <trkpt lat="60.1161460876" lon="15.4784326553">
        <ele>0</ele>
        <time>2013-05-01T11:58:22Z</time>
      </trkpt>
      <trkpt lat="60.1162071228" lon="15.4783744812">
        <ele>0</ele>
        <time>2013-05-01T11:58:23Z</time>
      </trkpt>
      <trkpt lat="60.1163024902" lon="15.4782800674">
        <ele>0</ele>
        <time>2013-05-01T11:58:24Z</time>
      </trkpt>
      <trkpt lat="60.1163902283" lon="15.4781942368">
        <ele>0</ele>
        <time>2013-05-01T11:58:25Z</time>
      </trkpt>
      <trkpt lat="60.1165122986" lon="15.4780883789">
        <ele>0</ele>
        <time>2013-05-01T11:58:27Z</time>
      </trkpt>
      <trkpt lat="60.1166114807" lon="15.4780054092">
        <ele>0</ele>
        <time>2013-05-01T11:58:28Z</time>
      </trkpt>
      <trkpt lat="60.1166915894" lon="15.477938652">
        <ele>0</ele>
        <time>2013-05-01T11:58:29Z</time>
      </trkpt>
      <trkpt lat="60.116771698" lon="15.4778728485">
        <ele>0</ele>
        <time>2013-05-01T11:58:30Z</time>
      </trkpt>
      <trkpt lat="60.1168327332" lon="15.4778280258">
        <ele>0</ele>
        <time>2013-05-01T11:58:31Z</time>
      </trkpt>
      <trkpt lat="60.1169128418" lon="15.4777669907">
        <ele>0</ele>
        <time>2013-05-01T11:58:32Z</time>
      </trkpt>
      <trkpt lat="60.1170005798" lon="15.4776954651">
        <ele>0</ele>
        <time>2013-05-01T11:58:33Z</time>
      </trkpt>
      <trkpt lat="60.1170730591" lon="15.477640152">
        <ele>0</ele>
        <time>2013-05-01T11:58:34Z</time>
      </trkpt>
      <trkpt lat="60.1171264648" lon="15.477602005">
        <ele>0</ele>
        <time>2013-05-01T11:58:35Z</time>
      </trkpt>
      <trkpt lat="60.1172142029" lon="15.4775409698">
        <ele>0</ele>
        <time>2013-05-01T11:58:36Z</time>
      </trkpt>
      <trkpt lat="60.1172828674" lon="15.4774932861">
        <ele>0</ele>
        <time>2013-05-01T11:58:37Z</time>
      </trkpt>
      <trkpt lat="60.1173629761" lon="15.477432251">
        <ele>0</ele>
        <time>2013-05-01T11:58:38Z</time>
      </trkpt>
      <trkpt lat="60.1174201965" lon="15.4773874283">
        <ele>0</ele>
        <time>2013-05-01T11:58:39Z</time>
      </trkpt>
      <trkpt lat="60.1175727844" lon="15.4772720337">
        <ele>0</ele>
        <time>2013-05-01T11:58:41Z</time>
      </trkpt>
      <trkpt lat="60.1176452637" lon="15.4772186279">
        <ele>0</ele>
        <time>2013-05-01T11:58:42Z</time>
      </trkpt>
      <trkpt lat="60.1177749634" lon="15.4771118164">
        <ele>0</ele>
        <time>2013-05-01T11:58:44Z</time>
      </trkpt>
      <trkpt lat="60.1178436279" lon="15.4770593643">
        <ele>0</ele>
        <time>2013-05-01T11:58:45Z</time>
      </trkpt>
      <trkpt lat="60.1179351807" lon="15.4769916534">
        <ele>0</ele>
        <time>2013-05-01T11:58:47Z</time>
      </trkpt>
      <trkpt lat="60.1180419922" lon="15.4769067764">
        <ele>0</ele>
        <time>2013-05-01T11:58:48Z</time>
      </trkpt>
      <trkpt lat="60.1181182861" lon="15.4768438339">
        <ele>0</ele>
        <time>2013-05-01T11:58:49Z</time>
      </trkpt>
      <trkpt lat="60.1181869507" lon="15.4767942429">
        <ele>0</ele>
        <time>2013-05-01T11:58:50Z</time>
      </trkpt>
      <trkpt lat="60.1183166504" lon="15.4766941071">
        <ele>0</ele>
        <time>2013-05-01T11:58:52Z</time>
      </trkpt>
      <trkpt lat="60.1183891296" lon="15.4766378403">
        <ele>0</ele>
        <time>2013-05-01T11:58:53Z</time>
      </trkpt>
      <trkpt lat="60.1184577942" lon="15.4765815735">
        <ele>0</ele>
        <time>2013-05-01T11:58:54Z</time>
      </trkpt>
      <trkpt lat="60.118522644" lon="15.4765291214">
        <ele>0</ele>
        <time>2013-05-01T11:58:55Z</time>
      </trkpt>
      <trkpt lat="60.1185913086" lon="15.4764719009">
        <ele>0</ele>
        <time>2013-05-01T11:58:56Z</time>
      </trkpt>
      <trkpt lat="60.1186523438" lon="15.4764232635">
        <ele>0</ele>
        <time>2013-05-01T11:58:57Z</time>
      </trkpt>
      <trkpt lat="60.1188163757" lon="15.4762849808">
        <ele>0</ele>
        <time>2013-05-01T11:59:00Z</time>
      </trkpt>
      <trkpt lat="60.1189155579" lon="15.4762048721">
        <ele>0</ele>
        <time>2013-05-01T11:59:01Z</time>
      </trkpt>
      <trkpt lat="60.1189727783" lon="15.4761552811">
        <ele>0</ele>
        <time>2013-05-01T11:59:02Z</time>
      </trkpt>
      <trkpt lat="60.1190605164" lon="15.4760780334">
        <ele>0</ele>
        <time>2013-05-01T11:59:03Z</time>
      </trkpt>
      <trkpt lat="60.1191329956" lon="15.4760141373">
        <ele>0</ele>
        <time>2013-05-01T11:59:04Z</time>
      </trkpt>
      <trkpt lat="60.1191940308" lon="15.4759664536">
        <ele>0</ele>
        <time>2013-05-01T11:59:05Z</time>
      </trkpt>
      <trkpt lat="60.1192626953" lon="15.4759063721">
        <ele>0</ele>
        <time>2013-05-01T11:59:06Z</time>
      </trkpt>
      <trkpt lat="60.1193275452" lon="15.4758491516">
        <ele>0</ele>
        <time>2013-05-01T11:59:07Z</time>
      </trkpt>
      <trkpt lat="60.1194038391" lon="15.4757785797">
        <ele>0</ele>
        <time>2013-05-01T11:59:08Z</time>
      </trkpt>
      <trkpt lat="60.1194725037" lon="15.4757165909">
        <ele>0</ele>
        <time>2013-05-01T11:59:09Z</time>
      </trkpt>
      <trkpt lat="60.1195259094" lon="15.4756679535">
        <ele>0</ele>
        <time>2013-05-01T11:59:10Z</time>
      </trkpt>
      <trkpt lat="60.1196022034" lon="15.4755945206">
        <ele>0</ele>
        <time>2013-05-01T11:59:11Z</time>
      </trkpt>
      <trkpt lat="60.1196670532" lon="15.4755296707">
        <ele>0</ele>
        <time>2013-05-01T11:59:12Z</time>
      </trkpt>
      <trkpt lat="60.1198692322" lon="15.4753389359">
        <ele>0</ele>
        <time>2013-05-01T11:59:15Z</time>
      </trkpt>
      <trkpt lat="60.1199378967" lon="15.475271225">
        <ele>0</ele>
        <time>2013-05-01T11:59:16Z</time>
      </trkpt>
      <trkpt lat="60.1199951172" lon="15.4752101898">
        <ele>0</ele>
        <time>2013-05-01T11:59:17Z</time>
      </trkpt>
      <trkpt lat="60.1200523376" lon="15.4751520157">
        <ele>0</ele>
        <time>2013-05-01T11:59:18Z</time>
      </trkpt>
      <trkpt lat="60.1201248169" lon="15.4750680923">
        <ele>0</ele>
        <time>2013-05-01T11:59:19Z</time>
      </trkpt>
      <trkpt lat="60.1202011108" lon="15.4749975204">
        <ele>0</ele>
        <time>2013-05-01T11:59:20Z</time>
      </trkpt>
      <trkpt lat="60.1202774048" lon="15.4749240875">
        <ele>0</ele>
        <time>2013-05-01T11:59:21Z</time>
      </trkpt>
      <trkpt lat="60.1203231812" lon="15.4748773575">
        <ele>0</ele>
        <time>2013-05-01T11:59:22Z</time>
      </trkpt>
      <trkpt lat="60.1204071045" lon="15.4747896194">
        <ele>0</ele>
        <time>2013-05-01T11:59:23Z</time>
      </trkpt>
      <trkpt lat="60.1204872131" lon="15.4747085571">
        <ele>0</ele>
        <time>2013-05-01T11:59:24Z</time>
      </trkpt>
      <trkpt lat="60.1205558777" lon="15.4746370316">
        <ele>0</ele>
        <time>2013-05-01T11:59:25Z</time>
      </trkpt>
      <trkpt lat="60.1206169128" lon="15.4745740891">
        <ele>0</ele>
        <time>2013-05-01T11:59:26Z</time>
      </trkpt>
      <trkpt lat="60.1206855774" lon="15.4745035172">
        <ele>0</ele>
        <time>2013-05-01T11:59:27Z</time>
      </trkpt>
      <trkpt lat="60.120765686" lon="15.4744234085">
        <ele>0</ele>
        <time>2013-05-01T11:59:28Z</time>
      </trkpt>
      <trkpt lat="60.1208343506" lon="15.474354744">
        <ele>0</ele>
        <time>2013-05-01T11:59:29Z</time>
      </trkpt>
      <trkpt lat="60.1208877563" lon="15.4743003845">
        <ele>0</ele>
        <time>2013-05-01T11:59:30Z</time>
      </trkpt>
      <trkpt lat="60.1209831238" lon="15.4742059708">
        <ele>0</ele>
        <time>2013-05-01T11:59:31Z</time>
      </trkpt>
      <trkpt lat="60.121055603" lon="15.4741353989">
        <ele>0</ele>
        <time>2013-05-01T11:59:32Z</time>
      </trkpt>
      <trkpt lat="60.121131897" lon="15.4740571976">
        <ele>0</ele>
        <time>2013-05-01T11:59:33Z</time>
      </trkpt>
      <trkpt lat="60.1212654114" lon="15.4739236832">
        <ele>0</ele>
        <time>2013-05-01T11:59:35Z</time>
      </trkpt>
      <trkpt lat="60.1213531494" lon="15.4738388062">
        <ele>0</ele>
        <time>2013-05-01T11:59:36Z</time>
      </trkpt>
      <trkpt lat="60.1214179993" lon="15.4737682343">
        <ele>0</ele>
        <time>2013-05-01T11:59:37Z</time>
      </trkpt>
      <trkpt lat="60.1214828491" lon="15.4737014771">
        <ele>0</ele>
        <time>2013-05-01T11:59:38Z</time>
      </trkpt>
      <trkpt lat="60.1215553284" lon="15.4736289978">
        <ele>0</ele>
        <time>2013-05-01T11:59:39Z</time>
      </trkpt>
      <trkpt lat="60.1216430664" lon="15.4735374451">
        <ele>0</ele>
        <time>2013-05-01T11:59:40Z</time>
      </trkpt>
      <trkpt lat="60.1217155457" lon="15.4734659195">
        <ele>0</ele>
        <time>2013-05-01T11:59:41Z</time>
      </trkpt>
      <trkpt lat="60.1218681335" lon="15.4733200073">
        <ele>0</ele>
        <time>2013-05-01T11:59:43Z</time>
      </trkpt>
      <trkpt lat="60.1219482422" lon="15.4732351303">
        <ele>0</ele>
        <time>2013-05-01T11:59:44Z</time>
      </trkpt>
      <trkpt lat="60.1220207214" lon="15.4731616974">
        <ele>0</ele>
        <time>2013-05-01T11:59:45Z</time>
      </trkpt>
      <trkpt lat="60.1220817566" lon="15.4731054306">
        <ele>0</ele>
        <time>2013-05-01T11:59:46Z</time>
      </trkpt>
      <trkpt lat="60.1221542358" lon="15.4730319977">
        <ele>0</ele>
        <time>2013-05-01T11:59:47Z</time>
      </trkpt>
      <trkpt lat="60.1222419739" lon="15.4729413986">
        <ele>0</ele>
        <time>2013-05-01T11:59:48Z</time>
      </trkpt>
      <trkpt lat="60.1223144531" lon="15.4728651047">
        <ele>0</ele>
        <time>2013-05-01T11:59:49Z</time>
      </trkpt>
      <trkpt lat="60.1224632263" lon="15.4727153778">
        <ele>0</ele>
        <time>2013-05-01T11:59:51Z</time>
      </trkpt>
      <trkpt lat="60.1225357056" lon="15.4726409912">
        <ele>0</ele>
        <time>2013-05-01T11:59:52Z</time>
      </trkpt>
      <trkpt lat="60.1226158142" lon="15.4725646973">
        <ele>0</ele>
        <time>2013-05-01T11:59:53Z</time>
      </trkpt>
      <trkpt lat="60.1226730347" lon="15.4725046158">
        <ele>0</ele>
        <time>2013-05-01T11:59:54Z</time>
      </trkpt>
      <trkpt lat="60.1227531433" lon="15.4724225998">
        <ele>0</ele>
        <time>2013-05-01T11:59:55Z</time>
      </trkpt>
      <trkpt lat="60.1228408813" lon="15.4723320007">
        <ele>0</ele>
        <time>2013-05-01T11:59:56Z</time>
      </trkpt>
      <trkpt lat="60.1229095459" lon="15.4722595215">
        <ele>0</ele>
        <time>2013-05-01T11:59:57Z</time>
      </trkpt>
      <trkpt lat="60.1229667664" lon="15.4722013474">
        <ele>0</ele>
        <time>2013-05-01T11:59:58Z</time>
      </trkpt>
      <trkpt lat="60.1234207153" lon="15.4716968536">
        <ele>0</ele>
        <time>2013-05-01T12:00:04Z</time>
      </trkpt>
      <trkpt lat="60.1238937378" lon="15.4710550308">
        <ele>0</ele>
        <time>2013-05-01T12:00:11Z</time>
      </trkpt>
      <trkpt lat="60.1239585876" lon="15.4709529877">
        <ele>0</ele>
        <time>2013-05-01T12:00:12Z</time>
      </trkpt>
      <trkpt lat="60.1240310669" lon="15.4708490372">
        <ele>0</ele>
        <time>2013-05-01T12:00:13Z</time>
      </trkpt>
      <trkpt lat="60.1240768433" lon="15.4707679749">
        <ele>0</ele>
        <time>2013-05-01T12:00:14Z</time>
      </trkpt>
      <trkpt lat="60.1241493225" lon="15.4706497192">
        <ele>0</ele>
        <time>2013-05-01T12:00:15Z</time>
      </trkpt>
      <trkpt lat="60.1242179871" lon="15.4705352783">
        <ele>0</ele>
        <time>2013-05-01T12:00:16Z</time>
      </trkpt>
      <trkpt lat="60.1242713928" lon="15.4704427719">
        <ele>0</ele>
        <time>2013-05-01T12:00:17Z</time>
      </trkpt>
      <trkpt lat="60.1243362427" lon="15.4703350067">
        <ele>0</ele>
        <time>2013-05-01T12:00:18Z</time>
      </trkpt>
      <trkpt lat="60.1243896484" lon="15.4702453613">
        <ele>0</ele>
        <time>2013-05-01T12:00:19Z</time>
      </trkpt>
      <trkpt lat="60.1244697571" lon="15.4701042175">
        <ele>0</ele>
        <time>2013-05-01T12:00:20Z</time>
      </trkpt>
      <trkpt lat="60.1245346069" lon="15.4699850082">
        <ele>0</ele>
        <time>2013-05-01T12:00:21Z</time>
      </trkpt>
      <trkpt lat="60.1245727539" lon="15.4699077606">
        <ele>0</ele>
        <time>2013-05-01T12:00:22Z</time>
      </trkpt>
      <trkpt lat="60.1247177124" lon="15.4696292877">
        <ele>0</ele>
        <time>2013-05-01T12:00:24Z</time>
      </trkpt>
      <trkpt lat="60.1247787476" lon="15.4695072174">
        <ele>0</ele>
        <time>2013-05-01T12:00:25Z</time>
      </trkpt>
      <trkpt lat="60.1248245239" lon="15.4694051743">
        <ele>0</ele>
        <time>2013-05-01T12:00:26Z</time>
      </trkpt>
      <trkpt lat="60.1251220703" lon="15.468755722">
        <ele>0</ele>
        <time>2013-05-01T12:00:31Z</time>
      </trkpt>
      <trkpt lat="60.1251716614" lon="15.468629837">
        <ele>0</ele>
        <time>2013-05-01T12:00:32Z</time>
      </trkpt>
      <trkpt lat="60.1252365112" lon="15.4684829712">
        <ele>0</ele>
        <time>2013-05-01T12:00:33Z</time>
      </trkpt>
      <trkpt lat="60.1252822876" lon="15.4683704376">
        <ele>0</ele>
        <time>2013-05-01T12:00:35Z</time>
      </trkpt>
      <trkpt lat="60.1253166199" lon="15.4682807922">
        <ele>0</ele>
        <time>2013-05-01T12:00:36Z</time>
      </trkpt>
      <trkpt lat="60.125377655" lon="15.4681243896">
        <ele>0</ele>
        <time>2013-05-01T12:00:37Z</time>
      </trkpt>
      <trkpt lat="60.125453949" lon="15.4679203033">
        <ele>0</ele>
        <time>2013-05-01T12:00:38Z</time>
      </trkpt>
      <trkpt lat="60.1255264282" lon="15.4677305222">
        <ele>0</ele>
        <time>2013-05-01T12:00:39Z</time>
      </trkpt>
      <trkpt lat="60.1255912781" lon="15.4675607681">
        <ele>0</ele>
        <time>2013-05-01T12:00:40Z</time>
      </trkpt>
      <trkpt lat="60.1256332397" lon="15.4674425125">
        <ele>0</ele>
        <time>2013-05-01T12:00:41Z</time>
      </trkpt>
      <trkpt lat="60.1256752014" lon="15.4673347473">
        <ele>0</ele>
        <time>2013-05-01T12:00:42Z</time>
      </trkpt>
      <trkpt lat="60.1257324219" lon="15.4671802521">
        <ele>0</ele>
        <time>2013-05-01T12:00:43Z</time>
      </trkpt>
      <trkpt lat="60.1257820129" lon="15.4670438766">
        <ele>0</ele>
        <time>2013-05-01T12:00:44Z</time>
      </trkpt>
      <trkpt lat="60.125831604" lon="15.4669160843">
        <ele>0</ele>
        <time>2013-05-01T12:00:45Z</time>
      </trkpt>
      <trkpt lat="60.1258773804" lon="15.4667921066">
        <ele>0</ele>
        <time>2013-05-01T12:00:46Z</time>
      </trkpt>
      <trkpt lat="60.125919342" lon="15.4666748047">
        <ele>0</ele>
        <time>2013-05-01T12:00:47Z</time>
      </trkpt>
      <trkpt lat="60.1259765625" lon="15.4665279388">
        <ele>0</ele>
        <time>2013-05-01T12:00:48Z</time>
      </trkpt>
      <trkpt lat="60.1260223389" lon="15.4664001465">
        <ele>0</ele>
        <time>2013-05-01T12:00:49Z</time>
      </trkpt>
      <trkpt lat="60.1260643005" lon="15.4662866592">
        <ele>0</ele>
        <time>2013-05-01T12:00:50Z</time>
      </trkpt>
      <trkpt lat="60.1261177063" lon="15.4661455154">
        <ele>0</ele>
        <time>2013-05-01T12:00:51Z</time>
      </trkpt>
      <trkpt lat="60.126159668" lon="15.4660253525">
        <ele>0</ele>
        <time>2013-05-01T12:00:52Z</time>
      </trkpt>
      <trkpt lat="60.126209259" lon="15.4658918381">
        <ele>0</ele>
        <time>2013-05-01T12:00:53Z</time>
      </trkpt>
      <trkpt lat="60.1262512207" lon="15.4657773972">
        <ele>0</ele>
        <time>2013-05-01T12:00:54Z</time>
      </trkpt>
      <trkpt lat="60.1263046265" lon="15.4656362534">
        <ele>0</ele>
        <time>2013-05-01T12:00:55Z</time>
      </trkpt>
      <trkpt lat="60.1263542175" lon="15.4654960632">
        <ele>0</ele>
        <time>2013-05-01T12:00:56Z</time>
      </trkpt>
      <trkpt lat="60.1263961792" lon="15.4653778076">
        <ele>0</ele>
        <time>2013-05-01T12:00:57Z</time>
      </trkpt>
      <trkpt lat="60.1264381409" lon="15.4652662277">
        <ele>0</ele>
        <time>2013-05-01T12:00:58Z</time>
      </trkpt>
      <trkpt lat="60.1264915466" lon="15.4651260376">
        <ele>0</ele>
        <time>2013-05-01T12:00:59Z</time>
      </trkpt>
      <trkpt lat="60.1265449524" lon="15.4649858475">
        <ele>0</ele>
        <time>2013-05-01T12:01:00Z</time>
      </trkpt>
      <trkpt lat="60.1265945435" lon="15.4648475647">
        <ele>0</ele>
        <time>2013-05-01T12:01:01Z</time>
      </trkpt>
      <trkpt lat="60.1266288757" lon="15.4647579193">
        <ele>0</ele>
        <time>2013-05-01T12:01:02Z</time>
      </trkpt>
      <trkpt lat="60.1266937256" lon="15.4645967484">
        <ele>0</ele>
        <time>2013-05-01T12:01:03Z</time>
      </trkpt>
      <trkpt lat="60.1267433167" lon="15.4644613266">
        <ele>0</ele>
        <time>2013-05-01T12:01:04Z</time>
      </trkpt>
      <trkpt lat="60.126789093" lon="15.4643354416">
        <ele>0</ele>
        <time>2013-05-01T12:01:05Z</time>
      </trkpt>
      <trkpt lat="60.1268386841" lon="15.4642086029">
        <ele>0</ele>
        <time>2013-05-01T12:01:06Z</time>
      </trkpt>
      <trkpt lat="60.1268882751" lon="15.4640703201">
        <ele>0</ele>
        <time>2013-05-01T12:01:07Z</time>
      </trkpt>
      <trkpt lat="60.1269454956" lon="15.4639310837">
        <ele>0</ele>
        <time>2013-05-01T12:01:08Z</time>
      </trkpt>
      <trkpt lat="60.126991272" lon="15.4638004303">
        <ele>0</ele>
        <time>2013-05-01T12:01:09Z</time>
      </trkpt>
      <trkpt lat="60.1270332336" lon="15.4636936188">
        <ele>0</ele>
        <time>2013-05-01T12:01:10Z</time>
      </trkpt>
      <trkpt lat="60.1270942688" lon="15.4635343552">
        <ele>0</ele>
        <time>2013-05-01T12:01:11Z</time>
      </trkpt>
      <trkpt lat="60.1271438599" lon="15.4633970261">
        <ele>0</ele>
        <time>2013-05-01T12:01:12Z</time>
      </trkpt>
      <trkpt lat="60.1271972656" lon="15.4632472992">
        <ele>0</ele>
        <time>2013-05-01T12:01:13Z</time>
      </trkpt>
      <trkpt lat="60.127243042" lon="15.4631290436">
        <ele>0</ele>
        <time>2013-05-01T12:01:14Z</time>
      </trkpt>
      <trkpt lat="60.1275749207" lon="15.4621353149">
        <ele>0</ele>
        <time>2013-05-01T12:01:21Z</time>
      </trkpt>
      <trkpt lat="60.1276550293" lon="15.4618616104">
        <ele>0</ele>
        <time>2013-05-01T12:01:23Z</time>
      </trkpt>
      <trkpt lat="60.1278610229" lon="15.4611253738">
        <ele>0</ele>
        <time>2013-05-01T12:01:28Z</time>
      </trkpt>
      <trkpt lat="60.1278839111" lon="15.4610567093">
        <ele>0</ele>
        <time>2013-05-01T12:01:29Z</time>
      </trkpt>
      <trkpt lat="60.1279373169" lon="15.4608621597">
        <ele>0</ele>
        <time>2013-05-01T12:01:30Z</time>
      </trkpt>
      <trkpt lat="60.1279830933" lon="15.4606962204">
        <ele>0</ele>
        <time>2013-05-01T12:01:31Z</time>
      </trkpt>
      <trkpt lat="60.1280250549" lon="15.4605569839">
        <ele>0</ele>
        <time>2013-05-01T12:01:32Z</time>
      </trkpt>
      <trkpt lat="60.1280670166" lon="15.460401535">
        <ele>0</ele>
        <time>2013-05-01T12:01:33Z</time>
      </trkpt>
      <trkpt lat="60.1280975342" lon="15.4602823257">
        <ele>0</ele>
        <time>2013-05-01T12:01:34Z</time>
      </trkpt>
      <trkpt lat="60.1281394958" lon="15.4601325989">
        <ele>0</ele>
        <time>2013-05-01T12:01:35Z</time>
      </trkpt>
      <trkpt lat="60.1281852722" lon="15.4599714279">
        <ele>0</ele>
        <time>2013-05-01T12:01:36Z</time>
      </trkpt>
      <trkpt lat="60.1282234192" lon="15.4598388672">
        <ele>0</ele>
        <time>2013-05-01T12:01:37Z</time>
      </trkpt>
      <trkpt lat="60.1282577515" lon="15.4597120285">
        <ele>0</ele>
        <time>2013-05-01T12:01:38Z</time>
      </trkpt>
      <trkpt lat="60.1282997131" lon="15.459564209">
        <ele>0</ele>
        <time>2013-05-01T12:01:39Z</time>
      </trkpt>
      <trkpt lat="60.1283378601" lon="15.4594259262">
        <ele>0</ele>
        <time>2013-05-01T12:01:40Z</time>
      </trkpt>
      <trkpt lat="60.1283760071" lon="15.4592981339">
        <ele>0</ele>
        <time>2013-05-01T12:01:41Z</time>
      </trkpt>
      <trkpt lat="60.12840271" lon="15.4591999054">
        <ele>0</ele>
        <time>2013-05-01T12:01:42Z</time>
      </trkpt>
      <trkpt lat="60.1285820007" lon="15.4585618973">
        <ele>0</ele>
        <time>2013-05-01T12:01:47Z</time>
      </trkpt>
      <trkpt lat="60.1286277771" lon="15.4584102631">
        <ele>0</ele>
        <time>2013-05-01T12:01:48Z</time>
      </trkpt>
      <trkpt lat="60.1286621094" lon="15.4582901001">
        <ele>0</ele>
        <time>2013-05-01T12:01:49Z</time>
      </trkpt>
      <trkpt lat="60.1286888123" lon="15.4581899643">
        <ele>0</ele>
        <time>2013-05-01T12:01:50Z</time>
      </trkpt>
      <trkpt lat="60.1287269592" lon="15.4580516815">
        <ele>0</ele>
        <time>2013-05-01T12:01:51Z</time>
      </trkpt>
      <trkpt lat="60.1287574768" lon="15.4579343796">
        <ele>0</ele>
        <time>2013-05-01T12:01:52Z</time>
      </trkpt>
      <trkpt lat="60.1287918091" lon="15.457816124">
        <ele>0</ele>
        <time>2013-05-01T12:01:53Z</time>
      </trkpt>
      <trkpt lat="60.1288223267" lon="15.4577083588">
        <ele>0</ele>
        <time>2013-05-01T12:01:54Z</time>
      </trkpt>
      <trkpt lat="60.1288566589" lon="15.4575824738">
        <ele>0</ele>
        <time>2013-05-01T12:01:55Z</time>
      </trkpt>
      <trkpt lat="60.1288948059" lon="15.4574556351">
        <ele>0</ele>
        <time>2013-05-01T12:01:56Z</time>
      </trkpt>
      <trkpt lat="60.1289253235" lon="15.4573469162">
        <ele>0</ele>
        <time>2013-05-01T12:01:57Z</time>
      </trkpt>
      <trkpt lat="60.1289558411" lon="15.4572467804">
        <ele>0</ele>
        <time>2013-05-01T12:01:58Z</time>
      </trkpt>
      <trkpt lat="60.128993988" lon="15.4571123123">
        <ele>0</ele>
        <time>2013-05-01T12:01:59Z</time>
      </trkpt>
      <trkpt lat="60.1290283203" lon="15.4569854736">
        <ele>0</ele>
        <time>2013-05-01T12:02:00Z</time>
      </trkpt>
      <trkpt lat="60.1290626526" lon="15.4568576813">
        <ele>0</ele>
        <time>2013-05-01T12:02:01Z</time>
      </trkpt>
      <trkpt lat="60.1290855408" lon="15.456776619">
        <ele>0</ele>
        <time>2013-05-01T12:02:02Z</time>
      </trkpt>
      <trkpt lat="60.1291618347" lon="15.4565038681">
        <ele>0</ele>
        <time>2013-05-01T12:02:04Z</time>
      </trkpt>
      <trkpt lat="60.1291732788" lon="15.4564676285">
        <ele>0</ele>
        <time>2013-05-01T12:02:05Z</time>
      </trkpt>
      <trkpt lat="60.1292190552" lon="15.4563150406">
        <ele>0</ele>
        <time>2013-05-01T12:02:06Z</time>
      </trkpt>
      <trkpt lat="60.1292610168" lon="15.4561738968">
        <ele>0</ele>
        <time>2013-05-01T12:02:07Z</time>
      </trkpt>
      <trkpt lat="60.1292953491" lon="15.4560470581">
        <ele>0</ele>
        <time>2013-05-01T12:02:08Z</time>
      </trkpt>
      <trkpt lat="60.1293296814" lon="15.4559297562">
        <ele>0</ele>
        <time>2013-05-01T12:02:09Z</time>
      </trkpt>
      <trkpt lat="60.1293945312" lon="15.4557008743">
        <ele>0</ele>
        <time>2013-05-01T12:02:11Z</time>
      </trkpt>
      <trkpt lat="60.1294288635" lon="15.4555807114">
        <ele>0</ele>
        <time>2013-05-01T12:02:12Z</time>
      </trkpt>
      <trkpt lat="60.1294631958" lon="15.4554567337">
        <ele>0</ele>
        <time>2013-05-01T12:02:13Z</time>
      </trkpt>
      <trkpt lat="60.129486084" lon="15.4553642273">
        <ele>0</ele>
        <time>2013-05-01T12:02:14Z</time>
      </trkpt>
      <trkpt lat="60.1295166016" lon="15.4552497864">
        <ele>0</ele>
        <time>2013-05-01T12:02:15Z</time>
      </trkpt>
      <trkpt lat="60.129611969" lon="15.4549064636">
        <ele>0</ele>
        <time>2013-05-01T12:02:18Z</time>
      </trkpt>
      <trkpt lat="60.1296424866" lon="15.4547929764">
        <ele>0</ele>
        <time>2013-05-01T12:02:19Z</time>
      </trkpt>
      <trkpt lat="60.1296806335" lon="15.4546642303">
        <ele>0</ele>
        <time>2013-05-01T12:02:20Z</time>
      </trkpt>
      <trkpt lat="60.1297149658" lon="15.4545345306">
        <ele>0</ele>
        <time>2013-05-01T12:02:21Z</time>
      </trkpt>
      <trkpt lat="60.1297416687" lon="15.4544305801">
        <ele>0</ele>
        <time>2013-05-01T12:02:23Z</time>
      </trkpt>
      <trkpt lat="60.1297988892" lon="15.4542207718">
        <ele>0</ele>
        <time>2013-05-01T12:02:24Z</time>
      </trkpt>
      <trkpt lat="60.1298408508" lon="15.4540681839">
        <ele>0</ele>
        <time>2013-05-01T12:02:25Z</time>
      </trkpt>
      <trkpt lat="60.129863739" lon="15.4539604187">
        <ele>0</ele>
        <time>2013-05-01T12:02:26Z</time>
      </trkpt>
      <trkpt lat="60.1298942566" lon="15.4538383484">
        <ele>0</ele>
        <time>2013-05-01T12:02:27Z</time>
      </trkpt>
      <trkpt lat="60.1299285889" lon="15.4537038803">
        <ele>0</ele>
        <time>2013-05-01T12:02:28Z</time>
      </trkpt>
      <trkpt lat="60.1299552917" lon="15.4535903931">
        <ele>0</ele>
        <time>2013-05-01T12:02:29Z</time>
      </trkpt>
      <trkpt lat="60.1300086975" lon="15.4533414841">
        <ele>0</ele>
        <time>2013-05-01T12:02:31Z</time>
      </trkpt>
      <trkpt lat="60.1300354004" lon="15.4532194138">
        <ele>0</ele>
        <time>2013-05-01T12:02:32Z</time>
      </trkpt>
      <trkpt lat="60.1301689148" lon="15.4525079727">
        <ele>0</ele>
        <time>2013-05-01T12:02:38Z</time>
      </trkpt>
      <trkpt lat="60.1302146912" lon="15.4522438049">
        <ele>0</ele>
        <time>2013-05-01T12:02:40Z</time>
      </trkpt>
      <trkpt lat="60.130241394" lon="15.4521102905">
        <ele>0</ele>
        <time>2013-05-01T12:02:41Z</time>
      </trkpt>
      <trkpt lat="60.1303138733" lon="15.4517040253">
        <ele>0</ele>
        <time>2013-05-01T12:02:44Z</time>
      </trkpt>
      <trkpt lat="60.1303405762" lon="15.4515638351">
        <ele>0</ele>
        <time>2013-05-01T12:02:45Z</time>
      </trkpt>
      <trkpt lat="60.130355835" lon="15.451458931">
        <ele>0</ele>
        <time>2013-05-01T12:02:46Z</time>
      </trkpt>
      <trkpt lat="60.1303787231" lon="15.4513235092">
        <ele>0</ele>
        <time>2013-05-01T12:02:47Z</time>
      </trkpt>
      <trkpt lat="60.130405426" lon="15.4511613846">
        <ele>0</ele>
        <time>2013-05-01T12:02:48Z</time>
      </trkpt>
      <trkpt lat="60.1304244995" lon="15.4510154724">
        <ele>0</ele>
        <time>2013-05-01T12:02:49Z</time>
      </trkpt>
      <trkpt lat="60.1304397583" lon="15.4509077072">
        <ele>0</ele>
        <time>2013-05-01T12:02:50Z</time>
      </trkpt>
      <trkpt lat="60.1304664612" lon="15.4507255554">
        <ele>0</ele>
        <time>2013-05-01T12:02:51Z</time>
      </trkpt>
      <trkpt lat="60.13048172" lon="15.4505872726">
        <ele>0</ele>
        <time>2013-05-01T12:02:52Z</time>
      </trkpt>
      <trkpt lat="60.1305084229" lon="15.4504261017">
        <ele>0</ele>
        <time>2013-05-01T12:02:53Z</time>
      </trkpt>
      <trkpt lat="60.1305236816" lon="15.4503011703">
        <ele>0</ele>
        <time>2013-05-01T12:02:54Z</time>
      </trkpt>
      <trkpt lat="60.1305465698" lon="15.4501113892">
        <ele>0</ele>
        <time>2013-05-01T12:02:55Z</time>
      </trkpt>
      <trkpt lat="60.130569458" lon="15.4499483109">
        <ele>0</ele>
        <time>2013-05-01T12:02:56Z</time>
      </trkpt>
      <trkpt lat="60.1305847168" lon="15.4497995377">
        <ele>0</ele>
        <time>2013-05-01T12:02:57Z</time>
      </trkpt>
      <trkpt lat="60.1305999756" lon="15.449678421">
        <ele>0</ele>
        <time>2013-05-01T12:02:58Z</time>
      </trkpt>
      <trkpt lat="60.1306190491" lon="15.4494924545">
        <ele>0</ele>
        <time>2013-05-01T12:02:59Z</time>
      </trkpt>
      <trkpt lat="60.1306381226" lon="15.4493141174">
        <ele>0</ele>
        <time>2013-05-01T12:03:00Z</time>
      </trkpt>
      <trkpt lat="60.1306838989" lon="15.4488344193">
        <ele>0</ele>
        <time>2013-05-01T12:03:03Z</time>
      </trkpt>
      <trkpt lat="60.1307029724" lon="15.4486522675">
        <ele>0</ele>
        <time>2013-05-01T12:03:04Z</time>
      </trkpt>
      <trkpt lat="60.1307182312" lon="15.4484920502">
        <ele>0</ele>
        <time>2013-05-01T12:03:05Z</time>
      </trkpt>
      <trkpt lat="60.1307296753" lon="15.4483375549">
        <ele>0</ele>
        <time>2013-05-01T12:03:06Z</time>
      </trkpt>
      <trkpt lat="60.1307449341" lon="15.4481716156">
        <ele>0</ele>
        <time>2013-05-01T12:03:07Z</time>
      </trkpt>
      <trkpt lat="60.1307601929" lon="15.4479904175">
        <ele>0</ele>
        <time>2013-05-01T12:03:08Z</time>
      </trkpt>
      <trkpt lat="60.1307754517" lon="15.4478139877">
        <ele>0</ele>
        <time>2013-05-01T12:03:09Z</time>
      </trkpt>
      <trkpt lat="60.1307868958" lon="15.4476881027">
        <ele>0</ele>
        <time>2013-05-01T12:03:10Z</time>
      </trkpt>
      <trkpt lat="60.1308021545" lon="15.4474802017">
        <ele>0</ele>
        <time>2013-05-01T12:03:11Z</time>
      </trkpt>
      <trkpt lat="60.1308174133" lon="15.447306633">
        <ele>0</ele>
        <time>2013-05-01T12:03:12Z</time>
      </trkpt>
      <trkpt lat="60.1308326721" lon="15.4471273422">
        <ele>0</ele>
        <time>2013-05-01T12:03:13Z</time>
      </trkpt>
      <trkpt lat="60.1308441162" lon="15.4469985962">
        <ele>0</ele>
        <time>2013-05-01T12:03:14Z</time>
      </trkpt>
      <trkpt lat="60.1308631897" lon="15.446805954">
        <ele>0</ele>
        <time>2013-05-01T12:03:15Z</time>
      </trkpt>
      <trkpt lat="60.1308822632" lon="15.4466142654">
        <ele>0</ele>
        <time>2013-05-01T12:03:16Z</time>
      </trkpt>
      <trkpt lat="60.1308898926" lon="15.4464702606">
        <ele>0</ele>
        <time>2013-05-01T12:03:17Z</time>
      </trkpt>
      <trkpt lat="60.1309089661" lon="15.4463119507">
        <ele>0</ele>
        <time>2013-05-01T12:03:18Z</time>
      </trkpt>
      <trkpt lat="60.1309242249" lon="15.4461078644">
        <ele>0</ele>
        <time>2013-05-01T12:03:19Z</time>
      </trkpt>
      <trkpt lat="60.1309394836" lon="15.4459218979">
        <ele>0</ele>
        <time>2013-05-01T12:03:20Z</time>
      </trkpt>
      <trkpt lat="60.1309547424" lon="15.4457473755">
        <ele>0</ele>
        <time>2013-05-01T12:03:21Z</time>
      </trkpt>
      <trkpt lat="60.1309623718" lon="15.4456453323">
        <ele>0</ele>
        <time>2013-05-01T12:03:22Z</time>
      </trkpt>
      <trkpt lat="60.1309814453" lon="15.4454507828">
        <ele>0</ele>
        <time>2013-05-01T12:03:23Z</time>
      </trkpt>
      <trkpt lat="60.1310005188" lon="15.44526577">
        <ele>0</ele>
        <time>2013-05-01T12:03:24Z</time>
      </trkpt>
      <trkpt lat="60.1310157776" lon="15.4451131821">
        <ele>0</ele>
        <time>2013-05-01T12:03:25Z</time>
      </trkpt>
      <trkpt lat="60.131061554" lon="15.444644928">
        <ele>0</ele>
        <time>2013-05-01T12:03:28Z</time>
      </trkpt>
      <trkpt lat="60.1310768127" lon="15.4444952011">
        <ele>0</ele>
        <time>2013-05-01T12:03:29Z</time>
      </trkpt>
      <trkpt lat="60.1310882568" lon="15.4443635941">
        <ele>0</ele>
        <time>2013-05-01T12:03:30Z</time>
      </trkpt>
      <trkpt lat="60.1311073303" lon="15.4441728592">
        <ele>0</ele>
        <time>2013-05-01T12:03:31Z</time>
      </trkpt>
      <trkpt lat="60.1311225891" lon="15.4440193176">
        <ele>0</ele>
        <time>2013-05-01T12:03:32Z</time>
      </trkpt>
      <trkpt lat="60.1311340332" lon="15.4438562393">
        <ele>0</ele>
        <time>2013-05-01T12:03:33Z</time>
      </trkpt>
      <trkpt lat="60.1311416626" lon="15.4437389374">
        <ele>0</ele>
        <time>2013-05-01T12:03:34Z</time>
      </trkpt>
      <trkpt lat="60.1311607361" lon="15.4435787201">
        <ele>0</ele>
        <time>2013-05-01T12:03:35Z</time>
      </trkpt>
      <trkpt lat="60.1311759949" lon="15.4434127808">
        <ele>0</ele>
        <time>2013-05-01T12:03:36Z</time>
      </trkpt>
      <trkpt lat="60.131187439" lon="15.4432916641">
        <ele>0</ele>
        <time>2013-05-01T12:03:37Z</time>
      </trkpt>
      <trkpt lat="60.1312026978" lon="15.4431800842">
        <ele>0</ele>
        <time>2013-05-01T12:03:38Z</time>
      </trkpt>
      <trkpt lat="60.13123703" lon="15.4430627823">
        <ele>0</ele>
        <time>2013-05-01T12:03:39Z</time>
      </trkpt>
      <trkpt lat="60.1312828064" lon="15.4429950714">
        <ele>0</ele>
        <time>2013-05-01T12:03:40Z</time>
      </trkpt>
      <trkpt lat="60.1313514709" lon="15.4429168701">
        <ele>0</ele>
        <time>2013-05-01T12:03:41Z</time>
      </trkpt>
      <trkpt lat="60.1313858032" lon="15.4428243637">
        <ele>0</ele>
        <time>2013-05-01T12:03:42Z</time>
      </trkpt>
      <trkpt lat="60.1314125061" lon="15.4426517487">
        <ele>0</ele>
        <time>2013-05-01T12:03:43Z</time>
      </trkpt>
      <trkpt lat="60.1314163208" lon="15.4424829483">
        <ele>0</ele>
        <time>2013-05-01T12:03:44Z</time>
      </trkpt>
      <trkpt lat="60.1314163208" lon="15.4423151016">
        <ele>0</ele>
        <time>2013-05-01T12:03:45Z</time>
      </trkpt>
      <trkpt lat="60.1314201355" lon="15.4421596527">
        <ele>0</ele>
        <time>2013-05-01T12:03:46Z</time>
      </trkpt>
      <trkpt lat="60.1314201355" lon="15.4419727325">
        <ele>0</ele>
        <time>2013-05-01T12:03:47Z</time>
      </trkpt>
      <trkpt lat="60.1314201355" lon="15.4417448044">
        <ele>0</ele>
        <time>2013-05-01T12:03:48Z</time>
      </trkpt>
      <trkpt lat="60.1314277649" lon="15.4414148331">
        <ele>0</ele>
        <time>2013-05-01T12:03:50Z</time>
      </trkpt>
      <trkpt lat="60.1314353943" lon="15.4411849976">
        <ele>0</ele>
        <time>2013-05-01T12:03:51Z</time>
      </trkpt>
      <trkpt lat="60.1314620972" lon="15.4406442642">
        <ele>0</ele>
        <time>2013-05-01T12:03:54Z</time>
      </trkpt>
      <trkpt lat="60.1314926147" lon="15.4402446747">
        <ele>0</ele>
        <time>2013-05-01T12:03:56Z</time>
      </trkpt>
      <trkpt lat="60.1315078735" lon="15.4400882721">
        <ele>0</ele>
        <time>2013-05-01T12:03:57Z</time>
      </trkpt>
      <trkpt lat="60.131526947" lon="15.4399604797">
        <ele>0</ele>
        <time>2013-05-01T12:03:58Z</time>
      </trkpt>
      <trkpt lat="60.1315422058" lon="15.4398765564">
        <ele>0</ele>
        <time>2013-05-01T12:03:59Z</time>
      </trkpt>
      <trkpt lat="60.1315803528" lon="15.4396495819">
        <ele>0</ele>
        <time>2013-05-01T12:04:00Z</time>
      </trkpt>
      <trkpt lat="60.1316070557" lon="15.4394931793">
        <ele>0</ele>
        <time>2013-05-01T12:04:01Z</time>
      </trkpt>
      <trkpt lat="60.1316795349" lon="15.4391546249">
        <ele>0</ele>
        <time>2013-05-01T12:04:03Z</time>
      </trkpt>
      <trkpt lat="60.1317138672" lon="15.4389839172">
        <ele>0</ele>
        <time>2013-05-01T12:04:04Z</time>
      </trkpt>
      <trkpt lat="60.1317443848" lon="15.4388456345">
        <ele>0</ele>
        <time>2013-05-01T12:04:05Z</time>
      </trkpt>
      <trkpt lat="60.1317749023" lon="15.4386997223">
        <ele>0</ele>
        <time>2013-05-01T12:04:06Z</time>
      </trkpt>
      <trkpt lat="60.1318016052" lon="15.4385480881">
        <ele>0</ele>
        <time>2013-05-01T12:04:07Z</time>
      </trkpt>
      <trkpt lat="60.1318359375" lon="15.4383821487">
        <ele>0</ele>
        <time>2013-05-01T12:04:08Z</time>
      </trkpt>
      <trkpt lat="60.1318588257" lon="15.4382429123">
        <ele>0</ele>
        <time>2013-05-01T12:04:09Z</time>
      </trkpt>
      <trkpt lat="60.1318817139" lon="15.4381389618">
        <ele>0</ele>
        <time>2013-05-01T12:04:10Z</time>
      </trkpt>
      <trkpt lat="60.1319122314" lon="15.4379758835">
        <ele>0</ele>
        <time>2013-05-01T12:04:11Z</time>
      </trkpt>
      <trkpt lat="60.1319389343" lon="15.4378471375">
        <ele>0</ele>
        <time>2013-05-01T12:04:12Z</time>
      </trkpt>
      <trkpt lat="60.1319656372" lon="15.4377193451">
        <ele>0</ele>
        <time>2013-05-01T12:04:13Z</time>
      </trkpt>
      <trkpt lat="60.1320457458" lon="15.4373550415">
        <ele>0</ele>
        <time>2013-05-01T12:04:16Z</time>
      </trkpt>
      <trkpt lat="60.1321258545" lon="15.4370136261">
        <ele>0</ele>
        <time>2013-05-01T12:04:19Z</time>
      </trkpt>
      <trkpt lat="60.1321525574" lon="15.4368925095">
        <ele>0</ele>
        <time>2013-05-01T12:04:20Z</time>
      </trkpt>
      <trkpt lat="60.132183075" lon="15.4367694855">
        <ele>0</ele>
        <time>2013-05-01T12:04:21Z</time>
      </trkpt>
      <trkpt lat="60.1321907043" lon="15.4367265701">
        <ele>0</ele>
        <time>2013-05-01T12:04:22Z</time>
      </trkpt>
      <trkpt lat="60.132232666" lon="15.4365501404">
        <ele>0</ele>
        <time>2013-05-01T12:04:23Z</time>
      </trkpt>
      <trkpt lat="60.1322631836" lon="15.4363908768">
        <ele>0</ele>
        <time>2013-05-01T12:04:24Z</time>
      </trkpt>
      <trkpt lat="60.1322898865" lon="15.4362602234">
        <ele>0</ele>
        <time>2013-05-01T12:04:25Z</time>
      </trkpt>
      <trkpt lat="60.1323127747" lon="15.4361286163">
        <ele>0</ele>
        <time>2013-05-01T12:04:26Z</time>
      </trkpt>
      <trkpt lat="60.1323432922" lon="15.4359674454">
        <ele>0</ele>
        <time>2013-05-01T12:04:27Z</time>
      </trkpt>
      <trkpt lat="60.1323699951" lon="15.435798645">
        <ele>0</ele>
        <time>2013-05-01T12:04:28Z</time>
      </trkpt>
      <trkpt lat="60.1324005127" lon="15.4356365204">
        <ele>0</ele>
        <time>2013-05-01T12:04:29Z</time>
      </trkpt>
      <trkpt lat="60.1324195862" lon="15.4354810715">
        <ele>0</ele>
        <time>2013-05-01T12:04:30Z</time>
      </trkpt>
      <trkpt lat="60.1324462891" lon="15.4352703094">
        <ele>0</ele>
        <time>2013-05-01T12:04:31Z</time>
      </trkpt>
      <trkpt lat="60.1324729919" lon="15.4351024628">
        <ele>0</ele>
        <time>2013-05-01T12:04:32Z</time>
      </trkpt>
      <trkpt lat="60.1325035095" lon="15.4349040985">
        <ele>0</ele>
        <time>2013-05-01T12:04:33Z</time>
      </trkpt>
      <trkpt lat="60.132522583" lon="15.4347677231">
        <ele>0</ele>
        <time>2013-05-01T12:04:34Z</time>
      </trkpt>
      <trkpt lat="60.1325531006" lon="15.4345684052">
        <ele>0</ele>
        <time>2013-05-01T12:04:35Z</time>
      </trkpt>
      <trkpt lat="60.1325836182" lon="15.4343671799">
        <ele>0</ele>
        <time>2013-05-01T12:04:36Z</time>
      </trkpt>
      <trkpt lat="60.132610321" lon="15.4341888428">
        <ele>0</ele>
        <time>2013-05-01T12:04:37Z</time>
      </trkpt>
      <trkpt lat="60.1326332092" lon="15.4340267181">
        <ele>0</ele>
        <time>2013-05-01T12:04:38Z</time>
      </trkpt>
      <trkpt lat="60.1326637268" lon="15.4338216782">
        <ele>0</ele>
        <time>2013-05-01T12:04:39Z</time>
      </trkpt>
      <trkpt lat="60.1326904297" lon="15.4336338043">
        <ele>0</ele>
        <time>2013-05-01T12:04:40Z</time>
      </trkpt>
      <trkpt lat="60.1327133179" lon="15.4334659576">
        <ele>0</ele>
        <time>2013-05-01T12:04:41Z</time>
      </trkpt>
      <trkpt lat="60.1327285767" lon="15.4333295822">
        <ele>0</ele>
        <time>2013-05-01T12:04:42Z</time>
      </trkpt>
      <trkpt lat="60.1327476501" lon="15.4329357147">
        <ele>0</ele>
        <time>2013-05-01T12:04:44Z</time>
      </trkpt>
      <trkpt lat="60.1327400208" lon="15.4327802658">
        <ele>0</ele>
        <time>2013-05-01T12:04:45Z</time>
      </trkpt>
      <trkpt lat="60.132724762" lon="15.4326496124">
        <ele>0</ele>
        <time>2013-05-01T12:04:46Z</time>
      </trkpt>
      <trkpt lat="60.1326255798" lon="15.4321804047">
        <ele>0</ele>
        <time>2013-05-01T12:04:49Z</time>
      </trkpt>
      <trkpt lat="60.1326026917" lon="15.4320812225">
        <ele>0</ele>
        <time>2013-05-01T12:04:50Z</time>
      </trkpt>
      <trkpt lat="60.1325569153" lon="15.4319133759">
        <ele>0</ele>
        <time>2013-05-01T12:04:51Z</time>
      </trkpt>
      <trkpt lat="60.1325263977" lon="15.4317903519">
        <ele>0</ele>
        <time>2013-05-01T12:04:52Z</time>
      </trkpt>
      <trkpt lat="60.1324920654" lon="15.4316596985">
        <ele>0</ele>
        <time>2013-05-01T12:04:53Z</time>
      </trkpt>
      <trkpt lat="60.1324615479" lon="15.4315538406">
        <ele>0</ele>
        <time>2013-05-01T12:04:54Z</time>
      </trkpt>
      <trkpt lat="60.1323623657" lon="15.4311676025">
        <ele>0</ele>
        <time>2013-05-01T12:04:57Z</time>
      </trkpt>
      <trkpt lat="60.13230896" lon="15.4309482574">
        <ele>0</ele>
        <time>2013-05-01T12:04:59Z</time>
      </trkpt>
      <trkpt lat="60.1322746277" lon="15.430814743">
        <ele>0</ele>
        <time>2013-05-01T12:05:00Z</time>
      </trkpt>
      <trkpt lat="60.1322402954" lon="15.4306945801">
        <ele>0</ele>
        <time>2013-05-01T12:05:01Z</time>
      </trkpt>
      <trkpt lat="60.1322212219" lon="15.4306163788">
        <ele>0</ele>
        <time>2013-05-01T12:05:02Z</time>
      </trkpt>
      <trkpt lat="60.132183075" lon="15.430475235">
        <ele>0</ele>
        <time>2013-05-01T12:05:03Z</time>
      </trkpt>
      <trkpt lat="60.1321487427" lon="15.4303531647">
        <ele>0</ele>
        <time>2013-05-01T12:05:04Z</time>
      </trkpt>
      <trkpt lat="60.1321220398" lon="15.4302482605">
        <ele>0</ele>
        <time>2013-05-01T12:05:05Z</time>
      </trkpt>
      <trkpt lat="60.1320915222" lon="15.4301395416">
        <ele>0</ele>
        <time>2013-05-01T12:05:06Z</time>
      </trkpt>
      <trkpt lat="60.1320266724" lon="15.4298934937">
        <ele>0</ele>
        <time>2013-05-01T12:05:08Z</time>
      </trkpt>
      <trkpt lat="60.1318473816" lon="15.4294404984">
        <ele>0</ele>
        <time>2013-05-01T12:05:12Z</time>
      </trkpt>
      <trkpt lat="60.1317825317" lon="15.4293336868">
        <ele>0</ele>
        <time>2013-05-01T12:05:13Z</time>
      </trkpt>
      <trkpt lat="60.1315078735" lon="15.4290208817">
        <ele>0</ele>
        <time>2013-05-01T12:05:17Z</time>
      </trkpt>
      <trkpt lat="60.1314430237" lon="15.4289531708">
        <ele>0</ele>
        <time>2013-05-01T12:05:18Z</time>
      </trkpt>
      <trkpt lat="60.1313514709" lon="15.428850174">
        <ele>0</ele>
        <time>2013-05-01T12:05:19Z</time>
      </trkpt>
      <trkpt lat="60.1312789917" lon="15.4287538528">
        <ele>0</ele>
        <time>2013-05-01T12:05:20Z</time>
      </trkpt>
      <trkpt lat="60.1312065125" lon="15.4286394119">
        <ele>0</ele>
        <time>2013-05-01T12:05:21Z</time>
      </trkpt>
      <trkpt lat="60.1311683655" lon="15.4285564423">
        <ele>0</ele>
        <time>2013-05-01T12:05:22Z</time>
      </trkpt>
      <trkpt lat="60.1310577393" lon="15.4282970428">
        <ele>0</ele>
        <time>2013-05-01T12:05:24Z</time>
      </trkpt>
      <trkpt lat="60.1310043335" lon="15.4281330109">
        <ele>0</ele>
        <time>2013-05-01T12:05:25Z</time>
      </trkpt>
      <trkpt lat="60.1309700012" lon="15.4280223846">
        <ele>0</ele>
        <time>2013-05-01T12:05:26Z</time>
      </trkpt>
      <trkpt lat="60.1309318542" lon="15.4278783798">
        <ele>0</ele>
        <time>2013-05-01T12:05:27Z</time>
      </trkpt>
      <trkpt lat="60.1309013367" lon="15.4277496338">
        <ele>0</ele>
        <time>2013-05-01T12:05:28Z</time>
      </trkpt>
      <trkpt lat="60.1308708191" lon="15.4276437759">
        <ele>0</ele>
        <time>2013-05-01T12:05:29Z</time>
      </trkpt>
      <trkpt lat="60.1307945251" lon="15.4272613525">
        <ele>0</ele>
        <time>2013-05-01T12:05:32Z</time>
      </trkpt>
      <trkpt lat="60.1307258606" lon="15.426902771">
        <ele>0</ele>
        <time>2013-05-01T12:05:35Z</time>
      </trkpt>
      <trkpt lat="60.1307144165" lon="15.4267749786">
        <ele>0</ele>
        <time>2013-05-01T12:05:36Z</time>
      </trkpt>
      <trkpt lat="60.1307106018" lon="15.4266672134">
        <ele>0</ele>
        <time>2013-05-01T12:05:37Z</time>
      </trkpt>
      <trkpt lat="60.1307106018" lon="15.4265727997">
        <ele>0</ele>
        <time>2013-05-01T12:05:38Z</time>
      </trkpt>
      <trkpt lat="60.1307106018" lon="15.4264335632">
        <ele>0</ele>
        <time>2013-05-01T12:05:39Z</time>
      </trkpt>
      <trkpt lat="60.1307106018" lon="15.4263124466">
        <ele>0</ele>
        <time>2013-05-01T12:05:40Z</time>
      </trkpt>
      <trkpt lat="60.1307144165" lon="15.4262018204">
        <ele>0</ele>
        <time>2013-05-01T12:05:41Z</time>
      </trkpt>
      <trkpt lat="60.1307220459" lon="15.4261140823">
        <ele>0</ele>
        <time>2013-05-01T12:05:42Z</time>
      </trkpt>
      <trkpt lat="60.13073349" lon="15.4259691238">
        <ele>0</ele>
        <time>2013-05-01T12:05:43Z</time>
      </trkpt>
      <trkpt lat="60.1307487488" lon="15.4258451462">
        <ele>0</ele>
        <time>2013-05-01T12:05:44Z</time>
      </trkpt>
      <trkpt lat="60.1307640076" lon="15.4257335663">
        <ele>0</ele>
        <time>2013-05-01T12:05:45Z</time>
      </trkpt>
      <trkpt lat="60.1308364868" lon="15.4253807068">
        <ele>0</ele>
        <time>2013-05-01T12:05:48Z</time>
      </trkpt>
      <trkpt lat="60.1308631897" lon="15.4252653122">
        <ele>0</ele>
        <time>2013-05-01T12:05:49Z</time>
      </trkpt>
      <trkpt lat="60.1308822632" lon="15.4251813889">
        <ele>0</ele>
        <time>2013-05-01T12:05:50Z</time>
      </trkpt>
      <trkpt lat="60.1309127808" lon="15.4250326157">
        <ele>0</ele>
        <time>2013-05-01T12:05:51Z</time>
      </trkpt>
      <trkpt lat="60.1309318542" lon="15.4249153137">
        <ele>0</ele>
        <time>2013-05-01T12:05:52Z</time>
      </trkpt>
      <trkpt lat="60.1309509277" lon="15.4247913361">
        <ele>0</ele>
        <time>2013-05-01T12:05:53Z</time>
      </trkpt>
      <trkpt lat="60.1309700012" lon="15.424659729">
        <ele>0</ele>
        <time>2013-05-01T12:05:54Z</time>
      </trkpt>
      <trkpt lat="60.1309814453" lon="15.424577713">
        <ele>0</ele>
        <time>2013-05-01T12:05:55Z</time>
      </trkpt>
      <trkpt lat="60.1310043335" lon="15.4243907928">
        <ele>0</ele>
        <time>2013-05-01T12:05:56Z</time>
      </trkpt>
      <trkpt lat="60.1310195923" lon="15.4242706299">
        <ele>0</ele>
        <time>2013-05-01T12:05:57Z</time>
      </trkpt>
      <trkpt lat="60.1310348511" lon="15.424123764">
        <ele>0</ele>
        <time>2013-05-01T12:05:58Z</time>
      </trkpt>
      <trkpt lat="60.1310424805" lon="15.424074173">
        <ele>0</ele>
        <time>2013-05-01T12:05:59Z</time>
      </trkpt>
      <trkpt lat="60.1310577393" lon="15.4238843918">
        <ele>0</ele>
        <time>2013-05-01T12:06:00Z</time>
      </trkpt>
      <trkpt lat="60.1310691833" lon="15.4237518311">
        <ele>0</ele>
        <time>2013-05-01T12:06:01Z</time>
      </trkpt>
      <trkpt lat="60.1310958862" lon="15.4234781265">
        <ele>0</ele>
        <time>2013-05-01T12:06:03Z</time>
      </trkpt>
      <trkpt lat="60.131111145" lon="15.423324585">
        <ele>0</ele>
        <time>2013-05-01T12:06:04Z</time>
      </trkpt>
      <trkpt lat="60.1311187744" lon="15.4232168198">
        <ele>0</ele>
        <time>2013-05-01T12:06:05Z</time>
      </trkpt>
      <trkpt lat="60.1311302185" lon="15.4230651855">
        <ele>0</ele>
        <time>2013-05-01T12:06:06Z</time>
      </trkpt>
      <trkpt lat="60.1311340332" lon="15.4229764938">
        <ele>0</ele>
        <time>2013-05-01T12:06:07Z</time>
      </trkpt>
      <trkpt lat="60.1311454773" lon="15.4228191376">
        <ele>0</ele>
        <time>2013-05-01T12:06:08Z</time>
      </trkpt>
      <trkpt lat="60.1311454773" lon="15.4226875305">
        <ele>0</ele>
        <time>2013-05-01T12:06:09Z</time>
      </trkpt>
      <trkpt lat="60.1311454773" lon="15.4225997925">
        <ele>0</ele>
        <time>2013-05-01T12:06:10Z</time>
      </trkpt>
      <trkpt lat="60.1311454773" lon="15.4224672318">
        <ele>0</ele>
        <time>2013-05-01T12:06:11Z</time>
      </trkpt>
      <trkpt lat="60.1311416626" lon="15.4223251343">
        <ele>0</ele>
        <time>2013-05-01T12:06:12Z</time>
      </trkpt>
      <trkpt lat="60.1311340332" lon="15.4221897125">
        <ele>0</ele>
        <time>2013-05-01T12:06:13Z</time>
      </trkpt>
      <trkpt lat="60.1311264038" lon="15.4219760895">
        <ele>0</ele>
        <time>2013-05-01T12:06:15Z</time>
      </trkpt>
      <trkpt lat="60.1311225891" lon="15.4218349457">
        <ele>0</ele>
        <time>2013-05-01T12:06:16Z</time>
      </trkpt>
      <trkpt lat="60.1311149597" lon="15.4215860367">
        <ele>0</ele>
        <time>2013-05-01T12:06:18Z</time>
      </trkpt>
      <trkpt lat="60.1311149597" lon="15.4214878082">
        <ele>0</ele>
        <time>2013-05-01T12:06:19Z</time>
      </trkpt>
      <trkpt lat="60.1311149597" lon="15.4212284088">
        <ele>0</ele>
        <time>2013-05-01T12:06:21Z</time>
      </trkpt>
      <trkpt lat="60.1311149597" lon="15.4211111069">
        <ele>0</ele>
        <time>2013-05-01T12:06:22Z</time>
      </trkpt>
      <trkpt lat="60.1311187744" lon="15.4210128784">
        <ele>0</ele>
        <time>2013-05-01T12:06:23Z</time>
      </trkpt>
      <trkpt lat="60.1311225891" lon="15.4208507538">
        <ele>0</ele>
        <time>2013-05-01T12:06:24Z</time>
      </trkpt>
      <trkpt lat="60.1311225891" lon="15.4207220078">
        <ele>0</ele>
        <time>2013-05-01T12:06:25Z</time>
      </trkpt>
      <trkpt lat="60.1311187744" lon="15.4205951691">
        <ele>0</ele>
        <time>2013-05-01T12:06:26Z</time>
      </trkpt>
      <trkpt lat="60.1311187744" lon="15.4205055237">
        <ele>0</ele>
        <time>2013-05-01T12:06:27Z</time>
      </trkpt>
      <trkpt lat="60.1311035156" lon="15.4203453064">
        <ele>0</ele>
        <time>2013-05-01T12:06:28Z</time>
      </trkpt>
      <trkpt lat="60.1310844421" lon="15.4202241898">
        <ele>0</ele>
        <time>2013-05-01T12:06:29Z</time>
      </trkpt>
      <trkpt lat="60.1310539246" lon="15.4201087952">
        <ele>0</ele>
        <time>2013-05-01T12:06:30Z</time>
      </trkpt>
      <trkpt lat="60.1310119629" lon="15.4199762344">
        <ele>0</ele>
        <time>2013-05-01T12:06:31Z</time>
      </trkpt>
      <trkpt lat="60.1309585571" lon="15.4198551178">
        <ele>0</ele>
        <time>2013-05-01T12:06:32Z</time>
      </trkpt>
      <trkpt lat="60.1309013367" lon="15.4197368622">
        <ele>0</ele>
        <time>2013-05-01T12:06:33Z</time>
      </trkpt>
      <trkpt lat="60.130859375" lon="15.4196548462">
        <ele>0</ele>
        <time>2013-05-01T12:06:34Z</time>
      </trkpt>
      <trkpt lat="60.1307983398" lon="15.4195299149">
        <ele>0</ele>
        <time>2013-05-01T12:06:35Z</time>
      </trkpt>
      <trkpt lat="60.1307296753" lon="15.4193735123">
        <ele>0</ele>
        <time>2013-05-01T12:06:36Z</time>
      </trkpt>
      <trkpt lat="60.1306877136" lon="15.4192562103">
        <ele>0</ele>
        <time>2013-05-01T12:06:37Z</time>
      </trkpt>
      <trkpt lat="60.1306419373" lon="15.4191007614">
        <ele>0</ele>
        <time>2013-05-01T12:06:38Z</time>
      </trkpt>
      <trkpt lat="60.1306152344" lon="15.4189901352">
        <ele>0</ele>
        <time>2013-05-01T12:06:39Z</time>
      </trkpt>
      <trkpt lat="60.1305770874" lon="15.4188203812">
        <ele>0</ele>
        <time>2013-05-01T12:06:40Z</time>
      </trkpt>
      <trkpt lat="60.1305580139" lon="15.4187002182">
        <ele>0</ele>
        <time>2013-05-01T12:06:41Z</time>
      </trkpt>
      <trkpt lat="60.1304893494" lon="15.4181623459">
        <ele>0</ele>
        <time>2013-05-01T12:06:45Z</time>
      </trkpt>
      <trkpt lat="60.1304740906" lon="15.4180316925">
        <ele>0</ele>
        <time>2013-05-01T12:06:46Z</time>
      </trkpt>
      <trkpt lat="60.1304473877" lon="15.4177846909">
        <ele>0</ele>
        <time>2013-05-01T12:06:48Z</time>
      </trkpt>
      <trkpt lat="60.1304321289" lon="15.4176559448">
        <ele>0</ele>
        <time>2013-05-01T12:06:49Z</time>
      </trkpt>
      <trkpt lat="60.1304092407" lon="15.4172954559">
        <ele>0</ele>
        <time>2013-05-01T12:06:52Z</time>
      </trkpt>
      <trkpt lat="60.130405426" lon="15.4171705246">
        <ele>0</ele>
        <time>2013-05-01T12:06:53Z</time>
      </trkpt>
      <trkpt lat="60.1304092407" lon="15.4170398712">
        <ele>0</ele>
        <time>2013-05-01T12:06:54Z</time>
      </trkpt>
      <trkpt lat="60.1304168701" lon="15.4169540405">
        <ele>0</ele>
        <time>2013-05-01T12:06:55Z</time>
      </trkpt>
      <trkpt lat="60.1304321289" lon="15.416809082">
        <ele>0</ele>
        <time>2013-05-01T12:06:56Z</time>
      </trkpt>
      <trkpt lat="60.1304626465" lon="15.4165868759">
        <ele>0</ele>
        <time>2013-05-01T12:06:58Z</time>
      </trkpt>
      <trkpt lat="60.1304779053" lon="15.416513443">
        <ele>0</ele>
        <time>2013-05-01T12:06:59Z</time>
      </trkpt>
      <trkpt lat="60.1305046082" lon="15.4163780212">
        <ele>0</ele>
        <time>2013-05-01T12:07:00Z</time>
      </trkpt>
      <trkpt lat="60.1305389404" lon="15.4161949158">
        <ele>0</ele>
        <time>2013-05-01T12:07:02Z</time>
      </trkpt>
      <trkpt lat="60.1306686401" lon="15.4157180786">
        <ele>0</ele>
        <time>2013-05-01T12:07:07Z</time>
      </trkpt>
      <trkpt lat="60.1307106018" lon="15.4156084061">
        <ele>0</ele>
        <time>2013-05-01T12:07:08Z</time>
      </trkpt>
      <trkpt lat="60.1307487488" lon="15.4155254364">
        <ele>0</ele>
        <time>2013-05-01T12:07:09Z</time>
      </trkpt>
      <trkpt lat="60.130821228" lon="15.4153652191">
        <ele>0</ele>
        <time>2013-05-01T12:07:11Z</time>
      </trkpt>
      <trkpt lat="60.1308746338" lon="15.4152641296">
        <ele>0</ele>
        <time>2013-05-01T12:07:12Z</time>
      </trkpt>
      <trkpt lat="60.1309242249" lon="15.4151659012">
        <ele>0</ele>
        <time>2013-05-01T12:07:13Z</time>
      </trkpt>
      <trkpt lat="60.1309623718" lon="15.4150981903">
        <ele>0</ele>
        <time>2013-05-01T12:07:14Z</time>
      </trkpt>
      <trkpt lat="60.1310119629" lon="15.4149999619">
        <ele>0</ele>
        <time>2013-05-01T12:07:15Z</time>
      </trkpt>
      <trkpt lat="60.131072998" lon="15.4148893356">
        <ele>0</ele>
        <time>2013-05-01T12:07:16Z</time>
      </trkpt>
      <trkpt lat="60.1311149597" lon="15.4148111343">
        <ele>0</ele>
        <time>2013-05-01T12:07:17Z</time>
      </trkpt>
      <trkpt lat="60.1311759949" lon="15.4147033691">
        <ele>0</ele>
        <time>2013-05-01T12:07:18Z</time>
      </trkpt>
      <trkpt lat="60.1312828064" lon="15.41451931">
        <ele>0</ele>
        <time>2013-05-01T12:07:20Z</time>
      </trkpt>
      <trkpt lat="60.1313400269" lon="15.4144172668">
        <ele>0</ele>
        <time>2013-05-01T12:07:21Z</time>
      </trkpt>
      <trkpt lat="60.1313743591" lon="15.4143533707">
        <ele>0</ele>
        <time>2013-05-01T12:07:22Z</time>
      </trkpt>
      <trkpt lat="60.131439209" lon="15.4142379761">
        <ele>0</ele>
        <time>2013-05-01T12:07:23Z</time>
      </trkpt>
      <trkpt lat="60.1315078735" lon="15.4141044617">
        <ele>0</ele>
        <time>2013-05-01T12:07:24Z</time>
      </trkpt>
      <trkpt lat="60.1315536499" lon="15.4140071869">
        <ele>0</ele>
        <time>2013-05-01T12:07:25Z</time>
      </trkpt>
      <trkpt lat="60.1316146851" lon="15.4138898849">
        <ele>0</ele>
        <time>2013-05-01T12:07:26Z</time>
      </trkpt>
      <trkpt lat="60.1316452026" lon="15.4138212204">
        <ele>0</ele>
        <time>2013-05-01T12:07:27Z</time>
      </trkpt>
      <trkpt lat="60.1317253113" lon="15.4136505127">
        <ele>0</ele>
        <time>2013-05-01T12:07:29Z</time>
      </trkpt>
      <trkpt lat="60.1318969727" lon="15.4132432938">
        <ele>0</ele>
        <time>2013-05-01T12:07:32Z</time>
      </trkpt>
      <trkpt lat="60.1319465637" lon="15.4131174088">
        <ele>0</ele>
        <time>2013-05-01T12:07:33Z</time>
      </trkpt>
      <trkpt lat="60.1319770813" lon="15.4130430222">
        <ele>0</ele>
        <time>2013-05-01T12:07:34Z</time>
      </trkpt>
      <trkpt lat="60.1320266724" lon="15.4129199982">
        <ele>0</ele>
        <time>2013-05-01T12:07:35Z</time>
      </trkpt>
      <trkpt lat="60.1320877075" lon="15.4127845764">
        <ele>0</ele>
        <time>2013-05-01T12:07:36Z</time>
      </trkpt>
      <trkpt lat="60.1321258545" lon="15.4126815796">
        <ele>0</ele>
        <time>2013-05-01T12:07:37Z</time>
      </trkpt>
      <trkpt lat="60.1321754456" lon="15.4125499725">
        <ele>0</ele>
        <time>2013-05-01T12:07:38Z</time>
      </trkpt>
      <trkpt lat="60.1322174072" lon="15.4124612808">
        <ele>0</ele>
        <time>2013-05-01T12:07:39Z</time>
      </trkpt>
      <trkpt lat="60.132270813" lon="15.4123249054">
        <ele>0</ele>
        <time>2013-05-01T12:07:40Z</time>
      </trkpt>
      <trkpt lat="60.1323204041" lon="15.4122142792">
        <ele>0</ele>
        <time>2013-05-01T12:07:41Z</time>
      </trkpt>
      <trkpt lat="60.1323661804" lon="15.4121303558">
        <ele>0</ele>
        <time>2013-05-01T12:07:42Z</time>
      </trkpt>
      <trkpt lat="60.1324234009" lon="15.4120006561">
        <ele>0</ele>
        <time>2013-05-01T12:07:43Z</time>
      </trkpt>
      <trkpt lat="60.1324920654" lon="15.4118528366">
        <ele>0</ele>
        <time>2013-05-01T12:07:44Z</time>
      </trkpt>
      <trkpt lat="60.1325416565" lon="15.4117412567">
        <ele>0</ele>
        <time>2013-05-01T12:07:45Z</time>
      </trkpt>
      <trkpt lat="60.1326065063" lon="15.4115953445">
        <ele>0</ele>
        <time>2013-05-01T12:07:46Z</time>
      </trkpt>
      <trkpt lat="60.1327285767" lon="15.4113311768">
        <ele>0</ele>
        <time>2013-05-01T12:07:48Z</time>
      </trkpt>
      <trkpt lat="60.1328010559" lon="15.4111652374">
        <ele>0</ele>
        <time>2013-05-01T12:07:49Z</time>
      </trkpt>
      <trkpt lat="60.1328620911" lon="15.4110450745">
        <ele>0</ele>
        <time>2013-05-01T12:07:50Z</time>
      </trkpt>
      <trkpt lat="60.1329231262" lon="15.4109153748">
        <ele>0</ele>
        <time>2013-05-01T12:07:51Z</time>
      </trkpt>
      <trkpt lat="60.1329956055" lon="15.4107599258">
        <ele>0</ele>
        <time>2013-05-01T12:07:52Z</time>
      </trkpt>
      <trkpt lat="60.1330757141" lon="15.4106063843">
        <ele>0</ele>
        <time>2013-05-01T12:07:53Z</time>
      </trkpt>
      <trkpt lat="60.1331367493" lon="15.4104557037">
        <ele>0</ele>
        <time>2013-05-01T12:07:54Z</time>
      </trkpt>
      <trkpt lat="60.1331939697" lon="15.4103441238">
        <ele>0</ele>
        <time>2013-05-01T12:07:55Z</time>
      </trkpt>
      <trkpt lat="60.1332855225" lon="15.4102010727">
        <ele>0</ele>
        <time>2013-05-01T12:07:56Z</time>
      </trkpt>
      <trkpt lat="60.1333427429" lon="15.4100809097">
        <ele>0</ele>
        <time>2013-05-01T12:07:57Z</time>
      </trkpt>
      <trkpt lat="60.1334190369" lon="15.40995121">
        <ele>0</ele>
        <time>2013-05-01T12:07:58Z</time>
      </trkpt>
      <trkpt lat="60.1334686279" lon="15.4098615646">
        <ele>0</ele>
        <time>2013-05-01T12:07:59Z</time>
      </trkpt>
      <trkpt lat="60.1335601807" lon="15.4096899033">
        <ele>0</ele>
        <time>2013-05-01T12:08:00Z</time>
      </trkpt>
      <trkpt lat="60.1337013245" lon="15.4094486237">
        <ele>0</ele>
        <time>2013-05-01T12:08:02Z</time>
      </trkpt>
      <trkpt lat="60.1339759827" lon="15.4089756012">
        <ele>0</ele>
        <time>2013-05-01T12:08:06Z</time>
      </trkpt>
      <trkpt lat="60.1341133118" lon="15.4087505341">
        <ele>0</ele>
        <time>2013-05-01T12:08:08Z</time>
      </trkpt>
      <trkpt lat="60.1341705322" lon="15.4086370468">
        <ele>0</ele>
        <time>2013-05-01T12:08:09Z</time>
      </trkpt>
      <trkpt lat="60.1342201233" lon="15.4085512161">
        <ele>0</ele>
        <time>2013-05-01T12:08:10Z</time>
      </trkpt>
      <trkpt lat="60.1342964172" lon="15.4084100723">
        <ele>0</ele>
        <time>2013-05-01T12:08:11Z</time>
      </trkpt>
      <trkpt lat="60.134349823" lon="15.4083013535">
        <ele>0</ele>
        <time>2013-05-01T12:08:12Z</time>
      </trkpt>
      <trkpt lat="60.1344184875" lon="15.4081678391">
        <ele>0</ele>
        <time>2013-05-01T12:08:13Z</time>
      </trkpt>
      <trkpt lat="60.1344604492" lon="15.4080724716">
        <ele>0</ele>
        <time>2013-05-01T12:08:14Z</time>
      </trkpt>
      <trkpt lat="60.1345024109" lon="15.4079809189">
        <ele>0</ele>
        <time>2013-05-01T12:08:15Z</time>
      </trkpt>
      <trkpt lat="60.1345558167" lon="15.4078607559">
        <ele>0</ele>
        <time>2013-05-01T12:08:16Z</time>
      </trkpt>
      <trkpt lat="60.1345901489" lon="15.4077730179">
        <ele>0</ele>
        <time>2013-05-01T12:08:17Z</time>
      </trkpt>
      <trkpt lat="60.1346282959" lon="15.4076728821">
        <ele>0</ele>
        <time>2013-05-01T12:08:18Z</time>
      </trkpt>
      <trkpt lat="60.1346626282" lon="15.4075946808">
        <ele>0</ele>
        <time>2013-05-01T12:08:19Z</time>
      </trkpt>
      <trkpt lat="60.1346969604" lon="15.407494545">
        <ele>0</ele>
        <time>2013-05-01T12:08:20Z</time>
      </trkpt>
      <trkpt lat="60.134727478" lon="15.4073963165">
        <ele>0</ele>
        <time>2013-05-01T12:08:21Z</time>
      </trkpt>
      <trkpt lat="60.1347503662" lon="15.407327652">
        <ele>0</ele>
        <time>2013-05-01T12:08:22Z</time>
      </trkpt>
      <trkpt lat="60.1347885132" lon="15.4072284698">
        <ele>0</ele>
        <time>2013-05-01T12:08:23Z</time>
      </trkpt>
      <trkpt lat="60.1348266602" lon="15.4071102142">
        <ele>0</ele>
        <time>2013-05-01T12:08:24Z</time>
      </trkpt>
      <trkpt lat="60.134853363" lon="15.4070224762">
        <ele>0</ele>
        <time>2013-05-01T12:08:25Z</time>
      </trkpt>
      <trkpt lat="60.1348838806" lon="15.4069299698">
        <ele>0</ele>
        <time>2013-05-01T12:08:26Z</time>
      </trkpt>
      <trkpt lat="60.1349029541" lon="15.4068670273">
        <ele>0</ele>
        <time>2013-05-01T12:08:27Z</time>
      </trkpt>
      <trkpt lat="60.1349372864" lon="15.4067554474">
        <ele>0</ele>
        <time>2013-05-01T12:08:28Z</time>
      </trkpt>
      <trkpt lat="60.1349639893" lon="15.4066753387">
        <ele>0</ele>
        <time>2013-05-01T12:08:29Z</time>
      </trkpt>
      <trkpt lat="60.1349945068" lon="15.4065895081">
        <ele>0</ele>
        <time>2013-05-01T12:08:30Z</time>
      </trkpt>
      <trkpt lat="60.135017395" lon="15.4065294266">
        <ele>0</ele>
        <time>2013-05-01T12:08:31Z</time>
      </trkpt>
      <trkpt lat="60.1350440979" lon="15.406457901">
        <ele>0</ele>
        <time>2013-05-01T12:08:32Z</time>
      </trkpt>
      <trkpt lat="60.1350784302" lon="15.4063949585">
        <ele>0</ele>
        <time>2013-05-01T12:08:33Z</time>
      </trkpt>
      <trkpt lat="60.1351165771" lon="15.406370163">
        <ele>0</ele>
        <time>2013-05-01T12:08:34Z</time>
      </trkpt>
      <trkpt lat="60.1351509094" lon="15.4063673019">
        <ele>0</ele>
        <time>2013-05-01T12:08:35Z</time>
      </trkpt>
      <trkpt lat="60.1352081299" lon="15.4063873291">
        <ele>0</ele>
        <time>2013-05-01T12:08:36Z</time>
      </trkpt>
      <trkpt lat="60.1352882385" lon="15.4064722061">
        <ele>0</ele>
        <time>2013-05-01T12:08:38Z</time>
      </trkpt>
      <trkpt lat="60.1353149414" lon="15.4065170288">
        <ele>0</ele>
        <time>2013-05-01T12:08:39Z</time>
      </trkpt>
      <trkpt lat="60.1353607178" lon="15.4065799713">
        <ele>0</ele>
        <time>2013-05-01T12:08:40Z</time>
      </trkpt>
      <trkpt lat="60.1354026794" lon="15.4066343307">
        <ele>0</ele>
        <time>2013-05-01T12:08:41Z</time>
      </trkpt>
      <trkpt lat="60.1354446411" lon="15.4066867828">
        <ele>0</ele>
        <time>2013-05-01T12:08:42Z</time>
      </trkpt>
      <trkpt lat="60.1354827881" lon="15.4067296982">
        <ele>0</ele>
        <time>2013-05-01T12:08:43Z</time>
      </trkpt>
      <trkpt lat="60.1355361938" lon="15.4067821503">
        <ele>0</ele>
        <time>2013-05-01T12:08:44Z</time>
      </trkpt>
      <trkpt lat="60.1355819702" lon="15.4068336487">
        <ele>0</ele>
        <time>2013-05-01T12:08:45Z</time>
      </trkpt>
      <trkpt lat="60.1356277466" lon="15.4068975449">
        <ele>0</ele>
        <time>2013-05-01T12:08:46Z</time>
      </trkpt>
      <trkpt lat="60.1356544495" lon="15.4069385529">
        <ele>0</ele>
        <time>2013-05-01T12:08:47Z</time>
      </trkpt>
      <trkpt lat="60.1357154846" lon="15.4070138931">
        <ele>0</ele>
        <time>2013-05-01T12:08:48Z</time>
      </trkpt>
      <trkpt lat="60.1357650757" lon="15.4070777893">
        <ele>0</ele>
        <time>2013-05-01T12:08:49Z</time>
      </trkpt>
      <trkpt lat="60.1358032227" lon="15.4071273804">
        <ele>0</ele>
        <time>2013-05-01T12:08:50Z</time>
      </trkpt>
      <trkpt lat="60.1358604431" lon="15.4072008133">
        <ele>0</ele>
        <time>2013-05-01T12:08:51Z</time>
      </trkpt>
      <trkpt lat="60.1359138489" lon="15.4072666168">
        <ele>0</ele>
        <time>2013-05-01T12:08:52Z</time>
      </trkpt>
      <trkpt lat="60.1363601685" lon="15.4078149796">
        <ele>0</ele>
        <time>2013-05-01T12:09:00Z</time>
      </trkpt>
      <trkpt lat="60.136428833" lon="15.4078989029">
        <ele>0</ele>
        <time>2013-05-01T12:09:01Z</time>
      </trkpt>
      <trkpt lat="60.1367378235" lon="15.4082946777">
        <ele>0</ele>
        <time>2013-05-01T12:09:06Z</time>
      </trkpt>
      <trkpt lat="60.1367988586" lon="15.4083585739">
        <ele>0</ele>
        <time>2013-05-01T12:09:07Z</time>
      </trkpt>
      <trkpt lat="60.1368675232" lon="15.4084196091">
        <ele>0</ele>
        <time>2013-05-01T12:09:08Z</time>
      </trkpt>
      <trkpt lat="60.1369361877" lon="15.4084777832">
        <ele>0</ele>
        <time>2013-05-01T12:09:09Z</time>
      </trkpt>
      <trkpt lat="60.1369972229" lon="15.4085102081">
        <ele>0</ele>
        <time>2013-05-01T12:09:10Z</time>
      </trkpt>
      <trkpt lat="60.1370887756" lon="15.4085426331">
        <ele>0</ele>
        <time>2013-05-01T12:09:11Z</time>
      </trkpt>
      <trkpt lat="60.1372528076" lon="15.4085597992">
        <ele>0</ele>
        <time>2013-05-01T12:09:13Z</time>
      </trkpt>
      <trkpt lat="60.1374168396" lon="15.4085235596">
        <ele>0</ele>
        <time>2013-05-01T12:09:15Z</time>
      </trkpt>
      <trkpt lat="60.1375732422" lon="15.4084243774">
        <ele>0</ele>
        <time>2013-05-01T12:09:17Z</time>
      </trkpt>
      <trkpt lat="60.1376457214" lon="15.408364296">
        <ele>0</ele>
        <time>2013-05-01T12:09:18Z</time>
      </trkpt>
      <trkpt lat="60.1377105713" lon="15.4082727432">
        <ele>0</ele>
        <time>2013-05-01T12:09:19Z</time>
      </trkpt>
      <trkpt lat="60.1378479004" lon="15.4080896378">
        <ele>0</ele>
        <time>2013-05-01T12:09:21Z</time>
      </trkpt>
      <trkpt lat="60.1378936768" lon="15.4080286026">
        <ele>0</ele>
        <time>2013-05-01T12:09:22Z</time>
      </trkpt>
      <trkpt lat="60.1379432678" lon="15.4079627991">
        <ele>0</ele>
        <time>2013-05-01T12:09:23Z</time>
      </trkpt>
      <trkpt lat="60.1380462646" lon="15.4078140259">
        <ele>0</ele>
        <time>2013-05-01T12:09:24Z</time>
      </trkpt>
      <trkpt lat="60.1381187439" lon="15.4077224731">
        <ele>0</ele>
        <time>2013-05-01T12:09:25Z</time>
      </trkpt>
      <trkpt lat="60.1381835938" lon="15.4076375961">
        <ele>0</ele>
        <time>2013-05-01T12:09:26Z</time>
      </trkpt>
      <trkpt lat="60.1382522583" lon="15.4075737">
        <ele>0</ele>
        <time>2013-05-01T12:09:27Z</time>
      </trkpt>
      <trkpt lat="60.1383285522" lon="15.4075059891">
        <ele>0</ele>
        <time>2013-05-01T12:09:28Z</time>
      </trkpt>
      <trkpt lat="60.1384086609" lon="15.4074659348">
        <ele>0</ele>
        <time>2013-05-01T12:09:29Z</time>
      </trkpt>
      <trkpt lat="60.1384773254" lon="15.4074430466">
        <ele>0</ele>
        <time>2013-05-01T12:09:30Z</time>
      </trkpt>
      <trkpt lat="60.1385879517" lon="15.4074306488">
        <ele>0</ele>
        <time>2013-05-01T12:09:31Z</time>
      </trkpt>
      <trkpt lat="60.1386795044" lon="15.4074296951">
        <ele>0</ele>
        <time>2013-05-01T12:09:32Z</time>
      </trkpt>
      <trkpt lat="60.1387748718" lon="15.4074373245">
        <ele>0</ele>
        <time>2013-05-01T12:09:33Z</time>
      </trkpt>
      <trkpt lat="60.1388664246" lon="15.4074468613">
        <ele>0</ele>
        <time>2013-05-01T12:09:34Z</time>
      </trkpt>
      <trkpt lat="60.138961792" lon="15.4074840546">
        <ele>0</ele>
        <time>2013-05-01T12:09:35Z</time>
      </trkpt>
      <trkpt lat="60.1390533447" lon="15.4075250626">
        <ele>0</ele>
        <time>2013-05-01T12:09:36Z</time>
      </trkpt>
      <trkpt lat="60.1391525269" lon="15.4075889587">
        <ele>0</ele>
        <time>2013-05-01T12:09:37Z</time>
      </trkpt>
      <trkpt lat="60.1392478943" lon="15.4076538086">
        <ele>0</ele>
        <time>2013-05-01T12:09:38Z</time>
      </trkpt>
      <trkpt lat="60.1393318176" lon="15.4077625275">
        <ele>0</ele>
        <time>2013-05-01T12:09:39Z</time>
      </trkpt>
      <trkpt lat="60.139415741" lon="15.4078712463">
        <ele>0</ele>
        <time>2013-05-01T12:09:40Z</time>
      </trkpt>
      <trkpt lat="60.1394996643" lon="15.4079885483">
        <ele>0</ele>
        <time>2013-05-01T12:09:41Z</time>
      </trkpt>
      <trkpt lat="60.1395721436" lon="15.4081335068">
        <ele>0</ele>
        <time>2013-05-01T12:09:42Z</time>
      </trkpt>
      <trkpt lat="60.1396408081" lon="15.4083070755">
        <ele>0</ele>
        <time>2013-05-01T12:09:43Z</time>
      </trkpt>
      <trkpt lat="60.139705658" lon="15.4084615707">
        <ele>0</ele>
        <time>2013-05-01T12:09:44Z</time>
      </trkpt>
      <trkpt lat="60.1397705078" lon="15.4086256027">
        <ele>0</ele>
        <time>2013-05-01T12:09:45Z</time>
      </trkpt>
      <trkpt lat="60.1398353577" lon="15.4087810516">
        <ele>0</ele>
        <time>2013-05-01T12:09:46Z</time>
      </trkpt>
      <trkpt lat="60.1398849487" lon="15.408914566">
        <ele>0</ele>
        <time>2013-05-01T12:09:47Z</time>
      </trkpt>
      <trkpt lat="60.1400032043" lon="15.4092035294">
        <ele>0</ele>
        <time>2013-05-01T12:09:49Z</time>
      </trkpt>
      <trkpt lat="60.140045166" lon="15.4093084335">
        <ele>0</ele>
        <time>2013-05-01T12:09:50Z</time>
      </trkpt>
      <trkpt lat="60.1401062012" lon="15.4094686508">
        <ele>0</ele>
        <time>2013-05-01T12:09:51Z</time>
      </trkpt>
      <trkpt lat="60.1401634216" lon="15.4096107483">
        <ele>0</ele>
        <time>2013-05-01T12:09:52Z</time>
      </trkpt>
      <trkpt lat="60.1402740479" lon="15.4098825455">
        <ele>0</ele>
        <time>2013-05-01T12:09:54Z</time>
      </trkpt>
      <trkpt lat="60.1403198242" lon="15.4099855423">
        <ele>0</ele>
        <time>2013-05-01T12:09:55Z</time>
      </trkpt>
      <trkpt lat="60.1403808594" lon="15.4101305008">
        <ele>0</ele>
        <time>2013-05-01T12:09:56Z</time>
      </trkpt>
      <trkpt lat="60.1404266357" lon="15.4102563858">
        <ele>0</ele>
        <time>2013-05-01T12:09:57Z</time>
      </trkpt>
      <trkpt lat="60.1404724121" lon="15.4103794098">
        <ele>0</ele>
        <time>2013-05-01T12:09:58Z</time>
      </trkpt>
      <trkpt lat="60.1405220032" lon="15.4104881287">
        <ele>0</ele>
        <time>2013-05-01T12:09:59Z</time>
      </trkpt>
      <trkpt lat="60.1406211853" lon="15.4107112885">
        <ele>0</ele>
        <time>2013-05-01T12:10:01Z</time>
      </trkpt>
      <trkpt lat="60.1406555176" lon="15.4107809067">
        <ele>0</ele>
        <time>2013-05-01T12:10:02Z</time>
      </trkpt>
      <trkpt lat="60.1407165527" lon="15.4109163284">
        <ele>0</ele>
        <time>2013-05-01T12:10:03Z</time>
      </trkpt>
      <trkpt lat="60.1407623291" lon="15.4110221863">
        <ele>0</ele>
        <time>2013-05-01T12:10:04Z</time>
      </trkpt>
      <trkpt lat="60.1407623291" lon="15.4110546112">
        <ele>0</ele>
        <time>2013-05-01T12:10:05Z</time>
      </trkpt>
      <trkpt lat="60.1407852173" lon="15.4112329483">
        <ele>0</ele>
        <time>2013-05-01T12:10:06Z</time>
      </trkpt>
      <trkpt lat="60.1407737732" lon="15.411441803">
        <ele>0</ele>
        <time>2013-05-01T12:10:07Z</time>
      </trkpt>
      <trkpt lat="60.140750885" lon="15.4115924835">
        <ele>0</ele>
        <time>2013-05-01T12:10:08Z</time>
      </trkpt>
      <trkpt lat="60.1407279968" lon="15.4117298126">
        <ele>0</ele>
        <time>2013-05-01T12:10:09Z</time>
      </trkpt>
      <trkpt lat="60.140712738" lon="15.4118270874">
        <ele>0</ele>
        <time>2013-05-01T12:10:10Z</time>
      </trkpt>
      <trkpt lat="60.140625" lon="15.412279129">
        <ele>0</ele>
        <time>2013-05-01T12:10:13Z</time>
      </trkpt>
      <trkpt lat="60.1405639648" lon="15.412560463">
        <ele>0</ele>
        <time>2013-05-01T12:10:15Z</time>
      </trkpt>
      <trkpt lat="60.1404304504" lon="15.4131355286">
        <ele>0</ele>
        <time>2013-05-01T12:10:19Z</time>
      </trkpt>
      <trkpt lat="60.1403923035" lon="15.4132909775">
        <ele>0</ele>
        <time>2013-05-01T12:10:20Z</time>
      </trkpt>
      <trkpt lat="60.1403656006" lon="15.4134407043">
        <ele>0</ele>
        <time>2013-05-01T12:10:21Z</time>
      </trkpt>
      <trkpt lat="60.1403427124" lon="15.4136009216">
        <ele>0</ele>
        <time>2013-05-01T12:10:22Z</time>
      </trkpt>
      <trkpt lat="60.1403656006" lon="15.4137687683">
        <ele>0</ele>
        <time>2013-05-01T12:10:23Z</time>
      </trkpt>
      <trkpt lat="60.1404762268" lon="15.4141492844">
        <ele>0</ele>
        <time>2013-05-01T12:10:26Z</time>
      </trkpt>
      <trkpt lat="60.1405410767" lon="15.4142084122">
        <ele>0</ele>
        <time>2013-05-01T12:10:27Z</time>
      </trkpt>
      <trkpt lat="60.1406021118" lon="15.4142894745">
        <ele>0</ele>
        <time>2013-05-01T12:10:28Z</time>
      </trkpt>
      <trkpt lat="60.1406669617" lon="15.4143762589">
        <ele>0</ele>
        <time>2013-05-01T12:10:29Z</time>
      </trkpt>
      <trkpt lat="60.1407165527" lon="15.414431572">
        <ele>0</ele>
        <time>2013-05-01T12:10:30Z</time>
      </trkpt>
      <trkpt lat="60.1407814026" lon="15.4145088196">
        <ele>0</ele>
        <time>2013-05-01T12:10:31Z</time>
      </trkpt>
      <trkpt lat="60.1408462524" lon="15.414604187">
        <ele>0</ele>
        <time>2013-05-01T12:10:32Z</time>
      </trkpt>
      <trkpt lat="60.1410102844" lon="15.4148111343">
        <ele>0</ele>
        <time>2013-05-01T12:10:35Z</time>
      </trkpt>
      <trkpt lat="60.1412620544" lon="15.4151449203">
        <ele>0</ele>
        <time>2013-05-01T12:10:40Z</time>
      </trkpt>
      <trkpt lat="60.1413040161" lon="15.4151992798">
        <ele>0</ele>
        <time>2013-05-01T12:10:41Z</time>
      </trkpt>
      <trkpt lat="60.1413459778" lon="15.4152565002">
        <ele>0</ele>
        <time>2013-05-01T12:10:42Z</time>
      </trkpt>
      <trkpt lat="60.1414146423" lon="15.4153356552">
        <ele>0</ele>
        <time>2013-05-01T12:10:43Z</time>
      </trkpt>
      <trkpt lat="60.1415176392" lon="15.4154672623">
        <ele>0</ele>
        <time>2013-05-01T12:10:45Z</time>
      </trkpt>
      <trkpt lat="60.1415710449" lon="15.4155349731">
        <ele>0</ele>
        <time>2013-05-01T12:10:46Z</time>
      </trkpt>
      <trkpt lat="60.1416168213" lon="15.4155931473">
        <ele>0</ele>
        <time>2013-05-01T12:10:47Z</time>
      </trkpt>
      <trkpt lat="60.1416740417" lon="15.4156551361">
        <ele>0</ele>
        <time>2013-05-01T12:10:48Z</time>
      </trkpt>
      <trkpt lat="60.1417274475" lon="15.4157123566">
        <ele>0</ele>
        <time>2013-05-01T12:10:49Z</time>
      </trkpt>
      <trkpt lat="60.1417617798" lon="15.4157457352">
        <ele>0</ele>
        <time>2013-05-01T12:10:50Z</time>
      </trkpt>
      <trkpt lat="60.1418228149" lon="15.4157838821">
        <ele>0</ele>
        <time>2013-05-01T12:10:51Z</time>
      </trkpt>
      <trkpt lat="60.1418914795" lon="15.4157867432">
        <ele>0</ele>
        <time>2013-05-01T12:10:52Z</time>
      </trkpt>
      <trkpt lat="60.1419563293" lon="15.4157514572">
        <ele>0</ele>
        <time>2013-05-01T12:10:53Z</time>
      </trkpt>
      <trkpt lat="60.1420555115" lon="15.4156427383">
        <ele>0</ele>
        <time>2013-05-01T12:10:55Z</time>
      </trkpt>
      <trkpt lat="60.1421394348" lon="15.4154872894">
        <ele>0</ele>
        <time>2013-05-01T12:10:57Z</time>
      </trkpt>
      <trkpt lat="60.1422767639" lon="15.4152336121">
        <ele>0</ele>
        <time>2013-05-01T12:11:00Z</time>
      </trkpt>
      <trkpt lat="60.1423225403" lon="15.4151525497">
        <ele>0</ele>
        <time>2013-05-01T12:11:01Z</time>
      </trkpt>
      <trkpt lat="60.142364502" lon="15.4150848389">
        <ele>0</ele>
        <time>2013-05-01T12:11:02Z</time>
      </trkpt>
      <trkpt lat="60.142414093" lon="15.4150075912">
        <ele>0</ele>
        <time>2013-05-01T12:11:03Z</time>
      </trkpt>
      <trkpt lat="60.1424598694" lon="15.4149360657">
        <ele>0</ele>
        <time>2013-05-01T12:11:04Z</time>
      </trkpt>
      <trkpt lat="60.1425132751" lon="15.4148645401">
        <ele>0</ele>
        <time>2013-05-01T12:11:05Z</time>
      </trkpt>
      <trkpt lat="60.1425628662" lon="15.4147977829">
        <ele>0</ele>
        <time>2013-05-01T12:11:06Z</time>
      </trkpt>
      <trkpt lat="60.1426048279" lon="15.4147453308">
        <ele>0</ele>
        <time>2013-05-01T12:11:07Z</time>
      </trkpt>
      <trkpt lat="60.1426506042" lon="15.4146881104">
        <ele>0</ele>
        <time>2013-05-01T12:11:08Z</time>
      </trkpt>
      <trkpt lat="60.1426963806" lon="15.4146318436">
        <ele>0</ele>
        <time>2013-05-01T12:11:09Z</time>
      </trkpt>
      <trkpt lat="60.1427268982" lon="15.4146165848">
        <ele>0</ele>
        <time>2013-05-01T12:11:10Z</time>
      </trkpt>
      <trkpt lat="60.1427726746" lon="15.4146203995">
        <ele>0</ele>
        <time>2013-05-01T12:11:11Z</time>
      </trkpt>
      <trkpt lat="60.1428222656" lon="15.4146881104">
        <ele>0</ele>
        <time>2013-05-01T12:11:12Z</time>
      </trkpt>
      <trkpt lat="60.142868042" lon="15.4148569107">
        <ele>0</ele>
        <time>2013-05-01T12:11:14Z</time>
      </trkpt>
      <trkpt lat="60.1429023743" lon="15.4149484634">
        <ele>0</ele>
        <time>2013-05-01T12:11:15Z</time>
      </trkpt>
      <trkpt lat="60.1429290771" lon="15.4150447845">
        <ele>0</ele>
        <time>2013-05-01T12:11:16Z</time>
      </trkpt>
      <trkpt lat="60.1429634094" lon="15.4151544571">
        <ele>0</ele>
        <time>2013-05-01T12:11:17Z</time>
      </trkpt>
      <trkpt lat="60.1430206299" lon="15.4153862">
        <ele>0</ele>
        <time>2013-05-01T12:11:19Z</time>
      </trkpt>
      <trkpt lat="60.1430549622" lon="15.4155101776">
        <ele>0</ele>
        <time>2013-05-01T12:11:20Z</time>
      </trkpt>
      <trkpt lat="60.1430892944" lon="15.4156293869">
        <ele>0</ele>
        <time>2013-05-01T12:11:21Z</time>
      </trkpt>
      <trkpt lat="60.1431274414" lon="15.4157619476">
        <ele>0</ele>
        <time>2013-05-01T12:11:22Z</time>
      </trkpt>
      <trkpt lat="60.1431732178" lon="15.4159240723">
        <ele>0</ele>
        <time>2013-05-01T12:11:23Z</time>
      </trkpt>
      <trkpt lat="60.1432113647" lon="15.4160480499">
        <ele>0</ele>
        <time>2013-05-01T12:11:24Z</time>
      </trkpt>
      <trkpt lat="60.1432495117" lon="15.4161920547">
        <ele>0</ele>
        <time>2013-05-01T12:11:25Z</time>
      </trkpt>
      <trkpt lat="60.1432876587" lon="15.4163351059">
        <ele>0</ele>
        <time>2013-05-01T12:11:26Z</time>
      </trkpt>
      <trkpt lat="60.143321991" lon="15.4164686203">
        <ele>0</ele>
        <time>2013-05-01T12:11:27Z</time>
      </trkpt>
      <trkpt lat="60.1433563232" lon="15.4166154861">
        <ele>0</ele>
        <time>2013-05-01T12:11:28Z</time>
      </trkpt>
      <trkpt lat="60.1433906555" lon="15.4167604446">
        <ele>0</ele>
        <time>2013-05-01T12:11:29Z</time>
      </trkpt>
      <trkpt lat="60.1434669495" lon="15.4170589447">
        <ele>0</ele>
        <time>2013-05-01T12:11:31Z</time>
      </trkpt>
      <trkpt lat="60.1435127258" lon="15.4172706604">
        <ele>0</ele>
        <time>2013-05-01T12:11:32Z</time>
      </trkpt>
      <trkpt lat="60.1435394287" lon="15.4173650742">
        <ele>0</ele>
        <time>2013-05-01T12:11:33Z</time>
      </trkpt>
      <trkpt lat="60.1435775757" lon="15.4175081253">
        <ele>0</ele>
        <time>2013-05-01T12:11:34Z</time>
      </trkpt>
      <trkpt lat="60.1436271667" lon="15.4176445007">
        <ele>0</ele>
        <time>2013-05-01T12:11:35Z</time>
      </trkpt>
      <trkpt lat="60.143661499" lon="15.4177598953">
        <ele>0</ele>
        <time>2013-05-01T12:11:36Z</time>
      </trkpt>
      <trkpt lat="60.1436958313" lon="15.4179019928">
        <ele>0</ele>
        <time>2013-05-01T12:11:37Z</time>
      </trkpt>
      <trkpt lat="60.1437225342" lon="15.4180326462">
        <ele>0</ele>
        <time>2013-05-01T12:11:38Z</time>
      </trkpt>
      <trkpt lat="60.1437568665" lon="15.4181480408">
        <ele>0</ele>
        <time>2013-05-01T12:11:39Z</time>
      </trkpt>
      <trkpt lat="60.1438865662" lon="15.4186897278">
        <ele>0</ele>
        <time>2013-05-01T12:11:43Z</time>
      </trkpt>
      <trkpt lat="60.1439628601" lon="15.418967247">
        <ele>0</ele>
        <time>2013-05-01T12:11:45Z</time>
      </trkpt>
      <trkpt lat="60.1439971924" lon="15.4191017151">
        <ele>0</ele>
        <time>2013-05-01T12:11:46Z</time>
      </trkpt>
      <trkpt lat="60.1440238953" lon="15.4192361832">
        <ele>0</ele>
        <time>2013-05-01T12:11:47Z</time>
      </trkpt>
      <trkpt lat="60.1440887451" lon="15.4194984436">
        <ele>0</ele>
        <time>2013-05-01T12:11:49Z</time>
      </trkpt>
      <trkpt lat="60.1441192627" lon="15.419634819">
        <ele>0</ele>
        <time>2013-05-01T12:11:50Z</time>
      </trkpt>
      <trkpt lat="60.144153595" lon="15.4197845459">
        <ele>0</ele>
        <time>2013-05-01T12:11:51Z</time>
      </trkpt>
      <trkpt lat="60.1442184448" lon="15.4200592041">
        <ele>0</ele>
        <time>2013-05-01T12:11:53Z</time>
      </trkpt>
      <trkpt lat="60.1442489624" lon="15.4201974869">
        <ele>0</ele>
        <time>2013-05-01T12:11:54Z</time>
      </trkpt>
      <trkpt lat="60.1443023682" lon="15.4204626083">
        <ele>0</ele>
        <time>2013-05-01T12:11:56Z</time>
      </trkpt>
      <trkpt lat="60.144329071" lon="15.4206132889">
        <ele>0</ele>
        <time>2013-05-01T12:11:57Z</time>
      </trkpt>
      <trkpt lat="60.1443710327" lon="15.420882225">
        <ele>0</ele>
        <time>2013-05-01T12:11:59Z</time>
      </trkpt>
      <trkpt lat="60.1444015503" lon="15.4210338593">
        <ele>0</ele>
        <time>2013-05-01T12:12:00Z</time>
      </trkpt>
      <trkpt lat="60.1444358826" lon="15.4211549759">
        <ele>0</ele>
        <time>2013-05-01T12:12:01Z</time>
      </trkpt>
      <trkpt lat="60.1444740295" lon="15.4212865829">
        <ele>0</ele>
        <time>2013-05-01T12:12:02Z</time>
      </trkpt>
      <trkpt lat="60.1445045471" lon="15.4214420319">
        <ele>0</ele>
        <time>2013-05-01T12:12:03Z</time>
      </trkpt>
      <trkpt lat="60.1445350647" lon="15.4215764999">
        <ele>0</ele>
        <time>2013-05-01T12:12:04Z</time>
      </trkpt>
      <trkpt lat="60.1446266174" lon="15.4220066071">
        <ele>0</ele>
        <time>2013-05-01T12:12:07Z</time>
      </trkpt>
      <trkpt lat="60.1447868347" lon="15.4227190018">
        <ele>0</ele>
        <time>2013-05-01T12:12:12Z</time>
      </trkpt>
      <trkpt lat="60.1448173523" lon="15.4228601456">
        <ele>0</ele>
        <time>2013-05-01T12:12:13Z</time>
      </trkpt>
      <trkpt lat="60.1448822021" lon="15.4231395721">
        <ele>0</ele>
        <time>2013-05-01T12:12:15Z</time>
      </trkpt>
      <trkpt lat="60.1449127197" lon="15.4232692719">
        <ele>0</ele>
        <time>2013-05-01T12:12:16Z</time>
      </trkpt>
      <trkpt lat="60.1449432373" lon="15.4234189987">
        <ele>0</ele>
        <time>2013-05-01T12:12:17Z</time>
      </trkpt>
      <trkpt lat="60.1449699402" lon="15.4235544205">
        <ele>0</ele>
        <time>2013-05-01T12:12:18Z</time>
      </trkpt>
      <trkpt lat="60.1449928284" lon="15.4236793518">
        <ele>0</ele>
        <time>2013-05-01T12:12:19Z</time>
      </trkpt>
      <trkpt lat="60.1450233459" lon="15.4238233566">
        <ele>0</ele>
        <time>2013-05-01T12:12:20Z</time>
      </trkpt>
      <trkpt lat="60.1450462341" lon="15.423948288">
        <ele>0</ele>
        <time>2013-05-01T12:12:21Z</time>
      </trkpt>
      <trkpt lat="60.145072937" lon="15.424082756">
        <ele>0</ele>
        <time>2013-05-01T12:12:22Z</time>
      </trkpt>
      <trkpt lat="60.1450996399" lon="15.4242305756">
        <ele>0</ele>
        <time>2013-05-01T12:12:23Z</time>
      </trkpt>
      <trkpt lat="60.1451225281" lon="15.4243650436">
        <ele>0</ele>
        <time>2013-05-01T12:12:24Z</time>
      </trkpt>
      <trkpt lat="60.1451454163" lon="15.4245033264">
        <ele>0</ele>
        <time>2013-05-01T12:12:25Z</time>
      </trkpt>
      <trkpt lat="60.1451683044" lon="15.4246397018">
        <ele>0</ele>
        <time>2013-05-01T12:12:26Z</time>
      </trkpt>
      <trkpt lat="60.1451873779" lon="15.4247732162">
        <ele>0</ele>
        <time>2013-05-01T12:12:27Z</time>
      </trkpt>
      <trkpt lat="60.1452064514" lon="15.4249134064">
        <ele>0</ele>
        <time>2013-05-01T12:12:28Z</time>
      </trkpt>
      <trkpt lat="60.1452293396" lon="15.4250450134">
        <ele>0</ele>
        <time>2013-05-01T12:12:29Z</time>
      </trkpt>
      <trkpt lat="60.1452522278" lon="15.4251852036">
        <ele>0</ele>
        <time>2013-05-01T12:12:30Z</time>
      </trkpt>
      <trkpt lat="60.1452674866" lon="15.4253349304">
        <ele>0</ele>
        <time>2013-05-01T12:12:31Z</time>
      </trkpt>
      <trkpt lat="60.1453094482" lon="15.4256343842">
        <ele>0</ele>
        <time>2013-05-01T12:12:33Z</time>
      </trkpt>
      <trkpt lat="60.145324707" lon="15.4257831573">
        <ele>0</ele>
        <time>2013-05-01T12:12:34Z</time>
      </trkpt>
      <trkpt lat="60.1453437805" lon="15.4259328842">
        <ele>0</ele>
        <time>2013-05-01T12:12:35Z</time>
      </trkpt>
      <trkpt lat="60.145362854" lon="15.4260749817">
        <ele>0</ele>
        <time>2013-05-01T12:12:36Z</time>
      </trkpt>
      <trkpt lat="60.1453857422" lon="15.4262332916">
        <ele>0</ele>
        <time>2013-05-01T12:12:37Z</time>
      </trkpt>
      <trkpt lat="60.1454048157" lon="15.4263811111">
        <ele>0</ele>
        <time>2013-05-01T12:12:38Z</time>
      </trkpt>
      <trkpt lat="60.1455039978" lon="15.4271621704">
        <ele>0</ele>
        <time>2013-05-01T12:12:43Z</time>
      </trkpt>
      <trkpt lat="60.1455230713" lon="15.4273166656">
        <ele>0</ele>
        <time>2013-05-01T12:12:44Z</time>
      </trkpt>
      <trkpt lat="60.1455421448" lon="15.4274835587">
        <ele>0</ele>
        <time>2013-05-01T12:12:45Z</time>
      </trkpt>
      <trkpt lat="60.145565033" lon="15.4276428223">
        <ele>0</ele>
        <time>2013-05-01T12:12:46Z</time>
      </trkpt>
      <trkpt lat="60.1455802917" lon="15.4278049469">
        <ele>0</ele>
        <time>2013-05-01T12:12:47Z</time>
      </trkpt>
      <trkpt lat="60.1456222534" lon="15.4281377792">
        <ele>0</ele>
        <time>2013-05-01T12:12:49Z</time>
      </trkpt>
      <trkpt lat="60.1456451416" lon="15.4283027649">
        <ele>0</ele>
        <time>2013-05-01T12:12:50Z</time>
      </trkpt>
      <trkpt lat="60.1456642151" lon="15.4284687042">
        <ele>0</ele>
        <time>2013-05-01T12:12:51Z</time>
      </trkpt>
      <trkpt lat="60.1456832886" lon="15.4286413193">
        <ele>0</ele>
        <time>2013-05-01T12:12:52Z</time>
      </trkpt>
      <trkpt lat="60.1457061768" lon="15.4288196564">
        <ele>0</ele>
        <time>2013-05-01T12:12:53Z</time>
      </trkpt>
      <trkpt lat="60.1457290649" lon="15.4289894104">
        <ele>0</ele>
        <time>2013-05-01T12:12:54Z</time>
      </trkpt>
      <trkpt lat="60.1457710266" lon="15.4293222427">
        <ele>0</ele>
        <time>2013-05-01T12:12:56Z</time>
      </trkpt>
      <trkpt lat="60.1457939148" lon="15.4295034409">
        <ele>0</ele>
        <time>2013-05-01T12:12:57Z</time>
      </trkpt>
      <trkpt lat="60.145816803" lon="15.4296722412">
        <ele>0</ele>
        <time>2013-05-01T12:12:58Z</time>
      </trkpt>
      <trkpt lat="60.1459770203" lon="15.4306383133">
        <ele>0</ele>
        <time>2013-05-01T12:13:04Z</time>
      </trkpt>
      <trkpt lat="60.1460189819" lon="15.4308099747">
        <ele>0</ele>
        <time>2013-05-01T12:13:05Z</time>
      </trkpt>
      <trkpt lat="60.1461830139" lon="15.4314117432">
        <ele>0</ele>
        <time>2013-05-01T12:13:09Z</time>
      </trkpt>
      <trkpt lat="60.1462287903" lon="15.431558609">
        <ele>0</ele>
        <time>2013-05-01T12:13:10Z</time>
      </trkpt>
      <trkpt lat="60.1462783813" lon="15.4316930771">
        <ele>0</ele>
        <time>2013-05-01T12:13:11Z</time>
      </trkpt>
      <trkpt lat="60.1463356018" lon="15.4318418503">
        <ele>0</ele>
        <time>2013-05-01T12:13:12Z</time>
      </trkpt>
      <trkpt lat="60.1463928223" lon="15.4319791794">
        <ele>0</ele>
        <time>2013-05-01T12:13:13Z</time>
      </trkpt>
      <trkpt lat="60.146446228" lon="15.4321136475">
        <ele>0</ele>
        <time>2013-05-01T12:13:14Z</time>
      </trkpt>
      <trkpt lat="60.1465072632" lon="15.4322385788">
        <ele>0</ele>
        <time>2013-05-01T12:13:15Z</time>
      </trkpt>
      <trkpt lat="60.1465644836" lon="15.4323501587">
        <ele>0</ele>
        <time>2013-05-01T12:13:16Z</time>
      </trkpt>
      <trkpt lat="60.1466331482" lon="15.4324855804">
        <ele>0</ele>
        <time>2013-05-01T12:13:17Z</time>
      </trkpt>
      <trkpt lat="60.146697998" lon="15.4326047897">
        <ele>0</ele>
        <time>2013-05-01T12:13:18Z</time>
      </trkpt>
      <trkpt lat="60.1467399597" lon="15.4326696396">
        <ele>0</ele>
        <time>2013-05-01T12:13:19Z</time>
      </trkpt>
      <trkpt lat="60.1468353271" lon="15.4328241348">
        <ele>0</ele>
        <time>2013-05-01T12:13:20Z</time>
      </trkpt>
      <trkpt lat="60.1469726562" lon="15.4330234528">
        <ele>0</ele>
        <time>2013-05-01T12:13:22Z</time>
      </trkpt>
      <trkpt lat="60.1472091675" lon="15.433298111">
        <ele>0</ele>
        <time>2013-05-01T12:13:25Z</time>
      </trkpt>
      <trkpt lat="60.147441864" lon="15.4335212708">
        <ele>0</ele>
        <time>2013-05-01T12:13:28Z</time>
      </trkpt>
      <trkpt lat="60.1475219727" lon="15.433588028">
        <ele>0</ele>
        <time>2013-05-01T12:13:29Z</time>
      </trkpt>
      <trkpt lat="60.147605896" lon="15.4336528778">
        <ele>0</ele>
        <time>2013-05-01T12:13:30Z</time>
      </trkpt>
      <trkpt lat="60.1476860046" lon="15.4336996078">
        <ele>0</ele>
        <time>2013-05-01T12:13:31Z</time>
      </trkpt>
      <trkpt lat="60.1477775574" lon="15.433754921">
        <ele>0</ele>
        <time>2013-05-01T12:13:32Z</time>
      </trkpt>
      <trkpt lat="60.148021698" lon="15.4338779449">
        <ele>0</ele>
        <time>2013-05-01T12:13:35Z</time>
      </trkpt>
      <trkpt lat="60.148109436" lon="15.4339151382">
        <ele>0</ele>
        <time>2013-05-01T12:13:36Z</time>
      </trkpt>
      <trkpt lat="60.1481971741" lon="15.4339532852">
        <ele>0</ele>
        <time>2013-05-01T12:13:37Z</time>
      </trkpt>
      <trkpt lat="60.1482849121" lon="15.4339885712">
        <ele>0</ele>
        <time>2013-05-01T12:13:38Z</time>
      </trkpt>
      <trkpt lat="60.1483650208" lon="15.4340200424">
        <ele>0</ele>
        <time>2013-05-01T12:13:39Z</time>
      </trkpt>
      <trkpt lat="60.1484489441" lon="15.43405056">
        <ele>0</ele>
        <time>2013-05-01T12:13:40Z</time>
      </trkpt>
      <trkpt lat="60.1485290527" lon="15.4340772629">
        <ele>0</ele>
        <time>2013-05-01T12:13:41Z</time>
      </trkpt>
      <trkpt lat="60.1486129761" lon="15.4341039658">
        <ele>0</ele>
        <time>2013-05-01T12:13:42Z</time>
      </trkpt>
      <trkpt lat="60.1487045288" lon="15.4341239929">
        <ele>0</ele>
        <time>2013-05-01T12:13:43Z</time>
      </trkpt>
      <trkpt lat="60.1487846375" lon="15.4341421127">
        <ele>0</ele>
        <time>2013-05-01T12:13:44Z</time>
      </trkpt>
      <trkpt lat="60.1488685608" lon="15.4341602325">
        <ele>0</ele>
        <time>2013-05-01T12:13:45Z</time>
      </trkpt>
      <trkpt lat="60.1489486694" lon="15.4341783524">
        <ele>0</ele>
        <time>2013-05-01T12:13:46Z</time>
      </trkpt>
      <trkpt lat="60.1490249634" lon="15.4341859818">
        <ele>0</ele>
        <time>2013-05-01T12:13:47Z</time>
      </trkpt>
      <trkpt lat="60.1491127014" lon="15.4341955185">
        <ele>0</ele>
        <time>2013-05-01T12:13:48Z</time>
      </trkpt>
      <trkpt lat="60.149181366" lon="15.4342021942">
        <ele>0</ele>
        <time>2013-05-01T12:13:49Z</time>
      </trkpt>
      <trkpt lat="60.1493377686" lon="15.4342136383">
        <ele>0</ele>
        <time>2013-05-01T12:13:51Z</time>
      </trkpt>
      <trkpt lat="60.1494178772" lon="15.4342193604">
        <ele>0</ele>
        <time>2013-05-01T12:13:52Z</time>
      </trkpt>
      <trkpt lat="60.1494369507" lon="15.4342184067">
        <ele>0</ele>
        <time>2013-05-01T12:13:53Z</time>
      </trkpt>
      <trkpt lat="60.1495513916" lon="15.4342184067">
        <ele>0</ele>
        <time>2013-05-01T12:13:54Z</time>
      </trkpt>
      <trkpt lat="60.1499557495" lon="15.4341869354">
        <ele>0</ele>
        <time>2013-05-01T12:13:59Z</time>
      </trkpt>
      <trkpt lat="60.1500358582" lon="15.4341726303">
        <ele>0</ele>
        <time>2013-05-01T12:14:00Z</time>
      </trkpt>
      <trkpt lat="60.1501083374" lon="15.4341583252">
        <ele>0</ele>
        <time>2013-05-01T12:14:01Z</time>
      </trkpt>
      <trkpt lat="60.1501846313" lon="15.4341430664">
        <ele>0</ele>
        <time>2013-05-01T12:14:02Z</time>
      </trkpt>
      <trkpt lat="60.1503372192" lon="15.4341049194">
        <ele>0</ele>
        <time>2013-05-01T12:14:04Z</time>
      </trkpt>
      <trkpt lat="60.1504020691" lon="15.4340839386">
        <ele>0</ele>
        <time>2013-05-01T12:14:05Z</time>
      </trkpt>
      <trkpt lat="60.150478363" lon="15.4340629578">
        <ele>0</ele>
        <time>2013-05-01T12:14:06Z</time>
      </trkpt>
      <trkpt lat="60.1505508423" lon="15.4340362549">
        <ele>0</ele>
        <time>2013-05-01T12:14:07Z</time>
      </trkpt>
      <trkpt lat="60.1506271362" lon="15.4340057373">
        <ele>0</ele>
        <time>2013-05-01T12:14:08Z</time>
      </trkpt>
      <trkpt lat="60.1506996155" lon="15.4339761734">
        <ele>0</ele>
        <time>2013-05-01T12:14:09Z</time>
      </trkpt>
      <trkpt lat="60.1507720947" lon="15.4339466095">
        <ele>0</ele>
        <time>2013-05-01T12:14:10Z</time>
      </trkpt>
      <trkpt lat="60.1509933472" lon="15.4338407516">
        <ele>0</ele>
        <time>2013-05-01T12:14:13Z</time>
      </trkpt>
      <trkpt lat="60.1510620117" lon="15.4338054657">
        <ele>0</ele>
        <time>2013-05-01T12:14:14Z</time>
      </trkpt>
      <trkpt lat="60.1511383057" lon="15.4337615967">
        <ele>0</ele>
        <time>2013-05-01T12:14:15Z</time>
      </trkpt>
      <trkpt lat="60.1515426636" lon="15.4335184097">
        <ele>0</ele>
        <time>2013-05-01T12:14:21Z</time>
      </trkpt>
      <trkpt lat="60.1518249512" lon="15.4333343506">
        <ele>0</ele>
        <time>2013-05-01T12:14:25Z</time>
      </trkpt>
      <trkpt lat="60.1518936157" lon="15.4332885742">
        <ele>0</ele>
        <time>2013-05-01T12:14:26Z</time>
      </trkpt>
      <trkpt lat="60.1519584656" lon="15.4332466125">
        <ele>0</ele>
        <time>2013-05-01T12:14:27Z</time>
      </trkpt>
      <trkpt lat="60.1520309448" lon="15.4332017899">
        <ele>0</ele>
        <time>2013-05-01T12:14:28Z</time>
      </trkpt>
      <trkpt lat="60.1521034241" lon="15.4331550598">
        <ele>0</ele>
        <time>2013-05-01T12:14:29Z</time>
      </trkpt>
      <trkpt lat="60.1521759033" lon="15.4331083298">
        <ele>0</ele>
        <time>2013-05-01T12:14:30Z</time>
      </trkpt>
      <trkpt lat="60.1522521973" lon="15.4330596924">
        <ele>0</ele>
        <time>2013-05-01T12:14:31Z</time>
      </trkpt>
      <trkpt lat="60.1523284912" lon="15.4330053329">
        <ele>0</ele>
        <time>2013-05-01T12:14:32Z</time>
      </trkpt>
      <trkpt lat="60.1524009705" lon="15.4329538345">
        <ele>0</ele>
        <time>2013-05-01T12:14:33Z</time>
      </trkpt>
      <trkpt lat="60.1524734497" lon="15.4329023361">
        <ele>0</ele>
        <time>2013-05-01T12:14:34Z</time>
      </trkpt>
      <trkpt lat="60.1526184082" lon="15.432808876">
        <ele>0</ele>
        <time>2013-05-01T12:14:36Z</time>
      </trkpt>
      <trkpt lat="60.1526985168" lon="15.4327526093">
        <ele>0</ele>
        <time>2013-05-01T12:14:37Z</time>
      </trkpt>
      <trkpt lat="60.1527748108" lon="15.4327001572">
        <ele>0</ele>
        <time>2013-05-01T12:14:38Z</time>
      </trkpt>
      <trkpt lat="60.1528358459" lon="15.4326601028">
        <ele>0</ele>
        <time>2013-05-01T12:14:39Z</time>
      </trkpt>
      <trkpt lat="60.1529121399" lon="15.4326095581">
        <ele>0</ele>
        <time>2013-05-01T12:14:40Z</time>
      </trkpt>
      <trkpt lat="60.1529846191" lon="15.4325637817">
        <ele>0</ele>
        <time>2013-05-01T12:14:41Z</time>
      </trkpt>
      <trkpt lat="60.1532859802" lon="15.4323673248">
        <ele>0</ele>
        <time>2013-05-01T12:14:45Z</time>
      </trkpt>
      <trkpt lat="60.1533584595" lon="15.4323205948">
        <ele>0</ele>
        <time>2013-05-01T12:14:46Z</time>
      </trkpt>
      <trkpt lat="60.1534347534" lon="15.4322805405">
        <ele>0</ele>
        <time>2013-05-01T12:14:47Z</time>
      </trkpt>
      <trkpt lat="60.1535148621" lon="15.4322357178">
        <ele>0</ele>
        <time>2013-05-01T12:14:48Z</time>
      </trkpt>
      <trkpt lat="60.153591156" lon="15.4321899414">
        <ele>0</ele>
        <time>2013-05-01T12:14:49Z</time>
      </trkpt>
      <trkpt lat="60.1536636353" lon="15.432144165">
        <ele>0</ele>
        <time>2013-05-01T12:14:50Z</time>
      </trkpt>
      <trkpt lat="60.1537322998" lon="15.4321165085">
        <ele>0</ele>
        <time>2013-05-01T12:14:51Z</time>
      </trkpt>
      <trkpt lat="60.1538124084" lon="15.4320821762">
        <ele>0</ele>
        <time>2013-05-01T12:14:52Z</time>
      </trkpt>
      <trkpt lat="60.1538887024" lon="15.4320487976">
        <ele>0</ele>
        <time>2013-05-01T12:14:53Z</time>
      </trkpt>
      <trkpt lat="60.1539649963" lon="15.43201828">
        <ele>0</ele>
        <time>2013-05-01T12:14:54Z</time>
      </trkpt>
      <trkpt lat="60.1540412903" lon="15.4319934845">
        <ele>0</ele>
        <time>2013-05-01T12:14:55Z</time>
      </trkpt>
      <trkpt lat="60.1541099548" lon="15.431968689">
        <ele>0</ele>
        <time>2013-05-01T12:14:56Z</time>
      </trkpt>
      <trkpt lat="60.1541938782" lon="15.4319438934">
        <ele>0</ele>
        <time>2013-05-01T12:14:57Z</time>
      </trkpt>
      <trkpt lat="60.1542701721" lon="15.4319229126">
        <ele>0</ele>
        <time>2013-05-01T12:14:58Z</time>
      </trkpt>
      <trkpt lat="60.1543464661" lon="15.4319095612">
        <ele>0</ele>
        <time>2013-05-01T12:14:59Z</time>
      </trkpt>
      <trkpt lat="60.1544265747" lon="15.4318943024">
        <ele>0</ele>
        <time>2013-05-01T12:15:00Z</time>
      </trkpt>
      <trkpt lat="60.154499054" lon="15.431883812">
        <ele>0</ele>
        <time>2013-05-01T12:15:01Z</time>
      </trkpt>
      <trkpt lat="60.1546630859" lon="15.4318666458">
        <ele>0</ele>
        <time>2013-05-01T12:15:03Z</time>
      </trkpt>
      <trkpt lat="60.1547393799" lon="15.4318656921">
        <ele>0</ele>
        <time>2013-05-01T12:15:04Z</time>
      </trkpt>
      <trkpt lat="60.1548271179" lon="15.4318685532">
        <ele>0</ele>
        <time>2013-05-01T12:15:05Z</time>
      </trkpt>
      <trkpt lat="60.1549110413" lon="15.4318714142">
        <ele>0</ele>
        <time>2013-05-01T12:15:06Z</time>
      </trkpt>
      <trkpt lat="60.1550865173" lon="15.4318828583">
        <ele>0</ele>
        <time>2013-05-01T12:15:08Z</time>
      </trkpt>
      <trkpt lat="60.1556854248" lon="15.4319972992">
        <ele>0</ele>
        <time>2013-05-01T12:15:15Z</time>
      </trkpt>
      <trkpt lat="60.1557655334" lon="15.4320220947">
        <ele>0</ele>
        <time>2013-05-01T12:15:16Z</time>
      </trkpt>
      <trkpt lat="60.1560325623" lon="15.4321193695">
        <ele>0</ele>
        <time>2013-05-01T12:15:19Z</time>
      </trkpt>
      <trkpt lat="60.1561203003" lon="15.4321537018">
        <ele>0</ele>
        <time>2013-05-01T12:15:20Z</time>
      </trkpt>
      <trkpt lat="60.1562042236" lon="15.4321937561">
        <ele>0</ele>
        <time>2013-05-01T12:15:21Z</time>
      </trkpt>
      <trkpt lat="60.1562957764" lon="15.4322328568">
        <ele>0</ele>
        <time>2013-05-01T12:15:22Z</time>
      </trkpt>
      <trkpt lat="60.1563911438" lon="15.4322843552">
        <ele>0</ele>
        <time>2013-05-01T12:15:23Z</time>
      </trkpt>
      <trkpt lat="60.1564788818" lon="15.4323320389">
        <ele>0</ele>
        <time>2013-05-01T12:15:24Z</time>
      </trkpt>
      <trkpt lat="60.1565742493" lon="15.4323854446">
        <ele>0</ele>
        <time>2013-05-01T12:15:25Z</time>
      </trkpt>
      <trkpt lat="60.156665802" lon="15.4324369431">
        <ele>0</ele>
        <time>2013-05-01T12:15:26Z</time>
      </trkpt>
      <trkpt lat="60.15675354" lon="15.4324884415">
        <ele>0</ele>
        <time>2013-05-01T12:15:27Z</time>
      </trkpt>
      <trkpt lat="60.1568450928" lon="15.4325447083">
        <ele>0</ele>
        <time>2013-05-01T12:15:28Z</time>
      </trkpt>
      <trkpt lat="60.1569366455" lon="15.4326057434">
        <ele>0</ele>
        <time>2013-05-01T12:15:29Z</time>
      </trkpt>
      <trkpt lat="60.1570281982" lon="15.4326667786">
        <ele>0</ele>
        <time>2013-05-01T12:15:30Z</time>
      </trkpt>
      <trkpt lat="60.157119751" lon="15.4327325821">
        <ele>0</ele>
        <time>2013-05-01T12:15:31Z</time>
      </trkpt>
      <trkpt lat="60.1572189331" lon="15.432808876">
        <ele>0</ele>
        <time>2013-05-01T12:15:32Z</time>
      </trkpt>
      <trkpt lat="60.1573143005" lon="15.4328794479">
        <ele>0</ele>
        <time>2013-05-01T12:15:33Z</time>
      </trkpt>
      <trkpt lat="60.157585144" lon="15.4331083298">
        <ele>0</ele>
        <time>2013-05-01T12:15:36Z</time>
      </trkpt>
      <trkpt lat="60.1576881409" lon="15.4332017899">
        <ele>0</ele>
        <time>2013-05-01T12:15:37Z</time>
      </trkpt>
      <trkpt lat="60.1579627991" lon="15.4334802628">
        <ele>0</ele>
        <time>2013-05-01T12:15:40Z</time>
      </trkpt>
      <trkpt lat="60.1582336426" lon="15.4338026047">
        <ele>0</ele>
        <time>2013-05-01T12:15:43Z</time>
      </trkpt>
      <trkpt lat="60.1583175659" lon="15.4339094162">
        <ele>0</ele>
        <time>2013-05-01T12:15:44Z</time>
      </trkpt>
      <trkpt lat="60.1584014893" lon="15.4340276718">
        <ele>0</ele>
        <time>2013-05-01T12:15:45Z</time>
      </trkpt>
      <trkpt lat="60.1584854126" lon="15.4341411591">
        <ele>0</ele>
        <time>2013-05-01T12:15:46Z</time>
      </trkpt>
      <trkpt lat="60.1585540771" lon="15.434252739">
        <ele>0</ele>
        <time>2013-05-01T12:15:47Z</time>
      </trkpt>
      <trkpt lat="60.1586380005" lon="15.4343852997">
        <ele>0</ele>
        <time>2013-05-01T12:15:48Z</time>
      </trkpt>
      <trkpt lat="60.158706665" lon="15.4344987869">
        <ele>0</ele>
        <time>2013-05-01T12:15:49Z</time>
      </trkpt>
      <trkpt lat="60.1587791443" lon="15.4346208572">
        <ele>0</ele>
        <time>2013-05-01T12:15:50Z</time>
      </trkpt>
      <trkpt lat="60.1588478088" lon="15.4347486496">
        <ele>0</ele>
        <time>2013-05-01T12:15:51Z</time>
      </trkpt>
      <trkpt lat="60.1589164734" lon="15.4348745346">
        <ele>0</ele>
        <time>2013-05-01T12:15:52Z</time>
      </trkpt>
      <trkpt lat="60.1589851379" lon="15.4350090027">
        <ele>0</ele>
        <time>2013-05-01T12:15:53Z</time>
      </trkpt>
      <trkpt lat="60.1590499878" lon="15.4351348877">
        <ele>0</ele>
        <time>2013-05-01T12:15:54Z</time>
      </trkpt>
      <trkpt lat="60.1591072083" lon="15.4352531433">
        <ele>0</ele>
        <time>2013-05-01T12:15:55Z</time>
      </trkpt>
      <trkpt lat="60.159160614" lon="15.4353761673">
        <ele>0</ele>
        <time>2013-05-01T12:15:56Z</time>
      </trkpt>
      <trkpt lat="60.1592216492" lon="15.4355192184">
        <ele>0</ele>
        <time>2013-05-01T12:15:57Z</time>
      </trkpt>
      <trkpt lat="60.1592750549" lon="15.4356527328">
        <ele>0</ele>
        <time>2013-05-01T12:15:58Z</time>
      </trkpt>
      <trkpt lat="60.1594238281" lon="15.4360456467">
        <ele>0</ele>
        <time>2013-05-01T12:16:01Z</time>
      </trkpt>
      <trkpt lat="60.1595191956" lon="15.4363231659">
        <ele>0</ele>
        <time>2013-05-01T12:16:03Z</time>
      </trkpt>
      <trkpt lat="60.1595687866" lon="15.436457634">
        <ele>0</ele>
        <time>2013-05-01T12:16:04Z</time>
      </trkpt>
      <trkpt lat="60.1596069336" lon="15.4365854263">
        <ele>0</ele>
        <time>2013-05-01T12:16:05Z</time>
      </trkpt>
      <trkpt lat="60.1596450806" lon="15.4367198944">
        <ele>0</ele>
        <time>2013-05-01T12:16:06Z</time>
      </trkpt>
      <trkpt lat="60.1596870422" lon="15.4368591309">
        <ele>0</ele>
        <time>2013-05-01T12:16:07Z</time>
      </trkpt>
      <trkpt lat="60.1597290039" lon="15.4369926453">
        <ele>0</ele>
        <time>2013-05-01T12:16:08Z</time>
      </trkpt>
      <trkpt lat="60.1598052979" lon="15.4372396469">
        <ele>0</ele>
        <time>2013-05-01T12:16:10Z</time>
      </trkpt>
      <trkpt lat="60.1598434448" lon="15.4373703003">
        <ele>0</ele>
        <time>2013-05-01T12:16:11Z</time>
      </trkpt>
      <trkpt lat="60.1598892212" lon="15.4375095367">
        <ele>0</ele>
        <time>2013-05-01T12:16:12Z</time>
      </trkpt>
      <trkpt lat="60.1599273682" lon="15.4376392365">
        <ele>0</ele>
        <time>2013-05-01T12:16:13Z</time>
      </trkpt>
      <trkpt lat="60.1599693298" lon="15.4377689362">
        <ele>0</ele>
        <time>2013-05-01T12:16:14Z</time>
      </trkpt>
      <trkpt lat="60.1600074768" lon="15.4379014969">
        <ele>0</ele>
        <time>2013-05-01T12:16:15Z</time>
      </trkpt>
      <trkpt lat="60.1600418091" lon="15.4380178452">
        <ele>0</ele>
        <time>2013-05-01T12:16:16Z</time>
      </trkpt>
      <trkpt lat="60.1601295471" lon="15.4383049011">
        <ele>0</ele>
        <time>2013-05-01T12:16:18Z</time>
      </trkpt>
      <trkpt lat="60.1601676941" lon="15.4384269714">
        <ele>0</ele>
        <time>2013-05-01T12:16:19Z</time>
      </trkpt>
      <trkpt lat="60.1602096558" lon="15.4385614395">
        <ele>0</ele>
        <time>2013-05-01T12:16:20Z</time>
      </trkpt>
      <trkpt lat="60.160243988" lon="15.4386777878">
        <ele>0</ele>
        <time>2013-05-01T12:16:21Z</time>
      </trkpt>
      <trkpt lat="60.1602859497" lon="15.4388074875">
        <ele>0</ele>
        <time>2013-05-01T12:16:22Z</time>
      </trkpt>
      <trkpt lat="60.1603240967" lon="15.4389419556">
        <ele>0</ele>
        <time>2013-05-01T12:16:23Z</time>
      </trkpt>
      <trkpt lat="60.1603622437" lon="15.4390621185">
        <ele>0</ele>
        <time>2013-05-01T12:16:24Z</time>
      </trkpt>
      <trkpt lat="60.1604003906" lon="15.4391956329">
        <ele>0</ele>
        <time>2013-05-01T12:16:25Z</time>
      </trkpt>
      <trkpt lat="60.1604347229" lon="15.4393253326">
        <ele>0</ele>
        <time>2013-05-01T12:16:26Z</time>
      </trkpt>
      <trkpt lat="60.1604728699" lon="15.4394397736">
        <ele>0</ele>
        <time>2013-05-01T12:16:27Z</time>
      </trkpt>
      <trkpt lat="60.1605911255" lon="15.4398069382">
        <ele>0</ele>
        <time>2013-05-01T12:16:30Z</time>
      </trkpt>
      <trkpt lat="60.1607398987" lon="15.4403181076">
        <ele>0</ele>
        <time>2013-05-01T12:16:35Z</time>
      </trkpt>
      <trkpt lat="60.1608047485" lon="15.4405231476">
        <ele>0</ele>
        <time>2013-05-01T12:16:36Z</time>
      </trkpt>
      <trkpt lat="60.1608428955" lon="15.4406452179">
        <ele>0</ele>
        <time>2013-05-01T12:16:37Z</time>
      </trkpt>
      <trkpt lat="60.1609077454" lon="15.4408607483">
        <ele>0</ele>
        <time>2013-05-01T12:16:39Z</time>
      </trkpt>
      <trkpt lat="60.1609420776" lon="15.4409713745">
        <ele>0</ele>
        <time>2013-05-01T12:16:40Z</time>
      </trkpt>
      <trkpt lat="60.1609764099" lon="15.441078186">
        <ele>0</ele>
        <time>2013-05-01T12:16:41Z</time>
      </trkpt>
      <trkpt lat="60.1610107422" lon="15.4411869049">
        <ele>0</ele>
        <time>2013-05-01T12:16:42Z</time>
      </trkpt>
      <trkpt lat="60.1610450745" lon="15.4413042068">
        <ele>0</ele>
        <time>2013-05-01T12:16:43Z</time>
      </trkpt>
      <trkpt lat="60.161075592" lon="15.4414138794">
        <ele>0</ele>
        <time>2013-05-01T12:16:44Z</time>
      </trkpt>
      <trkpt lat="60.1611099243" lon="15.441526413">
        <ele>0</ele>
        <time>2013-05-01T12:16:45Z</time>
      </trkpt>
      <trkpt lat="60.1611404419" lon="15.4416351318">
        <ele>0</ele>
        <time>2013-05-01T12:16:46Z</time>
      </trkpt>
      <trkpt lat="60.1611709595" lon="15.4417295456">
        <ele>0</ele>
        <time>2013-05-01T12:16:47Z</time>
      </trkpt>
      <trkpt lat="60.1612091064" lon="15.4418449402">
        <ele>0</ele>
        <time>2013-05-01T12:16:48Z</time>
      </trkpt>
      <trkpt lat="60.1613044739" lon="15.4421405792">
        <ele>0</ele>
        <time>2013-05-01T12:16:51Z</time>
      </trkpt>
      <trkpt lat="60.1613769531" lon="15.442363739">
        <ele>0</ele>
        <time>2013-05-01T12:16:53Z</time>
      </trkpt>
      <trkpt lat="60.1614761353" lon="15.4426765442">
        <ele>0</ele>
        <time>2013-05-01T12:16:56Z</time>
      </trkpt>
      <trkpt lat="60.1615791321" lon="15.4429912567">
        <ele>0</ele>
        <time>2013-05-01T12:16:59Z</time>
      </trkpt>
      <trkpt lat="60.1616172791" lon="15.4430942535">
        <ele>0</ele>
        <time>2013-05-01T12:17:00Z</time>
      </trkpt>
      <trkpt lat="60.1616516113" lon="15.4431829453">
        <ele>0</ele>
        <time>2013-05-01T12:17:01Z</time>
      </trkpt>
      <trkpt lat="60.1616897583" lon="15.443277359">
        <ele>0</ele>
        <time>2013-05-01T12:17:02Z</time>
      </trkpt>
      <trkpt lat="60.1617240906" lon="15.4433727264">
        <ele>0</ele>
        <time>2013-05-01T12:17:03Z</time>
      </trkpt>
      <trkpt lat="60.1617546082" lon="15.4434566498">
        <ele>0</ele>
        <time>2013-05-01T12:17:04Z</time>
      </trkpt>
      <trkpt lat="60.1617889404" lon="15.4435539246">
        <ele>0</ele>
        <time>2013-05-01T12:17:05Z</time>
      </trkpt>
      <trkpt lat="60.1618232727" lon="15.4436416626">
        <ele>0</ele>
        <time>2013-05-01T12:17:06Z</time>
      </trkpt>
      <trkpt lat="60.1618537903" lon="15.4437150955">
        <ele>0</ele>
        <time>2013-05-01T12:17:07Z</time>
      </trkpt>
      <trkpt lat="60.1618919373" lon="15.4438152313">
        <ele>0</ele>
        <time>2013-05-01T12:17:08Z</time>
      </trkpt>
      <trkpt lat="60.1619224548" lon="15.4438877106">
        <ele>0</ele>
        <time>2013-05-01T12:17:09Z</time>
      </trkpt>
      <trkpt lat="60.1619949341" lon="15.4440631866">
        <ele>0</ele>
        <time>2013-05-01T12:17:11Z</time>
      </trkpt>
      <trkpt lat="60.1620330811" lon="15.444152832">
        <ele>0</ele>
        <time>2013-05-01T12:17:12Z</time>
      </trkpt>
      <trkpt lat="60.1620674133" lon="15.4442358017">
        <ele>0</ele>
        <time>2013-05-01T12:17:13Z</time>
      </trkpt>
      <trkpt lat="60.1621055603" lon="15.4443187714">
        <ele>0</ele>
        <time>2013-05-01T12:17:14Z</time>
      </trkpt>
      <trkpt lat="60.1621360779" lon="15.4443998337">
        <ele>0</ele>
        <time>2013-05-01T12:17:15Z</time>
      </trkpt>
      <trkpt lat="60.1622886658" lon="15.4447231293">
        <ele>0</ele>
        <time>2013-05-01T12:17:19Z</time>
      </trkpt>
      <trkpt lat="60.1623191833" lon="15.4447956085">
        <ele>0</ele>
        <time>2013-05-01T12:17:20Z</time>
      </trkpt>
      <trkpt lat="60.162361145" lon="15.444890976">
        <ele>0</ele>
        <time>2013-05-01T12:17:21Z</time>
      </trkpt>
      <trkpt lat="60.162399292" lon="15.444978714">
        <ele>0</ele>
        <time>2013-05-01T12:17:22Z</time>
      </trkpt>
      <trkpt lat="60.1624832153" lon="15.4451475143">
        <ele>0</ele>
        <time>2013-05-01T12:17:24Z</time>
      </trkpt>
      <trkpt lat="60.1625289917" lon="15.445233345">
        <ele>0</ele>
        <time>2013-05-01T12:17:25Z</time>
      </trkpt>
      <trkpt lat="60.1626167297" lon="15.4454126358">
        <ele>0</ele>
        <time>2013-05-01T12:17:27Z</time>
      </trkpt>
      <trkpt lat="60.1626625061" lon="15.4455137253">
        <ele>0</ele>
        <time>2013-05-01T12:17:28Z</time>
      </trkpt>
      <trkpt lat="60.1627120972" lon="15.4456167221">
        <ele>0</ele>
        <time>2013-05-01T12:17:29Z</time>
      </trkpt>
      <trkpt lat="60.1627616882" lon="15.4457159042">
        <ele>0</ele>
        <time>2013-05-01T12:17:30Z</time>
      </trkpt>
      <trkpt lat="60.162815094" lon="15.445807457">
        <ele>0</ele>
        <time>2013-05-01T12:17:31Z</time>
      </trkpt>
      <trkpt lat="60.1628761292" lon="15.4459152222">
        <ele>0</ele>
        <time>2013-05-01T12:17:32Z</time>
      </trkpt>
      <trkpt lat="60.1629257202" lon="15.4460115433">
        <ele>0</ele>
        <time>2013-05-01T12:17:33Z</time>
      </trkpt>
      <trkpt lat="60.1629753113" lon="15.4461107254">
        <ele>0</ele>
        <time>2013-05-01T12:17:34Z</time>
      </trkpt>
      <trkpt lat="60.1630325317" lon="15.4462070465">
        <ele>0</ele>
        <time>2013-05-01T12:17:35Z</time>
      </trkpt>
      <trkpt lat="60.1630897522" lon="15.4463024139">
        <ele>0</ele>
        <time>2013-05-01T12:17:36Z</time>
      </trkpt>
      <trkpt lat="60.1631507874" lon="15.4464044571">
        <ele>0</ele>
        <time>2013-05-01T12:17:37Z</time>
      </trkpt>
      <trkpt lat="60.1632118225" lon="15.4465045929">
        <ele>0</ele>
        <time>2013-05-01T12:17:38Z</time>
      </trkpt>
      <trkpt lat="60.1632766724" lon="15.446600914">
        <ele>0</ele>
        <time>2013-05-01T12:17:39Z</time>
      </trkpt>
      <trkpt lat="60.1633377075" lon="15.4467048645">
        <ele>0</ele>
        <time>2013-05-01T12:17:40Z</time>
      </trkpt>
      <trkpt lat="60.1634063721" lon="15.446808815">
        <ele>0</ele>
        <time>2013-05-01T12:17:41Z</time>
      </trkpt>
      <trkpt lat="60.1634712219" lon="15.4469127655">
        <ele>0</ele>
        <time>2013-05-01T12:17:42Z</time>
      </trkpt>
      <trkpt lat="60.1636123657" lon="15.4471178055">
        <ele>0</ele>
        <time>2013-05-01T12:17:44Z</time>
      </trkpt>
      <trkpt lat="60.1636886597" lon="15.447227478">
        <ele>0</ele>
        <time>2013-05-01T12:17:45Z</time>
      </trkpt>
      <trkpt lat="60.1637649536" lon="15.4473285675">
        <ele>0</ele>
        <time>2013-05-01T12:17:46Z</time>
      </trkpt>
      <trkpt lat="60.1638298035" lon="15.4474239349">
        <ele>0</ele>
        <time>2013-05-01T12:17:47Z</time>
      </trkpt>
      <trkpt lat="60.1640510559" lon="15.4477233887">
        <ele>0</ele>
        <time>2013-05-01T12:17:50Z</time>
      </trkpt>
      <trkpt lat="60.1641235352" lon="15.4478178024">
        <ele>0</ele>
        <time>2013-05-01T12:17:51Z</time>
      </trkpt>
      <trkpt lat="60.1641998291" lon="15.4479217529">
        <ele>0</ele>
        <time>2013-05-01T12:17:52Z</time>
      </trkpt>
      <trkpt lat="60.1644287109" lon="15.4482107162">
        <ele>0</ele>
        <time>2013-05-01T12:17:55Z</time>
      </trkpt>
      <trkpt lat="60.1644935608" lon="15.4482936859">
        <ele>0</ele>
        <time>2013-05-01T12:17:56Z</time>
      </trkpt>
      <trkpt lat="60.1645698547" lon="15.4483919144">
        <ele>0</ele>
        <time>2013-05-01T12:17:57Z</time>
      </trkpt>
      <trkpt lat="60.1646385193" lon="15.4484834671">
        <ele>0</ele>
        <time>2013-05-01T12:17:58Z</time>
      </trkpt>
      <trkpt lat="60.1647033691" lon="15.4485664368">
        <ele>0</ele>
        <time>2013-05-01T12:17:59Z</time>
      </trkpt>
      <trkpt lat="60.1647720337" lon="15.4486494064">
        <ele>0</ele>
        <time>2013-05-01T12:18:00Z</time>
      </trkpt>
      <trkpt lat="60.1648368835" lon="15.4487295151">
        <ele>0</ele>
        <time>2013-05-01T12:18:01Z</time>
      </trkpt>
      <trkpt lat="60.1649017334" lon="15.4488153458">
        <ele>0</ele>
        <time>2013-05-01T12:18:02Z</time>
      </trkpt>
      <trkpt lat="60.1649742126" lon="15.4489030838">
        <ele>0</ele>
        <time>2013-05-01T12:18:03Z</time>
      </trkpt>
      <trkpt lat="60.1650276184" lon="15.4489717484">
        <ele>0</ele>
        <time>2013-05-01T12:18:04Z</time>
      </trkpt>
      <trkpt lat="60.165096283" lon="15.449057579">
        <ele>0</ele>
        <time>2013-05-01T12:18:05Z</time>
      </trkpt>
      <trkpt lat="60.1651573181" lon="15.449136734">
        <ele>0</ele>
        <time>2013-05-01T12:18:06Z</time>
      </trkpt>
      <trkpt lat="60.1652107239" lon="15.4492073059">
        <ele>0</ele>
        <time>2013-05-01T12:18:07Z</time>
      </trkpt>
      <trkpt lat="60.165271759" lon="15.4492835999">
        <ele>0</ele>
        <time>2013-05-01T12:18:08Z</time>
      </trkpt>
      <trkpt lat="60.1654319763" lon="15.4494991302">
        <ele>0</ele>
        <time>2013-05-01T12:18:11Z</time>
      </trkpt>
      <trkpt lat="60.1654663086" lon="15.4496021271">
        <ele>0</ele>
        <time>2013-05-01T12:18:12Z</time>
      </trkpt>
      <trkpt lat="60.165473938" lon="15.4499635696">
        <ele>0</ele>
        <time>2013-05-01T12:18:15Z</time>
      </trkpt>
      <trkpt lat="60.165473938" lon="15.4500789642">
        <ele>0</ele>
        <time>2013-05-01T12:18:16Z</time>
      </trkpt>
      <trkpt lat="60.1654815674" lon="15.4502296448">
        <ele>0</ele>
        <time>2013-05-01T12:18:17Z</time>
      </trkpt>
      <trkpt lat="60.1654930115" lon="15.4503641129">
        <ele>0</ele>
        <time>2013-05-01T12:18:18Z</time>
      </trkpt>
      <trkpt lat="60.1655349731" lon="15.4504766464">
        <ele>0</ele>
        <time>2013-05-01T12:18:19Z</time>
      </trkpt>
      <trkpt lat="60.1655769348" lon="15.450592041">
        <ele>0</ele>
        <time>2013-05-01T12:18:20Z</time>
      </trkpt>
      <trkpt lat="60.1656188965" lon="15.4506807327">
        <ele>0</ele>
        <time>2013-05-01T12:18:21Z</time>
      </trkpt>
      <trkpt lat="60.1656646729" lon="15.4507751465">
        <ele>0</ele>
        <time>2013-05-01T12:18:22Z</time>
      </trkpt>
      <trkpt lat="60.1657066345" lon="15.4508962631">
        <ele>0</ele>
        <time>2013-05-01T12:18:23Z</time>
      </trkpt>
      <trkpt lat="60.1657447815" lon="15.451010704">
        <ele>0</ele>
        <time>2013-05-01T12:18:24Z</time>
      </trkpt>
      <trkpt lat="60.1657791138" lon="15.4511384964">
        <ele>0</ele>
        <time>2013-05-01T12:18:25Z</time>
      </trkpt>
      <trkpt lat="60.165813446" lon="15.4512653351">
        <ele>0</ele>
        <time>2013-05-01T12:18:26Z</time>
      </trkpt>
      <trkpt lat="60.1658287048" lon="15.4514045715">
        <ele>0</ele>
        <time>2013-05-01T12:18:27Z</time>
      </trkpt>
      <trkpt lat="60.1658477783" lon="15.4515533447">
        <ele>0</ele>
        <time>2013-05-01T12:18:28Z</time>
      </trkpt>
      <trkpt lat="60.1658630371" lon="15.4517097473">
        <ele>0</ele>
        <time>2013-05-01T12:18:29Z</time>
      </trkpt>
      <trkpt lat="60.1658706665" lon="15.4518556595">
        <ele>0</ele>
        <time>2013-05-01T12:18:30Z</time>
      </trkpt>
      <trkpt lat="60.1658821106" lon="15.4520082474">
        <ele>0</ele>
        <time>2013-05-01T12:18:31Z</time>
      </trkpt>
      <trkpt lat="60.1659088135" lon="15.4523839951">
        <ele>0</ele>
        <time>2013-05-01T12:18:33Z</time>
      </trkpt>
      <trkpt lat="60.1659202576" lon="15.4525279999">
        <ele>0</ele>
        <time>2013-05-01T12:18:34Z</time>
      </trkpt>
      <trkpt lat="60.1659393311" lon="15.45271492">
        <ele>0</ele>
        <time>2013-05-01T12:18:35Z</time>
      </trkpt>
      <trkpt lat="60.1659545898" lon="15.4528799057">
        <ele>0</ele>
        <time>2013-05-01T12:18:36Z</time>
      </trkpt>
      <trkpt lat="60.1659851074" lon="15.4532356262">
        <ele>0</ele>
        <time>2013-05-01T12:18:38Z</time>
      </trkpt>
      <trkpt lat="60.1660003662" lon="15.4534416199">
        <ele>0</ele>
        <time>2013-05-01T12:18:39Z</time>
      </trkpt>
      <trkpt lat="60.1660423279" lon="15.4540205002">
        <ele>0</ele>
        <time>2013-05-01T12:18:42Z</time>
      </trkpt>
      <trkpt lat="60.1660575867" lon="15.4542255402">
        <ele>0</ele>
        <time>2013-05-01T12:18:43Z</time>
      </trkpt>
      <trkpt lat="60.1660728455" lon="15.4544000626">
        <ele>0</ele>
        <time>2013-05-01T12:18:44Z</time>
      </trkpt>
      <trkpt lat="60.1660842896" lon="15.4545793533">
        <ele>0</ele>
        <time>2013-05-01T12:18:45Z</time>
      </trkpt>
      <trkpt lat="60.1660919189" lon="15.4547224045">
        <ele>0</ele>
        <time>2013-05-01T12:18:46Z</time>
      </trkpt>
      <trkpt lat="60.1661109924" lon="15.4549045563">
        <ele>0</ele>
        <time>2013-05-01T12:18:47Z</time>
      </trkpt>
      <trkpt lat="60.1661224365" lon="15.4550657272">
        <ele>0</ele>
        <time>2013-05-01T12:18:48Z</time>
      </trkpt>
      <trkpt lat="60.1661338806" lon="15.4552221298">
        <ele>0</ele>
        <time>2013-05-01T12:18:49Z</time>
      </trkpt>
      <trkpt lat="60.1661300659" lon="15.455370903">
        <ele>0</ele>
        <time>2013-05-01T12:18:50Z</time>
      </trkpt>
      <trkpt lat="60.1661300659" lon="15.4555177689">
        <ele>0</ele>
        <time>2013-05-01T12:18:51Z</time>
      </trkpt>
      <trkpt lat="60.1661262512" lon="15.4556884766">
        <ele>0</ele>
        <time>2013-05-01T12:18:52Z</time>
      </trkpt>
      <trkpt lat="60.1661224365" lon="15.4558477402">
        <ele>0</ele>
        <time>2013-05-01T12:18:53Z</time>
      </trkpt>
      <trkpt lat="60.1661148071" lon="15.4560117722">
        <ele>0</ele>
        <time>2013-05-01T12:18:54Z</time>
      </trkpt>
      <trkpt lat="60.1661071777" lon="15.4561786652">
        <ele>0</ele>
        <time>2013-05-01T12:18:55Z</time>
      </trkpt>
      <trkpt lat="60.1660957336" lon="15.4563055038">
        <ele>0</ele>
        <time>2013-05-01T12:18:56Z</time>
      </trkpt>
      <trkpt lat="60.1660842896" lon="15.4564580917">
        <ele>0</ele>
        <time>2013-05-01T12:18:57Z</time>
      </trkpt>
      <trkpt lat="60.1660614014" lon="15.4566221237">
        <ele>0</ele>
        <time>2013-05-01T12:18:58Z</time>
      </trkpt>
      <trkpt lat="60.1660423279" lon="15.4567508698">
        <ele>0</ele>
        <time>2013-05-01T12:18:59Z</time>
      </trkpt>
      <trkpt lat="60.166015625" lon="15.4568967819">
        <ele>0</ele>
        <time>2013-05-01T12:19:00Z</time>
      </trkpt>
      <trkpt lat="60.1659584045" lon="15.4572257996">
        <ele>0</ele>
        <time>2013-05-01T12:19:03Z</time>
      </trkpt>
      <trkpt lat="60.1659164429" lon="15.4573898315">
        <ele>0</ele>
        <time>2013-05-01T12:19:05Z</time>
      </trkpt>
      <trkpt lat="60.1658668518" lon="15.4575576782">
        <ele>0</ele>
        <time>2013-05-01T12:19:07Z</time>
      </trkpt>
      <trkpt lat="60.1658363342" lon="15.457649231">
        <ele>0</ele>
        <time>2013-05-01T12:19:08Z</time>
      </trkpt>
      <trkpt lat="60.1658058167" lon="15.457734108">
        <ele>0</ele>
        <time>2013-05-01T12:19:09Z</time>
      </trkpt>
      <trkpt lat="60.1657524109" lon="15.4578676224">
        <ele>0</ele>
        <time>2013-05-01T12:19:11Z</time>
      </trkpt>
      <trkpt lat="60.1656990051" lon="15.4580059052">
        <ele>0</ele>
        <time>2013-05-01T12:19:13Z</time>
      </trkpt>
      <trkpt lat="60.1656341553" lon="15.4581384659">
        <ele>0</ele>
        <time>2013-05-01T12:19:15Z</time>
      </trkpt>
      <trkpt lat="60.1655731201" lon="15.4582529068">
        <ele>0</ele>
        <time>2013-05-01T12:19:17Z</time>
      </trkpt>
      <trkpt lat="60.1655464172" lon="15.4582967758">
        <ele>0</ele>
        <time>2013-05-01T12:19:18Z</time>
      </trkpt>
      <trkpt lat="60.1654968262" lon="15.4583759308">
        <ele>0</ele>
        <time>2013-05-01T12:19:19Z</time>
      </trkpt>
      <trkpt lat="60.1654624939" lon="15.4584350586">
        <ele>0</ele>
        <time>2013-05-01T12:19:20Z</time>
      </trkpt>
      <trkpt lat="60.1654205322" lon="15.4584922791">
        <ele>0</ele>
        <time>2013-05-01T12:19:21Z</time>
      </trkpt>
      <trkpt lat="60.1654014587" lon="15.4585189819">
        <ele>0</ele>
        <time>2013-05-01T12:19:22Z</time>
      </trkpt>
      <trkpt lat="60.165348053" lon="15.4585905075">
        <ele>0</ele>
        <time>2013-05-01T12:19:23Z</time>
      </trkpt>
      <trkpt lat="60.1653137207" lon="15.458647728">
        <ele>0</ele>
        <time>2013-05-01T12:19:24Z</time>
      </trkpt>
      <trkpt lat="60.1652793884" lon="15.4586963654">
        <ele>0</ele>
        <time>2013-05-01T12:19:25Z</time>
      </trkpt>
      <trkpt lat="60.1652526855" lon="15.4587364197">
        <ele>0</ele>
        <time>2013-05-01T12:19:26Z</time>
      </trkpt>
      <trkpt lat="60.1652069092" lon="15.4588041306">
        <ele>0</ele>
        <time>2013-05-01T12:19:27Z</time>
      </trkpt>
      <trkpt lat="60.1651725769" lon="15.458861351">
        <ele>0</ele>
        <time>2013-05-01T12:19:28Z</time>
      </trkpt>
      <trkpt lat="60.1651344299" lon="15.458902359">
        <ele>0</ele>
        <time>2013-05-01T12:19:29Z</time>
      </trkpt>
      <trkpt lat="60.1650276184" lon="15.4590387344">
        <ele>0</ele>
        <time>2013-05-01T12:19:32Z</time>
      </trkpt>
      <trkpt lat="60.1649856567" lon="15.4590902328">
        <ele>0</ele>
        <time>2013-05-01T12:19:33Z</time>
      </trkpt>
      <trkpt lat="60.1647186279" lon="15.4594106674">
        <ele>0</ele>
        <time>2013-05-01T12:19:40Z</time>
      </trkpt>
      <trkpt lat="60.1646499634" lon="15.4594898224">
        <ele>0</ele>
        <time>2013-05-01T12:19:42Z</time>
      </trkpt>
      <trkpt lat="60.1645126343" lon="15.4596395493">
        <ele>0</ele>
        <time>2013-05-01T12:19:45Z</time>
      </trkpt>
      <trkpt lat="60.1644821167" lon="15.4596624374">
        <ele>0</ele>
        <time>2013-05-01T12:19:46Z</time>
      </trkpt>
      <trkpt lat="60.1642456055" lon="15.4599075317">
        <ele>0</ele>
        <time>2013-05-01T12:19:52Z</time>
      </trkpt>
      <trkpt lat="60.1642036438" lon="15.4599494934">
        <ele>0</ele>
        <time>2013-05-01T12:19:53Z</time>
      </trkpt>
      <trkpt lat="60.1641769409" lon="15.4599723816">
        <ele>0</ele>
        <time>2013-05-01T12:19:54Z</time>
      </trkpt>
      <trkpt lat="60.1641273499" lon="15.4600248337">
        <ele>0</ele>
        <time>2013-05-01T12:19:55Z</time>
      </trkpt>
      <trkpt lat="60.1640472412" lon="15.4600982666">
        <ele>0</ele>
        <time>2013-05-01T12:19:57Z</time>
      </trkpt>
      <trkpt lat="60.1640167236" lon="15.4601259232">
        <ele>0</ele>
        <time>2013-05-01T12:19:58Z</time>
      </trkpt>
      <trkpt lat="60.1639633179" lon="15.4601821899">
        <ele>0</ele>
        <time>2013-05-01T12:19:59Z</time>
      </trkpt>
      <trkpt lat="60.1639213562" lon="15.4602241516">
        <ele>0</ele>
        <time>2013-05-01T12:20:00Z</time>
      </trkpt>
      <trkpt lat="60.1638832092" lon="15.4602718353">
        <ele>0</ele>
        <time>2013-05-01T12:20:01Z</time>
      </trkpt>
      <trkpt lat="60.1638031006" lon="15.4603500366">
        <ele>0</ele>
        <time>2013-05-01T12:20:03Z</time>
      </trkpt>
      <trkpt lat="60.1636505127" lon="15.4605169296">
        <ele>0</ele>
        <time>2013-05-01T12:20:07Z</time>
      </trkpt>
      <trkpt lat="60.163608551" lon="15.4605665207">
        <ele>0</ele>
        <time>2013-05-01T12:20:08Z</time>
      </trkpt>
      <trkpt lat="60.1635665894" lon="15.4606161118">
        <ele>0</ele>
        <time>2013-05-01T12:20:09Z</time>
      </trkpt>
      <trkpt lat="60.1635475159" lon="15.4606485367">
        <ele>0</ele>
        <time>2013-05-01T12:20:10Z</time>
      </trkpt>
      <trkpt lat="60.1634941101" lon="15.4607210159">
        <ele>0</ele>
        <time>2013-05-01T12:20:11Z</time>
      </trkpt>
      <trkpt lat="60.1634140015" lon="15.4608297348">
        <ele>0</ele>
        <time>2013-05-01T12:20:13Z</time>
      </trkpt>
      <trkpt lat="60.1633872986" lon="15.4608688354">
        <ele>0</ele>
        <time>2013-05-01T12:20:14Z</time>
      </trkpt>
      <trkpt lat="60.1633377075" lon="15.4609479904">
        <ele>0</ele>
        <time>2013-05-01T12:20:15Z</time>
      </trkpt>
      <trkpt lat="60.1632995605" lon="15.4610042572">
        <ele>0</ele>
        <time>2013-05-01T12:20:16Z</time>
      </trkpt>
      <trkpt lat="60.1632652283" lon="15.4610624313">
        <ele>0</ele>
        <time>2013-05-01T12:20:17Z</time>
      </trkpt>
      <trkpt lat="60.163192749" lon="15.461192131">
        <ele>0</ele>
        <time>2013-05-01T12:20:19Z</time>
      </trkpt>
      <trkpt lat="60.1631584167" lon="15.4612560272">
        <ele>0</ele>
        <time>2013-05-01T12:20:20Z</time>
      </trkpt>
      <trkpt lat="60.1630554199" lon="15.4614629745">
        <ele>0</ele>
        <time>2013-05-01T12:20:23Z</time>
      </trkpt>
      <trkpt lat="60.1630172729" lon="15.4615383148">
        <ele>0</ele>
        <time>2013-05-01T12:20:24Z</time>
      </trkpt>
      <trkpt lat="60.1629829407" lon="15.4616041183">
        <ele>0</ele>
        <time>2013-05-01T12:20:25Z</time>
      </trkpt>
      <trkpt lat="60.1627655029" lon="15.4620637894">
        <ele>0</ele>
        <time>2013-05-01T12:20:31Z</time>
      </trkpt>
      <trkpt lat="60.162651062" lon="15.462310791">
        <ele>0</ele>
        <time>2013-05-01T12:20:34Z</time>
      </trkpt>
      <trkpt lat="60.1625938416" lon="15.4624242783">
        <ele>0</ele>
        <time>2013-05-01T12:20:35Z</time>
      </trkpt>
      <trkpt lat="60.1625518799" lon="15.4625110626">
        <ele>0</ele>
        <time>2013-05-01T12:20:36Z</time>
      </trkpt>
      <trkpt lat="60.1625175476" lon="15.4625864029">
        <ele>0</ele>
        <time>2013-05-01T12:20:37Z</time>
      </trkpt>
      <trkpt lat="60.16248703" lon="15.462644577">
        <ele>0</ele>
        <time>2013-05-01T12:20:38Z</time>
      </trkpt>
      <trkpt lat="60.1624412537" lon="15.4627513885">
        <ele>0</ele>
        <time>2013-05-01T12:20:39Z</time>
      </trkpt>
      <trkpt lat="60.1624031067" lon="15.4628219604">
        <ele>0</ele>
        <time>2013-05-01T12:20:40Z</time>
      </trkpt>
      <trkpt lat="60.1622924805" lon="15.4630556107">
        <ele>0</ele>
        <time>2013-05-01T12:20:43Z</time>
      </trkpt>
      <trkpt lat="60.1622657776" lon="15.4631433487">
        <ele>0</ele>
        <time>2013-05-01T12:20:44Z</time>
      </trkpt>
      <trkpt lat="60.1622123718" lon="15.4632453918">
        <ele>0</ele>
        <time>2013-05-01T12:20:46Z</time>
      </trkpt>
      <trkpt lat="60.1621704102" lon="15.4633350372">
        <ele>0</ele>
        <time>2013-05-01T12:20:47Z</time>
      </trkpt>
      <trkpt lat="60.1621360779" lon="15.4634151459">
        <ele>0</ele>
        <time>2013-05-01T12:20:48Z</time>
      </trkpt>
      <trkpt lat="60.1621017456" lon="15.4634885788">
        <ele>0</ele>
        <time>2013-05-01T12:20:49Z</time>
      </trkpt>
      <trkpt lat="60.1620674133" lon="15.4635620117">
        <ele>0</ele>
        <time>2013-05-01T12:20:50Z</time>
      </trkpt>
      <trkpt lat="60.1620292664" lon="15.4636182785">
        <ele>0</ele>
        <time>2013-05-01T12:20:51Z</time>
      </trkpt>
      <trkpt lat="60.1619949341" lon="15.4636831284">
        <ele>0</ele>
        <time>2013-05-01T12:20:52Z</time>
      </trkpt>
      <trkpt lat="60.1618804932" lon="15.4639091492">
        <ele>0</ele>
        <time>2013-05-01T12:20:55Z</time>
      </trkpt>
      <trkpt lat="60.1618423462" lon="15.4639883041">
        <ele>0</ele>
        <time>2013-05-01T12:20:56Z</time>
      </trkpt>
      <trkpt lat="60.1618118286" lon="15.4640617371">
        <ele>0</ele>
        <time>2013-05-01T12:20:57Z</time>
      </trkpt>
      <trkpt lat="60.1617889404" lon="15.4641141891">
        <ele>0</ele>
        <time>2013-05-01T12:20:58Z</time>
      </trkpt>
      <trkpt lat="60.1617431641" lon="15.4642210007">
        <ele>0</ele>
        <time>2013-05-01T12:20:59Z</time>
      </trkpt>
      <trkpt lat="60.1615829468" lon="15.464553833">
        <ele>0</ele>
        <time>2013-05-01T12:21:03Z</time>
      </trkpt>
      <trkpt lat="60.1615371704" lon="15.46463871">
        <ele>0</ele>
        <time>2013-05-01T12:21:04Z</time>
      </trkpt>
      <trkpt lat="60.1615028381" lon="15.4647188187">
        <ele>0</ele>
        <time>2013-05-01T12:21:05Z</time>
      </trkpt>
      <trkpt lat="60.1614761353" lon="15.4647789001">
        <ele>0</ele>
        <time>2013-05-01T12:21:06Z</time>
      </trkpt>
      <trkpt lat="60.1613769531" lon="15.4649820328">
        <ele>0</ele>
        <time>2013-05-01T12:21:08Z</time>
      </trkpt>
      <trkpt lat="60.1613121033" lon="15.4651384354">
        <ele>0</ele>
        <time>2013-05-01T12:21:10Z</time>
      </trkpt>
      <trkpt lat="60.1612548828" lon="15.4652748108">
        <ele>0</ele>
        <time>2013-05-01T12:21:11Z</time>
      </trkpt>
      <trkpt lat="60.1612052917" lon="15.4653739929">
        <ele>0</ele>
        <time>2013-05-01T12:21:12Z</time>
      </trkpt>
      <trkpt lat="60.1611557007" lon="15.4654865265">
        <ele>0</ele>
        <time>2013-05-01T12:21:13Z</time>
      </trkpt>
      <trkpt lat="60.1611213684" lon="15.4655456543">
        <ele>0</ele>
        <time>2013-05-01T12:21:14Z</time>
      </trkpt>
      <trkpt lat="60.1610527039" lon="15.4657011032">
        <ele>0</ele>
        <time>2013-05-01T12:21:15Z</time>
      </trkpt>
      <trkpt lat="60.1609992981" lon="15.4658136368">
        <ele>0</ele>
        <time>2013-05-01T12:21:16Z</time>
      </trkpt>
      <trkpt lat="60.1609077454" lon="15.4659957886">
        <ele>0</ele>
        <time>2013-05-01T12:21:18Z</time>
      </trkpt>
      <trkpt lat="60.1608390808" lon="15.4661340714">
        <ele>0</ele>
        <time>2013-05-01T12:21:19Z</time>
      </trkpt>
      <trkpt lat="60.1607894897" lon="15.4662389755">
        <ele>0</ele>
        <time>2013-05-01T12:21:20Z</time>
      </trkpt>
      <trkpt lat="60.1607093811" lon="15.4664020538">
        <ele>0</ele>
        <time>2013-05-01T12:21:22Z</time>
      </trkpt>
      <trkpt lat="60.1606483459" lon="15.4665355682">
        <ele>0</ele>
        <time>2013-05-01T12:21:23Z</time>
      </trkpt>
      <trkpt lat="60.1605262756" lon="15.4667787552">
        <ele>0</ele>
        <time>2013-05-01T12:21:25Z</time>
      </trkpt>
      <trkpt lat="60.1604919434" lon="15.4668483734">
        <ele>0</ele>
        <time>2013-05-01T12:21:26Z</time>
      </trkpt>
      <trkpt lat="60.160320282" lon="15.4672040939">
        <ele>0</ele>
        <time>2013-05-01T12:21:29Z</time>
      </trkpt>
      <trkpt lat="60.1602897644" lon="15.4672746658">
        <ele>0</ele>
        <time>2013-05-01T12:21:30Z</time>
      </trkpt>
      <trkpt lat="60.1602172852" lon="15.467423439">
        <ele>0</ele>
        <time>2013-05-01T12:21:31Z</time>
      </trkpt>
      <trkpt lat="60.1601638794" lon="15.4675340652">
        <ele>0</ele>
        <time>2013-05-01T12:21:32Z</time>
      </trkpt>
      <trkpt lat="60.1601066589" lon="15.4676589966">
        <ele>0</ele>
        <time>2013-05-01T12:21:33Z</time>
      </trkpt>
      <trkpt lat="60.1600723267" lon="15.4677295685">
        <ele>0</ele>
        <time>2013-05-01T12:21:34Z</time>
      </trkpt>
      <trkpt lat="60.1600112915" lon="15.4678916931">
        <ele>0</ele>
        <time>2013-05-01T12:21:35Z</time>
      </trkpt>
      <trkpt lat="60.159942627" lon="15.4680299759">
        <ele>0</ele>
        <time>2013-05-01T12:21:36Z</time>
      </trkpt>
      <trkpt lat="60.1598854065" lon="15.4681482315">
        <ele>0</ele>
        <time>2013-05-01T12:21:37Z</time>
      </trkpt>
      <trkpt lat="60.1598396301" lon="15.4682388306">
        <ele>0</ele>
        <time>2013-05-01T12:21:38Z</time>
      </trkpt>
      <trkpt lat="60.1597557068" lon="15.4684171677">
        <ele>0</ele>
        <time>2013-05-01T12:21:39Z</time>
      </trkpt>
      <trkpt lat="60.1596984863" lon="15.4685525894">
        <ele>0</ele>
        <time>2013-05-01T12:21:40Z</time>
      </trkpt>
      <trkpt lat="60.1596336365" lon="15.4687042236">
        <ele>0</ele>
        <time>2013-05-01T12:21:41Z</time>
      </trkpt>
      <trkpt lat="60.1595115662" lon="15.4690055847">
        <ele>0</ele>
        <time>2013-05-01T12:21:43Z</time>
      </trkpt>
      <trkpt lat="60.159450531" lon="15.4691638947">
        <ele>0</ele>
        <time>2013-05-01T12:21:44Z</time>
      </trkpt>
      <trkpt lat="60.1594085693" lon="15.4692974091">
        <ele>0</ele>
        <time>2013-05-01T12:21:45Z</time>
      </trkpt>
      <trkpt lat="60.1593666077" lon="15.4694080353">
        <ele>0</ele>
        <time>2013-05-01T12:21:46Z</time>
      </trkpt>
      <trkpt lat="60.1592979431" lon="15.4696216583">
        <ele>0</ele>
        <time>2013-05-01T12:21:47Z</time>
      </trkpt>
      <trkpt lat="60.1592407227" lon="15.469792366">
        <ele>0</ele>
        <time>2013-05-01T12:21:48Z</time>
      </trkpt>
      <trkpt lat="60.1591911316" lon="15.469959259">
        <ele>0</ele>
        <time>2013-05-01T12:21:49Z</time>
      </trkpt>
      <trkpt lat="60.1591567993" lon="15.4700641632">
        <ele>0</ele>
        <time>2013-05-01T12:21:50Z</time>
      </trkpt>
      <trkpt lat="60.1590919495" lon="15.4703054428">
        <ele>0</ele>
        <time>2013-05-01T12:21:51Z</time>
      </trkpt>
      <trkpt lat="60.1590538025" lon="15.470459938">
        <ele>0</ele>
        <time>2013-05-01T12:21:52Z</time>
      </trkpt>
      <trkpt lat="60.1590118408" lon="15.4706668854">
        <ele>0</ele>
        <time>2013-05-01T12:21:53Z</time>
      </trkpt>
      <trkpt lat="60.1589241028" lon="15.4710226059">
        <ele>0</ele>
        <time>2013-05-01T12:21:55Z</time>
      </trkpt>
      <trkpt lat="60.1588859558" lon="15.4712114334">
        <ele>0</ele>
        <time>2013-05-01T12:21:56Z</time>
      </trkpt>
      <trkpt lat="60.1588516235" lon="15.4713916779">
        <ele>0</ele>
        <time>2013-05-01T12:21:57Z</time>
      </trkpt>
      <trkpt lat="60.1588287354" lon="15.4715185165">
        <ele>0</ele>
        <time>2013-05-01T12:21:58Z</time>
      </trkpt>
      <trkpt lat="60.1587791443" lon="15.471780777">
        <ele>0</ele>
        <time>2013-05-01T12:21:59Z</time>
      </trkpt>
      <trkpt lat="60.158744812" lon="15.4719638824">
        <ele>0</ele>
        <time>2013-05-01T12:22:00Z</time>
      </trkpt>
      <trkpt lat="60.1587142944" lon="15.4721755981">
        <ele>0</ele>
        <time>2013-05-01T12:22:01Z</time>
      </trkpt>
      <trkpt lat="60.1586647034" lon="15.4725456238">
        <ele>0</ele>
        <time>2013-05-01T12:22:03Z</time>
      </trkpt>
      <trkpt lat="60.1586456299" lon="15.4727420807">
        <ele>0</ele>
        <time>2013-05-01T12:22:04Z</time>
      </trkpt>
      <trkpt lat="60.1586151123" lon="15.473074913">
        <ele>0</ele>
        <time>2013-05-01T12:22:06Z</time>
      </trkpt>
      <trkpt lat="60.1585922241" lon="15.4733133316">
        <ele>0</ele>
        <time>2013-05-01T12:22:07Z</time>
      </trkpt>
      <trkpt lat="60.1585769653" lon="15.4735298157">
        <ele>0</ele>
        <time>2013-05-01T12:22:08Z</time>
      </trkpt>
      <trkpt lat="60.1585655212" lon="15.4737281799">
        <ele>0</ele>
        <time>2013-05-01T12:22:09Z</time>
      </trkpt>
      <trkpt lat="60.1585388184" lon="15.4741125107">
        <ele>0</ele>
        <time>2013-05-01T12:22:11Z</time>
      </trkpt>
      <trkpt lat="60.1585273743" lon="15.4743003845">
        <ele>0</ele>
        <time>2013-05-01T12:22:12Z</time>
      </trkpt>
      <trkpt lat="60.1585197449" lon="15.4744958878">
        <ele>0</ele>
        <time>2013-05-01T12:22:13Z</time>
      </trkpt>
      <trkpt lat="60.1585083008" lon="15.4746189117">
        <ele>0</ele>
        <time>2013-05-01T12:22:14Z</time>
      </trkpt>
      <trkpt lat="60.1584434509" lon="15.4757699966">
        <ele>0</ele>
        <time>2013-05-01T12:22:20Z</time>
      </trkpt>
      <trkpt lat="60.1584320068" lon="15.4759645462">
        <ele>0</ele>
        <time>2013-05-01T12:22:21Z</time>
      </trkpt>
      <trkpt lat="60.1584320068" lon="15.4760665894">
        <ele>0</ele>
        <time>2013-05-01T12:22:22Z</time>
      </trkpt>
      <trkpt lat="60.158416748" lon="15.4763298035">
        <ele>0</ele>
        <time>2013-05-01T12:22:23Z</time>
      </trkpt>
      <trkpt lat="60.1583938599" lon="15.4767274857">
        <ele>0</ele>
        <time>2013-05-01T12:22:25Z</time>
      </trkpt>
      <trkpt lat="60.1583747864" lon="15.4771471024">
        <ele>0</ele>
        <time>2013-05-01T12:22:27Z</time>
      </trkpt>
      <trkpt lat="60.158367157" lon="15.4773645401">
        <ele>0</ele>
        <time>2013-05-01T12:22:28Z</time>
      </trkpt>
      <trkpt lat="60.1583557129" lon="15.477558136">
        <ele>0</ele>
        <time>2013-05-01T12:22:29Z</time>
      </trkpt>
      <trkpt lat="60.1583480835" lon="15.4776744843">
        <ele>0</ele>
        <time>2013-05-01T12:22:30Z</time>
      </trkpt>
      <trkpt lat="60.1583328247" lon="15.4779396057">
        <ele>0</ele>
        <time>2013-05-01T12:22:31Z</time>
      </trkpt>
      <trkpt lat="60.1583251953" lon="15.4781084061">
        <ele>0</ele>
        <time>2013-05-01T12:22:32Z</time>
      </trkpt>
      <trkpt lat="60.1583175659" lon="15.4783039093">
        <ele>0</ele>
        <time>2013-05-01T12:22:33Z</time>
      </trkpt>
      <trkpt lat="60.1583061218" lon="15.4786024094">
        <ele>0</ele>
        <time>2013-05-01T12:22:35Z</time>
      </trkpt>
      <trkpt lat="60.1582984924" lon="15.4788475037">
        <ele>0</ele>
        <time>2013-05-01T12:22:36Z</time>
      </trkpt>
      <trkpt lat="60.1582946777" lon="15.4791402817">
        <ele>0</ele>
        <time>2013-05-01T12:22:38Z</time>
      </trkpt>
      <trkpt lat="60.158290863" lon="15.4793758392">
        <ele>0</ele>
        <time>2013-05-01T12:22:39Z</time>
      </trkpt>
      <trkpt lat="60.1582870483" lon="15.4795312881">
        <ele>0</ele>
        <time>2013-05-01T12:22:40Z</time>
      </trkpt>
      <trkpt lat="60.1582870483" lon="15.4803905487">
        <ele>0</ele>
        <time>2013-05-01T12:22:45Z</time>
      </trkpt>
      <trkpt lat="60.158290863" lon="15.4805030823">
        <ele>0</ele>
        <time>2013-05-01T12:22:46Z</time>
      </trkpt>
      <trkpt lat="60.1582946777" lon="15.4807186127">
        <ele>0</ele>
        <time>2013-05-01T12:22:47Z</time>
      </trkpt>
      <trkpt lat="60.1582984924" lon="15.4809045792">
        <ele>0</ele>
        <time>2013-05-01T12:22:48Z</time>
      </trkpt>
      <trkpt lat="60.1583023071" lon="15.4810752869">
        <ele>0</ele>
        <time>2013-05-01T12:22:49Z</time>
      </trkpt>
      <trkpt lat="60.1583061218" lon="15.481174469">
        <ele>0</ele>
        <time>2013-05-01T12:22:50Z</time>
      </trkpt>
      <trkpt lat="60.1583137512" lon="15.4814119339">
        <ele>0</ele>
        <time>2013-05-01T12:22:51Z</time>
      </trkpt>
      <trkpt lat="60.1583213806" lon="15.4815683365">
        <ele>0</ele>
        <time>2013-05-01T12:22:52Z</time>
      </trkpt>
      <trkpt lat="60.1583366394" lon="15.4818592072">
        <ele>0</ele>
        <time>2013-05-01T12:22:54Z</time>
      </trkpt>
      <trkpt lat="60.1583480835" lon="15.482085228">
        <ele>0</ele>
        <time>2013-05-01T12:22:55Z</time>
      </trkpt>
      <trkpt lat="60.1583557129" lon="15.4822597504">
        <ele>0</ele>
        <time>2013-05-01T12:22:56Z</time>
      </trkpt>
      <trkpt lat="60.1583633423" lon="15.4824209213">
        <ele>0</ele>
        <time>2013-05-01T12:22:57Z</time>
      </trkpt>
      <trkpt lat="60.158405304" lon="15.4831190109">
        <ele>0</ele>
        <time>2013-05-01T12:23:01Z</time>
      </trkpt>
      <trkpt lat="60.1584091187" lon="15.4831914902">
        <ele>0</ele>
        <time>2013-05-01T12:23:02Z</time>
      </trkpt>
      <trkpt lat="60.1584281921" lon="15.4834489822">
        <ele>0</ele>
        <time>2013-05-01T12:23:03Z</time>
      </trkpt>
      <trkpt lat="60.1584472656" lon="15.4837579727">
        <ele>0</ele>
        <time>2013-05-01T12:23:06Z</time>
      </trkpt>
      <trkpt lat="60.1584777832" lon="15.4843015671">
        <ele>0</ele>
        <time>2013-05-01T12:23:08Z</time>
      </trkpt>
      <trkpt lat="60.1584854126" lon="15.4844741821">
        <ele>0</ele>
        <time>2013-05-01T12:23:09Z</time>
      </trkpt>
      <trkpt lat="60.158493042" lon="15.4845676422">
        <ele>0</ele>
        <time>2013-05-01T12:23:10Z</time>
      </trkpt>
      <trkpt lat="60.1585044861" lon="15.4848051071">
        <ele>0</ele>
        <time>2013-05-01T12:23:11Z</time>
      </trkpt>
      <trkpt lat="60.1585159302" lon="15.4849758148">
        <ele>0</ele>
        <time>2013-05-01T12:23:12Z</time>
      </trkpt>
      <trkpt lat="60.1585273743" lon="15.4851646423">
        <ele>0</ele>
        <time>2013-05-01T12:23:13Z</time>
      </trkpt>
      <trkpt lat="60.1585464478" lon="15.4855175018">
        <ele>0</ele>
        <time>2013-05-01T12:23:15Z</time>
      </trkpt>
      <trkpt lat="60.1585617065" lon="15.4856977463">
        <ele>0</ele>
        <time>2013-05-01T12:23:16Z</time>
      </trkpt>
      <trkpt lat="60.1585693359" lon="15.4858474731">
        <ele>0</ele>
        <time>2013-05-01T12:23:17Z</time>
      </trkpt>
      <trkpt lat="60.1585845947" lon="15.4862041473">
        <ele>0</ele>
        <time>2013-05-01T12:23:19Z</time>
      </trkpt>
      <trkpt lat="60.1585960388" lon="15.4863643646">
        <ele>0</ele>
        <time>2013-05-01T12:23:20Z</time>
      </trkpt>
      <trkpt lat="60.1586265564" lon="15.4868545532">
        <ele>0</ele>
        <time>2013-05-01T12:23:23Z</time>
      </trkpt>
      <trkpt lat="60.1586341858" lon="15.4870262146">
        <ele>0</ele>
        <time>2013-05-01T12:23:24Z</time>
      </trkpt>
      <trkpt lat="60.1587028503" lon="15.4881305695">
        <ele>0</ele>
        <time>2013-05-01T12:23:31Z</time>
      </trkpt>
      <trkpt lat="60.1587142944" lon="15.4882726669">
        <ele>0</ele>
        <time>2013-05-01T12:23:32Z</time>
      </trkpt>
      <trkpt lat="60.1587257385" lon="15.4884386063">
        <ele>0</ele>
        <time>2013-05-01T12:23:33Z</time>
      </trkpt>
      <trkpt lat="60.1587295532" lon="15.48853302">
        <ele>0</ele>
        <time>2013-05-01T12:23:34Z</time>
      </trkpt>
      <trkpt lat="60.1587600708" lon="15.4890365601">
        <ele>0</ele>
        <time>2013-05-01T12:23:37Z</time>
      </trkpt>
      <trkpt lat="60.1587677002" lon="15.4891443253">
        <ele>0</ele>
        <time>2013-05-01T12:23:38Z</time>
      </trkpt>
      <trkpt lat="60.158782959" lon="15.489361763">
        <ele>0</ele>
        <time>2013-05-01T12:23:39Z</time>
      </trkpt>
      <trkpt lat="60.1588172913" lon="15.4899864197">
        <ele>0</ele>
        <time>2013-05-01T12:23:43Z</time>
      </trkpt>
      <trkpt lat="60.1588287354" lon="15.4901418686">
        <ele>0</ele>
        <time>2013-05-01T12:23:44Z</time>
      </trkpt>
      <trkpt lat="60.1588363647" lon="15.4902906418">
        <ele>0</ele>
        <time>2013-05-01T12:23:45Z</time>
      </trkpt>
      <trkpt lat="60.1588439941" lon="15.4903898239">
        <ele>0</ele>
        <time>2013-05-01T12:23:46Z</time>
      </trkpt>
      <trkpt lat="60.1588516235" lon="15.4905862808">
        <ele>0</ele>
        <time>2013-05-01T12:23:47Z</time>
      </trkpt>
      <trkpt lat="60.1588630676" lon="15.4907579422">
        <ele>0</ele>
        <time>2013-05-01T12:23:48Z</time>
      </trkpt>
      <trkpt lat="60.158870697" lon="15.490904808">
        <ele>0</ele>
        <time>2013-05-01T12:23:49Z</time>
      </trkpt>
      <trkpt lat="60.1588745117" lon="15.490986824">
        <ele>0</ele>
        <time>2013-05-01T12:23:50Z</time>
      </trkpt>
      <trkpt lat="60.1588859558" lon="15.4911899567">
        <ele>0</ele>
        <time>2013-05-01T12:23:51Z</time>
      </trkpt>
      <trkpt lat="60.1588935852" lon="15.4913187027">
        <ele>0</ele>
        <time>2013-05-01T12:23:52Z</time>
      </trkpt>
      <trkpt lat="60.158908844" lon="15.4915428162">
        <ele>0</ele>
        <time>2013-05-01T12:23:54Z</time>
      </trkpt>
      <trkpt lat="60.1589164734" lon="15.4917173386">
        <ele>0</ele>
        <time>2013-05-01T12:23:55Z</time>
      </trkpt>
      <trkpt lat="60.1589317322" lon="15.4919681549">
        <ele>0</ele>
        <time>2013-05-01T12:23:57Z</time>
      </trkpt>
      <trkpt lat="60.1589393616" lon="15.4920539856">
        <ele>0</ele>
        <time>2013-05-01T12:23:58Z</time>
      </trkpt>
      <trkpt lat="60.158946991" lon="15.4921855927">
        <ele>0</ele>
        <time>2013-05-01T12:23:59Z</time>
      </trkpt>
      <trkpt lat="60.1589660645" lon="15.4924936295">
        <ele>0</ele>
        <time>2013-05-01T12:24:01Z</time>
      </trkpt>
      <trkpt lat="60.1589698792" lon="15.4925498962">
        <ele>0</ele>
        <time>2013-05-01T12:24:02Z</time>
      </trkpt>
      <trkpt lat="60.1589775085" lon="15.4927463531">
        <ele>0</ele>
        <time>2013-05-01T12:24:03Z</time>
      </trkpt>
      <trkpt lat="60.1589889526" lon="15.4928846359">
        <ele>0</ele>
        <time>2013-05-01T12:24:04Z</time>
      </trkpt>
      <trkpt lat="60.158996582" lon="15.4930114746">
        <ele>0</ele>
        <time>2013-05-01T12:24:05Z</time>
      </trkpt>
      <trkpt lat="60.1590042114" lon="15.4931221008">
        <ele>0</ele>
        <time>2013-05-01T12:24:06Z</time>
      </trkpt>
      <trkpt lat="60.1590156555" lon="15.4932975769">
        <ele>0</ele>
        <time>2013-05-01T12:24:07Z</time>
      </trkpt>
      <trkpt lat="60.1590232849" lon="15.4934606552">
        <ele>0</ele>
        <time>2013-05-01T12:24:08Z</time>
      </trkpt>
      <trkpt lat="60.159034729" lon="15.4936170578">
        <ele>0</ele>
        <time>2013-05-01T12:24:09Z</time>
      </trkpt>
      <trkpt lat="60.1590576172" lon="15.4939260483">
        <ele>0</ele>
        <time>2013-05-01T12:24:11Z</time>
      </trkpt>
      <trkpt lat="60.1590690613" lon="15.4940910339">
        <ele>0</ele>
        <time>2013-05-01T12:24:12Z</time>
      </trkpt>
      <trkpt lat="60.1590881348" lon="15.4942684174">
        <ele>0</ele>
        <time>2013-05-01T12:24:13Z</time>
      </trkpt>
      <trkpt lat="60.1591262817" lon="15.4945983887">
        <ele>0</ele>
        <time>2013-05-01T12:24:15Z</time>
      </trkpt>
      <trkpt lat="60.1591453552" lon="15.4947605133">
        <ele>0</ele>
        <time>2013-05-01T12:24:16Z</time>
      </trkpt>
      <trkpt lat="60.1591644287" lon="15.4949016571">
        <ele>0</ele>
        <time>2013-05-01T12:24:17Z</time>
      </trkpt>
      <trkpt lat="60.1592102051" lon="15.4952449799">
        <ele>0</ele>
        <time>2013-05-01T12:24:19Z</time>
      </trkpt>
      <trkpt lat="60.1592330933" lon="15.495390892">
        <ele>0</ele>
        <time>2013-05-01T12:24:20Z</time>
      </trkpt>
      <trkpt lat="60.1593208313" lon="15.4959487915">
        <ele>0</ele>
        <time>2013-05-01T12:24:24Z</time>
      </trkpt>
      <trkpt lat="60.1593437195" lon="15.4960727692">
        <ele>0</ele>
        <time>2013-05-01T12:24:25Z</time>
      </trkpt>
      <trkpt lat="60.1593551636" lon="15.4961633682">
        <ele>0</ele>
        <time>2013-05-01T12:24:26Z</time>
      </trkpt>
      <trkpt lat="60.1593818665" lon="15.4963340759">
        <ele>0</ele>
        <time>2013-05-01T12:24:27Z</time>
      </trkpt>
      <trkpt lat="60.1594047546" lon="15.496471405">
        <ele>0</ele>
        <time>2013-05-01T12:24:28Z</time>
      </trkpt>
      <trkpt lat="60.1594276428" lon="15.496594429">
        <ele>0</ele>
        <time>2013-05-01T12:24:29Z</time>
      </trkpt>
      <trkpt lat="60.1594390869" lon="15.4966831207">
        <ele>0</ele>
        <time>2013-05-01T12:24:30Z</time>
      </trkpt>
      <trkpt lat="60.159488678" lon="15.4969778061">
        <ele>0</ele>
        <time>2013-05-01T12:24:32Z</time>
      </trkpt>
      <trkpt lat="60.1595115662" lon="15.4971189499">
        <ele>0</ele>
        <time>2013-05-01T12:24:33Z</time>
      </trkpt>
      <trkpt lat="60.159526825" lon="15.4972038269">
        <ele>0</ele>
        <time>2013-05-01T12:24:34Z</time>
      </trkpt>
      <trkpt lat="60.1595535278" lon="15.497385025">
        <ele>0</ele>
        <time>2013-05-01T12:24:35Z</time>
      </trkpt>
      <trkpt lat="60.1595802307" lon="15.4975452423">
        <ele>0</ele>
        <time>2013-05-01T12:24:36Z</time>
      </trkpt>
      <trkpt lat="60.1595993042" lon="15.4976797104">
        <ele>0</ele>
        <time>2013-05-01T12:24:37Z</time>
      </trkpt>
      <trkpt lat="60.1596488953" lon="15.4979944229">
        <ele>0</ele>
        <time>2013-05-01T12:24:39Z</time>
      </trkpt>
      <trkpt lat="60.1596755981" lon="15.4981422424">
        <ele>0</ele>
        <time>2013-05-01T12:24:40Z</time>
      </trkpt>
      <trkpt lat="60.1597175598" lon="15.4984054565">
        <ele>0</ele>
        <time>2013-05-01T12:24:42Z</time>
      </trkpt>
      <trkpt lat="60.1597518921" lon="15.498623848">
        <ele>0</ele>
        <time>2013-05-01T12:24:43Z</time>
      </trkpt>
      <trkpt lat="60.159778595" lon="15.4987850189">
        <ele>0</ele>
        <time>2013-05-01T12:24:44Z</time>
      </trkpt>
      <trkpt lat="60.1599617004" lon="15.4999141693">
        <ele>0</ele>
        <time>2013-05-01T12:24:51Z</time>
      </trkpt>
      <trkpt lat="60.1599845886" lon="15.5000648499">
        <ele>0</ele>
        <time>2013-05-01T12:24:52Z</time>
      </trkpt>
      <trkpt lat="60.1600074768" lon="15.5002279282">
        <ele>0</ele>
        <time>2013-05-01T12:24:53Z</time>
      </trkpt>
      <trkpt lat="60.1600227356" lon="15.5003252029">
        <ele>0</ele>
        <time>2013-05-01T12:24:54Z</time>
      </trkpt>
      <trkpt lat="60.1600990295" lon="15.5007982254">
        <ele>0</ele>
        <time>2013-05-01T12:24:57Z</time>
      </trkpt>
      <trkpt lat="60.1601104736" lon="15.5008897781">
        <ele>0</ele>
        <time>2013-05-01T12:24:58Z</time>
      </trkpt>
      <trkpt lat="60.1601371765" lon="15.5010433197">
        <ele>0</ele>
        <time>2013-05-01T12:24:59Z</time>
      </trkpt>
      <trkpt lat="60.1601524353" lon="15.5011663437">
        <ele>0</ele>
        <time>2013-05-01T12:25:00Z</time>
      </trkpt>
      <trkpt lat="60.1601676941" lon="15.5013027191">
        <ele>0</ele>
        <time>2013-05-01T12:25:01Z</time>
      </trkpt>
      <trkpt lat="60.1602020264" lon="15.5015211105">
        <ele>0</ele>
        <time>2013-05-01T12:25:03Z</time>
      </trkpt>
      <trkpt lat="60.1602134705" lon="15.5016269684">
        <ele>0</ele>
        <time>2013-05-01T12:25:04Z</time>
      </trkpt>
      <trkpt lat="60.1602210999" lon="15.5017232895">
        <ele>0</ele>
        <time>2013-05-01T12:25:05Z</time>
      </trkpt>
      <trkpt lat="60.1602249146" lon="15.5017929077">
        <ele>0</ele>
        <time>2013-05-01T12:25:06Z</time>
      </trkpt>
      <trkpt lat="60.1602363586" lon="15.5019264221">
        <ele>0</ele>
        <time>2013-05-01T12:25:07Z</time>
      </trkpt>
      <trkpt lat="60.160243988" lon="15.502035141">
        <ele>0</ele>
        <time>2013-05-01T12:25:08Z</time>
      </trkpt>
      <trkpt lat="60.1602554321" lon="15.5021915436">
        <ele>0</ele>
        <time>2013-05-01T12:25:10Z</time>
      </trkpt>
      <trkpt lat="60.1602630615" lon="15.5023145676">
        <ele>0</ele>
        <time>2013-05-01T12:25:11Z</time>
      </trkpt>
      <trkpt lat="60.1602668762" lon="15.5024299622">
        <ele>0</ele>
        <time>2013-05-01T12:25:12Z</time>
      </trkpt>
      <trkpt lat="60.1602745056" lon="15.5025396347">
        <ele>0</ele>
        <time>2013-05-01T12:25:13Z</time>
      </trkpt>
      <trkpt lat="60.1602745056" lon="15.5026016235">
        <ele>0</ele>
        <time>2013-05-01T12:25:14Z</time>
      </trkpt>
      <trkpt lat="60.160282135" lon="15.5028324127">
        <ele>0</ele>
        <time>2013-05-01T12:25:16Z</time>
      </trkpt>
      <trkpt lat="60.160282135" lon="15.5029191971">
        <ele>0</ele>
        <time>2013-05-01T12:25:17Z</time>
      </trkpt>
      <trkpt lat="60.1602859497" lon="15.502989769">
        <ele>0</ele>
        <time>2013-05-01T12:25:18Z</time>
      </trkpt>
      <trkpt lat="60.1602897644" lon="15.5031175613">
        <ele>0</ele>
        <time>2013-05-01T12:25:19Z</time>
      </trkpt>
      <trkpt lat="60.1602859497" lon="15.5032110214">
        <ele>0</ele>
        <time>2013-05-01T12:25:20Z</time>
      </trkpt>
      <trkpt lat="60.1602859497" lon="15.5033140182">
        <ele>0</ele>
        <time>2013-05-01T12:25:21Z</time>
      </trkpt>
      <trkpt lat="60.160282135" lon="15.5033550262">
        <ele>0</ele>
        <time>2013-05-01T12:25:22Z</time>
      </trkpt>
      <trkpt lat="60.1602783203" lon="15.5035057068">
        <ele>0</ele>
        <time>2013-05-01T12:25:23Z</time>
      </trkpt>
      <trkpt lat="60.1602783203" lon="15.503610611">
        <ele>0</ele>
        <time>2013-05-01T12:25:24Z</time>
      </trkpt>
      <trkpt lat="60.1602745056" lon="15.5037088394">
        <ele>0</ele>
        <time>2013-05-01T12:25:25Z</time>
      </trkpt>
      <trkpt lat="60.1602706909" lon="15.5039072037">
        <ele>0</ele>
        <time>2013-05-01T12:25:27Z</time>
      </trkpt>
      <trkpt lat="60.1602668762" lon="15.5040178299">
        <ele>0</ele>
        <time>2013-05-01T12:25:28Z</time>
      </trkpt>
      <trkpt lat="60.1602630615" lon="15.5041236877">
        <ele>0</ele>
        <time>2013-05-01T12:25:29Z</time>
      </trkpt>
      <trkpt lat="60.1602478027" lon="15.5044546127">
        <ele>0</ele>
        <time>2013-05-01T12:25:32Z</time>
      </trkpt>
      <trkpt lat="60.1602134705" lon="15.5052947998">
        <ele>0</ele>
        <time>2013-05-01T12:25:39Z</time>
      </trkpt>
      <trkpt lat="60.1602096558" lon="15.5054178238">
        <ele>0</ele>
        <time>2013-05-01T12:25:40Z</time>
      </trkpt>
      <trkpt lat="60.1602058411" lon="15.5055456161">
        <ele>0</ele>
        <time>2013-05-01T12:25:41Z</time>
      </trkpt>
      <trkpt lat="60.1602020264" lon="15.5056247711">
        <ele>0</ele>
        <time>2013-05-01T12:25:42Z</time>
      </trkpt>
      <trkpt lat="60.1601905823" lon="15.5058097839">
        <ele>0</ele>
        <time>2013-05-01T12:25:43Z</time>
      </trkpt>
      <trkpt lat="60.1601829529" lon="15.5059509277">
        <ele>0</ele>
        <time>2013-05-01T12:25:44Z</time>
      </trkpt>
      <trkpt lat="60.1601791382" lon="15.5060796738">
        <ele>0</ele>
        <time>2013-05-01T12:25:45Z</time>
      </trkpt>
      <trkpt lat="60.1601753235" lon="15.5061740875">
        <ele>0</ele>
        <time>2013-05-01T12:25:46Z</time>
      </trkpt>
      <trkpt lat="60.16015625" lon="15.5065097809">
        <ele>0</ele>
        <time>2013-05-01T12:25:48Z</time>
      </trkpt>
      <trkpt lat="60.1601486206" lon="15.5066547394">
        <ele>0</ele>
        <time>2013-05-01T12:25:49Z</time>
      </trkpt>
      <trkpt lat="60.1601219177" lon="15.5069484711">
        <ele>0</ele>
        <time>2013-05-01T12:25:51Z</time>
      </trkpt>
      <trkpt lat="60.1601104736" lon="15.5070848465">
        <ele>0</ele>
        <time>2013-05-01T12:25:52Z</time>
      </trkpt>
      <trkpt lat="60.1600990295" lon="15.5072402954">
        <ele>0</ele>
        <time>2013-05-01T12:25:53Z</time>
      </trkpt>
      <trkpt lat="60.1600608826" lon="15.5075359344">
        <ele>0</ele>
        <time>2013-05-01T12:25:55Z</time>
      </trkpt>
      <trkpt lat="60.1600456238" lon="15.507689476">
        <ele>0</ele>
        <time>2013-05-01T12:25:56Z</time>
      </trkpt>
      <trkpt lat="60.160030365" lon="15.5078201294">
        <ele>0</ele>
        <time>2013-05-01T12:25:57Z</time>
      </trkpt>
      <trkpt lat="60.1599884033" lon="15.5081005096">
        <ele>0</ele>
        <time>2013-05-01T12:25:59Z</time>
      </trkpt>
      <trkpt lat="60.1599655151" lon="15.5082406998">
        <ele>0</ele>
        <time>2013-05-01T12:26:00Z</time>
      </trkpt>
      <trkpt lat="60.1598510742" lon="15.5088758469">
        <ele>0</ele>
        <time>2013-05-01T12:26:05Z</time>
      </trkpt>
      <trkpt lat="60.1598205566" lon="15.5090179443">
        <ele>0</ele>
        <time>2013-05-01T12:26:06Z</time>
      </trkpt>
      <trkpt lat="60.1597900391" lon="15.509188652">
        <ele>0</ele>
        <time>2013-05-01T12:26:07Z</time>
      </trkpt>
      <trkpt lat="60.1596603394" lon="15.5097074509">
        <ele>0</ele>
        <time>2013-05-01T12:26:11Z</time>
      </trkpt>
      <trkpt lat="60.1596298218" lon="15.5098209381">
        <ele>0</ele>
        <time>2013-05-01T12:26:12Z</time>
      </trkpt>
      <trkpt lat="60.1595954895" lon="15.5099411011">
        <ele>0</ele>
        <time>2013-05-01T12:26:13Z</time>
      </trkpt>
      <trkpt lat="60.1594963074" lon="15.5103025436">
        <ele>0</ele>
        <time>2013-05-01T12:26:16Z</time>
      </trkpt>
      <trkpt lat="60.1594657898" lon="15.5104084015">
        <ele>0</ele>
        <time>2013-05-01T12:26:17Z</time>
      </trkpt>
      <trkpt lat="60.1594352722" lon="15.5104970932">
        <ele>0</ele>
        <time>2013-05-01T12:26:18Z</time>
      </trkpt>
      <trkpt lat="60.1593933105" lon="15.5106487274">
        <ele>0</ele>
        <time>2013-05-01T12:26:19Z</time>
      </trkpt>
      <trkpt lat="60.1593589783" lon="15.5107622147">
        <ele>0</ele>
        <time>2013-05-01T12:26:20Z</time>
      </trkpt>
      <trkpt lat="60.159324646" lon="15.5108880997">
        <ele>0</ele>
        <time>2013-05-01T12:26:21Z</time>
      </trkpt>
      <trkpt lat="60.1592597961" lon="15.5111083984">
        <ele>0</ele>
        <time>2013-05-01T12:26:23Z</time>
      </trkpt>
      <trkpt lat="60.1591300964" lon="15.5115747452">
        <ele>0</ele>
        <time>2013-05-01T12:26:27Z</time>
      </trkpt>
      <trkpt lat="60.1590461731" lon="15.5118789673">
        <ele>0</ele>
        <time>2013-05-01T12:26:30Z</time>
      </trkpt>
      <trkpt lat="60.1590042114" lon="15.5120315552">
        <ele>0</ele>
        <time>2013-05-01T12:26:31Z</time>
      </trkpt>
      <trkpt lat="60.1589126587" lon="15.5123329163">
        <ele>0</ele>
        <time>2013-05-01T12:26:34Z</time>
      </trkpt>
      <trkpt lat="60.1588668823" lon="15.5124864578">
        <ele>0</ele>
        <time>2013-05-01T12:26:35Z</time>
      </trkpt>
      <trkpt lat="60.1588363647" lon="15.5126218796">
        <ele>0</ele>
        <time>2013-05-01T12:26:36Z</time>
      </trkpt>
      <trkpt lat="60.1588058472" lon="15.5127334595">
        <ele>0</ele>
        <time>2013-05-01T12:26:37Z</time>
      </trkpt>
      <trkpt lat="60.1587791443" lon="15.5128288269">
        <ele>0</ele>
        <time>2013-05-01T12:26:38Z</time>
      </trkpt>
      <trkpt lat="60.1587371826" lon="15.5130081177">
        <ele>0</ele>
        <time>2013-05-01T12:26:39Z</time>
      </trkpt>
      <trkpt lat="60.1587028503" lon="15.5131416321">
        <ele>0</ele>
        <time>2013-05-01T12:26:40Z</time>
      </trkpt>
      <trkpt lat="60.1586647034" lon="15.5132780075">
        <ele>0</ele>
        <time>2013-05-01T12:26:41Z</time>
      </trkpt>
      <trkpt lat="60.1585884094" lon="15.5135889053">
        <ele>0</ele>
        <time>2013-05-01T12:26:43Z</time>
      </trkpt>
      <trkpt lat="60.1585502625" lon="15.5137519836">
        <ele>0</ele>
        <time>2013-05-01T12:26:44Z</time>
      </trkpt>
      <trkpt lat="60.1585159302" lon="15.5139055252">
        <ele>0</ele>
        <time>2013-05-01T12:26:45Z</time>
      </trkpt>
      <trkpt lat="60.1584892273" lon="15.5140190125">
        <ele>0</ele>
        <time>2013-05-01T12:26:46Z</time>
      </trkpt>
      <trkpt lat="60.1584358215" lon="15.5142307281">
        <ele>0</ele>
        <time>2013-05-01T12:26:47Z</time>
      </trkpt>
      <trkpt lat="60.1583938599" lon="15.514415741">
        <ele>0</ele>
        <time>2013-05-01T12:26:48Z</time>
      </trkpt>
      <trkpt lat="60.1583518982" lon="15.5145864487">
        <ele>0</ele>
        <time>2013-05-01T12:26:49Z</time>
      </trkpt>
      <trkpt lat="60.1581611633" lon="15.5153532028">
        <ele>0</ele>
        <time>2013-05-01T12:26:54Z</time>
      </trkpt>
      <trkpt lat="60.1580543518" lon="15.5156965256">
        <ele>0</ele>
        <time>2013-05-01T12:26:56Z</time>
      </trkpt>
      <trkpt lat="60.1580047607" lon="15.5158252716">
        <ele>0</ele>
        <time>2013-05-01T12:26:57Z</time>
      </trkpt>
      <trkpt lat="60.1579704285" lon="15.5159158707">
        <ele>0</ele>
        <time>2013-05-01T12:26:58Z</time>
      </trkpt>
      <trkpt lat="60.1578979492" lon="15.5160970688">
        <ele>0</ele>
        <time>2013-05-01T12:26:59Z</time>
      </trkpt>
      <trkpt lat="60.1578483582" lon="15.5162248611">
        <ele>0</ele>
        <time>2013-05-01T12:27:00Z</time>
      </trkpt>
      <trkpt lat="60.1577949524" lon="15.5163440704">
        <ele>0</ele>
        <time>2013-05-01T12:27:01Z</time>
      </trkpt>
      <trkpt lat="60.1577606201" lon="15.5164136887">
        <ele>0</ele>
        <time>2013-05-01T12:27:02Z</time>
      </trkpt>
      <trkpt lat="60.1576843262" lon="15.5165758133">
        <ele>0</ele>
        <time>2013-05-01T12:27:03Z</time>
      </trkpt>
      <trkpt lat="60.1576461792" lon="15.5166540146">
        <ele>0</ele>
        <time>2013-05-01T12:27:04Z</time>
      </trkpt>
      <trkpt lat="60.1575317383" lon="15.5168886185">
        <ele>0</ele>
        <time>2013-05-01T12:27:06Z</time>
      </trkpt>
      <trkpt lat="60.1574554443" lon="15.517039299">
        <ele>0</ele>
        <time>2013-05-01T12:27:07Z</time>
      </trkpt>
      <trkpt lat="60.1573982239" lon="15.5171670914">
        <ele>0</ele>
        <time>2013-05-01T12:27:08Z</time>
      </trkpt>
      <trkpt lat="60.157283783" lon="15.5173921585">
        <ele>0</ele>
        <time>2013-05-01T12:27:10Z</time>
      </trkpt>
      <trkpt lat="60.1572227478" lon="15.5175075531">
        <ele>0</ele>
        <time>2013-05-01T12:27:11Z</time>
      </trkpt>
      <trkpt lat="60.157169342" lon="15.5176229477">
        <ele>0</ele>
        <time>2013-05-01T12:27:12Z</time>
      </trkpt>
      <trkpt lat="60.1569213867" lon="15.518122673">
        <ele>0</ele>
        <time>2013-05-01T12:27:16Z</time>
      </trkpt>
      <trkpt lat="60.1566848755" lon="15.5186080933">
        <ele>0</ele>
        <time>2013-05-01T12:27:20Z</time>
      </trkpt>
      <trkpt lat="60.1566238403" lon="15.5187301636">
        <ele>0</ele>
        <time>2013-05-01T12:27:21Z</time>
      </trkpt>
      <trkpt lat="60.1563606262" lon="15.5193109512">
        <ele>0</ele>
        <time>2013-05-01T12:27:26Z</time>
      </trkpt>
      <trkpt lat="60.156047821" lon="15.520157814">
        <ele>0</ele>
        <time>2013-05-01T12:27:32Z</time>
      </trkpt>
      <trkpt lat="60.1559944153" lon="15.5203075409">
        <ele>0</ele>
        <time>2013-05-01T12:27:33Z</time>
      </trkpt>
      <trkpt lat="60.1559677124" lon="15.5203933716">
        <ele>0</ele>
        <time>2013-05-01T12:27:34Z</time>
      </trkpt>
      <trkpt lat="60.1559066772" lon="15.520573616">
        <ele>0</ele>
        <time>2013-05-01T12:27:35Z</time>
      </trkpt>
      <trkpt lat="60.1558532715" lon="15.5207233429">
        <ele>0</ele>
        <time>2013-05-01T12:27:36Z</time>
      </trkpt>
      <trkpt lat="60.1558074951" lon="15.5208539963">
        <ele>0</ele>
        <time>2013-05-01T12:27:37Z</time>
      </trkpt>
      <trkpt lat="60.1557731628" lon="15.5209608078">
        <ele>0</ele>
        <time>2013-05-01T12:27:38Z</time>
      </trkpt>
      <trkpt lat="60.1557044983" lon="15.5211458206">
        <ele>0</ele>
        <time>2013-05-01T12:27:39Z</time>
      </trkpt>
      <trkpt lat="60.1556510925" lon="15.521282196">
        <ele>0</ele>
        <time>2013-05-01T12:27:40Z</time>
      </trkpt>
      <trkpt lat="60.1555633545" lon="15.5214939117">
        <ele>0</ele>
        <time>2013-05-01T12:27:42Z</time>
      </trkpt>
      <trkpt lat="60.1553077698" lon="15.521982193">
        <ele>0</ele>
        <time>2013-05-01T12:27:46Z</time>
      </trkpt>
      <trkpt lat="60.1552314758" lon="15.5221147537">
        <ele>0</ele>
        <time>2013-05-01T12:27:47Z</time>
      </trkpt>
      <trkpt lat="60.1551589966" lon="15.5222272873">
        <ele>0</ele>
        <time>2013-05-01T12:27:48Z</time>
      </trkpt>
      <trkpt lat="60.155090332" lon="15.5223197937">
        <ele>0</ele>
        <time>2013-05-01T12:27:49Z</time>
      </trkpt>
      <trkpt lat="60.1550559998" lon="15.522362709">
        <ele>0</ele>
        <time>2013-05-01T12:27:50Z</time>
      </trkpt>
      <trkpt lat="60.1549530029" lon="15.5224981308">
        <ele>0</ele>
        <time>2013-05-01T12:27:51Z</time>
      </trkpt>
      <trkpt lat="60.1548919678" lon="15.5225696564">
        <ele>0</ele>
        <time>2013-05-01T12:27:52Z</time>
      </trkpt>
      <trkpt lat="60.1548194885" lon="15.5226507187">
        <ele>0</ele>
        <time>2013-05-01T12:27:53Z</time>
      </trkpt>
      <trkpt lat="60.1547660828" lon="15.5227003098">
        <ele>0</ele>
        <time>2013-05-01T12:27:54Z</time>
      </trkpt>
      <trkpt lat="60.1546783447" lon="15.5227890015">
        <ele>0</ele>
        <time>2013-05-01T12:27:55Z</time>
      </trkpt>
      <trkpt lat="60.1546020508" lon="15.5228509903">
        <ele>0</ele>
        <time>2013-05-01T12:27:56Z</time>
      </trkpt>
      <trkpt lat="60.1545372009" lon="15.522901535">
        <ele>0</ele>
        <time>2013-05-01T12:27:57Z</time>
      </trkpt>
      <trkpt lat="60.1544914246" lon="15.5229387283">
        <ele>0</ele>
        <time>2013-05-01T12:27:58Z</time>
      </trkpt>
      <trkpt lat="60.1543273926" lon="15.5230484009">
        <ele>0</ele>
        <time>2013-05-01T12:28:00Z</time>
      </trkpt>
      <trkpt lat="60.1542472839" lon="15.5230951309">
        <ele>0</ele>
        <time>2013-05-01T12:28:01Z</time>
      </trkpt>
      <trkpt lat="60.1541023254" lon="15.5231599808">
        <ele>0</ele>
        <time>2013-05-01T12:28:03Z</time>
      </trkpt>
      <trkpt lat="60.1540222168" lon="15.5231876373">
        <ele>0</ele>
        <time>2013-05-01T12:28:04Z</time>
      </trkpt>
      <trkpt lat="60.1539497375" lon="15.5232067108">
        <ele>0</ele>
        <time>2013-05-01T12:28:05Z</time>
      </trkpt>
      <trkpt lat="60.1537971497" lon="15.5232410431">
        <ele>0</ele>
        <time>2013-05-01T12:28:07Z</time>
      </trkpt>
      <trkpt lat="60.1534957886" lon="15.5232381821">
        <ele>0</ele>
        <time>2013-05-01T12:28:11Z</time>
      </trkpt>
      <trkpt lat="60.1534194946" lon="15.523226738">
        <ele>0</ele>
        <time>2013-05-01T12:28:12Z</time>
      </trkpt>
      <trkpt lat="60.153339386" lon="15.5232076645">
        <ele>0</ele>
        <time>2013-05-01T12:28:13Z</time>
      </trkpt>
      <trkpt lat="60.1532897949" lon="15.5231952667">
        <ele>0</ele>
        <time>2013-05-01T12:28:14Z</time>
      </trkpt>
      <trkpt lat="60.1531906128" lon="15.5231742859">
        <ele>0</ele>
        <time>2013-05-01T12:28:15Z</time>
      </trkpt>
      <trkpt lat="60.1531105042" lon="15.5231533051">
        <ele>0</ele>
        <time>2013-05-01T12:28:16Z</time>
      </trkpt>
      <trkpt lat="60.1530456543" lon="15.5231266022">
        <ele>0</ele>
        <time>2013-05-01T12:28:17Z</time>
      </trkpt>
      <trkpt lat="60.1529884338" lon="15.5231075287">
        <ele>0</ele>
        <time>2013-05-01T12:28:18Z</time>
      </trkpt>
      <trkpt lat="60.152885437" lon="15.5230798721">
        <ele>0</ele>
        <time>2013-05-01T12:28:19Z</time>
      </trkpt>
      <trkpt lat="60.1528167725" lon="15.5230579376">
        <ele>0</ele>
        <time>2013-05-01T12:28:20Z</time>
      </trkpt>
      <trkpt lat="60.1527366638" lon="15.5230340958">
        <ele>0</ele>
        <time>2013-05-01T12:28:21Z</time>
      </trkpt>
      <trkpt lat="60.15259552" lon="15.5229930878">
        <ele>0</ele>
        <time>2013-05-01T12:28:23Z</time>
      </trkpt>
      <trkpt lat="60.1525154114" lon="15.5229692459">
        <ele>0</ele>
        <time>2013-05-01T12:28:24Z</time>
      </trkpt>
      <trkpt lat="60.1524467468" lon="15.5229434967">
        <ele>0</ele>
        <time>2013-05-01T12:28:25Z</time>
      </trkpt>
      <trkpt lat="60.1522216797" lon="15.5228748322">
        <ele>0</ele>
        <time>2013-05-01T12:28:28Z</time>
      </trkpt>
      <trkpt lat="60.1521492004" lon="15.5228490829">
        <ele>0</ele>
        <time>2013-05-01T12:28:29Z</time>
      </trkpt>
      <trkpt lat="60.1521034241" lon="15.5228328705">
        <ele>0</ele>
        <time>2013-05-01T12:28:30Z</time>
      </trkpt>
      <trkpt lat="60.1520004272" lon="15.5227956772">
        <ele>0</ele>
        <time>2013-05-01T12:28:31Z</time>
      </trkpt>
      <trkpt lat="60.1519317627" lon="15.522778511">
        <ele>0</ele>
        <time>2013-05-01T12:28:32Z</time>
      </trkpt>
      <trkpt lat="60.1514129639" lon="15.5226106644">
        <ele>0</ele>
        <time>2013-05-01T12:28:39Z</time>
      </trkpt>
      <trkpt lat="60.1509590149" lon="15.5224676132">
        <ele>0</ele>
        <time>2013-05-01T12:28:45Z</time>
      </trkpt>
      <trkpt lat="60.1509056091" lon="15.5224494934">
        <ele>0</ele>
        <time>2013-05-01T12:28:46Z</time>
      </trkpt>
      <trkpt lat="60.1508102417" lon="15.5224227905">
        <ele>0</ele>
        <time>2013-05-01T12:28:47Z</time>
      </trkpt>
      <trkpt lat="60.1507263184" lon="15.5223960876">
        <ele>0</ele>
        <time>2013-05-01T12:28:48Z</time>
      </trkpt>
      <trkpt lat="60.1506614685" lon="15.5223751068">
        <ele>0</ele>
        <time>2013-05-01T12:28:49Z</time>
      </trkpt>
      <trkpt lat="60.150604248" lon="15.5223550797">
        <ele>0</ele>
        <time>2013-05-01T12:28:50Z</time>
      </trkpt>
      <trkpt lat="60.1504974365" lon="15.5223207474">
        <ele>0</ele>
        <time>2013-05-01T12:28:51Z</time>
      </trkpt>
      <trkpt lat="60.1504249573" lon="15.5222988129">
        <ele>0</ele>
        <time>2013-05-01T12:28:52Z</time>
      </trkpt>
      <trkpt lat="60.1503982544" lon="15.5222892761">
        <ele>0</ele>
        <time>2013-05-01T12:28:53Z</time>
      </trkpt>
      <trkpt lat="60.1501121521" lon="15.5221967697">
        <ele>0</ele>
        <time>2013-05-01T12:28:56Z</time>
      </trkpt>
      <trkpt lat="60.1500434875" lon="15.5221748352">
        <ele>0</ele>
        <time>2013-05-01T12:28:57Z</time>
      </trkpt>
      <trkpt lat="60.1498069763" lon="15.522102356">
        <ele>0</ele>
        <time>2013-05-01T12:29:00Z</time>
      </trkpt>
      <trkpt lat="60.149723053" lon="15.5220756531">
        <ele>0</ele>
        <time>2013-05-01T12:29:01Z</time>
      </trkpt>
      <trkpt lat="60.1494979858" lon="15.5220060349">
        <ele>0</ele>
        <time>2013-05-01T12:29:04Z</time>
      </trkpt>
      <trkpt lat="60.1494255066" lon="15.521979332">
        <ele>0</ele>
        <time>2013-05-01T12:29:05Z</time>
      </trkpt>
      <trkpt lat="60.149105072" lon="15.5218954086">
        <ele>0</ele>
        <time>2013-05-01T12:29:09Z</time>
      </trkpt>
      <trkpt lat="60.1489524841" lon="15.5218429565">
        <ele>0</ele>
        <time>2013-05-01T12:29:11Z</time>
      </trkpt>
      <trkpt lat="60.1488761902" lon="15.5218086243">
        <ele>0</ele>
        <time>2013-05-01T12:29:12Z</time>
      </trkpt>
      <trkpt lat="60.1487846375" lon="15.5217676163">
        <ele>0</ele>
        <time>2013-05-01T12:29:13Z</time>
      </trkpt>
      <trkpt lat="60.1487350464" lon="15.5217428207">
        <ele>0</ele>
        <time>2013-05-01T12:29:14Z</time>
      </trkpt>
      <trkpt lat="60.1486244202" lon="15.5216817856">
        <ele>0</ele>
        <time>2013-05-01T12:29:15Z</time>
      </trkpt>
      <trkpt lat="60.1485366821" lon="15.5216321945">
        <ele>0</ele>
        <time>2013-05-01T12:29:16Z</time>
      </trkpt>
      <trkpt lat="60.1483955383" lon="15.5215387344">
        <ele>0</ele>
        <time>2013-05-01T12:29:18Z</time>
      </trkpt>
      <trkpt lat="60.1482772827" lon="15.5214633942">
        <ele>0</ele>
        <time>2013-05-01T12:29:19Z</time>
      </trkpt>
      <trkpt lat="60.1481933594" lon="15.5214042664">
        <ele>0</ele>
        <time>2013-05-01T12:29:20Z</time>
      </trkpt>
      <trkpt lat="60.1481018066" lon="15.5213356018">
        <ele>0</ele>
        <time>2013-05-01T12:29:21Z</time>
      </trkpt>
      <trkpt lat="60.148059845" lon="15.5213050842">
        <ele>0</ele>
        <time>2013-05-01T12:29:22Z</time>
      </trkpt>
      <trkpt lat="60.1479263306" lon="15.5212097168">
        <ele>0</ele>
        <time>2013-05-01T12:29:23Z</time>
      </trkpt>
      <trkpt lat="60.1478271484" lon="15.5211410522">
        <ele>0</ele>
        <time>2013-05-01T12:29:24Z</time>
      </trkpt>
      <trkpt lat="60.1477355957" lon="15.5210781097">
        <ele>0</ele>
        <time>2013-05-01T12:29:25Z</time>
      </trkpt>
      <trkpt lat="60.1476745605" lon="15.5210342407">
        <ele>0</ele>
        <time>2013-05-01T12:29:26Z</time>
      </trkpt>
      <trkpt lat="60.1475563049" lon="15.5209512711">
        <ele>0</ele>
        <time>2013-05-01T12:29:27Z</time>
      </trkpt>
      <trkpt lat="60.1473693848" lon="15.520816803">
        <ele>0</ele>
        <time>2013-05-01T12:29:29Z</time>
      </trkpt>
      <trkpt lat="60.147277832" lon="15.5207519531">
        <ele>0</ele>
        <time>2013-05-01T12:29:30Z</time>
      </trkpt>
      <trkpt lat="60.1469993591" lon="15.5205669403">
        <ele>0</ele>
        <time>2013-05-01T12:29:33Z</time>
      </trkpt>
      <trkpt lat="60.1469459534" lon="15.5205287933">
        <ele>0</ele>
        <time>2013-05-01T12:29:34Z</time>
      </trkpt>
      <trkpt lat="60.1468315125" lon="15.5204486847">
        <ele>0</ele>
        <time>2013-05-01T12:29:35Z</time>
      </trkpt>
      <trkpt lat="60.1466560364" lon="15.5203428268">
        <ele>0</ele>
        <time>2013-05-01T12:29:37Z</time>
      </trkpt>
      <trkpt lat="60.1463279724" lon="15.5201921463">
        <ele>0</ele>
        <time>2013-05-01T12:29:41Z</time>
      </trkpt>
      <trkpt lat="60.1459388733" lon="15.520111084">
        <ele>0</ele>
        <time>2013-05-01T12:29:46Z</time>
      </trkpt>
      <trkpt lat="60.1458358765" lon="15.5200958252">
        <ele>0</ele>
        <time>2013-05-01T12:29:47Z</time>
      </trkpt>
      <trkpt lat="60.1457366943" lon="15.5200805664">
        <ele>0</ele>
        <time>2013-05-01T12:29:48Z</time>
      </trkpt>
      <trkpt lat="60.145652771" lon="15.520070076">
        <ele>0</ele>
        <time>2013-05-01T12:29:49Z</time>
      </trkpt>
      <trkpt lat="60.1456031799" lon="15.520067215">
        <ele>0</ele>
        <time>2013-05-01T12:29:50Z</time>
      </trkpt>
      <trkpt lat="60.1451683044" lon="15.5200195312">
        <ele>0</ele>
        <time>2013-05-01T12:29:55Z</time>
      </trkpt>
      <trkpt lat="60.1449546814" lon="15.5200042725">
        <ele>0</ele>
        <time>2013-05-01T12:29:58Z</time>
      </trkpt>
      <trkpt lat="60.1444702148" lon="15.519949913">
        <ele>0</ele>
        <time>2013-05-01T12:30:04Z</time>
      </trkpt>
      <trkpt lat="60.1444015503" lon="15.519947052">
        <ele>0</ele>
        <time>2013-05-01T12:30:05Z</time>
      </trkpt>
      <trkpt lat="60.1443519592" lon="15.5199422836">
        <ele>0</ele>
        <time>2013-05-01T12:30:06Z</time>
      </trkpt>
      <trkpt lat="60.1442642212" lon="15.5199308395">
        <ele>0</ele>
        <time>2013-05-01T12:30:07Z</time>
      </trkpt>
      <trkpt lat="60.1441993713" lon="15.5199260712">
        <ele>0</ele>
        <time>2013-05-01T12:30:08Z</time>
      </trkpt>
      <trkpt lat="60.1441078186" lon="15.5199155807">
        <ele>0</ele>
        <time>2013-05-01T12:30:10Z</time>
      </trkpt>
      <trkpt lat="60.14402771" lon="15.5199041367">
        <ele>0</ele>
        <time>2013-05-01T12:30:11Z</time>
      </trkpt>
      <trkpt lat="60.1439781189" lon="15.5198974609">
        <ele>0</ele>
        <time>2013-05-01T12:30:12Z</time>
      </trkpt>
      <trkpt lat="60.1439170837" lon="15.5198888779">
        <ele>0</ele>
        <time>2013-05-01T12:30:13Z</time>
      </trkpt>
      <trkpt lat="60.1438026428" lon="15.5198831558">
        <ele>0</ele>
        <time>2013-05-01T12:30:15Z</time>
      </trkpt>
      <trkpt lat="60.143737793" lon="15.5198774338">
        <ele>0</ele>
        <time>2013-05-01T12:30:16Z</time>
      </trkpt>
      <trkpt lat="60.1434440613" lon="15.5198497772">
        <ele>0</ele>
        <time>2013-05-01T12:30:21Z</time>
      </trkpt>
      <trkpt lat="60.1434059143" lon="15.5198450089">
        <ele>0</ele>
        <time>2013-05-01T12:30:22Z</time>
      </trkpt>
      <trkpt lat="60.1433258057" lon="15.5198373795">
        <ele>0</ele>
        <time>2013-05-01T12:30:23Z</time>
      </trkpt>
      <trkpt lat="60.1432571411" lon="15.5198345184">
        <ele>0</ele>
        <time>2013-05-01T12:30:24Z</time>
      </trkpt>
      <trkpt lat="60.143196106" lon="15.5198307037">
        <ele>0</ele>
        <time>2013-05-01T12:30:25Z</time>
      </trkpt>
      <trkpt lat="60.1431503296" lon="15.5198278427">
        <ele>0</ele>
        <time>2013-05-01T12:30:26Z</time>
      </trkpt>
      <trkpt lat="60.1430625916" lon="15.519818306">
        <ele>0</ele>
        <time>2013-05-01T12:30:27Z</time>
      </trkpt>
      <trkpt lat="60.1429901123" lon="15.5198087692">
        <ele>0</ele>
        <time>2013-05-01T12:30:28Z</time>
      </trkpt>
      <trkpt lat="60.1429176331" lon="15.5197992325">
        <ele>0</ele>
        <time>2013-05-01T12:30:29Z</time>
      </trkpt>
      <trkpt lat="60.1428756714" lon="15.5197954178">
        <ele>0</ele>
        <time>2013-05-01T12:30:30Z</time>
      </trkpt>
      <trkpt lat="60.1427688599" lon="15.5197877884">
        <ele>0</ele>
        <time>2013-05-01T12:30:31Z</time>
      </trkpt>
      <trkpt lat="60.142364502" lon="15.5197849274">
        <ele>0</ele>
        <time>2013-05-01T12:30:36Z</time>
      </trkpt>
      <trkpt lat="60.142288208" lon="15.5197944641">
        <ele>0</ele>
        <time>2013-05-01T12:30:37Z</time>
      </trkpt>
      <trkpt lat="60.1422309875" lon="15.5198163986">
        <ele>0</ele>
        <time>2013-05-01T12:30:38Z</time>
      </trkpt>
      <trkpt lat="60.1421279907" lon="15.5198745728">
        <ele>0</ele>
        <time>2013-05-01T12:30:39Z</time>
      </trkpt>
      <trkpt lat="60.1420555115" lon="15.5199317932">
        <ele>0</ele>
        <time>2013-05-01T12:30:40Z</time>
      </trkpt>
      <trkpt lat="60.1419792175" lon="15.5200071335">
        <ele>0</ele>
        <time>2013-05-01T12:30:41Z</time>
      </trkpt>
      <trkpt lat="60.1418533325" lon="15.5201921463">
        <ele>0</ele>
        <time>2013-05-01T12:30:43Z</time>
      </trkpt>
      <trkpt lat="60.1417961121" lon="15.520316124">
        <ele>0</ele>
        <time>2013-05-01T12:30:44Z</time>
      </trkpt>
      <trkpt lat="60.141746521" lon="15.5204334259">
        <ele>0</ele>
        <time>2013-05-01T12:30:45Z</time>
      </trkpt>
      <trkpt lat="60.141620636" lon="15.5208415985">
        <ele>0</ele>
        <time>2013-05-01T12:30:48Z</time>
      </trkpt>
      <trkpt lat="60.1415939331" lon="15.5209846497">
        <ele>0</ele>
        <time>2013-05-01T12:30:49Z</time>
      </trkpt>
      <trkpt lat="60.1415100098" lon="15.5215921402">
        <ele>0</ele>
        <time>2013-05-01T12:30:53Z</time>
      </trkpt>
      <trkpt lat="60.1414985657" lon="15.5216960907">
        <ele>0</ele>
        <time>2013-05-01T12:30:54Z</time>
      </trkpt>
      <trkpt lat="60.1414527893" lon="15.5222015381">
        <ele>0</ele>
        <time>2013-05-01T12:30:57Z</time>
      </trkpt>
      <trkpt lat="60.1414413452" lon="15.522310257">
        <ele>0</ele>
        <time>2013-05-01T12:30:58Z</time>
      </trkpt>
      <trkpt lat="60.1414222717" lon="15.5225133896">
        <ele>0</ele>
        <time>2013-05-01T12:30:59Z</time>
      </trkpt>
      <trkpt lat="60.1414108276" lon="15.5226726532">
        <ele>0</ele>
        <time>2013-05-01T12:31:00Z</time>
      </trkpt>
      <trkpt lat="60.1413879395" lon="15.5228891373">
        <ele>0</ele>
        <time>2013-05-01T12:31:02Z</time>
      </trkpt>
      <trkpt lat="60.141368866" lon="15.5230922699">
        <ele>0</ele>
        <time>2013-05-01T12:31:03Z</time>
      </trkpt>
      <trkpt lat="60.1413536072" lon="15.5232305527">
        <ele>0</ele>
        <time>2013-05-01T12:31:04Z</time>
      </trkpt>
      <trkpt lat="60.1413383484" lon="15.5233440399">
        <ele>0</ele>
        <time>2013-05-01T12:31:05Z</time>
      </trkpt>
      <trkpt lat="60.1413269043" lon="15.5234308243">
        <ele>0</ele>
        <time>2013-05-01T12:31:06Z</time>
      </trkpt>
      <trkpt lat="60.1413002014" lon="15.5235738754">
        <ele>0</ele>
        <time>2013-05-01T12:31:07Z</time>
      </trkpt>
      <trkpt lat="60.1412811279" lon="15.5236940384">
        <ele>0</ele>
        <time>2013-05-01T12:31:08Z</time>
      </trkpt>
      <trkpt lat="60.1412582397" lon="15.5238008499">
        <ele>0</ele>
        <time>2013-05-01T12:31:09Z</time>
      </trkpt>
      <trkpt lat="60.141242981" lon="15.52384758">
        <ele>0</ele>
        <time>2013-05-01T12:31:10Z</time>
      </trkpt>
      <trkpt lat="60.1412010193" lon="15.5239973068">
        <ele>0</ele>
        <time>2013-05-01T12:31:11Z</time>
      </trkpt>
      <trkpt lat="60.14112854" lon="15.5241823196">
        <ele>0</ele>
        <time>2013-05-01T12:31:13Z</time>
      </trkpt>
      <trkpt lat="60.1409950256" lon="15.5244379044">
        <ele>0</ele>
        <time>2013-05-01T12:31:16Z</time>
      </trkpt>
      <trkpt lat="60.1409454346" lon="15.5245065689">
        <ele>0</ele>
        <time>2013-05-01T12:31:17Z</time>
      </trkpt>
      <trkpt lat="60.1408996582" lon="15.52455616">
        <ele>0</ele>
        <time>2013-05-01T12:31:18Z</time>
      </trkpt>
      <trkpt lat="60.1406898499" lon="15.5247488022">
        <ele>0</ele>
        <time>2013-05-01T12:31:21Z</time>
      </trkpt>
      <trkpt lat="60.1406593323" lon="15.5247716904">
        <ele>0</ele>
        <time>2013-05-01T12:31:22Z</time>
      </trkpt>
      <trkpt lat="60.1405677795" lon="15.5248498917">
        <ele>0</ele>
        <time>2013-05-01T12:31:23Z</time>
      </trkpt>
      <trkpt lat="60.1404953003" lon="15.5249166489">
        <ele>0</ele>
        <time>2013-05-01T12:31:24Z</time>
      </trkpt>
      <trkpt lat="60.1404342651" lon="15.524974823">
        <ele>0</ele>
        <time>2013-05-01T12:31:25Z</time>
      </trkpt>
      <trkpt lat="60.1403961182" lon="15.5250167847">
        <ele>0</ele>
        <time>2013-05-01T12:31:26Z</time>
      </trkpt>
      <trkpt lat="60.1403198242" lon="15.5251064301">
        <ele>0</ele>
        <time>2013-05-01T12:31:27Z</time>
      </trkpt>
      <trkpt lat="60.1401901245" lon="15.5252552032">
        <ele>0</ele>
        <time>2013-05-01T12:31:29Z</time>
      </trkpt>
      <trkpt lat="60.1401443481" lon="15.5253143311">
        <ele>0</ele>
        <time>2013-05-01T12:31:30Z</time>
      </trkpt>
      <trkpt lat="60.1399879456" lon="15.5255308151">
        <ele>0</ele>
        <time>2013-05-01T12:31:32Z</time>
      </trkpt>
      <trkpt lat="60.1399078369" lon="15.525639534">
        <ele>0</ele>
        <time>2013-05-01T12:31:33Z</time>
      </trkpt>
      <trkpt lat="60.1397705078" lon="15.5258312225">
        <ele>0</ele>
        <time>2013-05-01T12:31:35Z</time>
      </trkpt>
      <trkpt lat="60.1396980286" lon="15.5259304047">
        <ele>0</ele>
        <time>2013-05-01T12:31:36Z</time>
      </trkpt>
      <trkpt lat="60.1396369934" lon="15.5260133743">
        <ele>0</ele>
        <time>2013-05-01T12:31:37Z</time>
      </trkpt>
      <trkpt lat="60.1394958496" lon="15.5262060165">
        <ele>0</ele>
        <time>2013-05-01T12:31:39Z</time>
      </trkpt>
      <trkpt lat="60.1394271851" lon="15.5263051987">
        <ele>0</ele>
        <time>2013-05-01T12:31:40Z</time>
      </trkpt>
      <trkpt lat="60.1393585205" lon="15.5264205933">
        <ele>0</ele>
        <time>2013-05-01T12:31:41Z</time>
      </trkpt>
      <trkpt lat="60.1393127441" lon="15.5265140533">
        <ele>0</ele>
        <time>2013-05-01T12:31:42Z</time>
      </trkpt>
      <trkpt lat="60.1392250061" lon="15.5267133713">
        <ele>0</ele>
        <time>2013-05-01T12:31:43Z</time>
      </trkpt>
      <trkpt lat="60.1391792297" lon="15.5268735886">
        <ele>0</ele>
        <time>2013-05-01T12:31:44Z</time>
      </trkpt>
      <trkpt lat="60.1391448975" lon="15.5270261765">
        <ele>0</ele>
        <time>2013-05-01T12:31:45Z</time>
      </trkpt>
      <trkpt lat="60.1391220093" lon="15.5271368027">
        <ele>0</ele>
        <time>2013-05-01T12:31:46Z</time>
      </trkpt>
      <trkpt lat="60.139087677" lon="15.5273284912">
        <ele>0</ele>
        <time>2013-05-01T12:31:47Z</time>
      </trkpt>
      <trkpt lat="60.1390609741" lon="15.5274782181">
        <ele>0</ele>
        <time>2013-05-01T12:31:48Z</time>
      </trkpt>
      <trkpt lat="60.1390342712" lon="15.5276269913">
        <ele>0</ele>
        <time>2013-05-01T12:31:49Z</time>
      </trkpt>
      <trkpt lat="60.1390228271" lon="15.5277051926">
        <ele>0</ele>
        <time>2013-05-01T12:31:50Z</time>
      </trkpt>
      <trkpt lat="60.1389923096" lon="15.527885437">
        <ele>0</ele>
        <time>2013-05-01T12:31:51Z</time>
      </trkpt>
      <trkpt lat="60.1389656067" lon="15.5280056">
        <ele>0</ele>
        <time>2013-05-01T12:31:52Z</time>
      </trkpt>
      <trkpt lat="60.138923645" lon="15.5281333923">
        <ele>0</ele>
        <time>2013-05-01T12:31:53Z</time>
      </trkpt>
      <trkpt lat="60.1388511658" lon="15.528345108">
        <ele>0</ele>
        <time>2013-05-01T12:31:55Z</time>
      </trkpt>
      <trkpt lat="60.1386222839" lon="15.5288114548">
        <ele>0</ele>
        <time>2013-05-01T12:31:59Z</time>
      </trkpt>
      <trkpt lat="60.1385574341" lon="15.5289011002">
        <ele>0</ele>
        <time>2013-05-01T12:32:00Z</time>
      </trkpt>
      <trkpt lat="60.1384887695" lon="15.5289812088">
        <ele>0</ele>
        <time>2013-05-01T12:32:01Z</time>
      </trkpt>
      <trkpt lat="60.1381034851" lon="15.529458046">
        <ele>0</ele>
        <time>2013-05-01T12:32:07Z</time>
      </trkpt>
      <trkpt lat="60.1377792358" lon="15.5299215317">
        <ele>0</ele>
        <time>2013-05-01T12:32:12Z</time>
      </trkpt>
      <trkpt lat="60.1377067566" lon="15.5300350189">
        <ele>0</ele>
        <time>2013-05-01T12:32:13Z</time>
      </trkpt>
      <trkpt lat="60.1376647949" lon="15.5300998688">
        <ele>0</ele>
        <time>2013-05-01T12:32:14Z</time>
      </trkpt>
      <trkpt lat="60.1375732422" lon="15.530251503">
        <ele>0</ele>
        <time>2013-05-01T12:32:15Z</time>
      </trkpt>
      <trkpt lat="60.1374397278" lon="15.5304737091">
        <ele>0</ele>
        <time>2013-05-01T12:32:17Z</time>
      </trkpt>
      <trkpt lat="60.1373939514" lon="15.5305519104">
        <ele>0</ele>
        <time>2013-05-01T12:32:18Z</time>
      </trkpt>
      <trkpt lat="60.1373062134" lon="15.5307035446">
        <ele>0</ele>
        <time>2013-05-01T12:32:19Z</time>
      </trkpt>
      <trkpt lat="60.1372489929" lon="15.5308094025">
        <ele>0</ele>
        <time>2013-05-01T12:32:20Z</time>
      </trkpt>
      <trkpt lat="60.1371688843" lon="15.5309362411">
        <ele>0</ele>
        <time>2013-05-01T12:32:21Z</time>
      </trkpt>
      <trkpt lat="60.1370506287" lon="15.5311431885">
        <ele>0</ele>
        <time>2013-05-01T12:32:23Z</time>
      </trkpt>
      <trkpt lat="60.1369781494" lon="15.5312595367">
        <ele>0</ele>
        <time>2013-05-01T12:32:24Z</time>
      </trkpt>
      <trkpt lat="60.1369171143" lon="15.5313749313">
        <ele>0</ele>
        <time>2013-05-01T12:32:25Z</time>
      </trkpt>
      <trkpt lat="60.1367912292" lon="15.5315914154">
        <ele>0</ele>
        <time>2013-05-01T12:32:27Z</time>
      </trkpt>
      <trkpt lat="60.1367301941" lon="15.5317144394">
        <ele>0</ele>
        <time>2013-05-01T12:32:28Z</time>
      </trkpt>
      <trkpt lat="60.1366729736" lon="15.5318241119">
        <ele>0</ele>
        <time>2013-05-01T12:32:29Z</time>
      </trkpt>
      <trkpt lat="60.1365585327" lon="15.5320930481">
        <ele>0</ele>
        <time>2013-05-01T12:32:31Z</time>
      </trkpt>
      <trkpt lat="60.136505127" lon="15.5322275162">
        <ele>0</ele>
        <time>2013-05-01T12:32:32Z</time>
      </trkpt>
      <trkpt lat="60.1364593506" lon="15.5323705673">
        <ele>0</ele>
        <time>2013-05-01T12:32:33Z</time>
      </trkpt>
      <trkpt lat="60.1363449097" lon="15.532787323">
        <ele>0</ele>
        <time>2013-05-01T12:32:36Z</time>
      </trkpt>
      <trkpt lat="60.1362953186" lon="15.5330038071">
        <ele>0</ele>
        <time>2013-05-01T12:32:38Z</time>
      </trkpt>
      <trkpt lat="60.136264801" lon="15.5331983566">
        <ele>0</ele>
        <time>2013-05-01T12:32:39Z</time>
      </trkpt>
      <trkpt lat="60.1362304688" lon="15.5334558487">
        <ele>0</ele>
        <time>2013-05-01T12:32:41Z</time>
      </trkpt>
      <trkpt lat="60.1362190247" lon="15.5335521698">
        <ele>0</ele>
        <time>2013-05-01T12:32:42Z</time>
      </trkpt>
      <trkpt lat="60.1362113953" lon="15.5337324142">
        <ele>0</ele>
        <time>2013-05-01T12:32:43Z</time>
      </trkpt>
      <trkpt lat="60.1362228394" lon="15.5338640213">
        <ele>0</ele>
        <time>2013-05-01T12:32:44Z</time>
      </trkpt>
      <trkpt lat="60.1362266541" lon="15.5339899063">
        <ele>0</ele>
        <time>2013-05-01T12:32:45Z</time>
      </trkpt>
      <trkpt lat="60.1362342834" lon="15.5340766907">
        <ele>0</ele>
        <time>2013-05-01T12:32:46Z</time>
      </trkpt>
      <trkpt lat="60.1362533569" lon="15.5342445374">
        <ele>0</ele>
        <time>2013-05-01T12:32:47Z</time>
      </trkpt>
      <trkpt lat="60.1362800598" lon="15.5343914032">
        <ele>0</ele>
        <time>2013-05-01T12:32:48Z</time>
      </trkpt>
      <trkpt lat="60.136302948" lon="15.5345315933">
        <ele>0</ele>
        <time>2013-05-01T12:32:49Z</time>
      </trkpt>
      <trkpt lat="60.1363182068" lon="15.534611702">
        <ele>0</ele>
        <time>2013-05-01T12:32:50Z</time>
      </trkpt>
      <trkpt lat="60.1363563538" lon="15.534822464">
        <ele>0</ele>
        <time>2013-05-01T12:32:51Z</time>
      </trkpt>
      <trkpt lat="60.1363754272" lon="15.5349607468">
        <ele>0</ele>
        <time>2013-05-01T12:32:52Z</time>
      </trkpt>
      <trkpt lat="60.1364021301" lon="15.5351085663">
        <ele>0</ele>
        <time>2013-05-01T12:32:53Z</time>
      </trkpt>
      <trkpt lat="60.1364555359" lon="15.5354099274">
        <ele>0</ele>
        <time>2013-05-01T12:32:55Z</time>
      </trkpt>
      <trkpt lat="60.1364822388" lon="15.5355625153">
        <ele>0</ele>
        <time>2013-05-01T12:32:56Z</time>
      </trkpt>
      <trkpt lat="60.136505127" lon="15.5356998444">
        <ele>0</ele>
        <time>2013-05-01T12:32:57Z</time>
      </trkpt>
      <trkpt lat="60.1365737915" lon="15.5361528397">
        <ele>0</ele>
        <time>2013-05-01T12:33:00Z</time>
      </trkpt>
      <trkpt lat="60.1365966797" lon="15.536315918">
        <ele>0</ele>
        <time>2013-05-01T12:33:01Z</time>
      </trkpt>
      <trkpt lat="60.1366424561" lon="15.5366230011">
        <ele>0</ele>
        <time>2013-05-01T12:33:03Z</time>
      </trkpt>
      <trkpt lat="60.1366882324" lon="15.5369348526">
        <ele>0</ele>
        <time>2013-05-01T12:33:05Z</time>
      </trkpt>
      <trkpt lat="60.1366996765" lon="15.5370502472">
        <ele>0</ele>
        <time>2013-05-01T12:33:06Z</time>
      </trkpt>
      <trkpt lat="60.136756897" lon="15.5376729965">
        <ele>0</ele>
        <time>2013-05-01T12:33:10Z</time>
      </trkpt>
      <trkpt lat="60.1367683411" lon="15.5378913879">
        <ele>0</ele>
        <time>2013-05-01T12:33:11Z</time>
      </trkpt>
      <trkpt lat="60.1367874146" lon="15.5385150909">
        <ele>0</ele>
        <time>2013-05-01T12:33:15Z</time>
      </trkpt>
      <trkpt lat="60.1367874146" lon="15.5386762619">
        <ele>0</ele>
        <time>2013-05-01T12:33:16Z</time>
      </trkpt>
      <trkpt lat="60.1367874146" lon="15.5388174057">
        <ele>0</ele>
        <time>2013-05-01T12:33:17Z</time>
      </trkpt>
      <trkpt lat="60.1367835999" lon="15.538936615">
        <ele>0</ele>
        <time>2013-05-01T12:33:18Z</time>
      </trkpt>
      <trkpt lat="60.1367797852" lon="15.5391407013">
        <ele>0</ele>
        <time>2013-05-01T12:33:19Z</time>
      </trkpt>
      <trkpt lat="60.1367759705" lon="15.5392885208">
        <ele>0</ele>
        <time>2013-05-01T12:33:20Z</time>
      </trkpt>
      <trkpt lat="60.1367721558" lon="15.5394525528">
        <ele>0</ele>
        <time>2013-05-01T12:33:21Z</time>
      </trkpt>
      <trkpt lat="60.1367111206" lon="15.5401515961">
        <ele>0</ele>
        <time>2013-05-01T12:33:26Z</time>
      </trkpt>
      <trkpt lat="60.1366767883" lon="15.540512085">
        <ele>0</ele>
        <time>2013-05-01T12:33:28Z</time>
      </trkpt>
      <trkpt lat="60.1366577148" lon="15.5406570435">
        <ele>0</ele>
        <time>2013-05-01T12:33:29Z</time>
      </trkpt>
      <trkpt lat="60.1366462708" lon="15.5407514572">
        <ele>0</ele>
        <time>2013-05-01T12:33:30Z</time>
      </trkpt>
      <trkpt lat="60.1365661621" lon="15.5412578583">
        <ele>0</ele>
        <time>2013-05-01T12:33:33Z</time>
      </trkpt>
      <trkpt lat="60.1365470886" lon="15.5413484573">
        <ele>0</ele>
        <time>2013-05-01T12:33:34Z</time>
      </trkpt>
      <trkpt lat="60.1365127563" lon="15.5415391922">
        <ele>0</ele>
        <time>2013-05-01T12:33:35Z</time>
      </trkpt>
      <trkpt lat="60.1364784241" lon="15.5416994095">
        <ele>0</ele>
        <time>2013-05-01T12:33:36Z</time>
      </trkpt>
      <trkpt lat="60.1364517212" lon="15.5418329239">
        <ele>0</ele>
        <time>2013-05-01T12:33:37Z</time>
      </trkpt>
      <trkpt lat="60.136428833" lon="15.5419378281">
        <ele>0</ele>
        <time>2013-05-01T12:33:38Z</time>
      </trkpt>
      <trkpt lat="60.1363830566" lon="15.5421237946">
        <ele>0</ele>
        <time>2013-05-01T12:33:39Z</time>
      </trkpt>
      <trkpt lat="60.1363525391" lon="15.5422515869">
        <ele>0</ele>
        <time>2013-05-01T12:33:40Z</time>
      </trkpt>
      <trkpt lat="60.1363182068" lon="15.5423851013">
        <ele>0</ele>
        <time>2013-05-01T12:33:41Z</time>
      </trkpt>
      <trkpt lat="60.1362915039" lon="15.542473793">
        <ele>0</ele>
        <time>2013-05-01T12:33:42Z</time>
      </trkpt>
      <trkpt lat="60.1362419128" lon="15.5426530838">
        <ele>0</ele>
        <time>2013-05-01T12:33:43Z</time>
      </trkpt>
      <trkpt lat="60.1362037659" lon="15.5427770615">
        <ele>0</ele>
        <time>2013-05-01T12:33:44Z</time>
      </trkpt>
      <trkpt lat="60.1361618042" lon="15.5428981781">
        <ele>0</ele>
        <time>2013-05-01T12:33:45Z</time>
      </trkpt>
      <trkpt lat="60.1360816956" lon="15.543132782">
        <ele>0</ele>
        <time>2013-05-01T12:33:47Z</time>
      </trkpt>
      <trkpt lat="60.1360359192" lon="15.5432682037">
        <ele>0</ele>
        <time>2013-05-01T12:33:48Z</time>
      </trkpt>
      <trkpt lat="60.1359634399" lon="15.5434522629">
        <ele>0</ele>
        <time>2013-05-01T12:33:50Z</time>
      </trkpt>
      <trkpt lat="60.1358528137" lon="15.5437173843">
        <ele>0</ele>
        <time>2013-05-01T12:33:52Z</time>
      </trkpt>
      <trkpt lat="60.1358032227" lon="15.5438299179">
        <ele>0</ele>
        <time>2013-05-01T12:33:53Z</time>
      </trkpt>
      <trkpt lat="60.1357688904" lon="15.5439023972">
        <ele>0</ele>
        <time>2013-05-01T12:33:54Z</time>
      </trkpt>
      <trkpt lat="60.1357002258" lon="15.5440416336">
        <ele>0</ele>
        <time>2013-05-01T12:33:55Z</time>
      </trkpt>
      <trkpt lat="60.1356468201" lon="15.5441541672">
        <ele>0</ele>
        <time>2013-05-01T12:33:56Z</time>
      </trkpt>
      <trkpt lat="60.1356010437" lon="15.544251442">
        <ele>0</ele>
        <time>2013-05-01T12:33:57Z</time>
      </trkpt>
      <trkpt lat="60.1355667114" lon="15.5443229675">
        <ele>0</ele>
        <time>2013-05-01T12:33:58Z</time>
      </trkpt>
      <trkpt lat="60.1354980469" lon="15.544462204">
        <ele>0</ele>
        <time>2013-05-01T12:33:59Z</time>
      </trkpt>
      <trkpt lat="60.1352882385" lon="15.5448894501">
        <ele>0</ele>
        <time>2013-05-01T12:34:03Z</time>
      </trkpt>
      <trkpt lat="60.1352272034" lon="15.5450057983">
        <ele>0</ele>
        <time>2013-05-01T12:34:04Z</time>
      </trkpt>
      <trkpt lat="60.1352157593" lon="15.5450334549">
        <ele>0</ele>
        <time>2013-05-01T12:34:05Z</time>
      </trkpt>
      <trkpt lat="60.1350708008" lon="15.5453214645">
        <ele>0</ele>
        <time>2013-05-01T12:34:07Z</time>
      </trkpt>
      <trkpt lat="60.1350135803" lon="15.5454339981">
        <ele>0</ele>
        <time>2013-05-01T12:34:08Z</time>
      </trkpt>
      <trkpt lat="60.1349639893" lon="15.5455322266">
        <ele>0</ele>
        <time>2013-05-01T12:34:09Z</time>
      </trkpt>
      <trkpt lat="60.1349143982" lon="15.5456323624">
        <ele>0</ele>
        <time>2013-05-01T12:34:10Z</time>
      </trkpt>
      <trkpt lat="60.1348686218" lon="15.5457210541">
        <ele>0</ele>
        <time>2013-05-01T12:34:11Z</time>
      </trkpt>
      <trkpt lat="60.1348266602" lon="15.5458126068">
        <ele>0</ele>
        <time>2013-05-01T12:34:12Z</time>
      </trkpt>
      <trkpt lat="60.1347541809" lon="15.5459632874">
        <ele>0</ele>
        <time>2013-05-01T12:34:14Z</time>
      </trkpt>
      <trkpt lat="60.1345977783" lon="15.546292305">
        <ele>0</ele>
        <time>2013-05-01T12:34:18Z</time>
      </trkpt>
      <trkpt lat="60.134552002" lon="15.5463953018">
        <ele>0</ele>
        <time>2013-05-01T12:34:19Z</time>
      </trkpt>
      <trkpt lat="60.1345252991" lon="15.5464801788">
        <ele>0</ele>
        <time>2013-05-01T12:34:20Z</time>
      </trkpt>
      <trkpt lat="60.1343803406" lon="15.5469703674">
        <ele>0</ele>
        <time>2013-05-01T12:34:25Z</time>
      </trkpt>
      <trkpt lat="60.1343574524" lon="15.5470380783">
        <ele>0</ele>
        <time>2013-05-01T12:34:26Z</time>
      </trkpt>
      <trkpt lat="60.134311676" lon="15.5471801758">
        <ele>0</ele>
        <time>2013-05-01T12:34:27Z</time>
      </trkpt>
      <trkpt lat="60.1342735291" lon="15.5472917557">
        <ele>0</ele>
        <time>2013-05-01T12:34:28Z</time>
      </trkpt>
      <trkpt lat="60.1342315674" lon="15.5473890305">
        <ele>0</ele>
        <time>2013-05-01T12:34:29Z</time>
      </trkpt>
      <trkpt lat="60.1340827942" lon="15.5476646423">
        <ele>0</ele>
        <time>2013-05-01T12:34:32Z</time>
      </trkpt>
      <trkpt lat="60.134021759" lon="15.547750473">
        <ele>0</ele>
        <time>2013-05-01T12:34:33Z</time>
      </trkpt>
      <trkpt lat="60.1339836121" lon="15.5478019714">
        <ele>0</ele>
        <time>2013-05-01T12:34:34Z</time>
      </trkpt>
      <trkpt lat="60.1338882446" lon="15.5479259491">
        <ele>0</ele>
        <time>2013-05-01T12:34:35Z</time>
      </trkpt>
      <trkpt lat="60.1338195801" lon="15.5480070114">
        <ele>0</ele>
        <time>2013-05-01T12:34:36Z</time>
      </trkpt>
      <trkpt lat="60.1337585449" lon="15.5480804443">
        <ele>0</ele>
        <time>2013-05-01T12:34:37Z</time>
      </trkpt>
      <trkpt lat="60.1337089539" lon="15.5481386185">
        <ele>0</ele>
        <time>2013-05-01T12:34:38Z</time>
      </trkpt>
      <trkpt lat="60.1336135864" lon="15.548248291">
        <ele>0</ele>
        <time>2013-05-01T12:34:39Z</time>
      </trkpt>
      <trkpt lat="60.1333503723" lon="15.5485525131">
        <ele>0</ele>
        <time>2013-05-01T12:34:43Z</time>
      </trkpt>
      <trkpt lat="60.1331863403" lon="15.5487556458">
        <ele>0</ele>
        <time>2013-05-01T12:34:46Z</time>
      </trkpt>
      <trkpt lat="60.1331100464" lon="15.5488443375">
        <ele>0</ele>
        <time>2013-05-01T12:34:47Z</time>
      </trkpt>
      <trkpt lat="60.1329841614" lon="15.548989296">
        <ele>0</ele>
        <time>2013-05-01T12:34:49Z</time>
      </trkpt>
      <trkpt lat="60.1329536438" lon="15.5490245819">
        <ele>0</ele>
        <time>2013-05-01T12:34:50Z</time>
      </trkpt>
      <trkpt lat="60.1326332092" lon="15.5493898392">
        <ele>0</ele>
        <time>2013-05-01T12:34:56Z</time>
      </trkpt>
      <trkpt lat="60.1325912476" lon="15.5494403839">
        <ele>0</ele>
        <time>2013-05-01T12:34:57Z</time>
      </trkpt>
      <trkpt lat="60.1324958801" lon="15.549539566">
        <ele>0</ele>
        <time>2013-05-01T12:34:59Z</time>
      </trkpt>
      <trkpt lat="60.1324462891" lon="15.5495939255">
        <ele>0</ele>
        <time>2013-05-01T12:35:00Z</time>
      </trkpt>
      <trkpt lat="60.13230896" lon="15.5497493744">
        <ele>0</ele>
        <time>2013-05-01T12:35:03Z</time>
      </trkpt>
      <trkpt lat="60.1322631836" lon="15.5498113632">
        <ele>0</ele>
        <time>2013-05-01T12:35:04Z</time>
      </trkpt>
      <trkpt lat="60.1321868896" lon="15.5499067307">
        <ele>0</ele>
        <time>2013-05-01T12:35:06Z</time>
      </trkpt>
      <trkpt lat="60.1320304871" lon="15.5500936508">
        <ele>0</ele>
        <time>2013-05-01T12:35:09Z</time>
      </trkpt>
      <trkpt lat="60.1319351196" lon="15.5501871109">
        <ele>0</ele>
        <time>2013-05-01T12:35:11Z</time>
      </trkpt>
      <trkpt lat="60.1318855286" lon="15.5502328873">
        <ele>0</ele>
        <time>2013-05-01T12:35:12Z</time>
      </trkpt>
      <trkpt lat="60.1318283081" lon="15.550286293">
        <ele>0</ele>
        <time>2013-05-01T12:35:13Z</time>
      </trkpt>
      <trkpt lat="60.1317977905" lon="15.5503177643">
        <ele>0</ele>
        <time>2013-05-01T12:35:14Z</time>
      </trkpt>
      <trkpt lat="60.131729126" lon="15.5503921509">
        <ele>0</ele>
        <time>2013-05-01T12:35:15Z</time>
      </trkpt>
      <trkpt lat="60.1316795349" lon="15.5504522324">
        <ele>0</ele>
        <time>2013-05-01T12:35:16Z</time>
      </trkpt>
      <trkpt lat="60.1316337585" lon="15.5505084991">
        <ele>0</ele>
        <time>2013-05-01T12:35:17Z</time>
      </trkpt>
      <trkpt lat="60.1313171387" lon="15.5508842468">
        <ele>0</ele>
        <time>2013-05-01T12:35:23Z</time>
      </trkpt>
      <trkpt lat="60.1312103271" lon="15.5510082245">
        <ele>0</ele>
        <time>2013-05-01T12:35:25Z</time>
      </trkpt>
      <trkpt lat="60.1311187744" lon="15.5511283875">
        <ele>0</ele>
        <time>2013-05-01T12:35:27Z</time>
      </trkpt>
      <trkpt lat="60.1310653687" lon="15.5511875153">
        <ele>0</ele>
        <time>2013-05-01T12:35:28Z</time>
      </trkpt>
      <trkpt lat="60.13098526" lon="15.5512695312">
        <ele>0</ele>
        <time>2013-05-01T12:35:30Z</time>
      </trkpt>
      <trkpt lat="60.1309165955" lon="15.5513381958">
        <ele>0</ele>
        <time>2013-05-01T12:35:31Z</time>
      </trkpt>
      <trkpt lat="60.1308708191" lon="15.5513792038">
        <ele>0</ele>
        <time>2013-05-01T12:35:32Z</time>
      </trkpt>
      <trkpt lat="60.1306228638" lon="15.5515794754">
        <ele>0</ele>
        <time>2013-05-01T12:35:37Z</time>
      </trkpt>
      <trkpt lat="60.1304702759" lon="15.5517034531">
        <ele>0</ele>
        <time>2013-05-01T12:35:40Z</time>
      </trkpt>
      <trkpt lat="60.1304168701" lon="15.5517501831">
        <ele>0</ele>
        <time>2013-05-01T12:35:41Z</time>
      </trkpt>
      <trkpt lat="60.1303863525" lon="15.5517816544">
        <ele>0</ele>
        <time>2013-05-01T12:35:42Z</time>
      </trkpt>
      <trkpt lat="60.1301727295" lon="15.5519638062">
        <ele>0</ele>
        <time>2013-05-01T12:35:46Z</time>
      </trkpt>
      <trkpt lat="60.1301040649" lon="15.5520210266">
        <ele>0</ele>
        <time>2013-05-01T12:35:47Z</time>
      </trkpt>
      <trkpt lat="60.1300468445" lon="15.552069664">
        <ele>0</ele>
        <time>2013-05-01T12:35:48Z</time>
      </trkpt>
      <trkpt lat="60.1299934387" lon="15.5521144867">
        <ele>0</ele>
        <time>2013-05-01T12:35:49Z</time>
      </trkpt>
      <trkpt lat="60.1298942566" lon="15.5521936417">
        <ele>0</ele>
        <time>2013-05-01T12:35:51Z</time>
      </trkpt>
      <trkpt lat="60.1298484802" lon="15.5522279739">
        <ele>0</ele>
        <time>2013-05-01T12:35:52Z</time>
      </trkpt>
      <trkpt lat="60.1297607422" lon="15.5523071289">
        <ele>0</ele>
        <time>2013-05-01T12:35:54Z</time>
      </trkpt>
      <trkpt lat="60.1296958923" lon="15.5523662567">
        <ele>0</ele>
        <time>2013-05-01T12:35:55Z</time>
      </trkpt>
      <trkpt lat="60.1296424866" lon="15.5524082184">
        <ele>0</ele>
        <time>2013-05-01T12:35:56Z</time>
      </trkpt>
      <trkpt lat="60.1293907166" lon="15.5526161194">
        <ele>0</ele>
        <time>2013-05-01T12:36:01Z</time>
      </trkpt>
      <trkpt lat="60.1293640137" lon="15.5526332855">
        <ele>0</ele>
        <time>2013-05-01T12:36:02Z</time>
      </trkpt>
      <trkpt lat="60.1292266846" lon="15.5527181625">
        <ele>0</ele>
        <time>2013-05-01T12:36:04Z</time>
      </trkpt>
      <trkpt lat="60.1291732788" lon="15.5527429581">
        <ele>0</ele>
        <time>2013-05-01T12:36:05Z</time>
      </trkpt>
      <trkpt lat="60.1288337708" lon="15.552901268">
        <ele>0</ele>
        <time>2013-05-01T12:36:11Z</time>
      </trkpt>
      <trkpt lat="60.1287765503" lon="15.5529184341">
        <ele>0</ele>
        <time>2013-05-01T12:36:12Z</time>
      </trkpt>
      <trkpt lat="60.1287193298" lon="15.5529403687">
        <ele>0</ele>
        <time>2013-05-01T12:36:13Z</time>
      </trkpt>
      <trkpt lat="60.1286811829" lon="15.5529546738">
        <ele>0</ele>
        <time>2013-05-01T12:36:14Z</time>
      </trkpt>
      <trkpt lat="60.1286048889" lon="15.5529823303">
        <ele>0</ele>
        <time>2013-05-01T12:36:15Z</time>
      </trkpt>
      <trkpt lat="60.1285400391" lon="15.5530071259">
        <ele>0</ele>
        <time>2013-05-01T12:36:16Z</time>
      </trkpt>
      <trkpt lat="60.1284866333" lon="15.553027153">
        <ele>0</ele>
        <time>2013-05-01T12:36:17Z</time>
      </trkpt>
      <trkpt lat="60.1282501221" lon="15.553103447">
        <ele>0</ele>
        <time>2013-05-01T12:36:21Z</time>
      </trkpt>
      <trkpt lat="60.1278991699" lon="15.553229332">
        <ele>0</ele>
        <time>2013-05-01T12:36:27Z</time>
      </trkpt>
      <trkpt lat="60.1278343201" lon="15.5532560349">
        <ele>0</ele>
        <time>2013-05-01T12:36:28Z</time>
      </trkpt>
      <trkpt lat="60.1277732849" lon="15.5532770157">
        <ele>0</ele>
        <time>2013-05-01T12:36:29Z</time>
      </trkpt>
      <trkpt lat="60.1277389526" lon="15.5532922745">
        <ele>0</ele>
        <time>2013-05-01T12:36:30Z</time>
      </trkpt>
      <trkpt lat="60.1276512146" lon="15.5533218384">
        <ele>0</ele>
        <time>2013-05-01T12:36:31Z</time>
      </trkpt>
      <trkpt lat="60.1275939941" lon="15.5533437729">
        <ele>0</ele>
        <time>2013-05-01T12:36:32Z</time>
      </trkpt>
      <trkpt lat="60.1275291443" lon="15.5533657074">
        <ele>0</ele>
        <time>2013-05-01T12:36:33Z</time>
      </trkpt>
      <trkpt lat="60.1274108887" lon="15.5534086227">
        <ele>0</ele>
        <time>2013-05-01T12:36:35Z</time>
      </trkpt>
      <trkpt lat="60.1273498535" lon="15.5534334183">
        <ele>0</ele>
        <time>2013-05-01T12:36:36Z</time>
      </trkpt>
      <trkpt lat="60.1271743774" lon="15.5535049438">
        <ele>0</ele>
        <time>2013-05-01T12:36:39Z</time>
      </trkpt>
      <trkpt lat="60.1271209717" lon="15.553524971">
        <ele>0</ele>
        <time>2013-05-01T12:36:40Z</time>
      </trkpt>
      <trkpt lat="60.1270599365" lon="15.5535449982">
        <ele>0</ele>
        <time>2013-05-01T12:36:41Z</time>
      </trkpt>
      <trkpt lat="60.1268768311" lon="15.5536108017">
        <ele>0</ele>
        <time>2013-05-01T12:36:44Z</time>
      </trkpt>
      <trkpt lat="60.1268196106" lon="15.5536355972">
        <ele>0</ele>
        <time>2013-05-01T12:36:45Z</time>
      </trkpt>
      <trkpt lat="60.1267051697" lon="15.5536756516">
        <ele>0</ele>
        <time>2013-05-01T12:36:47Z</time>
      </trkpt>
      <trkpt lat="60.1266365051" lon="15.5536985397">
        <ele>0</ele>
        <time>2013-05-01T12:36:48Z</time>
      </trkpt>
      <trkpt lat="60.12657547" lon="15.5537204742">
        <ele>0</ele>
        <time>2013-05-01T12:36:49Z</time>
      </trkpt>
      <trkpt lat="60.1261482239" lon="15.5538778305">
        <ele>0</ele>
        <time>2013-05-01T12:36:56Z</time>
      </trkpt>
      <trkpt lat="60.1260871887" lon="15.5538988113">
        <ele>0</ele>
        <time>2013-05-01T12:36:57Z</time>
      </trkpt>
      <trkpt lat="60.1258354187" lon="15.5539989471">
        <ele>0</ele>
        <time>2013-05-01T12:37:01Z</time>
      </trkpt>
      <trkpt lat="60.1258049011" lon="15.5540113449">
        <ele>0</ele>
        <time>2013-05-01T12:37:02Z</time>
      </trkpt>
      <trkpt lat="60.1256446838" lon="15.5540704727">
        <ele>0</ele>
        <time>2013-05-01T12:37:04Z</time>
      </trkpt>
      <trkpt lat="60.1256027222" lon="15.5540847778">
        <ele>0</ele>
        <time>2013-05-01T12:37:05Z</time>
      </trkpt>
      <trkpt lat="60.125541687" lon="15.5541124344">
        <ele>0</ele>
        <time>2013-05-01T12:37:06Z</time>
      </trkpt>
      <trkpt lat="60.1254615784" lon="15.5541534424">
        <ele>0</ele>
        <time>2013-05-01T12:37:07Z</time>
      </trkpt>
      <trkpt lat="60.1254005432" lon="15.5541706085">
        <ele>0</ele>
        <time>2013-05-01T12:37:08Z</time>
      </trkpt>
      <trkpt lat="60.1253089905" lon="15.5542020798">
        <ele>0</ele>
        <time>2013-05-01T12:37:10Z</time>
      </trkpt>
      <trkpt lat="60.1252288818" lon="15.554233551">
        <ele>0</ele>
        <time>2013-05-01T12:37:11Z</time>
      </trkpt>
      <trkpt lat="60.1251754761" lon="15.5542478561">
        <ele>0</ele>
        <time>2013-05-01T12:37:12Z</time>
      </trkpt>
      <trkpt lat="60.1251144409" lon="15.5542707443">
        <ele>0</ele>
        <time>2013-05-01T12:37:13Z</time>
      </trkpt>
      <trkpt lat="60.125" lon="15.5543041229">
        <ele>0</ele>
        <time>2013-05-01T12:37:15Z</time>
      </trkpt>
      <trkpt lat="60.1249389648" lon="15.5543251038">
        <ele>0</ele>
        <time>2013-05-01T12:37:16Z</time>
      </trkpt>
      <trkpt lat="60.1248855591" lon="15.5543479919">
        <ele>0</ele>
        <time>2013-05-01T12:37:17Z</time>
      </trkpt>
      <trkpt lat="60.1248397827" lon="15.5543689728">
        <ele>0</ele>
        <time>2013-05-01T12:37:18Z</time>
      </trkpt>
      <trkpt lat="60.1247558594" lon="15.5544137955">
        <ele>0</ele>
        <time>2013-05-01T12:37:19Z</time>
      </trkpt>
      <trkpt lat="60.1246948242" lon="15.5544462204">
        <ele>0</ele>
        <time>2013-05-01T12:37:20Z</time>
      </trkpt>
      <trkpt lat="60.1246337891" lon="15.5544757843">
        <ele>0</ele>
        <time>2013-05-01T12:37:21Z</time>
      </trkpt>
      <trkpt lat="60.1245994568" lon="15.5544967651">
        <ele>0</ele>
        <time>2013-05-01T12:37:22Z</time>
      </trkpt>
      <trkpt lat="60.1245155334" lon="15.5545463562">
        <ele>0</ele>
        <time>2013-05-01T12:37:23Z</time>
      </trkpt>
      <trkpt lat="60.1243896484" lon="15.5546245575">
        <ele>0</ele>
        <time>2013-05-01T12:37:25Z</time>
      </trkpt>
      <trkpt lat="60.1243438721" lon="15.5546569824">
        <ele>0</ele>
        <time>2013-05-01T12:37:26Z</time>
      </trkpt>
      <trkpt lat="60.1242637634" lon="15.5547132492">
        <ele>0</ele>
        <time>2013-05-01T12:37:27Z</time>
      </trkpt>
      <trkpt lat="60.1241950989" lon="15.5547609329">
        <ele>0</ele>
        <time>2013-05-01T12:37:28Z</time>
      </trkpt>
      <trkpt lat="60.1241340637" lon="15.5548038483">
        <ele>0</ele>
        <time>2013-05-01T12:37:29Z</time>
      </trkpt>
      <trkpt lat="60.1238861084" lon="15.5549764633">
        <ele>0</ele>
        <time>2013-05-01T12:37:33Z</time>
      </trkpt>
      <trkpt lat="60.1237716675" lon="15.5550584793">
        <ele>0</ele>
        <time>2013-05-01T12:37:35Z</time>
      </trkpt>
      <trkpt lat="60.1237068176" lon="15.5551080704">
        <ele>0</ele>
        <time>2013-05-01T12:37:36Z</time>
      </trkpt>
      <trkpt lat="60.1236495972" lon="15.55514431">
        <ele>0</ele>
        <time>2013-05-01T12:37:37Z</time>
      </trkpt>
      <trkpt lat="60.1236038208" lon="15.5551729202">
        <ele>0</ele>
        <time>2013-05-01T12:37:38Z</time>
      </trkpt>
      <trkpt lat="60.1235237122" lon="15.555226326">
        <ele>0</ele>
        <time>2013-05-01T12:37:39Z</time>
      </trkpt>
      <trkpt lat="60.1234703064" lon="15.5552654266">
        <ele>0</ele>
        <time>2013-05-01T12:37:40Z</time>
      </trkpt>
      <trkpt lat="60.1234092712" lon="15.5553064346">
        <ele>0</ele>
        <time>2013-05-01T12:37:41Z</time>
      </trkpt>
      <trkpt lat="60.1232872009" lon="15.55539608">
        <ele>0</ele>
        <time>2013-05-01T12:37:43Z</time>
      </trkpt>
      <trkpt lat="60.1232223511" lon="15.5554418564">
        <ele>0</ele>
        <time>2013-05-01T12:37:44Z</time>
      </trkpt>
      <trkpt lat="60.1231651306" lon="15.5554790497">
        <ele>0</ele>
        <time>2013-05-01T12:37:45Z</time>
      </trkpt>
      <trkpt lat="60.1228141785" lon="15.5557012558">
        <ele>0</ele>
        <time>2013-05-01T12:37:51Z</time>
      </trkpt>
      <trkpt lat="60.1227607727" lon="15.5557327271">
        <ele>0</ele>
        <time>2013-05-01T12:37:52Z</time>
      </trkpt>
      <trkpt lat="60.1227035522" lon="15.5557584763">
        <ele>0</ele>
        <time>2013-05-01T12:37:53Z</time>
      </trkpt>
      <trkpt lat="60.1226539612" lon="15.5557804108">
        <ele>0</ele>
        <time>2013-05-01T12:37:54Z</time>
      </trkpt>
      <trkpt lat="60.1225662231" lon="15.5558128357">
        <ele>0</ele>
        <time>2013-05-01T12:37:55Z</time>
      </trkpt>
      <trkpt lat="60.1224975586" lon="15.5558423996">
        <ele>0</ele>
        <time>2013-05-01T12:37:56Z</time>
      </trkpt>
      <trkpt lat="60.1224365234" lon="15.5558671951">
        <ele>0</ele>
        <time>2013-05-01T12:37:57Z</time>
      </trkpt>
      <trkpt lat="60.1223869324" lon="15.5558795929">
        <ele>0</ele>
        <time>2013-05-01T12:37:58Z</time>
      </trkpt>
      <trkpt lat="60.122215271" lon="15.5559167862">
        <ele>0</ele>
        <time>2013-05-01T12:38:00Z</time>
      </trkpt>
      <trkpt lat="60.1221427917" lon="15.5559310913">
        <ele>0</ele>
        <time>2013-05-01T12:38:01Z</time>
      </trkpt>
      <trkpt lat="60.1219940186" lon="15.5559616089">
        <ele>0</ele>
        <time>2013-05-01T12:38:03Z</time>
      </trkpt>
      <trkpt lat="60.1219100952" lon="15.555978775">
        <ele>0</ele>
        <time>2013-05-01T12:38:04Z</time>
      </trkpt>
      <trkpt lat="60.1218414307" lon="15.5559902191">
        <ele>0</ele>
        <time>2013-05-01T12:38:05Z</time>
      </trkpt>
      <trkpt lat="60.1217842102" lon="15.5560007095">
        <ele>0</ele>
        <time>2013-05-01T12:38:06Z</time>
      </trkpt>
      <trkpt lat="60.1216850281" lon="15.5560216904">
        <ele>0</ele>
        <time>2013-05-01T12:38:07Z</time>
      </trkpt>
      <trkpt lat="60.1216011047" lon="15.5560379028">
        <ele>0</ele>
        <time>2013-05-01T12:38:08Z</time>
      </trkpt>
      <trkpt lat="60.1213684082" lon="15.5560979843">
        <ele>0</ele>
        <time>2013-05-01T12:38:11Z</time>
      </trkpt>
      <trkpt lat="60.1212921143" lon="15.5561275482">
        <ele>0</ele>
        <time>2013-05-01T12:38:12Z</time>
      </trkpt>
      <trkpt lat="60.1212081909" lon="15.5561618805">
        <ele>0</ele>
        <time>2013-05-01T12:38:13Z</time>
      </trkpt>
      <trkpt lat="60.120967865" lon="15.5563058853">
        <ele>0</ele>
        <time>2013-05-01T12:38:16Z</time>
      </trkpt>
      <trkpt lat="60.1208992004" lon="15.5563669205">
        <ele>0</ele>
        <time>2013-05-01T12:38:17Z</time>
      </trkpt>
      <trkpt lat="60.12084198" lon="15.5564212799">
        <ele>0</ele>
        <time>2013-05-01T12:38:18Z</time>
      </trkpt>
      <trkpt lat="60.1207389832" lon="15.5565357208">
        <ele>0</ele>
        <time>2013-05-01T12:38:19Z</time>
      </trkpt>
      <trkpt lat="60.1206665039" lon="15.5566244125">
        <ele>0</ele>
        <time>2013-05-01T12:38:20Z</time>
      </trkpt>
      <trkpt lat="60.12059021" lon="15.556725502">
        <ele>0</ele>
        <time>2013-05-01T12:38:21Z</time>
      </trkpt>
      <trkpt lat="60.1205596924" lon="15.5567741394">
        <ele>0</ele>
        <time>2013-05-01T12:38:22Z</time>
      </trkpt>
      <trkpt lat="60.1204605103" lon="15.5569295883">
        <ele>0</ele>
        <time>2013-05-01T12:38:23Z</time>
      </trkpt>
      <trkpt lat="60.120388031" lon="15.5570678711">
        <ele>0</ele>
        <time>2013-05-01T12:38:24Z</time>
      </trkpt>
      <trkpt lat="60.1203308105" lon="15.557185173">
        <ele>0</ele>
        <time>2013-05-01T12:38:25Z</time>
      </trkpt>
      <trkpt lat="60.1202964783" lon="15.5572595596">
        <ele>0</ele>
        <time>2013-05-01T12:38:26Z</time>
      </trkpt>
      <trkpt lat="60.1202201843" lon="15.5574245453">
        <ele>0</ele>
        <time>2013-05-01T12:38:27Z</time>
      </trkpt>
      <trkpt lat="60.1201667786" lon="15.557559967">
        <ele>0</ele>
        <time>2013-05-01T12:38:28Z</time>
      </trkpt>
      <trkpt lat="60.1201210022" lon="15.5576896667">
        <ele>0</ele>
        <time>2013-05-01T12:38:29Z</time>
      </trkpt>
      <trkpt lat="60.1200332642" lon="15.5579442978">
        <ele>0</ele>
        <time>2013-05-01T12:38:31Z</time>
      </trkpt>
      <trkpt lat="60.1199913025" lon="15.5580635071">
        <ele>0</ele>
        <time>2013-05-01T12:38:32Z</time>
      </trkpt>
      <trkpt lat="60.1199150085" lon="15.558259964">
        <ele>0</ele>
        <time>2013-05-01T12:38:34Z</time>
      </trkpt>
      <trkpt lat="60.1198501587" lon="15.5584106445">
        <ele>0</ele>
        <time>2013-05-01T12:38:35Z</time>
      </trkpt>
      <trkpt lat="60.1195755005" lon="15.5589313507">
        <ele>0</ele>
        <time>2013-05-01T12:38:40Z</time>
      </trkpt>
      <trkpt lat="60.1192588806" lon="15.5593185425">
        <ele>0</ele>
        <time>2013-05-01T12:38:45Z</time>
      </trkpt>
      <trkpt lat="60.1192207336" lon="15.5593538284">
        <ele>0</ele>
        <time>2013-05-01T12:38:46Z</time>
      </trkpt>
      <trkpt lat="60.1191329956" lon="15.5594272614">
        <ele>0</ele>
        <time>2013-05-01T12:38:47Z</time>
      </trkpt>
      <trkpt lat="60.1188392639" lon="15.5596075058">
        <ele>0</ele>
        <time>2013-05-01T12:38:51Z</time>
      </trkpt>
      <trkpt lat="60.1187705994" lon="15.5596342087">
        <ele>0</ele>
        <time>2013-05-01T12:38:52Z</time>
      </trkpt>
      <trkpt lat="60.1186943054" lon="15.5596628189">
        <ele>0</ele>
        <time>2013-05-01T12:38:53Z</time>
      </trkpt>
      <trkpt lat="60.1185302734" lon="15.5597333908">
        <ele>0</ele>
        <time>2013-05-01T12:38:55Z</time>
      </trkpt>
      <trkpt lat="60.1184844971" lon="15.5597515106">
        <ele>0</ele>
        <time>2013-05-01T12:38:56Z</time>
      </trkpt>
      <trkpt lat="60.1182518005" lon="15.5598468781">
        <ele>0</ele>
        <time>2013-05-01T12:38:59Z</time>
      </trkpt>
      <trkpt lat="60.1181678772" lon="15.5598783493">
        <ele>0</ele>
        <time>2013-05-01T12:39:00Z</time>
      </trkpt>
      <trkpt lat="60.1180953979" lon="15.5599060059">
        <ele>0</ele>
        <time>2013-05-01T12:39:01Z</time>
      </trkpt>
      <trkpt lat="60.1180458069" lon="15.5599212646">
        <ele>0</ele>
        <time>2013-05-01T12:39:02Z</time>
      </trkpt>
      <trkpt lat="60.1177330017" lon="15.560051918">
        <ele>0</ele>
        <time>2013-05-01T12:39:06Z</time>
      </trkpt>
      <trkpt lat="60.1175460815" lon="15.560125351">
        <ele>0</ele>
        <time>2013-05-01T12:39:08Z</time>
      </trkpt>
      <trkpt lat="60.1174049377" lon="15.560172081">
        <ele>0</ele>
        <time>2013-05-01T12:39:10Z</time>
      </trkpt>
      <trkpt lat="60.117313385" lon="15.5601997375">
        <ele>0</ele>
        <time>2013-05-01T12:39:11Z</time>
      </trkpt>
      <trkpt lat="60.1172180176" lon="15.56021595">
        <ele>0</ele>
        <time>2013-05-01T12:39:12Z</time>
      </trkpt>
      <trkpt lat="60.1171417236" lon="15.5602254868">
        <ele>0</ele>
        <time>2013-05-01T12:39:13Z</time>
      </trkpt>
      <trkpt lat="60.1170806885" lon="15.56021595">
        <ele>0</ele>
        <time>2013-05-01T12:39:14Z</time>
      </trkpt>
      <trkpt lat="60.1170005798" lon="15.5602016449">
        <ele>0</ele>
        <time>2013-05-01T12:39:15Z</time>
      </trkpt>
      <trkpt lat="60.1169013977" lon="15.5601816177">
        <ele>0</ele>
        <time>2013-05-01T12:39:16Z</time>
      </trkpt>
      <trkpt lat="60.1167488098" lon="15.5601177216">
        <ele>0</ele>
        <time>2013-05-01T12:39:18Z</time>
      </trkpt>
      <trkpt lat="60.1166801453" lon="15.5600681305">
        <ele>0</ele>
        <time>2013-05-01T12:39:19Z</time>
      </trkpt>
      <trkpt lat="60.1166191101" lon="15.5600156784">
        <ele>0</ele>
        <time>2013-05-01T12:39:20Z</time>
      </trkpt>
      <trkpt lat="60.116558075" lon="15.5599594116">
        <ele>0</ele>
        <time>2013-05-01T12:39:21Z</time>
      </trkpt>
      <trkpt lat="60.1165046692" lon="15.5599079132">
        <ele>0</ele>
        <time>2013-05-01T12:39:22Z</time>
      </trkpt>
      <trkpt lat="60.1164550781" lon="15.5598506927">
        <ele>0</ele>
        <time>2013-05-01T12:39:23Z</time>
      </trkpt>
      <trkpt lat="60.1164016724" lon="15.5597982407">
        <ele>0</ele>
        <time>2013-05-01T12:39:24Z</time>
      </trkpt>
      <trkpt lat="60.1163520813" lon="15.5597572327">
        <ele>0</ele>
        <time>2013-05-01T12:39:25Z</time>
      </trkpt>
      <trkpt lat="60.1162528992" lon="15.5596637726">
        <ele>0</ele>
        <time>2013-05-01T12:39:27Z</time>
      </trkpt>
      <trkpt lat="60.1162033081" lon="15.5596246719">
        <ele>0</ele>
        <time>2013-05-01T12:39:28Z</time>
      </trkpt>
      <trkpt lat="60.1161117554" lon="15.5595798492">
        <ele>0</ele>
        <time>2013-05-01T12:39:30Z</time>
      </trkpt>
      <trkpt lat="60.116065979" lon="15.5595588684">
        <ele>0</ele>
        <time>2013-05-01T12:39:31Z</time>
      </trkpt>
      <trkpt lat="60.115978241" lon="15.5595331192">
        <ele>0</ele>
        <time>2013-05-01T12:39:33Z</time>
      </trkpt>
      <trkpt lat="60.1158294678" lon="15.5595321655">
        <ele>0</ele>
        <time>2013-05-01T12:39:36Z</time>
      </trkpt>
      <trkpt lat="60.1157684326" lon="15.5595588684">
        <ele>0</ele>
        <time>2013-05-01T12:39:37Z</time>
      </trkpt>
      <trkpt lat="60.1157150269" lon="15.5595798492">
        <ele>0</ele>
        <time>2013-05-01T12:39:38Z</time>
      </trkpt>
      <trkpt lat="60.1156692505" lon="15.5596017838">
        <ele>0</ele>
        <time>2013-05-01T12:39:39Z</time>
      </trkpt>
      <trkpt lat="60.1156349182" lon="15.5596237183">
        <ele>0</ele>
        <time>2013-05-01T12:39:40Z</time>
      </trkpt>
      <trkpt lat="60.1155319214" lon="15.5596981049">
        <ele>0</ele>
        <time>2013-05-01T12:39:42Z</time>
      </trkpt>
      <trkpt lat="60.115486145" lon="15.5597333908">
        <ele>0</ele>
        <time>2013-05-01T12:39:43Z</time>
      </trkpt>
      <trkpt lat="60.1154518127" lon="15.559762001">
        <ele>0</ele>
        <time>2013-05-01T12:39:44Z</time>
      </trkpt>
      <trkpt lat="60.1154022217" lon="15.5598058701">
        <ele>0</ele>
        <time>2013-05-01T12:39:45Z</time>
      </trkpt>
      <trkpt lat="60.11536026" lon="15.5598468781">
        <ele>0</ele>
        <time>2013-05-01T12:39:46Z</time>
      </trkpt>
      <trkpt lat="60.1153144836" lon="15.5598936081">
        <ele>0</ele>
        <time>2013-05-01T12:39:47Z</time>
      </trkpt>
      <trkpt lat="60.1151580811" lon="15.5600605011">
        <ele>0</ele>
        <time>2013-05-01T12:39:51Z</time>
      </trkpt>
      <trkpt lat="60.1151199341" lon="15.560095787">
        <ele>0</ele>
        <time>2013-05-01T12:39:52Z</time>
      </trkpt>
      <trkpt lat="60.115070343" lon="15.5601396561">
        <ele>0</ele>
        <time>2013-05-01T12:39:53Z</time>
      </trkpt>
      <trkpt lat="60.1150283813" lon="15.5601825714">
        <ele>0</ele>
        <time>2013-05-01T12:39:54Z</time>
      </trkpt>
      <trkpt lat="60.1149711609" lon="15.5602464676">
        <ele>0</ele>
        <time>2013-05-01T12:39:56Z</time>
      </trkpt>
      <trkpt lat="60.1149368286" lon="15.5602731705">
        <ele>0</ele>
        <time>2013-05-01T12:39:57Z</time>
      </trkpt>
      <trkpt lat="60.1148910522" lon="15.5603141785">
        <ele>0</ele>
        <time>2013-05-01T12:39:58Z</time>
      </trkpt>
      <trkpt lat="60.1148300171" lon="15.5603752136">
        <ele>0</ele>
        <time>2013-05-01T12:39:59Z</time>
      </trkpt>
      <trkpt lat="60.1147842407" lon="15.5604190826">
        <ele>0</ele>
        <time>2013-05-01T12:40:00Z</time>
      </trkpt>
      <trkpt lat="60.1147346497" lon="15.5604658127">
        <ele>0</ele>
        <time>2013-05-01T12:40:01Z</time>
      </trkpt>
      <trkpt lat="60.1147079468" lon="15.5604915619">
        <ele>0</ele>
        <time>2013-05-01T12:40:02Z</time>
      </trkpt>
      <trkpt lat="60.1145133972" lon="15.5606927872">
        <ele>0</ele>
        <time>2013-05-01T12:40:06Z</time>
      </trkpt>
      <trkpt lat="60.1143341064" lon="15.5608634949">
        <ele>0</ele>
        <time>2013-05-01T12:40:09Z</time>
      </trkpt>
      <trkpt lat="60.1143035889" lon="15.5608949661">
        <ele>0</ele>
        <time>2013-05-01T12:40:10Z</time>
      </trkpt>
      <trkpt lat="60.1142272949" lon="15.5609645844">
        <ele>0</ele>
        <time>2013-05-01T12:40:11Z</time>
      </trkpt>
      <trkpt lat="60.1141700745" lon="15.5610122681">
        <ele>0</ele>
        <time>2013-05-01T12:40:12Z</time>
      </trkpt>
      <trkpt lat="60.1141090393" lon="15.5610618591">
        <ele>0</ele>
        <time>2013-05-01T12:40:13Z</time>
      </trkpt>
      <trkpt lat="60.1140480042" lon="15.5611085892">
        <ele>0</ele>
        <time>2013-05-01T12:40:14Z</time>
      </trkpt>
      <trkpt lat="60.1139297485" lon="15.5611963272">
        <ele>0</ele>
        <time>2013-05-01T12:40:16Z</time>
      </trkpt>
      <trkpt lat="60.1138801575" lon="15.5612316132">
        <ele>0</ele>
        <time>2013-05-01T12:40:17Z</time>
      </trkpt>
      <trkpt lat="60.1138343811" lon="15.5612630844">
        <ele>0</ele>
        <time>2013-05-01T12:40:18Z</time>
      </trkpt>
      <trkpt lat="60.1137542725" lon="15.5613174438">
        <ele>0</ele>
        <time>2013-05-01T12:40:19Z</time>
      </trkpt>
      <trkpt lat="60.1136932373" lon="15.5613527298">
        <ele>0</ele>
        <time>2013-05-01T12:40:20Z</time>
      </trkpt>
      <trkpt lat="60.1136322021" lon="15.5613880157">
        <ele>0</ele>
        <time>2013-05-01T12:40:21Z</time>
      </trkpt>
      <trkpt lat="60.1136054993" lon="15.5614013672">
        <ele>0</ele>
        <time>2013-05-01T12:40:22Z</time>
      </trkpt>
      <trkpt lat="60.1135253906" lon="15.5614471436">
        <ele>0</ele>
        <time>2013-05-01T12:40:23Z</time>
      </trkpt>
      <trkpt lat="60.1134605408" lon="15.5614843369">
        <ele>0</ele>
        <time>2013-05-01T12:40:24Z</time>
      </trkpt>
      <trkpt lat="60.113407135" lon="15.5615129471">
        <ele>0</ele>
        <time>2013-05-01T12:40:25Z</time>
      </trkpt>
      <trkpt lat="60.1133041382" lon="15.5615692139">
        <ele>0</ele>
        <time>2013-05-01T12:40:27Z</time>
      </trkpt>
      <trkpt lat="60.1132507324" lon="15.5615978241">
        <ele>0</ele>
        <time>2013-05-01T12:40:28Z</time>
      </trkpt>
      <trkpt lat="60.1132011414" lon="15.5616264343">
        <ele>0</ele>
        <time>2013-05-01T12:40:29Z</time>
      </trkpt>
      <trkpt lat="60.1131629944" lon="15.5616474152">
        <ele>0</ele>
        <time>2013-05-01T12:40:30Z</time>
      </trkpt>
      <trkpt lat="60.1130943298" lon="15.5616836548">
        <ele>0</ele>
        <time>2013-05-01T12:40:31Z</time>
      </trkpt>
      <trkpt lat="60.1130409241" lon="15.5617103577">
        <ele>0</ele>
        <time>2013-05-01T12:40:32Z</time>
      </trkpt>
      <trkpt lat="60.1129798889" lon="15.5617399216">
        <ele>0</ele>
        <time>2013-05-01T12:40:33Z</time>
      </trkpt>
      <trkpt lat="60.1129264832" lon="15.5617685318">
        <ele>0</ele>
        <time>2013-05-01T12:40:34Z</time>
      </trkpt>
      <trkpt lat="60.1128082275" lon="15.5618343353">
        <ele>0</ele>
        <time>2013-05-01T12:40:36Z</time>
      </trkpt>
      <trkpt lat="60.1127510071" lon="15.5618638992">
        <ele>0</ele>
        <time>2013-05-01T12:40:37Z</time>
      </trkpt>
      <trkpt lat="60.1125106812" lon="15.5620136261">
        <ele>0</ele>
        <time>2013-05-01T12:40:41Z</time>
      </trkpt>
      <trkpt lat="60.1124763489" lon="15.5620393753">
        <ele>0</ele>
        <time>2013-05-01T12:40:42Z</time>
      </trkpt>
      <trkpt lat="60.112247467" lon="15.5622110367">
        <ele>0</ele>
        <time>2013-05-01T12:40:46Z</time>
      </trkpt>
      <trkpt lat="60.1118659973" lon="15.5625181198">
        <ele>0</ele>
        <time>2013-05-01T12:40:52Z</time>
      </trkpt>
      <trkpt lat="60.111831665" lon="15.5625457764">
        <ele>0</ele>
        <time>2013-05-01T12:40:54Z</time>
      </trkpt>
      <trkpt lat="60.1117706299" lon="15.5625972748">
        <ele>0</ele>
        <time>2013-05-01T12:40:55Z</time>
      </trkpt>
      <trkpt lat="60.1116867065" lon="15.562669754">
        <ele>0</ele>
        <time>2013-05-01T12:40:56Z</time>
      </trkpt>
      <trkpt lat="60.1116371155" lon="15.5627145767">
        <ele>0</ele>
        <time>2013-05-01T12:40:57Z</time>
      </trkpt>
      <trkpt lat="60.111328125" lon="15.5629606247">
        <ele>0</ele>
        <time>2013-05-01T12:41:00Z</time>
      </trkpt>
      <trkpt lat="60.1112670898" lon="15.5630140305">
        <ele>0</ele>
        <time>2013-05-01T12:41:01Z</time>
      </trkpt>
      <trkpt lat="60.1111984253" lon="15.5630712509">
        <ele>0</ele>
        <time>2013-05-01T12:41:02Z</time>
      </trkpt>
      <trkpt lat="60.1110649109" lon="15.5631790161">
        <ele>0</ele>
        <time>2013-05-01T12:41:04Z</time>
      </trkpt>
      <trkpt lat="60.111000061" lon="15.5632314682">
        <ele>0</ele>
        <time>2013-05-01T12:41:05Z</time>
      </trkpt>
      <trkpt lat="60.1109352112" lon="15.5632858276">
        <ele>0</ele>
        <time>2013-05-01T12:41:06Z</time>
      </trkpt>
      <trkpt lat="60.1105613708" lon="15.563501358">
        <ele>0</ele>
        <time>2013-05-01T12:41:12Z</time>
      </trkpt>
      <trkpt lat="60.1103363037" lon="15.5635414124">
        <ele>0</ele>
        <time>2013-05-01T12:41:16Z</time>
      </trkpt>
      <trkpt lat="60.1102790833" lon="15.5635442734">
        <ele>0</ele>
        <time>2013-05-01T12:41:17Z</time>
      </trkpt>
      <trkpt lat="60.1102294922" lon="15.5635461807">
        <ele>0</ele>
        <time>2013-05-01T12:41:18Z</time>
      </trkpt>
      <trkpt lat="60.1101837158" lon="15.5635414124">
        <ele>0</ele>
        <time>2013-05-01T12:41:19Z</time>
      </trkpt>
      <trkpt lat="60.1100845337" lon="15.5635433197">
        <ele>0</ele>
        <time>2013-05-01T12:41:21Z</time>
      </trkpt>
      <trkpt lat="60.110042572" lon="15.5635309219">
        <ele>0</ele>
        <time>2013-05-01T12:41:22Z</time>
      </trkpt>
      <trkpt lat="60.109992981" lon="15.5635166168">
        <ele>0</ele>
        <time>2013-05-01T12:41:23Z</time>
      </trkpt>
      <trkpt lat="60.1099472046" lon="15.5635023117">
        <ele>0</ele>
        <time>2013-05-01T12:41:24Z</time>
      </trkpt>
      <trkpt lat="60.1097297668" lon="15.5634088516">
        <ele>0</ele>
        <time>2013-05-01T12:41:29Z</time>
      </trkpt>
      <trkpt lat="60.1096496582" lon="15.5633764267">
        <ele>0</ele>
        <time>2013-05-01T12:41:31Z</time>
      </trkpt>
      <trkpt lat="60.1095962524" lon="15.5633573532">
        <ele>0</ele>
        <time>2013-05-01T12:41:32Z</time>
      </trkpt>
      <trkpt lat="60.1095504761" lon="15.5633401871">
        <ele>0</ele>
        <time>2013-05-01T12:41:33Z</time>
      </trkpt>
      <trkpt lat="60.109500885" lon="15.5633220673">
        <ele>0</ele>
        <time>2013-05-01T12:41:34Z</time>
      </trkpt>
      <trkpt lat="60.1094512939" lon="15.5633039474">
        <ele>0</ele>
        <time>2013-05-01T12:41:35Z</time>
      </trkpt>
      <trkpt lat="60.1093482971" lon="15.5632715225">
        <ele>0</ele>
        <time>2013-05-01T12:41:37Z</time>
      </trkpt>
      <trkpt lat="60.1091423035" lon="15.5632343292">
        <ele>0</ele>
        <time>2013-05-01T12:41:41Z</time>
      </trkpt>
      <trkpt lat="60.1088066101" lon="15.5632457733">
        <ele>0</ele>
        <time>2013-05-01T12:41:47Z</time>
      </trkpt>
      <trkpt lat="60.1086349487" lon="15.5632972717">
        <ele>0</ele>
        <time>2013-05-01T12:41:50Z</time>
      </trkpt>
      <trkpt lat="60.1083946228" lon="15.5633850098">
        <ele>0</ele>
        <time>2013-05-01T12:41:54Z</time>
      </trkpt>
      <trkpt lat="60.1083259583" lon="15.5634050369">
        <ele>0</ele>
        <time>2013-05-01T12:41:55Z</time>
      </trkpt>
      <trkpt lat="60.1082649231" lon="15.5634241104">
        <ele>0</ele>
        <time>2013-05-01T12:41:56Z</time>
      </trkpt>
      <trkpt lat="60.1082038879" lon="15.5634460449">
        <ele>0</ele>
        <time>2013-05-01T12:41:57Z</time>
      </trkpt>
      <trkpt lat="60.1081428528" lon="15.5634717941">
        <ele>0</ele>
        <time>2013-05-01T12:41:58Z</time>
      </trkpt>
      <trkpt lat="60.1079559326" lon="15.5635461807">
        <ele>0</ele>
        <time>2013-05-01T12:42:01Z</time>
      </trkpt>
      <trkpt lat="60.1078948975" lon="15.563574791">
        <ele>0</ele>
        <time>2013-05-01T12:42:02Z</time>
      </trkpt>
      <trkpt lat="60.1074485779" lon="15.563791275">
        <ele>0</ele>
        <time>2013-05-01T12:42:09Z</time>
      </trkpt>
      <trkpt lat="60.107383728" lon="15.5638256073">
        <ele>0</ele>
        <time>2013-05-01T12:42:10Z</time>
      </trkpt>
      <trkpt lat="60.1073303223" lon="15.5638542175">
        <ele>0</ele>
        <time>2013-05-01T12:42:11Z</time>
      </trkpt>
      <trkpt lat="60.1072502136" lon="15.563914299">
        <ele>0</ele>
        <time>2013-05-01T12:42:12Z</time>
      </trkpt>
      <trkpt lat="60.1070556641" lon="15.5640945435">
        <ele>0</ele>
        <time>2013-05-01T12:42:15Z</time>
      </trkpt>
      <trkpt lat="60.1069374084" lon="15.5642585754">
        <ele>0</ele>
        <time>2013-05-01T12:42:17Z</time>
      </trkpt>
      <trkpt lat="60.106716156" lon="15.5646390915">
        <ele>0</ele>
        <time>2013-05-01T12:42:21Z</time>
      </trkpt>
      <trkpt lat="60.1066589355" lon="15.5647382736">
        <ele>0</ele>
        <time>2013-05-01T12:42:22Z</time>
      </trkpt>
      <trkpt lat="60.1065940857" lon="15.5648536682">
        <ele>0</ele>
        <time>2013-05-01T12:42:23Z</time>
      </trkpt>
      <trkpt lat="60.1065368652" lon="15.5649557114">
        <ele>0</ele>
        <time>2013-05-01T12:42:24Z</time>
      </trkpt>
      <trkpt lat="60.1064109802" lon="15.5651760101">
        <ele>0</ele>
        <time>2013-05-01T12:42:26Z</time>
      </trkpt>
      <trkpt lat="60.1062889099" lon="15.5653924942">
        <ele>0</ele>
        <time>2013-05-01T12:42:28Z</time>
      </trkpt>
      <trkpt lat="60.1062278748" lon="15.5655031204">
        <ele>0</ele>
        <time>2013-05-01T12:42:29Z</time>
      </trkpt>
      <trkpt lat="60.1061668396" lon="15.5656099319">
        <ele>0</ele>
        <time>2013-05-01T12:42:30Z</time>
      </trkpt>
      <trkpt lat="60.1061172485" lon="15.5656938553">
        <ele>0</ele>
        <time>2013-05-01T12:42:31Z</time>
      </trkpt>
      <trkpt lat="60.1059913635" lon="15.5659208298">
        <ele>0</ele>
        <time>2013-05-01T12:42:33Z</time>
      </trkpt>
      <trkpt lat="60.1059341431" lon="15.5660209656">
        <ele>0</ele>
        <time>2013-05-01T12:42:34Z</time>
      </trkpt>
      <trkpt lat="60.1058120728" lon="15.5662355423">
        <ele>0</ele>
        <time>2013-05-01T12:42:36Z</time>
      </trkpt>
      <trkpt lat="60.1057548523" lon="15.5663461685">
        <ele>0</ele>
        <time>2013-05-01T12:42:37Z</time>
      </trkpt>
      <trkpt lat="60.1056365967" lon="15.5665521622">
        <ele>0</ele>
        <time>2013-05-01T12:42:39Z</time>
      </trkpt>
      <trkpt lat="60.1055145264" lon="15.5667619705">
        <ele>0</ele>
        <time>2013-05-01T12:42:41Z</time>
      </trkpt>
      <trkpt lat="60.1054573059" lon="15.5668640137">
        <ele>0</ele>
        <time>2013-05-01T12:42:42Z</time>
      </trkpt>
      <trkpt lat="60.1051139832" lon="15.5674581528">
        <ele>0</ele>
        <time>2013-05-01T12:42:48Z</time>
      </trkpt>
      <trkpt lat="60.105014801" lon="15.5676517487">
        <ele>0</ele>
        <time>2013-05-01T12:42:50Z</time>
      </trkpt>
      <trkpt lat="60.1049728394" lon="15.5677289963">
        <ele>0</ele>
        <time>2013-05-01T12:42:51Z</time>
      </trkpt>
      <trkpt lat="60.1049194336" lon="15.5678253174">
        <ele>0</ele>
        <time>2013-05-01T12:42:52Z</time>
      </trkpt>
      <trkpt lat="60.104850769" lon="15.5679416656">
        <ele>0</ele>
        <time>2013-05-01T12:42:53Z</time>
      </trkpt>
      <trkpt lat="60.1047935486" lon="15.5680370331">
        <ele>0</ele>
        <time>2013-05-01T12:42:54Z</time>
      </trkpt>
      <trkpt lat="60.1047286987" lon="15.5681247711">
        <ele>0</ele>
        <time>2013-05-01T12:42:55Z</time>
      </trkpt>
      <trkpt lat="60.1046676636" lon="15.5682115555">
        <ele>0</ele>
        <time>2013-05-01T12:42:56Z</time>
      </trkpt>
      <trkpt lat="60.1046104431" lon="15.5682973862">
        <ele>0</ele>
        <time>2013-05-01T12:42:57Z</time>
      </trkpt>
      <trkpt lat="60.1044998169" lon="15.5684957504">
        <ele>0</ele>
        <time>2013-05-01T12:42:59Z</time>
      </trkpt>
      <trkpt lat="60.1044006348" lon="15.5686950684">
        <ele>0</ele>
        <time>2013-05-01T12:43:01Z</time>
      </trkpt>
      <trkpt lat="60.1043586731" lon="15.5687828064">
        <ele>0</ele>
        <time>2013-05-01T12:43:02Z</time>
      </trkpt>
      <trkpt lat="60.1040420532" lon="15.5694503784">
        <ele>0</ele>
        <time>2013-05-01T12:43:09Z</time>
      </trkpt>
      <trkpt lat="60.1040000916" lon="15.5695466995">
        <ele>0</ele>
        <time>2013-05-01T12:43:10Z</time>
      </trkpt>
      <trkpt lat="60.103969574" lon="15.5696172714">
        <ele>0</ele>
        <time>2013-05-01T12:43:11Z</time>
      </trkpt>
      <trkpt lat="60.1039123535" lon="15.5697431564">
        <ele>0</ele>
        <time>2013-05-01T12:43:12Z</time>
      </trkpt>
      <trkpt lat="60.1038703918" lon="15.5698347092">
        <ele>0</ele>
        <time>2013-05-01T12:43:13Z</time>
      </trkpt>
      <trkpt lat="60.1038322449" lon="15.5699100494">
        <ele>0</ele>
        <time>2013-05-01T12:43:14Z</time>
      </trkpt>
      <trkpt lat="60.1037025452" lon="15.5701532364">
        <ele>0</ele>
        <time>2013-05-01T12:43:17Z</time>
      </trkpt>
      <trkpt lat="60.1035499573" lon="15.5704641342">
        <ele>0</ele>
        <time>2013-05-01T12:43:21Z</time>
      </trkpt>
      <trkpt lat="60.1035118103" lon="15.5705299377">
        <ele>0</ele>
        <time>2013-05-01T12:43:22Z</time>
      </trkpt>
      <trkpt lat="60.1034317017" lon="15.5706748962">
        <ele>0</ele>
        <time>2013-05-01T12:43:24Z</time>
      </trkpt>
      <trkpt lat="60.1033592224" lon="15.570813179">
        <ele>0</ele>
        <time>2013-05-01T12:43:26Z</time>
      </trkpt>
      <trkpt lat="60.1033248901" lon="15.5708789825">
        <ele>0</ele>
        <time>2013-05-01T12:43:27Z</time>
      </trkpt>
      <trkpt lat="60.1032867432" lon="15.5709428787">
        <ele>0</ele>
        <time>2013-05-01T12:43:28Z</time>
      </trkpt>
      <trkpt lat="60.103187561" lon="15.5711288452">
        <ele>0</ele>
        <time>2013-05-01T12:43:31Z</time>
      </trkpt>
      <trkpt lat="60.1031494141" lon="15.5712137222">
        <ele>0</ele>
        <time>2013-05-01T12:43:32Z</time>
      </trkpt>
      <trkpt lat="60.1031150818" lon="15.5712852478">
        <ele>0</ele>
        <time>2013-05-01T12:43:33Z</time>
      </trkpt>
      <trkpt lat="60.1030883789" lon="15.5713615417">
        <ele>0</ele>
        <time>2013-05-01T12:43:34Z</time>
      </trkpt>
      <trkpt lat="60.1030807495" lon="15.5713863373">
        <ele>0</ele>
        <time>2013-05-01T12:43:35Z</time>
      </trkpt>
      <trkpt lat="60.1030387878" lon="15.5715227127">
        <ele>0</ele>
        <time>2013-05-01T12:43:36Z</time>
      </trkpt>
      <trkpt lat="60.102973938" lon="15.5718326569">
        <ele>0</ele>
        <time>2013-05-01T12:43:39Z</time>
      </trkpt>
      <trkpt lat="60.1029586792" lon="15.5719480515">
        <ele>0</ele>
        <time>2013-05-01T12:43:40Z</time>
      </trkpt>
      <trkpt lat="60.1029510498" lon="15.5720672607">
        <ele>0</ele>
        <time>2013-05-01T12:43:41Z</time>
      </trkpt>
      <trkpt lat="60.1029472351" lon="15.5721912384">
        <ele>0</ele>
        <time>2013-05-01T12:43:42Z</time>
      </trkpt>
      <trkpt lat="60.1029510498" lon="15.5724830627">
        <ele>0</ele>
        <time>2013-05-01T12:43:44Z</time>
      </trkpt>
      <trkpt lat="60.1029548645" lon="15.5727825165">
        <ele>0</ele>
        <time>2013-05-01T12:43:46Z</time>
      </trkpt>
      <trkpt lat="60.1029624939" lon="15.5729417801">
        <ele>0</ele>
        <time>2013-05-01T12:43:47Z</time>
      </trkpt>
      <trkpt lat="60.1029815674" lon="15.5734043121">
        <ele>0</ele>
        <time>2013-05-01T12:43:50Z</time>
      </trkpt>
      <trkpt lat="60.1029853821" lon="15.5735254288">
        <ele>0</ele>
        <time>2013-05-01T12:43:51Z</time>
      </trkpt>
      <trkpt lat="60.1029891968" lon="15.5737104416">
        <ele>0</ele>
        <time>2013-05-01T12:43:52Z</time>
      </trkpt>
      <trkpt lat="60.1030197144" lon="15.5746212006">
        <ele>0</ele>
        <time>2013-05-01T12:43:58Z</time>
      </trkpt>
      <trkpt lat="60.1030235291" lon="15.574763298">
        <ele>0</ele>
        <time>2013-05-01T12:43:59Z</time>
      </trkpt>
      <trkpt lat="60.1030349731" lon="15.5750398636">
        <ele>0</ele>
        <time>2013-05-01T12:44:01Z</time>
      </trkpt>
      <trkpt lat="60.1030426025" lon="15.5751800537">
        <ele>0</ele>
        <time>2013-05-01T12:44:02Z</time>
      </trkpt>
      <trkpt lat="60.1030502319" lon="15.5754652023">
        <ele>0</ele>
        <time>2013-05-01T12:44:04Z</time>
      </trkpt>
      <trkpt lat="60.1030578613" lon="15.5756082535">
        <ele>0</ele>
        <time>2013-05-01T12:44:05Z</time>
      </trkpt>
      <trkpt lat="60.1030654907" lon="15.5757446289">
        <ele>0</ele>
        <time>2013-05-01T12:44:06Z</time>
      </trkpt>
      <trkpt lat="60.1030693054" lon="15.575881958">
        <ele>0</ele>
        <time>2013-05-01T12:44:07Z</time>
      </trkpt>
      <trkpt lat="60.1030883789" lon="15.5761547089">
        <ele>0</ele>
        <time>2013-05-01T12:44:09Z</time>
      </trkpt>
      <trkpt lat="60.1030921936" lon="15.5762681961">
        <ele>0</ele>
        <time>2013-05-01T12:44:10Z</time>
      </trkpt>
      <trkpt lat="60.1030921936" lon="15.5763683319">
        <ele>0</ele>
        <time>2013-05-01T12:44:11Z</time>
      </trkpt>
      <trkpt lat="60.1031036377" lon="15.5765151978">
        <ele>0</ele>
        <time>2013-05-01T12:44:12Z</time>
      </trkpt>
      <trkpt lat="60.1031265259" lon="15.5769777298">
        <ele>0</ele>
        <time>2013-05-01T12:44:16Z</time>
      </trkpt>
      <trkpt lat="60.1031303406" lon="15.577091217">
        <ele>0</ele>
        <time>2013-05-01T12:44:17Z</time>
      </trkpt>
      <trkpt lat="60.1031417847" lon="15.5773057938">
        <ele>0</ele>
        <time>2013-05-01T12:44:19Z</time>
      </trkpt>
      <trkpt lat="60.1031570435" lon="15.5775403976">
        <ele>0</ele>
        <time>2013-05-01T12:44:21Z</time>
      </trkpt>
      <trkpt lat="60.1031646729" lon="15.5776481628">
        <ele>0</ele>
        <time>2013-05-01T12:44:22Z</time>
      </trkpt>
      <trkpt lat="60.1031646729" lon="15.5777807236">
        <ele>0</ele>
        <time>2013-05-01T12:44:23Z</time>
      </trkpt>
      <trkpt lat="60.1031799316" lon="15.5781602859">
        <ele>0</ele>
        <time>2013-05-01T12:44:26Z</time>
      </trkpt>
      <trkpt lat="60.1031799316" lon="15.5782871246">
        <ele>0</ele>
        <time>2013-05-01T12:44:27Z</time>
      </trkpt>
      <trkpt lat="60.1031913757" lon="15.5786581039">
        <ele>0</ele>
        <time>2013-05-01T12:44:30Z</time>
      </trkpt>
      <trkpt lat="60.103187561" lon="15.5787696838">
        <ele>0</ele>
        <time>2013-05-01T12:44:31Z</time>
      </trkpt>
      <trkpt lat="60.1031799316" lon="15.5789289474">
        <ele>0</ele>
        <time>2013-05-01T12:44:32Z</time>
      </trkpt>
      <trkpt lat="60.1031646729" lon="15.5791769028">
        <ele>0</ele>
        <time>2013-05-01T12:44:34Z</time>
      </trkpt>
      <trkpt lat="60.1031532288" lon="15.5793066025">
        <ele>0</ele>
        <time>2013-05-01T12:44:35Z</time>
      </trkpt>
      <trkpt lat="60.1031341553" lon="15.5794324875">
        <ele>0</ele>
        <time>2013-05-01T12:44:36Z</time>
      </trkpt>
      <trkpt lat="60.1031112671" lon="15.5795564651">
        <ele>0</ele>
        <time>2013-05-01T12:44:37Z</time>
      </trkpt>
      <trkpt lat="60.1030044556" lon="15.5800275803">
        <ele>0</ele>
        <time>2013-05-01T12:44:41Z</time>
      </trkpt>
      <trkpt lat="60.1029777527" lon="15.5801420212">
        <ele>0</ele>
        <time>2013-05-01T12:44:42Z</time>
      </trkpt>
      <trkpt lat="60.1027488708" lon="15.58091259">
        <ele>0</ele>
        <time>2013-05-01T12:44:49Z</time>
      </trkpt>
      <trkpt lat="60.1027183533" lon="15.5810089111">
        <ele>0</ele>
        <time>2013-05-01T12:44:50Z</time>
      </trkpt>
      <trkpt lat="60.1026802063" lon="15.5811758041">
        <ele>0</ele>
        <time>2013-05-01T12:44:52Z</time>
      </trkpt>
      <trkpt lat="60.1026496887" lon="15.5812807083">
        <ele>0</ele>
        <time>2013-05-01T12:44:53Z</time>
      </trkpt>
      <trkpt lat="60.1026229858" lon="15.5813627243">
        <ele>0</ele>
        <time>2013-05-01T12:44:54Z</time>
      </trkpt>
      <trkpt lat="60.1025695801" lon="15.5815353394">
        <ele>0</ele>
        <time>2013-05-01T12:44:56Z</time>
      </trkpt>
      <trkpt lat="60.1025505066" lon="15.5816116333">
        <ele>0</ele>
        <time>2013-05-01T12:44:57Z</time>
      </trkpt>
      <trkpt lat="60.1025314331" lon="15.5816907883">
        <ele>0</ele>
        <time>2013-05-01T12:44:58Z</time>
      </trkpt>
      <trkpt lat="60.1025123596" lon="15.5817565918">
        <ele>0</ele>
        <time>2013-05-01T12:44:59Z</time>
      </trkpt>
      <trkpt lat="60.1024856567" lon="15.5818815231">
        <ele>0</ele>
        <time>2013-05-01T12:45:01Z</time>
      </trkpt>
      <trkpt lat="60.1024551392" lon="15.5819482803">
        <ele>0</ele>
        <time>2013-05-01T12:45:02Z</time>
      </trkpt>
      <trkpt lat="60.1024131775" lon="15.5820894241">
        <ele>0</ele>
        <time>2013-05-01T12:45:04Z</time>
      </trkpt>
      <trkpt lat="60.1023902893" lon="15.5821638107">
        <ele>0</ele>
        <time>2013-05-01T12:45:05Z</time>
      </trkpt>
      <trkpt lat="60.1023712158" lon="15.5822267532">
        <ele>0</ele>
        <time>2013-05-01T12:45:06Z</time>
      </trkpt>
      <trkpt lat="60.1023178101" lon="15.5823783875">
        <ele>0</ele>
        <time>2013-05-01T12:45:08Z</time>
      </trkpt>
      <trkpt lat="60.1022567749" lon="15.5825576782">
        <ele>0</ele>
        <time>2013-05-01T12:45:11Z</time>
      </trkpt>
      <trkpt lat="60.102230072" lon="15.5826425552">
        <ele>0</ele>
        <time>2013-05-01T12:45:12Z</time>
      </trkpt>
      <trkpt lat="60.1021270752" lon="15.5830001831">
        <ele>0</ele>
        <time>2013-05-01T12:45:17Z</time>
      </trkpt>
      <trkpt lat="60.1020507812" lon="15.5832805634">
        <ele>0</ele>
        <time>2013-05-01T12:45:21Z</time>
      </trkpt>
      <trkpt lat="60.1020278931" lon="15.5833444595">
        <ele>0</ele>
        <time>2013-05-01T12:45:22Z</time>
      </trkpt>
      <trkpt lat="60.1020050049" lon="15.5834207535">
        <ele>0</ele>
        <time>2013-05-01T12:45:23Z</time>
      </trkpt>
      <trkpt lat="60.1019821167" lon="15.583486557">
        <ele>0</ele>
        <time>2013-05-01T12:45:24Z</time>
      </trkpt>
      <trkpt lat="60.1019554138" lon="15.5835609436">
        <ele>0</ele>
        <time>2013-05-01T12:45:25Z</time>
      </trkpt>
      <trkpt lat="60.1019134521" lon="15.5836925507">
        <ele>0</ele>
        <time>2013-05-01T12:45:27Z</time>
      </trkpt>
      <trkpt lat="60.1017951965" lon="15.5840482712">
        <ele>0</ele>
        <time>2013-05-01T12:45:32Z</time>
      </trkpt>
      <trkpt lat="60.1017227173" lon="15.5842628479">
        <ele>0</ele>
        <time>2013-05-01T12:45:35Z</time>
      </trkpt>
      <trkpt lat="60.1017036438" lon="15.5843286514">
        <ele>0</ele>
        <time>2013-05-01T12:45:36Z</time>
      </trkpt>
      <trkpt lat="60.1016845703" lon="15.5843982697">
        <ele>0</ele>
        <time>2013-05-01T12:45:37Z</time>
      </trkpt>
      <trkpt lat="60.1016464233" lon="15.5845241547">
        <ele>0</ele>
        <time>2013-05-01T12:45:39Z</time>
      </trkpt>
      <trkpt lat="60.1016235352" lon="15.5845994949">
        <ele>0</ele>
        <time>2013-05-01T12:45:40Z</time>
      </trkpt>
      <trkpt lat="60.101600647" lon="15.5846691132">
        <ele>0</ele>
        <time>2013-05-01T12:45:41Z</time>
      </trkpt>
      <trkpt lat="60.1015319824" lon="15.5848846436">
        <ele>0</ele>
        <time>2013-05-01T12:45:44Z</time>
      </trkpt>
      <trkpt lat="60.1015129089" lon="15.5849618912">
        <ele>0</ele>
        <time>2013-05-01T12:45:45Z</time>
      </trkpt>
      <trkpt lat="60.1014442444" lon="15.5852775574">
        <ele>0</ele>
        <time>2013-05-01T12:45:49Z</time>
      </trkpt>
      <trkpt lat="60.1014289856" lon="15.585360527">
        <ele>0</ele>
        <time>2013-05-01T12:45:50Z</time>
      </trkpt>
      <trkpt lat="60.1014099121" lon="15.585521698">
        <ele>0</ele>
        <time>2013-05-01T12:45:52Z</time>
      </trkpt>
      <trkpt lat="60.101398468" lon="15.5856351852">
        <ele>0</ele>
        <time>2013-05-01T12:45:53Z</time>
      </trkpt>
      <trkpt lat="60.1013870239" lon="15.5858383179">
        <ele>0</ele>
        <time>2013-05-01T12:45:55Z</time>
      </trkpt>
      <trkpt lat="60.1014099121" lon="15.5861434937">
        <ele>0</ele>
        <time>2013-05-01T12:45:58Z</time>
      </trkpt>
      <trkpt lat="60.1014213562" lon="15.5862579346">
        <ele>0</ele>
        <time>2013-05-01T12:45:59Z</time>
      </trkpt>
      <trkpt lat="60.1014404297" lon="15.5864830017">
        <ele>0</ele>
        <time>2013-05-01T12:46:01Z</time>
      </trkpt>
      <trkpt lat="60.1014518738" lon="15.5865926743">
        <ele>0</ele>
        <time>2013-05-01T12:46:02Z</time>
      </trkpt>
      <trkpt lat="60.1014671326" lon="15.5867080688">
        <ele>0</ele>
        <time>2013-05-01T12:46:03Z</time>
      </trkpt>
      <trkpt lat="60.1014823914" lon="15.5868148804">
        <ele>0</ele>
        <time>2013-05-01T12:46:04Z</time>
      </trkpt>
      <trkpt lat="60.1014938354" lon="15.5869216919">
        <ele>0</ele>
        <time>2013-05-01T12:46:05Z</time>
      </trkpt>
      <trkpt lat="60.1015701294" lon="15.5874109268">
        <ele>0</ele>
        <time>2013-05-01T12:46:10Z</time>
      </trkpt>
      <trkpt lat="60.1016693115" lon="15.5879993439">
        <ele>0</ele>
        <time>2013-05-01T12:46:16Z</time>
      </trkpt>
      <trkpt lat="60.1016960144" lon="15.5881023407">
        <ele>0</ele>
        <time>2013-05-01T12:46:17Z</time>
      </trkpt>
      <trkpt lat="60.1017494202" lon="15.588300705">
        <ele>0</ele>
        <time>2013-05-01T12:46:19Z</time>
      </trkpt>
      <trkpt lat="60.1018486023" lon="15.5885858536">
        <ele>0</ele>
        <time>2013-05-01T12:46:22Z</time>
      </trkpt>
      <trkpt lat="60.101890564" lon="15.5887022018">
        <ele>0</ele>
        <time>2013-05-01T12:46:23Z</time>
      </trkpt>
      <trkpt lat="60.1020889282" lon="15.5892295837">
        <ele>0</ele>
        <time>2013-05-01T12:46:29Z</time>
      </trkpt>
      <trkpt lat="60.1021194458" lon="15.5893154144">
        <ele>0</ele>
        <time>2013-05-01T12:46:30Z</time>
      </trkpt>
      <trkpt lat="60.1021385193" lon="15.5893764496">
        <ele>0</ele>
        <time>2013-05-01T12:46:31Z</time>
      </trkpt>
      <trkpt lat="60.1021652222" lon="15.5894880295">
        <ele>0</ele>
        <time>2013-05-01T12:46:32Z</time>
      </trkpt>
      <trkpt lat="60.1022071838" lon="15.5896511078">
        <ele>0</ele>
        <time>2013-05-01T12:46:34Z</time>
      </trkpt>
      <trkpt lat="60.1022415161" lon="15.5898447037">
        <ele>0</ele>
        <time>2013-05-01T12:46:36Z</time>
      </trkpt>
      <trkpt lat="60.1022567749" lon="15.5899543762">
        <ele>0</ele>
        <time>2013-05-01T12:46:37Z</time>
      </trkpt>
      <trkpt lat="60.1022720337" lon="15.590051651">
        <ele>0</ele>
        <time>2013-05-01T12:46:38Z</time>
      </trkpt>
      <trkpt lat="60.1022911072" lon="15.5901489258">
        <ele>0</ele>
        <time>2013-05-01T12:46:39Z</time>
      </trkpt>
      <trkpt lat="60.1023292542" lon="15.5903482437">
        <ele>0</ele>
        <time>2013-05-01T12:46:41Z</time>
      </trkpt>
      <trkpt lat="60.1023483276" lon="15.5904474258">
        <ele>0</ele>
        <time>2013-05-01T12:46:42Z</time>
      </trkpt>
      <trkpt lat="60.1024284363" lon="15.5909786224">
        <ele>0</ele>
        <time>2013-05-01T12:46:47Z</time>
      </trkpt>
      <trkpt lat="60.1025009155" lon="15.591381073">
        <ele>0</ele>
        <time>2013-05-01T12:46:51Z</time>
      </trkpt>
      <trkpt lat="60.1025276184" lon="15.5915899277">
        <ele>0</ele>
        <time>2013-05-01T12:46:53Z</time>
      </trkpt>
      <trkpt lat="60.1025543213" lon="15.5917901993">
        <ele>0</ele>
        <time>2013-05-01T12:46:55Z</time>
      </trkpt>
      <trkpt lat="60.1025390625" lon="15.5919675827">
        <ele>0</ele>
        <time>2013-05-01T12:46:57Z</time>
      </trkpt>
      <trkpt lat="60.1025123596" lon="15.592045784">
        <ele>0</ele>
        <time>2013-05-01T12:46:58Z</time>
      </trkpt>
      <trkpt lat="60.1024627686" lon="15.5920562744">
        <ele>0</ele>
        <time>2013-05-01T12:46:59Z</time>
      </trkpt>
      <trkpt lat="60.1024093628" lon="15.5920572281">
        <ele>0</ele>
        <time>2013-05-01T12:47:00Z</time>
      </trkpt>
      <trkpt lat="60.1023674011" lon="15.5920524597">
        <ele>0</ele>
        <time>2013-05-01T12:47:01Z</time>
      </trkpt>
      <trkpt lat="60.1022605896" lon="15.5920267105">
        <ele>0</ele>
        <time>2013-05-01T12:47:03Z</time>
      </trkpt>
      <trkpt lat="60.1020431519" lon="15.5919456482">
        <ele>0</ele>
        <time>2013-05-01T12:47:07Z</time>
      </trkpt>
      <trkpt lat="60.1018791199" lon="15.5919075012">
        <ele>0</ele>
        <time>2013-05-01T12:47:10Z</time>
      </trkpt>
      <trkpt lat="60.1016616821" lon="15.5918951035">
        <ele>0</ele>
        <time>2013-05-01T12:47:14Z</time>
      </trkpt>
      <trkpt lat="60.1015968323" lon="15.5918998718">
        <ele>0</ele>
        <time>2013-05-01T12:47:15Z</time>
      </trkpt>
      <trkpt lat="60.1015319824" lon="15.5919084549">
        <ele>0</ele>
        <time>2013-05-01T12:47:16Z</time>
      </trkpt>
      <trkpt lat="60.1014671326" lon="15.5919084549">
        <ele>0</ele>
        <time>2013-05-01T12:47:17Z</time>
      </trkpt>
      <trkpt lat="60.1013374329" lon="15.5919046402">
        <ele>0</ele>
        <time>2013-05-01T12:47:19Z</time>
      </trkpt>
      <trkpt lat="60.1012039185" lon="15.5918893814">
        <ele>0</ele>
        <time>2013-05-01T12:47:21Z</time>
      </trkpt>
      <trkpt lat="60.1011390686" lon="15.5918798447">
        <ele>0</ele>
        <time>2013-05-01T12:47:22Z</time>
      </trkpt>
      <trkpt lat="60.1007499695" lon="15.5918569565">
        <ele>0</ele>
        <time>2013-05-01T12:47:28Z</time>
      </trkpt>
      <trkpt lat="60.1006965637" lon="15.5918693542">
        <ele>0</ele>
        <time>2013-05-01T12:47:29Z</time>
      </trkpt>
      <trkpt lat="60.1005859375" lon="15.5918798447">
        <ele>0</ele>
        <time>2013-05-01T12:47:31Z</time>
      </trkpt>
      <trkpt lat="60.1005134583" lon="15.5918712616">
        <ele>0</ele>
        <time>2013-05-01T12:47:32Z</time>
      </trkpt>
      <trkpt lat="60.1004562378" lon="15.5918636322">
        <ele>0</ele>
        <time>2013-05-01T12:47:33Z</time>
      </trkpt>
      <trkpt lat="60.1003379822" lon="15.5918550491">
        <ele>0</ele>
        <time>2013-05-01T12:47:35Z</time>
      </trkpt>
      <trkpt lat="60.100112915" lon="15.5918560028">
        <ele>0</ele>
        <time>2013-05-01T12:47:39Z</time>
      </trkpt>
      <trkpt lat="60.1000595093" lon="15.5918588638">
        <ele>0</ele>
        <time>2013-05-01T12:47:40Z</time>
      </trkpt>
      <trkpt lat="60.1000022888" lon="15.5918626785">
        <ele>0</ele>
        <time>2013-05-01T12:47:41Z</time>
      </trkpt>
      <trkpt lat="60.0999412537" lon="15.5918645859">
        <ele>0</ele>
        <time>2013-05-01T12:47:42Z</time>
      </trkpt>
      <trkpt lat="60.0995674133" lon="15.5918216705">
        <ele>0</ele>
        <time>2013-05-01T12:47:48Z</time>
      </trkpt>
      <trkpt lat="60.0993232727" lon="15.5917825699">
        <ele>0</ele>
        <time>2013-05-01T12:47:52Z</time>
      </trkpt>
      <trkpt lat="60.0992546082" lon="15.5917663574">
        <ele>0</ele>
        <time>2013-05-01T12:47:53Z</time>
      </trkpt>
      <trkpt lat="60.099193573" lon="15.591753006">
        <ele>0</ele>
        <time>2013-05-01T12:47:54Z</time>
      </trkpt>
      <trkpt lat="60.0991249084" lon="15.5917367935">
        <ele>0</ele>
        <time>2013-05-01T12:47:55Z</time>
      </trkpt>
      <trkpt lat="60.0990638733" lon="15.5917253494">
        <ele>0</ele>
        <time>2013-05-01T12:47:56Z</time>
      </trkpt>
      <trkpt lat="60.0990028381" lon="15.5917243958">
        <ele>0</ele>
        <time>2013-05-01T12:47:57Z</time>
      </trkpt>
      <trkpt lat="60.09897995" lon="15.5917291641">
        <ele>0</ele>
        <time>2013-05-01T12:47:58Z</time>
      </trkpt>
      <trkpt lat="60.0987625122" lon="15.5917434692">
        <ele>0</ele>
        <time>2013-05-01T12:48:01Z</time>
      </trkpt>
      <trkpt lat="60.0987091064" lon="15.5917463303">
        <ele>0</ele>
        <time>2013-05-01T12:48:02Z</time>
      </trkpt>
      <trkpt lat="60.098651886" lon="15.5917491913">
        <ele>0</ele>
        <time>2013-05-01T12:48:03Z</time>
      </trkpt>
      <trkpt lat="60.0984649658" lon="15.5917253494">
        <ele>0</ele>
        <time>2013-05-01T12:48:07Z</time>
      </trkpt>
      <trkpt lat="60.0983810425" lon="15.5916938782">
        <ele>0</ele>
        <time>2013-05-01T12:48:09Z</time>
      </trkpt>
      <trkpt lat="60.0982322693" lon="15.5916166306">
        <ele>0</ele>
        <time>2013-05-01T12:48:13Z</time>
      </trkpt>
      <trkpt lat="60.098197937" lon="15.5915985107">
        <ele>0</ele>
        <time>2013-05-01T12:48:14Z</time>
      </trkpt>
      <trkpt lat="60.0981369019" lon="15.5915489197">
        <ele>0</ele>
        <time>2013-05-01T12:48:16Z</time>
      </trkpt>
      <trkpt lat="60.0981063843" lon="15.5915365219">
        <ele>0</ele>
        <time>2013-05-01T12:48:17Z</time>
      </trkpt>
      <trkpt lat="60.0980796814" lon="15.5915260315">
        <ele>0</ele>
        <time>2013-05-01T12:48:18Z</time>
      </trkpt>
      <trkpt lat="60.0980567932" lon="15.5915050507">
        <ele>0.8</ele>
        <time>2013-05-01T12:48:19Z</time>
      </trkpt>
      <trkpt lat="60.0980262756" lon="15.5914888382">
        <ele>0.8</ele>
        <time>2013-05-01T12:48:20Z</time>
      </trkpt>
      <trkpt lat="60.0980033875" lon="15.5914735794">
        <ele>1</ele>
        <time>2013-05-01T12:48:21Z</time>
      </trkpt>
      <trkpt lat="60.0979728699" lon="15.5914583206">
        <ele>0.8</ele>
        <time>2013-05-01T12:48:22Z</time>
      </trkpt>
      <trkpt lat="60.09790802" lon="15.5914478302">
        <ele>1.6</ele>
        <time>2013-05-01T12:48:24Z</time>
      </trkpt>
      <trkpt lat="60.0978546143" lon="15.5914325714">
        <ele>1.6</ele>
        <time>2013-05-01T12:48:26Z</time>
      </trkpt>
      <trkpt lat="60.0977859497" lon="15.5914134979">
        <ele>2</ele>
        <time>2013-05-01T12:48:28Z</time>
      </trkpt>
      <trkpt lat="60.0977554321" lon="15.5913991928">
        <ele>1.6</ele>
        <time>2013-05-01T12:48:29Z</time>
      </trkpt>
      <trkpt lat="60.097618103" lon="15.5913677216">
        <ele>1.6</ele>
        <time>2013-05-01T12:48:33Z</time>
      </trkpt>
      <trkpt lat="60.0975799561" lon="15.5913543701">
        <ele>1.6</ele>
        <time>2013-05-01T12:48:34Z</time>
      </trkpt>
      <trkpt lat="60.0975227356" lon="15.5913505554">
        <ele>1.6</ele>
        <time>2013-05-01T12:48:35Z</time>
      </trkpt>
      <trkpt lat="60.0973625183" lon="15.5913286209">
        <ele>1.6</ele>
        <time>2013-05-01T12:48:38Z</time>
      </trkpt>
      <trkpt lat="60.0973014832" lon="15.5913162231">
        <ele>1.6</ele>
        <time>2013-05-01T12:48:39Z</time>
      </trkpt>
      <trkpt lat="60.0971755981" lon="15.5913038254">
        <ele>1.6</ele>
        <time>2013-05-01T12:48:41Z</time>
      </trkpt>
      <trkpt lat="60.0971031189" lon="15.5912866592">
        <ele>1.6</ele>
        <time>2013-05-01T12:48:42Z</time>
      </trkpt>
      <trkpt lat="60.0970191956" lon="15.5912809372">
        <ele>1.6</ele>
        <time>2013-05-01T12:48:43Z</time>
      </trkpt>
      <trkpt lat="60.0969429016" lon="15.59126091">
        <ele>0</ele>
        <time>2013-05-01T12:48:44Z</time>
      </trkpt>
      <trkpt lat="60.0968589783" lon="15.5912466049">
        <ele>0</ele>
        <time>2013-05-01T12:48:45Z</time>
      </trkpt>
      <trkpt lat="60.0966796875" lon="15.5912313461">
        <ele>0</ele>
        <time>2013-05-01T12:48:47Z</time>
      </trkpt>
      <trkpt lat="60.0963783264" lon="15.591176033">
        <ele>0</ele>
        <time>2013-05-01T12:48:50Z</time>
      </trkpt>
      <trkpt lat="60.0963096619" lon="15.5911502838">
        <ele>0</ele>
        <time>2013-05-01T12:48:51Z</time>
      </trkpt>
      <trkpt lat="60.0961952209" lon="15.5911073685">
        <ele>0</ele>
        <time>2013-05-01T12:48:52Z</time>
      </trkpt>
      <trkpt lat="60.0960769653" lon="15.5910463333">
        <ele>0</ele>
        <time>2013-05-01T12:48:53Z</time>
      </trkpt>
      <trkpt lat="60.0958786011" lon="15.590924263">
        <ele>0</ele>
        <time>2013-05-01T12:48:55Z</time>
      </trkpt>
      <trkpt lat="60.0957946777" lon="15.5908575058">
        <ele>0</ele>
        <time>2013-05-01T12:48:56Z</time>
      </trkpt>
      <trkpt lat="60.0955657959" lon="15.5906162262">
        <ele>0</ele>
        <time>2013-05-01T12:48:59Z</time>
      </trkpt>
      <trkpt lat="60.0954360962" lon="15.5904598236">
        <ele>0</ele>
        <time>2013-05-01T12:49:01Z</time>
      </trkpt>
      <trkpt lat="60.095375061" lon="15.5903873444">
        <ele>0</ele>
        <time>2013-05-01T12:49:02Z</time>
      </trkpt>
      <trkpt lat="60.0953140259" lon="15.5903158188">
        <ele>0</ele>
        <time>2013-05-01T12:49:03Z</time>
      </trkpt>
      <trkpt lat="60.0952072144" lon="15.5901575089">
        <ele>0</ele>
        <time>2013-05-01T12:49:05Z</time>
      </trkpt>
      <trkpt lat="60.0951499939" lon="15.5900735855">
        <ele>0</ele>
        <time>2013-05-01T12:49:06Z</time>
      </trkpt>
      <trkpt lat="60.0951004028" lon="15.5899934769">
        <ele>0</ele>
        <time>2013-05-01T12:49:07Z</time>
      </trkpt>
      <trkpt lat="60.0950050354" lon="15.5898513794">
        <ele>0</ele>
        <time>2013-05-01T12:49:09Z</time>
      </trkpt>
      <trkpt lat="60.0949249268" lon="15.5897274017">
        <ele>0</ele>
        <time>2013-05-01T12:49:11Z</time>
      </trkpt>
      <trkpt lat="60.0948791504" lon="15.5896425247">
        <ele>0</ele>
        <time>2013-05-01T12:49:12Z</time>
      </trkpt>
      <trkpt lat="60.0947532654" lon="15.5894298553">
        <ele>0</ele>
        <time>2013-05-01T12:49:15Z</time>
      </trkpt>
      <trkpt lat="60.0947113037" lon="15.5893621445">
        <ele>0</ele>
        <time>2013-05-01T12:49:16Z</time>
      </trkpt>
      <trkpt lat="60.094493866" lon="15.5890140533">
        <ele>0</ele>
        <time>2013-05-01T12:49:21Z</time>
      </trkpt>
      <trkpt lat="60.0944519043" lon="15.5889511108">
        <ele>0</ele>
        <time>2013-05-01T12:49:22Z</time>
      </trkpt>
      <trkpt lat="60.0943946838" lon="15.5888834">
        <ele>0</ele>
        <time>2013-05-01T12:49:23Z</time>
      </trkpt>
      <trkpt lat="60.0943412781" lon="15.5888309479">
        <ele>0</ele>
        <time>2013-05-01T12:49:24Z</time>
      </trkpt>
      <trkpt lat="60.0941772461" lon="15.588681221">
        <ele>0</ele>
        <time>2013-05-01T12:49:27Z</time>
      </trkpt>
      <trkpt lat="60.0941200256" lon="15.5886325836">
        <ele>0</ele>
        <time>2013-05-01T12:49:28Z</time>
      </trkpt>
      <trkpt lat="60.0940666199" lon="15.5886096954">
        <ele>0</ele>
        <time>2013-05-01T12:49:29Z</time>
      </trkpt>
      <trkpt lat="60.0939788818" lon="15.588561058">
        <ele>0</ele>
        <time>2013-05-01T12:49:31Z</time>
      </trkpt>
      <trkpt lat="60.0938796997" lon="15.5884780884">
        <ele>0</ele>
        <time>2013-05-01T12:49:33Z</time>
      </trkpt>
      <trkpt lat="60.093837738" lon="15.5884304047">
        <ele>0</ele>
        <time>2013-05-01T12:49:34Z</time>
      </trkpt>
      <trkpt lat="60.0937957764" lon="15.588385582">
        <ele>0</ele>
        <time>2013-05-01T12:49:35Z</time>
      </trkpt>
      <trkpt lat="60.0937576294" lon="15.588341713">
        <ele>0</ele>
        <time>2013-05-01T12:49:36Z</time>
      </trkpt>
      <trkpt lat="60.093711853" lon="15.5882816315">
        <ele>0</ele>
        <time>2013-05-01T12:49:37Z</time>
      </trkpt>
      <trkpt lat="60.0935745239" lon="15.5880565643">
        <ele>0</ele>
        <time>2013-05-01T12:49:40Z</time>
      </trkpt>
      <trkpt lat="60.0935287476" lon="15.5879745483">
        <ele>0</ele>
        <time>2013-05-01T12:49:41Z</time>
      </trkpt>
      <trkpt lat="60.0934753418" lon="15.5878791809">
        <ele>0</ele>
        <time>2013-05-01T12:49:42Z</time>
      </trkpt>
      <trkpt lat="60.0932846069" lon="15.5875368118">
        <ele>0</ele>
        <time>2013-05-01T12:49:46Z</time>
      </trkpt>
      <trkpt lat="60.0932273865" lon="15.5874490738">
        <ele>0</ele>
        <time>2013-05-01T12:49:47Z</time>
      </trkpt>
      <trkpt lat="60.0931587219" lon="15.5873556137">
        <ele>0</ele>
        <time>2013-05-01T12:49:48Z</time>
      </trkpt>
      <trkpt lat="60.0930900574" lon="15.5872735977">
        <ele>0</ele>
        <time>2013-05-01T12:49:49Z</time>
      </trkpt>
      <trkpt lat="60.0930213928" lon="15.5871925354">
        <ele>0</ele>
        <time>2013-05-01T12:49:50Z</time>
      </trkpt>
      <trkpt lat="60.0929718018" lon="15.5871505737">
        <ele>0</ele>
        <time>2013-05-01T12:49:51Z</time>
      </trkpt>
      <trkpt lat="60.0928688049" lon="15.5870819092">
        <ele>0</ele>
        <time>2013-05-01T12:49:52Z</time>
      </trkpt>
      <trkpt lat="60.092792511" lon="15.5870313644">
        <ele>0</ele>
        <time>2013-05-01T12:49:53Z</time>
      </trkpt>
      <trkpt lat="60.0927238464" lon="15.5870018005">
        <ele>0</ele>
        <time>2013-05-01T12:49:54Z</time>
      </trkpt>
      <trkpt lat="60.0926246643" lon="15.5869750977">
        <ele>0</ele>
        <time>2013-05-01T12:49:55Z</time>
      </trkpt>
      <trkpt lat="60.0925445557" lon="15.5869579315">
        <ele>0</ele>
        <time>2013-05-01T12:49:56Z</time>
      </trkpt>
      <trkpt lat="60.0924606323" lon="15.5869531631">
        <ele>0</ele>
        <time>2013-05-01T12:49:57Z</time>
      </trkpt>
      <trkpt lat="60.0923805237" lon="15.5869379044">
        <ele>0</ele>
        <time>2013-05-01T12:49:58Z</time>
      </trkpt>
      <trkpt lat="60.0922927856" lon="15.5869560242">
        <ele>0</ele>
        <time>2013-05-01T12:49:59Z</time>
      </trkpt>
      <trkpt lat="60.092124939" lon="15.586979866">
        <ele>0</ele>
        <time>2013-05-01T12:50:01Z</time>
      </trkpt>
      <trkpt lat="60.0920372009" lon="15.5869894028">
        <ele>0</ele>
        <time>2013-05-01T12:50:02Z</time>
      </trkpt>
      <trkpt lat="60.0919494629" lon="15.5869951248">
        <ele>0</ele>
        <time>2013-05-01T12:50:03Z</time>
      </trkpt>
      <trkpt lat="60.0916976929" lon="15.5870189667">
        <ele>0</ele>
        <time>2013-05-01T12:50:06Z</time>
      </trkpt>
      <trkpt lat="60.0916023254" lon="15.587023735">
        <ele>0</ele>
        <time>2013-05-01T12:50:07Z</time>
      </trkpt>
      <trkpt lat="60.0915145874" lon="15.5870342255">
        <ele>0</ele>
        <time>2013-05-01T12:50:08Z</time>
      </trkpt>
      <trkpt lat="60.0914459229" lon="15.5870380402">
        <ele>0</ele>
        <time>2013-05-01T12:50:09Z</time>
      </trkpt>
      <trkpt lat="60.0913581848" lon="15.5870428085">
        <ele>0</ele>
        <time>2013-05-01T12:50:10Z</time>
      </trkpt>
      <trkpt lat="60.091178894" lon="15.5870304108">
        <ele>0</ele>
        <time>2013-05-01T12:50:12Z</time>
      </trkpt>
      <trkpt lat="60.0909919739" lon="15.5870132446">
        <ele>0</ele>
        <time>2013-05-01T12:50:14Z</time>
      </trkpt>
      <trkpt lat="60.0908889771" lon="15.5869884491">
        <ele>0</ele>
        <time>2013-05-01T12:50:15Z</time>
      </trkpt>
      <trkpt lat="60.0907936096" lon="15.5869684219">
        <ele>0</ele>
        <time>2013-05-01T12:50:16Z</time>
      </trkpt>
      <trkpt lat="60.0906944275" lon="15.5869636536">
        <ele>0</ele>
        <time>2013-05-01T12:50:17Z</time>
      </trkpt>
      <trkpt lat="60.0906028748" lon="15.5869541168">
        <ele>0</ele>
        <time>2013-05-01T12:50:18Z</time>
      </trkpt>
      <trkpt lat="60.0903167725" lon="15.5869226456">
        <ele>0</ele>
        <time>2013-05-01T12:50:21Z</time>
      </trkpt>
      <trkpt lat="60.0899658203" lon="15.5868682861">
        <ele>0</ele>
        <time>2013-05-01T12:50:25Z</time>
      </trkpt>
      <trkpt lat="60.0898857117" lon="15.58685112">
        <ele>0</ele>
        <time>2013-05-01T12:50:26Z</time>
      </trkpt>
      <trkpt lat="60.0898094177" lon="15.5868263245">
        <ele>0</ele>
        <time>2013-05-01T12:50:27Z</time>
      </trkpt>
      <trkpt lat="60.0897331238" lon="15.5867958069">
        <ele>0</ele>
        <time>2013-05-01T12:50:28Z</time>
      </trkpt>
      <trkpt lat="60.0896568298" lon="15.5867576599">
        <ele>0</ele>
        <time>2013-05-01T12:50:29Z</time>
      </trkpt>
      <trkpt lat="60.0895805359" lon="15.5867195129">
        <ele>0</ele>
        <time>2013-05-01T12:50:30Z</time>
      </trkpt>
      <trkpt lat="60.0895271301" lon="15.5866851807">
        <ele>0</ele>
        <time>2013-05-01T12:50:31Z</time>
      </trkpt>
      <trkpt lat="60.0894317627" lon="15.5865955353">
        <ele>0</ele>
        <time>2013-05-01T12:50:32Z</time>
      </trkpt>
      <trkpt lat="60.0892791748" lon="15.5864248276">
        <ele>0</ele>
        <time>2013-05-01T12:50:34Z</time>
      </trkpt>
      <trkpt lat="60.0892066956" lon="15.5862979889">
        <ele>0</ele>
        <time>2013-05-01T12:50:35Z</time>
      </trkpt>
      <trkpt lat="60.0890731812" lon="15.5860490799">
        <ele>0</ele>
        <time>2013-05-01T12:50:37Z</time>
      </trkpt>
      <trkpt lat="60.0890083313" lon="15.5859241486">
        <ele>0</ele>
        <time>2013-05-01T12:50:38Z</time>
      </trkpt>
      <trkpt lat="60.0889358521" lon="15.585770607">
        <ele>0</ele>
        <time>2013-05-01T12:50:39Z</time>
      </trkpt>
      <trkpt lat="60.0888595581" lon="15.5856208801">
        <ele>0</ele>
        <time>2013-05-01T12:50:40Z</time>
      </trkpt>
      <trkpt lat="60.0886306763" lon="15.5852022171">
        <ele>0</ele>
        <time>2013-05-01T12:50:43Z</time>
      </trkpt>
      <trkpt lat="60.0885543823" lon="15.5850839615">
        <ele>0</ele>
        <time>2013-05-01T12:50:44Z</time>
      </trkpt>
      <trkpt lat="60.0884552002" lon="15.5849561691">
        <ele>0</ele>
        <time>2013-05-01T12:50:45Z</time>
      </trkpt>
      <trkpt lat="60.0883598328" lon="15.5848426819">
        <ele>0</ele>
        <time>2013-05-01T12:50:46Z</time>
      </trkpt>
      <trkpt lat="60.0882492065" lon="15.5847587585">
        <ele>0</ele>
        <time>2013-05-01T12:50:47Z</time>
      </trkpt>
      <trkpt lat="60.0881385803" lon="15.5846767426">
        <ele>0</ele>
        <time>2013-05-01T12:50:48Z</time>
      </trkpt>
      <trkpt lat="60.0880317688" lon="15.5846014023">
        <ele>0</ele>
        <time>2013-05-01T12:50:49Z</time>
      </trkpt>
      <trkpt lat="60.0879211426" lon="15.5845308304">
        <ele>0</ele>
        <time>2013-05-01T12:50:50Z</time>
      </trkpt>
      <trkpt lat="60.0878295898" lon="15.5844831467">
        <ele>0</ele>
        <time>2013-05-01T12:50:51Z</time>
      </trkpt>
      <trkpt lat="60.0876731873" lon="15.5844373703">
        <ele>0</ele>
        <time>2013-05-01T12:50:52Z</time>
      </trkpt>
      <trkpt lat="60.0875549316" lon="15.5844211578">
        <ele>0</ele>
        <time>2013-05-01T12:50:53Z</time>
      </trkpt>
      <trkpt lat="60.0873298645" lon="15.5844526291">
        <ele>0</ele>
        <time>2013-05-01T12:50:55Z</time>
      </trkpt>
      <trkpt lat="60.0871162415" lon="15.5846166611">
        <ele>0</ele>
        <time>2013-05-01T12:50:57Z</time>
      </trkpt>
      <trkpt lat="60.0870857239" lon="15.5846843719">
        <ele>0</ele>
        <time>2013-05-01T12:50:58Z</time>
      </trkpt>
      <trkpt lat="60.0867652893" lon="15.5851688385">
        <ele>0</ele>
        <time>2013-05-01T12:51:01Z</time>
      </trkpt>
      <trkpt lat="60.0866737366" lon="15.58527565">
        <ele>0</ele>
        <time>2013-05-01T12:51:02Z</time>
      </trkpt>
      <trkpt lat="60.0865821838" lon="15.5853385925">
        <ele>0</ele>
        <time>2013-05-01T12:51:03Z</time>
      </trkpt>
      <trkpt lat="60.0864944458" lon="15.5854053497">
        <ele>0</ele>
        <time>2013-05-01T12:51:04Z</time>
      </trkpt>
      <trkpt lat="60.0864181519" lon="15.5854358673">
        <ele>0</ele>
        <time>2013-05-01T12:51:05Z</time>
      </trkpt>
      <trkpt lat="60.0863380432" lon="15.5854701996">
        <ele>0</ele>
        <time>2013-05-01T12:51:06Z</time>
      </trkpt>
      <trkpt lat="60.0862731934" lon="15.585477829">
        <ele>0</ele>
        <time>2013-05-01T12:51:07Z</time>
      </trkpt>
      <trkpt lat="60.0862121582" lon="15.585483551">
        <ele>0</ele>
        <time>2013-05-01T12:51:08Z</time>
      </trkpt>
      <trkpt lat="60.0861587524" lon="15.5854845047">
        <ele>0</ele>
        <time>2013-05-01T12:51:09Z</time>
      </trkpt>
      <trkpt lat="60.0860595703" lon="15.5854625702">
        <ele>0</ele>
        <time>2013-05-01T12:51:11Z</time>
      </trkpt>
      <trkpt lat="60.0860023499" lon="15.5854282379">
        <ele>0</ele>
        <time>2013-05-01T12:51:12Z</time>
      </trkpt>
      <trkpt lat="60.0859184265" lon="15.5853796005">
        <ele>0</ele>
        <time>2013-05-01T12:51:14Z</time>
      </trkpt>
      <trkpt lat="60.0858345032" lon="15.5853242874">
        <ele>0</ele>
        <time>2013-05-01T12:51:16Z</time>
      </trkpt>
      <trkpt lat="60.0857963562" lon="15.5853013992">
        <ele>0</ele>
        <time>2013-05-01T12:51:17Z</time>
      </trkpt>
      <trkpt lat="60.0856704712" lon="15.5852460861">
        <ele>0</ele>
        <time>2013-05-01T12:51:20Z</time>
      </trkpt>
      <trkpt lat="60.0856285095" lon="15.5852308273">
        <ele>0</ele>
        <time>2013-05-01T12:51:21Z</time>
      </trkpt>
      <trkpt lat="60.0855903625" lon="15.5852117538">
        <ele>0</ele>
        <time>2013-05-01T12:51:22Z</time>
      </trkpt>
      <trkpt lat="60.0855369568" lon="15.5852022171">
        <ele>0</ele>
        <time>2013-05-01T12:51:23Z</time>
      </trkpt>
      <trkpt lat="60.0854949951" lon="15.5851917267">
        <ele>0</ele>
        <time>2013-05-01T12:51:24Z</time>
      </trkpt>
      <trkpt lat="60.0854454041" lon="15.5851840973">
        <ele>0</ele>
        <time>2013-05-01T12:51:25Z</time>
      </trkpt>
      <trkpt lat="60.0853500366" lon="15.5851917267">
        <ele>0</ele>
        <time>2013-05-01T12:51:27Z</time>
      </trkpt>
      <trkpt lat="60.0853004456" lon="15.5852060318">
        <ele>0</ele>
        <time>2013-05-01T12:51:28Z</time>
      </trkpt>
      <trkpt lat="60.0852508545" lon="15.5852165222">
        <ele>0</ele>
        <time>2013-05-01T12:51:29Z</time>
      </trkpt>
      <trkpt lat="60.0851135254" lon="15.5852766037">
        <ele>0</ele>
        <time>2013-05-01T12:51:32Z</time>
      </trkpt>
      <trkpt lat="60.0850563049" lon="15.5853042603">
        <ele>0</ele>
        <time>2013-05-01T12:51:33Z</time>
      </trkpt>
      <trkpt lat="60.0850105286" lon="15.5853319168">
        <ele>0</ele>
        <time>2013-05-01T12:51:34Z</time>
      </trkpt>
      <trkpt lat="60.0849151611" lon="15.5853862762">
        <ele>0</ele>
        <time>2013-05-01T12:51:36Z</time>
      </trkpt>
      <trkpt lat="60.0848655701" lon="15.5854091644">
        <ele>0</ele>
        <time>2013-05-01T12:51:37Z</time>
      </trkpt>
      <trkpt lat="60.0847244263" lon="15.5854940414">
        <ele>0</ele>
        <time>2013-05-01T12:51:40Z</time>
      </trkpt>
      <trkpt lat="60.0846786499" lon="15.5855226517">
        <ele>0</ele>
        <time>2013-05-01T12:51:41Z</time>
      </trkpt>
      <trkpt lat="60.0846328735" lon="15.5855493546">
        <ele>0</ele>
        <time>2013-05-01T12:51:42Z</time>
      </trkpt>
      <trkpt lat="60.0843467712" lon="15.5857219696">
        <ele>0</ele>
        <time>2013-05-01T12:51:48Z</time>
      </trkpt>
      <trkpt lat="60.0843009949" lon="15.5857439041">
        <ele>0</ele>
        <time>2013-05-01T12:51:49Z</time>
      </trkpt>
      <trkpt lat="60.0842170715" lon="15.5857830048">
        <ele>0</ele>
        <time>2013-05-01T12:51:51Z</time>
      </trkpt>
      <trkpt lat="60.0841636658" lon="15.5858125687">
        <ele>0</ele>
        <time>2013-05-01T12:51:52Z</time>
      </trkpt>
      <trkpt lat="60.08411026" lon="15.5858488083">
        <ele>0</ele>
        <time>2013-05-01T12:51:53Z</time>
      </trkpt>
      <trkpt lat="60.0840530396" lon="15.5858802795">
        <ele>0</ele>
        <time>2013-05-01T12:51:54Z</time>
      </trkpt>
      <trkpt lat="60.0839996338" lon="15.5859050751">
        <ele>0</ele>
        <time>2013-05-01T12:51:55Z</time>
      </trkpt>
      <trkpt lat="60.083946228" lon="15.5859327316">
        <ele>0</ele>
        <time>2013-05-01T12:51:56Z</time>
      </trkpt>
      <trkpt lat="60.0838928223" lon="15.5859508514">
        <ele>0</ele>
        <time>2013-05-01T12:51:57Z</time>
      </trkpt>
      <trkpt lat="60.0836753845" lon="15.5860471725">
        <ele>0</ele>
        <time>2013-05-01T12:52:01Z</time>
      </trkpt>
      <trkpt lat="60.0836181641" lon="15.5860567093">
        <ele>0</ele>
        <time>2013-05-01T12:52:02Z</time>
      </trkpt>
      <trkpt lat="60.0835533142" lon="15.5860681534">
        <ele>0</ele>
        <time>2013-05-01T12:52:03Z</time>
      </trkpt>
      <trkpt lat="60.083190918" lon="15.5860452652">
        <ele>0</ele>
        <time>2013-05-01T12:52:09Z</time>
      </trkpt>
      <trkpt lat="60.0830154419" lon="15.5860042572">
        <ele>0</ele>
        <time>2013-05-01T12:52:12Z</time>
      </trkpt>
      <trkpt lat="60.0829582214" lon="15.5860004425">
        <ele>0</ele>
        <time>2013-05-01T12:52:13Z</time>
      </trkpt>
      <trkpt lat="60.0828933716" lon="15.585981369">
        <ele>0</ele>
        <time>2013-05-01T12:52:14Z</time>
      </trkpt>
      <trkpt lat="60.0827636719" lon="15.5859546661">
        <ele>0</ele>
        <time>2013-05-01T12:52:16Z</time>
      </trkpt>
      <trkpt lat="60.0827064514" lon="15.585940361">
        <ele>0</ele>
        <time>2013-05-01T12:52:17Z</time>
      </trkpt>
      <trkpt lat="60.0825195312" lon="15.5859174728">
        <ele>0</ele>
        <time>2013-05-01T12:52:20Z</time>
      </trkpt>
      <trkpt lat="60.0824584961" lon="15.5859146118">
        <ele>0</ele>
        <time>2013-05-01T12:52:21Z</time>
      </trkpt>
      <trkpt lat="60.0824012756" lon="15.5859136581">
        <ele>0</ele>
        <time>2013-05-01T12:52:22Z</time>
      </trkpt>
      <trkpt lat="60.0823326111" lon="15.5859107971">
        <ele>0</ele>
        <time>2013-05-01T12:52:23Z</time>
      </trkpt>
      <trkpt lat="60.0821495056" lon="15.5859174728">
        <ele>0</ele>
        <time>2013-05-01T12:52:26Z</time>
      </trkpt>
      <trkpt lat="60.0820884705" lon="15.5859136581">
        <ele>0</ele>
        <time>2013-05-01T12:52:27Z</time>
      </trkpt>
      <trkpt lat="60.08203125" lon="15.5859193802">
        <ele>0</ele>
        <time>2013-05-01T12:52:28Z</time>
      </trkpt>
      <trkpt lat="60.0819702148" lon="15.5859241486">
        <ele>0</ele>
        <time>2013-05-01T12:52:29Z</time>
      </trkpt>
      <trkpt lat="60.0817985535" lon="15.5859003067">
        <ele>0</ele>
        <time>2013-05-01T12:52:32Z</time>
      </trkpt>
      <trkpt lat="60.0817451477" lon="15.5858793259">
        <ele>0</ele>
        <time>2013-05-01T12:52:33Z</time>
      </trkpt>
      <trkpt lat="60.0816879272" lon="15.5858430862">
        <ele>0</ele>
        <time>2013-05-01T12:52:34Z</time>
      </trkpt>
      <trkpt lat="60.0816307068" lon="15.5857906342">
        <ele>0</ele>
        <time>2013-05-01T12:52:35Z</time>
      </trkpt>
      <trkpt lat="60.0815811157" lon="15.5857429504">
        <ele>0</ele>
        <time>2013-05-01T12:52:36Z</time>
      </trkpt>
      <trkpt lat="60.08152771" lon="15.5856838226">
        <ele>0</ele>
        <time>2013-05-01T12:52:37Z</time>
      </trkpt>
      <trkpt lat="60.0814781189" lon="15.5856304169">
        <ele>0</ele>
        <time>2013-05-01T12:52:38Z</time>
      </trkpt>
      <trkpt lat="60.0811386108" lon="15.5852470398">
        <ele>0</ele>
        <time>2013-05-01T12:52:44Z</time>
      </trkpt>
      <trkpt lat="60.0808372498" lon="15.5848989487">
        <ele>0</ele>
        <time>2013-05-01T12:52:49Z</time>
      </trkpt>
      <trkpt lat="60.0807876587" lon="15.5848436356">
        <ele>0</ele>
        <time>2013-05-01T12:52:50Z</time>
      </trkpt>
      <trkpt lat="60.0807304382" lon="15.5847768784">
        <ele>0</ele>
        <time>2013-05-01T12:52:51Z</time>
      </trkpt>
      <trkpt lat="60.0806655884" lon="15.584687233">
        <ele>0</ele>
        <time>2013-05-01T12:52:52Z</time>
      </trkpt>
      <trkpt lat="60.0805931091" lon="15.5845384598">
        <ele>0</ele>
        <time>2013-05-01T12:52:53Z</time>
      </trkpt>
      <trkpt lat="60.0805358887" lon="15.5844087601">
        <ele>0</ele>
        <time>2013-05-01T12:52:54Z</time>
      </trkpt>
      <trkpt lat="60.0804862976" lon="15.5842189789">
        <ele>0</ele>
        <time>2013-05-01T12:52:55Z</time>
      </trkpt>
      <trkpt lat="60.0804405212" lon="15.5840511322">
        <ele>0</ele>
        <time>2013-05-01T12:52:56Z</time>
      </trkpt>
      <trkpt lat="60.0803909302" lon="15.5838956833">
        <ele>0</ele>
        <time>2013-05-01T12:52:57Z</time>
      </trkpt>
      <trkpt lat="60.0802650452" lon="15.5836229324">
        <ele>0</ele>
        <time>2013-05-01T12:52:59Z</time>
      </trkpt>
      <trkpt lat="60.0801887512" lon="15.5834989548">
        <ele>0</ele>
        <time>2013-05-01T12:53:00Z</time>
      </trkpt>
      <trkpt lat="60.0801239014" lon="15.5834159851">
        <ele>0</ele>
        <time>2013-05-01T12:53:01Z</time>
      </trkpt>
      <trkpt lat="60.0799674988" lon="15.5832767487">
        <ele>0</ele>
        <time>2013-05-01T12:53:03Z</time>
      </trkpt>
      <trkpt lat="60.0798110962" lon="15.5832061768">
        <ele>0</ele>
        <time>2013-05-01T12:53:05Z</time>
      </trkpt>
      <trkpt lat="60.0796661377" lon="15.5831747055">
        <ele>0</ele>
        <time>2013-05-01T12:53:07Z</time>
      </trkpt>
      <trkpt lat="60.0794639587" lon="15.5831518173">
        <ele>0</ele>
        <time>2013-05-01T12:53:10Z</time>
      </trkpt>
      <trkpt lat="60.0794258118" lon="15.5831489563">
        <ele>0</ele>
        <time>2013-05-01T12:53:11Z</time>
      </trkpt>
      <trkpt lat="60.0792617798" lon="15.583114624">
        <ele>0</ele>
        <time>2013-05-01T12:53:13Z</time>
      </trkpt>
      <trkpt lat="60.0791854858" lon="15.583114624">
        <ele>0</ele>
        <time>2013-05-01T12:53:14Z</time>
      </trkpt>
      <trkpt lat="60.0791015625" lon="15.583108902">
        <ele>0</ele>
        <time>2013-05-01T12:53:15Z</time>
      </trkpt>
      <trkpt lat="60.0790176392" lon="15.5831041336">
        <ele>0</ele>
        <time>2013-05-01T12:53:16Z</time>
      </trkpt>
      <trkpt lat="60.0789260864" lon="15.5830812454">
        <ele>0</ele>
        <time>2013-05-01T12:53:17Z</time>
      </trkpt>
      <trkpt lat="60.0787506104" lon="15.583024025">
        <ele>0</ele>
        <time>2013-05-01T12:53:19Z</time>
      </trkpt>
      <trkpt lat="60.0786552429" lon="15.5830011368">
        <ele>0</ele>
        <time>2013-05-01T12:53:20Z</time>
      </trkpt>
      <trkpt lat="60.0785598755" lon="15.5829763412">
        <ele>0</ele>
        <time>2013-05-01T12:53:21Z</time>
      </trkpt>
      <trkpt lat="60.0784645081" lon="15.582950592">
        <ele>0</ele>
        <time>2013-05-01T12:53:22Z</time>
      </trkpt>
      <trkpt lat="60.0783653259" lon="15.5829029083">
        <ele>0</ele>
        <time>2013-05-01T12:53:23Z</time>
      </trkpt>
      <trkpt lat="60.0781593323" lon="15.5827817917">
        <ele>0</ele>
        <time>2013-05-01T12:53:25Z</time>
      </trkpt>
      <trkpt lat="60.0780639648" lon="15.5827207565">
        <ele>0</ele>
        <time>2013-05-01T12:53:26Z</time>
      </trkpt>
      <trkpt lat="60.0779685974" lon="15.5823764801">
        <ele>0</ele>
        <time>2013-05-01T12:53:28Z</time>
      </trkpt>
      <trkpt lat="60.077911377" lon="15.582159996">
        <ele>0</ele>
        <time>2013-05-01T12:53:29Z</time>
      </trkpt>
      <trkpt lat="60.077835083" lon="15.5818510056">
        <ele>0</ele>
        <time>2013-05-01T12:53:31Z</time>
      </trkpt>
      <trkpt lat="60.0777397156" lon="15.5814561844">
        <ele>0</ele>
        <time>2013-05-01T12:53:33Z</time>
      </trkpt>
      <trkpt lat="60.0776977539" lon="15.5812749863">
        <ele>0</ele>
        <time>2013-05-01T12:53:34Z</time>
      </trkpt>
      <trkpt lat="60.0776519775" lon="15.5810842514">
        <ele>0</ele>
        <time>2013-05-01T12:53:35Z</time>
      </trkpt>
      <trkpt lat="60.0776062012" lon="15.5809173584">
        <ele>0</ele>
        <time>2013-05-01T12:53:36Z</time>
      </trkpt>
      <trkpt lat="60.077545166" lon="15.5807380676">
        <ele>0</ele>
        <time>2013-05-01T12:53:37Z</time>
      </trkpt>
      <trkpt lat="60.0774002075" lon="15.5804376602">
        <ele>0</ele>
        <time>2013-05-01T12:53:39Z</time>
      </trkpt>
      <trkpt lat="60.0773239136" lon="15.5803041458">
        <ele>0</ele>
        <time>2013-05-01T12:53:40Z</time>
      </trkpt>
      <trkpt lat="60.0772361755" lon="15.5801715851">
        <ele>0</ele>
        <time>2013-05-01T12:53:41Z</time>
      </trkpt>
      <trkpt lat="60.0771446228" lon="15.5800437927">
        <ele>0</ele>
        <time>2013-05-01T12:53:42Z</time>
      </trkpt>
      <trkpt lat="60.0770149231" lon="15.5799856186">
        <ele>0</ele>
        <time>2013-05-01T12:53:43Z</time>
      </trkpt>
      <trkpt lat="60.0769119263" lon="15.5799446106">
        <ele>0</ele>
        <time>2013-05-01T12:53:44Z</time>
      </trkpt>
      <trkpt lat="60.0766983032" lon="15.5798807144">
        <ele>0</ele>
        <time>2013-05-01T12:53:46Z</time>
      </trkpt>
      <trkpt lat="60.0765953064" lon="15.5798616409">
        <ele>0</ele>
        <time>2013-05-01T12:53:47Z</time>
      </trkpt>
      <trkpt lat="60.0765037537" lon="15.5798397064">
        <ele>0</ele>
        <time>2013-05-01T12:53:48Z</time>
      </trkpt>
      <trkpt lat="60.076335907" lon="15.5797977448">
        <ele>0</ele>
        <time>2013-05-01T12:53:50Z</time>
      </trkpt>
      <trkpt lat="60.0762825012" lon="15.5797815323">
        <ele>0</ele>
        <time>2013-05-01T12:53:51Z</time>
      </trkpt>
      <trkpt lat="60.0761985779" lon="15.5797615051">
        <ele>0</ele>
        <time>2013-05-01T12:53:52Z</time>
      </trkpt>
      <trkpt lat="60.0761222839" lon="15.5797433853">
        <ele>0</ele>
        <time>2013-05-01T12:53:53Z</time>
      </trkpt>
      <trkpt lat="60.0760574341" lon="15.5797204971">
        <ele>0</ele>
        <time>2013-05-01T12:53:54Z</time>
      </trkpt>
      <trkpt lat="60.0759315491" lon="15.5796661377">
        <ele>0</ele>
        <time>2013-05-01T12:53:56Z</time>
      </trkpt>
      <trkpt lat="60.0758705139" lon="15.5796356201">
        <ele>0</ele>
        <time>2013-05-01T12:53:57Z</time>
      </trkpt>
      <trkpt lat="60.0757904053" lon="15.5796022415">
        <ele>0</ele>
        <time>2013-05-01T12:53:59Z</time>
      </trkpt>
      <trkpt lat="60.0756950378" lon="15.5795526505">
        <ele>0</ele>
        <time>2013-05-01T12:54:00Z</time>
      </trkpt>
      <trkpt lat="60.0755310059" lon="15.5794286728">
        <ele>0</ele>
        <time>2013-05-01T12:54:03Z</time>
      </trkpt>
      <trkpt lat="60.0754776001" lon="15.5793790817">
        <ele>0</ele>
        <time>2013-05-01T12:54:04Z</time>
      </trkpt>
      <trkpt lat="60.0754241943" lon="15.5793266296">
        <ele>0</ele>
        <time>2013-05-01T12:54:05Z</time>
      </trkpt>
      <trkpt lat="60.0753173828" lon="15.5792160034">
        <ele>0</ele>
        <time>2013-05-01T12:54:07Z</time>
      </trkpt>
      <trkpt lat="60.0752601624" lon="15.5791692734">
        <ele>0</ele>
        <time>2013-05-01T12:54:08Z</time>
      </trkpt>
      <trkpt lat="60.0751495361" lon="15.5791273117">
        <ele>0</ele>
        <time>2013-05-01T12:54:10Z</time>
      </trkpt>
      <trkpt lat="60.0751075745" lon="15.5791530609">
        <ele>0</ele>
        <time>2013-05-01T12:54:11Z</time>
      </trkpt>
      <trkpt lat="60.0750465393" lon="15.579205513">
        <ele>0</ele>
        <time>2013-05-01T12:54:12Z</time>
      </trkpt>
      <trkpt lat="60.0749893188" lon="15.579287529">
        <ele>0</ele>
        <time>2013-05-01T12:54:13Z</time>
      </trkpt>
      <trkpt lat="60.0749397278" lon="15.5793533325">
        <ele>0</ele>
        <time>2013-05-01T12:54:14Z</time>
      </trkpt>
      <trkpt lat="60.0746116638" lon="15.5798339844">
        <ele>0</ele>
        <time>2013-05-01T12:54:21Z</time>
      </trkpt>
      <trkpt lat="60.0745544434" lon="15.579911232">
        <ele>0</ele>
        <time>2013-05-01T12:54:23Z</time>
      </trkpt>
      <trkpt lat="60.0744781494" lon="15.5800123215">
        <ele>0</ele>
        <time>2013-05-01T12:54:24Z</time>
      </trkpt>
      <trkpt lat="60.074382782" lon="15.5801410675">
        <ele>0</ele>
        <time>2013-05-01T12:54:26Z</time>
      </trkpt>
      <trkpt lat="60.0743370056" lon="15.5802030563">
        <ele>0</ele>
        <time>2013-05-01T12:54:27Z</time>
      </trkpt>
      <trkpt lat="60.0742416382" lon="15.5803346634">
        <ele>0</ele>
        <time>2013-05-01T12:54:29Z</time>
      </trkpt>
      <trkpt lat="60.0741424561" lon="15.5804376602">
        <ele>0</ele>
        <time>2013-05-01T12:54:31Z</time>
      </trkpt>
      <trkpt lat="60.0740127563" lon="15.5806035995">
        <ele>0</ele>
        <time>2013-05-01T12:54:33Z</time>
      </trkpt>
      <trkpt lat="60.0739555359" lon="15.5806913376">
        <ele>0</ele>
        <time>2013-05-01T12:54:34Z</time>
      </trkpt>
      <trkpt lat="60.0738334656" lon="15.580862999">
        <ele>0</ele>
        <time>2013-05-01T12:54:36Z</time>
      </trkpt>
      <trkpt lat="60.0737762451" lon="15.5809440613">
        <ele>0</ele>
        <time>2013-05-01T12:54:37Z</time>
      </trkpt>
      <trkpt lat="60.0737228394" lon="15.5810174942">
        <ele>0</ele>
        <time>2013-05-01T12:54:38Z</time>
      </trkpt>
      <trkpt lat="60.0736503601" lon="15.5811109543">
        <ele>0</ele>
        <time>2013-05-01T12:54:39Z</time>
      </trkpt>
      <trkpt lat="60.073589325" lon="15.5811929703">
        <ele>0</ele>
        <time>2013-05-01T12:54:40Z</time>
      </trkpt>
      <trkpt lat="60.0735282898" lon="15.5812768936">
        <ele>0</ele>
        <time>2013-05-01T12:54:41Z</time>
      </trkpt>
      <trkpt lat="60.0734672546" lon="15.5813579559">
        <ele>0</ele>
        <time>2013-05-01T12:54:42Z</time>
      </trkpt>
      <trkpt lat="60.0734024048" lon="15.5814466476">
        <ele>0</ele>
        <time>2013-05-01T12:54:43Z</time>
      </trkpt>
      <trkpt lat="60.0732192993" lon="15.581700325">
        <ele>0</ele>
        <time>2013-05-01T12:54:46Z</time>
      </trkpt>
      <trkpt lat="60.0731506348" lon="15.5817871094">
        <ele>0</ele>
        <time>2013-05-01T12:54:47Z</time>
      </trkpt>
      <trkpt lat="60.0729103088" lon="15.5821123123">
        <ele>0</ele>
        <time>2013-05-01T12:54:51Z</time>
      </trkpt>
      <trkpt lat="60.0727729797" lon="15.5822992325">
        <ele>0</ele>
        <time>2013-05-01T12:54:53Z</time>
      </trkpt>
      <trkpt lat="60.0727081299" lon="15.5823936462">
        <ele>0</ele>
        <time>2013-05-01T12:54:54Z</time>
      </trkpt>
      <trkpt lat="60.0725860596" lon="15.5825872421">
        <ele>0</ele>
        <time>2013-05-01T12:54:56Z</time>
      </trkpt>
      <trkpt lat="60.0725288391" lon="15.5826845169">
        <ele>0</ele>
        <time>2013-05-01T12:54:57Z</time>
      </trkpt>
      <trkpt lat="60.0724143982" lon="15.5828866959">
        <ele>0</ele>
        <time>2013-05-01T12:54:59Z</time>
      </trkpt>
      <trkpt lat="60.0723075867" lon="15.5830993652">
        <ele>0</ele>
        <time>2013-05-01T12:55:01Z</time>
      </trkpt>
      <trkpt lat="60.0722541809" lon="15.5831985474">
        <ele>0</ele>
        <time>2013-05-01T12:55:02Z</time>
      </trkpt>
      <trkpt lat="60.0722084045" lon="15.5832834244">
        <ele>0</ele>
        <time>2013-05-01T12:55:03Z</time>
      </trkpt>
      <trkpt lat="60.07213974" lon="15.5834188461">
        <ele>0</ele>
        <time>2013-05-01T12:55:04Z</time>
      </trkpt>
      <trkpt lat="60.0720787048" lon="15.5835428238">
        <ele>0</ele>
        <time>2013-05-01T12:55:05Z</time>
      </trkpt>
      <trkpt lat="60.0719718933" lon="15.5837888718">
        <ele>0</ele>
        <time>2013-05-01T12:55:07Z</time>
      </trkpt>
      <trkpt lat="60.0718193054" lon="15.5841655731">
        <ele>0</ele>
        <time>2013-05-01T12:55:10Z</time>
      </trkpt>
      <trkpt lat="60.0717849731" lon="15.5842609406">
        <ele>0</ele>
        <time>2013-05-01T12:55:11Z</time>
      </trkpt>
      <trkpt lat="60.0715446472" lon="15.5849704742">
        <ele>0</ele>
        <time>2013-05-01T12:55:16Z</time>
      </trkpt>
      <trkpt lat="60.0715065002" lon="15.5851097107">
        <ele>0</ele>
        <time>2013-05-01T12:55:17Z</time>
      </trkpt>
      <trkpt lat="60.0714683533" lon="15.5852489471">
        <ele>0</ele>
        <time>2013-05-01T12:55:18Z</time>
      </trkpt>
      <trkpt lat="60.071346283" lon="15.5856990814">
        <ele>0</ele>
        <time>2013-05-01T12:55:21Z</time>
      </trkpt>
      <trkpt lat="60.0713119507" lon="15.5858411789">
        <ele>0</ele>
        <time>2013-05-01T12:55:22Z</time>
      </trkpt>
      <trkpt lat="60.0712432861" lon="15.5861711502">
        <ele>0</ele>
        <time>2013-05-01T12:55:24Z</time>
      </trkpt>
      <trkpt lat="60.0712051392" lon="15.5863542557">
        <ele>0</ele>
        <time>2013-05-01T12:55:25Z</time>
      </trkpt>
      <trkpt lat="60.0710716248" lon="15.5871210098">
        <ele>0</ele>
        <time>2013-05-01T12:55:30Z</time>
      </trkpt>
      <trkpt lat="60.0710487366" lon="15.5872564316">
        <ele>0</ele>
        <time>2013-05-01T12:55:31Z</time>
      </trkpt>
      <trkpt lat="60.071018219" lon="15.5874223709">
        <ele>0</ele>
        <time>2013-05-01T12:55:32Z</time>
      </trkpt>
      <trkpt lat="60.0709915161" lon="15.5875988007">
        <ele>0</ele>
        <time>2013-05-01T12:55:33Z</time>
      </trkpt>
      <trkpt lat="60.0709609985" lon="15.5877561569">
        <ele>0</ele>
        <time>2013-05-01T12:55:34Z</time>
      </trkpt>
      <trkpt lat="60.0709075928" lon="15.5880661011">
        <ele>0</ele>
        <time>2013-05-01T12:55:36Z</time>
      </trkpt>
      <trkpt lat="60.0708808899" lon="15.5882234573">
        <ele>0</ele>
        <time>2013-05-01T12:55:37Z</time>
      </trkpt>
      <trkpt lat="60.0708580017" lon="15.5883731842">
        <ele>0</ele>
        <time>2013-05-01T12:55:38Z</time>
      </trkpt>
      <trkpt lat="60.0708312988" lon="15.5885190964">
        <ele>0</ele>
        <time>2013-05-01T12:55:39Z</time>
      </trkpt>
      <trkpt lat="60.0708045959" lon="15.5886583328">
        <ele>0</ele>
        <time>2013-05-01T12:55:40Z</time>
      </trkpt>
      <trkpt lat="60.0707778931" lon="15.5887985229">
        <ele>0</ele>
        <time>2013-05-01T12:55:41Z</time>
      </trkpt>
      <trkpt lat="60.0707511902" lon="15.58893013">
        <ele>0</ele>
        <time>2013-05-01T12:55:42Z</time>
      </trkpt>
      <trkpt lat="60.0707130432" lon="15.5890769958">
        <ele>0</ele>
        <time>2013-05-01T12:55:43Z</time>
      </trkpt>
      <trkpt lat="60.0706443787" lon="15.5893383026">
        <ele>0</ele>
        <time>2013-05-01T12:55:45Z</time>
      </trkpt>
      <trkpt lat="60.0706100464" lon="15.5894680023">
        <ele>0</ele>
        <time>2013-05-01T12:55:46Z</time>
      </trkpt>
      <trkpt lat="60.0705680847" lon="15.5895843506">
        <ele>0</ele>
        <time>2013-05-01T12:55:47Z</time>
      </trkpt>
      <trkpt lat="60.0704154968" lon="15.5900278091">
        <ele>0</ele>
        <time>2013-05-01T12:55:51Z</time>
      </trkpt>
      <trkpt lat="60.0703659058" lon="15.5901584625">
        <ele>0</ele>
        <time>2013-05-01T12:55:52Z</time>
      </trkpt>
      <trkpt lat="60.0703125" lon="15.5903043747">
        <ele>0</ele>
        <time>2013-05-01T12:55:53Z</time>
      </trkpt>
      <trkpt lat="60.0702667236" lon="15.5904283524">
        <ele>0</ele>
        <time>2013-05-01T12:55:54Z</time>
      </trkpt>
      <trkpt lat="60.0702171326" lon="15.5905637741">
        <ele>0</ele>
        <time>2013-05-01T12:55:55Z</time>
      </trkpt>
      <trkpt lat="60.0700340271" lon="15.5910644531">
        <ele>0</ele>
        <time>2013-05-01T12:55:59Z</time>
      </trkpt>
      <trkpt lat="60.0699806213" lon="15.5912075043">
        <ele>0</ele>
        <time>2013-05-01T12:56:00Z</time>
      </trkpt>
      <trkpt lat="60.069934845" lon="15.5913381577">
        <ele>0</ele>
        <time>2013-05-01T12:56:01Z</time>
      </trkpt>
      <trkpt lat="60.0698890686" lon="15.5914621353">
        <ele>0</ele>
        <time>2013-05-01T12:56:02Z</time>
      </trkpt>
      <trkpt lat="60.0698394775" lon="15.5915966034">
        <ele>0</ele>
        <time>2013-05-01T12:56:03Z</time>
      </trkpt>
      <trkpt lat="60.0697898865" lon="15.5917234421">
        <ele>0</ele>
        <time>2013-05-01T12:56:04Z</time>
      </trkpt>
      <trkpt lat="60.0697441101" lon="15.5918426514">
        <ele>0</ele>
        <time>2013-05-01T12:56:05Z</time>
      </trkpt>
      <trkpt lat="60.0696144104" lon="15.5921955109">
        <ele>0</ele>
        <time>2013-05-01T12:56:08Z</time>
      </trkpt>
      <trkpt lat="60.0695762634" lon="15.592300415">
        <ele>0</ele>
        <time>2013-05-01T12:56:09Z</time>
      </trkpt>
      <trkpt lat="60.0695381165" lon="15.5924110413">
        <ele>0</ele>
        <time>2013-05-01T12:56:10Z</time>
      </trkpt>
      <trkpt lat="60.0695075989" lon="15.5924921036">
        <ele>0</ele>
        <time>2013-05-01T12:56:11Z</time>
      </trkpt>
      <trkpt lat="60.0694618225" lon="15.5926198959">
        <ele>0</ele>
        <time>2013-05-01T12:56:12Z</time>
      </trkpt>
      <trkpt lat="60.0694160461" lon="15.5927362442">
        <ele>0</ele>
        <time>2013-05-01T12:56:13Z</time>
      </trkpt>
      <trkpt lat="60.0693778992" lon="15.5928401947">
        <ele>0</ele>
        <time>2013-05-01T12:56:14Z</time>
      </trkpt>
      <trkpt lat="60.0692977905" lon="15.5930500031">
        <ele>0</ele>
        <time>2013-05-01T12:56:16Z</time>
      </trkpt>
      <trkpt lat="60.0692558289" lon="15.5931510925">
        <ele>0</ele>
        <time>2013-05-01T12:56:17Z</time>
      </trkpt>
      <trkpt lat="60.0692176819" lon="15.5932512283">
        <ele>0</ele>
        <time>2013-05-01T12:56:18Z</time>
      </trkpt>
      <trkpt lat="60.0691795349" lon="15.5933485031">
        <ele>0</ele>
        <time>2013-05-01T12:56:19Z</time>
      </trkpt>
      <trkpt lat="60.069103241" lon="15.5935535431">
        <ele>0</ele>
        <time>2013-05-01T12:56:21Z</time>
      </trkpt>
      <trkpt lat="60.0690727234" lon="15.5936498642">
        <ele>0</ele>
        <time>2013-05-01T12:56:22Z</time>
      </trkpt>
      <trkpt lat="60.0688896179" lon="15.5941333771">
        <ele>0</ele>
        <time>2013-05-01T12:56:27Z</time>
      </trkpt>
      <trkpt lat="60.0688552856" lon="15.5942296982">
        <ele>0</ele>
        <time>2013-05-01T12:56:28Z</time>
      </trkpt>
      <trkpt lat="60.0688247681" lon="15.5943174362">
        <ele>0</ele>
        <time>2013-05-01T12:56:29Z</time>
      </trkpt>
      <trkpt lat="60.0687828064" lon="15.5944194794">
        <ele>0</ele>
        <time>2013-05-01T12:56:30Z</time>
      </trkpt>
      <trkpt lat="60.0687522888" lon="15.5944976807">
        <ele>0</ele>
        <time>2013-05-01T12:56:31Z</time>
      </trkpt>
      <trkpt lat="60.0687179565" lon="15.5946111679">
        <ele>0</ele>
        <time>2013-05-01T12:56:32Z</time>
      </trkpt>
      <trkpt lat="60.0686798096" lon="15.5947198868">
        <ele>0</ele>
        <time>2013-05-01T12:56:33Z</time>
      </trkpt>
      <trkpt lat="60.0686531067" lon="15.5948133469">
        <ele>0</ele>
        <time>2013-05-01T12:56:34Z</time>
      </trkpt>
      <trkpt lat="60.0686035156" lon="15.5949325562">
        <ele>0</ele>
        <time>2013-05-01T12:56:35Z</time>
      </trkpt>
      <trkpt lat="60.068561554" lon="15.595035553">
        <ele>0</ele>
        <time>2013-05-01T12:56:36Z</time>
      </trkpt>
      <trkpt lat="60.0685195923" lon="15.5951414108">
        <ele>0</ele>
        <time>2013-05-01T12:56:37Z</time>
      </trkpt>
      <trkpt lat="60.0684318542" lon="15.5953588486">
        <ele>0</ele>
        <time>2013-05-01T12:56:39Z</time>
      </trkpt>
      <trkpt lat="60.0683860779" lon="15.5954723358">
        <ele>0</ele>
        <time>2013-05-01T12:56:40Z</time>
      </trkpt>
      <trkpt lat="60.0683403015" lon="15.5955877304">
        <ele>0</ele>
        <time>2013-05-01T12:56:41Z</time>
      </trkpt>
      <trkpt lat="60.0682907104" lon="15.5956945419">
        <ele>0</ele>
        <time>2013-05-01T12:56:42Z</time>
      </trkpt>
      <trkpt lat="60.0682296753" lon="15.5958280563">
        <ele>0</ele>
        <time>2013-05-01T12:56:43Z</time>
      </trkpt>
      <trkpt lat="60.0679321289" lon="15.5963745117">
        <ele>0</ele>
        <time>2013-05-01T12:56:48Z</time>
      </trkpt>
      <trkpt lat="60.0678710938" lon="15.5964660645">
        <ele>0</ele>
        <time>2013-05-01T12:56:49Z</time>
      </trkpt>
      <trkpt lat="60.0674247742" lon="15.5969877243">
        <ele>0</ele>
        <time>2013-05-01T12:56:56Z</time>
      </trkpt>
      <trkpt lat="60.0671157837" lon="15.5972318649">
        <ele>0</ele>
        <time>2013-05-01T12:57:01Z</time>
      </trkpt>
      <trkpt lat="60.0670585632" lon="15.5972642899">
        <ele>0</ele>
        <time>2013-05-01T12:57:02Z</time>
      </trkpt>
      <trkpt lat="60.0669975281" lon="15.5972976685">
        <ele>0</ele>
        <time>2013-05-01T12:57:03Z</time>
      </trkpt>
      <trkpt lat="60.0669364929" lon="15.5973320007">
        <ele>0</ele>
        <time>2013-05-01T12:57:04Z</time>
      </trkpt>
      <trkpt lat="60.0668754578" lon="15.5973739624">
        <ele>0</ele>
        <time>2013-05-01T12:57:05Z</time>
      </trkpt>
      <trkpt lat="60.0667610168" lon="15.5974416733">
        <ele>0</ele>
        <time>2013-05-01T12:57:07Z</time>
      </trkpt>
      <trkpt lat="60.0665855408" lon="15.5975227356">
        <ele>0</ele>
        <time>2013-05-01T12:57:10Z</time>
      </trkpt>
      <trkpt lat="60.0665435791" lon="15.5975456238">
        <ele>0</ele>
        <time>2013-05-01T12:57:11Z</time>
      </trkpt>
      <trkpt lat="60.0664787292" lon="15.5975723267">
        <ele>0</ele>
        <time>2013-05-01T12:57:12Z</time>
      </trkpt>
      <trkpt lat="60.0664138794" lon="15.5976057053">
        <ele>0</ele>
        <time>2013-05-01T12:57:13Z</time>
      </trkpt>
      <trkpt lat="60.0663604736" lon="15.5976381302">
        <ele>0</ele>
        <time>2013-05-01T12:57:14Z</time>
      </trkpt>
      <trkpt lat="60.0661888123" lon="15.597735405">
        <ele>0</ele>
        <time>2013-05-01T12:57:17Z</time>
      </trkpt>
      <trkpt lat="60.0659599304" lon="15.5978527069">
        <ele>0</ele>
        <time>2013-05-01T12:57:21Z</time>
      </trkpt>
      <trkpt lat="60.0659103394" lon="15.5978851318">
        <ele>0</ele>
        <time>2013-05-01T12:57:22Z</time>
      </trkpt>
      <trkpt lat="60.0658493042" lon="15.5979261398">
        <ele>0</ele>
        <time>2013-05-01T12:57:23Z</time>
      </trkpt>
      <trkpt lat="60.0657348633" lon="15.5980129242">
        <ele>0</ele>
        <time>2013-05-01T12:57:25Z</time>
      </trkpt>
      <trkpt lat="60.0653457642" lon="15.5983629227">
        <ele>0</ele>
        <time>2013-05-01T12:57:32Z</time>
      </trkpt>
      <trkpt lat="60.0652770996" lon="15.5984258652">
        <ele>0</ele>
        <time>2013-05-01T12:57:33Z</time>
      </trkpt>
      <trkpt lat="60.0652236938" lon="15.5984869003">
        <ele>0</ele>
        <time>2013-05-01T12:57:34Z</time>
      </trkpt>
      <trkpt lat="60.0648574829" lon="15.5988512039">
        <ele>0</ele>
        <time>2013-05-01T12:57:40Z</time>
      </trkpt>
      <trkpt lat="60.0647964478" lon="15.5989141464">
        <ele>0</ele>
        <time>2013-05-01T12:57:41Z</time>
      </trkpt>
      <trkpt lat="60.0647315979" lon="15.5989723206">
        <ele>0</ele>
        <time>2013-05-01T12:57:42Z</time>
      </trkpt>
      <trkpt lat="60.064666748" lon="15.5990400314">
        <ele>0</ele>
        <time>2013-05-01T12:57:43Z</time>
      </trkpt>
      <trkpt lat="60.0646018982" lon="15.5990991592">
        <ele>0</ele>
        <time>2013-05-01T12:57:44Z</time>
      </trkpt>
      <trkpt lat="60.0643577576" lon="15.5993452072">
        <ele>0</ele>
        <time>2013-05-01T12:57:48Z</time>
      </trkpt>
      <trkpt lat="60.0641975403" lon="15.5995044708">
        <ele>0</ele>
        <time>2013-05-01T12:57:51Z</time>
      </trkpt>
      <trkpt lat="60.0641403198" lon="15.5995588303">
        <ele>0</ele>
        <time>2013-05-01T12:57:52Z</time>
      </trkpt>
      <trkpt lat="60.0639038086" lon="15.5997953415">
        <ele>0</ele>
        <time>2013-05-01T12:57:56Z</time>
      </trkpt>
      <trkpt lat="60.0638580322" lon="15.5998439789">
        <ele>0</ele>
        <time>2013-05-01T12:57:57Z</time>
      </trkpt>
      <trkpt lat="60.063835144" lon="15.599861145">
        <ele>0</ele>
        <time>2013-05-01T12:57:58Z</time>
      </trkpt>
      <trkpt lat="60.0637435913" lon="15.5999631882">
        <ele>0</ele>
        <time>2013-05-01T12:57:59Z</time>
      </trkpt>
      <trkpt lat="60.0636444092" lon="15.6000776291">
        <ele>0</ele>
        <time>2013-05-01T12:58:01Z</time>
      </trkpt>
      <trkpt lat="60.0635910034" lon="15.6001205444">
        <ele>0</ele>
        <time>2013-05-01T12:58:02Z</time>
      </trkpt>
      <trkpt lat="60.0635375977" lon="15.6001815796">
        <ele>0</ele>
        <time>2013-05-01T12:58:03Z</time>
      </trkpt>
      <trkpt lat="60.0634880066" lon="15.6002349854">
        <ele>0</ele>
        <time>2013-05-01T12:58:04Z</time>
      </trkpt>
      <trkpt lat="60.0634269714" lon="15.6002950668">
        <ele>0</ele>
        <time>2013-05-01T12:58:05Z</time>
      </trkpt>
      <trkpt lat="60.0632667542" lon="15.6004714966">
        <ele>0</ele>
        <time>2013-05-01T12:58:08Z</time>
      </trkpt>
      <trkpt lat="60.0632209778" lon="15.6005249023">
        <ele>0</ele>
        <time>2013-05-01T12:58:09Z</time>
      </trkpt>
      <trkpt lat="60.0631637573" lon="15.6005916595">
        <ele>0</ele>
        <time>2013-05-01T12:58:10Z</time>
      </trkpt>
      <trkpt lat="60.0630569458" lon="15.6007032394">
        <ele>0</ele>
        <time>2013-05-01T12:58:12Z</time>
      </trkpt>
      <trkpt lat="60.0629959106" lon="15.6007699966">
        <ele>0</ele>
        <time>2013-05-01T12:58:13Z</time>
      </trkpt>
      <trkpt lat="60.0629386902" lon="15.6008367538">
        <ele>0</ele>
        <time>2013-05-01T12:58:14Z</time>
      </trkpt>
      <trkpt lat="60.062877655" lon="15.600903511">
        <ele>0</ele>
        <time>2013-05-01T12:58:15Z</time>
      </trkpt>
      <trkpt lat="60.0628204346" lon="15.6009674072">
        <ele>0</ele>
        <time>2013-05-01T12:58:16Z</time>
      </trkpt>
      <trkpt lat="60.0627593994" lon="15.6010389328">
        <ele>0</ele>
        <time>2013-05-01T12:58:17Z</time>
      </trkpt>
      <trkpt lat="60.0626602173" lon="15.6011629105">
        <ele>0</ele>
        <time>2013-05-01T12:58:19Z</time>
      </trkpt>
      <trkpt lat="60.0625839233" lon="15.6012554169">
        <ele>0</ele>
        <time>2013-05-01T12:58:20Z</time>
      </trkpt>
      <trkpt lat="60.0622901917" lon="15.6016426086">
        <ele>0</ele>
        <time>2013-05-01T12:58:25Z</time>
      </trkpt>
      <trkpt lat="60.0621871948" lon="15.6017770767">
        <ele>0</ele>
        <time>2013-05-01T12:58:27Z</time>
      </trkpt>
      <trkpt lat="60.0621147156" lon="15.6018743515">
        <ele>0</ele>
        <time>2013-05-01T12:58:28Z</time>
      </trkpt>
      <trkpt lat="60.0620002747" lon="15.6020336151">
        <ele>0</ele>
        <time>2013-05-01T12:58:30Z</time>
      </trkpt>
      <trkpt lat="60.061958313" lon="15.6020908356">
        <ele>0</ele>
        <time>2013-05-01T12:58:31Z</time>
      </trkpt>
      <trkpt lat="60.0618896484" lon="15.6021776199">
        <ele>0</ele>
        <time>2013-05-01T12:58:32Z</time>
      </trkpt>
      <trkpt lat="60.061832428" lon="15.6022462845">
        <ele>0</ele>
        <time>2013-05-01T12:58:33Z</time>
      </trkpt>
      <trkpt lat="60.0617866516" lon="15.6023101807">
        <ele>0</ele>
        <time>2013-05-01T12:58:34Z</time>
      </trkpt>
      <trkpt lat="60.0617294312" lon="15.6023893356">
        <ele>0</ele>
        <time>2013-05-01T12:58:35Z</time>
      </trkpt>
      <trkpt lat="60.0616760254" lon="15.6024627686">
        <ele>0</ele>
        <time>2013-05-01T12:58:36Z</time>
      </trkpt>
      <trkpt lat="60.0616188049" lon="15.6025333405">
        <ele>0</ele>
        <time>2013-05-01T12:58:37Z</time>
      </trkpt>
      <trkpt lat="60.0614547729" lon="15.6027488708">
        <ele>0</ele>
        <time>2013-05-01T12:58:40Z</time>
      </trkpt>
      <trkpt lat="60.0614051819" lon="15.6028146744">
        <ele>0</ele>
        <time>2013-05-01T12:58:41Z</time>
      </trkpt>
      <trkpt lat="60.0613555908" lon="15.6028747559">
        <ele>0</ele>
        <time>2013-05-01T12:58:42Z</time>
      </trkpt>
      <trkpt lat="60.0612487793" lon="15.6030216217">
        <ele>0</ele>
        <time>2013-05-01T12:58:44Z</time>
      </trkpt>
      <trkpt lat="60.0611953735" lon="15.6030883789">
        <ele>0</ele>
        <time>2013-05-01T12:58:45Z</time>
      </trkpt>
      <trkpt lat="60.0609817505" lon="15.603354454">
        <ele>0</ele>
        <time>2013-05-01T12:58:49Z</time>
      </trkpt>
      <trkpt lat="60.0609321594" lon="15.6034193039">
        <ele>0</ele>
        <time>2013-05-01T12:58:50Z</time>
      </trkpt>
      <trkpt lat="60.0608901978" lon="15.6034755707">
        <ele>0</ele>
        <time>2013-05-01T12:58:51Z</time>
      </trkpt>
      <trkpt lat="60.0608291626" lon="15.603559494">
        <ele>0</ele>
        <time>2013-05-01T12:58:52Z</time>
      </trkpt>
      <trkpt lat="60.0607719421" lon="15.6036262512">
        <ele>0</ele>
        <time>2013-05-01T12:58:53Z</time>
      </trkpt>
      <trkpt lat="60.0607147217" lon="15.6037054062">
        <ele>0</ele>
        <time>2013-05-01T12:58:54Z</time>
      </trkpt>
      <trkpt lat="60.0606040955" lon="15.6038446426">
        <ele>0</ele>
        <time>2013-05-01T12:58:56Z</time>
      </trkpt>
      <trkpt lat="60.0605506897" lon="15.6038999557">
        <ele>0</ele>
        <time>2013-05-01T12:58:57Z</time>
      </trkpt>
      <trkpt lat="60.0604934692" lon="15.6039600372">
        <ele>0</ele>
        <time>2013-05-01T12:58:58Z</time>
      </trkpt>
      <trkpt lat="60.0604362488" lon="15.6040182114">
        <ele>0</ele>
        <time>2013-05-01T12:58:59Z</time>
      </trkpt>
      <trkpt lat="60.060333252" lon="15.6041402817">
        <ele>0</ele>
        <time>2013-05-01T12:59:01Z</time>
      </trkpt>
      <trkpt lat="60.0602836609" lon="15.6042041779">
        <ele>0</ele>
        <time>2013-05-01T12:59:02Z</time>
      </trkpt>
      <trkpt lat="60.0601730347" lon="15.6043348312">
        <ele>0</ele>
        <time>2013-05-01T12:59:04Z</time>
      </trkpt>
      <trkpt lat="60.0601196289" lon="15.6043977737">
        <ele>0</ele>
        <time>2013-05-01T12:59:05Z</time>
      </trkpt>
      <trkpt lat="60.0599555969" lon="15.604593277">
        <ele>0</ele>
        <time>2013-05-01T12:59:08Z</time>
      </trkpt>
      <trkpt lat="60.0599021912" lon="15.6046619415">
        <ele>0</ele>
        <time>2013-05-01T12:59:09Z</time>
      </trkpt>
      <trkpt lat="60.0598449707" lon="15.6047258377">
        <ele>0</ele>
        <time>2013-05-01T12:59:10Z</time>
      </trkpt>
      <trkpt lat="60.0598068237" lon="15.6047763824">
        <ele>0</ele>
        <time>2013-05-01T12:59:11Z</time>
      </trkpt>
      <trkpt lat="60.0597419739" lon="15.6048555374">
        <ele>0</ele>
        <time>2013-05-01T12:59:12Z</time>
      </trkpt>
      <trkpt lat="60.0596809387" lon="15.6049337387">
        <ele>0</ele>
        <time>2013-05-01T12:59:13Z</time>
      </trkpt>
      <trkpt lat="60.0596237183" lon="15.6050052643">
        <ele>0</ele>
        <time>2013-05-01T12:59:14Z</time>
      </trkpt>
      <trkpt lat="60.0595626831" lon="15.6050758362">
        <ele>0</ele>
        <time>2013-05-01T12:59:15Z</time>
      </trkpt>
      <trkpt lat="60.0595054626" lon="15.6051445007">
        <ele>0</ele>
        <time>2013-05-01T12:59:16Z</time>
      </trkpt>
      <trkpt lat="60.0594482422" lon="15.6052112579">
        <ele>0</ele>
        <time>2013-05-01T12:59:17Z</time>
      </trkpt>
      <trkpt lat="60.0593948364" lon="15.6052799225">
        <ele>0</ele>
        <time>2013-05-01T12:59:18Z</time>
      </trkpt>
      <trkpt lat="60.0593528748" lon="15.6053295135">
        <ele>0</ele>
        <time>2013-05-01T12:59:19Z</time>
      </trkpt>
      <trkpt lat="60.0592842102" lon="15.6054058075">
        <ele>0</ele>
        <time>2013-05-01T12:59:20Z</time>
      </trkpt>
      <trkpt lat="60.0592308044" lon="15.6054706573">
        <ele>0</ele>
        <time>2013-05-01T12:59:21Z</time>
      </trkpt>
      <trkpt lat="60.0591850281" lon="15.6055288315">
        <ele>0</ele>
        <time>2013-05-01T12:59:22Z</time>
      </trkpt>
      <trkpt lat="60.0590705872" lon="15.6056699753">
        <ele>0</ele>
        <time>2013-05-01T12:59:24Z</time>
      </trkpt>
      <trkpt lat="60.0590171814" lon="15.6057338715">
        <ele>0</ele>
        <time>2013-05-01T12:59:25Z</time>
      </trkpt>
      <trkpt lat="60.0589103699" lon="15.6058664322">
        <ele>0</ele>
        <time>2013-05-01T12:59:27Z</time>
      </trkpt>
      <trkpt lat="60.0588607788" lon="15.6059331894">
        <ele>0</ele>
        <time>2013-05-01T12:59:28Z</time>
      </trkpt>
      <trkpt lat="60.0588150024" lon="15.6059923172">
        <ele>0</ele>
        <time>2013-05-01T12:59:29Z</time>
      </trkpt>
      <trkpt lat="60.0587654114" lon="15.6060647964">
        <ele>0</ele>
        <time>2013-05-01T12:59:30Z</time>
      </trkpt>
      <trkpt lat="60.0586776733" lon="15.606180191">
        <ele>0</ele>
        <time>2013-05-01T12:59:32Z</time>
      </trkpt>
      <trkpt lat="60.0586242676" lon="15.6062488556">
        <ele>0</ele>
        <time>2013-05-01T12:59:33Z</time>
      </trkpt>
      <trkpt lat="60.0585823059" lon="15.6063117981">
        <ele>0</ele>
        <time>2013-05-01T12:59:34Z</time>
      </trkpt>
      <trkpt lat="60.0585289001" lon="15.6063919067">
        <ele>0</ele>
        <time>2013-05-01T12:59:35Z</time>
      </trkpt>
      <trkpt lat="60.0584831238" lon="15.6064624786">
        <ele>0</ele>
        <time>2013-05-01T12:59:36Z</time>
      </trkpt>
      <trkpt lat="60.0584335327" lon="15.6065292358">
        <ele>0</ele>
        <time>2013-05-01T12:59:37Z</time>
      </trkpt>
      <trkpt lat="60.0582351685" lon="15.606798172">
        <ele>0</ele>
        <time>2013-05-01T12:59:41Z</time>
      </trkpt>
      <trkpt lat="60.0581855774" lon="15.6068658829">
        <ele>0</ele>
        <time>2013-05-01T12:59:42Z</time>
      </trkpt>
      <trkpt lat="60.0581207275" lon="15.6069431305">
        <ele>0</ele>
        <time>2013-05-01T12:59:43Z</time>
      </trkpt>
      <trkpt lat="60.0580635071" lon="15.607006073">
        <ele>0</ele>
        <time>2013-05-01T12:59:44Z</time>
      </trkpt>
      <trkpt lat="60.0580024719" lon="15.6070718765">
        <ele>0</ele>
        <time>2013-05-01T12:59:45Z</time>
      </trkpt>
      <trkpt lat="60.0577468872" lon="15.6073150635">
        <ele>0</ele>
        <time>2013-05-01T12:59:49Z</time>
      </trkpt>
      <trkpt lat="60.0576858521" lon="15.6073694229">
        <ele>0</ele>
        <time>2013-05-01T12:59:50Z</time>
      </trkpt>
      <trkpt lat="60.0575561523" lon="15.6074886322">
        <ele>0</ele>
        <time>2013-05-01T12:59:52Z</time>
      </trkpt>
      <trkpt lat="60.0574760437" lon="15.6075582504">
        <ele>0</ele>
        <time>2013-05-01T12:59:53Z</time>
      </trkpt>
      <trkpt lat="60.0573997498" lon="15.6076307297">
        <ele>0</ele>
        <time>2013-05-01T12:59:54Z</time>
      </trkpt>
      <trkpt lat="60.0571594238" lon="15.6078472137">
        <ele>0</ele>
        <time>2013-05-01T12:59:57Z</time>
      </trkpt>
      <trkpt lat="60.0570869446" lon="15.6079187393">
        <ele>0</ele>
        <time>2013-05-01T12:59:58Z</time>
      </trkpt>
      <trkpt lat="60.0570259094" lon="15.6079721451">
        <ele>0</ele>
        <time>2013-05-01T12:59:59Z</time>
      </trkpt>
      <trkpt lat="60.0569419861" lon="15.608048439">
        <ele>0</ele>
        <time>2013-05-01T13:00:00Z</time>
      </trkpt>
      <trkpt lat="60.056552887" lon="15.608382225">
        <ele>0</ele>
        <time>2013-05-01T13:00:05Z</time>
      </trkpt>
      <trkpt lat="60.056476593" lon="15.6084499359">
        <ele>0</ele>
        <time>2013-05-01T13:00:06Z</time>
      </trkpt>
      <trkpt lat="60.0561790466" lon="15.608716011">
        <ele>0</ele>
        <time>2013-05-01T13:00:10Z</time>
      </trkpt>
      <trkpt lat="60.0561180115" lon="15.6087646484">
        <ele>0</ele>
        <time>2013-05-01T13:00:11Z</time>
      </trkpt>
      <trkpt lat="60.0560379028" lon="15.6088371277">
        <ele>0</ele>
        <time>2013-05-01T13:00:12Z</time>
      </trkpt>
      <trkpt lat="60.0559501648" lon="15.6089115143">
        <ele>0</ele>
        <time>2013-05-01T13:00:13Z</time>
      </trkpt>
      <trkpt lat="60.0558776855" lon="15.6089744568">
        <ele>0</ele>
        <time>2013-05-01T13:00:14Z</time>
      </trkpt>
      <trkpt lat="60.0557250977" lon="15.6091070175">
        <ele>0</ele>
        <time>2013-05-01T13:00:16Z</time>
      </trkpt>
      <trkpt lat="60.055644989" lon="15.6091775894">
        <ele>0</ele>
        <time>2013-05-01T13:00:17Z</time>
      </trkpt>
      <trkpt lat="60.0553512573" lon="15.6094474792">
        <ele>0</ele>
        <time>2013-05-01T13:00:21Z</time>
      </trkpt>
      <trkpt lat="60.0552787781" lon="15.6095066071">
        <ele>0</ele>
        <time>2013-05-01T13:00:22Z</time>
      </trkpt>
      <trkpt lat="60.0551986694" lon="15.6095838547">
        <ele>0</ele>
        <time>2013-05-01T13:00:23Z</time>
      </trkpt>
      <trkpt lat="60.054813385" lon="15.6099271774">
        <ele>0</ele>
        <time>2013-05-01T13:00:28Z</time>
      </trkpt>
      <trkpt lat="60.0547370911" lon="15.6100006104">
        <ele>0</ele>
        <time>2013-05-01T13:00:29Z</time>
      </trkpt>
      <trkpt lat="60.0546607971" lon="15.6100683212">
        <ele>0</ele>
        <time>2013-05-01T13:00:30Z</time>
      </trkpt>
      <trkpt lat="60.0545959473" lon="15.6101293564">
        <ele>0</ele>
        <time>2013-05-01T13:00:31Z</time>
      </trkpt>
      <trkpt lat="60.0545005798" lon="15.6102209091">
        <ele>0</ele>
        <time>2013-05-01T13:00:32Z</time>
      </trkpt>
      <trkpt lat="60.0543441772" lon="15.6103601456">
        <ele>0</ele>
        <time>2013-05-01T13:00:34Z</time>
      </trkpt>
      <trkpt lat="60.05418396" lon="15.6105003357">
        <ele>0</ele>
        <time>2013-05-01T13:00:36Z</time>
      </trkpt>
      <trkpt lat="60.0539550781" lon="15.6107149124">
        <ele>0</ele>
        <time>2013-05-01T13:00:39Z</time>
      </trkpt>
      <trkpt lat="60.0537109375" lon="15.6109371185">
        <ele>0</ele>
        <time>2013-05-01T13:00:42Z</time>
      </trkpt>
      <trkpt lat="60.0536308289" lon="15.6110162735">
        <ele>0</ele>
        <time>2013-05-01T13:00:43Z</time>
      </trkpt>
      <trkpt lat="60.0534667969" lon="15.6111679077">
        <ele>0</ele>
        <time>2013-05-01T13:00:45Z</time>
      </trkpt>
      <trkpt lat="60.0531234741" lon="15.6114683151">
        <ele>0</ele>
        <time>2013-05-01T13:00:49Z</time>
      </trkpt>
      <trkpt lat="60.0530395508" lon="15.6115446091">
        <ele>0</ele>
        <time>2013-05-01T13:00:50Z</time>
      </trkpt>
      <trkpt lat="60.0528831482" lon="15.6116838455">
        <ele>0</ele>
        <time>2013-05-01T13:00:52Z</time>
      </trkpt>
      <trkpt lat="60.0527877808" lon="15.6117706299">
        <ele>0</ele>
        <time>2013-05-01T13:00:53Z</time>
      </trkpt>
      <trkpt lat="60.0527076721" lon="15.6118478775">
        <ele>0</ele>
        <time>2013-05-01T13:00:54Z</time>
      </trkpt>
      <trkpt lat="60.052532196" lon="15.6120052338">
        <ele>0</ele>
        <time>2013-05-01T13:00:56Z</time>
      </trkpt>
      <trkpt lat="60.0524520874" lon="15.6120786667">
        <ele>0</ele>
        <time>2013-05-01T13:00:57Z</time>
      </trkpt>
      <trkpt lat="60.0523338318" lon="15.6121854782">
        <ele>0</ele>
        <time>2013-05-01T13:00:59Z</time>
      </trkpt>
      <trkpt lat="60.0521888733" lon="15.6123151779">
        <ele>0</ele>
        <time>2013-05-01T13:01:00Z</time>
      </trkpt>
      <trkpt lat="60.0521011353" lon="15.6123962402">
        <ele>0</ele>
        <time>2013-05-01T13:01:01Z</time>
      </trkpt>
      <trkpt lat="60.0520172119" lon="15.6124763489">
        <ele>0</ele>
        <time>2013-05-01T13:01:02Z</time>
      </trkpt>
      <trkpt lat="60.0519218445" lon="15.6125640869">
        <ele>0</ele>
        <time>2013-05-01T13:01:03Z</time>
      </trkpt>
      <trkpt lat="60.0518341064" lon="15.6126461029">
        <ele>0</ele>
        <time>2013-05-01T13:01:04Z</time>
      </trkpt>
      <trkpt lat="60.051738739" lon="15.6127309799">
        <ele>0</ele>
        <time>2013-05-01T13:01:05Z</time>
      </trkpt>
      <trkpt lat="60.0516471863" lon="15.6128110886">
        <ele>0</ele>
        <time>2013-05-01T13:01:06Z</time>
      </trkpt>
      <trkpt lat="60.0515556335" lon="15.6128950119">
        <ele>0</ele>
        <time>2013-05-01T13:01:07Z</time>
      </trkpt>
      <trkpt lat="60.0512886047" lon="15.6131372452">
        <ele>0</ele>
        <time>2013-05-01T13:01:10Z</time>
      </trkpt>
      <trkpt lat="60.0512237549" lon="15.6131906509">
        <ele>0</ele>
        <time>2013-05-01T13:01:11Z</time>
      </trkpt>
      <trkpt lat="60.0511169434" lon="15.6132831573">
        <ele>0</ele>
        <time>2013-05-01T13:01:12Z</time>
      </trkpt>
      <trkpt lat="60.0510101318" lon="15.6133737564">
        <ele>0</ele>
        <time>2013-05-01T13:01:13Z</time>
      </trkpt>
      <trkpt lat="60.0507278442" lon="15.6136198044">
        <ele>0</ele>
        <time>2013-05-01T13:01:16Z</time>
      </trkpt>
      <trkpt lat="60.0506324768" lon="15.613702774">
        <ele>0</ele>
        <time>2013-05-01T13:01:17Z</time>
      </trkpt>
      <trkpt lat="60.05027771" lon="15.6140222549">
        <ele>0</ele>
        <time>2013-05-01T13:01:21Z</time>
      </trkpt>
      <trkpt lat="60.0501976013" lon="15.6140880585">
        <ele>0</ele>
        <time>2013-05-01T13:01:22Z</time>
      </trkpt>
      <trkpt lat="60.0501022339" lon="15.6141710281">
        <ele>0</ele>
        <time>2013-05-01T13:01:23Z</time>
      </trkpt>
      <trkpt lat="60.0497627258" lon="15.6144723892">
        <ele>0</ele>
        <time>2013-05-01T13:01:27Z</time>
      </trkpt>
      <trkpt lat="60.0494613647" lon="15.6147403717">
        <ele>0</ele>
        <time>2013-05-01T13:01:31Z</time>
      </trkpt>
      <trkpt lat="60.0493736267" lon="15.614815712">
        <ele>0</ele>
        <time>2013-05-01T13:01:32Z</time>
      </trkpt>
      <trkpt lat="60.0492897034" lon="15.6148910522">
        <ele>0</ele>
        <time>2013-05-01T13:01:33Z</time>
      </trkpt>
      <trkpt lat="60.0490608215" lon="15.6150951385">
        <ele>0</ele>
        <time>2013-05-01T13:01:36Z</time>
      </trkpt>
      <trkpt lat="60.048992157" lon="15.615152359">
        <ele>0</ele>
        <time>2013-05-01T13:01:37Z</time>
      </trkpt>
      <trkpt lat="60.0488739014" lon="15.6152553558">
        <ele>0</ele>
        <time>2013-05-01T13:01:39Z</time>
      </trkpt>
      <trkpt lat="60.0487937927" lon="15.6153287888">
        <ele>0</ele>
        <time>2013-05-01T13:01:40Z</time>
      </trkpt>
      <trkpt lat="60.0487289429" lon="15.6153888702">
        <ele>0</ele>
        <time>2013-05-01T13:01:41Z</time>
      </trkpt>
      <trkpt lat="60.0486602783" lon="15.615445137">
        <ele>0</ele>
        <time>2013-05-01T13:01:42Z</time>
      </trkpt>
      <trkpt lat="60.0485343933" lon="15.6155595779">
        <ele>0</ele>
        <time>2013-05-01T13:01:44Z</time>
      </trkpt>
      <trkpt lat="60.0484733582" lon="15.6156158447">
        <ele>0</ele>
        <time>2013-05-01T13:01:45Z</time>
      </trkpt>
      <trkpt lat="60.048412323" lon="15.6156740189">
        <ele>0</ele>
        <time>2013-05-01T13:01:46Z</time>
      </trkpt>
      <trkpt lat="60.0483512878" lon="15.6157264709">
        <ele>0</ele>
        <time>2013-05-01T13:01:47Z</time>
      </trkpt>
      <trkpt lat="60.0482902527" lon="15.615778923">
        <ele>0</ele>
        <time>2013-05-01T13:01:48Z</time>
      </trkpt>
      <trkpt lat="60.0482330322" lon="15.6158332825">
        <ele>0</ele>
        <time>2013-05-01T13:01:49Z</time>
      </trkpt>
      <trkpt lat="60.0481719971" lon="15.6158885956">
        <ele>0</ele>
        <time>2013-05-01T13:01:50Z</time>
      </trkpt>
      <trkpt lat="60.047996521" lon="15.6160440445">
        <ele>0</ele>
        <time>2013-05-01T13:01:53Z</time>
      </trkpt>
      <trkpt lat="60.0479240417" lon="15.6161031723">
        <ele>0</ele>
        <time>2013-05-01T13:01:54Z</time>
      </trkpt>
      <trkpt lat="60.0478019714" lon="15.6162071228">
        <ele>0</ele>
        <time>2013-05-01T13:01:56Z</time>
      </trkpt>
      <trkpt lat="60.047744751" lon="15.6162567139">
        <ele>0</ele>
        <time>2013-05-01T13:01:57Z</time>
      </trkpt>
      <trkpt lat="60.047618866" lon="15.6163635254">
        <ele>0</ele>
        <time>2013-05-01T13:01:59Z</time>
      </trkpt>
      <trkpt lat="60.0475540161" lon="15.6164197922">
        <ele>0</ele>
        <time>2013-05-01T13:02:00Z</time>
      </trkpt>
      <trkpt lat="60.0472946167" lon="15.616642952">
        <ele>0</ele>
        <time>2013-05-01T13:02:05Z</time>
      </trkpt>
      <trkpt lat="60.0471076965" lon="15.6168088913">
        <ele>0</ele>
        <time>2013-05-01T13:02:07Z</time>
      </trkpt>
      <trkpt lat="60.0470466614" lon="15.6168575287">
        <ele>0</ele>
        <time>2013-05-01T13:02:08Z</time>
      </trkpt>
      <trkpt lat="60.0469894409" lon="15.6169061661">
        <ele>0</ele>
        <time>2013-05-01T13:02:09Z</time>
      </trkpt>
      <trkpt lat="60.0469398499" lon="15.6169433594">
        <ele>0</ele>
        <time>2013-05-01T13:02:10Z</time>
      </trkpt>
      <trkpt lat="60.0468711853" lon="15.6170005798">
        <ele>0</ele>
        <time>2013-05-01T13:02:11Z</time>
      </trkpt>
      <trkpt lat="60.0468063354" lon="15.6170530319">
        <ele>0</ele>
        <time>2013-05-01T13:02:12Z</time>
      </trkpt>
      <trkpt lat="60.0467605591" lon="15.6170892715">
        <ele>0</ele>
        <time>2013-05-01T13:02:13Z</time>
      </trkpt>
      <trkpt lat="60.0467033386" lon="15.6171379089">
        <ele>0</ele>
        <time>2013-05-01T13:02:14Z</time>
      </trkpt>
      <trkpt lat="60.0464515686" lon="15.6173429489">
        <ele>0</ele>
        <time>2013-05-01T13:02:18Z</time>
      </trkpt>
      <trkpt lat="60.0463943481" lon="15.6173906326">
        <ele>0</ele>
        <time>2013-05-01T13:02:19Z</time>
      </trkpt>
      <trkpt lat="60.0463371277" lon="15.6174383163">
        <ele>0</ele>
        <time>2013-05-01T13:02:20Z</time>
      </trkpt>
      <trkpt lat="60.0462799072" lon="15.6174860001">
        <ele>0</ele>
        <time>2013-05-01T13:02:21Z</time>
      </trkpt>
      <trkpt lat="60.0461196899" lon="15.6176147461">
        <ele>0</ele>
        <time>2013-05-01T13:02:24Z</time>
      </trkpt>
      <trkpt lat="60.0458488464" lon="15.6178312302">
        <ele>0</ele>
        <time>2013-05-01T13:02:29Z</time>
      </trkpt>
      <trkpt lat="60.0457878113" lon="15.6178665161">
        <ele>0</ele>
        <time>2013-05-01T13:02:30Z</time>
      </trkpt>
      <trkpt lat="60.0457382202" lon="15.6179075241">
        <ele>0</ele>
        <time>2013-05-01T13:02:31Z</time>
      </trkpt>
      <trkpt lat="60.0456771851" lon="15.6179513931">
        <ele>0</ele>
        <time>2013-05-01T13:02:32Z</time>
      </trkpt>
      <trkpt lat="60.0456390381" lon="15.617980957">
        <ele>0</ele>
        <time>2013-05-01T13:02:33Z</time>
      </trkpt>
      <trkpt lat="60.0455741882" lon="15.6180257797">
        <ele>0</ele>
        <time>2013-05-01T13:02:34Z</time>
      </trkpt>
      <trkpt lat="60.0455131531" lon="15.6180620193">
        <ele>0</ele>
        <time>2013-05-01T13:02:35Z</time>
      </trkpt>
      <trkpt lat="60.0453186035" lon="15.6181974411">
        <ele>0</ele>
        <time>2013-05-01T13:02:39Z</time>
      </trkpt>
      <trkpt lat="60.0452690125" lon="15.6182279587">
        <ele>0</ele>
        <time>2013-05-01T13:02:40Z</time>
      </trkpt>
      <trkpt lat="60.0452156067" lon="15.6182575226">
        <ele>0</ele>
        <time>2013-05-01T13:02:41Z</time>
      </trkpt>
      <trkpt lat="60.0451660156" lon="15.6182899475">
        <ele>0</ele>
        <time>2013-05-01T13:02:42Z</time>
      </trkpt>
      <trkpt lat="60.0451087952" lon="15.6183300018">
        <ele>0</ele>
        <time>2013-05-01T13:02:43Z</time>
      </trkpt>
      <trkpt lat="60.0450134277" lon="15.618396759">
        <ele>0</ele>
        <time>2013-05-01T13:02:45Z</time>
      </trkpt>
      <trkpt lat="60.0449485779" lon="15.6184425354">
        <ele>0</ele>
        <time>2013-05-01T13:02:46Z</time>
      </trkpt>
      <trkpt lat="60.0448875427" lon="15.6184844971">
        <ele>0</ele>
        <time>2013-05-01T13:02:47Z</time>
      </trkpt>
      <trkpt lat="60.0448265076" lon="15.6185245514">
        <ele>0</ele>
        <time>2013-05-01T13:02:48Z</time>
      </trkpt>
      <trkpt lat="60.0447845459" lon="15.6185560226">
        <ele>0</ele>
        <time>2013-05-01T13:02:49Z</time>
      </trkpt>
      <trkpt lat="60.044708252" lon="15.6186094284">
        <ele>0</ele>
        <time>2013-05-01T13:02:50Z</time>
      </trkpt>
      <trkpt lat="60.0446510315" lon="15.6186475754">
        <ele>0</ele>
        <time>2013-05-01T13:02:51Z</time>
      </trkpt>
      <trkpt lat="60.0445289612" lon="15.6187229156">
        <ele>0</ele>
        <time>2013-05-01T13:02:53Z</time>
      </trkpt>
      <trkpt lat="60.0442428589" lon="15.6189098358">
        <ele>0</ele>
        <time>2013-05-01T13:02:57Z</time>
      </trkpt>
      <trkpt lat="60.0441703796" lon="15.6189527512">
        <ele>0</ele>
        <time>2013-05-01T13:02:58Z</time>
      </trkpt>
      <trkpt lat="60.0439567566" lon="15.6190958023">
        <ele>0</ele>
        <time>2013-05-01T13:03:01Z</time>
      </trkpt>
      <trkpt lat="60.0438957214" lon="15.619146347">
        <ele>0</ele>
        <time>2013-05-01T13:03:02Z</time>
      </trkpt>
      <trkpt lat="60.0438232422" lon="15.6192045212">
        <ele>0</ele>
        <time>2013-05-01T13:03:03Z</time>
      </trkpt>
      <trkpt lat="60.0437545776" lon="15.6192617416">
        <ele>0</ele>
        <time>2013-05-01T13:03:04Z</time>
      </trkpt>
      <trkpt lat="60.0437049866" lon="15.6193132401">
        <ele>0</ele>
        <time>2013-05-01T13:03:05Z</time>
      </trkpt>
      <trkpt lat="60.0436248779" lon="15.6193943024">
        <ele>0</ele>
        <time>2013-05-01T13:03:06Z</time>
      </trkpt>
      <trkpt lat="60.0435562134" lon="15.6194677353">
        <ele>0</ele>
        <time>2013-05-01T13:03:07Z</time>
      </trkpt>
      <trkpt lat="60.0434913635" lon="15.6195383072">
        <ele>0</ele>
        <time>2013-05-01T13:03:08Z</time>
      </trkpt>
      <trkpt lat="60.0434303284" lon="15.6196088791">
        <ele>0</ele>
        <time>2013-05-01T13:03:09Z</time>
      </trkpt>
      <trkpt lat="60.0433692932" lon="15.6196813583">
        <ele>0</ele>
        <time>2013-05-01T13:03:10Z</time>
      </trkpt>
      <trkpt lat="60.0433120728" lon="15.6197566986">
        <ele>0</ele>
        <time>2013-05-01T13:03:11Z</time>
      </trkpt>
      <trkpt lat="60.0432434082" lon="15.6198396683">
        <ele>0</ele>
        <time>2013-05-01T13:03:12Z</time>
      </trkpt>
      <trkpt lat="60.0432014465" lon="15.6198968887">
        <ele>0</ele>
        <time>2013-05-01T13:03:13Z</time>
      </trkpt>
      <trkpt lat="60.042881012" lon="15.6203136444">
        <ele>0</ele>
        <time>2013-05-01T13:03:18Z</time>
      </trkpt>
      <trkpt lat="60.0425643921" lon="15.6206932068">
        <ele>0</ele>
        <time>2013-05-01T13:03:23Z</time>
      </trkpt>
      <trkpt lat="60.0424957275" lon="15.620759964">
        <ele>0</ele>
        <time>2013-05-01T13:03:24Z</time>
      </trkpt>
      <trkpt lat="60.0424385071" lon="15.6208105087">
        <ele>0</ele>
        <time>2013-05-01T13:03:25Z</time>
      </trkpt>
      <trkpt lat="60.0423545837" lon="15.6208810806">
        <ele>0</ele>
        <time>2013-05-01T13:03:26Z</time>
      </trkpt>
      <trkpt lat="60.0422706604" lon="15.6209430695">
        <ele>0</ele>
        <time>2013-05-01T13:03:27Z</time>
      </trkpt>
      <trkpt lat="60.0421981812" lon="15.6209926605">
        <ele>0</ele>
        <time>2013-05-01T13:03:28Z</time>
      </trkpt>
      <trkpt lat="60.0421409607" lon="15.6210269928">
        <ele>0</ele>
        <time>2013-05-01T13:03:29Z</time>
      </trkpt>
      <trkpt lat="60.0420532227" lon="15.6210803986">
        <ele>0</ele>
        <time>2013-05-01T13:03:30Z</time>
      </trkpt>
      <trkpt lat="60.0419807434" lon="15.6211242676">
        <ele>0</ele>
        <time>2013-05-01T13:03:31Z</time>
      </trkpt>
      <trkpt lat="60.0419006348" lon="15.621172905">
        <ele>0</ele>
        <time>2013-05-01T13:03:32Z</time>
      </trkpt>
      <trkpt lat="60.0418281555" lon="15.6212177277">
        <ele>0</ele>
        <time>2013-05-01T13:03:33Z</time>
      </trkpt>
      <trkpt lat="60.0417747498" lon="15.6212568283">
        <ele>0</ele>
        <time>2013-05-01T13:03:34Z</time>
      </trkpt>
      <trkpt lat="60.041683197" lon="15.6213226318">
        <ele>0</ele>
        <time>2013-05-01T13:03:35Z</time>
      </trkpt>
      <trkpt lat="60.0416183472" lon="15.6213798523">
        <ele>0</ele>
        <time>2013-05-01T13:03:36Z</time>
      </trkpt>
      <trkpt lat="60.041557312" lon="15.6214351654">
        <ele>0</ele>
        <time>2013-05-01T13:03:37Z</time>
      </trkpt>
      <trkpt lat="60.0414657593" lon="15.6215238571">
        <ele>0</ele>
        <time>2013-05-01T13:03:38Z</time>
      </trkpt>
      <trkpt lat="60.0413970947" lon="15.6215991974">
        <ele>0</ele>
        <time>2013-05-01T13:03:39Z</time>
      </trkpt>
      <trkpt lat="60.0413246155" lon="15.6216869354">
        <ele>0</ele>
        <time>2013-05-01T13:03:40Z</time>
      </trkpt>
      <trkpt lat="60.0412559509" lon="15.6217756271">
        <ele>0</ele>
        <time>2013-05-01T13:03:41Z</time>
      </trkpt>
      <trkpt lat="60.0411834717" lon="15.6218833923">
        <ele>0</ele>
        <time>2013-05-01T13:03:42Z</time>
      </trkpt>
      <trkpt lat="60.0409355164" lon="15.6222934723">
        <ele>0</ele>
        <time>2013-05-01T13:03:46Z</time>
      </trkpt>
      <trkpt lat="60.0408592224" lon="15.6224117279">
        <ele>0</ele>
        <time>2013-05-01T13:03:47Z</time>
      </trkpt>
      <trkpt lat="60.0407905579" lon="15.6225137711">
        <ele>0</ele>
        <time>2013-05-01T13:03:48Z</time>
      </trkpt>
      <trkpt lat="60.0407409668" lon="15.622587204">
        <ele>0</ele>
        <time>2013-05-01T13:03:49Z</time>
      </trkpt>
      <trkpt lat="60.0406494141" lon="15.622710228">
        <ele>0</ele>
        <time>2013-05-01T13:03:50Z</time>
      </trkpt>
      <trkpt lat="60.0405845642" lon="15.6227931976">
        <ele>0</ele>
        <time>2013-05-01T13:03:51Z</time>
      </trkpt>
      <trkpt lat="60.0405082703" lon="15.6228847504">
        <ele>0</ele>
        <time>2013-05-01T13:03:52Z</time>
      </trkpt>
      <trkpt lat="60.0404510498" lon="15.6229515076">
        <ele>0</ele>
        <time>2013-05-01T13:03:53Z</time>
      </trkpt>
      <trkpt lat="60.0403594971" lon="15.6230583191">
        <ele>0</ele>
        <time>2013-05-01T13:03:54Z</time>
      </trkpt>
      <trkpt lat="60.0402908325" lon="15.6231393814">
        <ele>0</ele>
        <time>2013-05-01T13:03:55Z</time>
      </trkpt>
      <trkpt lat="60.0402259827" lon="15.6232118607">
        <ele>0</ele>
        <time>2013-05-01T13:03:56Z</time>
      </trkpt>
      <trkpt lat="60.0401687622" lon="15.6232738495">
        <ele>0</ele>
        <time>2013-05-01T13:03:57Z</time>
      </trkpt>
      <trkpt lat="60.0401000977" lon="15.6233530045">
        <ele>0</ele>
        <time>2013-05-01T13:03:58Z</time>
      </trkpt>
      <trkpt lat="60.0400161743" lon="15.6234464645">
        <ele>0</ele>
        <time>2013-05-01T13:03:59Z</time>
      </trkpt>
      <trkpt lat="60.0399436951" lon="15.6235265732">
        <ele>0</ele>
        <time>2013-05-01T13:04:00Z</time>
      </trkpt>
      <trkpt lat="60.0398788452" lon="15.6236038208">
        <ele>0</ele>
        <time>2013-05-01T13:04:01Z</time>
      </trkpt>
      <trkpt lat="60.0398139954" lon="15.6236763">
        <ele>0</ele>
        <time>2013-05-01T13:04:02Z</time>
      </trkpt>
      <trkpt lat="60.0397491455" lon="15.623758316">
        <ele>0</ele>
        <time>2013-05-01T13:04:03Z</time>
      </trkpt>
      <trkpt lat="60.0396842957" lon="15.6238336563">
        <ele>0</ele>
        <time>2013-05-01T13:04:04Z</time>
      </trkpt>
      <trkpt lat="60.0396232605" lon="15.6239070892">
        <ele>0</ele>
        <time>2013-05-01T13:04:05Z</time>
      </trkpt>
      <trkpt lat="60.0395469666" lon="15.6239995956">
        <ele>0</ele>
        <time>2013-05-01T13:04:06Z</time>
      </trkpt>
      <trkpt lat="60.039478302" lon="15.62408638">
        <ele>0</ele>
        <time>2013-05-01T13:04:07Z</time>
      </trkpt>
      <trkpt lat="60.0394134521" lon="15.624171257">
        <ele>0</ele>
        <time>2013-05-01T13:04:08Z</time>
      </trkpt>
      <trkpt lat="60.039352417" lon="15.6242570877">
        <ele>0</ele>
        <time>2013-05-01T13:04:09Z</time>
      </trkpt>
      <trkpt lat="60.0392951965" lon="15.6243467331">
        <ele>0</ele>
        <time>2013-05-01T13:04:10Z</time>
      </trkpt>
      <trkpt lat="60.0392379761" lon="15.6244430542">
        <ele>0</ele>
        <time>2013-05-01T13:04:11Z</time>
      </trkpt>
      <trkpt lat="60.0390014648" lon="15.6250038147">
        <ele>0</ele>
        <time>2013-05-01T13:04:16Z</time>
      </trkpt>
      <trkpt lat="60.0388069153" lon="15.6254806519">
        <ele>0</ele>
        <time>2013-05-01T13:04:20Z</time>
      </trkpt>
      <trkpt lat="60.0387611389" lon="15.6255970001">
        <ele>0</ele>
        <time>2013-05-01T13:04:21Z</time>
      </trkpt>
      <trkpt lat="60.0387115479" lon="15.6256961823">
        <ele>0</ele>
        <time>2013-05-01T13:04:22Z</time>
      </trkpt>
      <trkpt lat="60.0386543274" lon="15.6258201599">
        <ele>0</ele>
        <time>2013-05-01T13:04:23Z</time>
      </trkpt>
      <trkpt lat="60.0386047363" lon="15.6259336472">
        <ele>0</ele>
        <time>2013-05-01T13:04:24Z</time>
      </trkpt>
      <trkpt lat="60.03855896" lon="15.6260347366">
        <ele>0</ele>
        <time>2013-05-01T13:04:25Z</time>
      </trkpt>
      <trkpt lat="60.0384941101" lon="15.6261758804">
        <ele>0</ele>
        <time>2013-05-01T13:04:26Z</time>
      </trkpt>
      <trkpt lat="60.0384368896" lon="15.6262979507">
        <ele>0</ele>
        <time>2013-05-01T13:04:27Z</time>
      </trkpt>
      <trkpt lat="60.0383796692" lon="15.6264162064">
        <ele>0</ele>
        <time>2013-05-01T13:04:28Z</time>
      </trkpt>
      <trkpt lat="60.0383605957" lon="15.6264514923">
        <ele>0</ele>
        <time>2013-05-01T13:04:29Z</time>
      </trkpt>
      <trkpt lat="60.0382575989" lon="15.6266527176">
        <ele>0</ele>
        <time>2013-05-01T13:04:30Z</time>
      </trkpt>
      <trkpt lat="60.0382041931" lon="15.6267633438">
        <ele>0</ele>
        <time>2013-05-01T13:04:31Z</time>
      </trkpt>
      <trkpt lat="60.0381469727" lon="15.6268844604">
        <ele>0</ele>
        <time>2013-05-01T13:04:32Z</time>
      </trkpt>
      <trkpt lat="60.0380897522" lon="15.626996994">
        <ele>0</ele>
        <time>2013-05-01T13:04:33Z</time>
      </trkpt>
      <trkpt lat="60.0380363464" lon="15.6271009445">
        <ele>0</ele>
        <time>2013-05-01T13:04:34Z</time>
      </trkpt>
      <trkpt lat="60.037979126" lon="15.6272192001">
        <ele>0</ele>
        <time>2013-05-01T13:04:35Z</time>
      </trkpt>
      <trkpt lat="60.0379333496" lon="15.6273040771">
        <ele>0</ele>
        <time>2013-05-01T13:04:36Z</time>
      </trkpt>
      <trkpt lat="60.0377235413" lon="15.6277256012">
        <ele>0</ele>
        <time>2013-05-01T13:04:40Z</time>
      </trkpt>
      <trkpt lat="60.0376739502" lon="15.627822876">
        <ele>0</ele>
        <time>2013-05-01T13:04:41Z</time>
      </trkpt>
      <trkpt lat="60.0376243591" lon="15.6279144287">
        <ele>0</ele>
        <time>2013-05-01T13:04:42Z</time>
      </trkpt>
      <trkpt lat="60.0375823975" lon="15.6280031204">
        <ele>0</ele>
        <time>2013-05-01T13:04:43Z</time>
      </trkpt>
      <trkpt lat="60.0375404358" lon="15.6280879974">
        <ele>0</ele>
        <time>2013-05-01T13:04:44Z</time>
      </trkpt>
      <trkpt lat="60.0375022888" lon="15.6281604767">
        <ele>0</ele>
        <time>2013-05-01T13:04:45Z</time>
      </trkpt>
      <trkpt lat="60.0374565125" lon="15.6282520294">
        <ele>0</ele>
        <time>2013-05-01T13:04:46Z</time>
      </trkpt>
      <trkpt lat="60.0374107361" lon="15.6283407211">
        <ele>0</ele>
        <time>2013-05-01T13:04:47Z</time>
      </trkpt>
      <trkpt lat="60.0373687744" lon="15.6284189224">
        <ele>0</ele>
        <time>2013-05-01T13:04:48Z</time>
      </trkpt>
      <trkpt lat="60.0373306274" lon="15.6284952164">
        <ele>0</ele>
        <time>2013-05-01T13:04:49Z</time>
      </trkpt>
      <trkpt lat="60.0372924805" lon="15.628572464">
        <ele>0</ele>
        <time>2013-05-01T13:04:50Z</time>
      </trkpt>
      <trkpt lat="60.0372581482" lon="15.6286420822">
        <ele>0</ele>
        <time>2013-05-01T13:04:51Z</time>
      </trkpt>
      <trkpt lat="60.0372200012" lon="15.6287117004">
        <ele>0</ele>
        <time>2013-05-01T13:04:52Z</time>
      </trkpt>
      <trkpt lat="60.0371818542" lon="15.628780365">
        <ele>0</ele>
        <time>2013-05-01T13:04:53Z</time>
      </trkpt>
      <trkpt lat="60.0371398926" lon="15.6288366318">
        <ele>0</ele>
        <time>2013-05-01T13:04:54Z</time>
      </trkpt>
      <trkpt lat="60.0370979309" lon="15.6288909912">
        <ele>0</ele>
        <time>2013-05-01T13:04:55Z</time>
      </trkpt>
      <trkpt lat="60.0370597839" lon="15.6289319992">
        <ele>0</ele>
        <time>2013-05-01T13:04:56Z</time>
      </trkpt>
      <trkpt lat="60.0370292664" lon="15.6289577484">
        <ele>0</ele>
        <time>2013-05-01T13:04:57Z</time>
      </trkpt>
      <trkpt lat="60.0369758606" lon="15.6289758682">
        <ele>0</ele>
        <time>2013-05-01T13:04:58Z</time>
      </trkpt>
      <trkpt lat="60.0369300842" lon="15.6289730072">
        <ele>0</ele>
        <time>2013-05-01T13:04:59Z</time>
      </trkpt>
      <trkpt lat="60.0368843079" lon="15.6289596558">
        <ele>0</ele>
        <time>2013-05-01T13:05:00Z</time>
      </trkpt>
      <trkpt lat="60.0368423462" lon="15.6289453506">
        <ele>0</ele>
        <time>2013-05-01T13:05:01Z</time>
      </trkpt>
      <trkpt lat="60.0368003845" lon="15.6289215088">
        <ele>0</ele>
        <time>2013-05-01T13:05:02Z</time>
      </trkpt>
      <trkpt lat="60.0367469788" lon="15.6288986206">
        <ele>0</ele>
        <time>2013-05-01T13:05:03Z</time>
      </trkpt>
      <trkpt lat="60.0366477966" lon="15.6288461685">
        <ele>0</ele>
        <time>2013-05-01T13:05:05Z</time>
      </trkpt>
      <trkpt lat="60.0365905762" lon="15.6288108826">
        <ele>0</ele>
        <time>2013-05-01T13:05:06Z</time>
      </trkpt>
      <trkpt lat="60.036529541" lon="15.6287899017">
        <ele>0</ele>
        <time>2013-05-01T13:05:07Z</time>
      </trkpt>
      <trkpt lat="60.0364227295" lon="15.6288137436">
        <ele>0</ele>
        <time>2013-05-01T13:05:09Z</time>
      </trkpt>
      <trkpt lat="60.0363426208" lon="15.6288852692">
        <ele>0</ele>
        <time>2013-05-01T13:05:10Z</time>
      </trkpt>
      <trkpt lat="60.0362052917" lon="15.6290807724">
        <ele>0</ele>
        <time>2013-05-01T13:05:12Z</time>
      </trkpt>
      <trkpt lat="60.0361366272" lon="15.6291828156">
        <ele>0</ele>
        <time>2013-05-01T13:05:13Z</time>
      </trkpt>
      <trkpt lat="60.0360641479" lon="15.6293029785">
        <ele>0</ele>
        <time>2013-05-01T13:05:14Z</time>
      </trkpt>
      <trkpt lat="60.0359191895" lon="15.6295194626">
        <ele>0</ele>
        <time>2013-05-01T13:05:16Z</time>
      </trkpt>
      <trkpt lat="60.0358505249" lon="15.6296186447">
        <ele>0</ele>
        <time>2013-05-01T13:05:17Z</time>
      </trkpt>
      <trkpt lat="60.0357589722" lon="15.6297483444">
        <ele>0</ele>
        <time>2013-05-01T13:05:18Z</time>
      </trkpt>
      <trkpt lat="60.0356826782" lon="15.6298494339">
        <ele>0</ele>
        <time>2013-05-01T13:05:19Z</time>
      </trkpt>
      <trkpt lat="60.0355987549" lon="15.6299629211">
        <ele>0</ele>
        <time>2013-05-01T13:05:20Z</time>
      </trkpt>
      <trkpt lat="60.0355186462" lon="15.6300697327">
        <ele>0</ele>
        <time>2013-05-01T13:05:21Z</time>
      </trkpt>
      <trkpt lat="60.0354499817" lon="15.6301593781">
        <ele>0</ele>
        <time>2013-05-01T13:05:22Z</time>
      </trkpt>
      <trkpt lat="60.035358429" lon="15.630282402">
        <ele>0</ele>
        <time>2013-05-01T13:05:23Z</time>
      </trkpt>
      <trkpt lat="60.0352859497" lon="15.6303815842">
        <ele>0</ele>
        <time>2013-05-01T13:05:24Z</time>
      </trkpt>
      <trkpt lat="60.0352134705" lon="15.63048172">
        <ele>0</ele>
        <time>2013-05-01T13:05:25Z</time>
      </trkpt>
      <trkpt lat="60.0351257324" lon="15.6306028366">
        <ele>0</ele>
        <time>2013-05-01T13:05:26Z</time>
      </trkpt>
      <trkpt lat="60.0350494385" lon="15.6307010651">
        <ele>0</ele>
        <time>2013-05-01T13:05:27Z</time>
      </trkpt>
      <trkpt lat="60.0349845886" lon="15.6307868958">
        <ele>0</ele>
        <time>2013-05-01T13:05:28Z</time>
      </trkpt>
      <trkpt lat="60.0349197388" lon="15.6308765411">
        <ele>0</ele>
        <time>2013-05-01T13:05:29Z</time>
      </trkpt>
      <trkpt lat="60.0348510742" lon="15.6309661865">
        <ele>0</ele>
        <time>2013-05-01T13:05:30Z</time>
      </trkpt>
      <trkpt lat="60.0347938538" lon="15.6310482025">
        <ele>0</ele>
        <time>2013-05-01T13:05:31Z</time>
      </trkpt>
      <trkpt lat="60.0347290039" lon="15.6311416626">
        <ele>0</ele>
        <time>2013-05-01T13:05:32Z</time>
      </trkpt>
      <trkpt lat="60.0346832275" lon="15.6312036514">
        <ele>0</ele>
        <time>2013-05-01T13:05:33Z</time>
      </trkpt>
      <trkpt lat="60.034614563" lon="15.6313009262">
        <ele>0</ele>
        <time>2013-05-01T13:05:34Z</time>
      </trkpt>
      <trkpt lat="60.034488678" lon="15.6314668655">
        <ele>0</ele>
        <time>2013-05-01T13:05:36Z</time>
      </trkpt>
      <trkpt lat="60.0344352722" lon="15.6315383911">
        <ele>0</ele>
        <time>2013-05-01T13:05:37Z</time>
      </trkpt>
      <trkpt lat="60.034362793" lon="15.6316347122">
        <ele>0</ele>
        <time>2013-05-01T13:05:38Z</time>
      </trkpt>
      <trkpt lat="60.0343055725" lon="15.6317167282">
        <ele>0</ele>
        <time>2013-05-01T13:05:39Z</time>
      </trkpt>
      <trkpt lat="60.0342445374" lon="15.6318035126">
        <ele>0</ele>
        <time>2013-05-01T13:05:40Z</time>
      </trkpt>
      <trkpt lat="60.0341873169" lon="15.6318883896">
        <ele>0</ele>
        <time>2013-05-01T13:05:41Z</time>
      </trkpt>
      <trkpt lat="60.034122467" lon="15.6319732666">
        <ele>0</ele>
        <time>2013-05-01T13:05:42Z</time>
      </trkpt>
      <trkpt lat="60.0340614319" lon="15.6320562363">
        <ele>0</ele>
        <time>2013-05-01T13:05:43Z</time>
      </trkpt>
      <trkpt lat="60.0340042114" lon="15.6321401596">
        <ele>0</ele>
        <time>2013-05-01T13:05:44Z</time>
      </trkpt>
      <trkpt lat="60.0339508057" lon="15.6322154999">
        <ele>0</ele>
        <time>2013-05-01T13:05:45Z</time>
      </trkpt>
      <trkpt lat="60.0338821411" lon="15.6323194504">
        <ele>0</ele>
        <time>2013-05-01T13:05:46Z</time>
      </trkpt>
      <trkpt lat="60.0337600708" lon="15.6325187683">
        <ele>0</ele>
        <time>2013-05-01T13:05:48Z</time>
      </trkpt>
      <trkpt lat="60.0337257385" lon="15.6325931549">
        <ele>0</ele>
        <time>2013-05-01T13:05:49Z</time>
      </trkpt>
      <trkpt lat="60.0336685181" lon="15.6327199936">
        <ele>0</ele>
        <time>2013-05-01T13:05:50Z</time>
      </trkpt>
      <trkpt lat="60.0336151123" lon="15.6328287125">
        <ele>0</ele>
        <time>2013-05-01T13:05:51Z</time>
      </trkpt>
      <trkpt lat="60.0335655212" lon="15.6329507828">
        <ele>0</ele>
        <time>2013-05-01T13:05:52Z</time>
      </trkpt>
      <trkpt lat="60.0335273743" lon="15.6330413818">
        <ele>0</ele>
        <time>2013-05-01T13:05:53Z</time>
      </trkpt>
      <trkpt lat="60.0334663391" lon="15.6331930161">
        <ele>0</ele>
        <time>2013-05-01T13:05:54Z</time>
      </trkpt>
      <trkpt lat="60.0334205627" lon="15.633310318">
        <ele>0</ele>
        <time>2013-05-01T13:05:55Z</time>
      </trkpt>
      <trkpt lat="60.0333747864" lon="15.6334295273">
        <ele>0</ele>
        <time>2013-05-01T13:05:56Z</time>
      </trkpt>
      <trkpt lat="60.0332832336" lon="15.6336889267">
        <ele>0</ele>
        <time>2013-05-01T13:05:58Z</time>
      </trkpt>
      <trkpt lat="60.0332374573" lon="15.633813858">
        <ele>0</ele>
        <time>2013-05-01T13:05:59Z</time>
      </trkpt>
      <trkpt lat="60.0331916809" lon="15.6339502335">
        <ele>0</ele>
        <time>2013-05-01T13:06:00Z</time>
      </trkpt>
      <trkpt lat="60.0331459045" lon="15.6340789795">
        <ele>0</ele>
        <time>2013-05-01T13:06:01Z</time>
      </trkpt>
      <trkpt lat="60.0331039429" lon="15.6342029572">
        <ele>0</ele>
        <time>2013-05-01T13:06:02Z</time>
      </trkpt>
      <trkpt lat="60.0330619812" lon="15.6343183517">
        <ele>0</ele>
        <time>2013-05-01T13:06:03Z</time>
      </trkpt>
      <trkpt lat="60.0329399109" lon="15.634680748">
        <ele>0</ele>
        <time>2013-05-01T13:06:06Z</time>
      </trkpt>
      <trkpt lat="60.0328979492" lon="15.6348028183">
        <ele>0</ele>
        <time>2013-05-01T13:06:07Z</time>
      </trkpt>
      <trkpt lat="60.0328636169" lon="15.6349143982">
        <ele>0</ele>
        <time>2013-05-01T13:06:08Z</time>
      </trkpt>
      <trkpt lat="60.0328292847" lon="15.6350240707">
        <ele>0</ele>
        <time>2013-05-01T13:06:09Z</time>
      </trkpt>
      <trkpt lat="60.0328025818" lon="15.635140419">
        <ele>0</ele>
        <time>2013-05-01T13:06:10Z</time>
      </trkpt>
      <trkpt lat="60.0327682495" lon="15.6352462769">
        <ele>0</ele>
        <time>2013-05-01T13:06:11Z</time>
      </trkpt>
      <trkpt lat="60.0326690674" lon="15.6356163025">
        <ele>0</ele>
        <time>2013-05-01T13:06:14Z</time>
      </trkpt>
      <trkpt lat="60.0326423645" lon="15.6357383728">
        <ele>0</ele>
        <time>2013-05-01T13:06:15Z</time>
      </trkpt>
      <trkpt lat="60.0326080322" lon="15.6358652115">
        <ele>0</ele>
        <time>2013-05-01T13:06:16Z</time>
      </trkpt>
      <trkpt lat="60.0325813293" lon="15.6359729767">
        <ele>0</ele>
        <time>2013-05-01T13:06:17Z</time>
      </trkpt>
      <trkpt lat="60.0325393677" lon="15.6361293793">
        <ele>0</ele>
        <time>2013-05-01T13:06:18Z</time>
      </trkpt>
      <trkpt lat="60.0325050354" lon="15.6362495422">
        <ele>0</ele>
        <time>2013-05-01T13:06:19Z</time>
      </trkpt>
      <trkpt lat="60.0324745178" lon="15.6363735199">
        <ele>0</ele>
        <time>2013-05-01T13:06:20Z</time>
      </trkpt>
      <trkpt lat="60.0324440002" lon="15.6364955902">
        <ele>0</ele>
        <time>2013-05-01T13:06:21Z</time>
      </trkpt>
      <trkpt lat="60.0324211121" lon="15.6366252899">
        <ele>0</ele>
        <time>2013-05-01T13:06:22Z</time>
      </trkpt>
      <trkpt lat="60.0323257446" lon="15.6370000839">
        <ele>0</ele>
        <time>2013-05-01T13:06:25Z</time>
      </trkpt>
      <trkpt lat="60.0320739746" lon="15.6379795074">
        <ele>0</ele>
        <time>2013-05-01T13:06:32Z</time>
      </trkpt>
      <trkpt lat="60.0320358276" lon="15.6381235123">
        <ele>0</ele>
        <time>2013-05-01T13:06:33Z</time>
      </trkpt>
      <trkpt lat="60.0320014954" lon="15.6382579803">
        <ele>0</ele>
        <time>2013-05-01T13:06:34Z</time>
      </trkpt>
      <trkpt lat="60.0319633484" lon="15.6384105682">
        <ele>0</ele>
        <time>2013-05-01T13:06:35Z</time>
      </trkpt>
      <trkpt lat="60.0319290161" lon="15.6385412216">
        <ele>0</ele>
        <time>2013-05-01T13:06:36Z</time>
      </trkpt>
      <trkpt lat="60.0318984985" lon="15.6386528015">
        <ele>0</ele>
        <time>2013-05-01T13:06:37Z</time>
      </trkpt>
      <trkpt lat="60.0318565369" lon="15.6388254166">
        <ele>0</ele>
        <time>2013-05-01T13:06:38Z</time>
      </trkpt>
      <trkpt lat="60.0318222046" lon="15.6389570236">
        <ele>0</ele>
        <time>2013-05-01T13:06:39Z</time>
      </trkpt>
      <trkpt lat="60.0317878723" lon="15.639087677">
        <ele>0</ele>
        <time>2013-05-01T13:06:40Z</time>
      </trkpt>
      <trkpt lat="60.0317611694" lon="15.6391878128">
        <ele>0</ele>
        <time>2013-05-01T13:06:41Z</time>
      </trkpt>
      <trkpt lat="60.0317230225" lon="15.6393547058">
        <ele>0</ele>
        <time>2013-05-01T13:06:42Z</time>
      </trkpt>
      <trkpt lat="60.031703949" lon="15.6394605637">
        <ele>0</ele>
        <time>2013-05-01T13:06:43Z</time>
      </trkpt>
      <trkpt lat="60.0316810608" lon="15.639582634">
        <ele>0</ele>
        <time>2013-05-01T13:06:44Z</time>
      </trkpt>
      <trkpt lat="60.0316581726" lon="15.6396856308">
        <ele>0</ele>
        <time>2013-05-01T13:06:45Z</time>
      </trkpt>
      <trkpt lat="60.0316352844" lon="15.6398105621">
        <ele>0</ele>
        <time>2013-05-01T13:06:46Z</time>
      </trkpt>
      <trkpt lat="60.0315628052" lon="15.6401662827">
        <ele>0</ele>
        <time>2013-05-01T13:06:49Z</time>
      </trkpt>
      <trkpt lat="60.0314407349" lon="15.6406850815">
        <ele>0</ele>
        <time>2013-05-01T13:06:53Z</time>
      </trkpt>
      <trkpt lat="60.0313987732" lon="15.640832901">
        <ele>0</ele>
        <time>2013-05-01T13:06:54Z</time>
      </trkpt>
      <trkpt lat="60.0313606262" lon="15.6409702301">
        <ele>0</ele>
        <time>2013-05-01T13:06:55Z</time>
      </trkpt>
      <trkpt lat="60.0313224792" lon="15.6410951614">
        <ele>0</ele>
        <time>2013-05-01T13:06:56Z</time>
      </trkpt>
      <trkpt lat="60.0312919617" lon="15.6412010193">
        <ele>0</ele>
        <time>2013-05-01T13:06:57Z</time>
      </trkpt>
      <trkpt lat="60.0312423706" lon="15.6413574219">
        <ele>0</ele>
        <time>2013-05-01T13:06:58Z</time>
      </trkpt>
      <trkpt lat="60.0312042236" lon="15.6414890289">
        <ele>0</ele>
        <time>2013-05-01T13:06:59Z</time>
      </trkpt>
      <trkpt lat="60.031162262" lon="15.6416168213">
        <ele>0</ele>
        <time>2013-05-01T13:07:00Z</time>
      </trkpt>
      <trkpt lat="60.031124115" lon="15.6417322159">
        <ele>0</ele>
        <time>2013-05-01T13:07:01Z</time>
      </trkpt>
      <trkpt lat="60.0310668945" lon="15.6418361664">
        <ele>0</ele>
        <time>2013-05-01T13:07:02Z</time>
      </trkpt>
      <trkpt lat="60.0310096741" lon="15.6419467926">
        <ele>0</ele>
        <time>2013-05-01T13:07:03Z</time>
      </trkpt>
      <trkpt lat="60.0309524536" lon="15.6420478821">
        <ele>0</ele>
        <time>2013-05-01T13:07:04Z</time>
      </trkpt>
      <trkpt lat="60.0309028625" lon="15.6421327591">
        <ele>0</ele>
        <time>2013-05-01T13:07:05Z</time>
      </trkpt>
      <trkpt lat="60.0308303833" lon="15.6422462463">
        <ele>0</ele>
        <time>2013-05-01T13:07:06Z</time>
      </trkpt>
      <trkpt lat="60.0307693481" lon="15.6423463821">
        <ele>0</ele>
        <time>2013-05-01T13:07:07Z</time>
      </trkpt>
      <trkpt lat="60.0307121277" lon="15.6424369812">
        <ele>0</ele>
        <time>2013-05-01T13:07:08Z</time>
      </trkpt>
      <trkpt lat="60.0306549072" lon="15.6425256729">
        <ele>0</ele>
        <time>2013-05-01T13:07:09Z</time>
      </trkpt>
      <trkpt lat="60.0306015015" lon="15.6426095963">
        <ele>0</ele>
        <time>2013-05-01T13:07:10Z</time>
      </trkpt>
      <trkpt lat="60.0304450989" lon="15.6428489685">
        <ele>0</ele>
        <time>2013-05-01T13:07:13Z</time>
      </trkpt>
      <trkpt lat="60.0303764343" lon="15.6429538727">
        <ele>0</ele>
        <time>2013-05-01T13:07:14Z</time>
      </trkpt>
      <trkpt lat="60.0303192139" lon="15.6430416107">
        <ele>0</ele>
        <time>2013-05-01T13:07:15Z</time>
      </trkpt>
      <trkpt lat="60.0302658081" lon="15.6431188583">
        <ele>0</ele>
        <time>2013-05-01T13:07:16Z</time>
      </trkpt>
      <trkpt lat="60.0302124023" lon="15.6431951523">
        <ele>0</ele>
        <time>2013-05-01T13:07:17Z</time>
      </trkpt>
      <trkpt lat="60.0301437378" lon="15.6433038712">
        <ele>0</ele>
        <time>2013-05-01T13:07:18Z</time>
      </trkpt>
      <trkpt lat="60.0300865173" lon="15.6433973312">
        <ele>0</ele>
        <time>2013-05-01T13:07:19Z</time>
      </trkpt>
      <trkpt lat="60.0299758911" lon="15.6436100006">
        <ele>0</ele>
        <time>2013-05-01T13:07:21Z</time>
      </trkpt>
      <trkpt lat="60.0299263" lon="15.6437292099">
        <ele>0</ele>
        <time>2013-05-01T13:07:22Z</time>
      </trkpt>
      <trkpt lat="60.029876709" lon="15.6438484192">
        <ele>0</ele>
        <time>2013-05-01T13:07:23Z</time>
      </trkpt>
      <trkpt lat="60.0298271179" lon="15.6439638138">
        <ele>0</ele>
        <time>2013-05-01T13:07:24Z</time>
      </trkpt>
      <trkpt lat="60.0297813416" lon="15.6440696716">
        <ele>0</ele>
        <time>2013-05-01T13:07:25Z</time>
      </trkpt>
      <trkpt lat="60.0297241211" lon="15.6442136765">
        <ele>0</ele>
        <time>2013-05-01T13:07:26Z</time>
      </trkpt>
      <trkpt lat="60.0296707153" lon="15.6443424225">
        <ele>0</ele>
        <time>2013-05-01T13:07:27Z</time>
      </trkpt>
      <trkpt lat="60.0294837952" lon="15.6447963715">
        <ele>0</ele>
        <time>2013-05-01T13:07:31Z</time>
      </trkpt>
      <trkpt lat="60.0294380188" lon="15.6449041367">
        <ele>0</ele>
        <time>2013-05-01T13:07:32Z</time>
      </trkpt>
      <trkpt lat="60.0294036865" lon="15.6449899673">
        <ele>0</ele>
        <time>2013-05-01T13:07:33Z</time>
      </trkpt>
      <trkpt lat="60.0293579102" lon="15.6451148987">
        <ele>0</ele>
        <time>2013-05-01T13:07:34Z</time>
      </trkpt>
      <trkpt lat="60.0293121338" lon="15.6452379227">
        <ele>0</ele>
        <time>2013-05-01T13:07:35Z</time>
      </trkpt>
      <trkpt lat="60.0292739868" lon="15.6453437805">
        <ele>0</ele>
        <time>2013-05-01T13:07:36Z</time>
      </trkpt>
      <trkpt lat="60.0291519165" lon="15.6456928253">
        <ele>0</ele>
        <time>2013-05-01T13:07:39Z</time>
      </trkpt>
      <trkpt lat="60.0290718079" lon="15.6459407806">
        <ele>0</ele>
        <time>2013-05-01T13:07:41Z</time>
      </trkpt>
      <trkpt lat="60.0290298462" lon="15.6460752487">
        <ele>0</ele>
        <time>2013-05-01T13:07:42Z</time>
      </trkpt>
      <trkpt lat="60.0289306641" lon="15.6464262009">
        <ele>0</ele>
        <time>2013-05-01T13:07:45Z</time>
      </trkpt>
      <trkpt lat="60.0288925171" lon="15.6465625763">
        <ele>0</ele>
        <time>2013-05-01T13:07:46Z</time>
      </trkpt>
      <trkpt lat="60.0288543701" lon="15.6466989517">
        <ele>0</ele>
        <time>2013-05-01T13:07:47Z</time>
      </trkpt>
      <trkpt lat="60.0288009644" lon="15.6469078064">
        <ele>0</ele>
        <time>2013-05-01T13:07:49Z</time>
      </trkpt>
      <trkpt lat="60.0287628174" lon="15.647061348">
        <ele>0</ele>
        <time>2013-05-01T13:07:50Z</time>
      </trkpt>
      <trkpt lat="60.0287361145" lon="15.6471757889">
        <ele>0</ele>
        <time>2013-05-01T13:07:51Z</time>
      </trkpt>
      <trkpt lat="60.0287094116" lon="15.6473007202">
        <ele>0</ele>
        <time>2013-05-01T13:07:52Z</time>
      </trkpt>
      <trkpt lat="60.0286865234" lon="15.647400856">
        <ele>0</ele>
        <time>2013-05-01T13:07:53Z</time>
      </trkpt>
      <trkpt lat="60.0286560059" lon="15.6475534439">
        <ele>0</ele>
        <time>2013-05-01T13:07:54Z</time>
      </trkpt>
      <trkpt lat="60.028629303" lon="15.6476821899">
        <ele>0</ele>
        <time>2013-05-01T13:07:55Z</time>
      </trkpt>
      <trkpt lat="60.0286026001" lon="15.6477985382">
        <ele>0</ele>
        <time>2013-05-01T13:07:56Z</time>
      </trkpt>
      <trkpt lat="60.0285835266" lon="15.6478977203">
        <ele>0</ele>
        <time>2013-05-01T13:07:57Z</time>
      </trkpt>
      <trkpt lat="60.0285491943" lon="15.6480503082">
        <ele>0</ele>
        <time>2013-05-01T13:07:58Z</time>
      </trkpt>
      <trkpt lat="60.0285263062" lon="15.6481781006">
        <ele>0</ele>
        <time>2013-05-01T13:07:59Z</time>
      </trkpt>
      <trkpt lat="60.028503418" lon="15.6483058929">
        <ele>0</ele>
        <time>2013-05-01T13:08:00Z</time>
      </trkpt>
      <trkpt lat="60.0284805298" lon="15.6484279633">
        <ele>0</ele>
        <time>2013-05-01T13:08:01Z</time>
      </trkpt>
      <trkpt lat="60.0284614563" lon="15.6485366821">
        <ele>0</ele>
        <time>2013-05-01T13:08:02Z</time>
      </trkpt>
      <trkpt lat="60.0284423828" lon="15.6486473083">
        <ele>0</ele>
        <time>2013-05-01T13:08:03Z</time>
      </trkpt>
      <trkpt lat="60.028427124" lon="15.6487493515">
        <ele>0</ele>
        <time>2013-05-01T13:08:04Z</time>
      </trkpt>
      <trkpt lat="60.0283584595" lon="15.6493330002">
        <ele>0</ele>
        <time>2013-05-01T13:08:09Z</time>
      </trkpt>
      <trkpt lat="60.0283508301" lon="15.6494417191">
        <ele>0</ele>
        <time>2013-05-01T13:08:10Z</time>
      </trkpt>
      <trkpt lat="60.028339386" lon="15.6496772766">
        <ele>0</ele>
        <time>2013-05-01T13:08:12Z</time>
      </trkpt>
      <trkpt lat="60.0283355713" lon="15.6497917175">
        <ele>0</ele>
        <time>2013-05-01T13:08:13Z</time>
      </trkpt>
      <trkpt lat="60.0283317566" lon="15.6499080658">
        <ele>0</ele>
        <time>2013-05-01T13:08:14Z</time>
      </trkpt>
      <trkpt lat="60.0283241272" lon="15.6500253677">
        <ele>0</ele>
        <time>2013-05-01T13:08:15Z</time>
      </trkpt>
      <trkpt lat="60.0283203125" lon="15.6501321793">
        <ele>0</ele>
        <time>2013-05-01T13:08:16Z</time>
      </trkpt>
      <trkpt lat="60.0283203125" lon="15.6502428055">
        <ele>0</ele>
        <time>2013-05-01T13:08:17Z</time>
      </trkpt>
      <trkpt lat="60.0283164978" lon="15.6503944397">
        <ele>0</ele>
        <time>2013-05-01T13:08:18Z</time>
      </trkpt>
      <trkpt lat="60.0283126831" lon="15.6505250931">
        <ele>0</ele>
        <time>2013-05-01T13:08:19Z</time>
      </trkpt>
      <trkpt lat="60.0283088684" lon="15.6506567001">
        <ele>0</ele>
        <time>2013-05-01T13:08:20Z</time>
      </trkpt>
      <trkpt lat="60.0283088684" lon="15.6507854462">
        <ele>0</ele>
        <time>2013-05-01T13:08:21Z</time>
      </trkpt>
      <trkpt lat="60.028301239" lon="15.6510257721">
        <ele>0</ele>
        <time>2013-05-01T13:08:23Z</time>
      </trkpt>
      <trkpt lat="60.0282974243" lon="15.6511554718">
        <ele>0</ele>
        <time>2013-05-01T13:08:24Z</time>
      </trkpt>
      <trkpt lat="60.0282821655" lon="15.6516866684">
        <ele>0</ele>
        <time>2013-05-01T13:08:28Z</time>
      </trkpt>
      <trkpt lat="60.0282783508" lon="15.6518259048">
        <ele>0</ele>
        <time>2013-05-01T13:08:29Z</time>
      </trkpt>
      <trkpt lat="60.0282783508" lon="15.6519832611">
        <ele>0</ele>
        <time>2013-05-01T13:08:30Z</time>
      </trkpt>
      <trkpt lat="60.0282707214" lon="15.6521234512">
        <ele>0</ele>
        <time>2013-05-01T13:08:31Z</time>
      </trkpt>
      <trkpt lat="60.0282669067" lon="15.6522855759">
        <ele>0</ele>
        <time>2013-05-01T13:08:32Z</time>
      </trkpt>
      <trkpt lat="60.028263092" lon="15.6524085999">
        <ele>0</ele>
        <time>2013-05-01T13:08:33Z</time>
      </trkpt>
      <trkpt lat="60.0282592773" lon="15.6525964737">
        <ele>0</ele>
        <time>2013-05-01T13:08:34Z</time>
      </trkpt>
      <trkpt lat="60.0282554626" lon="15.6527757645">
        <ele>0</ele>
        <time>2013-05-01T13:08:35Z</time>
      </trkpt>
      <trkpt lat="60.0282478333" lon="15.6530570984">
        <ele>0</ele>
        <time>2013-05-01T13:08:37Z</time>
      </trkpt>
      <trkpt lat="60.0282440186" lon="15.6532506943">
        <ele>0</ele>
        <time>2013-05-01T13:08:38Z</time>
      </trkpt>
      <trkpt lat="60.0282402039" lon="15.6533946991">
        <ele>0</ele>
        <time>2013-05-01T13:08:39Z</time>
      </trkpt>
      <trkpt lat="60.0282363892" lon="15.653544426">
        <ele>0</ele>
        <time>2013-05-01T13:08:40Z</time>
      </trkpt>
      <trkpt lat="60.0282287598" lon="15.6536960602">
        <ele>0</ele>
        <time>2013-05-01T13:08:41Z</time>
      </trkpt>
      <trkpt lat="60.0282211304" lon="15.6538600922">
        <ele>0</ele>
        <time>2013-05-01T13:08:42Z</time>
      </trkpt>
      <trkpt lat="60.028213501" lon="15.6539964676">
        <ele>0</ele>
        <time>2013-05-01T13:08:43Z</time>
      </trkpt>
      <trkpt lat="60.0281906128" lon="15.6542615891">
        <ele>0</ele>
        <time>2013-05-01T13:08:45Z</time>
      </trkpt>
      <trkpt lat="60.028175354" lon="15.654417038">
        <ele>0</ele>
        <time>2013-05-01T13:08:46Z</time>
      </trkpt>
      <trkpt lat="60.0281562805" lon="15.6545648575">
        <ele>0</ele>
        <time>2013-05-01T13:08:47Z</time>
      </trkpt>
      <trkpt lat="60.028137207" lon="15.6546974182">
        <ele>0</ele>
        <time>2013-05-01T13:08:48Z</time>
      </trkpt>
      <trkpt lat="60.0281219482" lon="15.6548013687">
        <ele>0</ele>
        <time>2013-05-01T13:08:49Z</time>
      </trkpt>
      <trkpt lat="60.0280914307" lon="15.6549654007">
        <ele>0</ele>
        <time>2013-05-01T13:08:50Z</time>
      </trkpt>
      <trkpt lat="60.0280647278" lon="15.65508461">
        <ele>0</ele>
        <time>2013-05-01T13:08:51Z</time>
      </trkpt>
      <trkpt lat="60.0280380249" lon="15.655213356">
        <ele>0</ele>
        <time>2013-05-01T13:08:52Z</time>
      </trkpt>
      <trkpt lat="60.0280151367" lon="15.6553163528">
        <ele>0</ele>
        <time>2013-05-01T13:08:53Z</time>
      </trkpt>
      <trkpt lat="60.0279769897" lon="15.6554756165">
        <ele>0</ele>
        <time>2013-05-01T13:08:54Z</time>
      </trkpt>
      <trkpt lat="60.0278282166" lon="15.6559886932">
        <ele>0</ele>
        <time>2013-05-01T13:08:58Z</time>
      </trkpt>
      <trkpt lat="60.0277442932" lon="15.6562404633">
        <ele>0</ele>
        <time>2013-05-01T13:09:00Z</time>
      </trkpt>
      <trkpt lat="60.0277023315" lon="15.6563615799">
        <ele>0</ele>
        <time>2013-05-01T13:09:01Z</time>
      </trkpt>
      <trkpt lat="60.0276641846" lon="15.6564741135">
        <ele>0</ele>
        <time>2013-05-01T13:09:02Z</time>
      </trkpt>
      <trkpt lat="60.0274887085" lon="15.6569757462">
        <ele>0</ele>
        <time>2013-05-01T13:09:06Z</time>
      </trkpt>
      <trkpt lat="60.0274353027" lon="15.6571187973">
        <ele>0</ele>
        <time>2013-05-01T13:09:07Z</time>
      </trkpt>
      <trkpt lat="60.0273895264" lon="15.657248497">
        <ele>0</ele>
        <time>2013-05-01T13:09:08Z</time>
      </trkpt>
      <trkpt lat="60.02734375" lon="15.6573801041">
        <ele>0</ele>
        <time>2013-05-01T13:09:09Z</time>
      </trkpt>
      <trkpt lat="60.0272941589" lon="15.6575136185">
        <ele>0</ele>
        <time>2013-05-01T13:09:10Z</time>
      </trkpt>
      <trkpt lat="60.0272445679" lon="15.6576480865">
        <ele>0</ele>
        <time>2013-05-01T13:09:11Z</time>
      </trkpt>
      <trkpt lat="60.0271911621" lon="15.6577978134">
        <ele>0</ele>
        <time>2013-05-01T13:09:12Z</time>
      </trkpt>
      <trkpt lat="60.0271530151" lon="15.6579084396">
        <ele>0</ele>
        <time>2013-05-01T13:09:13Z</time>
      </trkpt>
      <trkpt lat="60.02709198" lon="15.6580848694">
        <ele>0</ele>
        <time>2013-05-01T13:09:14Z</time>
      </trkpt>
      <trkpt lat="60.0270385742" lon="15.6582250595">
        <ele>0</ele>
        <time>2013-05-01T13:09:15Z</time>
      </trkpt>
      <trkpt lat="60.0269927979" lon="15.6583576202">
        <ele>0</ele>
        <time>2013-05-01T13:09:16Z</time>
      </trkpt>
      <trkpt lat="60.0269432068" lon="15.6584892273">
        <ele>0</ele>
        <time>2013-05-01T13:09:17Z</time>
      </trkpt>
      <trkpt lat="60.0268783569" lon="15.658665657">
        <ele>0</ele>
        <time>2013-05-01T13:09:18Z</time>
      </trkpt>
      <trkpt lat="60.0268211365" lon="15.6588134766">
        <ele>0</ele>
        <time>2013-05-01T13:09:19Z</time>
      </trkpt>
      <trkpt lat="60.0267677307" lon="15.6589574814">
        <ele>0</ele>
        <time>2013-05-01T13:09:20Z</time>
      </trkpt>
      <trkpt lat="60.026714325" lon="15.6591014862">
        <ele>0</ele>
        <time>2013-05-01T13:09:21Z</time>
      </trkpt>
      <trkpt lat="60.0266609192" lon="15.6592235565">
        <ele>0</ele>
        <time>2013-05-01T13:09:22Z</time>
      </trkpt>
      <trkpt lat="60.026599884" lon="15.659371376">
        <ele>0</ele>
        <time>2013-05-01T13:09:23Z</time>
      </trkpt>
      <trkpt lat="60.0264968872" lon="15.6596260071">
        <ele>0</ele>
        <time>2013-05-01T13:09:25Z</time>
      </trkpt>
      <trkpt lat="60.0264320374" lon="15.6597852707">
        <ele>0</ele>
        <time>2013-05-01T13:09:26Z</time>
      </trkpt>
      <trkpt lat="60.0263748169" lon="15.6599264145">
        <ele>0</ele>
        <time>2013-05-01T13:09:27Z</time>
      </trkpt>
      <trkpt lat="60.0263214111" lon="15.6600580215">
        <ele>0</ele>
        <time>2013-05-01T13:09:28Z</time>
      </trkpt>
      <trkpt lat="60.0262641907" lon="15.6601877213">
        <ele>0</ele>
        <time>2013-05-01T13:09:29Z</time>
      </trkpt>
      <trkpt lat="60.0262107849" lon="15.6603193283">
        <ele>0</ele>
        <time>2013-05-01T13:09:30Z</time>
      </trkpt>
      <trkpt lat="60.0261573792" lon="15.6604385376">
        <ele>0</ele>
        <time>2013-05-01T13:09:31Z</time>
      </trkpt>
      <trkpt lat="60.0261001587" lon="15.6605701447">
        <ele>0</ele>
        <time>2013-05-01T13:09:32Z</time>
      </trkpt>
      <trkpt lat="60.0260467529" lon="15.660692215">
        <ele>0</ele>
        <time>2013-05-01T13:09:33Z</time>
      </trkpt>
      <trkpt lat="60.0259933472" lon="15.6608066559">
        <ele>0</ele>
        <time>2013-05-01T13:09:34Z</time>
      </trkpt>
      <trkpt lat="60.0259399414" lon="15.6609277725">
        <ele>0</ele>
        <time>2013-05-01T13:09:35Z</time>
      </trkpt>
      <trkpt lat="60.0258865356" lon="15.6610364914">
        <ele>0</ele>
        <time>2013-05-01T13:09:36Z</time>
      </trkpt>
      <trkpt lat="60.025844574" lon="15.6611299515">
        <ele>0</ele>
        <time>2013-05-01T13:09:37Z</time>
      </trkpt>
      <trkpt lat="60.0257720947" lon="15.6612710953">
        <ele>0</ele>
        <time>2013-05-01T13:09:38Z</time>
      </trkpt>
      <trkpt lat="60.025718689" lon="15.6613788605">
        <ele>0</ele>
        <time>2013-05-01T13:09:39Z</time>
      </trkpt>
      <trkpt lat="60.0256652832" lon="15.6614961624">
        <ele>0</ele>
        <time>2013-05-01T13:09:40Z</time>
      </trkpt>
      <trkpt lat="60.0256118774" lon="15.6616125107">
        <ele>0</ele>
        <time>2013-05-01T13:09:41Z</time>
      </trkpt>
      <trkpt lat="60.0255622864" lon="15.6617145538">
        <ele>0</ele>
        <time>2013-05-01T13:09:42Z</time>
      </trkpt>
      <trkpt lat="60.0254516602" lon="15.6619319916">
        <ele>0</ele>
        <time>2013-05-01T13:09:44Z</time>
      </trkpt>
      <trkpt lat="60.0254020691" lon="15.6620235443">
        <ele>0</ele>
        <time>2013-05-01T13:09:45Z</time>
      </trkpt>
      <trkpt lat="60.0253372192" lon="15.6621465683">
        <ele>0</ele>
        <time>2013-05-01T13:09:46Z</time>
      </trkpt>
      <trkpt lat="60.0252761841" lon="15.6622648239">
        <ele>0</ele>
        <time>2013-05-01T13:09:47Z</time>
      </trkpt>
      <trkpt lat="60.0252189636" lon="15.6623678207">
        <ele>0</ele>
        <time>2013-05-01T13:09:48Z</time>
      </trkpt>
      <trkpt lat="60.025177002" lon="15.662443161">
        <ele>0</ele>
        <time>2013-05-01T13:09:49Z</time>
      </trkpt>
      <trkpt lat="60.0251045227" lon="15.6625766754">
        <ele>0</ele>
        <time>2013-05-01T13:09:50Z</time>
      </trkpt>
      <trkpt lat="60.0250549316" lon="15.6626739502">
        <ele>0</ele>
        <time>2013-05-01T13:09:51Z</time>
      </trkpt>
      <trkpt lat="60.0249938965" lon="15.6627826691">
        <ele>0</ele>
        <time>2013-05-01T13:09:52Z</time>
      </trkpt>
      <trkpt lat="60.0249481201" lon="15.6628637314">
        <ele>0</ele>
        <time>2013-05-01T13:09:53Z</time>
      </trkpt>
      <trkpt lat="60.0248260498" lon="15.6630773544">
        <ele>0</ele>
        <time>2013-05-01T13:09:55Z</time>
      </trkpt>
      <trkpt lat="60.0247650146" lon="15.6631774902">
        <ele>0</ele>
        <time>2013-05-01T13:09:56Z</time>
      </trkpt>
      <trkpt lat="60.0247077942" lon="15.6632738113">
        <ele>0</ele>
        <time>2013-05-01T13:09:57Z</time>
      </trkpt>
      <trkpt lat="60.0246505737" lon="15.6633701324">
        <ele>0</ele>
        <time>2013-05-01T13:09:58Z</time>
      </trkpt>
      <trkpt lat="60.024597168" lon="15.6634607315">
        <ele>0</ele>
        <time>2013-05-01T13:09:59Z</time>
      </trkpt>
      <trkpt lat="60.0245361328" lon="15.6635560989">
        <ele>0</ele>
        <time>2013-05-01T13:10:00Z</time>
      </trkpt>
      <trkpt lat="60.0244789124" lon="15.6636486053">
        <ele>0</ele>
        <time>2013-05-01T13:10:01Z</time>
      </trkpt>
      <trkpt lat="60.0244293213" lon="15.6637325287">
        <ele>0</ele>
        <time>2013-05-01T13:10:02Z</time>
      </trkpt>
      <trkpt lat="60.0243721008" lon="15.6638259888">
        <ele>0</ele>
        <time>2013-05-01T13:10:03Z</time>
      </trkpt>
      <trkpt lat="60.0243148804" lon="15.6639156342">
        <ele>0</ele>
        <time>2013-05-01T13:10:04Z</time>
      </trkpt>
      <trkpt lat="60.0242614746" lon="15.6640005112">
        <ele>0</ele>
        <time>2013-05-01T13:10:05Z</time>
      </trkpt>
      <trkpt lat="60.0242004395" lon="15.6641054153">
        <ele>0</ele>
        <time>2013-05-01T13:10:06Z</time>
      </trkpt>
      <trkpt lat="60.0241394043" lon="15.6642045975">
        <ele>0</ele>
        <time>2013-05-01T13:10:07Z</time>
      </trkpt>
      <trkpt lat="60.0240821838" lon="15.6642990112">
        <ele>0</ele>
        <time>2013-05-01T13:10:08Z</time>
      </trkpt>
      <trkpt lat="60.0240402222" lon="15.6643667221">
        <ele>0</ele>
        <time>2013-05-01T13:10:09Z</time>
      </trkpt>
      <trkpt lat="60.0239677429" lon="15.6644802094">
        <ele>0</ele>
        <time>2013-05-01T13:10:10Z</time>
      </trkpt>
      <trkpt lat="60.0238571167" lon="15.6646699905">
        <ele>0</ele>
        <time>2013-05-01T13:10:12Z</time>
      </trkpt>
      <trkpt lat="60.0237922668" lon="15.6647701263">
        <ele>0</ele>
        <time>2013-05-01T13:10:13Z</time>
      </trkpt>
      <trkpt lat="60.0237350464" lon="15.6648597717">
        <ele>0</ele>
        <time>2013-05-01T13:10:14Z</time>
      </trkpt>
      <trkpt lat="60.0236816406" lon="15.6649513245">
        <ele>0</ele>
        <time>2013-05-01T13:10:15Z</time>
      </trkpt>
      <trkpt lat="60.0236282349" lon="15.6650371552">
        <ele>0</ele>
        <time>2013-05-01T13:10:16Z</time>
      </trkpt>
      <trkpt lat="60.0233955383" lon="15.6654138565">
        <ele>0</ele>
        <time>2013-05-01T13:10:20Z</time>
      </trkpt>
      <trkpt lat="60.0233421326" lon="15.6655054092">
        <ele>0</ele>
        <time>2013-05-01T13:10:21Z</time>
      </trkpt>
      <trkpt lat="60.0232887268" lon="15.6655874252">
        <ele>0</ele>
        <time>2013-05-01T13:10:22Z</time>
      </trkpt>
      <trkpt lat="60.0232276917" lon="15.6656856537">
        <ele>0</ele>
        <time>2013-05-01T13:10:23Z</time>
      </trkpt>
      <trkpt lat="60.0231742859" lon="15.6657781601">
        <ele>0</ele>
        <time>2013-05-01T13:10:24Z</time>
      </trkpt>
      <trkpt lat="60.0231285095" lon="15.6658592224">
        <ele>0</ele>
        <time>2013-05-01T13:10:25Z</time>
      </trkpt>
      <trkpt lat="60.023059845" lon="15.665971756">
        <ele>0</ele>
        <time>2013-05-01T13:10:26Z</time>
      </trkpt>
      <trkpt lat="60.0230026245" lon="15.6660690308">
        <ele>0</ele>
        <time>2013-05-01T13:10:27Z</time>
      </trkpt>
      <trkpt lat="60.0229492188" lon="15.6661624908">
        <ele>0</ele>
        <time>2013-05-01T13:10:28Z</time>
      </trkpt>
      <trkpt lat="60.0228919983" lon="15.6662578583">
        <ele>0</ele>
        <time>2013-05-01T13:10:29Z</time>
      </trkpt>
      <trkpt lat="60.0228538513" lon="15.6663360596">
        <ele>0</ele>
        <time>2013-05-01T13:10:30Z</time>
      </trkpt>
      <trkpt lat="60.0227928162" lon="15.6664562225">
        <ele>0</ele>
        <time>2013-05-01T13:10:31Z</time>
      </trkpt>
      <trkpt lat="60.0227394104" lon="15.6665620804">
        <ele>0</ele>
        <time>2013-05-01T13:10:32Z</time>
      </trkpt>
      <trkpt lat="60.0227012634" lon="15.6666355133">
        <ele>0</ele>
        <time>2013-05-01T13:10:33Z</time>
      </trkpt>
      <trkpt lat="60.0226402283" lon="15.6667633057">
        <ele>0</ele>
        <time>2013-05-01T13:10:34Z</time>
      </trkpt>
      <trkpt lat="60.0225944519" lon="15.6668701172">
        <ele>0</ele>
        <time>2013-05-01T13:10:35Z</time>
      </trkpt>
      <trkpt lat="60.0225563049" lon="15.6669635773">
        <ele>0</ele>
        <time>2013-05-01T13:10:36Z</time>
      </trkpt>
      <trkpt lat="60.0225219727" lon="15.6670475006">
        <ele>0</ele>
        <time>2013-05-01T13:10:37Z</time>
      </trkpt>
      <trkpt lat="60.0224723816" lon="15.6671695709">
        <ele>0</ele>
        <time>2013-05-01T13:10:38Z</time>
      </trkpt>
      <trkpt lat="60.0224380493" lon="15.6672620773">
        <ele>0</ele>
        <time>2013-05-01T13:10:39Z</time>
      </trkpt>
      <trkpt lat="60.022403717" lon="15.667350769">
        <ele>0</ele>
        <time>2013-05-01T13:10:40Z</time>
      </trkpt>
      <trkpt lat="60.0223464966" lon="15.6675291061">
        <ele>0</ele>
        <time>2013-05-01T13:10:42Z</time>
      </trkpt>
      <trkpt lat="60.0223121643" lon="15.6676311493">
        <ele>0</ele>
        <time>2013-05-01T13:10:43Z</time>
      </trkpt>
      <trkpt lat="60.0222816467" lon="15.667725563">
        <ele>0</ele>
        <time>2013-05-01T13:10:44Z</time>
      </trkpt>
      <trkpt lat="60.0222587585" lon="15.6678056717">
        <ele>0</ele>
        <time>2013-05-01T13:10:45Z</time>
      </trkpt>
      <trkpt lat="60.0222244263" lon="15.6679172516">
        <ele>0</ele>
        <time>2013-05-01T13:10:46Z</time>
      </trkpt>
      <trkpt lat="60.022190094" lon="15.6680288315">
        <ele>0</ele>
        <time>2013-05-01T13:10:47Z</time>
      </trkpt>
      <trkpt lat="60.0221633911" lon="15.668129921">
        <ele>0</ele>
        <time>2013-05-01T13:10:48Z</time>
      </trkpt>
      <trkpt lat="60.0221366882" lon="15.6682310104">
        <ele>0</ele>
        <time>2013-05-01T13:10:49Z</time>
      </trkpt>
      <trkpt lat="60.0221176147" lon="15.6683282852">
        <ele>0</ele>
        <time>2013-05-01T13:10:50Z</time>
      </trkpt>
      <trkpt lat="60.0220947266" lon="15.6684179306">
        <ele>0</ele>
        <time>2013-05-01T13:10:51Z</time>
      </trkpt>
      <trkpt lat="60.0220718384" lon="15.6685228348">
        <ele>0</ele>
        <time>2013-05-01T13:10:52Z</time>
      </trkpt>
      <trkpt lat="60.0220565796" lon="15.6686000824">
        <ele>0</ele>
        <time>2013-05-01T13:10:53Z</time>
      </trkpt>
      <trkpt lat="60.0220375061" lon="15.6687135696">
        <ele>0</ele>
        <time>2013-05-01T13:10:54Z</time>
      </trkpt>
      <trkpt lat="60.0220184326" lon="15.6688070297">
        <ele>0</ele>
        <time>2013-05-01T13:10:55Z</time>
      </trkpt>
      <trkpt lat="60.0220031738" lon="15.6688938141">
        <ele>0</ele>
        <time>2013-05-01T13:10:56Z</time>
      </trkpt>
      <trkpt lat="60.021987915" lon="15.6689682007">
        <ele>0</ele>
        <time>2013-05-01T13:10:57Z</time>
      </trkpt>
      <trkpt lat="60.0219688416" lon="15.6690797806">
        <ele>0</ele>
        <time>2013-05-01T13:10:58Z</time>
      </trkpt>
      <trkpt lat="60.0219535828" lon="15.669175148">
        <ele>0</ele>
        <time>2013-05-01T13:10:59Z</time>
      </trkpt>
      <trkpt lat="60.021938324" lon="15.6692695618">
        <ele>0</ele>
        <time>2013-05-01T13:11:00Z</time>
      </trkpt>
      <trkpt lat="60.0219268799" lon="15.6693620682">
        <ele>0</ele>
        <time>2013-05-01T13:11:01Z</time>
      </trkpt>
      <trkpt lat="60.0219154358" lon="15.6694450378">
        <ele>0</ele>
        <time>2013-05-01T13:11:02Z</time>
      </trkpt>
      <trkpt lat="60.0219039917" lon="15.6695365906">
        <ele>0</ele>
        <time>2013-05-01T13:11:03Z</time>
      </trkpt>
      <trkpt lat="60.0218925476" lon="15.6696205139">
        <ele>0</ele>
        <time>2013-05-01T13:11:04Z</time>
      </trkpt>
      <trkpt lat="60.0218849182" lon="15.6697015762">
        <ele>0</ele>
        <time>2013-05-01T13:11:05Z</time>
      </trkpt>
      <trkpt lat="60.0218772888" lon="15.669798851">
        <ele>0</ele>
        <time>2013-05-01T13:11:06Z</time>
      </trkpt>
      <trkpt lat="60.0218696594" lon="15.6698932648">
        <ele>0</ele>
        <time>2013-05-01T13:11:07Z</time>
      </trkpt>
      <trkpt lat="60.02186203" lon="15.6699810028">
        <ele>0</ele>
        <time>2013-05-01T13:11:08Z</time>
      </trkpt>
      <trkpt lat="60.0218544006" lon="15.6700439453">
        <ele>0</ele>
        <time>2013-05-01T13:11:09Z</time>
      </trkpt>
      <trkpt lat="60.0218467712" lon="15.6701440811">
        <ele>0</ele>
        <time>2013-05-01T13:11:10Z</time>
      </trkpt>
      <trkpt lat="60.0218391418" lon="15.6702289581">
        <ele>0</ele>
        <time>2013-05-01T13:11:11Z</time>
      </trkpt>
      <trkpt lat="60.0218276978" lon="15.6704902649">
        <ele>0</ele>
        <time>2013-05-01T13:11:14Z</time>
      </trkpt>
      <trkpt lat="60.0218200684" lon="15.6710672379">
        <ele>0</ele>
        <time>2013-05-01T13:11:20Z</time>
      </trkpt>
      <trkpt lat="60.0218200684" lon="15.6711702347">
        <ele>0</ele>
        <time>2013-05-01T13:11:21Z</time>
      </trkpt>
      <trkpt lat="60.0218200684" lon="15.6712560654">
        <ele>0</ele>
        <time>2013-05-01T13:11:22Z</time>
      </trkpt>
      <trkpt lat="60.0218238831" lon="15.6713647842">
        <ele>0</ele>
        <time>2013-05-01T13:11:23Z</time>
      </trkpt>
      <trkpt lat="60.0218276978" lon="15.671459198">
        <ele>0</ele>
        <time>2013-05-01T13:11:24Z</time>
      </trkpt>
      <trkpt lat="60.0218315125" lon="15.6715402603">
        <ele>0</ele>
        <time>2013-05-01T13:11:25Z</time>
      </trkpt>
      <trkpt lat="60.0218391418" lon="15.6716489792">
        <ele>0</ele>
        <time>2013-05-01T13:11:26Z</time>
      </trkpt>
      <trkpt lat="60.0218467712" lon="15.6717472076">
        <ele>0</ele>
        <time>2013-05-01T13:11:27Z</time>
      </trkpt>
      <trkpt lat="60.0218505859" lon="15.6718349457">
        <ele>0</ele>
        <time>2013-05-01T13:11:28Z</time>
      </trkpt>
      <trkpt lat="60.0219116211" lon="15.6725654602">
        <ele>0</ele>
        <time>2013-05-01T13:11:36Z</time>
      </trkpt>
      <trkpt lat="60.0219306946" lon="15.672829628">
        <ele>0</ele>
        <time>2013-05-01T13:11:39Z</time>
      </trkpt>
      <trkpt lat="60.0219421387" lon="15.6729202271">
        <ele>0</ele>
        <time>2013-05-01T13:11:40Z</time>
      </trkpt>
      <trkpt lat="60.0219497681" lon="15.6730070114">
        <ele>0</ele>
        <time>2013-05-01T13:11:41Z</time>
      </trkpt>
      <trkpt lat="60.0219535828" lon="15.6730909348">
        <ele>0</ele>
        <time>2013-05-01T13:11:42Z</time>
      </trkpt>
      <trkpt lat="60.0219612122" lon="15.6731834412">
        <ele>0</ele>
        <time>2013-05-01T13:11:43Z</time>
      </trkpt>
      <trkpt lat="60.0219688416" lon="15.6732730865">
        <ele>0</ele>
        <time>2013-05-01T13:11:44Z</time>
      </trkpt>
      <trkpt lat="60.0219764709" lon="15.6733436584">
        <ele>0</ele>
        <time>2013-05-01T13:11:45Z</time>
      </trkpt>
      <trkpt lat="60.0219841003" lon="15.67345047">
        <ele>0</ele>
        <time>2013-05-01T13:11:46Z</time>
      </trkpt>
      <trkpt lat="60.0219917297" lon="15.6735601425">
        <ele>0</ele>
        <time>2013-05-01T13:11:47Z</time>
      </trkpt>
      <trkpt lat="60.0219955444" lon="15.6736650467">
        <ele>0</ele>
        <time>2013-05-01T13:11:48Z</time>
      </trkpt>
      <trkpt lat="60.0220184326" lon="15.6741981506">
        <ele>0</ele>
        <time>2013-05-01T13:11:53Z</time>
      </trkpt>
      <trkpt lat="60.0220222473" lon="15.674454689">
        <ele>0</ele>
        <time>2013-05-01T13:11:55Z</time>
      </trkpt>
      <trkpt lat="60.0220222473" lon="15.6745615005">
        <ele>0</ele>
        <time>2013-05-01T13:11:56Z</time>
      </trkpt>
      <trkpt lat="60.0220184326" lon="15.6746587753">
        <ele>0</ele>
        <time>2013-05-01T13:11:57Z</time>
      </trkpt>
      <trkpt lat="60.0220146179" lon="15.6748075485">
        <ele>0</ele>
        <time>2013-05-01T13:11:58Z</time>
      </trkpt>
      <trkpt lat="60.0220108032" lon="15.6749277115">
        <ele>0</ele>
        <time>2013-05-01T13:11:59Z</time>
      </trkpt>
      <trkpt lat="60.0220031738" lon="15.6750545502">
        <ele>0</ele>
        <time>2013-05-01T13:12:00Z</time>
      </trkpt>
      <trkpt lat="60.021987915" lon="15.6752977371">
        <ele>0</ele>
        <time>2013-05-01T13:12:02Z</time>
      </trkpt>
      <trkpt lat="60.0219802856" lon="15.6754169464">
        <ele>0</ele>
        <time>2013-05-01T13:12:03Z</time>
      </trkpt>
      <trkpt lat="60.0219688416" lon="15.6755332947">
        <ele>0</ele>
        <time>2013-05-01T13:12:04Z</time>
      </trkpt>
      <trkpt lat="60.0219612122" lon="15.6756429672">
        <ele>0</ele>
        <time>2013-05-01T13:12:05Z</time>
      </trkpt>
      <trkpt lat="60.0219459534" lon="15.6757802963">
        <ele>0</ele>
        <time>2013-05-01T13:12:06Z</time>
      </trkpt>
      <trkpt lat="60.0219345093" lon="15.675904274">
        <ele>0</ele>
        <time>2013-05-01T13:12:07Z</time>
      </trkpt>
      <trkpt lat="60.0219192505" lon="15.6760263443">
        <ele>0</ele>
        <time>2013-05-01T13:12:08Z</time>
      </trkpt>
      <trkpt lat="60.0218849182" lon="15.6762475967">
        <ele>0</ele>
        <time>2013-05-01T13:12:10Z</time>
      </trkpt>
      <trkpt lat="60.0218696594" lon="15.6763601303">
        <ele>0</ele>
        <time>2013-05-01T13:12:11Z</time>
      </trkpt>
      <trkpt lat="60.0218467712" lon="15.6764812469">
        <ele>0</ele>
        <time>2013-05-01T13:12:12Z</time>
      </trkpt>
      <trkpt lat="60.0218315125" lon="15.6765670776">
        <ele>0</ele>
        <time>2013-05-01T13:12:13Z</time>
      </trkpt>
      <trkpt lat="60.0218086243" lon="15.6767072678">
        <ele>0</ele>
        <time>2013-05-01T13:12:14Z</time>
      </trkpt>
      <trkpt lat="60.0217857361" lon="15.6768264771">
        <ele>0</ele>
        <time>2013-05-01T13:12:15Z</time>
      </trkpt>
      <trkpt lat="60.0217628479" lon="15.6769275665">
        <ele>0</ele>
        <time>2013-05-01T13:12:16Z</time>
      </trkpt>
      <trkpt lat="60.0217170715" lon="15.6771631241">
        <ele>0</ele>
        <time>2013-05-01T13:12:18Z</time>
      </trkpt>
      <trkpt lat="60.0216941833" lon="15.677280426">
        <ele>0</ele>
        <time>2013-05-01T13:12:19Z</time>
      </trkpt>
      <trkpt lat="60.0216636658" lon="15.677397728">
        <ele>0</ele>
        <time>2013-05-01T13:12:20Z</time>
      </trkpt>
      <trkpt lat="60.0216369629" lon="15.6775121689">
        <ele>0</ele>
        <time>2013-05-01T13:12:21Z</time>
      </trkpt>
      <trkpt lat="60.0216140747" lon="15.6776256561">
        <ele>0</ele>
        <time>2013-05-01T13:12:22Z</time>
      </trkpt>
      <trkpt lat="60.0214538574" lon="15.6784324646">
        <ele>0</ele>
        <time>2013-05-01T13:12:29Z</time>
      </trkpt>
      <trkpt lat="60.0214233398" lon="15.6785612106">
        <ele>0</ele>
        <time>2013-05-01T13:12:30Z</time>
      </trkpt>
      <trkpt lat="60.0212860107" lon="15.6792821884">
        <ele>0</ele>
        <time>2013-05-01T13:12:36Z</time>
      </trkpt>
      <trkpt lat="60.0212669373" lon="15.6793851852">
        <ele>0</ele>
        <time>2013-05-01T13:12:37Z</time>
      </trkpt>
      <trkpt lat="60.0212402344" lon="15.6795406342">
        <ele>0</ele>
        <time>2013-05-01T13:12:38Z</time>
      </trkpt>
      <trkpt lat="60.0212173462" lon="15.6796560287">
        <ele>0</ele>
        <time>2013-05-01T13:12:39Z</time>
      </trkpt>
      <trkpt lat="60.0211982727" lon="15.6797828674">
        <ele>0</ele>
        <time>2013-05-01T13:12:40Z</time>
      </trkpt>
      <trkpt lat="60.0211791992" lon="15.6798810959">
        <ele>0</ele>
        <time>2013-05-01T13:12:41Z</time>
      </trkpt>
      <trkpt lat="60.021156311" lon="15.6800394058">
        <ele>0</ele>
        <time>2013-05-01T13:12:42Z</time>
      </trkpt>
      <trkpt lat="60.0211372375" lon="15.6801710129">
        <ele>0</ele>
        <time>2013-05-01T13:12:43Z</time>
      </trkpt>
      <trkpt lat="60.0211181641" lon="15.680305481">
        <ele>0</ele>
        <time>2013-05-01T13:12:44Z</time>
      </trkpt>
      <trkpt lat="60.02110672" lon="15.6804084778">
        <ele>0</ele>
        <time>2013-05-01T13:12:45Z</time>
      </trkpt>
      <trkpt lat="60.0210838318" lon="15.680557251">
        <ele>0</ele>
        <time>2013-05-01T13:12:46Z</time>
      </trkpt>
      <trkpt lat="60.021068573" lon="15.6807031631">
        <ele>0</ele>
        <time>2013-05-01T13:12:47Z</time>
      </trkpt>
      <trkpt lat="60.0210494995" lon="15.6808423996">
        <ele>0</ele>
        <time>2013-05-01T13:12:48Z</time>
      </trkpt>
      <trkpt lat="60.0210418701" lon="15.6809329987">
        <ele>0</ele>
        <time>2013-05-01T13:12:49Z</time>
      </trkpt>
      <trkpt lat="60.0209960938" lon="15.6813812256">
        <ele>0</ele>
        <time>2013-05-01T13:12:52Z</time>
      </trkpt>
      <trkpt lat="60.0209541321" lon="15.6818094254">
        <ele>0</ele>
        <time>2013-05-01T13:12:55Z</time>
      </trkpt>
      <trkpt lat="60.0209465027" lon="15.681933403">
        <ele>0</ele>
        <time>2013-05-01T13:12:56Z</time>
      </trkpt>
      <trkpt lat="60.0209350586" lon="15.6820516586">
        <ele>0</ele>
        <time>2013-05-01T13:12:57Z</time>
      </trkpt>
      <trkpt lat="60.0209197998" lon="15.6822242737">
        <ele>0</ele>
        <time>2013-05-01T13:12:58Z</time>
      </trkpt>
      <trkpt lat="60.0209083557" lon="15.6823692322">
        <ele>0</ele>
        <time>2013-05-01T13:12:59Z</time>
      </trkpt>
      <trkpt lat="60.0208969116" lon="15.682507515">
        <ele>0</ele>
        <time>2013-05-01T13:13:00Z</time>
      </trkpt>
      <trkpt lat="60.0208892822" lon="15.6826210022">
        <ele>0</ele>
        <time>2013-05-01T13:13:01Z</time>
      </trkpt>
      <trkpt lat="60.0208778381" lon="15.6828136444">
        <ele>0</ele>
        <time>2013-05-01T13:13:02Z</time>
      </trkpt>
      <trkpt lat="60.0208740234" lon="15.6829280853">
        <ele>0</ele>
        <time>2013-05-01T13:13:03Z</time>
      </trkpt>
      <trkpt lat="60.020866394" lon="15.6830682755">
        <ele>0</ele>
        <time>2013-05-01T13:13:04Z</time>
      </trkpt>
      <trkpt lat="60.0208587646" lon="15.6831941605">
        <ele>0</ele>
        <time>2013-05-01T13:13:05Z</time>
      </trkpt>
      <trkpt lat="60.0208473206" lon="15.6833677292">
        <ele>0</ele>
        <time>2013-05-01T13:13:06Z</time>
      </trkpt>
      <trkpt lat="60.0208396912" lon="15.6835184097">
        <ele>0</ele>
        <time>2013-05-01T13:13:07Z</time>
      </trkpt>
      <trkpt lat="60.0208320618" lon="15.6836566925">
        <ele>0</ele>
        <time>2013-05-01T13:13:08Z</time>
      </trkpt>
      <trkpt lat="60.0208282471" lon="15.6837511063">
        <ele>0</ele>
        <time>2013-05-01T13:13:09Z</time>
      </trkpt>
      <trkpt lat="60.0208206177" lon="15.6840600967">
        <ele>0</ele>
        <time>2013-05-01T13:13:11Z</time>
      </trkpt>
      <trkpt lat="60.020816803" lon="15.6842126846">
        <ele>0</ele>
        <time>2013-05-01T13:13:12Z</time>
      </trkpt>
      <trkpt lat="60.0208129883" lon="15.6843175888">
        <ele>0</ele>
        <time>2013-05-01T13:13:13Z</time>
      </trkpt>
      <trkpt lat="60.0208015442" lon="15.6846446991">
        <ele>0</ele>
        <time>2013-05-01T13:13:15Z</time>
      </trkpt>
      <trkpt lat="60.0207939148" lon="15.6847639084">
        <ele>0</ele>
        <time>2013-05-01T13:13:16Z</time>
      </trkpt>
      <trkpt lat="60.0207901001" lon="15.6848955154">
        <ele>0</ele>
        <time>2013-05-01T13:13:17Z</time>
      </trkpt>
      <trkpt lat="60.0207862854" lon="15.6850643158">
        <ele>0</ele>
        <time>2013-05-01T13:13:18Z</time>
      </trkpt>
      <trkpt lat="60.0207824707" lon="15.6851987839">
        <ele>0</ele>
        <time>2013-05-01T13:13:19Z</time>
      </trkpt>
      <trkpt lat="60.020778656" lon="15.685341835">
        <ele>0</ele>
        <time>2013-05-01T13:13:20Z</time>
      </trkpt>
      <trkpt lat="60.020778656" lon="15.6854772568">
        <ele>0</ele>
        <time>2013-05-01T13:13:21Z</time>
      </trkpt>
      <trkpt lat="60.020778656" lon="15.6857376099">
        <ele>0</ele>
        <time>2013-05-01T13:13:23Z</time>
      </trkpt>
      <trkpt lat="60.020778656" lon="15.6858654022">
        <ele>0</ele>
        <time>2013-05-01T13:13:24Z</time>
      </trkpt>
      <trkpt lat="60.0207710266" lon="15.6861410141">
        <ele>0</ele>
        <time>2013-05-01T13:13:26Z</time>
      </trkpt>
      <trkpt lat="60.0207710266" lon="15.6862831116">
        <ele>0</ele>
        <time>2013-05-01T13:13:27Z</time>
      </trkpt>
      <trkpt lat="60.0207672119" lon="15.6864109039">
        <ele>0</ele>
        <time>2013-05-01T13:13:28Z</time>
      </trkpt>
      <trkpt lat="60.0207672119" lon="15.6865167618">
        <ele>0</ele>
        <time>2013-05-01T13:13:29Z</time>
      </trkpt>
      <trkpt lat="60.0207633972" lon="15.6866512299">
        <ele>0</ele>
        <time>2013-05-01T13:13:30Z</time>
      </trkpt>
      <trkpt lat="60.0207595825" lon="15.6869516373">
        <ele>0</ele>
        <time>2013-05-01T13:13:32Z</time>
      </trkpt>
      <trkpt lat="60.0207595825" lon="15.6870584488">
        <ele>0</ele>
        <time>2013-05-01T13:13:33Z</time>
      </trkpt>
      <trkpt lat="60.0207557678" lon="15.6872158051">
        <ele>0</ele>
        <time>2013-05-01T13:13:34Z</time>
      </trkpt>
      <trkpt lat="60.0207519531" lon="15.6873426437">
        <ele>0</ele>
        <time>2013-05-01T13:13:35Z</time>
      </trkpt>
      <trkpt lat="60.0207519531" lon="15.6874675751">
        <ele>0</ele>
        <time>2013-05-01T13:13:36Z</time>
      </trkpt>
      <trkpt lat="60.0207519531" lon="15.6875782013">
        <ele>0</ele>
        <time>2013-05-01T13:13:37Z</time>
      </trkpt>
      <trkpt lat="60.020740509" lon="15.6881303787">
        <ele>0</ele>
        <time>2013-05-01T13:13:41Z</time>
      </trkpt>
      <trkpt lat="60.0207443237" lon="15.688249588">
        <ele>0</ele>
        <time>2013-05-01T13:13:42Z</time>
      </trkpt>
      <trkpt lat="60.020740509" lon="15.6885919571">
        <ele>0</ele>
        <time>2013-05-01T13:13:45Z</time>
      </trkpt>
      <trkpt lat="60.020740509" lon="15.6887254715">
        <ele>0</ele>
        <time>2013-05-01T13:13:46Z</time>
      </trkpt>
      <trkpt lat="60.0207328796" lon="15.6890974045">
        <ele>0</ele>
        <time>2013-05-01T13:13:49Z</time>
      </trkpt>
      <trkpt lat="60.0207290649" lon="15.6892156601">
        <ele>0</ele>
        <time>2013-05-01T13:13:50Z</time>
      </trkpt>
      <trkpt lat="60.0207252502" lon="15.6894397736">
        <ele>0</ele>
        <time>2013-05-01T13:13:52Z</time>
      </trkpt>
      <trkpt lat="60.0207252502" lon="15.6895360947">
        <ele>0</ele>
        <time>2013-05-01T13:13:53Z</time>
      </trkpt>
      <trkpt lat="60.0207214355" lon="15.6896696091">
        <ele>0</ele>
        <time>2013-05-01T13:13:54Z</time>
      </trkpt>
      <trkpt lat="60.0207214355" lon="15.6897878647">
        <ele>0</ele>
        <time>2013-05-01T13:13:55Z</time>
      </trkpt>
      <trkpt lat="60.0207214355" lon="15.6899309158">
        <ele>0</ele>
        <time>2013-05-01T13:13:56Z</time>
      </trkpt>
      <trkpt lat="60.0207252502" lon="15.6901788712">
        <ele>0</ele>
        <time>2013-05-01T13:13:59Z</time>
      </trkpt>
      <trkpt lat="60.0207252502" lon="15.6905078888">
        <ele>0</ele>
        <time>2013-05-01T13:14:02Z</time>
      </trkpt>
      <trkpt lat="60.0207366943" lon="15.6907892227">
        <ele>0</ele>
        <time>2013-05-01T13:14:04Z</time>
      </trkpt>
      <trkpt lat="60.0207519531" lon="15.6909990311">
        <ele>0</ele>
        <time>2013-05-01T13:14:06Z</time>
      </trkpt>
      <trkpt lat="60.0207595825" lon="15.6911563873">
        <ele>0</ele>
        <time>2013-05-01T13:14:07Z</time>
      </trkpt>
      <trkpt lat="60.0207672119" lon="15.691286087">
        <ele>0</ele>
        <time>2013-05-01T13:14:08Z</time>
      </trkpt>
      <trkpt lat="60.0207672119" lon="15.6914138794">
        <ele>0</ele>
        <time>2013-05-01T13:14:09Z</time>
      </trkpt>
      <trkpt lat="60.0207748413" lon="15.6914920807">
        <ele>0</ele>
        <time>2013-05-01T13:14:10Z</time>
      </trkpt>
      <trkpt lat="60.0207901001" lon="15.6916513443">
        <ele>0</ele>
        <time>2013-05-01T13:14:11Z</time>
      </trkpt>
      <trkpt lat="60.0208129883" lon="15.6918878555">
        <ele>0</ele>
        <time>2013-05-01T13:14:13Z</time>
      </trkpt>
      <trkpt lat="60.0208396912" lon="15.6922445297">
        <ele>0</ele>
        <time>2013-05-01T13:14:16Z</time>
      </trkpt>
      <trkpt lat="60.0208473206" lon="15.6923360825">
        <ele>0</ele>
        <time>2013-05-01T13:14:17Z</time>
      </trkpt>
      <trkpt lat="60.0208511353" lon="15.692440033">
        <ele>0</ele>
        <time>2013-05-01T13:14:18Z</time>
      </trkpt>
      <trkpt lat="60.0208625793" lon="15.6926145554">
        <ele>0</ele>
        <time>2013-05-01T13:14:19Z</time>
      </trkpt>
      <trkpt lat="60.0208740234" lon="15.6927309036">
        <ele>0</ele>
        <time>2013-05-01T13:14:20Z</time>
      </trkpt>
      <trkpt lat="60.0208816528" lon="15.6928482056">
        <ele>0</ele>
        <time>2013-05-01T13:14:21Z</time>
      </trkpt>
      <trkpt lat="60.0208854675" lon="15.6929073334">
        <ele>0</ele>
        <time>2013-05-01T13:14:22Z</time>
      </trkpt>
      <trkpt lat="60.0209083557" lon="15.6931800842">
        <ele>0</ele>
        <time>2013-05-01T13:14:24Z</time>
      </trkpt>
      <trkpt lat="60.0209159851" lon="15.6933012009">
        <ele>0</ele>
        <time>2013-05-01T13:14:25Z</time>
      </trkpt>
      <trkpt lat="60.0209236145" lon="15.6933774948">
        <ele>0</ele>
        <time>2013-05-01T13:14:26Z</time>
      </trkpt>
      <trkpt lat="60.0209388733" lon="15.6935329437">
        <ele>0</ele>
        <time>2013-05-01T13:14:27Z</time>
      </trkpt>
      <trkpt lat="60.0209503174" lon="15.6936588287">
        <ele>0</ele>
        <time>2013-05-01T13:14:28Z</time>
      </trkpt>
      <trkpt lat="60.0209655762" lon="15.693772316">
        <ele>0</ele>
        <time>2013-05-01T13:14:29Z</time>
      </trkpt>
      <trkpt lat="60.0209693909" lon="15.6938514709">
        <ele>0</ele>
        <time>2013-05-01T13:14:30Z</time>
      </trkpt>
      <trkpt lat="60.0210075378" lon="15.6942329407">
        <ele>0</ele>
        <time>2013-05-01T13:14:33Z</time>
      </trkpt>
      <trkpt lat="60.0210113525" lon="15.6942958832">
        <ele>0</ele>
        <time>2013-05-01T13:14:34Z</time>
      </trkpt>
      <trkpt lat="60.0210227966" lon="15.6944580078">
        <ele>0</ele>
        <time>2013-05-01T13:14:35Z</time>
      </trkpt>
      <trkpt lat="60.021030426" lon="15.6945848465">
        <ele>0</ele>
        <time>2013-05-01T13:14:36Z</time>
      </trkpt>
      <trkpt lat="60.021030426" lon="15.6947050095">
        <ele>0</ele>
        <time>2013-05-01T13:14:37Z</time>
      </trkpt>
      <trkpt lat="60.0210342407" lon="15.6947851181">
        <ele>0</ele>
        <time>2013-05-01T13:14:38Z</time>
      </trkpt>
      <trkpt lat="60.0210418701" lon="15.694940567">
        <ele>0</ele>
        <time>2013-05-01T13:14:39Z</time>
      </trkpt>
      <trkpt lat="60.0210189819" lon="15.6952915192">
        <ele>0</ele>
        <time>2013-05-01T13:14:42Z</time>
      </trkpt>
      <trkpt lat="60.0209960938" lon="15.6954679489">
        <ele>0</ele>
        <time>2013-05-01T13:14:43Z</time>
      </trkpt>
      <trkpt lat="60.0209159851" lon="15.6957759857">
        <ele>0</ele>
        <time>2013-05-01T13:14:46Z</time>
      </trkpt>
      <trkpt lat="60.020866394" lon="15.6959114075">
        <ele>0</ele>
        <time>2013-05-01T13:14:47Z</time>
      </trkpt>
      <trkpt lat="60.020816803" lon="15.6960315704">
        <ele>0</ele>
        <time>2013-05-01T13:14:48Z</time>
      </trkpt>
      <trkpt lat="60.0206260681" lon="15.6964159012">
        <ele>0</ele>
        <time>2013-05-01T13:14:52Z</time>
      </trkpt>
      <trkpt lat="60.0205726624" lon="15.6965103149">
        <ele>0</ele>
        <time>2013-05-01T13:14:53Z</time>
      </trkpt>
      <trkpt lat="60.0204772949" lon="15.6967067719">
        <ele>0</ele>
        <time>2013-05-01T13:14:55Z</time>
      </trkpt>
      <trkpt lat="60.0204277039" lon="15.6968107224">
        <ele>0</ele>
        <time>2013-05-01T13:14:56Z</time>
      </trkpt>
      <trkpt lat="60.0203819275" lon="15.6968946457">
        <ele>0</ele>
        <time>2013-05-01T13:14:57Z</time>
      </trkpt>
      <trkpt lat="60.0203437805" lon="15.6969623566">
        <ele>0</ele>
        <time>2013-05-01T13:14:58Z</time>
      </trkpt>
      <trkpt lat="60.0202789307" lon="15.6970863342">
        <ele>0</ele>
        <time>2013-05-01T13:14:59Z</time>
      </trkpt>
      <trkpt lat="60.0202255249" lon="15.6971855164">
        <ele>0</ele>
        <time>2013-05-01T13:15:00Z</time>
      </trkpt>
      <trkpt lat="60.0201759338" lon="15.6972856522">
        <ele>0</ele>
        <time>2013-05-01T13:15:01Z</time>
      </trkpt>
      <trkpt lat="60.0199584961" lon="15.697725296">
        <ele>0</ele>
        <time>2013-05-01T13:15:06Z</time>
      </trkpt>
      <trkpt lat="60.019908905" lon="15.6978645325">
        <ele>0</ele>
        <time>2013-05-01T13:15:07Z</time>
      </trkpt>
      <trkpt lat="60.0198669434" lon="15.6979951859">
        <ele>0</ele>
        <time>2013-05-01T13:15:08Z</time>
      </trkpt>
      <trkpt lat="60.0198326111" lon="15.6981248856">
        <ele>0</ele>
        <time>2013-05-01T13:15:09Z</time>
      </trkpt>
      <trkpt lat="60.019821167" lon="15.6981954575">
        <ele>0</ele>
        <time>2013-05-01T13:15:10Z</time>
      </trkpt>
      <trkpt lat="60.0197868347" lon="15.6983890533">
        <ele>0</ele>
        <time>2013-05-01T13:15:11Z</time>
      </trkpt>
      <trkpt lat="60.0197601318" lon="15.6987047195">
        <ele>0</ele>
        <time>2013-05-01T13:15:13Z</time>
      </trkpt>
      <trkpt lat="60.0197563171" lon="15.6987924576">
        <ele>0</ele>
        <time>2013-05-01T13:15:14Z</time>
      </trkpt>
      <trkpt lat="60.0197486877" lon="15.6989812851">
        <ele>0</ele>
        <time>2013-05-01T13:15:15Z</time>
      </trkpt>
      <trkpt lat="60.019744873" lon="15.6991291046">
        <ele>0</ele>
        <time>2013-05-01T13:15:16Z</time>
      </trkpt>
      <trkpt lat="60.0197372437" lon="15.69926548">
        <ele>0</ele>
        <time>2013-05-01T13:15:17Z</time>
      </trkpt>
      <trkpt lat="60.019733429" lon="15.699388504">
        <ele>0</ele>
        <time>2013-05-01T13:15:18Z</time>
      </trkpt>
      <trkpt lat="60.0197257996" lon="15.6996002197">
        <ele>0</ele>
        <time>2013-05-01T13:15:19Z</time>
      </trkpt>
      <trkpt lat="60.0197143555" lon="15.6997518539">
        <ele>0</ele>
        <time>2013-05-01T13:15:20Z</time>
      </trkpt>
      <trkpt lat="60.0197067261" lon="15.6998987198">
        <ele>0</ele>
        <time>2013-05-01T13:15:21Z</time>
      </trkpt>
      <trkpt lat="60.0197029114" lon="15.6999740601">
        <ele>0</ele>
        <time>2013-05-01T13:15:22Z</time>
      </trkpt>
      <trkpt lat="60.0196914673" lon="15.7001752853">
        <ele>0</ele>
        <time>2013-05-01T13:15:23Z</time>
      </trkpt>
      <trkpt lat="60.0196876526" lon="15.70033741">
        <ele>0</ele>
        <time>2013-05-01T13:15:24Z</time>
      </trkpt>
      <trkpt lat="60.0196838379" lon="15.700469017">
        <ele>0</ele>
        <time>2013-05-01T13:15:25Z</time>
      </trkpt>
      <trkpt lat="60.0196800232" lon="15.7005710602">
        <ele>0</ele>
        <time>2013-05-01T13:15:26Z</time>
      </trkpt>
      <trkpt lat="60.0196533203" lon="15.7011222839">
        <ele>0</ele>
        <time>2013-05-01T13:15:30Z</time>
      </trkpt>
      <trkpt lat="60.019618988" lon="15.7019615173">
        <ele>0</ele>
        <time>2013-05-01T13:15:35Z</time>
      </trkpt>
      <trkpt lat="60.0196075439" lon="15.7021474838">
        <ele>0</ele>
        <time>2013-05-01T13:15:36Z</time>
      </trkpt>
      <trkpt lat="60.0195960999" lon="15.7022981644">
        <ele>0</ele>
        <time>2013-05-01T13:15:37Z</time>
      </trkpt>
      <trkpt lat="60.0195922852" lon="15.7024183273">
        <ele>0</ele>
        <time>2013-05-01T13:15:38Z</time>
      </trkpt>
      <trkpt lat="60.0195808411" lon="15.7026309967">
        <ele>0</ele>
        <time>2013-05-01T13:15:39Z</time>
      </trkpt>
      <trkpt lat="60.0195732117" lon="15.7027921677">
        <ele>0</ele>
        <time>2013-05-01T13:15:40Z</time>
      </trkpt>
      <trkpt lat="60.0195732117" lon="15.7029542923">
        <ele>0</ele>
        <time>2013-05-01T13:15:41Z</time>
      </trkpt>
      <trkpt lat="60.0195617676" lon="15.703045845">
        <ele>0</ele>
        <time>2013-05-01T13:15:42Z</time>
      </trkpt>
      <trkpt lat="60.0195388794" lon="15.7034711838">
        <ele>0</ele>
        <time>2013-05-01T13:15:44Z</time>
      </trkpt>
      <trkpt lat="60.0195388794" lon="15.7036314011">
        <ele>0</ele>
        <time>2013-05-01T13:15:45Z</time>
      </trkpt>
      <trkpt lat="60.0195350647" lon="15.7037439346">
        <ele>0</ele>
        <time>2013-05-01T13:15:46Z</time>
      </trkpt>
      <trkpt lat="60.0195350647" lon="15.7039422989">
        <ele>0</ele>
        <time>2013-05-01T13:15:47Z</time>
      </trkpt>
      <trkpt lat="60.0195350647" lon="15.7041339874">
        <ele>0</ele>
        <time>2013-05-01T13:15:48Z</time>
      </trkpt>
      <trkpt lat="60.0195503235" lon="15.7042970657">
        <ele>0</ele>
        <time>2013-05-01T13:15:49Z</time>
      </trkpt>
      <trkpt lat="60.0195960999" lon="15.7046165466">
        <ele>0</ele>
        <time>2013-05-01T13:15:51Z</time>
      </trkpt>
      <trkpt lat="60.0196304321" lon="15.7047653198">
        <ele>0</ele>
        <time>2013-05-01T13:15:52Z</time>
      </trkpt>
      <trkpt lat="60.0197906494" lon="15.7054300308">
        <ele>0</ele>
        <time>2013-05-01T13:15:56Z</time>
      </trkpt>
      <trkpt lat="60.0200386047" lon="15.7063426971">
        <ele>0</ele>
        <time>2013-05-01T13:16:02Z</time>
      </trkpt>
      <trkpt lat="60.0200843811" lon="15.7065258026">
        <ele>0</ele>
        <time>2013-05-01T13:16:03Z</time>
      </trkpt>
      <trkpt lat="60.0202026367" lon="15.7070741653">
        <ele>0</ele>
        <time>2013-05-01T13:16:06Z</time>
      </trkpt>
      <trkpt lat="60.0202331543" lon="15.7072296143">
        <ele>0</ele>
        <time>2013-05-01T13:16:07Z</time>
      </trkpt>
      <trkpt lat="60.0203437805" lon="15.7078619003">
        <ele>0</ele>
        <time>2013-05-01T13:16:10Z</time>
      </trkpt>
      <trkpt lat="60.0203704834" lon="15.7080259323">
        <ele>0</ele>
        <time>2013-05-01T13:16:11Z</time>
      </trkpt>
      <trkpt lat="60.020401001" lon="15.7082452774">
        <ele>0</ele>
        <time>2013-05-01T13:16:12Z</time>
      </trkpt>
      <trkpt lat="60.0204277039" lon="15.7084379196">
        <ele>0</ele>
        <time>2013-05-01T13:16:13Z</time>
      </trkpt>
      <trkpt lat="60.0204429626" lon="15.7085809708">
        <ele>0</ele>
        <time>2013-05-01T13:16:14Z</time>
      </trkpt>
      <trkpt lat="60.0204696655" lon="15.7087879181">
        <ele>0</ele>
        <time>2013-05-01T13:16:15Z</time>
      </trkpt>
      <trkpt lat="60.0205001831" lon="15.7090110779">
        <ele>0</ele>
        <time>2013-05-01T13:16:16Z</time>
      </trkpt>
      <trkpt lat="60.0205230713" lon="15.7091493607">
        <ele>0</ele>
        <time>2013-05-01T13:16:17Z</time>
      </trkpt>
      <trkpt lat="60.0205459595" lon="15.7093362808">
        <ele>0</ele>
        <time>2013-05-01T13:16:18Z</time>
      </trkpt>
      <trkpt lat="60.0205688477" lon="15.709523201">
        <ele>0</ele>
        <time>2013-05-01T13:16:19Z</time>
      </trkpt>
      <trkpt lat="60.0205993652" lon="15.7097244263">
        <ele>0</ele>
        <time>2013-05-01T13:16:20Z</time>
      </trkpt>
      <trkpt lat="60.0206336975" lon="15.7099113464">
        <ele>0</ele>
        <time>2013-05-01T13:16:21Z</time>
      </trkpt>
      <trkpt lat="60.0206680298" lon="15.7100391388">
        <ele>0</ele>
        <time>2013-05-01T13:16:22Z</time>
      </trkpt>
      <trkpt lat="60.0207290649" lon="15.7101984024">
        <ele>0</ele>
        <time>2013-05-01T13:16:23Z</time>
      </trkpt>
      <trkpt lat="60.0208282471" lon="15.7103824615">
        <ele>0</ele>
        <time>2013-05-01T13:16:24Z</time>
      </trkpt>
      <trkpt lat="60.0209083557" lon="15.7104768753">
        <ele>0</ele>
        <time>2013-05-01T13:16:25Z</time>
      </trkpt>
      <trkpt lat="60.0209884644" lon="15.7105360031">
        <ele>0</ele>
        <time>2013-05-01T13:16:26Z</time>
      </trkpt>
      <trkpt lat="60.0210838318" lon="15.7106199265">
        <ele>0</ele>
        <time>2013-05-01T13:16:27Z</time>
      </trkpt>
      <trkpt lat="60.0212020874" lon="15.7107067108">
        <ele>0</ele>
        <time>2013-05-01T13:16:28Z</time>
      </trkpt>
      <trkpt lat="60.0213737488" lon="15.710849762">
        <ele>0</ele>
        <time>2013-05-01T13:16:30Z</time>
      </trkpt>
      <trkpt lat="60.0214958191" lon="15.7109708786">
        <ele>0</ele>
        <time>2013-05-01T13:16:31Z</time>
      </trkpt>
      <trkpt lat="60.021572113" lon="15.7110595703">
        <ele>0</ele>
        <time>2013-05-01T13:16:32Z</time>
      </trkpt>
      <trkpt lat="60.0217132568" lon="15.7112169266">
        <ele>0</ele>
        <time>2013-05-01T13:16:33Z</time>
      </trkpt>
      <trkpt lat="60.0218009949" lon="15.7113285065">
        <ele>0</ele>
        <time>2013-05-01T13:16:34Z</time>
      </trkpt>
      <trkpt lat="60.0220069885" lon="15.7115650177">
        <ele>0</ele>
        <time>2013-05-01T13:16:36Z</time>
      </trkpt>
      <trkpt lat="60.0220909119" lon="15.7116594315">
        <ele>0</ele>
        <time>2013-05-01T13:16:37Z</time>
      </trkpt>
      <trkpt lat="60.0221748352" lon="15.7117605209">
        <ele>0</ele>
        <time>2013-05-01T13:16:38Z</time>
      </trkpt>
      <trkpt lat="60.0222816467" lon="15.7118873596">
        <ele>0</ele>
        <time>2013-05-01T13:16:39Z</time>
      </trkpt>
      <trkpt lat="60.0223960876" lon="15.712023735">
        <ele>0</ele>
        <time>2013-05-01T13:16:40Z</time>
      </trkpt>
      <trkpt lat="60.0224952698" lon="15.7121419907">
        <ele>0</ele>
        <time>2013-05-01T13:16:41Z</time>
      </trkpt>
      <trkpt lat="60.0225906372" lon="15.7122478485">
        <ele>0</ele>
        <time>2013-05-01T13:16:42Z</time>
      </trkpt>
      <trkpt lat="60.0226860046" lon="15.7123584747">
        <ele>0</ele>
        <time>2013-05-01T13:16:43Z</time>
      </trkpt>
      <trkpt lat="60.0228042603" lon="15.7124967575">
        <ele>0</ele>
        <time>2013-05-01T13:16:44Z</time>
      </trkpt>
      <trkpt lat="60.0228996277" lon="15.7126064301">
        <ele>0</ele>
        <time>2013-05-01T13:16:45Z</time>
      </trkpt>
      <trkpt lat="60.0231819153" lon="15.7129573822">
        <ele>0</ele>
        <time>2013-05-01T13:16:48Z</time>
      </trkpt>
      <trkpt lat="60.0232772827" lon="15.7130689621">
        <ele>0</ele>
        <time>2013-05-01T13:16:49Z</time>
      </trkpt>
      <trkpt lat="60.0234565735" lon="15.7132844925">
        <ele>0</ele>
        <time>2013-05-01T13:16:51Z</time>
      </trkpt>
      <trkpt lat="60.0238838196" lon="15.7137966156">
        <ele>0</ele>
        <time>2013-05-01T13:16:56Z</time>
      </trkpt>
      <trkpt lat="60.0242881775" lon="15.7142896652">
        <ele>0</ele>
        <time>2013-05-01T13:17:02Z</time>
      </trkpt>
      <trkpt lat="60.0243682861" lon="15.714389801">
        <ele>0</ele>
        <time>2013-05-01T13:17:03Z</time>
      </trkpt>
      <trkpt lat="60.0244522095" lon="15.7144966125">
        <ele>0</ele>
        <time>2013-05-01T13:17:04Z</time>
      </trkpt>
      <trkpt lat="60.0245285034" lon="15.7145872116">
        <ele>0</ele>
        <time>2013-05-01T13:17:05Z</time>
      </trkpt>
      <trkpt lat="60.0246009827" lon="15.714673996">
        <ele>0</ele>
        <time>2013-05-01T13:17:06Z</time>
      </trkpt>
      <trkpt lat="60.0247688293" lon="15.7148838043">
        <ele>0</ele>
        <time>2013-05-01T13:17:08Z</time>
      </trkpt>
      <trkpt lat="60.0248451233" lon="15.7149791718">
        <ele>0</ele>
        <time>2013-05-01T13:17:09Z</time>
      </trkpt>
      <trkpt lat="60.0249061584" lon="15.715057373">
        <ele>0</ele>
        <time>2013-05-01T13:17:10Z</time>
      </trkpt>
      <trkpt lat="60.0249862671" lon="15.7151632309">
        <ele>0</ele>
        <time>2013-05-01T13:17:11Z</time>
      </trkpt>
      <trkpt lat="60.0251426697" lon="15.7153377533">
        <ele>0</ele>
        <time>2013-05-01T13:17:13Z</time>
      </trkpt>
      <trkpt lat="60.0252113342" lon="15.7154140472">
        <ele>0</ele>
        <time>2013-05-01T13:17:14Z</time>
      </trkpt>
      <trkpt lat="60.0252609253" lon="15.7154760361">
        <ele>0</ele>
        <time>2013-05-01T13:17:15Z</time>
      </trkpt>
      <trkpt lat="60.025390625" lon="15.7156229019">
        <ele>0</ele>
        <time>2013-05-01T13:17:17Z</time>
      </trkpt>
      <trkpt lat="60.0255203247" lon="15.7157917023">
        <ele>0</ele>
        <time>2013-05-01T13:17:19Z</time>
      </trkpt>
      <trkpt lat="60.0255813599" lon="15.7158613205">
        <ele>0</ele>
        <time>2013-05-01T13:17:20Z</time>
      </trkpt>
      <trkpt lat="60.0259628296" lon="15.7163410187">
        <ele>0</ele>
        <time>2013-05-01T13:17:27Z</time>
      </trkpt>
      <trkpt lat="60.0260276794" lon="15.7164230347">
        <ele>0</ele>
        <time>2013-05-01T13:17:28Z</time>
      </trkpt>
      <trkpt lat="60.0260810852" lon="15.7164916992">
        <ele>0</ele>
        <time>2013-05-01T13:17:29Z</time>
      </trkpt>
      <trkpt lat="60.0261383057" lon="15.7165641785">
        <ele>0</ele>
        <time>2013-05-01T13:17:30Z</time>
      </trkpt>
      <trkpt lat="60.0263175964" lon="15.7168006897">
        <ele>0</ele>
        <time>2013-05-01T13:17:33Z</time>
      </trkpt>
      <trkpt lat="60.0263633728" lon="15.7168836594">
        <ele>0</ele>
        <time>2013-05-01T13:17:34Z</time>
      </trkpt>
      <trkpt lat="60.0263977051" lon="15.7169523239">
        <ele>0</ele>
        <time>2013-05-01T13:17:35Z</time>
      </trkpt>
      <trkpt lat="60.0264549255" lon="15.7170658112">
        <ele>0</ele>
        <time>2013-05-01T13:17:36Z</time>
      </trkpt>
      <trkpt lat="60.0264968872" lon="15.7171459198">
        <ele>0</ele>
        <time>2013-05-01T13:17:37Z</time>
      </trkpt>
      <trkpt lat="60.0265464783" lon="15.7172517776">
        <ele>0</ele>
        <time>2013-05-01T13:17:38Z</time>
      </trkpt>
      <trkpt lat="60.0265846252" lon="15.7173290253">
        <ele>0</ele>
        <time>2013-05-01T13:17:39Z</time>
      </trkpt>
      <trkpt lat="60.0266418457" lon="15.7174453735">
        <ele>0</ele>
        <time>2013-05-01T13:17:40Z</time>
      </trkpt>
      <trkpt lat="60.0268745422" lon="15.7179403305">
        <ele>0</ele>
        <time>2013-05-01T13:17:45Z</time>
      </trkpt>
      <trkpt lat="60.0269126892" lon="15.7180204391">
        <ele>0</ele>
        <time>2013-05-01T13:17:46Z</time>
      </trkpt>
      <trkpt lat="60.0269622803" lon="15.7181243896">
        <ele>0</ele>
        <time>2013-05-01T13:17:47Z</time>
      </trkpt>
      <trkpt lat="60.0270233154" lon="15.7182664871">
        <ele>0</ele>
        <time>2013-05-01T13:17:48Z</time>
      </trkpt>
      <trkpt lat="60.0270729065" lon="15.7183694839">
        <ele>0</ele>
        <time>2013-05-01T13:17:49Z</time>
      </trkpt>
      <trkpt lat="60.0271224976" lon="15.7184705734">
        <ele>0</ele>
        <time>2013-05-01T13:17:50Z</time>
      </trkpt>
      <trkpt lat="60.0271568298" lon="15.7185583115">
        <ele>0</ele>
        <time>2013-05-01T13:17:51Z</time>
      </trkpt>
      <trkpt lat="60.0272064209" lon="15.7186574936">
        <ele>0</ele>
        <time>2013-05-01T13:17:52Z</time>
      </trkpt>
      <trkpt lat="60.0272903442" lon="15.7188386917">
        <ele>0</ele>
        <time>2013-05-01T13:17:54Z</time>
      </trkpt>
      <trkpt lat="60.0273361206" lon="15.7189388275">
        <ele>0</ele>
        <time>2013-05-01T13:17:55Z</time>
      </trkpt>
      <trkpt lat="60.0273933411" lon="15.7190513611">
        <ele>0</ele>
        <time>2013-05-01T13:17:56Z</time>
      </trkpt>
      <trkpt lat="60.027431488" lon="15.7191267014">
        <ele>0</ele>
        <time>2013-05-01T13:17:57Z</time>
      </trkpt>
      <trkpt lat="60.027507782" lon="15.7192745209">
        <ele>0</ele>
        <time>2013-05-01T13:17:58Z</time>
      </trkpt>
      <trkpt lat="60.027545929" lon="15.7193498611">
        <ele>0</ele>
        <time>2013-05-01T13:17:59Z</time>
      </trkpt>
      <trkpt lat="60.0276031494" lon="15.7194509506">
        <ele>0</ele>
        <time>2013-05-01T13:18:00Z</time>
      </trkpt>
      <trkpt lat="60.0276565552" lon="15.7195291519">
        <ele>0</ele>
        <time>2013-05-01T13:18:01Z</time>
      </trkpt>
      <trkpt lat="60.0277137756" lon="15.7196130753">
        <ele>0</ele>
        <time>2013-05-01T13:18:02Z</time>
      </trkpt>
      <trkpt lat="60.0277748108" lon="15.7196979523">
        <ele>0</ele>
        <time>2013-05-01T13:18:03Z</time>
      </trkpt>
      <trkpt lat="60.0279006958" lon="15.7198562622">
        <ele>0</ele>
        <time>2013-05-01T13:18:05Z</time>
      </trkpt>
      <trkpt lat="60.027961731" lon="15.7199344635">
        <ele>0</ele>
        <time>2013-05-01T13:18:06Z</time>
      </trkpt>
      <trkpt lat="60.0280303955" lon="15.7200155258">
        <ele>0</ele>
        <time>2013-05-01T13:18:07Z</time>
      </trkpt>
      <trkpt lat="60.0280990601" lon="15.7200956345">
        <ele>0</ele>
        <time>2013-05-01T13:18:08Z</time>
      </trkpt>
      <trkpt lat="60.0281600952" lon="15.7201747894">
        <ele>0</ele>
        <time>2013-05-01T13:18:09Z</time>
      </trkpt>
      <trkpt lat="60.0282287598" lon="15.7202577591">
        <ele>0</ele>
        <time>2013-05-01T13:18:10Z</time>
      </trkpt>
      <trkpt lat="60.0284347534" lon="15.7204837799">
        <ele>0</ele>
        <time>2013-05-01T13:18:13Z</time>
      </trkpt>
      <trkpt lat="60.0286216736" lon="15.7206993103">
        <ele>0</ele>
        <time>2013-05-01T13:18:16Z</time>
      </trkpt>
      <trkpt lat="60.0286903381" lon="15.7207832336">
        <ele>0</ele>
        <time>2013-05-01T13:18:17Z</time>
      </trkpt>
      <trkpt lat="60.0288162231" lon="15.7209510803">
        <ele>0</ele>
        <time>2013-05-01T13:18:19Z</time>
      </trkpt>
      <trkpt lat="60.028881073" lon="15.7210464478">
        <ele>0</ele>
        <time>2013-05-01T13:18:20Z</time>
      </trkpt>
      <trkpt lat="60.0289421082" lon="15.7211351395">
        <ele>0</ele>
        <time>2013-05-01T13:18:21Z</time>
      </trkpt>
      <trkpt lat="60.029006958" lon="15.7212333679">
        <ele>0</ele>
        <time>2013-05-01T13:18:22Z</time>
      </trkpt>
      <trkpt lat="60.0290870667" lon="15.7213573456">
        <ele>0</ele>
        <time>2013-05-01T13:18:23Z</time>
      </trkpt>
      <trkpt lat="60.0291519165" lon="15.7214641571">
        <ele>0</ele>
        <time>2013-05-01T13:18:24Z</time>
      </trkpt>
      <trkpt lat="60.0292205811" lon="15.7215833664">
        <ele>0</ele>
        <time>2013-05-01T13:18:25Z</time>
      </trkpt>
      <trkpt lat="60.0292892456" lon="15.7216959">
        <ele>0</ele>
        <time>2013-05-01T13:18:26Z</time>
      </trkpt>
      <trkpt lat="60.0293464661" lon="15.7218027115">
        <ele>0</ele>
        <time>2013-05-01T13:18:27Z</time>
      </trkpt>
      <trkpt lat="60.0294075012" lon="15.7219190598">
        <ele>0</ele>
        <time>2013-05-01T13:18:28Z</time>
      </trkpt>
      <trkpt lat="60.0294685364" lon="15.7220344543">
        <ele>0</ele>
        <time>2013-05-01T13:18:29Z</time>
      </trkpt>
      <trkpt lat="60.0295257568" lon="15.7221488953">
        <ele>0</ele>
        <time>2013-05-01T13:18:30Z</time>
      </trkpt>
      <trkpt lat="60.029586792" lon="15.7222471237">
        <ele>0</ele>
        <time>2013-05-01T13:18:31Z</time>
      </trkpt>
      <trkpt lat="60.0296516418" lon="15.7223720551">
        <ele>0</ele>
        <time>2013-05-01T13:18:32Z</time>
      </trkpt>
      <trkpt lat="60.029712677" lon="15.7224817276">
        <ele>0</ele>
        <time>2013-05-01T13:18:33Z</time>
      </trkpt>
      <trkpt lat="60.0297698975" lon="15.7225914001">
        <ele>0</ele>
        <time>2013-05-01T13:18:34Z</time>
      </trkpt>
      <trkpt lat="60.0298233032" lon="15.722694397">
        <ele>0</ele>
        <time>2013-05-01T13:18:35Z</time>
      </trkpt>
      <trkpt lat="60.0298728943" lon="15.7227878571">
        <ele>0</ele>
        <time>2013-05-01T13:18:36Z</time>
      </trkpt>
      <trkpt lat="60.0299911499" lon="15.7230100632">
        <ele>0</ele>
        <time>2013-05-01T13:18:38Z</time>
      </trkpt>
      <trkpt lat="60.030128479" lon="15.7233247757">
        <ele>0</ele>
        <time>2013-05-01T13:18:41Z</time>
      </trkpt>
      <trkpt lat="60.0301780701" lon="15.7234401703">
        <ele>0</ele>
        <time>2013-05-01T13:18:42Z</time>
      </trkpt>
      <trkpt lat="60.0302276611" lon="15.7235651016">
        <ele>0</ele>
        <time>2013-05-01T13:18:43Z</time>
      </trkpt>
      <trkpt lat="60.0302696228" lon="15.7236785889">
        <ele>0</ele>
        <time>2013-05-01T13:18:44Z</time>
      </trkpt>
      <trkpt lat="60.0303192139" lon="15.7238082886">
        <ele>0</ele>
        <time>2013-05-01T13:18:45Z</time>
      </trkpt>
      <trkpt lat="60.0303649902" lon="15.7239303589">
        <ele>0</ele>
        <time>2013-05-01T13:18:46Z</time>
      </trkpt>
      <trkpt lat="60.0304412842" lon="15.7241830826">
        <ele>0</ele>
        <time>2013-05-01T13:18:48Z</time>
      </trkpt>
      <trkpt lat="60.0304794312" lon="15.7243099213">
        <ele>0</ele>
        <time>2013-05-01T13:18:49Z</time>
      </trkpt>
      <trkpt lat="60.0305137634" lon="15.7244386673">
        <ele>0</ele>
        <time>2013-05-01T13:18:50Z</time>
      </trkpt>
      <trkpt lat="60.030544281" lon="15.724565506">
        <ele>0</ele>
        <time>2013-05-01T13:18:51Z</time>
      </trkpt>
      <trkpt lat="60.0305747986" lon="15.7247095108">
        <ele>0</ele>
        <time>2013-05-01T13:18:52Z</time>
      </trkpt>
      <trkpt lat="60.0306015015" lon="15.7248392105">
        <ele>0</ele>
        <time>2013-05-01T13:18:53Z</time>
      </trkpt>
      <trkpt lat="60.0306243896" lon="15.7249746323">
        <ele>0</ele>
        <time>2013-05-01T13:18:54Z</time>
      </trkpt>
      <trkpt lat="60.0306510925" lon="15.7251176834">
        <ele>0</ele>
        <time>2013-05-01T13:18:55Z</time>
      </trkpt>
      <trkpt lat="60.030670166" lon="15.7252454758">
        <ele>0</ele>
        <time>2013-05-01T13:18:56Z</time>
      </trkpt>
      <trkpt lat="60.0306892395" lon="15.725394249">
        <ele>0</ele>
        <time>2013-05-01T13:18:57Z</time>
      </trkpt>
      <trkpt lat="60.030708313" lon="15.7255363464">
        <ele>0</ele>
        <time>2013-05-01T13:18:58Z</time>
      </trkpt>
      <trkpt lat="60.0307235718" lon="15.7256755829">
        <ele>0</ele>
        <time>2013-05-01T13:18:59Z</time>
      </trkpt>
      <trkpt lat="60.0307350159" lon="15.7258195877">
        <ele>0</ele>
        <time>2013-05-01T13:19:00Z</time>
      </trkpt>
      <trkpt lat="60.03074646" lon="15.7259473801">
        <ele>0</ele>
        <time>2013-05-01T13:19:01Z</time>
      </trkpt>
      <trkpt lat="60.0307579041" lon="15.7260913849">
        <ele>0</ele>
        <time>2013-05-01T13:19:02Z</time>
      </trkpt>
      <trkpt lat="60.0307655334" lon="15.7261962891">
        <ele>0</ele>
        <time>2013-05-01T13:19:03Z</time>
      </trkpt>
      <trkpt lat="60.0307807922" lon="15.7263717651">
        <ele>0</ele>
        <time>2013-05-01T13:19:04Z</time>
      </trkpt>
      <trkpt lat="60.0308074951" lon="15.7267980576">
        <ele>0</ele>
        <time>2013-05-01T13:19:07Z</time>
      </trkpt>
      <trkpt lat="60.0308494568" lon="15.727440834">
        <ele>0</ele>
        <time>2013-05-01T13:19:12Z</time>
      </trkpt>
      <trkpt lat="60.0308570862" lon="15.727563858">
        <ele>0</ele>
        <time>2013-05-01T13:19:13Z</time>
      </trkpt>
      <trkpt lat="60.0308647156" lon="15.727684021">
        <ele>0</ele>
        <time>2013-05-01T13:19:14Z</time>
      </trkpt>
      <trkpt lat="60.0308761597" lon="15.7277994156">
        <ele>0</ele>
        <time>2013-05-01T13:19:15Z</time>
      </trkpt>
      <trkpt lat="60.0308837891" lon="15.7279081345">
        <ele>0</ele>
        <time>2013-05-01T13:19:16Z</time>
      </trkpt>
      <trkpt lat="60.0308914185" lon="15.7280464172">
        <ele>0</ele>
        <time>2013-05-01T13:19:17Z</time>
      </trkpt>
      <trkpt lat="60.0308990479" lon="15.7281703949">
        <ele>0</ele>
        <time>2013-05-01T13:19:18Z</time>
      </trkpt>
      <trkpt lat="60.0309028625" lon="15.7282943726">
        <ele>0</ele>
        <time>2013-05-01T13:19:19Z</time>
      </trkpt>
      <trkpt lat="60.0309143066" lon="15.7284259796">
        <ele>0</ele>
        <time>2013-05-01T13:19:20Z</time>
      </trkpt>
      <trkpt lat="60.030921936" lon="15.7285442352">
        <ele>0</ele>
        <time>2013-05-01T13:19:21Z</time>
      </trkpt>
      <trkpt lat="60.0309295654" lon="15.7286729813">
        <ele>0</ele>
        <time>2013-05-01T13:19:22Z</time>
      </trkpt>
      <trkpt lat="60.0309410095" lon="15.7288160324">
        <ele>0</ele>
        <time>2013-05-01T13:19:23Z</time>
      </trkpt>
      <trkpt lat="60.0309524536" lon="15.7289419174">
        <ele>0</ele>
        <time>2013-05-01T13:19:24Z</time>
      </trkpt>
      <trkpt lat="60.0309638977" lon="15.7290744781">
        <ele>0</ele>
        <time>2013-05-01T13:19:25Z</time>
      </trkpt>
      <trkpt lat="60.0309753418" lon="15.7292051315">
        <ele>0</ele>
        <time>2013-05-01T13:19:26Z</time>
      </trkpt>
      <trkpt lat="60.0309906006" lon="15.729467392">
        <ele>0</ele>
        <time>2013-05-01T13:19:28Z</time>
      </trkpt>
      <trkpt lat="60.03099823" lon="15.7295942307">
        <ele>0</ele>
        <time>2013-05-01T13:19:29Z</time>
      </trkpt>
      <trkpt lat="60.0310249329" lon="15.7299480438">
        <ele>0</ele>
        <time>2013-05-01T13:19:32Z</time>
      </trkpt>
      <trkpt lat="60.0310630798" lon="15.7304077148">
        <ele>0</ele>
        <time>2013-05-01T13:19:36Z</time>
      </trkpt>
      <trkpt lat="60.0310745239" lon="15.7305355072">
        <ele>0</ele>
        <time>2013-05-01T13:19:37Z</time>
      </trkpt>
      <trkpt lat="60.031085968" lon="15.7306547165">
        <ele>0</ele>
        <time>2013-05-01T13:19:38Z</time>
      </trkpt>
      <trkpt lat="60.0310935974" lon="15.7307729721">
        <ele>0</ele>
        <time>2013-05-01T13:19:39Z</time>
      </trkpt>
      <trkpt lat="60.0311050415" lon="15.730890274">
        <ele>0</ele>
        <time>2013-05-01T13:19:40Z</time>
      </trkpt>
      <trkpt lat="60.0311088562" lon="15.7310056686">
        <ele>0</ele>
        <time>2013-05-01T13:19:41Z</time>
      </trkpt>
      <trkpt lat="60.0311164856" lon="15.7311248779">
        <ele>0</ele>
        <time>2013-05-01T13:19:42Z</time>
      </trkpt>
      <trkpt lat="60.031124115" lon="15.7312450409">
        <ele>0</ele>
        <time>2013-05-01T13:19:43Z</time>
      </trkpt>
      <trkpt lat="60.0311317444" lon="15.7313537598">
        <ele>0</ele>
        <time>2013-05-01T13:19:44Z</time>
      </trkpt>
      <trkpt lat="60.0311393738" lon="15.7314653397">
        <ele>0</ele>
        <time>2013-05-01T13:19:45Z</time>
      </trkpt>
      <trkpt lat="60.0311431885" lon="15.7315769196">
        <ele>0</ele>
        <time>2013-05-01T13:19:46Z</time>
      </trkpt>
      <trkpt lat="60.0311508179" lon="15.7318191528">
        <ele>0</ele>
        <time>2013-05-01T13:19:48Z</time>
      </trkpt>
      <trkpt lat="60.0311546326" lon="15.7319326401">
        <ele>0</ele>
        <time>2013-05-01T13:19:49Z</time>
      </trkpt>
      <trkpt lat="60.0311660767" lon="15.7325897217">
        <ele>0</ele>
        <time>2013-05-01T13:19:55Z</time>
      </trkpt>
      <trkpt lat="60.0311660767" lon="15.7326927185">
        <ele>0</ele>
        <time>2013-05-01T13:19:56Z</time>
      </trkpt>
      <trkpt lat="60.0311660767" lon="15.7328090668">
        <ele>0</ele>
        <time>2013-05-01T13:19:57Z</time>
      </trkpt>
      <trkpt lat="60.0311660767" lon="15.7329206467">
        <ele>0</ele>
        <time>2013-05-01T13:19:58Z</time>
      </trkpt>
      <trkpt lat="60.0311737061" lon="15.7333660126">
        <ele>0</ele>
        <time>2013-05-01T13:20:02Z</time>
      </trkpt>
      <trkpt lat="60.0311737061" lon="15.7334737778">
        <ele>0</ele>
        <time>2013-05-01T13:20:03Z</time>
      </trkpt>
      <trkpt lat="60.0311737061" lon="15.7335615158">
        <ele>0</ele>
        <time>2013-05-01T13:20:04Z</time>
      </trkpt>
      <trkpt lat="60.0311775208" lon="15.7336673737">
        <ele>0</ele>
        <time>2013-05-01T13:20:05Z</time>
      </trkpt>
      <trkpt lat="60.0311775208" lon="15.7337617874">
        <ele>0</ele>
        <time>2013-05-01T13:20:06Z</time>
      </trkpt>
      <trkpt lat="60.0311813354" lon="15.7338571548">
        <ele>0</ele>
        <time>2013-05-01T13:20:07Z</time>
      </trkpt>
      <trkpt lat="60.0311813354" lon="15.7341384888">
        <ele>0</ele>
        <time>2013-05-01T13:20:10Z</time>
      </trkpt>
      <trkpt lat="60.0311927795" lon="15.7345075607">
        <ele>0</ele>
        <time>2013-05-01T13:20:14Z</time>
      </trkpt>
      <trkpt lat="60.0311927795" lon="15.7346057892">
        <ele>0</ele>
        <time>2013-05-01T13:20:15Z</time>
      </trkpt>
      <trkpt lat="60.0311889648" lon="15.7347831726">
        <ele>0</ele>
        <time>2013-05-01T13:20:17Z</time>
      </trkpt>
      <trkpt lat="60.0311889648" lon="15.7348442078">
        <ele>0</ele>
        <time>2013-05-01T13:20:18Z</time>
      </trkpt>
      <trkpt lat="60.0311889648" lon="15.7351360321">
        <ele>0</ele>
        <time>2013-05-01T13:20:22Z</time>
      </trkpt>
      <trkpt lat="60.0311889648" lon="15.7352180481">
        <ele>0</ele>
        <time>2013-05-01T13:20:23Z</time>
      </trkpt>
      <trkpt lat="60.0311851501" lon="15.7352905273">
        <ele>0</ele>
        <time>2013-05-01T13:20:24Z</time>
      </trkpt>
      <trkpt lat="60.0311851501" lon="15.7355012894">
        <ele>0</ele>
        <time>2013-05-01T13:20:27Z</time>
      </trkpt>
      <trkpt lat="60.0311851501" lon="15.7355728149">
        <ele>0</ele>
        <time>2013-05-01T13:20:28Z</time>
      </trkpt>
      <trkpt lat="60.0311813354" lon="15.7356452942">
        <ele>0</ele>
        <time>2013-05-01T13:20:29Z</time>
      </trkpt>
      <trkpt lat="60.0311813354" lon="15.7357130051">
        <ele>0</ele>
        <time>2013-05-01T13:20:30Z</time>
      </trkpt>
      <trkpt lat="60.0311813354" lon="15.7357721329">
        <ele>0</ele>
        <time>2013-05-01T13:20:31Z</time>
      </trkpt>
      <trkpt lat="60.0311775208" lon="15.7358465195">
        <ele>0</ele>
        <time>2013-05-01T13:20:32Z</time>
      </trkpt>
      <trkpt lat="60.0311775208" lon="15.7359170914">
        <ele>0</ele>
        <time>2013-05-01T13:20:33Z</time>
      </trkpt>
      <trkpt lat="60.0311698914" lon="15.736117363">
        <ele>0</ele>
        <time>2013-05-01T13:20:36Z</time>
      </trkpt>
      <trkpt lat="60.0311660767" lon="15.7361860275">
        <ele>0</ele>
        <time>2013-05-01T13:20:37Z</time>
      </trkpt>
      <trkpt lat="60.031162262" lon="15.7362508774">
        <ele>0</ele>
        <time>2013-05-01T13:20:38Z</time>
      </trkpt>
      <trkpt lat="60.0311546326" lon="15.736322403">
        <ele>0</ele>
        <time>2013-05-01T13:20:39Z</time>
      </trkpt>
      <trkpt lat="60.031124115" lon="15.7365875244">
        <ele>0</ele>
        <time>2013-05-01T13:20:43Z</time>
      </trkpt>
      <trkpt lat="60.0311088562" lon="15.7366533279">
        <ele>0</ele>
        <time>2013-05-01T13:20:44Z</time>
      </trkpt>
      <trkpt lat="60.0311012268" lon="15.7367143631">
        <ele>0</ele>
        <time>2013-05-01T13:20:45Z</time>
      </trkpt>
      <trkpt lat="60.0310897827" lon="15.7367773056">
        <ele>0</ele>
        <time>2013-05-01T13:20:46Z</time>
      </trkpt>
      <trkpt lat="60.0310707092" lon="15.7369260788">
        <ele>0</ele>
        <time>2013-05-01T13:20:48Z</time>
      </trkpt>
      <trkpt lat="60.0310592651" lon="15.736995697">
        <ele>0</ele>
        <time>2013-05-01T13:20:49Z</time>
      </trkpt>
      <trkpt lat="60.03099823" lon="15.7373104095">
        <ele>0</ele>
        <time>2013-05-01T13:20:53Z</time>
      </trkpt>
      <trkpt lat="60.0309562683" lon="15.7374858856">
        <ele>0</ele>
        <time>2013-05-01T13:20:55Z</time>
      </trkpt>
      <trkpt lat="60.0309333801" lon="15.7375669479">
        <ele>0</ele>
        <time>2013-05-01T13:20:56Z</time>
      </trkpt>
      <trkpt lat="60.0308837891" lon="15.7377386093">
        <ele>0</ele>
        <time>2013-05-01T13:20:58Z</time>
      </trkpt>
      <trkpt lat="60.0308265686" lon="15.7379207611">
        <ele>0</ele>
        <time>2013-05-01T13:21:00Z</time>
      </trkpt>
      <trkpt lat="60.0307731628" lon="15.7380990982">
        <ele>0</ele>
        <time>2013-05-01T13:21:02Z</time>
      </trkpt>
      <trkpt lat="60.0307350159" lon="15.738202095">
        <ele>0</ele>
        <time>2013-05-01T13:21:03Z</time>
      </trkpt>
      <trkpt lat="60.0305595398" lon="15.7386770248">
        <ele>0</ele>
        <time>2013-05-01T13:21:08Z</time>
      </trkpt>
      <trkpt lat="60.0304527283" lon="15.7389640808">
        <ele>0</ele>
        <time>2013-05-01T13:21:11Z</time>
      </trkpt>
      <trkpt lat="60.0304107666" lon="15.739066124">
        <ele>0</ele>
        <time>2013-05-01T13:21:12Z</time>
      </trkpt>
      <trkpt lat="60.0303726196" lon="15.7391633987">
        <ele>0</ele>
        <time>2013-05-01T13:21:13Z</time>
      </trkpt>
      <trkpt lat="60.0303382874" lon="15.7392578125">
        <ele>0</ele>
        <time>2013-05-01T13:21:14Z</time>
      </trkpt>
      <trkpt lat="60.0303039551" lon="15.739356041">
        <ele>0</ele>
        <time>2013-05-01T13:21:15Z</time>
      </trkpt>
      <trkpt lat="60.0302696228" lon="15.7394371033">
        <ele>0</ele>
        <time>2013-05-01T13:21:16Z</time>
      </trkpt>
      <trkpt lat="60.0302276611" lon="15.7395420074">
        <ele>0</ele>
        <time>2013-05-01T13:21:17Z</time>
      </trkpt>
      <trkpt lat="60.0301895142" lon="15.7396316528">
        <ele>0</ele>
        <time>2013-05-01T13:21:18Z</time>
      </trkpt>
      <trkpt lat="60.0301551819" lon="15.7397251129">
        <ele>0</ele>
        <time>2013-05-01T13:21:19Z</time>
      </trkpt>
      <trkpt lat="60.0301208496" lon="15.739818573">
        <ele>0</ele>
        <time>2013-05-01T13:21:20Z</time>
      </trkpt>
      <trkpt lat="60.0300865173" lon="15.7399044037">
        <ele>0</ele>
        <time>2013-05-01T13:21:21Z</time>
      </trkpt>
      <trkpt lat="60.0298500061" lon="15.7405290604">
        <ele>0</ele>
        <time>2013-05-01T13:21:28Z</time>
      </trkpt>
      <trkpt lat="60.0298118591" lon="15.7406158447">
        <ele>0</ele>
        <time>2013-05-01T13:21:29Z</time>
      </trkpt>
      <trkpt lat="60.0297775269" lon="15.7406997681">
        <ele>0</ele>
        <time>2013-05-01T13:21:30Z</time>
      </trkpt>
      <trkpt lat="60.0297470093" lon="15.7407827377">
        <ele>0</ele>
        <time>2013-05-01T13:21:31Z</time>
      </trkpt>
      <trkpt lat="60.0296783447" lon="15.7409553528">
        <ele>0</ele>
        <time>2013-05-01T13:21:33Z</time>
      </trkpt>
      <trkpt lat="60.0296440125" lon="15.7410364151">
        <ele>0</ele>
        <time>2013-05-01T13:21:34Z</time>
      </trkpt>
      <trkpt lat="60.0296096802" lon="15.7411174774">
        <ele>0</ele>
        <time>2013-05-01T13:21:35Z</time>
      </trkpt>
      <trkpt lat="60.0295791626" lon="15.7411937714">
        <ele>0</ele>
        <time>2013-05-01T13:21:36Z</time>
      </trkpt>
      <trkpt lat="60.0295448303" lon="15.7412815094">
        <ele>0</ele>
        <time>2013-05-01T13:21:37Z</time>
      </trkpt>
      <trkpt lat="60.029510498" lon="15.7413644791">
        <ele>0</ele>
        <time>2013-05-01T13:21:38Z</time>
      </trkpt>
      <trkpt lat="60.0294761658" lon="15.7414455414">
        <ele>0</ele>
        <time>2013-05-01T13:21:39Z</time>
      </trkpt>
      <trkpt lat="60.0294456482" lon="15.7415275574">
        <ele>0</ele>
        <time>2013-05-01T13:21:40Z</time>
      </trkpt>
      <trkpt lat="60.0294113159" lon="15.7416067123">
        <ele>0</ele>
        <time>2013-05-01T13:21:41Z</time>
      </trkpt>
      <trkpt lat="60.0293807983" lon="15.741689682">
        <ele>0</ele>
        <time>2013-05-01T13:21:42Z</time>
      </trkpt>
      <trkpt lat="60.0293426514" lon="15.7417812347">
        <ele>0</ele>
        <time>2013-05-01T13:21:43Z</time>
      </trkpt>
      <trkpt lat="60.0293083191" lon="15.7418708801">
        <ele>0</ele>
        <time>2013-05-01T13:21:44Z</time>
      </trkpt>
      <trkpt lat="60.0292778015" lon="15.7419404984">
        <ele>0</ele>
        <time>2013-05-01T13:21:45Z</time>
      </trkpt>
      <trkpt lat="60.029209137" lon="15.7421102524">
        <ele>0</ele>
        <time>2013-05-01T13:21:47Z</time>
      </trkpt>
      <trkpt lat="60.0291748047" lon="15.7421913147">
        <ele>0</ele>
        <time>2013-05-01T13:21:48Z</time>
      </trkpt>
      <trkpt lat="60.0291404724" lon="15.7422714233">
        <ele>0</ele>
        <time>2013-05-01T13:21:49Z</time>
      </trkpt>
      <trkpt lat="60.0291061401" lon="15.742351532">
        <ele>0</ele>
        <time>2013-05-01T13:21:50Z</time>
      </trkpt>
      <trkpt lat="60.0290756226" lon="15.7424249649">
        <ele>0</ele>
        <time>2013-05-01T13:21:51Z</time>
      </trkpt>
      <trkpt lat="60.0290412903" lon="15.7425088882">
        <ele>0</ele>
        <time>2013-05-01T13:21:52Z</time>
      </trkpt>
      <trkpt lat="60.0290107727" lon="15.7425870895">
        <ele>0</ele>
        <time>2013-05-01T13:21:53Z</time>
      </trkpt>
      <trkpt lat="60.0289802551" lon="15.7426614761">
        <ele>0</ele>
        <time>2013-05-01T13:21:54Z</time>
      </trkpt>
      <trkpt lat="60.0289421082" lon="15.7427415848">
        <ele>0</ele>
        <time>2013-05-01T13:21:55Z</time>
      </trkpt>
      <trkpt lat="60.0289115906" lon="15.7428131104">
        <ele>0</ele>
        <time>2013-05-01T13:21:56Z</time>
      </trkpt>
      <trkpt lat="60.0288467407" lon="15.7429714203">
        <ele>0</ele>
        <time>2013-05-01T13:21:58Z</time>
      </trkpt>
      <trkpt lat="60.0288162231" lon="15.7430419922">
        <ele>0</ele>
        <time>2013-05-01T13:21:59Z</time>
      </trkpt>
      <trkpt lat="60.0287704468" lon="15.7431440353">
        <ele>0</ele>
        <time>2013-05-01T13:22:00Z</time>
      </trkpt>
      <trkpt lat="60.028755188" lon="15.7431774139">
        <ele>0</ele>
        <time>2013-05-01T13:22:01Z</time>
      </trkpt>
      <trkpt lat="60.028678894" lon="15.7433347702">
        <ele>0</ele>
        <time>2013-05-01T13:22:03Z</time>
      </trkpt>
      <trkpt lat="60.0286216736" lon="15.7434539795">
        <ele>0</ele>
        <time>2013-05-01T13:22:05Z</time>
      </trkpt>
      <trkpt lat="60.0285987854" lon="15.7435035706">
        <ele>0</ele>
        <time>2013-05-01T13:22:06Z</time>
      </trkpt>
      <trkpt lat="60.0284919739" lon="15.7437181473">
        <ele>0</ele>
        <time>2013-05-01T13:22:09Z</time>
      </trkpt>
      <trkpt lat="60.0283432007" lon="15.74401474">
        <ele>0</ele>
        <time>2013-05-01T13:22:14Z</time>
      </trkpt>
      <trkpt lat="60.028301239" lon="15.7441005707">
        <ele>0</ele>
        <time>2013-05-01T13:22:15Z</time>
      </trkpt>
      <trkpt lat="60.0282745361" lon="15.7441577911">
        <ele>0</ele>
        <time>2013-05-01T13:22:16Z</time>
      </trkpt>
      <trkpt lat="60.0282440186" lon="15.7442264557">
        <ele>0</ele>
        <time>2013-05-01T13:22:17Z</time>
      </trkpt>
      <trkpt lat="60.0281867981" lon="15.7443532944">
        <ele>0</ele>
        <time>2013-05-01T13:22:19Z</time>
      </trkpt>
      <trkpt lat="60.0281562805" lon="15.7444114685">
        <ele>0</ele>
        <time>2013-05-01T13:22:20Z</time>
      </trkpt>
      <trkpt lat="60.0281295776" lon="15.7444658279">
        <ele>0</ele>
        <time>2013-05-01T13:22:21Z</time>
      </trkpt>
      <trkpt lat="60.0281105042" lon="15.744509697">
        <ele>0</ele>
        <time>2013-05-01T13:22:22Z</time>
      </trkpt>
      <trkpt lat="60.0280380249" lon="15.7446651459">
        <ele>0</ele>
        <time>2013-05-01T13:22:24Z</time>
      </trkpt>
      <trkpt lat="60.0280075073" lon="15.7447376251">
        <ele>0</ele>
        <time>2013-05-01T13:22:25Z</time>
      </trkpt>
      <trkpt lat="60.0278816223" lon="15.7450017929">
        <ele>0</ele>
        <time>2013-05-01T13:22:29Z</time>
      </trkpt>
      <trkpt lat="60.0278587341" lon="15.7450447083">
        <ele>0</ele>
        <time>2013-05-01T13:22:30Z</time>
      </trkpt>
      <trkpt lat="60.0278167725" lon="15.7451257706">
        <ele>0</ele>
        <time>2013-05-01T13:22:31Z</time>
      </trkpt>
      <trkpt lat="60.0277824402" lon="15.7451992035">
        <ele>0</ele>
        <time>2013-05-01T13:22:32Z</time>
      </trkpt>
      <trkpt lat="60.0277519226" lon="15.7452688217">
        <ele>0</ele>
        <time>2013-05-01T13:22:33Z</time>
      </trkpt>
      <trkpt lat="60.0276527405" lon="15.745472908">
        <ele>0</ele>
        <time>2013-05-01T13:22:36Z</time>
      </trkpt>
      <trkpt lat="60.0275993347" lon="15.7455949783">
        <ele>0</ele>
        <time>2013-05-01T13:22:38Z</time>
      </trkpt>
      <trkpt lat="60.027469635" lon="15.74584198">
        <ele>0</ele>
        <time>2013-05-01T13:22:42Z</time>
      </trkpt>
      <trkpt lat="60.0273246765" lon="15.7461509705">
        <ele>0</ele>
        <time>2013-05-01T13:22:46Z</time>
      </trkpt>
      <trkpt lat="60.0272827148" lon="15.7462320328">
        <ele>0</ele>
        <time>2013-05-01T13:22:47Z</time>
      </trkpt>
      <trkpt lat="60.0272407532" lon="15.746307373">
        <ele>0</ele>
        <time>2013-05-01T13:22:48Z</time>
      </trkpt>
      <trkpt lat="60.0271835327" lon="15.7464208603">
        <ele>0</ele>
        <time>2013-05-01T13:22:50Z</time>
      </trkpt>
      <trkpt lat="60.027141571" lon="15.7465085983">
        <ele>0</ele>
        <time>2013-05-01T13:22:51Z</time>
      </trkpt>
      <trkpt lat="60.0271072388" lon="15.7465829849">
        <ele>0</ele>
        <time>2013-05-01T13:22:52Z</time>
      </trkpt>
      <trkpt lat="60.0270690918" lon="15.7466554642">
        <ele>0</ele>
        <time>2013-05-01T13:22:53Z</time>
      </trkpt>
      <trkpt lat="60.0270423889" lon="15.7467021942">
        <ele>0</ele>
        <time>2013-05-01T13:22:54Z</time>
      </trkpt>
      <trkpt lat="60.0269927979" lon="15.7468013763">
        <ele>0</ele>
        <time>2013-05-01T13:22:55Z</time>
      </trkpt>
      <trkpt lat="60.0269584656" lon="15.7468719482">
        <ele>0</ele>
        <time>2013-05-01T13:22:56Z</time>
      </trkpt>
      <trkpt lat="60.0269165039" lon="15.7469558716">
        <ele>0</ele>
        <time>2013-05-01T13:22:57Z</time>
      </trkpt>
      <trkpt lat="60.0268936157" lon="15.7470035553">
        <ele>0</ele>
        <time>2013-05-01T13:22:58Z</time>
      </trkpt>
      <trkpt lat="60.02684021" lon="15.7471094131">
        <ele>0</ele>
        <time>2013-05-01T13:22:59Z</time>
      </trkpt>
      <trkpt lat="60.0267982483" lon="15.7471952438">
        <ele>0</ele>
        <time>2013-05-01T13:23:00Z</time>
      </trkpt>
      <trkpt lat="60.0267601013" lon="15.7472715378">
        <ele>0</ele>
        <time>2013-05-01T13:23:01Z</time>
      </trkpt>
      <trkpt lat="60.0267372131" lon="15.7473201752">
        <ele>0</ele>
        <time>2013-05-01T13:23:02Z</time>
      </trkpt>
      <trkpt lat="60.0266838074" lon="15.7474250793">
        <ele>0</ele>
        <time>2013-05-01T13:23:03Z</time>
      </trkpt>
      <trkpt lat="60.0266456604" lon="15.7474985123">
        <ele>0</ele>
        <time>2013-05-01T13:23:04Z</time>
      </trkpt>
      <trkpt lat="60.0266036987" lon="15.7475786209">
        <ele>0</ele>
        <time>2013-05-01T13:23:05Z</time>
      </trkpt>
      <trkpt lat="60.0265769958" lon="15.747628212">
        <ele>0</ele>
        <time>2013-05-01T13:23:06Z</time>
      </trkpt>
      <trkpt lat="60.0265235901" lon="15.7477369308">
        <ele>0</ele>
        <time>2013-05-01T13:23:07Z</time>
      </trkpt>
      <trkpt lat="60.0262413025" lon="15.7482662201">
        <ele>0</ele>
        <time>2013-05-01T13:23:14Z</time>
      </trkpt>
      <trkpt lat="60.0261878967" lon="15.7483577728">
        <ele>0</ele>
        <time>2013-05-01T13:23:15Z</time>
      </trkpt>
      <trkpt lat="60.0261497498" lon="15.7484273911">
        <ele>0</ele>
        <time>2013-05-01T13:23:16Z</time>
      </trkpt>
      <trkpt lat="60.0261116028" lon="15.748500824">
        <ele>0</ele>
        <time>2013-05-01T13:23:17Z</time>
      </trkpt>
      <trkpt lat="60.0259819031" lon="15.7487392426">
        <ele>0</ele>
        <time>2013-05-01T13:23:20Z</time>
      </trkpt>
      <trkpt lat="60.0259399414" lon="15.7488098145">
        <ele>0</ele>
        <time>2013-05-01T13:23:21Z</time>
      </trkpt>
      <trkpt lat="60.0259132385" lon="15.7488594055">
        <ele>0</ele>
        <time>2013-05-01T13:23:22Z</time>
      </trkpt>
      <trkpt lat="60.0258598328" lon="15.748963356">
        <ele>0</ele>
        <time>2013-05-01T13:23:23Z</time>
      </trkpt>
      <trkpt lat="60.0256614685" lon="15.7493247986">
        <ele>0</ele>
        <time>2013-05-01T13:23:28Z</time>
      </trkpt>
      <trkpt lat="60.0256156921" lon="15.7494058609">
        <ele>0</ele>
        <time>2013-05-01T13:23:29Z</time>
      </trkpt>
      <trkpt lat="60.0255889893" lon="15.7494525909">
        <ele>0</ele>
        <time>2013-05-01T13:23:30Z</time>
      </trkpt>
      <trkpt lat="60.0255355835" lon="15.7495479584">
        <ele>0</ele>
        <time>2013-05-01T13:23:31Z</time>
      </trkpt>
      <trkpt lat="60.0254898071" lon="15.749628067">
        <ele>0</ele>
        <time>2013-05-01T13:23:32Z</time>
      </trkpt>
      <trkpt lat="60.0251846313" lon="15.7501010895">
        <ele>0</ele>
        <time>2013-05-01T13:23:39Z</time>
      </trkpt>
      <trkpt lat="60.0249824524" lon="15.7503681183">
        <ele>0</ele>
        <time>2013-05-01T13:23:43Z</time>
      </trkpt>
      <trkpt lat="60.0248451233" lon="15.750541687">
        <ele>0</ele>
        <time>2013-05-01T13:23:46Z</time>
      </trkpt>
      <trkpt lat="60.0247840881" lon="15.7506122589">
        <ele>0</ele>
        <time>2013-05-01T13:23:47Z</time>
      </trkpt>
      <trkpt lat="60.0247344971" lon="15.7506666183">
        <ele>0</ele>
        <time>2013-05-01T13:23:48Z</time>
      </trkpt>
      <trkpt lat="60.0246810913" lon="15.7507209778">
        <ele>0</ele>
        <time>2013-05-01T13:23:49Z</time>
      </trkpt>
      <trkpt lat="60.0246315002" lon="15.7507743835">
        <ele>0</ele>
        <time>2013-05-01T13:23:50Z</time>
      </trkpt>
      <trkpt lat="60.0245780945" lon="15.7508335114">
        <ele>0</ele>
        <time>2013-05-01T13:23:51Z</time>
      </trkpt>
      <trkpt lat="60.024520874" lon="15.7508993149">
        <ele>0</ele>
        <time>2013-05-01T13:23:52Z</time>
      </trkpt>
      <trkpt lat="60.0244636536" lon="15.75096035">
        <ele>0</ele>
        <time>2013-05-01T13:23:53Z</time>
      </trkpt>
      <trkpt lat="60.0244102478" lon="15.7510137558">
        <ele>0</ele>
        <time>2013-05-01T13:23:54Z</time>
      </trkpt>
      <trkpt lat="60.0243415833" lon="15.7510795593">
        <ele>0</ele>
        <time>2013-05-01T13:23:55Z</time>
      </trkpt>
      <trkpt lat="60.0242881775" lon="15.7511348724">
        <ele>0</ele>
        <time>2013-05-01T13:23:56Z</time>
      </trkpt>
      <trkpt lat="60.0242462158" lon="15.7511758804">
        <ele>0</ele>
        <time>2013-05-01T13:23:57Z</time>
      </trkpt>
      <trkpt lat="60.0241699219" lon="15.7512521744">
        <ele>0</ele>
        <time>2013-05-01T13:23:58Z</time>
      </trkpt>
      <trkpt lat="60.0241127014" lon="15.7513046265">
        <ele>0</ele>
        <time>2013-05-01T13:23:59Z</time>
      </trkpt>
      <trkpt lat="60.0240478516" lon="15.7513523102">
        <ele>0</ele>
        <time>2013-05-01T13:24:00Z</time>
      </trkpt>
      <trkpt lat="60.0239906311" lon="15.7513999939">
        <ele>0</ele>
        <time>2013-05-01T13:24:01Z</time>
      </trkpt>
      <trkpt lat="60.0239257812" lon="15.7514438629">
        <ele>0</ele>
        <time>2013-05-01T13:24:02Z</time>
      </trkpt>
      <trkpt lat="60.0238609314" lon="15.7514972687">
        <ele>0</ele>
        <time>2013-05-01T13:24:03Z</time>
      </trkpt>
      <trkpt lat="60.0237998962" lon="15.7515459061">
        <ele>0</ele>
        <time>2013-05-01T13:24:04Z</time>
      </trkpt>
      <trkpt lat="60.0236587524" lon="15.7516241074">
        <ele>0</ele>
        <time>2013-05-01T13:24:06Z</time>
      </trkpt>
      <trkpt lat="60.0235900879" lon="15.7516670227">
        <ele>0</ele>
        <time>2013-05-01T13:24:07Z</time>
      </trkpt>
      <trkpt lat="60.0235137939" lon="15.7517137527">
        <ele>0</ele>
        <time>2013-05-01T13:24:08Z</time>
      </trkpt>
      <trkpt lat="60.0234565735" lon="15.751745224">
        <ele>0</ele>
        <time>2013-05-01T13:24:09Z</time>
      </trkpt>
      <trkpt lat="60.0233688354" lon="15.7517900467">
        <ele>0</ele>
        <time>2013-05-01T13:24:10Z</time>
      </trkpt>
      <trkpt lat="60.0232925415" lon="15.7518281937">
        <ele>0</ele>
        <time>2013-05-01T13:24:11Z</time>
      </trkpt>
      <trkpt lat="60.0232086182" lon="15.7518692017">
        <ele>0</ele>
        <time>2013-05-01T13:24:12Z</time>
      </trkpt>
      <trkpt lat="60.022895813" lon="15.7520151138">
        <ele>0</ele>
        <time>2013-05-01T13:24:16Z</time>
      </trkpt>
      <trkpt lat="60.0228271484" lon="15.7520503998">
        <ele>0</ele>
        <time>2013-05-01T13:24:17Z</time>
      </trkpt>
      <trkpt lat="60.0225486755" lon="15.7521877289">
        <ele>0</ele>
        <time>2013-05-01T13:24:20Z</time>
      </trkpt>
      <trkpt lat="60.0222854614" lon="15.7523202896">
        <ele>0</ele>
        <time>2013-05-01T13:24:23Z</time>
      </trkpt>
      <trkpt lat="60.0221214294" lon="15.7523956299">
        <ele>0</ele>
        <time>2013-05-01T13:24:25Z</time>
      </trkpt>
      <trkpt lat="60.0220146179" lon="15.7524528503">
        <ele>0</ele>
        <time>2013-05-01T13:24:26Z</time>
      </trkpt>
      <trkpt lat="60.0219154358" lon="15.7525119781">
        <ele>0</ele>
        <time>2013-05-01T13:24:27Z</time>
      </trkpt>
      <trkpt lat="60.0218238831" lon="15.752573967">
        <ele>0</ele>
        <time>2013-05-01T13:24:28Z</time>
      </trkpt>
      <trkpt lat="60.0217323303" lon="15.7526350021">
        <ele>0</ele>
        <time>2013-05-01T13:24:29Z</time>
      </trkpt>
      <trkpt lat="60.021648407" lon="15.7526931763">
        <ele>0</ele>
        <time>2013-05-01T13:24:30Z</time>
      </trkpt>
      <trkpt lat="60.0215454102" lon="15.7527694702">
        <ele>0</ele>
        <time>2013-05-01T13:24:31Z</time>
      </trkpt>
      <trkpt lat="60.0214424133" lon="15.7528553009">
        <ele>0</ele>
        <time>2013-05-01T13:24:32Z</time>
      </trkpt>
      <trkpt lat="60.0213699341" lon="15.7529220581">
        <ele>0</ele>
        <time>2013-05-01T13:24:33Z</time>
      </trkpt>
      <trkpt lat="60.0212631226" lon="15.7530250549">
        <ele>0</ele>
        <time>2013-05-01T13:24:34Z</time>
      </trkpt>
      <trkpt lat="60.0211677551" lon="15.753115654">
        <ele>0</ele>
        <time>2013-05-01T13:24:35Z</time>
      </trkpt>
      <trkpt lat="60.0210914612" lon="15.7531900406">
        <ele>0</ele>
        <time>2013-05-01T13:24:36Z</time>
      </trkpt>
      <trkpt lat="60.0208930969" lon="15.7534074783">
        <ele>0</ele>
        <time>2013-05-01T13:24:38Z</time>
      </trkpt>
      <trkpt lat="60.0206718445" lon="15.7536792755">
        <ele>0</ele>
        <time>2013-05-01T13:24:41Z</time>
      </trkpt>
      <trkpt lat="60.0205497742" lon="15.7538414001">
        <ele>0</ele>
        <time>2013-05-01T13:24:42Z</time>
      </trkpt>
      <trkpt lat="60.0204620361" lon="15.7539644241">
        <ele>0</ele>
        <time>2013-05-01T13:24:43Z</time>
      </trkpt>
      <trkpt lat="60.0203819275" lon="15.7540874481">
        <ele>0</ele>
        <time>2013-05-01T13:24:44Z</time>
      </trkpt>
      <trkpt lat="60.0203208923" lon="15.7541828156">
        <ele>0</ele>
        <time>2013-05-01T13:24:45Z</time>
      </trkpt>
      <trkpt lat="60.0202331543" lon="15.7543315887">
        <ele>0</ele>
        <time>2013-05-01T13:24:46Z</time>
      </trkpt>
      <trkpt lat="60.0201377869" lon="15.7544870377">
        <ele>0</ele>
        <time>2013-05-01T13:24:47Z</time>
      </trkpt>
      <trkpt lat="60.020072937" lon="15.754609108">
        <ele>0</ele>
        <time>2013-05-01T13:24:48Z</time>
      </trkpt>
      <trkpt lat="60.0200119019" lon="15.7547245026">
        <ele>0</ele>
        <time>2013-05-01T13:24:49Z</time>
      </trkpt>
      <trkpt lat="60.0199165344" lon="15.754899025">
        <ele>0</ele>
        <time>2013-05-01T13:24:50Z</time>
      </trkpt>
      <trkpt lat="60.0198440552" lon="15.755033493">
        <ele>0</ele>
        <time>2013-05-01T13:24:51Z</time>
      </trkpt>
      <trkpt lat="60.0197715759" lon="15.7551832199">
        <ele>0</ele>
        <time>2013-05-01T13:24:52Z</time>
      </trkpt>
      <trkpt lat="60.0197143555" lon="15.7553100586">
        <ele>0</ele>
        <time>2013-05-01T13:24:53Z</time>
      </trkpt>
      <trkpt lat="60.0196380615" lon="15.7554836273">
        <ele>0</ele>
        <time>2013-05-01T13:24:54Z</time>
      </trkpt>
      <trkpt lat="60.019569397" lon="15.7556476593">
        <ele>0</ele>
        <time>2013-05-01T13:24:55Z</time>
      </trkpt>
      <trkpt lat="60.0195121765" lon="15.7557992935">
        <ele>0</ele>
        <time>2013-05-01T13:24:56Z</time>
      </trkpt>
      <trkpt lat="60.0194664001" lon="15.7559204102">
        <ele>0</ele>
        <time>2013-05-01T13:24:57Z</time>
      </trkpt>
      <trkpt lat="60.0193901062" lon="15.7561254501">
        <ele>0</ele>
        <time>2013-05-01T13:24:58Z</time>
      </trkpt>
      <trkpt lat="60.0193328857" lon="15.7562894821">
        <ele>0</ele>
        <time>2013-05-01T13:24:59Z</time>
      </trkpt>
      <trkpt lat="60.0192756653" lon="15.7564535141">
        <ele>0</ele>
        <time>2013-05-01T13:25:00Z</time>
      </trkpt>
      <trkpt lat="60.0192337036" lon="15.7565784454">
        <ele>0</ele>
        <time>2013-05-01T13:25:01Z</time>
      </trkpt>
      <trkpt lat="60.0191688538" lon="15.7567892075">
        <ele>0</ele>
        <time>2013-05-01T13:25:02Z</time>
      </trkpt>
      <trkpt lat="60.019077301" lon="15.7570981979">
        <ele>0</ele>
        <time>2013-05-01T13:25:04Z</time>
      </trkpt>
      <trkpt lat="60.0189971924" lon="15.7573814392">
        <ele>0</ele>
        <time>2013-05-01T13:25:06Z</time>
      </trkpt>
      <trkpt lat="60.0189476013" lon="15.7575778961">
        <ele>0</ele>
        <time>2013-05-01T13:25:07Z</time>
      </trkpt>
      <trkpt lat="60.018913269" lon="15.7577190399">
        <ele>0</ele>
        <time>2013-05-01T13:25:08Z</time>
      </trkpt>
      <trkpt lat="60.0188903809" lon="15.7578058243">
        <ele>0</ele>
        <time>2013-05-01T13:25:09Z</time>
      </trkpt>
      <trkpt lat="60.0188407898" lon="15.7580137253">
        <ele>0</ele>
        <time>2013-05-01T13:25:10Z</time>
      </trkpt>
      <trkpt lat="60.0188102722" lon="15.7581539154">
        <ele>0</ele>
        <time>2013-05-01T13:25:11Z</time>
      </trkpt>
      <trkpt lat="60.0187072754" lon="15.7586069107">
        <ele>0</ele>
        <time>2013-05-01T13:25:14Z</time>
      </trkpt>
      <trkpt lat="60.0186767578" lon="15.7587537766">
        <ele>0</ele>
        <time>2013-05-01T13:25:15Z</time>
      </trkpt>
      <trkpt lat="60.0186500549" lon="15.7588891983">
        <ele>0</ele>
        <time>2013-05-01T13:25:16Z</time>
      </trkpt>
      <trkpt lat="60.0186233521" lon="15.7590284348">
        <ele>0</ele>
        <time>2013-05-01T13:25:17Z</time>
      </trkpt>
      <trkpt lat="60.0185890198" lon="15.7591981888">
        <ele>0</ele>
        <time>2013-05-01T13:25:18Z</time>
      </trkpt>
      <trkpt lat="60.0185585022" lon="15.759346962">
        <ele>0</ele>
        <time>2013-05-01T13:25:19Z</time>
      </trkpt>
      <trkpt lat="60.0184783936" lon="15.759771347">
        <ele>0</ele>
        <time>2013-05-01T13:25:22Z</time>
      </trkpt>
      <trkpt lat="60.0184555054" lon="15.7599220276">
        <ele>0</ele>
        <time>2013-05-01T13:25:23Z</time>
      </trkpt>
      <trkpt lat="60.0184288025" lon="15.7600660324">
        <ele>0</ele>
        <time>2013-05-01T13:25:24Z</time>
      </trkpt>
      <trkpt lat="60.018409729" lon="15.7601804733">
        <ele>0</ele>
        <time>2013-05-01T13:25:25Z</time>
      </trkpt>
      <trkpt lat="60.0183792114" lon="15.7603406906">
        <ele>0</ele>
        <time>2013-05-01T13:25:26Z</time>
      </trkpt>
      <trkpt lat="60.0182495117" lon="15.761220932">
        <ele>0</ele>
        <time>2013-05-01T13:25:32Z</time>
      </trkpt>
      <trkpt lat="60.0181274414" lon="15.7620954514">
        <ele>0</ele>
        <time>2013-05-01T13:25:38Z</time>
      </trkpt>
      <trkpt lat="60.0180854797" lon="15.7624568939">
        <ele>0</ele>
        <time>2013-05-01T13:25:41Z</time>
      </trkpt>
      <trkpt lat="60.0180625916" lon="15.7626495361">
        <ele>0</ele>
        <time>2013-05-01T13:25:42Z</time>
      </trkpt>
      <trkpt lat="60.0180435181" lon="15.7627811432">
        <ele>0</ele>
        <time>2013-05-01T13:25:43Z</time>
      </trkpt>
      <trkpt lat="60.0180282593" lon="15.762925148">
        <ele>0</ele>
        <time>2013-05-01T13:25:44Z</time>
      </trkpt>
      <trkpt lat="60.0180168152" lon="15.763010025">
        <ele>0</ele>
        <time>2013-05-01T13:25:45Z</time>
      </trkpt>
      <trkpt lat="60.0180015564" lon="15.7631826401">
        <ele>0</ele>
        <time>2013-05-01T13:25:46Z</time>
      </trkpt>
      <trkpt lat="60.0179901123" lon="15.7633256912">
        <ele>0</ele>
        <time>2013-05-01T13:25:47Z</time>
      </trkpt>
      <trkpt lat="60.0179786682" lon="15.7634677887">
        <ele>0</ele>
        <time>2013-05-01T13:25:48Z</time>
      </trkpt>
      <trkpt lat="60.0179710388" lon="15.7635545731">
        <ele>0</ele>
        <time>2013-05-01T13:25:49Z</time>
      </trkpt>
      <trkpt lat="60.0179519653" lon="15.7637424469">
        <ele>0</ele>
        <time>2013-05-01T13:25:50Z</time>
      </trkpt>
      <trkpt lat="60.0179405212" lon="15.763874054">
        <ele>0</ele>
        <time>2013-05-01T13:25:51Z</time>
      </trkpt>
      <trkpt lat="60.0179100037" lon="15.7642965317">
        <ele>0</ele>
        <time>2013-05-01T13:25:54Z</time>
      </trkpt>
      <trkpt lat="60.0178642273" lon="15.764998436">
        <ele>0</ele>
        <time>2013-05-01T13:25:59Z</time>
      </trkpt>
      <trkpt lat="60.017829895" lon="15.7654027939">
        <ele>0</ele>
        <time>2013-05-01T13:26:02Z</time>
      </trkpt>
      <trkpt lat="60.0178260803" lon="15.7655410767">
        <ele>0</ele>
        <time>2013-05-01T13:26:03Z</time>
      </trkpt>
      <trkpt lat="60.0178184509" lon="15.765666008">
        <ele>0</ele>
        <time>2013-05-01T13:26:04Z</time>
      </trkpt>
      <trkpt lat="60.0178146362" lon="15.7657871246">
        <ele>0</ele>
        <time>2013-05-01T13:26:05Z</time>
      </trkpt>
      <trkpt lat="60.0178070068" lon="15.7659606934">
        <ele>0</ele>
        <time>2013-05-01T13:26:06Z</time>
      </trkpt>
      <trkpt lat="60.0178031921" lon="15.7661170959">
        <ele>0</ele>
        <time>2013-05-01T13:26:07Z</time>
      </trkpt>
      <trkpt lat="60.0177993774" lon="15.7662639618">
        <ele>0</ele>
        <time>2013-05-01T13:26:08Z</time>
      </trkpt>
      <trkpt lat="60.0177955627" lon="15.7663536072">
        <ele>0</ele>
        <time>2013-05-01T13:26:09Z</time>
      </trkpt>
      <trkpt lat="60.0177879333" lon="15.7665586472">
        <ele>0</ele>
        <time>2013-05-01T13:26:10Z</time>
      </trkpt>
      <trkpt lat="60.0177841187" lon="15.7666988373">
        <ele>0</ele>
        <time>2013-05-01T13:26:11Z</time>
      </trkpt>
      <trkpt lat="60.017780304" lon="15.7668476105">
        <ele>0</ele>
        <time>2013-05-01T13:26:12Z</time>
      </trkpt>
      <trkpt lat="60.017780304" lon="15.7669448853">
        <ele>0</ele>
        <time>2013-05-01T13:26:13Z</time>
      </trkpt>
      <trkpt lat="60.0177726746" lon="15.7671480179">
        <ele>0</ele>
        <time>2013-05-01T13:26:14Z</time>
      </trkpt>
      <trkpt lat="60.0177497864" lon="15.7680654526">
        <ele>0</ele>
        <time>2013-05-01T13:26:20Z</time>
      </trkpt>
      <trkpt lat="60.0177497864" lon="15.7682170868">
        <ele>0</ele>
        <time>2013-05-01T13:26:21Z</time>
      </trkpt>
      <trkpt lat="60.017742157" lon="15.768362999">
        <ele>0</ele>
        <time>2013-05-01T13:26:22Z</time>
      </trkpt>
      <trkpt lat="60.0177345276" lon="15.768529892">
        <ele>0</ele>
        <time>2013-05-01T13:26:23Z</time>
      </trkpt>
      <trkpt lat="60.0177307129" lon="15.7686843872">
        <ele>0</ele>
        <time>2013-05-01T13:26:24Z</time>
      </trkpt>
      <trkpt lat="60.0177268982" lon="15.7687826157">
        <ele>0</ele>
        <time>2013-05-01T13:26:25Z</time>
      </trkpt>
      <trkpt lat="60.0177268982" lon="15.7689580917">
        <ele>0</ele>
        <time>2013-05-01T13:26:26Z</time>
      </trkpt>
      <trkpt lat="60.0177230835" lon="15.7691440582">
        <ele>0</ele>
        <time>2013-05-01T13:26:27Z</time>
      </trkpt>
      <trkpt lat="60.0177192688" lon="15.769610405">
        <ele>0</ele>
        <time>2013-05-01T13:26:30Z</time>
      </trkpt>
      <trkpt lat="60.0177154541" lon="15.7697544098">
        <ele>0</ele>
        <time>2013-05-01T13:26:31Z</time>
      </trkpt>
      <trkpt lat="60.0177116394" lon="15.7699117661">
        <ele>0</ele>
        <time>2013-05-01T13:26:32Z</time>
      </trkpt>
      <trkpt lat="60.0177078247" lon="15.7700185776">
        <ele>0</ele>
        <time>2013-05-01T13:26:33Z</time>
      </trkpt>
      <trkpt lat="60.0177001953" lon="15.7702283859">
        <ele>0</ele>
        <time>2013-05-01T13:26:34Z</time>
      </trkpt>
      <trkpt lat="60.0176925659" lon="15.770401001">
        <ele>0</ele>
        <time>2013-05-01T13:26:35Z</time>
      </trkpt>
      <trkpt lat="60.0176849365" lon="15.7705364227">
        <ele>0</ele>
        <time>2013-05-01T13:26:36Z</time>
      </trkpt>
      <trkpt lat="60.0176811218" lon="15.7706489563">
        <ele>0</ele>
        <time>2013-05-01T13:26:37Z</time>
      </trkpt>
      <trkpt lat="60.0176696777" lon="15.7708597183">
        <ele>0</ele>
        <time>2013-05-01T13:26:38Z</time>
      </trkpt>
      <trkpt lat="60.017665863" lon="15.7710161209">
        <ele>0</ele>
        <time>2013-05-01T13:26:39Z</time>
      </trkpt>
      <trkpt lat="60.0176582336" lon="15.7711696625">
        <ele>0</ele>
        <time>2013-05-01T13:26:40Z</time>
      </trkpt>
      <trkpt lat="60.0176544189" lon="15.7712497711">
        <ele>0</ele>
        <time>2013-05-01T13:26:41Z</time>
      </trkpt>
      <trkpt lat="60.0176429749" lon="15.7714643478">
        <ele>0</ele>
        <time>2013-05-01T13:26:42Z</time>
      </trkpt>
      <trkpt lat="60.0176315308" lon="15.771613121">
        <ele>0</ele>
        <time>2013-05-01T13:26:43Z</time>
      </trkpt>
      <trkpt lat="60.0176200867" lon="15.7718191147">
        <ele>0</ele>
        <time>2013-05-01T13:26:45Z</time>
      </trkpt>
      <trkpt lat="60.0175590515" lon="15.7727279663">
        <ele>0</ele>
        <time>2013-05-01T13:26:52Z</time>
      </trkpt>
      <trkpt lat="60.0174865723" lon="15.7734527588">
        <ele>0</ele>
        <time>2013-05-01T13:26:59Z</time>
      </trkpt>
      <trkpt lat="60.0174789429" lon="15.7735528946">
        <ele>0</ele>
        <time>2013-05-01T13:27:00Z</time>
      </trkpt>
      <trkpt lat="60.0174674988" lon="15.7736492157">
        <ele>0</ele>
        <time>2013-05-01T13:27:01Z</time>
      </trkpt>
      <trkpt lat="60.0174560547" lon="15.7737445831">
        <ele>0</ele>
        <time>2013-05-01T13:27:02Z</time>
      </trkpt>
      <trkpt lat="60.0174446106" lon="15.7738485336">
        <ele>0</ele>
        <time>2013-05-01T13:27:03Z</time>
      </trkpt>
      <trkpt lat="60.0174331665" lon="15.7739429474">
        <ele>0</ele>
        <time>2013-05-01T13:27:04Z</time>
      </trkpt>
      <trkpt lat="60.0174255371" lon="15.7740058899">
        <ele>0</ele>
        <time>2013-05-01T13:27:05Z</time>
      </trkpt>
      <trkpt lat="60.0174102783" lon="15.7741241455">
        <ele>0</ele>
        <time>2013-05-01T13:27:06Z</time>
      </trkpt>
      <trkpt lat="60.0173873901" lon="15.7743253708">
        <ele>0</ele>
        <time>2013-05-01T13:27:08Z</time>
      </trkpt>
      <trkpt lat="60.0173301697" lon="15.7747402191">
        <ele>0</ele>
        <time>2013-05-01T13:27:13Z</time>
      </trkpt>
      <trkpt lat="60.0172805786" lon="15.77501297">
        <ele>0</ele>
        <time>2013-05-01T13:27:16Z</time>
      </trkpt>
      <trkpt lat="60.0172691345" lon="15.7750854492">
        <ele>0</ele>
        <time>2013-05-01T13:27:17Z</time>
      </trkpt>
      <trkpt lat="60.0172538757" lon="15.7751998901">
        <ele>0</ele>
        <time>2013-05-01T13:27:18Z</time>
      </trkpt>
      <trkpt lat="60.0172386169" lon="15.7752828598">
        <ele>0</ele>
        <time>2013-05-01T13:27:19Z</time>
      </trkpt>
      <trkpt lat="60.0172233582" lon="15.7753686905">
        <ele>0</ele>
        <time>2013-05-01T13:27:20Z</time>
      </trkpt>
      <trkpt lat="60.0172119141" lon="15.7754535675">
        <ele>0</ele>
        <time>2013-05-01T13:27:21Z</time>
      </trkpt>
      <trkpt lat="60.01720047" lon="15.7755327225">
        <ele>0</ele>
        <time>2013-05-01T13:27:22Z</time>
      </trkpt>
      <trkpt lat="60.0171852112" lon="15.7756233215">
        <ele>0</ele>
        <time>2013-05-01T13:27:23Z</time>
      </trkpt>
      <trkpt lat="60.0171737671" lon="15.7757034302">
        <ele>0</ele>
        <time>2013-05-01T13:27:24Z</time>
      </trkpt>
      <trkpt lat="60.017162323" lon="15.7757568359">
        <ele>0</ele>
        <time>2013-05-01T13:27:25Z</time>
      </trkpt>
      <trkpt lat="60.0171432495" lon="15.7758646011">
        <ele>0</ele>
        <time>2013-05-01T13:27:26Z</time>
      </trkpt>
      <trkpt lat="60.0171279907" lon="15.7759542465">
        <ele>0</ele>
        <time>2013-05-01T13:27:27Z</time>
      </trkpt>
      <trkpt lat="60.0171127319" lon="15.7760400772">
        <ele>0</ele>
        <time>2013-05-01T13:27:28Z</time>
      </trkpt>
      <trkpt lat="60.0171051025" lon="15.7760953903">
        <ele>0</ele>
        <time>2013-05-01T13:27:29Z</time>
      </trkpt>
      <trkpt lat="60.0170822144" lon="15.7762041092">
        <ele>0</ele>
        <time>2013-05-01T13:27:30Z</time>
      </trkpt>
      <trkpt lat="60.0170707703" lon="15.7762708664">
        <ele>0</ele>
        <time>2013-05-01T13:27:31Z</time>
      </trkpt>
      <trkpt lat="60.0170516968" lon="15.7763586044">
        <ele>0</ele>
        <time>2013-05-01T13:27:32Z</time>
      </trkpt>
      <trkpt lat="60.0170440674" lon="15.7764072418">
        <ele>0</ele>
        <time>2013-05-01T13:27:33Z</time>
      </trkpt>
      <trkpt lat="60.016998291" lon="15.7766494751">
        <ele>0</ele>
        <time>2013-05-01T13:27:36Z</time>
      </trkpt>
      <trkpt lat="60.0169868469" lon="15.7767047882">
        <ele>0</ele>
        <time>2013-05-01T13:27:37Z</time>
      </trkpt>
      <trkpt lat="60.0169677734" lon="15.7767963409">
        <ele>0</ele>
        <time>2013-05-01T13:27:38Z</time>
      </trkpt>
      <trkpt lat="60.0169525146" lon="15.7768707275">
        <ele>0</ele>
        <time>2013-05-01T13:27:39Z</time>
      </trkpt>
      <trkpt lat="60.0169410706" lon="15.7769365311">
        <ele>0</ele>
        <time>2013-05-01T13:27:40Z</time>
      </trkpt>
      <trkpt lat="60.016910553" lon="15.7770853043">
        <ele>0</ele>
        <time>2013-05-01T13:27:42Z</time>
      </trkpt>
      <trkpt lat="60.0168457031" lon="15.7773733139">
        <ele>0</ele>
        <time>2013-05-01T13:27:46Z</time>
      </trkpt>
      <trkpt lat="60.0168228149" lon="15.7774562836">
        <ele>0</ele>
        <time>2013-05-01T13:27:47Z</time>
      </trkpt>
      <trkpt lat="60.0168037415" lon="15.7775287628">
        <ele>0</ele>
        <time>2013-05-01T13:27:48Z</time>
      </trkpt>
      <trkpt lat="60.0167922974" lon="15.7775754929">
        <ele>0</ele>
        <time>2013-05-01T13:27:49Z</time>
      </trkpt>
      <trkpt lat="60.0167694092" lon="15.7776794434">
        <ele>0</ele>
        <time>2013-05-01T13:27:50Z</time>
      </trkpt>
      <trkpt lat="60.0167541504" lon="15.7777481079">
        <ele>0</ele>
        <time>2013-05-01T13:27:51Z</time>
      </trkpt>
      <trkpt lat="60.0167007446" lon="15.7779760361">
        <ele>0</ele>
        <time>2013-05-01T13:27:54Z</time>
      </trkpt>
      <trkpt lat="60.0166854858" lon="15.7780437469">
        <ele>0</ele>
        <time>2013-05-01T13:27:55Z</time>
      </trkpt>
      <trkpt lat="60.0166740417" lon="15.7781124115">
        <ele>0</ele>
        <time>2013-05-01T13:27:56Z</time>
      </trkpt>
      <trkpt lat="60.016658783" lon="15.7781658173">
        <ele>0</ele>
        <time>2013-05-01T13:27:57Z</time>
      </trkpt>
      <trkpt lat="60.0166358948" lon="15.7782592773">
        <ele>0</ele>
        <time>2013-05-01T13:27:58Z</time>
      </trkpt>
      <trkpt lat="60.016582489" lon="15.7785367966">
        <ele>0</ele>
        <time>2013-05-01T13:28:02Z</time>
      </trkpt>
      <trkpt lat="60.0165634155" lon="15.7786092758">
        <ele>0</ele>
        <time>2013-05-01T13:28:03Z</time>
      </trkpt>
      <trkpt lat="60.0165481567" lon="15.778676033">
        <ele>0</ele>
        <time>2013-05-01T13:28:04Z</time>
      </trkpt>
      <trkpt lat="60.0165328979" lon="15.7787466049">
        <ele>0</ele>
        <time>2013-05-01T13:28:05Z</time>
      </trkpt>
      <trkpt lat="60.0165176392" lon="15.7788114548">
        <ele>0</ele>
        <time>2013-05-01T13:28:06Z</time>
      </trkpt>
      <trkpt lat="60.0164413452" lon="15.7790851593">
        <ele>0</ele>
        <time>2013-05-01T13:28:11Z</time>
      </trkpt>
      <trkpt lat="60.0164299011" lon="15.7791395187">
        <ele>0</ele>
        <time>2013-05-01T13:28:12Z</time>
      </trkpt>
      <trkpt lat="60.0163726807" lon="15.7793979645">
        <ele>0</ele>
        <time>2013-05-01T13:28:17Z</time>
      </trkpt>
      <trkpt lat="60.0163536072" lon="15.7794723511">
        <ele>0</ele>
        <time>2013-05-01T13:28:18Z</time>
      </trkpt>
      <trkpt lat="60.0163383484" lon="15.7795238495">
        <ele>0</ele>
        <time>2013-05-01T13:28:19Z</time>
      </trkpt>
      <trkpt lat="60.0163192749" lon="15.7795829773">
        <ele>0</ele>
        <time>2013-05-01T13:28:20Z</time>
      </trkpt>
      <trkpt lat="60.016292572" lon="15.7796974182">
        <ele>0</ele>
        <time>2013-05-01T13:28:22Z</time>
      </trkpt>
      <trkpt lat="60.0162239075" lon="15.7799415588">
        <ele>0</ele>
        <time>2013-05-01T13:28:26Z</time>
      </trkpt>
      <trkpt lat="60.0161781311" lon="15.7801046371">
        <ele>0</ele>
        <time>2013-05-01T13:28:29Z</time>
      </trkpt>
      <trkpt lat="60.0161170959" lon="15.7803182602">
        <ele>0</ele>
        <time>2013-05-01T13:28:32Z</time>
      </trkpt>
      <trkpt lat="60.016040802" lon="15.7806053162">
        <ele>0</ele>
        <time>2013-05-01T13:28:37Z</time>
      </trkpt>
      <trkpt lat="60.0160179138" lon="15.7806844711">
        <ele>0</ele>
        <time>2013-05-01T13:28:38Z</time>
      </trkpt>
      <trkpt lat="60.016002655" lon="15.7807407379">
        <ele>0</ele>
        <time>2013-05-01T13:28:39Z</time>
      </trkpt>
      <trkpt lat="60.0159645081" lon="15.7808580399">
        <ele>0</ele>
        <time>2013-05-01T13:28:41Z</time>
      </trkpt>
      <trkpt lat="60.0159492493" lon="15.780913353">
        <ele>0</ele>
        <time>2013-05-01T13:28:42Z</time>
      </trkpt>
      <trkpt lat="60.0159263611" lon="15.7809782028">
        <ele>0</ele>
        <time>2013-05-01T13:28:43Z</time>
      </trkpt>
      <trkpt lat="60.0159111023" lon="15.781042099">
        <ele>0</ele>
        <time>2013-05-01T13:28:44Z</time>
      </trkpt>
      <trkpt lat="60.0158462524" lon="15.7812957764">
        <ele>0</ele>
        <time>2013-05-01T13:28:48Z</time>
      </trkpt>
      <trkpt lat="60.0158348083" lon="15.7813339233">
        <ele>0</ele>
        <time>2013-05-01T13:28:49Z</time>
      </trkpt>
      <trkpt lat="60.0158081055" lon="15.781419754">
        <ele>0</ele>
        <time>2013-05-01T13:28:50Z</time>
      </trkpt>
      <trkpt lat="60.015789032" lon="15.7814798355">
        <ele>0</ele>
        <time>2013-05-01T13:28:51Z</time>
      </trkpt>
      <trkpt lat="60.0157661438" lon="15.7815475464">
        <ele>0</ele>
        <time>2013-05-01T13:28:52Z</time>
      </trkpt>
      <trkpt lat="60.015750885" lon="15.7815914154">
        <ele>0</ele>
        <time>2013-05-01T13:28:53Z</time>
      </trkpt>
      <trkpt lat="60.0156822205" lon="15.7818307877">
        <ele>0</ele>
        <time>2013-05-01T13:28:56Z</time>
      </trkpt>
      <trkpt lat="60.0155715942" lon="15.7822036743">
        <ele>0</ele>
        <time>2013-05-01T13:29:01Z</time>
      </trkpt>
      <trkpt lat="60.0155448914" lon="15.7822732925">
        <ele>0</ele>
        <time>2013-05-01T13:29:02Z</time>
      </trkpt>
      <trkpt lat="60.0154838562" lon="15.7824220657">
        <ele>0</ele>
        <time>2013-05-01T13:29:04Z</time>
      </trkpt>
      <trkpt lat="60.015460968" lon="15.7824668884">
        <ele>0</ele>
        <time>2013-05-01T13:29:05Z</time>
      </trkpt>
      <trkpt lat="60.01537323" lon="15.7826004028">
        <ele>0</ele>
        <time>2013-05-01T13:29:07Z</time>
      </trkpt>
      <trkpt lat="60.0153236389" lon="15.782617569">
        <ele>0</ele>
        <time>2013-05-01T13:29:08Z</time>
      </trkpt>
      <trkpt lat="60.0152931213" lon="15.7826051712">
        <ele>0</ele>
        <time>2013-05-01T13:29:09Z</time>
      </trkpt>
      <trkpt lat="60.0151786804" lon="15.782541275">
        <ele>0</ele>
        <time>2013-05-01T13:29:11Z</time>
      </trkpt>
      <trkpt lat="60.0151252747" lon="15.7825088501">
        <ele>0</ele>
        <time>2013-05-01T13:29:12Z</time>
      </trkpt>
      <trkpt lat="60.0150947571" lon="15.7824907303">
        <ele>0</ele>
        <time>2013-05-01T13:29:13Z</time>
      </trkpt>
      <trkpt lat="60.0149688721" lon="15.782418251">
        <ele>0</ele>
        <time>2013-05-01T13:29:15Z</time>
      </trkpt>
      <trkpt lat="60.0149307251" lon="15.7823953629">
        <ele>0</ele>
        <time>2013-05-01T13:29:16Z</time>
      </trkpt>
      <trkpt lat="60.0148849487" lon="15.7823705673">
        <ele>0</ele>
        <time>2013-05-01T13:29:17Z</time>
      </trkpt>
      <trkpt lat="60.0148162842" lon="15.7823352814">
        <ele>0</ele>
        <time>2013-05-01T13:29:18Z</time>
      </trkpt>
      <trkpt lat="60.0147628784" lon="15.7823076248">
        <ele>0</ele>
        <time>2013-05-01T13:29:19Z</time>
      </trkpt>
      <trkpt lat="60.0147094727" lon="15.7822790146">
        <ele>0</ele>
        <time>2013-05-01T13:29:20Z</time>
      </trkpt>
      <trkpt lat="60.0144805908" lon="15.7821683884">
        <ele>0</ele>
        <time>2013-05-01T13:29:24Z</time>
      </trkpt>
      <trkpt lat="60.0142440796" lon="15.7820711136">
        <ele>0</ele>
        <time>2013-05-01T13:29:28Z</time>
      </trkpt>
      <trkpt lat="60.0142059326" lon="15.7820558548">
        <ele>0</ele>
        <time>2013-05-01T13:29:29Z</time>
      </trkpt>
      <trkpt lat="60.0141181946" lon="15.7820234299">
        <ele>0</ele>
        <time>2013-05-01T13:29:30Z</time>
      </trkpt>
      <trkpt lat="60.0140609741" lon="15.7820053101">
        <ele>0</ele>
        <time>2013-05-01T13:29:31Z</time>
      </trkpt>
      <trkpt lat="60.0139923096" lon="15.7819833755">
        <ele>0</ele>
        <time>2013-05-01T13:29:32Z</time>
      </trkpt>
      <trkpt lat="60.0139579773" lon="15.7819719315">
        <ele>0</ele>
        <time>2013-05-01T13:29:33Z</time>
      </trkpt>
      <trkpt lat="60.0138626099" lon="15.7819433212">
        <ele>0</ele>
        <time>2013-05-01T13:29:34Z</time>
      </trkpt>
      <trkpt lat="60.0137939453" lon="15.7819223404">
        <ele>0</ele>
        <time>2013-05-01T13:29:35Z</time>
      </trkpt>
      <trkpt lat="60.0137290955" lon="15.7819061279">
        <ele>0</ele>
        <time>2013-05-01T13:29:36Z</time>
      </trkpt>
      <trkpt lat="60.0136756897" lon="15.7818908691">
        <ele>0</ele>
        <time>2013-05-01T13:29:37Z</time>
      </trkpt>
      <trkpt lat="60.0135765076" lon="15.7818689346">
        <ele>0</ele>
        <time>2013-05-01T13:29:38Z</time>
      </trkpt>
      <trkpt lat="60.013507843" lon="15.7818536758">
        <ele>0</ele>
        <time>2013-05-01T13:29:39Z</time>
      </trkpt>
      <trkpt lat="60.0134353638" lon="15.7818374634">
        <ele>0</ele>
        <time>2013-05-01T13:29:40Z</time>
      </trkpt>
      <trkpt lat="60.0133895874" lon="15.781829834">
        <ele>0</ele>
        <time>2013-05-01T13:29:41Z</time>
      </trkpt>
      <trkpt lat="60.0132865906" lon="15.7818183899">
        <ele>0</ele>
        <time>2013-05-01T13:29:42Z</time>
      </trkpt>
      <trkpt lat="60.0132102966" lon="15.7818117142">
        <ele>0</ele>
        <time>2013-05-01T13:29:43Z</time>
      </trkpt>
      <trkpt lat="60.0129928589" lon="15.7817869186">
        <ele>0</ele>
        <time>2013-05-01T13:29:46Z</time>
      </trkpt>
      <trkpt lat="60.0129089355" lon="15.7817831039">
        <ele>0</ele>
        <time>2013-05-01T13:29:47Z</time>
      </trkpt>
      <trkpt lat="60.0126991272" lon="15.7817802429">
        <ele>0</ele>
        <time>2013-05-01T13:29:50Z</time>
      </trkpt>
      <trkpt lat="60.0126304626" lon="15.7817811966">
        <ele>0</ele>
        <time>2013-05-01T13:29:51Z</time>
      </trkpt>
      <trkpt lat="60.0125541687" lon="15.7817821503">
        <ele>0</ele>
        <time>2013-05-01T13:29:52Z</time>
      </trkpt>
      <trkpt lat="60.0125083923" lon="15.781785965">
        <ele>0</ele>
        <time>2013-05-01T13:29:53Z</time>
      </trkpt>
      <trkpt lat="60.0124053955" lon="15.7817964554">
        <ele>0</ele>
        <time>2013-05-01T13:29:54Z</time>
      </trkpt>
      <trkpt lat="60.0123329163" lon="15.7818040848">
        <ele>0</ele>
        <time>2013-05-01T13:29:55Z</time>
      </trkpt>
      <trkpt lat="60.0122642517" lon="15.7818098068">
        <ele>0</ele>
        <time>2013-05-01T13:29:56Z</time>
      </trkpt>
      <trkpt lat="60.0122070312" lon="15.7818117142">
        <ele>0</ele>
        <time>2013-05-01T13:29:57Z</time>
      </trkpt>
      <trkpt lat="60.0119590759" lon="15.7818384171">
        <ele>0</ele>
        <time>2013-05-01T13:30:00Z</time>
      </trkpt>
      <trkpt lat="60.0118179321" lon="15.7818746567">
        <ele>0</ele>
        <time>2013-05-01T13:30:02Z</time>
      </trkpt>
      <trkpt lat="60.0117454529" lon="15.7818918228">
        <ele>0</ele>
        <time>2013-05-01T13:30:03Z</time>
      </trkpt>
      <trkpt lat="60.0116767883" lon="15.78191185">
        <ele>0</ele>
        <time>2013-05-01T13:30:04Z</time>
      </trkpt>
      <trkpt lat="60.011631012" lon="15.7819252014">
        <ele>0</ele>
        <time>2013-05-01T13:30:05Z</time>
      </trkpt>
      <trkpt lat="60.0114631653" lon="15.7819824219">
        <ele>0</ele>
        <time>2013-05-01T13:30:07Z</time>
      </trkpt>
      <trkpt lat="60.011390686" lon="15.7820043564">
        <ele>0</ele>
        <time>2013-05-01T13:30:08Z</time>
      </trkpt>
      <trkpt lat="60.0113334656" lon="15.7820224762">
        <ele>0</ele>
        <time>2013-05-01T13:30:09Z</time>
      </trkpt>
      <trkpt lat="60.0112419128" lon="15.7820577621">
        <ele>0</ele>
        <time>2013-05-01T13:30:10Z</time>
      </trkpt>
      <trkpt lat="60.0108909607" lon="15.7821979523">
        <ele>0</ele>
        <time>2013-05-01T13:30:15Z</time>
      </trkpt>
      <trkpt lat="60.0103111267" lon="15.7825117111">
        <ele>0</ele>
        <time>2013-05-01T13:30:23Z</time>
      </trkpt>
      <trkpt lat="60.009967804" lon="15.7827396393">
        <ele>0</ele>
        <time>2013-05-01T13:30:28Z</time>
      </trkpt>
      <trkpt lat="60.0099182129" lon="15.7827749252">
        <ele>0</ele>
        <time>2013-05-01T13:30:29Z</time>
      </trkpt>
      <trkpt lat="60.0098266602" lon="15.7828445435">
        <ele>0</ele>
        <time>2013-05-01T13:30:30Z</time>
      </trkpt>
      <trkpt lat="60.009765625" lon="15.7828931808">
        <ele>0</ele>
        <time>2013-05-01T13:30:31Z</time>
      </trkpt>
      <trkpt lat="60.0096893311" lon="15.7829504013">
        <ele>0</ele>
        <time>2013-05-01T13:30:32Z</time>
      </trkpt>
      <trkpt lat="60.0096473694" lon="15.7829847336">
        <ele>0</ele>
        <time>2013-05-01T13:30:33Z</time>
      </trkpt>
      <trkpt lat="60.0095596313" lon="15.7830581665">
        <ele>0</ele>
        <time>2013-05-01T13:30:34Z</time>
      </trkpt>
      <trkpt lat="60.0094833374" lon="15.7831172943">
        <ele>0</ele>
        <time>2013-05-01T13:30:35Z</time>
      </trkpt>
      <trkpt lat="60.0094223022" lon="15.7831668854">
        <ele>0</ele>
        <time>2013-05-01T13:30:36Z</time>
      </trkpt>
      <trkpt lat="60.0092124939" lon="15.7833442688">
        <ele>0</ele>
        <time>2013-05-01T13:30:39Z</time>
      </trkpt>
      <trkpt lat="60.0090065002" lon="15.7835226059">
        <ele>0</ele>
        <time>2013-05-01T13:30:42Z</time>
      </trkpt>
      <trkpt lat="60.0086784363" lon="15.7838134766">
        <ele>0</ele>
        <time>2013-05-01T13:30:47Z</time>
      </trkpt>
      <trkpt lat="60.0086097717" lon="15.7838726044">
        <ele>0</ele>
        <time>2013-05-01T13:30:48Z</time>
      </trkpt>
      <trkpt lat="60.0085678101" lon="15.7839097977">
        <ele>0</ele>
        <time>2013-05-01T13:30:49Z</time>
      </trkpt>
      <trkpt lat="60.0084686279" lon="15.7840003967">
        <ele>0</ele>
        <time>2013-05-01T13:30:50Z</time>
      </trkpt>
      <trkpt lat="60.008392334" lon="15.7840642929">
        <ele>0</ele>
        <time>2013-05-01T13:30:51Z</time>
      </trkpt>
      <trkpt lat="60.0083198547" lon="15.7841310501">
        <ele>0</ele>
        <time>2013-05-01T13:30:52Z</time>
      </trkpt>
      <trkpt lat="60.0082702637" lon="15.7841787338">
        <ele>0</ele>
        <time>2013-05-01T13:30:53Z</time>
      </trkpt>
      <trkpt lat="60.0081710815" lon="15.7842674255">
        <ele>0</ele>
        <time>2013-05-01T13:30:54Z</time>
      </trkpt>
      <trkpt lat="60.0080871582" lon="15.7843465805">
        <ele>0</ele>
        <time>2013-05-01T13:30:55Z</time>
      </trkpt>
      <trkpt lat="60.0080299377" lon="15.7843980789">
        <ele>0</ele>
        <time>2013-05-01T13:30:56Z</time>
      </trkpt>
      <trkpt lat="60.007976532" lon="15.7844514847">
        <ele>0</ele>
        <time>2013-05-01T13:30:57Z</time>
      </trkpt>
      <trkpt lat="60.0078773499" lon="15.7845411301">
        <ele>0</ele>
        <time>2013-05-01T13:30:58Z</time>
      </trkpt>
      <trkpt lat="60.0078125" lon="15.7846040726">
        <ele>0</ele>
        <time>2013-05-01T13:30:59Z</time>
      </trkpt>
      <trkpt lat="60.0077438354" lon="15.7846717834">
        <ele>0</ele>
        <time>2013-05-01T13:31:00Z</time>
      </trkpt>
      <trkpt lat="60.0074958801" lon="15.7849216461">
        <ele>0</ele>
        <time>2013-05-01T13:31:04Z</time>
      </trkpt>
      <trkpt lat="60.0073051453" lon="15.7851228714">
        <ele>0</ele>
        <time>2013-05-01T13:31:07Z</time>
      </trkpt>
      <trkpt lat="60.0072250366" lon="15.7852182388">
        <ele>0</ele>
        <time>2013-05-01T13:31:09Z</time>
      </trkpt>
      <trkpt lat="60.0069465637" lon="15.7855148315">
        <ele>0</ele>
        <time>2013-05-01T13:31:14Z</time>
      </trkpt>
      <trkpt lat="60.0068855286" lon="15.785577774">
        <ele>0</ele>
        <time>2013-05-01T13:31:15Z</time>
      </trkpt>
      <trkpt lat="60.0068206787" lon="15.7856473923">
        <ele>0</ele>
        <time>2013-05-01T13:31:16Z</time>
      </trkpt>
      <trkpt lat="60.0067749023" lon="15.7857036591">
        <ele>0</ele>
        <time>2013-05-01T13:31:17Z</time>
      </trkpt>
      <trkpt lat="60.0067176819" lon="15.7857646942">
        <ele>0</ele>
        <time>2013-05-01T13:31:18Z</time>
      </trkpt>
      <trkpt lat="60.006652832" lon="15.7858476639">
        <ele>0</ele>
        <time>2013-05-01T13:31:19Z</time>
      </trkpt>
      <trkpt lat="60.0065879822" lon="15.7859201431">
        <ele>0</ele>
        <time>2013-05-01T13:31:20Z</time>
      </trkpt>
      <trkpt lat="60.0065307617" lon="15.785984993">
        <ele>0</ele>
        <time>2013-05-01T13:31:21Z</time>
      </trkpt>
      <trkpt lat="60.0064888" lon="15.7860336304">
        <ele>0</ele>
        <time>2013-05-01T13:31:22Z</time>
      </trkpt>
      <trkpt lat="60.0064201355" lon="15.7861099243">
        <ele>0</ele>
        <time>2013-05-01T13:31:23Z</time>
      </trkpt>
      <trkpt lat="60.0063514709" lon="15.7861919403">
        <ele>0</ele>
        <time>2013-05-01T13:31:24Z</time>
      </trkpt>
      <trkpt lat="60.0062904358" lon="15.7862586975">
        <ele>0</ele>
        <time>2013-05-01T13:31:25Z</time>
      </trkpt>
      <trkpt lat="60.0061683655" lon="15.7863950729">
        <ele>0</ele>
        <time>2013-05-01T13:31:27Z</time>
      </trkpt>
      <trkpt lat="60.0060920715" lon="15.7864837646">
        <ele>0</ele>
        <time>2013-05-01T13:31:28Z</time>
      </trkpt>
      <trkpt lat="60.006023407" lon="15.7865610123">
        <ele>0</ele>
        <time>2013-05-01T13:31:29Z</time>
      </trkpt>
      <trkpt lat="60.0059623718" lon="15.7866334915">
        <ele>0</ele>
        <time>2013-05-01T13:31:30Z</time>
      </trkpt>
      <trkpt lat="60.0058860779" lon="15.78673172">
        <ele>0</ele>
        <time>2013-05-01T13:31:31Z</time>
      </trkpt>
      <trkpt lat="60.0058097839" lon="15.7868242264">
        <ele>0</ele>
        <time>2013-05-01T13:31:32Z</time>
      </trkpt>
      <trkpt lat="60.0057258606" lon="15.7869243622">
        <ele>0</ele>
        <time>2013-05-01T13:31:33Z</time>
      </trkpt>
      <trkpt lat="60.0055084229" lon="15.7871770859">
        <ele>0</ele>
        <time>2013-05-01T13:31:36Z</time>
      </trkpt>
      <trkpt lat="60.005443573" lon="15.7872581482">
        <ele>0</ele>
        <time>2013-05-01T13:31:37Z</time>
      </trkpt>
      <trkpt lat="60.0053825378" lon="15.7873306274">
        <ele>0</ele>
        <time>2013-05-01T13:31:38Z</time>
      </trkpt>
      <trkpt lat="60.0053024292" lon="15.7874202728">
        <ele>0</ele>
        <time>2013-05-01T13:31:39Z</time>
      </trkpt>
      <trkpt lat="60.00522995" lon="15.7875089645">
        <ele>0</ele>
        <time>2013-05-01T13:31:40Z</time>
      </trkpt>
      <trkpt lat="60.0051651001" lon="15.7875909805">
        <ele>0</ele>
        <time>2013-05-01T13:31:41Z</time>
      </trkpt>
      <trkpt lat="60.0051193237" lon="15.7876491547">
        <ele>0</ele>
        <time>2013-05-01T13:31:42Z</time>
      </trkpt>
      <trkpt lat="60.0050354004" lon="15.7877578735">
        <ele>0</ele>
        <time>2013-05-01T13:31:43Z</time>
      </trkpt>
      <trkpt lat="60.0049629211" lon="15.7878494263">
        <ele>0</ele>
        <time>2013-05-01T13:31:44Z</time>
      </trkpt>
      <trkpt lat="60.0048942566" lon="15.7879362106">
        <ele>0</ele>
        <time>2013-05-01T13:31:45Z</time>
      </trkpt>
      <trkpt lat="60.0048484802" lon="15.7879934311">
        <ele>0</ele>
        <time>2013-05-01T13:31:46Z</time>
      </trkpt>
      <trkpt lat="60.004776001" lon="15.7880878448">
        <ele>0</ele>
        <time>2013-05-01T13:31:47Z</time>
      </trkpt>
      <trkpt lat="60.0046920776" lon="15.7881937027">
        <ele>0</ele>
        <time>2013-05-01T13:31:48Z</time>
      </trkpt>
      <trkpt lat="60.0046272278" lon="15.7882852554">
        <ele>0</ele>
        <time>2013-05-01T13:31:49Z</time>
      </trkpt>
      <trkpt lat="60.0045776367" lon="15.788351059">
        <ele>0</ele>
        <time>2013-05-01T13:31:50Z</time>
      </trkpt>
      <trkpt lat="60.0045013428" lon="15.7884559631">
        <ele>0</ele>
        <time>2013-05-01T13:31:51Z</time>
      </trkpt>
      <trkpt lat="60.0044364929" lon="15.7885446548">
        <ele>0</ele>
        <time>2013-05-01T13:31:52Z</time>
      </trkpt>
      <trkpt lat="60.004360199" lon="15.788640976">
        <ele>0</ele>
        <time>2013-05-01T13:31:53Z</time>
      </trkpt>
      <trkpt lat="60.0042953491" lon="15.7887229919">
        <ele>0</ele>
        <time>2013-05-01T13:31:54Z</time>
      </trkpt>
      <trkpt lat="60.0042228699" lon="15.7888202667">
        <ele>0</ele>
        <time>2013-05-01T13:31:55Z</time>
      </trkpt>
      <trkpt lat="60.0041465759" lon="15.7889194489">
        <ele>0</ele>
        <time>2013-05-01T13:31:56Z</time>
      </trkpt>
      <trkpt lat="60.0040817261" lon="15.7890052795">
        <ele>0</ele>
        <time>2013-05-01T13:31:57Z</time>
      </trkpt>
      <trkpt lat="60.0039405823" lon="15.7891874313">
        <ele>0</ele>
        <time>2013-05-01T13:31:59Z</time>
      </trkpt>
      <trkpt lat="60.0038528442" lon="15.7892971039">
        <ele>0</ele>
        <time>2013-05-01T13:32:00Z</time>
      </trkpt>
      <trkpt lat="60.003780365" lon="15.7893896103">
        <ele>0</ele>
        <time>2013-05-01T13:32:01Z</time>
      </trkpt>
      <trkpt lat="60.0035552979" lon="15.7896642685">
        <ele>0</ele>
        <time>2013-05-01T13:32:04Z</time>
      </trkpt>
      <trkpt lat="60.0034255981" lon="15.7898263931">
        <ele>0</ele>
        <time>2013-05-01T13:32:06Z</time>
      </trkpt>
      <trkpt lat="60.0033569336" lon="15.7899112701">
        <ele>0</ele>
        <time>2013-05-01T13:32:07Z</time>
      </trkpt>
      <trkpt lat="60.0032730103" lon="15.7900075912">
        <ele>0</ele>
        <time>2013-05-01T13:32:08Z</time>
      </trkpt>
      <trkpt lat="60.003200531" lon="15.7900819778">
        <ele>0</ele>
        <time>2013-05-01T13:32:09Z</time>
      </trkpt>
      <trkpt lat="60.0031433105" lon="15.7901220322">
        <ele>0</ele>
        <time>2013-05-01T13:32:10Z</time>
      </trkpt>
      <trkpt lat="60.0030593872" lon="15.790189743">
        <ele>0</ele>
        <time>2013-05-01T13:32:11Z</time>
      </trkpt>
      <trkpt lat="60.002986908" lon="15.7902975082">
        <ele>0</ele>
        <time>2013-05-01T13:32:12Z</time>
      </trkpt>
      <trkpt lat="60.0029220581" lon="15.7904167175">
        <ele>0</ele>
        <time>2013-05-01T13:32:13Z</time>
      </trkpt>
      <trkpt lat="60.0028572083" lon="15.7904920578">
        <ele>0</ele>
        <time>2013-05-01T13:32:14Z</time>
      </trkpt>
      <trkpt lat="60.0027770996" lon="15.7905693054">
        <ele>0</ele>
        <time>2013-05-01T13:32:15Z</time>
      </trkpt>
      <trkpt lat="60.0026893616" lon="15.7906417847">
        <ele>0</ele>
        <time>2013-05-01T13:32:16Z</time>
      </trkpt>
      <trkpt lat="60.0026130676" lon="15.7907209396">
        <ele>0</ele>
        <time>2013-05-01T13:32:17Z</time>
      </trkpt>
      <trkpt lat="60.0025367737" lon="15.7907991409">
        <ele>0</ele>
        <time>2013-05-01T13:32:18Z</time>
      </trkpt>
      <trkpt lat="60.0023422241" lon="15.7910041809">
        <ele>0</ele>
        <time>2013-05-01T13:32:20Z</time>
      </trkpt>
      <trkpt lat="60.0022506714" lon="15.7910919189">
        <ele>0</ele>
        <time>2013-05-01T13:32:21Z</time>
      </trkpt>
      <trkpt lat="60.0021972656" lon="15.7911424637">
        <ele>0</ele>
        <time>2013-05-01T13:32:22Z</time>
      </trkpt>
      <trkpt lat="60.0020942688" lon="15.7912445068">
        <ele>0</ele>
        <time>2013-05-01T13:32:23Z</time>
      </trkpt>
      <trkpt lat="60.0015792847" lon="15.7917633057">
        <ele>0</ele>
        <time>2013-05-01T13:32:30Z</time>
      </trkpt>
      <trkpt lat="60.0014915466" lon="15.7918615341">
        <ele>0</ele>
        <time>2013-05-01T13:32:31Z</time>
      </trkpt>
      <trkpt lat="60.0014228821" lon="15.791934967">
        <ele>0</ele>
        <time>2013-05-01T13:32:32Z</time>
      </trkpt>
      <trkpt lat="60.0012969971" lon="15.7920923233">
        <ele>0</ele>
        <time>2013-05-01T13:32:34Z</time>
      </trkpt>
      <trkpt lat="60.0012245178" lon="15.7921867371">
        <ele>0</ele>
        <time>2013-05-01T13:32:35Z</time>
      </trkpt>
      <trkpt lat="60.0011558533" lon="15.7922859192">
        <ele>0</ele>
        <time>2013-05-01T13:32:36Z</time>
      </trkpt>
      <trkpt lat="60.0010986328" lon="15.7923727036">
        <ele>0</ele>
        <time>2013-05-01T13:32:37Z</time>
      </trkpt>
      <trkpt lat="60.001033783" lon="15.7924690247">
        <ele>0</ele>
        <time>2013-05-01T13:32:38Z</time>
      </trkpt>
      <trkpt lat="60.0009689331" lon="15.7925853729">
        <ele>0</ele>
        <time>2013-05-01T13:32:39Z</time>
      </trkpt>
      <trkpt lat="60.0007286072" lon="15.7930431366">
        <ele>0</ele>
        <time>2013-05-01T13:32:43Z</time>
      </trkpt>
      <trkpt lat="60.0006713867" lon="15.7931747437">
        <ele>0</ele>
        <time>2013-05-01T13:32:44Z</time>
      </trkpt>
      <trkpt lat="60.0006217957" lon="15.793299675">
        <ele>0</ele>
        <time>2013-05-01T13:32:45Z</time>
      </trkpt>
      <trkpt lat="60.0005874634" lon="15.7933959961">
        <ele>0</ele>
        <time>2013-05-01T13:32:46Z</time>
      </trkpt>
      <trkpt lat="60.0005340576" lon="15.7935371399">
        <ele>0</ele>
        <time>2013-05-01T13:32:47Z</time>
      </trkpt>
      <trkpt lat="60.0004806519" lon="15.7936983109">
        <ele>0</ele>
        <time>2013-05-01T13:32:48Z</time>
      </trkpt>
      <trkpt lat="60.0004386902" lon="15.7938375473">
        <ele>0</ele>
        <time>2013-05-01T13:32:49Z</time>
      </trkpt>
      <trkpt lat="60.0003128052" lon="15.7942495346">
        <ele>0</ele>
        <time>2013-05-01T13:32:52Z</time>
      </trkpt>
      <trkpt lat="60.0001716614" lon="15.7948713303">
        <ele>0</ele>
        <time>2013-05-01T13:32:56Z</time>
      </trkpt>
      <trkpt lat="60.0001411438" lon="15.7950143814">
        <ele>0</ele>
        <time>2013-05-01T13:32:57Z</time>
      </trkpt>
      <trkpt lat="60.0001220703" lon="15.7951517105">
        <ele>0</ele>
        <time>2013-05-01T13:32:58Z</time>
      </trkpt>
      <trkpt lat="60.0000991821" lon="15.7952861786">
        <ele>0</ele>
        <time>2013-05-01T13:32:59Z</time>
      </trkpt>
      <trkpt lat="60.0000648499" lon="15.7955331802">
        <ele>0</ele>
        <time>2013-05-01T13:33:00Z</time>
      </trkpt>
      <trkpt lat="60.0000419617" lon="15.7957181931">
        <ele>0</ele>
        <time>2013-05-01T13:33:01Z</time>
      </trkpt>
      <trkpt lat="60.0000228882" lon="15.7958726883">
        <ele>0</ele>
        <time>2013-05-01T13:33:02Z</time>
      </trkpt>
      <trkpt lat="60.0000038147" lon="15.7960338593">
        <ele>0</ele>
        <time>2013-05-01T13:33:03Z</time>
      </trkpt>
      <trkpt lat="59.9999809265" lon="15.7961912155">
        <ele>0</ele>
        <time>2013-05-01T13:33:04Z</time>
      </trkpt>
      <trkpt lat="59.9999427795" lon="15.796333313">
        <ele>0</ele>
        <time>2013-05-01T13:33:05Z</time>
      </trkpt>
      <trkpt lat="59.9999008179" lon="15.7964725494">
        <ele>0</ele>
        <time>2013-05-01T13:33:06Z</time>
      </trkpt>
      <trkpt lat="59.9998474121" lon="15.7965974808">
        <ele>0</ele>
        <time>2013-05-01T13:33:07Z</time>
      </trkpt>
      <trkpt lat="59.9998130798" lon="15.7967510223">
        <ele>0</ele>
        <time>2013-05-01T13:33:08Z</time>
      </trkpt>
      <trkpt lat="59.9997901917" lon="15.7969083786">
        <ele>0</ele>
        <time>2013-05-01T13:33:09Z</time>
      </trkpt>
      <trkpt lat="59.9997711182" lon="15.7970705032">
        <ele>0</ele>
        <time>2013-05-01T13:33:10Z</time>
      </trkpt>
      <trkpt lat="59.9997711182" lon="15.7972326279">
        <ele>0</ele>
        <time>2013-05-01T13:33:11Z</time>
      </trkpt>
      <trkpt lat="59.9997367859" lon="15.797747612">
        <ele>0</ele>
        <time>2013-05-01T13:33:14Z</time>
      </trkpt>
      <trkpt lat="59.9996795654" lon="15.7982282639">
        <ele>0</ele>
        <time>2013-05-01T13:33:17Z</time>
      </trkpt>
      <trkpt lat="59.9996566772" lon="15.7983846664">
        <ele>0</ele>
        <time>2013-05-01T13:33:18Z</time>
      </trkpt>
      <trkpt lat="59.9996376038" lon="15.7985343933">
        <ele>0</ele>
        <time>2013-05-01T13:33:19Z</time>
      </trkpt>
      <trkpt lat="59.9996185303" lon="15.7986841202">
        <ele>0</ele>
        <time>2013-05-01T13:33:20Z</time>
      </trkpt>
      <trkpt lat="59.9995956421" lon="15.7988262177">
        <ele>0</ele>
        <time>2013-05-01T13:33:21Z</time>
      </trkpt>
      <trkpt lat="59.9995765686" lon="15.7989749908">
        <ele>0</ele>
        <time>2013-05-01T13:33:22Z</time>
      </trkpt>
      <trkpt lat="59.9995536804" lon="15.7991361618">
        <ele>0</ele>
        <time>2013-05-01T13:33:23Z</time>
      </trkpt>
      <trkpt lat="59.9995307922" lon="15.7992811203">
        <ele>0</ele>
        <time>2013-05-01T13:33:24Z</time>
      </trkpt>
      <trkpt lat="59.9995079041" lon="15.7994232178">
        <ele>0</ele>
        <time>2013-05-01T13:33:25Z</time>
      </trkpt>
      <trkpt lat="59.9994850159" lon="15.7995662689">
        <ele>0</ele>
        <time>2013-05-01T13:33:26Z</time>
      </trkpt>
      <trkpt lat="59.9994621277" lon="15.799703598">
        <ele>0</ele>
        <time>2013-05-01T13:33:27Z</time>
      </trkpt>
      <trkpt lat="59.9994392395" lon="15.7998428345">
        <ele>0</ele>
        <time>2013-05-01T13:33:28Z</time>
      </trkpt>
      <trkpt lat="59.9994163513" lon="15.7999868393">
        <ele>0</ele>
        <time>2013-05-01T13:33:29Z</time>
      </trkpt>
      <trkpt lat="59.9993934631" lon="15.8001279831">
        <ele>0</ele>
        <time>2013-05-01T13:33:30Z</time>
      </trkpt>
      <trkpt lat="59.9993667603" lon="15.8002643585">
        <ele>0</ele>
        <time>2013-05-01T13:33:31Z</time>
      </trkpt>
      <trkpt lat="59.9993400574" lon="15.8004169464">
        <ele>0</ele>
        <time>2013-05-01T13:33:32Z</time>
      </trkpt>
      <trkpt lat="59.9993133545" lon="15.8005561829">
        <ele>0</ele>
        <time>2013-05-01T13:33:33Z</time>
      </trkpt>
      <trkpt lat="59.9992256165" lon="15.800983429">
        <ele>0</ele>
        <time>2013-05-01T13:33:36Z</time>
      </trkpt>
      <trkpt lat="59.9991912842" lon="15.8011465073">
        <ele>0</ele>
        <time>2013-05-01T13:33:37Z</time>
      </trkpt>
      <trkpt lat="59.9991607666" lon="15.8012905121">
        <ele>0</ele>
        <time>2013-05-01T13:33:38Z</time>
      </trkpt>
      <trkpt lat="59.999130249" lon="15.8014240265">
        <ele>0</ele>
        <time>2013-05-01T13:33:39Z</time>
      </trkpt>
      <trkpt lat="59.9990997314" lon="15.8015537262">
        <ele>0</ele>
        <time>2013-05-01T13:33:40Z</time>
      </trkpt>
      <trkpt lat="59.9990653992" lon="15.8016824722">
        <ele>0</ele>
        <time>2013-05-01T13:33:41Z</time>
      </trkpt>
      <trkpt lat="59.9990310669" lon="15.8018102646">
        <ele>0</ele>
        <time>2013-05-01T13:33:42Z</time>
      </trkpt>
      <trkpt lat="59.9989967346" lon="15.8019380569">
        <ele>0</ele>
        <time>2013-05-01T13:33:43Z</time>
      </trkpt>
      <trkpt lat="59.9989585876" lon="15.802063942">
        <ele>0</ele>
        <time>2013-05-01T13:33:44Z</time>
      </trkpt>
      <trkpt lat="59.9989204407" lon="15.8021974564">
        <ele>0</ele>
        <time>2013-05-01T13:33:45Z</time>
      </trkpt>
      <trkpt lat="59.9988822937" lon="15.8023271561">
        <ele>0</ele>
        <time>2013-05-01T13:33:46Z</time>
      </trkpt>
      <trkpt lat="59.9988441467" lon="15.8024568558">
        <ele>0</ele>
        <time>2013-05-01T13:33:47Z</time>
      </trkpt>
      <trkpt lat="59.9988021851" lon="15.8025932312">
        <ele>0</ele>
        <time>2013-05-01T13:33:48Z</time>
      </trkpt>
      <trkpt lat="59.9987640381" lon="15.8027210236">
        <ele>0</ele>
        <time>2013-05-01T13:33:49Z</time>
      </trkpt>
      <trkpt lat="59.9987220764" lon="15.8028497696">
        <ele>0</ele>
        <time>2013-05-01T13:33:50Z</time>
      </trkpt>
      <trkpt lat="59.9986801147" lon="15.8029670715">
        <ele>0</ele>
        <time>2013-05-01T13:33:51Z</time>
      </trkpt>
      <trkpt lat="59.9985809326" lon="15.803237915">
        <ele>0</ele>
        <time>2013-05-01T13:33:53Z</time>
      </trkpt>
      <trkpt lat="59.9985313416" lon="15.8033695221">
        <ele>0</ele>
        <time>2013-05-01T13:33:54Z</time>
      </trkpt>
      <trkpt lat="59.9984817505" lon="15.8034944534">
        <ele>0</ele>
        <time>2013-05-01T13:33:55Z</time>
      </trkpt>
      <trkpt lat="59.9984321594" lon="15.8036050797">
        <ele>0</ele>
        <time>2013-05-01T13:33:56Z</time>
      </trkpt>
      <trkpt lat="59.9983711243" lon="15.8037433624">
        <ele>0</ele>
        <time>2013-05-01T13:33:57Z</time>
      </trkpt>
      <trkpt lat="59.9983177185" lon="15.8038673401">
        <ele>0</ele>
        <time>2013-05-01T13:33:58Z</time>
      </trkpt>
      <trkpt lat="59.998260498" lon="15.8039894104">
        <ele>0</ele>
        <time>2013-05-01T13:33:59Z</time>
      </trkpt>
      <trkpt lat="59.9981994629" lon="15.8041114807">
        <ele>0</ele>
        <time>2013-05-01T13:34:00Z</time>
      </trkpt>
      <trkpt lat="59.9978866577" lon="15.8047132492">
        <ele>0</ele>
        <time>2013-05-01T13:34:05Z</time>
      </trkpt>
      <trkpt lat="59.9975624084" lon="15.8052759171">
        <ele>0</ele>
        <time>2013-05-01T13:34:10Z</time>
      </trkpt>
      <trkpt lat="59.9974937439" lon="15.8053712845">
        <ele>0</ele>
        <time>2013-05-01T13:34:11Z</time>
      </trkpt>
      <trkpt lat="59.9973564148" lon="15.8055839539">
        <ele>0</ele>
        <time>2013-05-01T13:34:13Z</time>
      </trkpt>
      <trkpt lat="59.9972915649" lon="15.8056840897">
        <ele>0</ele>
        <time>2013-05-01T13:34:14Z</time>
      </trkpt>
      <trkpt lat="59.9972229004" lon="15.805773735">
        <ele>0</ele>
        <time>2013-05-01T13:34:15Z</time>
      </trkpt>
      <trkpt lat="59.9971618652" lon="15.8058605194">
        <ele>0</ele>
        <time>2013-05-01T13:34:16Z</time>
      </trkpt>
      <trkpt lat="59.9970855713" lon="15.8059711456">
        <ele>0</ele>
        <time>2013-05-01T13:34:17Z</time>
      </trkpt>
      <trkpt lat="59.9970207214" lon="15.8060646057">
        <ele>0</ele>
        <time>2013-05-01T13:34:18Z</time>
      </trkpt>
      <trkpt lat="59.9969558716" lon="15.8061437607">
        <ele>0</ele>
        <time>2013-05-01T13:34:19Z</time>
      </trkpt>
      <trkpt lat="59.9968910217" lon="15.806230545">
        <ele>0</ele>
        <time>2013-05-01T13:34:20Z</time>
      </trkpt>
      <trkpt lat="59.9968338013" lon="15.8063049316">
        <ele>0</ele>
        <time>2013-05-01T13:34:21Z</time>
      </trkpt>
      <trkpt lat="59.9967079163" lon="15.8064670563">
        <ele>0</ele>
        <time>2013-05-01T13:34:23Z</time>
      </trkpt>
      <trkpt lat="59.996219635" lon="15.8070898056">
        <ele>0</ele>
        <time>2013-05-01T13:34:31Z</time>
      </trkpt>
      <trkpt lat="59.9961585999" lon="15.80717659">
        <ele>0</ele>
        <time>2013-05-01T13:34:32Z</time>
      </trkpt>
      <trkpt lat="59.9960975647" lon="15.8072538376">
        <ele>0</ele>
        <time>2013-05-01T13:34:33Z</time>
      </trkpt>
      <trkpt lat="59.9960365295" lon="15.8073310852">
        <ele>0</ele>
        <time>2013-05-01T13:34:34Z</time>
      </trkpt>
      <trkpt lat="59.9959793091" lon="15.8074073792">
        <ele>0</ele>
        <time>2013-05-01T13:34:35Z</time>
      </trkpt>
      <trkpt lat="59.9959220886" lon="15.8074760437">
        <ele>0</ele>
        <time>2013-05-01T13:34:36Z</time>
      </trkpt>
      <trkpt lat="59.9958572388" lon="15.8075580597">
        <ele>0</ele>
        <time>2013-05-01T13:34:37Z</time>
      </trkpt>
      <trkpt lat="59.9958000183" lon="15.8076324463">
        <ele>0</ele>
        <time>2013-05-01T13:34:38Z</time>
      </trkpt>
      <trkpt lat="59.9957389832" lon="15.8077020645">
        <ele>0</ele>
        <time>2013-05-01T13:34:39Z</time>
      </trkpt>
      <trkpt lat="59.9956855774" lon="15.8077707291">
        <ele>0</ele>
        <time>2013-05-01T13:34:40Z</time>
      </trkpt>
      <trkpt lat="59.9956283569" lon="15.8078393936">
        <ele>0</ele>
        <time>2013-05-01T13:34:41Z</time>
      </trkpt>
      <trkpt lat="59.9955711365" lon="15.8079109192">
        <ele>0</ele>
        <time>2013-05-01T13:34:42Z</time>
      </trkpt>
      <trkpt lat="59.9955177307" lon="15.8080129623">
        <ele>0</ele>
        <time>2013-05-01T13:34:43Z</time>
      </trkpt>
      <trkpt lat="59.995464325" lon="15.80809021">
        <ele>0</ele>
        <time>2013-05-01T13:34:44Z</time>
      </trkpt>
      <trkpt lat="59.9952888489" lon="15.8081712723">
        <ele>0</ele>
        <time>2013-05-01T13:34:47Z</time>
      </trkpt>
      <trkpt lat="59.9952316284" lon="15.8081502914">
        <ele>0</ele>
        <time>2013-05-01T13:34:48Z</time>
      </trkpt>
      <trkpt lat="59.9951782227" lon="15.8081073761">
        <ele>0</ele>
        <time>2013-05-01T13:34:49Z</time>
      </trkpt>
      <trkpt lat="59.9951248169" lon="15.8080635071">
        <ele>0</ele>
        <time>2013-05-01T13:34:50Z</time>
      </trkpt>
      <trkpt lat="59.995098114" lon="15.8079872131">
        <ele>0</ele>
        <time>2013-05-01T13:34:51Z</time>
      </trkpt>
      <trkpt lat="59.9950637817" lon="15.8079175949">
        <ele>0</ele>
        <time>2013-05-01T13:34:52Z</time>
      </trkpt>
      <trkpt lat="59.9950408936" lon="15.8078393936">
        <ele>0</ele>
        <time>2013-05-01T13:34:53Z</time>
      </trkpt>
      <trkpt lat="59.9950027466" lon="15.8076944351">
        <ele>0</ele>
        <time>2013-05-01T13:34:55Z</time>
      </trkpt>
      <trkpt lat="59.9949836731" lon="15.8076353073">
        <ele>0</ele>
        <time>2013-05-01T13:34:56Z</time>
      </trkpt>
      <trkpt lat="59.9949684143" lon="15.8075723648">
        <ele>0</ele>
        <time>2013-05-01T13:34:57Z</time>
      </trkpt>
      <trkpt lat="59.9949531555" lon="15.807518959">
        <ele>0</ele>
        <time>2013-05-01T13:34:58Z</time>
      </trkpt>
      <trkpt lat="59.9949188232" lon="15.807510376">
        <ele>0</ele>
        <time>2013-05-01T13:35:00Z</time>
      </trkpt>
      <trkpt lat="59.9949455261" lon="15.8076448441">
        <ele>0</ele>
        <time>2013-05-01T13:35:01Z</time>
      </trkpt>
      <trkpt lat="59.9949607849" lon="15.8077001572">
        <ele>0</ele>
        <time>2013-05-01T13:35:02Z</time>
      </trkpt>
      <trkpt lat="59.9949913025" lon="15.8078298569">
        <ele>0</ele>
        <time>2013-05-01T13:35:04Z</time>
      </trkpt>
      <trkpt lat="59.9949684143" lon="15.8079786301">
        <ele>0</ele>
        <time>2013-05-01T13:35:06Z</time>
      </trkpt>
      <trkpt lat="59.9948883057" lon="15.808057785">
        <ele>0</ele>
        <time>2013-05-01T13:35:08Z</time>
      </trkpt>
      <trkpt lat="59.9948043823" lon="15.8080949783">
        <ele>0</ele>
        <time>2013-05-01T13:35:10Z</time>
      </trkpt>
      <trkpt lat="59.9947624207" lon="15.8081102371">
        <ele>0</ele>
        <time>2013-05-01T13:35:11Z</time>
      </trkpt>
      <trkpt lat="59.9947166443" lon="15.8081150055">
        <ele>0</ele>
        <time>2013-05-01T13:35:12Z</time>
      </trkpt>
      <trkpt lat="59.9946670532" lon="15.8081159592">
        <ele>0</ele>
        <time>2013-05-01T13:35:13Z</time>
      </trkpt>
      <trkpt lat="59.9945259094" lon="15.808093071">
        <ele>0</ele>
        <time>2013-05-01T13:35:16Z</time>
      </trkpt>
      <trkpt lat="59.994468689" lon="15.808052063">
        <ele>0</ele>
        <time>2013-05-01T13:35:17Z</time>
      </trkpt>
      <trkpt lat="59.9943122864" lon="15.8078765869">
        <ele>0</ele>
        <time>2013-05-01T13:35:20Z</time>
      </trkpt>
      <trkpt lat="59.9942131042" lon="15.8077497482">
        <ele>0</ele>
        <time>2013-05-01T13:35:22Z</time>
      </trkpt>
      <trkpt lat="59.9940643311" lon="15.8075828552">
        <ele>0</ele>
        <time>2013-05-01T13:35:25Z</time>
      </trkpt>
      <trkpt lat="59.9939727783" lon="15.8075218201">
        <ele>0</ele>
        <time>2013-05-01T13:35:27Z</time>
      </trkpt>
      <trkpt lat="59.993927002" lon="15.807518959">
        <ele>0</ele>
        <time>2013-05-01T13:35:28Z</time>
      </trkpt>
      <trkpt lat="59.9937896729" lon="15.8075370789">
        <ele>0</ele>
        <time>2013-05-01T13:35:31Z</time>
      </trkpt>
      <trkpt lat="59.9937477112" lon="15.8075590134">
        <ele>0</ele>
        <time>2013-05-01T13:35:32Z</time>
      </trkpt>
      <trkpt lat="59.9917373657" lon="15.8100395203">
        <ele>0</ele>
        <time>2013-05-01T13:36:25Z</time>
      </trkpt>
      <trkpt lat="59.9917030334" lon="15.8101129532">
        <ele>0</ele>
        <time>2013-05-01T13:36:26Z</time>
      </trkpt>
    </trkseg>
  </trk>
</gpx>